<?xml version="1.0" encoding="UTF-8" standalone="no" ?>
<gpx xmlns="http://www.topografix.com/GPX/1/1" creator="www.cicloide.com" version="1.1" xmlns:xsi="http://www.w3.org/2001/XMLSchema-instance" xsi:schemaLocation="http://www.topografix.com/GPX/1/1 http://www.topografix.com/GPX/1/1/gpx.xsd">
  <trk>
    <name>www.cicloide.com 17137</name>
    <desc>www.cicloide.com 17137</desc>
    <trkseg>
      <trkpt lat="41.604825790" lon="2.539276770">
        <ele>114.00</ele>
        <time>2014-02-23T07:56:29Z</time>
      </trkpt>
      <trkpt lat="41.604886810" lon="2.539256820">
        <ele>114.00</ele>
        <time>2014-02-23T07:56:31Z</time>
      </trkpt>
      <trkpt lat="41.604886810" lon="2.539256820">
        <ele>114.00</ele>
        <time>2014-02-23T07:56:31Z</time>
      </trkpt>
      <trkpt lat="41.604621780" lon="2.539343490">
        <ele>114.00</ele>
        <time>2014-02-23T07:56:33Z</time>
      </trkpt>
      <trkpt lat="41.604621780" lon="2.539345000">
        <ele>114.00</ele>
        <time>2014-02-23T07:56:35Z</time>
      </trkpt>
      <trkpt lat="41.604620100" lon="2.539345000">
        <ele>114.00</ele>
        <time>2014-02-23T07:56:36Z</time>
      </trkpt>
      <trkpt lat="41.604620100" lon="2.539346680">
        <ele>114.00</ele>
        <time>2014-02-23T07:56:37Z</time>
      </trkpt>
      <trkpt lat="41.604618430" lon="2.539346680">
        <ele>114.00</ele>
        <time>2014-02-23T07:56:38Z</time>
      </trkpt>
      <trkpt lat="41.604618430" lon="2.539348360">
        <ele>114.00</ele>
        <time>2014-02-23T07:56:39Z</time>
      </trkpt>
      <trkpt lat="41.604616750" lon="2.539348360">
        <ele>114.00</ele>
        <time>2014-02-23T07:56:40Z</time>
      </trkpt>
      <trkpt lat="41.604616750" lon="2.539350030">
        <ele>114.00</ele>
        <time>2014-02-23T07:56:41Z</time>
      </trkpt>
      <trkpt lat="41.604615070" lon="2.539350030">
        <ele>114.00</ele>
        <time>2014-02-23T07:56:42Z</time>
      </trkpt>
      <trkpt lat="41.604613400" lon="2.539350030">
        <ele>114.00</ele>
        <time>2014-02-23T07:56:43Z</time>
      </trkpt>
      <trkpt lat="41.604613400" lon="2.539351710">
        <ele>114.00</ele>
        <time>2014-02-23T07:56:44Z</time>
      </trkpt>
      <trkpt lat="41.604611720" lon="2.539351710">
        <ele>114.00</ele>
        <time>2014-02-23T07:56:45Z</time>
      </trkpt>
      <trkpt lat="41.604611720" lon="2.539353380">
        <ele>114.00</ele>
        <time>2014-02-23T07:56:46Z</time>
      </trkpt>
      <trkpt lat="41.604610040" lon="2.539353380">
        <ele>114.00</ele>
        <time>2014-02-23T07:56:47Z</time>
      </trkpt>
      <trkpt lat="41.604610040" lon="2.539353380">
        <ele>114.00</ele>
        <time>2014-02-23T07:56:48Z</time>
      </trkpt>
      <trkpt lat="41.604608370" lon="2.539353380">
        <ele>114.00</ele>
        <time>2014-02-23T07:56:49Z</time>
      </trkpt>
      <trkpt lat="41.604608370" lon="2.539355060">
        <ele>114.00</ele>
        <time>2014-02-23T07:56:50Z</time>
      </trkpt>
      <trkpt lat="41.604606690" lon="2.539355060">
        <ele>114.00</ele>
        <time>2014-02-23T07:56:51Z</time>
      </trkpt>
      <trkpt lat="41.604606690" lon="2.539355060">
        <ele>114.00</ele>
        <time>2014-02-23T07:56:52Z</time>
      </trkpt>
      <trkpt lat="41.604605010" lon="2.539355060">
        <ele>114.00</ele>
        <time>2014-02-23T07:56:53Z</time>
      </trkpt>
      <trkpt lat="41.604605010" lon="2.539355060">
        <ele>114.00</ele>
        <time>2014-02-23T07:56:54Z</time>
      </trkpt>
      <trkpt lat="41.604603340" lon="2.539356740">
        <ele>114.00</ele>
        <time>2014-02-23T07:56:55Z</time>
      </trkpt>
      <trkpt lat="41.604603340" lon="2.539356740">
        <ele>114.00</ele>
        <time>2014-02-23T07:56:56Z</time>
      </trkpt>
      <trkpt lat="41.604603340" lon="2.539356740">
        <ele>114.00</ele>
        <time>2014-02-23T07:56:57Z</time>
      </trkpt>
      <trkpt lat="41.604601830" lon="2.539356740">
        <ele>114.00</ele>
        <time>2014-02-23T07:56:58Z</time>
      </trkpt>
      <trkpt lat="41.604594790" lon="2.539354730">
        <ele>114.00</ele>
        <time>2014-02-23T07:57:01Z</time>
      </trkpt>
      <trkpt lat="41.604596800" lon="2.539355060">
        <ele>114.00</ele>
        <time>2014-02-23T07:57:03Z</time>
      </trkpt>
      <trkpt lat="41.604596800" lon="2.539355060">
        <ele>114.00</ele>
        <time>2014-02-23T07:57:04Z</time>
      </trkpt>
      <trkpt lat="41.604598480" lon="2.539355060">
        <ele>114.00</ele>
        <time>2014-02-23T07:57:05Z</time>
      </trkpt>
      <trkpt lat="41.604598480" lon="2.539355060">
        <ele>114.00</ele>
        <time>2014-02-23T07:57:06Z</time>
      </trkpt>
      <trkpt lat="41.604598480" lon="2.539356740">
        <ele>114.00</ele>
        <time>2014-02-23T07:57:07Z</time>
      </trkpt>
      <trkpt lat="41.604598480" lon="2.539355060">
        <ele>114.00</ele>
        <time>2014-02-23T07:57:08Z</time>
      </trkpt>
      <trkpt lat="41.604596800" lon="2.539353380">
        <ele>114.00</ele>
        <time>2014-02-23T07:57:09Z</time>
      </trkpt>
      <trkpt lat="41.604596800" lon="2.539351710">
        <ele>114.00</ele>
        <time>2014-02-23T07:57:10Z</time>
      </trkpt>
      <trkpt lat="41.604596800" lon="2.539350030">
        <ele>114.00</ele>
        <time>2014-02-23T07:57:11Z</time>
      </trkpt>
      <trkpt lat="41.604595120" lon="2.539350030">
        <ele>114.00</ele>
        <time>2014-02-23T07:57:12Z</time>
      </trkpt>
      <trkpt lat="41.604595120" lon="2.539348360">
        <ele>114.00</ele>
        <time>2014-02-23T07:57:13Z</time>
      </trkpt>
      <trkpt lat="41.604595120" lon="2.539348360">
        <ele>114.00</ele>
        <time>2014-02-23T07:57:14Z</time>
      </trkpt>
      <trkpt lat="41.604593450" lon="2.539346680">
        <ele>114.00</ele>
        <time>2014-02-23T07:57:15Z</time>
      </trkpt>
      <trkpt lat="41.604593450" lon="2.539346680">
        <ele>114.00</ele>
        <time>2014-02-23T07:57:16Z</time>
      </trkpt>
      <trkpt lat="41.604593450" lon="2.539346680">
        <ele>114.00</ele>
        <time>2014-02-23T07:57:17Z</time>
      </trkpt>
      <trkpt lat="41.604593450" lon="2.539346680">
        <ele>114.00</ele>
        <time>2014-02-23T07:57:18Z</time>
      </trkpt>
      <trkpt lat="41.604591770" lon="2.539346680">
        <ele>114.00</ele>
        <time>2014-02-23T07:57:19Z</time>
      </trkpt>
      <trkpt lat="41.604591770" lon="2.539345000">
        <ele>114.00</ele>
        <time>2014-02-23T07:57:20Z</time>
      </trkpt>
      <trkpt lat="41.604591770" lon="2.539345000">
        <ele>114.00</ele>
        <time>2014-02-23T07:57:21Z</time>
      </trkpt>
      <trkpt lat="41.604591770" lon="2.539345000">
        <ele>114.00</ele>
        <time>2014-02-23T07:57:22Z</time>
      </trkpt>
      <trkpt lat="41.604590090" lon="2.539345000">
        <ele>114.00</ele>
        <time>2014-02-23T07:57:23Z</time>
      </trkpt>
      <trkpt lat="41.604590090" lon="2.539345000">
        <ele>114.00</ele>
        <time>2014-02-23T07:57:24Z</time>
      </trkpt>
      <trkpt lat="41.604590090" lon="2.539345000">
        <ele>114.00</ele>
        <time>2014-02-23T07:57:25Z</time>
      </trkpt>
      <trkpt lat="41.604590090" lon="2.539346680">
        <ele>114.00</ele>
        <time>2014-02-23T07:57:26Z</time>
      </trkpt>
      <trkpt lat="41.604590090" lon="2.539346680">
        <ele>114.00</ele>
        <time>2014-02-23T07:57:27Z</time>
      </trkpt>
      <trkpt lat="41.604588420" lon="2.539346680">
        <ele>114.00</ele>
        <time>2014-02-23T07:57:28Z</time>
      </trkpt>
      <trkpt lat="41.604588420" lon="2.539346680">
        <ele>114.00</ele>
        <time>2014-02-23T07:57:29Z</time>
      </trkpt>
      <trkpt lat="41.604588420" lon="2.539346680">
        <ele>114.00</ele>
        <time>2014-02-23T07:57:30Z</time>
      </trkpt>
      <trkpt lat="41.604588420" lon="2.539345000">
        <ele>114.00</ele>
        <time>2014-02-23T07:57:31Z</time>
      </trkpt>
      <trkpt lat="41.604586740" lon="2.539345000">
        <ele>114.00</ele>
        <time>2014-02-23T07:57:32Z</time>
      </trkpt>
      <trkpt lat="41.604585070" lon="2.539345000">
        <ele>114.00</ele>
        <time>2014-02-23T07:57:33Z</time>
      </trkpt>
      <trkpt lat="41.604583390" lon="2.539343490">
        <ele>114.00</ele>
        <time>2014-02-23T07:57:34Z</time>
      </trkpt>
      <trkpt lat="41.604583390" lon="2.539343490">
        <ele>114.00</ele>
        <time>2014-02-23T07:57:35Z</time>
      </trkpt>
      <trkpt lat="41.604581710" lon="2.539341820">
        <ele>114.00</ele>
        <time>2014-02-23T07:57:36Z</time>
      </trkpt>
      <trkpt lat="41.604581710" lon="2.539341820">
        <ele>114.00</ele>
        <time>2014-02-23T07:57:37Z</time>
      </trkpt>
      <trkpt lat="41.604580040" lon="2.539340140">
        <ele>114.00</ele>
        <time>2014-02-23T07:57:38Z</time>
      </trkpt>
      <trkpt lat="41.604580040" lon="2.539338460">
        <ele>114.00</ele>
        <time>2014-02-23T07:57:39Z</time>
      </trkpt>
      <trkpt lat="41.604578360" lon="2.539336790">
        <ele>114.00</ele>
        <time>2014-02-23T07:57:40Z</time>
      </trkpt>
      <trkpt lat="41.604578360" lon="2.539335110">
        <ele>114.00</ele>
        <time>2014-02-23T07:57:41Z</time>
      </trkpt>
      <trkpt lat="41.604576680" lon="2.539331760">
        <ele>114.00</ele>
        <time>2014-02-23T07:57:42Z</time>
      </trkpt>
      <trkpt lat="41.604576680" lon="2.539330080">
        <ele>114.00</ele>
        <time>2014-02-23T07:57:43Z</time>
      </trkpt>
      <trkpt lat="41.604576680" lon="2.539330080">
        <ele>114.00</ele>
        <time>2014-02-23T07:57:44Z</time>
      </trkpt>
      <trkpt lat="41.604575010" lon="2.539330080">
        <ele>114.00</ele>
        <time>2014-02-23T07:57:45Z</time>
      </trkpt>
      <trkpt lat="41.604575010" lon="2.539330080">
        <ele>114.00</ele>
        <time>2014-02-23T07:57:46Z</time>
      </trkpt>
      <trkpt lat="41.604573330" lon="2.539330080">
        <ele>114.00</ele>
        <time>2014-02-23T07:57:47Z</time>
      </trkpt>
      <trkpt lat="41.604573330" lon="2.539330080">
        <ele>114.00</ele>
        <time>2014-02-23T07:57:48Z</time>
      </trkpt>
      <trkpt lat="41.604573330" lon="2.539330080">
        <ele>114.00</ele>
        <time>2014-02-23T07:57:49Z</time>
      </trkpt>
      <trkpt lat="41.604573330" lon="2.539330080">
        <ele>114.00</ele>
        <time>2014-02-23T07:57:50Z</time>
      </trkpt>
      <trkpt lat="41.604573330" lon="2.539330080">
        <ele>114.00</ele>
        <time>2014-02-23T07:57:51Z</time>
      </trkpt>
      <trkpt lat="41.604571820" lon="2.539330080">
        <ele>114.00</ele>
        <time>2014-02-23T07:57:52Z</time>
      </trkpt>
      <trkpt lat="41.604571820" lon="2.539330080">
        <ele>114.00</ele>
        <time>2014-02-23T07:57:53Z</time>
      </trkpt>
      <trkpt lat="41.604571820" lon="2.539330080">
        <ele>114.00</ele>
        <time>2014-02-23T07:57:54Z</time>
      </trkpt>
      <trkpt lat="41.604571820" lon="2.539330080">
        <ele>114.00</ele>
        <time>2014-02-23T07:57:55Z</time>
      </trkpt>
      <trkpt lat="41.604571820" lon="2.539330080">
        <ele>114.00</ele>
        <time>2014-02-23T07:57:56Z</time>
      </trkpt>
      <trkpt lat="41.604570150" lon="2.539330080">
        <ele>114.00</ele>
        <time>2014-02-23T07:57:57Z</time>
      </trkpt>
      <trkpt lat="41.604570150" lon="2.539330080">
        <ele>114.00</ele>
        <time>2014-02-23T07:57:58Z</time>
      </trkpt>
      <trkpt lat="41.604570150" lon="2.539330080">
        <ele>114.00</ele>
        <time>2014-02-23T07:57:59Z</time>
      </trkpt>
      <trkpt lat="41.604570150" lon="2.539330080">
        <ele>114.00</ele>
        <time>2014-02-23T07:58:00Z</time>
      </trkpt>
      <trkpt lat="41.604570150" lon="2.539330080">
        <ele>114.00</ele>
        <time>2014-02-23T07:58:01Z</time>
      </trkpt>
      <trkpt lat="41.604570150" lon="2.539330080">
        <ele>114.00</ele>
        <time>2014-02-23T07:58:02Z</time>
      </trkpt>
      <trkpt lat="41.604570150" lon="2.539330080">
        <ele>114.00</ele>
        <time>2014-02-23T07:58:03Z</time>
      </trkpt>
      <trkpt lat="41.604570150" lon="2.539330080">
        <ele>114.00</ele>
        <time>2014-02-23T07:58:04Z</time>
      </trkpt>
      <trkpt lat="41.604570150" lon="2.539330080">
        <ele>114.00</ele>
        <time>2014-02-23T07:58:05Z</time>
      </trkpt>
      <trkpt lat="41.604570150" lon="2.539330080">
        <ele>114.00</ele>
        <time>2014-02-23T07:58:06Z</time>
      </trkpt>
      <trkpt lat="41.604570150" lon="2.539330080">
        <ele>114.00</ele>
        <time>2014-02-23T07:58:07Z</time>
      </trkpt>
      <trkpt lat="41.604568470" lon="2.539330080">
        <ele>114.00</ele>
        <time>2014-02-23T07:58:08Z</time>
      </trkpt>
      <trkpt lat="41.604568470" lon="2.539330080">
        <ele>114.00</ele>
        <time>2014-02-23T07:58:09Z</time>
      </trkpt>
      <trkpt lat="41.604568470" lon="2.539330080">
        <ele>114.00</ele>
        <time>2014-02-23T07:58:10Z</time>
      </trkpt>
      <trkpt lat="41.604568470" lon="2.539331760">
        <ele>114.00</ele>
        <time>2014-02-23T07:58:11Z</time>
      </trkpt>
      <trkpt lat="41.604568470" lon="2.539331760">
        <ele>114.00</ele>
        <time>2014-02-23T07:58:12Z</time>
      </trkpt>
      <trkpt lat="41.604568470" lon="2.539331760">
        <ele>114.00</ele>
        <time>2014-02-23T07:58:13Z</time>
      </trkpt>
      <trkpt lat="41.604568470" lon="2.539331760">
        <ele>114.00</ele>
        <time>2014-02-23T07:58:14Z</time>
      </trkpt>
      <trkpt lat="41.604568470" lon="2.539331760">
        <ele>114.00</ele>
        <time>2014-02-23T07:58:15Z</time>
      </trkpt>
      <trkpt lat="41.604568470" lon="2.539331760">
        <ele>114.00</ele>
        <time>2014-02-23T07:58:16Z</time>
      </trkpt>
      <trkpt lat="41.604570150" lon="2.539331760">
        <ele>114.00</ele>
        <time>2014-02-23T07:58:17Z</time>
      </trkpt>
      <trkpt lat="41.604571820" lon="2.539335110">
        <ele>114.00</ele>
        <time>2014-02-23T07:58:18Z</time>
      </trkpt>
      <trkpt lat="41.604573330" lon="2.539336790">
        <ele>114.00</ele>
        <time>2014-02-23T07:58:19Z</time>
      </trkpt>
      <trkpt lat="41.604575010" lon="2.539338460">
        <ele>114.00</ele>
        <time>2014-02-23T07:58:20Z</time>
      </trkpt>
      <trkpt lat="41.604576680" lon="2.539341820">
        <ele>114.00</ele>
        <time>2014-02-23T07:58:21Z</time>
      </trkpt>
      <trkpt lat="41.604578360" lon="2.539345000">
        <ele>114.00</ele>
        <time>2014-02-23T07:58:22Z</time>
      </trkpt>
      <trkpt lat="41.604580040" lon="2.539345000">
        <ele>114.00</ele>
        <time>2014-02-23T07:58:23Z</time>
      </trkpt>
      <trkpt lat="41.604581710" lon="2.539348360">
        <ele>114.00</ele>
        <time>2014-02-23T07:58:24Z</time>
      </trkpt>
      <trkpt lat="41.604581710" lon="2.539348360">
        <ele>114.00</ele>
        <time>2014-02-23T07:58:25Z</time>
      </trkpt>
      <trkpt lat="41.604581710" lon="2.539348360">
        <ele>114.00</ele>
        <time>2014-02-23T07:58:26Z</time>
      </trkpt>
      <trkpt lat="41.604581710" lon="2.539348360">
        <ele>114.00</ele>
        <time>2014-02-23T07:58:27Z</time>
      </trkpt>
      <trkpt lat="41.604581710" lon="2.539348360">
        <ele>114.00</ele>
        <time>2014-02-23T07:58:28Z</time>
      </trkpt>
      <trkpt lat="41.604581710" lon="2.539346680">
        <ele>114.00</ele>
        <time>2014-02-23T07:58:29Z</time>
      </trkpt>
      <trkpt lat="41.604580040" lon="2.539346680">
        <ele>114.00</ele>
        <time>2014-02-23T07:58:30Z</time>
      </trkpt>
      <trkpt lat="41.604578360" lon="2.539345000">
        <ele>114.00</ele>
        <time>2014-02-23T07:58:31Z</time>
      </trkpt>
      <trkpt lat="41.604576680" lon="2.539340140">
        <ele>114.10</ele>
        <time>2014-02-23T07:58:32Z</time>
      </trkpt>
      <trkpt lat="41.604570150" lon="2.539345000">
        <ele>113.90</ele>
        <time>2014-02-23T07:58:33Z</time>
      </trkpt>
      <trkpt lat="41.604560090" lon="2.539356740">
        <ele>113.80</ele>
        <time>2014-02-23T07:58:34Z</time>
      </trkpt>
      <trkpt lat="41.604548350" lon="2.539375010">
        <ele>113.60</ele>
        <time>2014-02-23T07:58:35Z</time>
      </trkpt>
      <trkpt lat="41.604533430" lon="2.539393450">
        <ele>113.40</ele>
        <time>2014-02-23T07:58:36Z</time>
      </trkpt>
      <trkpt lat="41.604516670" lon="2.539413400">
        <ele>113.30</ele>
        <time>2014-02-23T07:58:37Z</time>
      </trkpt>
      <trkpt lat="41.604496720" lon="2.539436700">
        <ele>113.10</ele>
        <time>2014-02-23T07:58:38Z</time>
      </trkpt>
      <trkpt lat="41.604476770" lon="2.539466710">
        <ele>113.00</ele>
        <time>2014-02-23T07:58:39Z</time>
      </trkpt>
      <trkpt lat="41.604456820" lon="2.539503420">
        <ele>113.10</ele>
        <time>2014-02-23T07:58:40Z</time>
      </trkpt>
      <trkpt lat="41.604443410" lon="2.539548350">
        <ele>113.10</ele>
        <time>2014-02-23T07:58:41Z</time>
      </trkpt>
      <trkpt lat="41.604440060" lon="2.539603330">
        <ele>112.80</ele>
        <time>2014-02-23T07:58:42Z</time>
      </trkpt>
      <trkpt lat="41.604445090" lon="2.539663350">
        <ele>112.50</ele>
        <time>2014-02-23T07:58:43Z</time>
      </trkpt>
      <trkpt lat="41.604456820" lon="2.539721690">
        <ele>112.30</ele>
        <time>2014-02-23T07:58:44Z</time>
      </trkpt>
      <trkpt lat="41.604478450" lon="2.539775160">
        <ele>112.60</ele>
        <time>2014-02-23T07:58:45Z</time>
      </trkpt>
      <trkpt lat="41.604506780" lon="2.539823440">
        <ele>112.80</ele>
        <time>2014-02-23T07:58:46Z</time>
      </trkpt>
      <trkpt lat="41.604540140" lon="2.539871720">
        <ele>112.40</ele>
        <time>2014-02-23T07:58:47Z</time>
      </trkpt>
      <trkpt lat="41.604580040" lon="2.539920000">
        <ele>112.10</ele>
        <time>2014-02-23T07:58:48Z</time>
      </trkpt>
      <trkpt lat="41.604620100" lon="2.539951680">
        <ele>111.80</ele>
        <time>2014-02-23T07:58:49Z</time>
      </trkpt>
      <trkpt lat="41.604655140" lon="2.539973480">
        <ele>111.50</ele>
        <time>2014-02-23T07:58:50Z</time>
      </trkpt>
      <trkpt lat="41.604681790" lon="2.539991750">
        <ele>111.20</ele>
        <time>2014-02-23T07:58:51Z</time>
      </trkpt>
      <trkpt lat="41.604700060" lon="2.540018400">
        <ele>111.60</ele>
        <time>2014-02-23T07:58:52Z</time>
      </trkpt>
      <trkpt lat="41.604708450" lon="2.540048410">
        <ele>111.90</ele>
        <time>2014-02-23T07:58:53Z</time>
      </trkpt>
      <trkpt lat="41.604715150" lon="2.540081770">
        <ele>111.80</ele>
        <time>2014-02-23T07:58:54Z</time>
      </trkpt>
      <trkpt lat="41.604726720" lon="2.540111780">
        <ele>111.70</ele>
        <time>2014-02-23T07:58:55Z</time>
      </trkpt>
      <trkpt lat="41.604745160" lon="2.540133400">
        <ele>111.60</ele>
        <time>2014-02-23T07:58:56Z</time>
      </trkpt>
      <trkpt lat="41.604768460" lon="2.540150000">
        <ele>111.80</ele>
        <time>2014-02-23T07:58:57Z</time>
      </trkpt>
      <trkpt lat="41.604793440" lon="2.540160060">
        <ele>112.00</ele>
        <time>2014-02-23T07:58:58Z</time>
      </trkpt>
      <trkpt lat="41.604818420" lon="2.540168440">
        <ele>112.30</ele>
        <time>2014-02-23T07:58:59Z</time>
      </trkpt>
      <trkpt lat="41.604843400" lon="2.540173470">
        <ele>112.50</ele>
        <time>2014-02-23T07:59:00Z</time>
      </trkpt>
      <trkpt lat="41.604866700" lon="2.540178330">
        <ele>112.70</ele>
        <time>2014-02-23T07:59:01Z</time>
      </trkpt>
      <trkpt lat="41.604891680" lon="2.540180010">
        <ele>112.90</ele>
        <time>2014-02-23T07:59:02Z</time>
      </trkpt>
      <trkpt lat="41.604915140" lon="2.540185040">
        <ele>113.10</ele>
        <time>2014-02-23T07:59:03Z</time>
      </trkpt>
      <trkpt lat="41.604935090" lon="2.540188390">
        <ele>113.10</ele>
        <time>2014-02-23T07:59:04Z</time>
      </trkpt>
      <trkpt lat="41.604956720" lon="2.540191740">
        <ele>113.10</ele>
        <time>2014-02-23T07:59:05Z</time>
      </trkpt>
      <trkpt lat="41.604980020" lon="2.540195100">
        <ele>113.40</ele>
        <time>2014-02-23T07:59:06Z</time>
      </trkpt>
      <trkpt lat="41.605005000" lon="2.540200120">
        <ele>113.60</ele>
        <time>2014-02-23T07:59:07Z</time>
      </trkpt>
      <trkpt lat="41.605026790" lon="2.540208340">
        <ele>113.70</ele>
        <time>2014-02-23T07:59:08Z</time>
      </trkpt>
      <trkpt lat="41.605050090" lon="2.540216720">
        <ele>113.60</ele>
        <time>2014-02-23T07:59:09Z</time>
      </trkpt>
      <trkpt lat="41.605073390" lon="2.540223430">
        <ele>113.60</ele>
        <time>2014-02-23T07:59:10Z</time>
      </trkpt>
      <trkpt lat="41.605098370" lon="2.540228450">
        <ele>113.60</ele>
        <time>2014-02-23T07:59:11Z</time>
      </trkpt>
      <trkpt lat="41.605123350" lon="2.540235160">
        <ele>113.60</ele>
        <time>2014-02-23T07:59:12Z</time>
      </trkpt>
      <trkpt lat="41.605146820" lon="2.540243370">
        <ele>113.60</ele>
        <time>2014-02-23T07:59:13Z</time>
      </trkpt>
      <trkpt lat="41.605171800" lon="2.540250080">
        <ele>113.60</ele>
        <time>2014-02-23T07:59:14Z</time>
      </trkpt>
      <trkpt lat="41.605195100" lon="2.540256790">
        <ele>113.60</ele>
        <time>2014-02-23T07:59:15Z</time>
      </trkpt>
      <trkpt lat="41.605218400" lon="2.540263490">
        <ele>113.90</ele>
        <time>2014-02-23T07:59:16Z</time>
      </trkpt>
      <trkpt lat="41.605241700" lon="2.540271710">
        <ele>114.20</ele>
        <time>2014-02-23T07:59:17Z</time>
      </trkpt>
      <trkpt lat="41.605266680" lon="2.540276730">
        <ele>114.20</ele>
        <time>2014-02-23T07:59:18Z</time>
      </trkpt>
      <trkpt lat="41.605291830" lon="2.540281760">
        <ele>114.20</ele>
        <time>2014-02-23T07:59:19Z</time>
      </trkpt>
      <trkpt lat="41.605315130" lon="2.540286790">
        <ele>114.30</ele>
        <time>2014-02-23T07:59:20Z</time>
      </trkpt>
      <trkpt lat="41.605341780" lon="2.540291820">
        <ele>114.30</ele>
        <time>2014-02-23T07:59:21Z</time>
      </trkpt>
      <trkpt lat="41.605366760" lon="2.540296680">
        <ele>114.40</ele>
        <time>2014-02-23T07:59:22Z</time>
      </trkpt>
      <trkpt lat="41.605393420" lon="2.540301710">
        <ele>114.60</ele>
        <time>2014-02-23T07:59:23Z</time>
      </trkpt>
      <trkpt lat="41.605416720" lon="2.540308420">
        <ele>114.70</ele>
        <time>2014-02-23T07:59:24Z</time>
      </trkpt>
      <trkpt lat="41.605441700" lon="2.540311770">
        <ele>114.90</ele>
        <time>2014-02-23T07:59:25Z</time>
      </trkpt>
      <trkpt lat="41.605466670" lon="2.540316800">
        <ele>115.00</ele>
        <time>2014-02-23T07:59:26Z</time>
      </trkpt>
      <trkpt lat="41.605491820" lon="2.540321660">
        <ele>115.10</ele>
        <time>2014-02-23T07:59:27Z</time>
      </trkpt>
      <trkpt lat="41.605518470" lon="2.540325010">
        <ele>115.20</ele>
        <time>2014-02-23T07:59:28Z</time>
      </trkpt>
      <trkpt lat="41.605543450" lon="2.540328370">
        <ele>115.30</ele>
        <time>2014-02-23T07:59:29Z</time>
      </trkpt>
      <trkpt lat="41.605568430" lon="2.540330040">
        <ele>115.80</ele>
        <time>2014-02-23T07:59:30Z</time>
      </trkpt>
      <trkpt lat="41.605591730" lon="2.540333400">
        <ele>116.10</ele>
        <time>2014-02-23T07:59:31Z</time>
      </trkpt>
      <trkpt lat="41.605616710" lon="2.540338430">
        <ele>116.20</ele>
        <time>2014-02-23T07:59:32Z</time>
      </trkpt>
      <trkpt lat="41.605636830" lon="2.540341780">
        <ele>116.30</ele>
        <time>2014-02-23T07:59:33Z</time>
      </trkpt>
      <trkpt lat="41.605650070" lon="2.540341780">
        <ele>116.40</ele>
        <time>2014-02-23T07:59:34Z</time>
      </trkpt>
      <trkpt lat="41.605653420" lon="2.540341780">
        <ele>116.50</ele>
        <time>2014-02-23T07:59:35Z</time>
      </trkpt>
      <trkpt lat="41.605658450" lon="2.540340100">
        <ele>116.60</ele>
        <time>2014-02-23T07:59:36Z</time>
      </trkpt>
      <trkpt lat="41.605661800" lon="2.540341780">
        <ele>116.60</ele>
        <time>2014-02-23T07:59:37Z</time>
      </trkpt>
      <trkpt lat="41.605670020" lon="2.540341780">
        <ele>116.60</ele>
        <time>2014-02-23T07:59:38Z</time>
      </trkpt>
      <trkpt lat="41.605673370" lon="2.540341780">
        <ele>116.40</ele>
        <time>2014-02-23T07:59:39Z</time>
      </trkpt>
      <trkpt lat="41.605676720" lon="2.540341780">
        <ele>116.20</ele>
        <time>2014-02-23T07:59:40Z</time>
      </trkpt>
      <trkpt lat="41.605678400" lon="2.540340100">
        <ele>116.10</ele>
        <time>2014-02-23T07:59:41Z</time>
      </trkpt>
      <trkpt lat="41.605681750" lon="2.540338430">
        <ele>115.90</ele>
        <time>2014-02-23T07:59:42Z</time>
      </trkpt>
      <trkpt lat="41.605683430" lon="2.540336750">
        <ele>115.70</ele>
        <time>2014-02-23T07:59:43Z</time>
      </trkpt>
      <trkpt lat="41.605685110" lon="2.540336750">
        <ele>115.90</ele>
        <time>2014-02-23T07:59:44Z</time>
      </trkpt>
      <trkpt lat="41.605686780" lon="2.540335070">
        <ele>116.00</ele>
        <time>2014-02-23T07:59:45Z</time>
      </trkpt>
      <trkpt lat="41.605690140" lon="2.540333400">
        <ele>116.10</ele>
        <time>2014-02-23T07:59:46Z</time>
      </trkpt>
      <trkpt lat="41.605691810" lon="2.540333400">
        <ele>116.40</ele>
        <time>2014-02-23T07:59:47Z</time>
      </trkpt>
      <trkpt lat="41.605693490" lon="2.540331720">
        <ele>116.50</ele>
        <time>2014-02-23T07:59:48Z</time>
      </trkpt>
      <trkpt lat="41.605696670" lon="2.540330040">
        <ele>116.20</ele>
        <time>2014-02-23T07:59:49Z</time>
      </trkpt>
      <trkpt lat="41.605700030" lon="2.540328370">
        <ele>116.00</ele>
        <time>2014-02-23T07:59:50Z</time>
      </trkpt>
      <trkpt lat="41.605701700" lon="2.540326690">
        <ele>116.40</ele>
        <time>2014-02-23T07:59:51Z</time>
      </trkpt>
      <trkpt lat="41.605706730" lon="2.540325010">
        <ele>116.70</ele>
        <time>2014-02-23T07:59:52Z</time>
      </trkpt>
      <trkpt lat="41.605708410" lon="2.540325010">
        <ele>116.90</ele>
        <time>2014-02-23T07:59:53Z</time>
      </trkpt>
      <trkpt lat="41.605710080" lon="2.540323340">
        <ele>116.70</ele>
        <time>2014-02-23T07:59:54Z</time>
      </trkpt>
      <trkpt lat="41.605713440" lon="2.540321660">
        <ele>116.60</ele>
        <time>2014-02-23T07:59:55Z</time>
      </trkpt>
      <trkpt lat="41.605715110" lon="2.540321660">
        <ele>116.80</ele>
        <time>2014-02-23T07:59:56Z</time>
      </trkpt>
      <trkpt lat="41.605716790" lon="2.540320150">
        <ele>117.00</ele>
        <time>2014-02-23T07:59:57Z</time>
      </trkpt>
      <trkpt lat="41.605718470" lon="2.540320150">
        <ele>117.10</ele>
        <time>2014-02-23T07:59:58Z</time>
      </trkpt>
      <trkpt lat="41.605720140" lon="2.540320150">
        <ele>117.20</ele>
        <time>2014-02-23T07:59:59Z</time>
      </trkpt>
      <trkpt lat="41.605720140" lon="2.540320150">
        <ele>117.30</ele>
        <time>2014-02-23T08:00:00Z</time>
      </trkpt>
      <trkpt lat="41.605721820" lon="2.540320150">
        <ele>116.70</ele>
        <time>2014-02-23T08:00:01Z</time>
      </trkpt>
      <trkpt lat="41.605723500" lon="2.540320150">
        <ele>116.20</ele>
        <time>2014-02-23T08:00:02Z</time>
      </trkpt>
      <trkpt lat="41.605723500" lon="2.540320150">
        <ele>116.00</ele>
        <time>2014-02-23T08:00:03Z</time>
      </trkpt>
      <trkpt lat="41.605725000" lon="2.540320150">
        <ele>115.80</ele>
        <time>2014-02-23T08:00:04Z</time>
      </trkpt>
      <trkpt lat="41.605725000" lon="2.540320150">
        <ele>115.70</ele>
        <time>2014-02-23T08:00:05Z</time>
      </trkpt>
      <trkpt lat="41.605726680" lon="2.540318480">
        <ele>115.80</ele>
        <time>2014-02-23T08:00:06Z</time>
      </trkpt>
      <trkpt lat="41.605726680" lon="2.540318480">
        <ele>115.90</ele>
        <time>2014-02-23T08:00:07Z</time>
      </trkpt>
      <trkpt lat="41.605728360" lon="2.540320150">
        <ele>115.80</ele>
        <time>2014-02-23T08:00:08Z</time>
      </trkpt>
      <trkpt lat="41.605730030" lon="2.540320150">
        <ele>115.80</ele>
        <time>2014-02-23T08:00:09Z</time>
      </trkpt>
      <trkpt lat="41.605730030" lon="2.540320150">
        <ele>116.20</ele>
        <time>2014-02-23T08:00:10Z</time>
      </trkpt>
      <trkpt lat="41.605730030" lon="2.540320150">
        <ele>116.50</ele>
        <time>2014-02-23T08:00:11Z</time>
      </trkpt>
      <trkpt lat="41.605730030" lon="2.540320150">
        <ele>116.80</ele>
        <time>2014-02-23T08:00:12Z</time>
      </trkpt>
      <trkpt lat="41.605731710" lon="2.540320150">
        <ele>116.50</ele>
        <time>2014-02-23T08:00:13Z</time>
      </trkpt>
      <trkpt lat="41.605731710" lon="2.540320150">
        <ele>116.30</ele>
        <time>2014-02-23T08:00:14Z</time>
      </trkpt>
      <trkpt lat="41.605731710" lon="2.540320150">
        <ele>116.50</ele>
        <time>2014-02-23T08:00:15Z</time>
      </trkpt>
      <trkpt lat="41.605733390" lon="2.540320150">
        <ele>116.60</ele>
        <time>2014-02-23T08:00:16Z</time>
      </trkpt>
      <trkpt lat="41.605733390" lon="2.540318480">
        <ele>116.60</ele>
        <time>2014-02-23T08:00:17Z</time>
      </trkpt>
      <trkpt lat="41.605735060" lon="2.540318480">
        <ele>116.60</ele>
        <time>2014-02-23T08:00:18Z</time>
      </trkpt>
      <trkpt lat="41.605735060" lon="2.540318480">
        <ele>116.60</ele>
        <time>2014-02-23T08:00:19Z</time>
      </trkpt>
      <trkpt lat="41.605735060" lon="2.540316800">
        <ele>116.20</ele>
        <time>2014-02-23T08:00:20Z</time>
      </trkpt>
      <trkpt lat="41.605736740" lon="2.540316800">
        <ele>115.90</ele>
        <time>2014-02-23T08:00:21Z</time>
      </trkpt>
      <trkpt lat="41.605736740" lon="2.540316800">
        <ele>115.70</ele>
        <time>2014-02-23T08:00:22Z</time>
      </trkpt>
      <trkpt lat="41.605738420" lon="2.540315120">
        <ele>115.50</ele>
        <time>2014-02-23T08:00:23Z</time>
      </trkpt>
      <trkpt lat="41.605738420" lon="2.540315120">
        <ele>115.30</ele>
        <time>2014-02-23T08:00:24Z</time>
      </trkpt>
      <trkpt lat="41.605740090" lon="2.540313450">
        <ele>115.70</ele>
        <time>2014-02-23T08:00:25Z</time>
      </trkpt>
      <trkpt lat="41.605741770" lon="2.540313450">
        <ele>116.10</ele>
        <time>2014-02-23T08:00:26Z</time>
      </trkpt>
      <trkpt lat="41.605743440" lon="2.540311770">
        <ele>116.20</ele>
        <time>2014-02-23T08:00:27Z</time>
      </trkpt>
      <trkpt lat="41.605745120" lon="2.540311770">
        <ele>116.20</ele>
        <time>2014-02-23T08:00:28Z</time>
      </trkpt>
      <trkpt lat="41.605748470" lon="2.540310090">
        <ele>116.40</ele>
        <time>2014-02-23T08:00:29Z</time>
      </trkpt>
      <trkpt lat="41.605750150" lon="2.540306740">
        <ele>116.60</ele>
        <time>2014-02-23T08:00:30Z</time>
      </trkpt>
      <trkpt lat="41.605751830" lon="2.540308420">
        <ele>116.70</ele>
        <time>2014-02-23T08:00:31Z</time>
      </trkpt>
      <trkpt lat="41.605753330" lon="2.540306740">
        <ele>116.60</ele>
        <time>2014-02-23T08:00:32Z</time>
      </trkpt>
      <trkpt lat="41.605756690" lon="2.540306740">
        <ele>116.60</ele>
        <time>2014-02-23T08:00:33Z</time>
      </trkpt>
      <trkpt lat="41.605758360" lon="2.540305070">
        <ele>116.30</ele>
        <time>2014-02-23T08:00:34Z</time>
      </trkpt>
      <trkpt lat="41.605760040" lon="2.540303390">
        <ele>116.10</ele>
        <time>2014-02-23T08:00:35Z</time>
      </trkpt>
      <trkpt lat="41.605761720" lon="2.540301710">
        <ele>116.20</ele>
        <time>2014-02-23T08:00:36Z</time>
      </trkpt>
      <trkpt lat="41.605761720" lon="2.540300040">
        <ele>116.40</ele>
        <time>2014-02-23T08:00:37Z</time>
      </trkpt>
      <trkpt lat="41.605765070" lon="2.540298360">
        <ele>116.40</ele>
        <time>2014-02-23T08:00:38Z</time>
      </trkpt>
      <trkpt lat="41.605766750" lon="2.540296680">
        <ele>116.90</ele>
        <time>2014-02-23T08:00:39Z</time>
      </trkpt>
      <trkpt lat="41.605768420" lon="2.540295010">
        <ele>117.30</ele>
        <time>2014-02-23T08:00:40Z</time>
      </trkpt>
      <trkpt lat="41.605770100" lon="2.540295010">
        <ele>116.90</ele>
        <time>2014-02-23T08:00:41Z</time>
      </trkpt>
      <trkpt lat="41.605771780" lon="2.540293330">
        <ele>116.70</ele>
        <time>2014-02-23T08:00:42Z</time>
      </trkpt>
      <trkpt lat="41.605775130" lon="2.540291820">
        <ele>116.40</ele>
        <time>2014-02-23T08:00:43Z</time>
      </trkpt>
      <trkpt lat="41.605776800" lon="2.540291820">
        <ele>116.10</ele>
        <time>2014-02-23T08:00:44Z</time>
      </trkpt>
      <trkpt lat="41.605780160" lon="2.540290150">
        <ele>116.00</ele>
        <time>2014-02-23T08:00:45Z</time>
      </trkpt>
      <trkpt lat="41.605780160" lon="2.540288470">
        <ele>116.00</ele>
        <time>2014-02-23T08:00:46Z</time>
      </trkpt>
      <trkpt lat="41.605781670" lon="2.540286790">
        <ele>116.00</ele>
        <time>2014-02-23T08:00:47Z</time>
      </trkpt>
      <trkpt lat="41.605783340" lon="2.540285120">
        <ele>116.00</ele>
        <time>2014-02-23T08:00:48Z</time>
      </trkpt>
      <trkpt lat="41.605785020" lon="2.540283440">
        <ele>116.00</ele>
        <time>2014-02-23T08:00:49Z</time>
      </trkpt>
      <trkpt lat="41.605788370" lon="2.540285120">
        <ele>116.00</ele>
        <time>2014-02-23T08:00:50Z</time>
      </trkpt>
      <trkpt lat="41.605796750" lon="2.540291820">
        <ele>116.30</ele>
        <time>2014-02-23T08:00:51Z</time>
      </trkpt>
      <trkpt lat="41.605805130" lon="2.540295010">
        <ele>116.40</ele>
        <time>2014-02-23T08:00:52Z</time>
      </trkpt>
      <trkpt lat="41.605818380" lon="2.540301710">
        <ele>116.60</ele>
        <time>2014-02-23T08:00:53Z</time>
      </trkpt>
      <trkpt lat="41.605833470" lon="2.540311770">
        <ele>116.80</ele>
        <time>2014-02-23T08:00:54Z</time>
      </trkpt>
      <trkpt lat="41.605848390" lon="2.540318480">
        <ele>116.80</ele>
        <time>2014-02-23T08:00:55Z</time>
      </trkpt>
      <trkpt lat="41.605866830" lon="2.540323340">
        <ele>116.80</ele>
        <time>2014-02-23T08:00:56Z</time>
      </trkpt>
      <trkpt lat="41.605883420" lon="2.540330040">
        <ele>116.90</ele>
        <time>2014-02-23T08:00:57Z</time>
      </trkpt>
      <trkpt lat="41.605896670" lon="2.540335070">
        <ele>116.50</ele>
        <time>2014-02-23T08:00:58Z</time>
      </trkpt>
      <trkpt lat="41.605911750" lon="2.540335070">
        <ele>116.30</ele>
        <time>2014-02-23T08:00:59Z</time>
      </trkpt>
      <trkpt lat="41.605933380" lon="2.540331720">
        <ele>116.20</ele>
        <time>2014-02-23T08:01:00Z</time>
      </trkpt>
      <trkpt lat="41.605963390" lon="2.540330040">
        <ele>116.20</ele>
        <time>2014-02-23T08:01:01Z</time>
      </trkpt>
      <trkpt lat="41.605998420" lon="2.540326690">
        <ele>116.40</ele>
        <time>2014-02-23T08:01:02Z</time>
      </trkpt>
      <trkpt lat="41.606035130" lon="2.540326690">
        <ele>116.50</ele>
        <time>2014-02-23T08:01:03Z</time>
      </trkpt>
      <trkpt lat="41.606070000" lon="2.540331720">
        <ele>116.60</ele>
        <time>2014-02-23T08:01:04Z</time>
      </trkpt>
      <trkpt lat="41.606105040" lon="2.540336750">
        <ele>116.40</ele>
        <time>2014-02-23T08:01:05Z</time>
      </trkpt>
      <trkpt lat="41.606136720" lon="2.540345130">
        <ele>116.20</ele>
        <time>2014-02-23T08:01:06Z</time>
      </trkpt>
      <trkpt lat="41.606165050" lon="2.540356700">
        <ele>116.00</ele>
        <time>2014-02-23T08:01:07Z</time>
      </trkpt>
      <trkpt lat="41.606196740" lon="2.540371790">
        <ele>115.70</ele>
        <time>2014-02-23T08:01:08Z</time>
      </trkpt>
      <trkpt lat="41.606228420" lon="2.540386710">
        <ele>115.60</ele>
        <time>2014-02-23T08:01:09Z</time>
      </trkpt>
      <trkpt lat="41.606261780" lon="2.540403470">
        <ele>115.70</ele>
        <time>2014-02-23T08:01:10Z</time>
      </trkpt>
      <trkpt lat="41.606291790" lon="2.540416710">
        <ele>115.80</ele>
        <time>2014-02-23T08:01:11Z</time>
      </trkpt>
      <trkpt lat="41.606320120" lon="2.540431800">
        <ele>116.10</ele>
        <time>2014-02-23T08:01:12Z</time>
      </trkpt>
      <trkpt lat="41.606346770" lon="2.540445040">
        <ele>116.30</ele>
        <time>2014-02-23T08:01:13Z</time>
      </trkpt>
      <trkpt lat="41.606371750" lon="2.540463480">
        <ele>116.50</ele>
        <time>2014-02-23T08:01:14Z</time>
      </trkpt>
      <trkpt lat="41.606398410" lon="2.540481760">
        <ele>116.70</ele>
        <time>2014-02-23T08:01:15Z</time>
      </trkpt>
      <trkpt lat="41.606426740" lon="2.540496680">
        <ele>116.80</ele>
        <time>2014-02-23T08:01:16Z</time>
      </trkpt>
      <trkpt lat="41.606453390" lon="2.540516790">
        <ele>116.70</ele>
        <time>2014-02-23T08:01:17Z</time>
      </trkpt>
      <trkpt lat="41.606483400" lon="2.540535070">
        <ele>116.60</ele>
        <time>2014-02-23T08:01:18Z</time>
      </trkpt>
      <trkpt lat="41.606511730" lon="2.540555010">
        <ele>116.60</ele>
        <time>2014-02-23T08:01:19Z</time>
      </trkpt>
      <trkpt lat="41.606540060" lon="2.540575130">
        <ele>116.50</ele>
        <time>2014-02-23T08:01:20Z</time>
      </trkpt>
      <trkpt lat="41.606568390" lon="2.540591730">
        <ele>116.70</ele>
        <time>2014-02-23T08:01:21Z</time>
      </trkpt>
      <trkpt lat="41.606596720" lon="2.540610000">
        <ele>116.80</ele>
        <time>2014-02-23T08:01:22Z</time>
      </trkpt>
      <trkpt lat="41.606625050" lon="2.540630120">
        <ele>116.90</ele>
        <time>2014-02-23T08:01:23Z</time>
      </trkpt>
      <trkpt lat="41.606653380" lon="2.540648390">
        <ele>117.30</ele>
        <time>2014-02-23T08:01:24Z</time>
      </trkpt>
      <trkpt lat="41.606681710" lon="2.540665150">
        <ele>117.50</ele>
        <time>2014-02-23T08:01:25Z</time>
      </trkpt>
      <trkpt lat="41.606708370" lon="2.540680070">
        <ele>117.10</ele>
        <time>2014-02-23T08:01:26Z</time>
      </trkpt>
      <trkpt lat="41.606736700" lon="2.540695160">
        <ele>116.70</ele>
        <time>2014-02-23T08:01:27Z</time>
      </trkpt>
      <trkpt lat="41.606763350" lon="2.540713430">
        <ele>116.50</ele>
        <time>2014-02-23T08:01:28Z</time>
      </trkpt>
      <trkpt lat="41.606788330" lon="2.540731700">
        <ele>116.90</ele>
        <time>2014-02-23T08:01:29Z</time>
      </trkpt>
      <trkpt lat="41.606818340" lon="2.540745120">
        <ele>117.30</ele>
        <time>2014-02-23T08:01:30Z</time>
      </trkpt>
      <trkpt lat="41.606846670" lon="2.540760040">
        <ele>117.50</ele>
        <time>2014-02-23T08:01:31Z</time>
      </trkpt>
      <trkpt lat="41.606871820" lon="2.540775120">
        <ele>117.60</ele>
        <time>2014-02-23T08:01:32Z</time>
      </trkpt>
      <trkpt lat="41.606900150" lon="2.540786690">
        <ele>117.50</ele>
        <time>2014-02-23T08:01:33Z</time>
      </trkpt>
      <trkpt lat="41.606928480" lon="2.540801780">
        <ele>117.40</ele>
        <time>2014-02-23T08:01:34Z</time>
      </trkpt>
      <trkpt lat="41.606955130" lon="2.540818370">
        <ele>117.40</ele>
        <time>2014-02-23T08:01:35Z</time>
      </trkpt>
      <trkpt lat="41.606983460" lon="2.540833460">
        <ele>116.90</ele>
        <time>2014-02-23T08:01:36Z</time>
      </trkpt>
      <trkpt lat="41.607013470" lon="2.540848380">
        <ele>116.60</ele>
        <time>2014-02-23T08:01:37Z</time>
      </trkpt>
      <trkpt lat="41.607043480" lon="2.540860120">
        <ele>117.10</ele>
        <time>2014-02-23T08:01:38Z</time>
      </trkpt>
      <trkpt lat="41.607070130" lon="2.540873360">
        <ele>117.50</ele>
        <time>2014-02-23T08:01:39Z</time>
      </trkpt>
      <trkpt lat="41.607101820" lon="2.540885090">
        <ele>117.80</ele>
        <time>2014-02-23T08:01:40Z</time>
      </trkpt>
      <trkpt lat="41.607130150" lon="2.540896830">
        <ele>118.10</ele>
        <time>2014-02-23T08:01:41Z</time>
      </trkpt>
      <trkpt lat="41.607156800" lon="2.540908390">
        <ele>118.30</ele>
        <time>2014-02-23T08:01:42Z</time>
      </trkpt>
      <trkpt lat="41.607186810" lon="2.540916780">
        <ele>118.60</ele>
        <time>2014-02-23T08:01:43Z</time>
      </trkpt>
      <trkpt lat="41.607213460" lon="2.540926670">
        <ele>118.80</ele>
        <time>2014-02-23T08:01:44Z</time>
      </trkpt>
      <trkpt lat="41.607238440" lon="2.540933370">
        <ele>118.80</ele>
        <time>2014-02-23T08:01:45Z</time>
      </trkpt>
      <trkpt lat="41.607263420" lon="2.540938400">
        <ele>118.90</ele>
        <time>2014-02-23T08:01:46Z</time>
      </trkpt>
      <trkpt lat="41.607290070" lon="2.540941750">
        <ele>118.90</ele>
        <time>2014-02-23T08:01:47Z</time>
      </trkpt>
      <trkpt lat="41.607318400" lon="2.540946780">
        <ele>119.00</ele>
        <time>2014-02-23T08:01:48Z</time>
      </trkpt>
      <trkpt lat="41.607350090" lon="2.540948460">
        <ele>119.20</ele>
        <time>2014-02-23T08:01:49Z</time>
      </trkpt>
      <trkpt lat="41.607376740" lon="2.540951810">
        <ele>119.30</ele>
        <time>2014-02-23T08:01:50Z</time>
      </trkpt>
      <trkpt lat="41.607403400" lon="2.540955000">
        <ele>119.30</ele>
        <time>2014-02-23T08:01:51Z</time>
      </trkpt>
      <trkpt lat="41.607431730" lon="2.540958350">
        <ele>119.60</ele>
        <time>2014-02-23T08:01:52Z</time>
      </trkpt>
      <trkpt lat="41.607461730" lon="2.540961700">
        <ele>119.80</ele>
        <time>2014-02-23T08:01:53Z</time>
      </trkpt>
      <trkpt lat="41.607490070" lon="2.540965060">
        <ele>119.90</ele>
        <time>2014-02-23T08:01:54Z</time>
      </trkpt>
      <trkpt lat="41.607518400" lon="2.540966730">
        <ele>120.00</ele>
        <time>2014-02-23T08:01:55Z</time>
      </trkpt>
      <trkpt lat="41.607550080" lon="2.540966730">
        <ele>120.00</ele>
        <time>2014-02-23T08:01:56Z</time>
      </trkpt>
      <trkpt lat="41.607580090" lon="2.540965060">
        <ele>120.20</ele>
        <time>2014-02-23T08:01:57Z</time>
      </trkpt>
      <trkpt lat="41.607608420" lon="2.540961700">
        <ele>120.30</ele>
        <time>2014-02-23T08:01:58Z</time>
      </trkpt>
      <trkpt lat="41.607636750" lon="2.540958350">
        <ele>120.30</ele>
        <time>2014-02-23T08:01:59Z</time>
      </trkpt>
      <trkpt lat="41.607666760" lon="2.540956670">
        <ele>120.20</ele>
        <time>2014-02-23T08:02:00Z</time>
      </trkpt>
      <trkpt lat="41.607698440" lon="2.540956670">
        <ele>120.20</ele>
        <time>2014-02-23T08:02:01Z</time>
      </trkpt>
      <trkpt lat="41.607730120" lon="2.540953490">
        <ele>120.20</ele>
        <time>2014-02-23T08:02:02Z</time>
      </trkpt>
      <trkpt lat="41.607758450" lon="2.540953490">
        <ele>120.20</ele>
        <time>2014-02-23T08:02:03Z</time>
      </trkpt>
      <trkpt lat="41.607788460" lon="2.540953490">
        <ele>120.40</ele>
        <time>2014-02-23T08:02:04Z</time>
      </trkpt>
      <trkpt lat="41.607820140" lon="2.540956670">
        <ele>120.50</ele>
        <time>2014-02-23T08:02:05Z</time>
      </trkpt>
      <trkpt lat="41.607850150" lon="2.540961700">
        <ele>120.60</ele>
        <time>2014-02-23T08:02:06Z</time>
      </trkpt>
      <trkpt lat="41.607881670" lon="2.540965060">
        <ele>120.40</ele>
        <time>2014-02-23T08:02:07Z</time>
      </trkpt>
      <trkpt lat="41.607910000" lon="2.540966730">
        <ele>120.20</ele>
        <time>2014-02-23T08:02:08Z</time>
      </trkpt>
      <trkpt lat="41.607938330" lon="2.540966730">
        <ele>120.30</ele>
        <time>2014-02-23T08:02:09Z</time>
      </trkpt>
      <trkpt lat="41.607966830" lon="2.540963380">
        <ele>120.50</ele>
        <time>2014-02-23T08:02:10Z</time>
      </trkpt>
      <trkpt lat="41.607993480" lon="2.540956670">
        <ele>121.00</ele>
        <time>2014-02-23T08:02:11Z</time>
      </trkpt>
      <trkpt lat="41.608020140" lon="2.540951810">
        <ele>121.30</ele>
        <time>2014-02-23T08:02:12Z</time>
      </trkpt>
      <trkpt lat="41.608050140" lon="2.540948460">
        <ele>121.60</ele>
        <time>2014-02-23T08:02:13Z</time>
      </trkpt>
      <trkpt lat="41.608080150" lon="2.540943430">
        <ele>121.70</ele>
        <time>2014-02-23T08:02:14Z</time>
      </trkpt>
      <trkpt lat="41.608111670" lon="2.540940080">
        <ele>121.80</ele>
        <time>2014-02-23T08:02:15Z</time>
      </trkpt>
      <trkpt lat="41.608143350" lon="2.540933370">
        <ele>121.80</ele>
        <time>2014-02-23T08:02:16Z</time>
      </trkpt>
      <trkpt lat="41.608173360" lon="2.540928340">
        <ele>121.90</ele>
        <time>2014-02-23T08:02:17Z</time>
      </trkpt>
      <trkpt lat="41.608205040" lon="2.540923480">
        <ele>122.50</ele>
        <time>2014-02-23T08:02:18Z</time>
      </trkpt>
      <trkpt lat="41.608236730" lon="2.540913420">
        <ele>122.90</ele>
        <time>2014-02-23T08:02:19Z</time>
      </trkpt>
      <trkpt lat="41.608268410" lon="2.540908390">
        <ele>123.30</ele>
        <time>2014-02-23T08:02:20Z</time>
      </trkpt>
      <trkpt lat="41.608300090" lon="2.540903370">
        <ele>123.20</ele>
        <time>2014-02-23T08:02:21Z</time>
      </trkpt>
      <trkpt lat="41.608335130" lon="2.540896830">
        <ele>123.20</ele>
        <time>2014-02-23T08:02:22Z</time>
      </trkpt>
      <trkpt lat="41.608368490" lon="2.540890120">
        <ele>123.20</ele>
        <time>2014-02-23T08:02:23Z</time>
      </trkpt>
      <trkpt lat="41.608401680" lon="2.540883420">
        <ele>123.20</ele>
        <time>2014-02-23T08:02:24Z</time>
      </trkpt>
      <trkpt lat="41.608435040" lon="2.540875030">
        <ele>123.20</ele>
        <time>2014-02-23T08:02:25Z</time>
      </trkpt>
      <trkpt lat="41.608465050" lon="2.540868330">
        <ele>123.20</ele>
        <time>2014-02-23T08:02:26Z</time>
      </trkpt>
      <trkpt lat="41.608495060" lon="2.540863470">
        <ele>123.20</ele>
        <time>2014-02-23T08:02:27Z</time>
      </trkpt>
      <trkpt lat="41.608525060" lon="2.540858440">
        <ele>123.30</ele>
        <time>2014-02-23T08:02:28Z</time>
      </trkpt>
      <trkpt lat="41.608558420" lon="2.540851730">
        <ele>123.30</ele>
        <time>2014-02-23T08:02:29Z</time>
      </trkpt>
      <trkpt lat="41.608590110" lon="2.540845030">
        <ele>123.10</ele>
        <time>2014-02-23T08:02:30Z</time>
      </trkpt>
      <trkpt lat="41.608623470" lon="2.540840000">
        <ele>123.00</ele>
        <time>2014-02-23T08:02:31Z</time>
      </trkpt>
      <trkpt lat="41.608655150" lon="2.540835140">
        <ele>122.90</ele>
        <time>2014-02-23T08:02:32Z</time>
      </trkpt>
      <trkpt lat="41.608688340" lon="2.540826760">
        <ele>123.10</ele>
        <time>2014-02-23T08:02:33Z</time>
      </trkpt>
      <trkpt lat="41.608721700" lon="2.540818370">
        <ele>123.20</ele>
        <time>2014-02-23T08:02:34Z</time>
      </trkpt>
      <trkpt lat="41.608755060" lon="2.540811670">
        <ele>123.50</ele>
        <time>2014-02-23T08:02:35Z</time>
      </trkpt>
      <trkpt lat="41.608786750" lon="2.540805130">
        <ele>123.60</ele>
        <time>2014-02-23T08:02:36Z</time>
      </trkpt>
      <trkpt lat="41.608815080" lon="2.540800100">
        <ele>123.60</ele>
        <time>2014-02-23T08:02:37Z</time>
      </trkpt>
      <trkpt lat="41.608841730" lon="2.540795070">
        <ele>123.60</ele>
        <time>2014-02-23T08:02:38Z</time>
      </trkpt>
      <trkpt lat="41.608868390" lon="2.540791720">
        <ele>123.60</ele>
        <time>2014-02-23T08:02:39Z</time>
      </trkpt>
      <trkpt lat="41.608893360" lon="2.540786690">
        <ele>123.80</ele>
        <time>2014-02-23T08:02:40Z</time>
      </trkpt>
      <trkpt lat="41.608921690" lon="2.540783340">
        <ele>123.90</ele>
        <time>2014-02-23T08:02:41Z</time>
      </trkpt>
      <trkpt lat="41.608953380" lon="2.540781830">
        <ele>123.80</ele>
        <time>2014-02-23T08:02:42Z</time>
      </trkpt>
      <trkpt lat="41.608980030" lon="2.540783340">
        <ele>123.70</ele>
        <time>2014-02-23T08:02:43Z</time>
      </trkpt>
      <trkpt lat="41.609006690" lon="2.540783340">
        <ele>123.70</ele>
        <time>2014-02-23T08:02:44Z</time>
      </trkpt>
      <trkpt lat="41.609033340" lon="2.540781830">
        <ele>124.00</ele>
        <time>2014-02-23T08:02:45Z</time>
      </trkpt>
      <trkpt lat="41.609061670" lon="2.540778480">
        <ele>124.30</ele>
        <time>2014-02-23T08:02:46Z</time>
      </trkpt>
      <trkpt lat="41.609085140" lon="2.540775120">
        <ele>124.60</ele>
        <time>2014-02-23T08:02:47Z</time>
      </trkpt>
      <trkpt lat="41.609110120" lon="2.540768420">
        <ele>124.80</ele>
        <time>2014-02-23T08:02:48Z</time>
      </trkpt>
      <trkpt lat="41.609133420" lon="2.540765060">
        <ele>125.00</ele>
        <time>2014-02-23T08:02:49Z</time>
      </trkpt>
      <trkpt lat="41.609155050" lon="2.540760040">
        <ele>125.10</ele>
        <time>2014-02-23T08:02:50Z</time>
      </trkpt>
      <trkpt lat="41.609176670" lon="2.540751820">
        <ele>125.20</ele>
        <time>2014-02-23T08:02:51Z</time>
      </trkpt>
      <trkpt lat="41.609198460" lon="2.540743440">
        <ele>125.20</ele>
        <time>2014-02-23T08:02:52Z</time>
      </trkpt>
      <trkpt lat="41.609221770" lon="2.540735060">
        <ele>125.30</ele>
        <time>2014-02-23T08:02:53Z</time>
      </trkpt>
      <trkpt lat="41.609245070" lon="2.540731700">
        <ele>125.60</ele>
        <time>2014-02-23T08:02:54Z</time>
      </trkpt>
      <trkpt lat="41.609270050" lon="2.540726680">
        <ele>125.80</ele>
        <time>2014-02-23T08:02:55Z</time>
      </trkpt>
      <trkpt lat="41.609298380" lon="2.540721810">
        <ele>125.80</ele>
        <time>2014-02-23T08:02:56Z</time>
      </trkpt>
      <trkpt lat="41.609325030" lon="2.540713430">
        <ele>125.80</ele>
        <time>2014-02-23T08:02:57Z</time>
      </trkpt>
      <trkpt lat="41.609353360" lon="2.540703370">
        <ele>125.80</ele>
        <time>2014-02-23T08:02:58Z</time>
      </trkpt>
      <trkpt lat="41.609385050" lon="2.540693480">
        <ele>125.80</ele>
        <time>2014-02-23T08:02:59Z</time>
      </trkpt>
      <trkpt lat="41.609413380" lon="2.540686780">
        <ele>125.90</ele>
        <time>2014-02-23T08:03:00Z</time>
      </trkpt>
      <trkpt lat="41.609440030" lon="2.540683420">
        <ele>125.80</ele>
        <time>2014-02-23T08:03:01Z</time>
      </trkpt>
      <trkpt lat="41.609466690" lon="2.540678400">
        <ele>125.80</ele>
        <time>2014-02-23T08:03:02Z</time>
      </trkpt>
      <trkpt lat="41.609493340" lon="2.540671690">
        <ele>125.80</ele>
        <time>2014-02-23T08:03:03Z</time>
      </trkpt>
      <trkpt lat="41.609521670" lon="2.540663480">
        <ele>125.90</ele>
        <time>2014-02-23T08:03:04Z</time>
      </trkpt>
      <trkpt lat="41.609548490" lon="2.540655090">
        <ele>126.00</ele>
        <time>2014-02-23T08:03:05Z</time>
      </trkpt>
      <trkpt lat="41.609575150" lon="2.540646710">
        <ele>126.20</ele>
        <time>2014-02-23T08:03:06Z</time>
      </trkpt>
      <trkpt lat="41.609603480" lon="2.540640010">
        <ele>126.30</ele>
        <time>2014-02-23T08:03:07Z</time>
      </trkpt>
      <trkpt lat="41.609626780" lon="2.540633470">
        <ele>126.20</ele>
        <time>2014-02-23T08:03:08Z</time>
      </trkpt>
      <trkpt lat="41.609653430" lon="2.540625090">
        <ele>126.10</ele>
        <time>2014-02-23T08:03:09Z</time>
      </trkpt>
      <trkpt lat="41.609675060" lon="2.540618380">
        <ele>126.00</ele>
        <time>2014-02-23T08:03:10Z</time>
      </trkpt>
      <trkpt lat="41.609696680" lon="2.540613350">
        <ele>126.10</ele>
        <time>2014-02-23T08:03:11Z</time>
      </trkpt>
      <trkpt lat="41.609720150" lon="2.540610000">
        <ele>126.30</ele>
        <time>2014-02-23T08:03:12Z</time>
      </trkpt>
      <trkpt lat="41.609743460" lon="2.540608490">
        <ele>126.70</ele>
        <time>2014-02-23T08:03:13Z</time>
      </trkpt>
      <trkpt lat="41.609768430" lon="2.540611680">
        <ele>127.00</ele>
        <time>2014-02-23T08:03:14Z</time>
      </trkpt>
      <trkpt lat="41.609796760" lon="2.540616700">
        <ele>127.00</ele>
        <time>2014-02-23T08:03:15Z</time>
      </trkpt>
      <trkpt lat="41.609826770" lon="2.540616700">
        <ele>126.90</ele>
        <time>2014-02-23T08:03:16Z</time>
      </trkpt>
      <trkpt lat="41.609850070" lon="2.540610000">
        <ele>126.80</ele>
        <time>2014-02-23T08:03:17Z</time>
      </trkpt>
      <trkpt lat="41.609871700" lon="2.540596760">
        <ele>127.00</ele>
        <time>2014-02-23T08:03:18Z</time>
      </trkpt>
      <trkpt lat="41.609888460" lon="2.540583340">
        <ele>127.00</ele>
        <time>2014-02-23T08:03:19Z</time>
      </trkpt>
      <trkpt lat="41.609905060" lon="2.540556690">
        <ele>127.40</ele>
        <time>2014-02-23T08:03:20Z</time>
      </trkpt>
      <trkpt lat="41.609916790" lon="2.540523330">
        <ele>127.70</ele>
        <time>2014-02-23T08:03:21Z</time>
      </trkpt>
      <trkpt lat="41.609938420" lon="2.540488460">
        <ele>127.90</ele>
        <time>2014-02-23T08:03:22Z</time>
      </trkpt>
      <trkpt lat="41.609965070" lon="2.540463480">
        <ele>127.80</ele>
        <time>2014-02-23T08:03:23Z</time>
      </trkpt>
      <trkpt lat="41.609993400" lon="2.540446720">
        <ele>127.70</ele>
        <time>2014-02-23T08:03:24Z</time>
      </trkpt>
      <trkpt lat="41.610021740" lon="2.540430120">
        <ele>127.80</ele>
        <time>2014-02-23T08:03:25Z</time>
      </trkpt>
      <trkpt lat="41.610048390" lon="2.540415040">
        <ele>128.00</ele>
        <time>2014-02-23T08:03:26Z</time>
      </trkpt>
      <trkpt lat="41.610076720" lon="2.540396760">
        <ele>128.30</ele>
        <time>2014-02-23T08:03:27Z</time>
      </trkpt>
      <trkpt lat="41.610105050" lon="2.540378490">
        <ele>128.50</ele>
        <time>2014-02-23T08:03:28Z</time>
      </trkpt>
      <trkpt lat="41.610135060" lon="2.540361730">
        <ele>128.60</ele>
        <time>2014-02-23T08:03:29Z</time>
      </trkpt>
      <trkpt lat="41.610163390" lon="2.540343450">
        <ele>128.90</ele>
        <time>2014-02-23T08:03:30Z</time>
      </trkpt>
      <trkpt lat="41.610195070" lon="2.540328370">
        <ele>129.00</ele>
        <time>2014-02-23T08:03:31Z</time>
      </trkpt>
      <trkpt lat="41.610221730" lon="2.540313450">
        <ele>129.10</ele>
        <time>2014-02-23T08:03:32Z</time>
      </trkpt>
      <trkpt lat="41.610251730" lon="2.540298360">
        <ele>129.10</ele>
        <time>2014-02-23T08:03:33Z</time>
      </trkpt>
      <trkpt lat="41.610280070" lon="2.540278410">
        <ele>129.40</ele>
        <time>2014-02-23T08:03:34Z</time>
      </trkpt>
      <trkpt lat="41.610311750" lon="2.540260140">
        <ele>129.60</ele>
        <time>2014-02-23T08:03:35Z</time>
      </trkpt>
      <trkpt lat="41.610341760" lon="2.540245050">
        <ele>129.70</ele>
        <time>2014-02-23T08:03:36Z</time>
      </trkpt>
      <trkpt lat="41.610368410" lon="2.540228450">
        <ele>129.70</ele>
        <time>2014-02-23T08:03:37Z</time>
      </trkpt>
      <trkpt lat="41.610395070" lon="2.540215040">
        <ele>129.70</ele>
        <time>2014-02-23T08:03:38Z</time>
      </trkpt>
      <trkpt lat="41.610420040" lon="2.540200120">
        <ele>129.70</ele>
        <time>2014-02-23T08:03:39Z</time>
      </trkpt>
      <trkpt lat="41.610445020" lon="2.540186710">
        <ele>129.70</ele>
        <time>2014-02-23T08:03:40Z</time>
      </trkpt>
      <trkpt lat="41.610471680" lon="2.540173470">
        <ele>129.80</ele>
        <time>2014-02-23T08:03:41Z</time>
      </trkpt>
      <trkpt lat="41.610500010" lon="2.540158380">
        <ele>129.80</ele>
        <time>2014-02-23T08:03:42Z</time>
      </trkpt>
      <trkpt lat="41.610526830" lon="2.540146820">
        <ele>129.90</ele>
        <time>2014-02-23T08:03:43Z</time>
      </trkpt>
      <trkpt lat="41.610555160" lon="2.540131730">
        <ele>129.60</ele>
        <time>2014-02-23T08:03:44Z</time>
      </trkpt>
      <trkpt lat="41.610585000" lon="2.540115130">
        <ele>129.40</ele>
        <time>2014-02-23T08:03:45Z</time>
      </trkpt>
      <trkpt lat="41.610613330" lon="2.540101720">
        <ele>129.50</ele>
        <time>2014-02-23T08:03:46Z</time>
      </trkpt>
      <trkpt lat="41.610641830" lon="2.540090150">
        <ele>129.60</ele>
        <time>2014-02-23T08:03:47Z</time>
      </trkpt>
      <trkpt lat="41.610668480" lon="2.540075070">
        <ele>129.70</ele>
        <time>2014-02-23T08:03:48Z</time>
      </trkpt>
      <trkpt lat="41.610698490" lon="2.540060150">
        <ele>129.80</ele>
        <time>2014-02-23T08:03:49Z</time>
      </trkpt>
      <trkpt lat="41.610730010" lon="2.540046740">
        <ele>129.90</ele>
        <time>2014-02-23T08:03:50Z</time>
      </trkpt>
      <trkpt lat="41.610761690" lon="2.540030140">
        <ele>129.90</ele>
        <time>2014-02-23T08:03:51Z</time>
      </trkpt>
      <trkpt lat="41.610790020" lon="2.540010020">
        <ele>129.90</ele>
        <time>2014-02-23T08:03:52Z</time>
      </trkpt>
      <trkpt lat="41.610820030" lon="2.539990070">
        <ele>130.20</ele>
        <time>2014-02-23T08:03:53Z</time>
      </trkpt>
      <trkpt lat="41.610853390" lon="2.539973480">
        <ele>130.50</ele>
        <time>2014-02-23T08:03:54Z</time>
      </trkpt>
      <trkpt lat="41.610883390" lon="2.539958390">
        <ele>130.70</ele>
        <time>2014-02-23T08:03:55Z</time>
      </trkpt>
      <trkpt lat="41.610913400" lon="2.539943470">
        <ele>130.90</ele>
        <time>2014-02-23T08:03:56Z</time>
      </trkpt>
      <trkpt lat="41.610945090" lon="2.539931740">
        <ele>131.00</ele>
        <time>2014-02-23T08:03:57Z</time>
      </trkpt>
      <trkpt lat="41.610975090" lon="2.539916820">
        <ele>131.30</ele>
        <time>2014-02-23T08:03:58Z</time>
      </trkpt>
      <trkpt lat="41.611005100" lon="2.539901730">
        <ele>131.50</ele>
        <time>2014-02-23T08:03:59Z</time>
      </trkpt>
      <trkpt lat="41.611036780" lon="2.539885130">
        <ele>131.70</ele>
        <time>2014-02-23T08:04:00Z</time>
      </trkpt>
      <trkpt lat="41.611068470" lon="2.539868370">
        <ele>131.50</ele>
        <time>2014-02-23T08:04:01Z</time>
      </trkpt>
      <trkpt lat="41.611096800" lon="2.539851770">
        <ele>131.40</ele>
        <time>2014-02-23T08:04:02Z</time>
      </trkpt>
      <trkpt lat="41.611128480" lon="2.539833330">
        <ele>131.50</ele>
        <time>2014-02-23T08:04:03Z</time>
      </trkpt>
      <trkpt lat="41.611156810" lon="2.539820090">
        <ele>131.50</ele>
        <time>2014-02-23T08:04:04Z</time>
      </trkpt>
      <trkpt lat="41.611185140" lon="2.539801820">
        <ele>131.70</ele>
        <time>2014-02-23T08:04:05Z</time>
      </trkpt>
      <trkpt lat="41.611215150" lon="2.539783380">
        <ele>131.80</ele>
        <time>2014-02-23T08:04:06Z</time>
      </trkpt>
      <trkpt lat="41.611246670" lon="2.539765100">
        <ele>131.90</ele>
        <time>2014-02-23T08:04:07Z</time>
      </trkpt>
      <trkpt lat="41.611275000" lon="2.539751690">
        <ele>132.30</ele>
        <time>2014-02-23T08:04:08Z</time>
      </trkpt>
      <trkpt lat="41.611305000" lon="2.539738450">
        <ele>132.60</ele>
        <time>2014-02-23T08:04:09Z</time>
      </trkpt>
      <trkpt lat="41.611333340" lon="2.539726710">
        <ele>132.50</ele>
        <time>2014-02-23T08:04:10Z</time>
      </trkpt>
      <trkpt lat="41.611356800" lon="2.539706770">
        <ele>132.40</ele>
        <time>2014-02-23T08:04:11Z</time>
      </trkpt>
      <trkpt lat="41.611380110" lon="2.539681790">
        <ele>132.60</ele>
        <time>2014-02-23T08:04:12Z</time>
      </trkpt>
      <trkpt lat="41.611403410" lon="2.539655130">
        <ele>132.70</ele>
        <time>2014-02-23T08:04:13Z</time>
      </trkpt>
      <trkpt lat="41.611426710" lon="2.539625130">
        <ele>132.80</ele>
        <time>2014-02-23T08:04:14Z</time>
      </trkpt>
      <trkpt lat="41.611451690" lon="2.539596790">
        <ele>133.00</ele>
        <time>2014-02-23T08:04:15Z</time>
      </trkpt>
      <trkpt lat="41.611478340" lon="2.539570140">
        <ele>133.10</ele>
        <time>2014-02-23T08:04:16Z</time>
      </trkpt>
      <trkpt lat="41.611505000" lon="2.539546670">
        <ele>133.10</ele>
        <time>2014-02-23T08:04:17Z</time>
      </trkpt>
      <trkpt lat="41.611530140" lon="2.539520020">
        <ele>133.20</ele>
        <time>2014-02-23T08:04:18Z</time>
      </trkpt>
      <trkpt lat="41.611556800" lon="2.539493360">
        <ele>132.90</ele>
        <time>2014-02-23T08:04:19Z</time>
      </trkpt>
      <trkpt lat="41.611580100" lon="2.539468380">
        <ele>132.80</ele>
        <time>2014-02-23T08:04:20Z</time>
      </trkpt>
      <trkpt lat="41.611605080" lon="2.539441730">
        <ele>132.70</ele>
        <time>2014-02-23T08:04:21Z</time>
      </trkpt>
      <trkpt lat="41.611626700" lon="2.539413400">
        <ele>132.40</ele>
        <time>2014-02-23T08:04:22Z</time>
      </trkpt>
      <trkpt lat="41.611648490" lon="2.539385070">
        <ele>132.20</ele>
        <time>2014-02-23T08:04:23Z</time>
      </trkpt>
      <trkpt lat="41.611671800" lon="2.539356740">
        <ele>132.60</ele>
        <time>2014-02-23T08:04:24Z</time>
      </trkpt>
      <trkpt lat="41.611696770" lon="2.539330080">
        <ele>132.90</ele>
        <time>2014-02-23T08:04:25Z</time>
      </trkpt>
      <trkpt lat="41.611721750" lon="2.539301750">
        <ele>133.10</ele>
        <time>2014-02-23T08:04:26Z</time>
      </trkpt>
      <trkpt lat="41.611746730" lon="2.539273420">
        <ele>133.30</ele>
        <time>2014-02-23T08:04:27Z</time>
      </trkpt>
      <trkpt lat="41.611771710" lon="2.539245090">
        <ele>133.40</ele>
        <time>2014-02-23T08:04:28Z</time>
      </trkpt>
      <trkpt lat="41.611795010" lon="2.539216760">
        <ele>133.50</ele>
        <time>2014-02-23T08:04:29Z</time>
      </trkpt>
      <trkpt lat="41.611818480" lon="2.539186750">
        <ele>133.70</ele>
        <time>2014-02-23T08:04:30Z</time>
      </trkpt>
      <trkpt lat="41.611840110" lon="2.539156740">
        <ele>133.80</ele>
        <time>2014-02-23T08:04:31Z</time>
      </trkpt>
      <trkpt lat="41.611860050" lon="2.539126740">
        <ele>133.90</ele>
        <time>2014-02-23T08:04:32Z</time>
      </trkpt>
      <trkpt lat="41.611883360" lon="2.539096730">
        <ele>134.00</ele>
        <time>2014-02-23T08:04:33Z</time>
      </trkpt>
      <trkpt lat="41.611905150" lon="2.539066720">
        <ele>134.30</ele>
        <time>2014-02-23T08:04:34Z</time>
      </trkpt>
      <trkpt lat="41.611928450" lon="2.539036720">
        <ele>134.50</ele>
        <time>2014-02-23T08:04:35Z</time>
      </trkpt>
      <trkpt lat="41.611950080" lon="2.539005030">
        <ele>134.80</ele>
        <time>2014-02-23T08:04:36Z</time>
      </trkpt>
      <trkpt lat="41.611971700" lon="2.538970000">
        <ele>135.00</ele>
        <time>2014-02-23T08:04:37Z</time>
      </trkpt>
      <trkpt lat="41.611993490" lon="2.538936800">
        <ele>135.00</ele>
        <time>2014-02-23T08:04:38Z</time>
      </trkpt>
      <trkpt lat="41.612011770" lon="2.538901770">
        <ele>135.10</ele>
        <time>2014-02-23T08:04:39Z</time>
      </trkpt>
      <trkpt lat="41.612030040" lon="2.538870080">
        <ele>135.10</ele>
        <time>2014-02-23T08:04:40Z</time>
      </trkpt>
      <trkpt lat="41.612051660" lon="2.538840080">
        <ele>135.20</ele>
        <time>2014-02-23T08:04:41Z</time>
      </trkpt>
      <trkpt lat="41.612071780" lon="2.538808390">
        <ele>135.40</ele>
        <time>2014-02-23T08:04:42Z</time>
      </trkpt>
      <trkpt lat="41.612090050" lon="2.538775030">
        <ele>135.90</ele>
        <time>2014-02-23T08:04:43Z</time>
      </trkpt>
      <trkpt lat="41.612106820" lon="2.538740000">
        <ele>136.20</ele>
        <time>2014-02-23T08:04:44Z</time>
      </trkpt>
      <trkpt lat="41.612121740" lon="2.538705130">
        <ele>136.50</ele>
        <time>2014-02-23T08:04:45Z</time>
      </trkpt>
      <trkpt lat="41.612140010" lon="2.538666740">
        <ele>136.30</ele>
        <time>2014-02-23T08:04:46Z</time>
      </trkpt>
      <trkpt lat="41.612161800" lon="2.538631700">
        <ele>136.10</ele>
        <time>2014-02-23T08:04:47Z</time>
      </trkpt>
      <trkpt lat="41.612181750" lon="2.538598340">
        <ele>136.10</ele>
        <time>2014-02-23T08:04:48Z</time>
      </trkpt>
      <trkpt lat="41.612201700" lon="2.538565150">
        <ele>136.10</ele>
        <time>2014-02-23T08:04:49Z</time>
      </trkpt>
      <trkpt lat="41.612223490" lon="2.538531790">
        <ele>136.40</ele>
        <time>2014-02-23T08:04:50Z</time>
      </trkpt>
      <trkpt lat="41.612246800" lon="2.538498430">
        <ele>136.60</ele>
        <time>2014-02-23T08:04:51Z</time>
      </trkpt>
      <trkpt lat="41.612268420" lon="2.538466750">
        <ele>136.80</ele>
        <time>2014-02-23T08:04:52Z</time>
      </trkpt>
      <trkpt lat="41.612290050" lon="2.538435060">
        <ele>136.90</ele>
        <time>2014-02-23T08:04:53Z</time>
      </trkpt>
      <trkpt lat="41.612313350" lon="2.538405060">
        <ele>136.90</ele>
        <time>2014-02-23T08:04:54Z</time>
      </trkpt>
      <trkpt lat="41.612336820" lon="2.538376720">
        <ele>137.40</ele>
        <time>2014-02-23T08:04:55Z</time>
      </trkpt>
      <trkpt lat="41.612358440" lon="2.538346720">
        <ele>137.80</ele>
        <time>2014-02-23T08:04:56Z</time>
      </trkpt>
      <trkpt lat="41.612378390" lon="2.538318390">
        <ele>137.80</ele>
        <time>2014-02-23T08:04:57Z</time>
      </trkpt>
      <trkpt lat="41.612401690" lon="2.538288380">
        <ele>137.90</ele>
        <time>2014-02-23T08:04:58Z</time>
      </trkpt>
      <trkpt lat="41.612426670" lon="2.538258370">
        <ele>137.90</ele>
        <time>2014-02-23T08:04:59Z</time>
      </trkpt>
      <trkpt lat="41.612450140" lon="2.538228370">
        <ele>138.10</ele>
        <time>2014-02-23T08:05:00Z</time>
      </trkpt>
      <trkpt lat="41.612470090" lon="2.538198360">
        <ele>138.20</ele>
        <time>2014-02-23T08:05:01Z</time>
      </trkpt>
      <trkpt lat="41.612493390" lon="2.538168350">
        <ele>138.40</ele>
        <time>2014-02-23T08:05:02Z</time>
      </trkpt>
      <trkpt lat="41.612516690" lon="2.538138340">
        <ele>138.50</ele>
        <time>2014-02-23T08:05:03Z</time>
      </trkpt>
      <trkpt lat="41.612540160" lon="2.538110010">
        <ele>138.60</ele>
        <time>2014-02-23T08:05:04Z</time>
      </trkpt>
      <trkpt lat="41.612565140" lon="2.538083360">
        <ele>138.80</ele>
        <time>2014-02-23T08:05:05Z</time>
      </trkpt>
      <trkpt lat="41.612588440" lon="2.538058380">
        <ele>139.00</ele>
        <time>2014-02-23T08:05:06Z</time>
      </trkpt>
      <trkpt lat="41.612613420" lon="2.538031730">
        <ele>138.80</ele>
        <time>2014-02-23T08:05:07Z</time>
      </trkpt>
      <trkpt lat="41.612636720" lon="2.538005070">
        <ele>138.60</ele>
        <time>2014-02-23T08:05:08Z</time>
      </trkpt>
      <trkpt lat="41.612658350" lon="2.537976740">
        <ele>138.50</ele>
        <time>2014-02-23T08:05:09Z</time>
      </trkpt>
      <trkpt lat="41.612680140" lon="2.537950090">
        <ele>138.50</ele>
        <time>2014-02-23T08:05:10Z</time>
      </trkpt>
      <trkpt lat="41.612703440" lon="2.537923430">
        <ele>138.40</ele>
        <time>2014-02-23T08:05:11Z</time>
      </trkpt>
      <trkpt lat="41.612726740" lon="2.537898450">
        <ele>138.60</ele>
        <time>2014-02-23T08:05:12Z</time>
      </trkpt>
      <trkpt lat="41.612750040" lon="2.537873480">
        <ele>138.80</ele>
        <time>2014-02-23T08:05:13Z</time>
      </trkpt>
      <trkpt lat="41.612771670" lon="2.537848330">
        <ele>138.70</ele>
        <time>2014-02-23T08:05:14Z</time>
      </trkpt>
      <trkpt lat="41.612793460" lon="2.537825030">
        <ele>138.70</ele>
        <time>2014-02-23T08:05:15Z</time>
      </trkpt>
      <trkpt lat="41.612815090" lon="2.537800050">
        <ele>139.10</ele>
        <time>2014-02-23T08:05:16Z</time>
      </trkpt>
      <trkpt lat="41.612838390" lon="2.537776750">
        <ele>139.50</ele>
        <time>2014-02-23T08:05:17Z</time>
      </trkpt>
      <trkpt lat="41.612861690" lon="2.537751770">
        <ele>139.80</ele>
        <time>2014-02-23T08:05:18Z</time>
      </trkpt>
      <trkpt lat="41.612883480" lon="2.537728470">
        <ele>140.00</ele>
        <time>2014-02-23T08:05:19Z</time>
      </trkpt>
      <trkpt lat="41.612905110" lon="2.537705000">
        <ele>140.10</ele>
        <time>2014-02-23T08:05:20Z</time>
      </trkpt>
      <trkpt lat="41.612928410" lon="2.537680020">
        <ele>140.70</ele>
        <time>2014-02-23T08:05:21Z</time>
      </trkpt>
      <trkpt lat="41.612950040" lon="2.537653370">
        <ele>141.20</ele>
        <time>2014-02-23T08:05:22Z</time>
      </trkpt>
      <trkpt lat="41.612971660" lon="2.537625040">
        <ele>141.50</ele>
        <time>2014-02-23T08:05:23Z</time>
      </trkpt>
      <trkpt lat="41.612995130" lon="2.537598380">
        <ele>141.20</ele>
        <time>2014-02-23T08:05:24Z</time>
      </trkpt>
      <trkpt lat="41.613016760" lon="2.537571730">
        <ele>141.00</ele>
        <time>2014-02-23T08:05:25Z</time>
      </trkpt>
      <trkpt lat="41.613040060" lon="2.537545070">
        <ele>141.10</ele>
        <time>2014-02-23T08:05:26Z</time>
      </trkpt>
      <trkpt lat="41.613061680" lon="2.537520090">
        <ele>141.20</ele>
        <time>2014-02-23T08:05:27Z</time>
      </trkpt>
      <trkpt lat="41.613083480" lon="2.537496790">
        <ele>141.10</ele>
        <time>2014-02-23T08:05:28Z</time>
      </trkpt>
      <trkpt lat="41.613106780" lon="2.537473490">
        <ele>141.00</ele>
        <time>2014-02-23T08:05:29Z</time>
      </trkpt>
      <trkpt lat="41.613126730" lon="2.537450020">
        <ele>141.00</ele>
        <time>2014-02-23T08:05:30Z</time>
      </trkpt>
      <trkpt lat="41.613151710" lon="2.537425040">
        <ele>141.10</ele>
        <time>2014-02-23T08:05:31Z</time>
      </trkpt>
      <trkpt lat="41.613173330" lon="2.537400070">
        <ele>141.20</ele>
        <time>2014-02-23T08:05:32Z</time>
      </trkpt>
      <trkpt lat="41.613196800" lon="2.537375090">
        <ele>141.30</ele>
        <time>2014-02-23T08:05:33Z</time>
      </trkpt>
      <trkpt lat="41.613218430" lon="2.537351790">
        <ele>141.30</ele>
        <time>2014-02-23T08:05:34Z</time>
      </trkpt>
      <trkpt lat="41.613241730" lon="2.537325130">
        <ele>141.50</ele>
        <time>2014-02-23T08:05:35Z</time>
      </trkpt>
      <trkpt lat="41.613263350" lon="2.537295120">
        <ele>141.60</ele>
        <time>2014-02-23T08:05:36Z</time>
      </trkpt>
      <trkpt lat="41.613286820" lon="2.537266790">
        <ele>141.70</ele>
        <time>2014-02-23T08:05:37Z</time>
      </trkpt>
      <trkpt lat="41.613306770" lon="2.537236790">
        <ele>141.90</ele>
        <time>2014-02-23T08:05:38Z</time>
      </trkpt>
      <trkpt lat="41.613330070" lon="2.537208460">
        <ele>142.00</ele>
        <time>2014-02-23T08:05:39Z</time>
      </trkpt>
      <trkpt lat="41.613353370" lon="2.537178450">
        <ele>142.00</ele>
        <time>2014-02-23T08:05:40Z</time>
      </trkpt>
      <trkpt lat="41.613375000" lon="2.537150120">
        <ele>142.00</ele>
        <time>2014-02-23T08:05:41Z</time>
      </trkpt>
      <trkpt lat="41.613398470" lon="2.537123460">
        <ele>142.00</ele>
        <time>2014-02-23T08:05:42Z</time>
      </trkpt>
      <trkpt lat="41.613421770" lon="2.537096810">
        <ele>142.20</ele>
        <time>2014-02-23T08:05:43Z</time>
      </trkpt>
      <trkpt lat="41.613445070" lon="2.537071660">
        <ele>142.40</ele>
        <time>2014-02-23T08:05:44Z</time>
      </trkpt>
      <trkpt lat="41.613468370" lon="2.537043330">
        <ele>142.40</ele>
        <time>2014-02-23T08:05:45Z</time>
      </trkpt>
      <trkpt lat="41.613490000" lon="2.537013490">
        <ele>142.40</ele>
        <time>2014-02-23T08:05:46Z</time>
      </trkpt>
      <trkpt lat="41.613513470" lon="2.536985160">
        <ele>142.70</ele>
        <time>2014-02-23T08:05:47Z</time>
      </trkpt>
      <trkpt lat="41.613535090" lon="2.536955150">
        <ele>142.90</ele>
        <time>2014-02-23T08:05:48Z</time>
      </trkpt>
      <trkpt lat="41.613545150" lon="2.536915090">
        <ele>143.10</ele>
        <time>2014-02-23T08:05:49Z</time>
      </trkpt>
      <trkpt lat="41.613550010" lon="2.536871670">
        <ele>143.30</ele>
        <time>2014-02-23T08:05:50Z</time>
      </trkpt>
      <trkpt lat="41.613553370" lon="2.536830100">
        <ele>143.40</ele>
        <time>2014-02-23T08:05:51Z</time>
      </trkpt>
      <trkpt lat="41.613556720" lon="2.536785000">
        <ele>143.60</ele>
        <time>2014-02-23T08:05:52Z</time>
      </trkpt>
      <trkpt lat="41.613556720" lon="2.536740070">
        <ele>143.80</ele>
        <time>2014-02-23T08:05:53Z</time>
      </trkpt>
      <trkpt lat="41.613558400" lon="2.536696820">
        <ele>143.90</ele>
        <time>2014-02-23T08:05:54Z</time>
      </trkpt>
      <trkpt lat="41.613565100" lon="2.536655080">
        <ele>144.00</ele>
        <time>2014-02-23T08:05:55Z</time>
      </trkpt>
      <trkpt lat="41.613575160" lon="2.536615020">
        <ele>144.10</ele>
        <time>2014-02-23T08:05:56Z</time>
      </trkpt>
      <trkpt lat="41.613588400" lon="2.536575120">
        <ele>144.10</ele>
        <time>2014-02-23T08:05:57Z</time>
      </trkpt>
      <trkpt lat="41.613603490" lon="2.536536730">
        <ele>144.20</ele>
        <time>2014-02-23T08:05:58Z</time>
      </trkpt>
      <trkpt lat="41.613615060" lon="2.536498340">
        <ele>144.20</ele>
        <time>2014-02-23T08:05:59Z</time>
      </trkpt>
      <trkpt lat="41.613628470" lon="2.536461800">
        <ele>144.30</ele>
        <time>2014-02-23T08:06:00Z</time>
      </trkpt>
      <trkpt lat="41.613643390" lon="2.536425080">
        <ele>144.30</ele>
        <time>2014-02-23T08:06:01Z</time>
      </trkpt>
      <trkpt lat="41.613660150" lon="2.536390050">
        <ele>144.10</ele>
        <time>2014-02-23T08:06:02Z</time>
      </trkpt>
      <trkpt lat="41.613675070" lon="2.536353330">
        <ele>144.00</ele>
        <time>2014-02-23T08:06:03Z</time>
      </trkpt>
      <trkpt lat="41.613693340" lon="2.536316790">
        <ele>144.30</ele>
        <time>2014-02-23T08:06:04Z</time>
      </trkpt>
      <trkpt lat="41.613711780" lon="2.536280080">
        <ele>144.60</ele>
        <time>2014-02-23T08:06:05Z</time>
      </trkpt>
      <trkpt lat="41.613726700" lon="2.536245040">
        <ele>144.90</ele>
        <time>2014-02-23T08:06:06Z</time>
      </trkpt>
      <trkpt lat="41.613741790" lon="2.536208490">
        <ele>145.20</ele>
        <time>2014-02-23T08:06:07Z</time>
      </trkpt>
      <trkpt lat="41.613755030" lon="2.536168430">
        <ele>145.40</ele>
        <time>2014-02-23T08:06:08Z</time>
      </trkpt>
      <trkpt lat="41.613766770" lon="2.536130040">
        <ele>145.80</ele>
        <time>2014-02-23T08:06:09Z</time>
      </trkpt>
      <trkpt lat="41.613780010" lon="2.536091820">
        <ele>146.10</ele>
        <time>2014-02-23T08:06:10Z</time>
      </trkpt>
      <trkpt lat="41.613796780" lon="2.536056780">
        <ele>146.00</ele>
        <time>2014-02-23T08:06:11Z</time>
      </trkpt>
      <trkpt lat="41.613811700" lon="2.536020070">
        <ele>146.00</ele>
        <time>2014-02-23T08:06:12Z</time>
      </trkpt>
      <trkpt lat="41.613830140" lon="2.535985030">
        <ele>146.20</ele>
        <time>2014-02-23T08:06:13Z</time>
      </trkpt>
      <trkpt lat="41.613848410" lon="2.535951670">
        <ele>146.40</ele>
        <time>2014-02-23T08:06:14Z</time>
      </trkpt>
      <trkpt lat="41.613863330" lon="2.535916800">
        <ele>146.50</ele>
        <time>2014-02-23T08:06:15Z</time>
      </trkpt>
      <trkpt lat="41.613876740" lon="2.535880090">
        <ele>146.30</ele>
        <time>2014-02-23T08:06:16Z</time>
      </trkpt>
      <trkpt lat="41.613890150" lon="2.535841700">
        <ele>146.20</ele>
        <time>2014-02-23T08:06:17Z</time>
      </trkpt>
      <trkpt lat="41.613903390" lon="2.535803480">
        <ele>146.40</ele>
        <time>2014-02-23T08:06:18Z</time>
      </trkpt>
      <trkpt lat="41.613918480" lon="2.535765090">
        <ele>146.60</ele>
        <time>2014-02-23T08:06:19Z</time>
      </trkpt>
      <trkpt lat="41.613931730" lon="2.535725030">
        <ele>146.70</ele>
        <time>2014-02-23T08:06:20Z</time>
      </trkpt>
      <trkpt lat="41.613943460" lon="2.535686800">
        <ele>146.70</ele>
        <time>2014-02-23T08:06:21Z</time>
      </trkpt>
      <trkpt lat="41.613956700" lon="2.535646740">
        <ele>146.70</ele>
        <time>2014-02-23T08:06:22Z</time>
      </trkpt>
      <trkpt lat="41.613968440" lon="2.535606670">
        <ele>147.00</ele>
        <time>2014-02-23T08:06:23Z</time>
      </trkpt>
      <trkpt lat="41.613981680" lon="2.535568450">
        <ele>147.20</ele>
        <time>2014-02-23T08:06:24Z</time>
      </trkpt>
      <trkpt lat="41.613996770" lon="2.535530060">
        <ele>147.30</ele>
        <time>2014-02-23T08:06:25Z</time>
      </trkpt>
      <trkpt lat="41.614010010" lon="2.535491670">
        <ele>147.30</ele>
        <time>2014-02-23T08:06:26Z</time>
      </trkpt>
      <trkpt lat="41.614023420" lon="2.535453450">
        <ele>147.30</ele>
        <time>2014-02-23T08:06:27Z</time>
      </trkpt>
      <trkpt lat="41.614038340" lon="2.535415060">
        <ele>147.60</ele>
        <time>2014-02-23T08:06:28Z</time>
      </trkpt>
      <trkpt lat="41.614051750" lon="2.535375000">
        <ele>147.70</ele>
        <time>2014-02-23T08:06:29Z</time>
      </trkpt>
      <trkpt lat="41.614065000" lon="2.535335100">
        <ele>147.90</ele>
        <time>2014-02-23T08:06:30Z</time>
      </trkpt>
      <trkpt lat="41.614078410" lon="2.535295030">
        <ele>148.00</ele>
        <time>2014-02-23T08:06:31Z</time>
      </trkpt>
      <trkpt lat="41.614093330" lon="2.535256810">
        <ele>148.50</ele>
        <time>2014-02-23T08:06:32Z</time>
      </trkpt>
      <trkpt lat="41.614108420" lon="2.535216750">
        <ele>148.80</ele>
        <time>2014-02-23T08:06:33Z</time>
      </trkpt>
      <trkpt lat="41.614123340" lon="2.535178360">
        <ele>149.00</ele>
        <time>2014-02-23T08:06:34Z</time>
      </trkpt>
      <trkpt lat="41.614136750" lon="2.535138460">
        <ele>149.20</ele>
        <time>2014-02-23T08:06:35Z</time>
      </trkpt>
      <trkpt lat="41.614148480" lon="2.535100070">
        <ele>149.30</ele>
        <time>2014-02-23T08:06:36Z</time>
      </trkpt>
      <trkpt lat="41.614161720" lon="2.535061680">
        <ele>149.40</ele>
        <time>2014-02-23T08:06:37Z</time>
      </trkpt>
      <trkpt lat="41.614175140" lon="2.535025140">
        <ele>149.40</ele>
        <time>2014-02-23T08:06:38Z</time>
      </trkpt>
      <trkpt lat="41.614188380" lon="2.534985070">
        <ele>149.50</ele>
        <time>2014-02-23T08:06:39Z</time>
      </trkpt>
      <trkpt lat="41.614200110" lon="2.534946680">
        <ele>149.30</ele>
        <time>2014-02-23T08:06:40Z</time>
      </trkpt>
      <trkpt lat="41.614213360" lon="2.534910140">
        <ele>149.20</ele>
        <time>2014-02-23T08:06:41Z</time>
      </trkpt>
      <trkpt lat="41.614226770" lon="2.534871750">
        <ele>149.50</ele>
        <time>2014-02-23T08:06:42Z</time>
      </trkpt>
      <trkpt lat="41.614238340" lon="2.534833360">
        <ele>149.60</ele>
        <time>2014-02-23T08:06:43Z</time>
      </trkpt>
      <trkpt lat="41.614250070" lon="2.534795140">
        <ele>149.90</ele>
        <time>2014-02-23T08:06:44Z</time>
      </trkpt>
      <trkpt lat="41.614263480" lon="2.534758420">
        <ele>150.20</ele>
        <time>2014-02-23T08:06:45Z</time>
      </trkpt>
      <trkpt lat="41.614278400" lon="2.534723390">
        <ele>150.30</ele>
        <time>2014-02-23T08:06:46Z</time>
      </trkpt>
      <trkpt lat="41.614291810" lon="2.534688350">
        <ele>150.20</ele>
        <time>2014-02-23T08:06:47Z</time>
      </trkpt>
      <trkpt lat="41.614306730" lon="2.534651810">
        <ele>150.10</ele>
        <time>2014-02-23T08:06:48Z</time>
      </trkpt>
      <trkpt lat="41.614320140" lon="2.534613420">
        <ele>150.20</ele>
        <time>2014-02-23T08:06:49Z</time>
      </trkpt>
      <trkpt lat="41.614335060" lon="2.534575030">
        <ele>150.20</ele>
        <time>2014-02-23T08:06:50Z</time>
      </trkpt>
      <trkpt lat="41.614350150" lon="2.534536810">
        <ele>150.90</ele>
        <time>2014-02-23T08:06:51Z</time>
      </trkpt>
      <trkpt lat="41.614363390" lon="2.534500090">
        <ele>151.30</ele>
        <time>2014-02-23T08:06:52Z</time>
      </trkpt>
      <trkpt lat="41.614375130" lon="2.534460030">
        <ele>151.70</ele>
        <time>2014-02-23T08:06:53Z</time>
      </trkpt>
      <trkpt lat="41.614386700" lon="2.534421810">
        <ele>151.70</ele>
        <time>2014-02-23T08:06:54Z</time>
      </trkpt>
      <trkpt lat="41.614396750" lon="2.534381740">
        <ele>151.70</ele>
        <time>2014-02-23T08:06:55Z</time>
      </trkpt>
      <trkpt lat="41.614406810" lon="2.534345030">
        <ele>151.80</ele>
        <time>2014-02-23T08:06:56Z</time>
      </trkpt>
      <trkpt lat="41.614415030" lon="2.534306810">
        <ele>151.90</ele>
        <time>2014-02-23T08:06:57Z</time>
      </trkpt>
      <trkpt lat="41.614423410" lon="2.534268420">
        <ele>152.40</ele>
        <time>2014-02-23T08:06:58Z</time>
      </trkpt>
      <trkpt lat="41.614433470" lon="2.534230030">
        <ele>152.80</ele>
        <time>2014-02-23T08:06:59Z</time>
      </trkpt>
      <trkpt lat="41.614445030" lon="2.534191810">
        <ele>153.10</ele>
        <time>2014-02-23T08:07:00Z</time>
      </trkpt>
      <trkpt lat="41.614455090" lon="2.534151740">
        <ele>153.10</ele>
        <time>2014-02-23T08:07:01Z</time>
      </trkpt>
      <trkpt lat="41.614466830" lon="2.534111680">
        <ele>153.10</ele>
        <time>2014-02-23T08:07:02Z</time>
      </trkpt>
      <trkpt lat="41.614475040" lon="2.534073460">
        <ele>153.20</ele>
        <time>2014-02-23T08:07:03Z</time>
      </trkpt>
      <trkpt lat="41.614485100" lon="2.534033390">
        <ele>153.20</ele>
        <time>2014-02-23T08:07:04Z</time>
      </trkpt>
      <trkpt lat="41.614495160" lon="2.533995000">
        <ele>153.20</ele>
        <time>2014-02-23T08:07:05Z</time>
      </trkpt>
      <trkpt lat="41.614505050" lon="2.533956780">
        <ele>153.20</ele>
        <time>2014-02-23T08:07:06Z</time>
      </trkpt>
      <trkpt lat="41.614515110" lon="2.533916710">
        <ele>153.20</ele>
        <time>2014-02-23T08:07:07Z</time>
      </trkpt>
      <trkpt lat="41.614526670" lon="2.533876820">
        <ele>153.30</ele>
        <time>2014-02-23T08:07:08Z</time>
      </trkpt>
      <trkpt lat="41.614540080" lon="2.533838430">
        <ele>153.40</ele>
        <time>2014-02-23T08:07:09Z</time>
      </trkpt>
      <trkpt lat="41.614551820" lon="2.533798360">
        <ele>153.50</ele>
        <time>2014-02-23T08:07:10Z</time>
      </trkpt>
      <trkpt lat="41.614565060" lon="2.533761820">
        <ele>153.50</ele>
        <time>2014-02-23T08:07:11Z</time>
      </trkpt>
      <trkpt lat="41.614576800" lon="2.533723430">
        <ele>153.60</ele>
        <time>2014-02-23T08:07:12Z</time>
      </trkpt>
      <trkpt lat="41.614588360" lon="2.533686710">
        <ele>153.60</ele>
        <time>2014-02-23T08:07:13Z</time>
      </trkpt>
      <trkpt lat="41.614598420" lon="2.533648490">
        <ele>153.70</ele>
        <time>2014-02-23T08:07:14Z</time>
      </trkpt>
      <trkpt lat="41.614608480" lon="2.533610100">
        <ele>153.80</ele>
        <time>2014-02-23T08:07:15Z</time>
      </trkpt>
      <trkpt lat="41.614620050" lon="2.533573390">
        <ele>153.90</ele>
        <time>2014-02-23T08:07:16Z</time>
      </trkpt>
      <trkpt lat="41.614630110" lon="2.533533490">
        <ele>154.10</ele>
        <time>2014-02-23T08:07:17Z</time>
      </trkpt>
      <trkpt lat="41.614638490" lon="2.533493430">
        <ele>154.30</ele>
        <time>2014-02-23T08:07:18Z</time>
      </trkpt>
      <trkpt lat="41.614646700" lon="2.533456720">
        <ele>154.50</ele>
        <time>2014-02-23T08:07:19Z</time>
      </trkpt>
      <trkpt lat="41.614655080" lon="2.533416820">
        <ele>154.70</ele>
        <time>2014-02-23T08:07:20Z</time>
      </trkpt>
      <trkpt lat="41.614666820" lon="2.533375080">
        <ele>154.90</ele>
        <time>2014-02-23T08:07:21Z</time>
      </trkpt>
      <trkpt lat="41.614678390" lon="2.533335010">
        <ele>155.00</ele>
        <time>2014-02-23T08:07:22Z</time>
      </trkpt>
      <trkpt lat="41.614691800" lon="2.533293440">
        <ele>155.10</ele>
        <time>2014-02-23T08:07:23Z</time>
      </trkpt>
      <trkpt lat="41.614705040" lon="2.533253370">
        <ele>155.10</ele>
        <time>2014-02-23T08:07:24Z</time>
      </trkpt>
      <trkpt lat="41.614716770" lon="2.533213470">
        <ele>155.20</ele>
        <time>2014-02-23T08:07:25Z</time>
      </trkpt>
      <trkpt lat="41.614730020" lon="2.533173410">
        <ele>155.20</ele>
        <time>2014-02-23T08:07:26Z</time>
      </trkpt>
      <trkpt lat="41.614743430" lon="2.533135020">
        <ele>155.40</ele>
        <time>2014-02-23T08:07:27Z</time>
      </trkpt>
      <trkpt lat="41.614753490" lon="2.533096800">
        <ele>155.50</ele>
        <time>2014-02-23T08:07:28Z</time>
      </trkpt>
      <trkpt lat="41.614765050" lon="2.533060080">
        <ele>155.60</ele>
        <time>2014-02-23T08:07:29Z</time>
      </trkpt>
      <trkpt lat="41.614776790" lon="2.533023370">
        <ele>155.60</ele>
        <time>2014-02-23T08:07:30Z</time>
      </trkpt>
      <trkpt lat="41.614788360" lon="2.532985150">
        <ele>155.70</ele>
        <time>2014-02-23T08:07:31Z</time>
      </trkpt>
      <trkpt lat="41.614800090" lon="2.532945080">
        <ele>156.10</ele>
        <time>2014-02-23T08:07:32Z</time>
      </trkpt>
      <trkpt lat="41.614810150" lon="2.532906690">
        <ele>156.50</ele>
        <time>2014-02-23T08:07:33Z</time>
      </trkpt>
      <trkpt lat="41.614820040" lon="2.532866800">
        <ele>156.80</ele>
        <time>2014-02-23T08:07:34Z</time>
      </trkpt>
      <trkpt lat="41.614831770" lon="2.532828410">
        <ele>157.10</ele>
        <time>2014-02-23T08:07:35Z</time>
      </trkpt>
      <trkpt lat="41.614845020" lon="2.532790020">
        <ele>157.20</ele>
        <time>2014-02-23T08:07:36Z</time>
      </trkpt>
      <trkpt lat="41.614856750" lon="2.532751800">
        <ele>157.30</ele>
        <time>2014-02-23T08:07:37Z</time>
      </trkpt>
      <trkpt lat="41.614866810" lon="2.532713410">
        <ele>157.40</ele>
        <time>2014-02-23T08:07:38Z</time>
      </trkpt>
      <trkpt lat="41.614876700" lon="2.532675020">
        <ele>157.40</ele>
        <time>2014-02-23T08:07:39Z</time>
      </trkpt>
      <trkpt lat="41.614886760" lon="2.532636800">
        <ele>157.40</ele>
        <time>2014-02-23T08:07:40Z</time>
      </trkpt>
      <trkpt lat="41.614898490" lon="2.532598410">
        <ele>157.60</ele>
        <time>2014-02-23T08:07:41Z</time>
      </trkpt>
      <trkpt lat="41.614908380" lon="2.532561700">
        <ele>157.80</ele>
        <time>2014-02-23T08:07:42Z</time>
      </trkpt>
      <trkpt lat="41.614920120" lon="2.532523470">
        <ele>157.90</ele>
        <time>2014-02-23T08:07:43Z</time>
      </trkpt>
      <trkpt lat="41.614930010" lon="2.532486760">
        <ele>158.10</ele>
        <time>2014-02-23T08:07:44Z</time>
      </trkpt>
      <trkpt lat="41.614941740" lon="2.532448370">
        <ele>158.20</ele>
        <time>2014-02-23T08:07:45Z</time>
      </trkpt>
      <trkpt lat="41.614951800" lon="2.532411830">
        <ele>158.10</ele>
        <time>2014-02-23T08:07:46Z</time>
      </trkpt>
      <trkpt lat="41.614961690" lon="2.532375110">
        <ele>158.00</ele>
        <time>2014-02-23T08:07:47Z</time>
      </trkpt>
      <trkpt lat="41.614971750" lon="2.532335050">
        <ele>158.30</ele>
        <time>2014-02-23T08:07:48Z</time>
      </trkpt>
      <trkpt lat="41.614983490" lon="2.532296830">
        <ele>158.40</ele>
        <time>2014-02-23T08:07:49Z</time>
      </trkpt>
      <trkpt lat="41.614993380" lon="2.532258440">
        <ele>158.50</ele>
        <time>2014-02-23T08:07:50Z</time>
      </trkpt>
      <trkpt lat="41.615001760" lon="2.532218370">
        <ele>158.60</ele>
        <time>2014-02-23T08:07:51Z</time>
      </trkpt>
      <trkpt lat="41.615010140" lon="2.532180150">
        <ele>158.70</ele>
        <time>2014-02-23T08:07:52Z</time>
      </trkpt>
      <trkpt lat="41.615018360" lon="2.532140090">
        <ele>159.00</ele>
        <time>2014-02-23T08:07:53Z</time>
      </trkpt>
      <trkpt lat="41.615025060" lon="2.532100020">
        <ele>159.30</ele>
        <time>2014-02-23T08:07:54Z</time>
      </trkpt>
      <trkpt lat="41.615031770" lon="2.532060120">
        <ele>159.60</ele>
        <time>2014-02-23T08:07:55Z</time>
      </trkpt>
      <trkpt lat="41.615038470" lon="2.532020060">
        <ele>159.80</ele>
        <time>2014-02-23T08:07:56Z</time>
      </trkpt>
      <trkpt lat="41.615041820" lon="2.531980160">
        <ele>159.90</ele>
        <time>2014-02-23T08:07:57Z</time>
      </trkpt>
      <trkpt lat="41.615045010" lon="2.531938420">
        <ele>159.70</ele>
        <time>2014-02-23T08:07:58Z</time>
      </trkpt>
      <trkpt lat="41.615048360" lon="2.531898350">
        <ele>159.50</ele>
        <time>2014-02-23T08:07:59Z</time>
      </trkpt>
      <trkpt lat="41.615051720" lon="2.531858450">
        <ele>159.50</ele>
        <time>2014-02-23T08:08:00Z</time>
      </trkpt>
      <trkpt lat="41.615053390" lon="2.531816710">
        <ele>159.50</ele>
        <time>2014-02-23T08:08:01Z</time>
      </trkpt>
      <trkpt lat="41.615056740" lon="2.531776810">
        <ele>159.50</ele>
        <time>2014-02-23T08:08:02Z</time>
      </trkpt>
      <trkpt lat="41.615061770" lon="2.531736750">
        <ele>159.60</ele>
        <time>2014-02-23T08:08:03Z</time>
      </trkpt>
      <trkpt lat="41.615063450" lon="2.531695010">
        <ele>159.70</ele>
        <time>2014-02-23T08:08:04Z</time>
      </trkpt>
      <trkpt lat="41.615066800" lon="2.531655110">
        <ele>160.00</ele>
        <time>2014-02-23T08:08:05Z</time>
      </trkpt>
      <trkpt lat="41.615066800" lon="2.531613370">
        <ele>160.30</ele>
        <time>2014-02-23T08:08:06Z</time>
      </trkpt>
      <trkpt lat="41.615070160" lon="2.531571790">
        <ele>160.50</ele>
        <time>2014-02-23T08:08:07Z</time>
      </trkpt>
      <trkpt lat="41.615073340" lon="2.531531730">
        <ele>160.70</ele>
        <time>2014-02-23T08:08:08Z</time>
      </trkpt>
      <trkpt lat="41.615075020" lon="2.531491660">
        <ele>160.90</ele>
        <time>2014-02-23T08:08:09Z</time>
      </trkpt>
      <trkpt lat="41.615078370" lon="2.531451760">
        <ele>160.70</ele>
        <time>2014-02-23T08:08:10Z</time>
      </trkpt>
      <trkpt lat="41.615081720" lon="2.531413380">
        <ele>160.50</ele>
        <time>2014-02-23T08:08:11Z</time>
      </trkpt>
      <trkpt lat="41.615085080" lon="2.531376660">
        <ele>161.00</ele>
        <time>2014-02-23T08:08:12Z</time>
      </trkpt>
      <trkpt lat="41.615088430" lon="2.531340120">
        <ele>161.40</ele>
        <time>2014-02-23T08:08:13Z</time>
      </trkpt>
      <trkpt lat="41.615093460" lon="2.531301730">
        <ele>161.40</ele>
        <time>2014-02-23T08:08:14Z</time>
      </trkpt>
      <trkpt lat="41.615096810" lon="2.531261660">
        <ele>161.40</ele>
        <time>2014-02-23T08:08:15Z</time>
      </trkpt>
      <trkpt lat="41.615100000" lon="2.531220090">
        <ele>161.40</ele>
        <time>2014-02-23T08:08:16Z</time>
      </trkpt>
      <trkpt lat="41.615101670" lon="2.531180020">
        <ele>161.40</ele>
        <time>2014-02-23T08:08:17Z</time>
      </trkpt>
      <trkpt lat="41.615105020" lon="2.531140130">
        <ele>161.40</ele>
        <time>2014-02-23T08:08:18Z</time>
      </trkpt>
      <trkpt lat="41.615111730" lon="2.531098380">
        <ele>161.60</ele>
        <time>2014-02-23T08:08:19Z</time>
      </trkpt>
      <trkpt lat="41.615116760" lon="2.531058490">
        <ele>161.80</ele>
        <time>2014-02-23T08:08:20Z</time>
      </trkpt>
      <trkpt lat="41.615121790" lon="2.531016740">
        <ele>161.90</ele>
        <time>2014-02-23T08:08:21Z</time>
      </trkpt>
      <trkpt lat="41.615125140" lon="2.530975000">
        <ele>162.40</ele>
        <time>2014-02-23T08:08:22Z</time>
      </trkpt>
      <trkpt lat="41.615128490" lon="2.530933430">
        <ele>162.70</ele>
        <time>2014-02-23T08:08:23Z</time>
      </trkpt>
      <trkpt lat="41.615133360" lon="2.530891690">
        <ele>162.70</ele>
        <time>2014-02-23T08:08:24Z</time>
      </trkpt>
      <trkpt lat="41.615136710" lon="2.530850110">
        <ele>162.60</ele>
        <time>2014-02-23T08:08:25Z</time>
      </trkpt>
      <trkpt lat="41.615140060" lon="2.530810050">
        <ele>162.40</ele>
        <time>2014-02-23T08:08:26Z</time>
      </trkpt>
      <trkpt lat="41.615143410" lon="2.530768470">
        <ele>162.20</ele>
        <time>2014-02-23T08:08:27Z</time>
      </trkpt>
      <trkpt lat="41.615146770" lon="2.530726730">
        <ele>162.00</ele>
        <time>2014-02-23T08:08:28Z</time>
      </trkpt>
      <trkpt lat="41.615150120" lon="2.530685160">
        <ele>162.30</ele>
        <time>2014-02-23T08:08:29Z</time>
      </trkpt>
      <trkpt lat="41.615151800" lon="2.530643410">
        <ele>162.40</ele>
        <time>2014-02-23T08:08:30Z</time>
      </trkpt>
      <trkpt lat="41.615153470" lon="2.530603350">
        <ele>162.50</ele>
        <time>2014-02-23T08:08:31Z</time>
      </trkpt>
      <trkpt lat="41.615153470" lon="2.530563450">
        <ele>162.50</ele>
        <time>2014-02-23T08:08:32Z</time>
      </trkpt>
      <trkpt lat="41.615155150" lon="2.530521710">
        <ele>163.00</ele>
        <time>2014-02-23T08:08:33Z</time>
      </trkpt>
      <trkpt lat="41.615156820" lon="2.530480130">
        <ele>163.40</ele>
        <time>2014-02-23T08:08:34Z</time>
      </trkpt>
      <trkpt lat="41.615158330" lon="2.530440070">
        <ele>163.60</ele>
        <time>2014-02-23T08:08:35Z</time>
      </trkpt>
      <trkpt lat="41.615156820" lon="2.530396820">
        <ele>163.50</ele>
        <time>2014-02-23T08:08:36Z</time>
      </trkpt>
      <trkpt lat="41.615156820" lon="2.530355080">
        <ele>163.50</ele>
        <time>2014-02-23T08:08:37Z</time>
      </trkpt>
      <trkpt lat="41.615156820" lon="2.530315010">
        <ele>163.90</ele>
        <time>2014-02-23T08:08:38Z</time>
      </trkpt>
      <trkpt lat="41.615156820" lon="2.530273440">
        <ele>164.20</ele>
        <time>2014-02-23T08:08:39Z</time>
      </trkpt>
      <trkpt lat="41.615156820" lon="2.530233370">
        <ele>164.40</ele>
        <time>2014-02-23T08:08:40Z</time>
      </trkpt>
      <trkpt lat="41.615156820" lon="2.530193470">
        <ele>164.40</ele>
        <time>2014-02-23T08:08:41Z</time>
      </trkpt>
      <trkpt lat="41.615155150" lon="2.530151730">
        <ele>164.30</ele>
        <time>2014-02-23T08:08:42Z</time>
      </trkpt>
      <trkpt lat="41.615155150" lon="2.530105130">
        <ele>164.60</ele>
        <time>2014-02-23T08:08:43Z</time>
      </trkpt>
      <trkpt lat="41.615156820" lon="2.530063390">
        <ele>164.80</ele>
        <time>2014-02-23T08:08:44Z</time>
      </trkpt>
      <trkpt lat="41.615156820" lon="2.530023490">
        <ele>164.90</ele>
        <time>2014-02-23T08:08:45Z</time>
      </trkpt>
      <trkpt lat="41.615156820" lon="2.529983420">
        <ele>164.90</ele>
        <time>2014-02-23T08:08:46Z</time>
      </trkpt>
      <trkpt lat="41.615155150" lon="2.529943360">
        <ele>165.00</ele>
        <time>2014-02-23T08:08:47Z</time>
      </trkpt>
      <trkpt lat="41.615155150" lon="2.529903460">
        <ele>165.30</ele>
        <time>2014-02-23T08:08:48Z</time>
      </trkpt>
      <trkpt lat="41.615155150" lon="2.529865070">
        <ele>165.50</ele>
        <time>2014-02-23T08:08:49Z</time>
      </trkpt>
      <trkpt lat="41.615155150" lon="2.529825000">
        <ele>165.60</ele>
        <time>2014-02-23T08:08:50Z</time>
      </trkpt>
      <trkpt lat="41.615153470" lon="2.529785110">
        <ele>165.60</ele>
        <time>2014-02-23T08:08:51Z</time>
      </trkpt>
      <trkpt lat="41.615155150" lon="2.529746720">
        <ele>166.00</ele>
        <time>2014-02-23T08:08:52Z</time>
      </trkpt>
      <trkpt lat="41.615156820" lon="2.529708500">
        <ele>166.30</ele>
        <time>2014-02-23T08:08:53Z</time>
      </trkpt>
      <trkpt lat="41.615160010" lon="2.529668430">
        <ele>166.50</ele>
        <time>2014-02-23T08:08:54Z</time>
      </trkpt>
      <trkpt lat="41.615161690" lon="2.529630040">
        <ele>166.50</ele>
        <time>2014-02-23T08:08:55Z</time>
      </trkpt>
      <trkpt lat="41.615163360" lon="2.529590140">
        <ele>166.50</ele>
        <time>2014-02-23T08:08:56Z</time>
      </trkpt>
      <trkpt lat="41.615163360" lon="2.529550080">
        <ele>166.50</ele>
        <time>2014-02-23T08:08:57Z</time>
      </trkpt>
      <trkpt lat="41.615166720" lon="2.529510010">
        <ele>166.50</ele>
        <time>2014-02-23T08:08:58Z</time>
      </trkpt>
      <trkpt lat="41.615168390" lon="2.529468440">
        <ele>166.40</ele>
        <time>2014-02-23T08:08:59Z</time>
      </trkpt>
      <trkpt lat="41.615170070" lon="2.529428370">
        <ele>166.20</ele>
        <time>2014-02-23T08:09:00Z</time>
      </trkpt>
      <trkpt lat="41.615171740" lon="2.529388470">
        <ele>166.00</ele>
        <time>2014-02-23T08:09:01Z</time>
      </trkpt>
      <trkpt lat="41.615171740" lon="2.529348410">
        <ele>166.80</ele>
        <time>2014-02-23T08:09:02Z</time>
      </trkpt>
      <trkpt lat="41.615173420" lon="2.529306670">
        <ele>167.30</ele>
        <time>2014-02-23T08:09:03Z</time>
      </trkpt>
      <trkpt lat="41.615175100" lon="2.529266770">
        <ele>167.40</ele>
        <time>2014-02-23T08:09:04Z</time>
      </trkpt>
      <trkpt lat="41.615176770" lon="2.529230060">
        <ele>167.40</ele>
        <time>2014-02-23T08:09:05Z</time>
      </trkpt>
      <trkpt lat="41.615178450" lon="2.529190160">
        <ele>167.50</ele>
        <time>2014-02-23T08:09:06Z</time>
      </trkpt>
      <trkpt lat="41.615181800" lon="2.529151770">
        <ele>167.90</ele>
        <time>2014-02-23T08:09:07Z</time>
      </trkpt>
      <trkpt lat="41.615185160" lon="2.529110030">
        <ele>168.30</ele>
        <time>2014-02-23T08:09:08Z</time>
      </trkpt>
      <trkpt lat="41.615188340" lon="2.529068450">
        <ele>168.20</ele>
        <time>2014-02-23T08:09:09Z</time>
      </trkpt>
      <trkpt lat="41.615193370" lon="2.529026710">
        <ele>168.20</ele>
        <time>2014-02-23T08:09:10Z</time>
      </trkpt>
      <trkpt lat="41.615196720" lon="2.528985140">
        <ele>168.10</ele>
        <time>2014-02-23T08:09:11Z</time>
      </trkpt>
      <trkpt lat="41.615201750" lon="2.528945070">
        <ele>168.00</ele>
        <time>2014-02-23T08:09:12Z</time>
      </trkpt>
      <trkpt lat="41.615206780" lon="2.528903330">
        <ele>168.00</ele>
        <time>2014-02-23T08:09:13Z</time>
      </trkpt>
      <trkpt lat="41.615211810" lon="2.528863430">
        <ele>168.50</ele>
        <time>2014-02-23T08:09:14Z</time>
      </trkpt>
      <trkpt lat="41.615218350" lon="2.528823370">
        <ele>168.90</ele>
        <time>2014-02-23T08:09:15Z</time>
      </trkpt>
      <trkpt lat="41.615226730" lon="2.528783470">
        <ele>168.90</ele>
        <time>2014-02-23T08:09:16Z</time>
      </trkpt>
      <trkpt lat="41.615235110" lon="2.528745080">
        <ele>169.00</ele>
        <time>2014-02-23T08:09:17Z</time>
      </trkpt>
      <trkpt lat="41.615240140" lon="2.528705010">
        <ele>169.00</ele>
        <time>2014-02-23T08:09:18Z</time>
      </trkpt>
      <trkpt lat="41.615246680" lon="2.528665120">
        <ele>169.20</ele>
        <time>2014-02-23T08:09:19Z</time>
      </trkpt>
      <trkpt lat="41.615256740" lon="2.528625050">
        <ele>169.40</ele>
        <time>2014-02-23T08:09:20Z</time>
      </trkpt>
      <trkpt lat="41.615265120" lon="2.528585150">
        <ele>169.40</ele>
        <time>2014-02-23T08:09:21Z</time>
      </trkpt>
      <trkpt lat="41.615275010" lon="2.528545090">
        <ele>169.40</ele>
        <time>2014-02-23T08:09:22Z</time>
      </trkpt>
      <trkpt lat="41.615285070" lon="2.528505020">
        <ele>169.30</ele>
        <time>2014-02-23T08:09:23Z</time>
      </trkpt>
      <trkpt lat="41.615293450" lon="2.528466800">
        <ele>169.20</ele>
        <time>2014-02-23T08:09:24Z</time>
      </trkpt>
      <trkpt lat="41.615301660" lon="2.528428410">
        <ele>169.20</ele>
        <time>2014-02-23T08:09:25Z</time>
      </trkpt>
      <trkpt lat="41.615308370" lon="2.528388350">
        <ele>169.90</ele>
        <time>2014-02-23T08:09:26Z</time>
      </trkpt>
      <trkpt lat="41.615316750" lon="2.528350120">
        <ele>170.40</ele>
        <time>2014-02-23T08:09:27Z</time>
      </trkpt>
      <trkpt lat="41.615325130" lon="2.528310060">
        <ele>170.10</ele>
        <time>2014-02-23T08:09:28Z</time>
      </trkpt>
      <trkpt lat="41.615333350" lon="2.528271670">
        <ele>169.90</ele>
        <time>2014-02-23T08:09:29Z</time>
      </trkpt>
      <trkpt lat="41.615341730" lon="2.528231770">
        <ele>170.30</ele>
        <time>2014-02-23T08:09:30Z</time>
      </trkpt>
      <trkpt lat="41.615350110" lon="2.528193380">
        <ele>170.60</ele>
        <time>2014-02-23T08:09:31Z</time>
      </trkpt>
      <trkpt lat="41.615358490" lon="2.528155160">
        <ele>170.80</ele>
        <time>2014-02-23T08:09:32Z</time>
      </trkpt>
      <trkpt lat="41.615365030" lon="2.528113420">
        <ele>170.90</ele>
        <time>2014-02-23T08:09:33Z</time>
      </trkpt>
      <trkpt lat="41.615371740" lon="2.528075030">
        <ele>170.90</ele>
        <time>2014-02-23T08:09:34Z</time>
      </trkpt>
      <trkpt lat="41.615378440" lon="2.528035130">
        <ele>170.90</ele>
        <time>2014-02-23T08:09:35Z</time>
      </trkpt>
      <trkpt lat="41.615385150" lon="2.527995070">
        <ele>170.80</ele>
        <time>2014-02-23T08:09:36Z</time>
      </trkpt>
      <trkpt lat="41.615391690" lon="2.527953490">
        <ele>170.90</ele>
        <time>2014-02-23T08:09:37Z</time>
      </trkpt>
      <trkpt lat="41.615396710" lon="2.527913430">
        <ele>170.90</ele>
        <time>2014-02-23T08:09:38Z</time>
      </trkpt>
      <trkpt lat="41.615405100" lon="2.527871690">
        <ele>170.90</ele>
        <time>2014-02-23T08:09:39Z</time>
      </trkpt>
      <trkpt lat="41.615410130" lon="2.527831790">
        <ele>171.10</ele>
        <time>2014-02-23T08:09:40Z</time>
      </trkpt>
      <trkpt lat="41.615416660" lon="2.527791720">
        <ele>171.30</ele>
        <time>2014-02-23T08:09:41Z</time>
      </trkpt>
      <trkpt lat="41.615423370" lon="2.527755010">
        <ele>171.30</ele>
        <time>2014-02-23T08:09:42Z</time>
      </trkpt>
      <trkpt lat="41.615430070" lon="2.527716790">
        <ele>171.30</ele>
        <time>2014-02-23T08:09:43Z</time>
      </trkpt>
      <trkpt lat="41.615438460" lon="2.527678400">
        <ele>171.30</ele>
        <time>2014-02-23T08:09:44Z</time>
      </trkpt>
      <trkpt lat="41.615445160" lon="2.527643360">
        <ele>171.40</ele>
        <time>2014-02-23T08:09:45Z</time>
      </trkpt>
      <trkpt lat="41.615453380" lon="2.527606820">
        <ele>171.60</ele>
        <time>2014-02-23T08:09:46Z</time>
      </trkpt>
      <trkpt lat="41.615461760" lon="2.527570100">
        <ele>171.80</ele>
        <time>2014-02-23T08:09:47Z</time>
      </trkpt>
      <trkpt lat="41.615471820" lon="2.527531720">
        <ele>172.00</ele>
        <time>2014-02-23T08:09:48Z</time>
      </trkpt>
      <trkpt lat="41.615478350" lon="2.527493490">
        <ele>172.50</ele>
        <time>2014-02-23T08:09:49Z</time>
      </trkpt>
      <trkpt lat="41.615483380" lon="2.527455110">
        <ele>172.80</ele>
        <time>2014-02-23T08:09:50Z</time>
      </trkpt>
      <trkpt lat="41.615488410" lon="2.527418390">
        <ele>173.10</ele>
        <time>2014-02-23T08:09:51Z</time>
      </trkpt>
      <trkpt lat="41.615495120" lon="2.527383360">
        <ele>173.10</ele>
        <time>2014-02-23T08:09:52Z</time>
      </trkpt>
      <trkpt lat="41.615501820" lon="2.527348490">
        <ele>173.00</ele>
        <time>2014-02-23T08:09:53Z</time>
      </trkpt>
      <trkpt lat="41.615508360" lon="2.527313450">
        <ele>172.90</ele>
        <time>2014-02-23T08:09:54Z</time>
      </trkpt>
      <trkpt lat="41.615515070" lon="2.527278410">
        <ele>172.80</ele>
        <time>2014-02-23T08:09:55Z</time>
      </trkpt>
      <trkpt lat="41.615520100" lon="2.527240030">
        <ele>173.00</ele>
        <time>2014-02-23T08:09:56Z</time>
      </trkpt>
      <trkpt lat="41.615523450" lon="2.527203480">
        <ele>173.20</ele>
        <time>2014-02-23T08:09:57Z</time>
      </trkpt>
      <trkpt lat="41.615528480" lon="2.527166770">
        <ele>173.30</ele>
        <time>2014-02-23T08:09:58Z</time>
      </trkpt>
      <trkpt lat="41.615531660" lon="2.527131730">
        <ele>173.70</ele>
        <time>2014-02-23T08:09:59Z</time>
      </trkpt>
      <trkpt lat="41.615533340" lon="2.527096690">
        <ele>174.00</ele>
        <time>2014-02-23T08:10:00Z</time>
      </trkpt>
      <trkpt lat="41.615535020" lon="2.527063330">
        <ele>174.20</ele>
        <time>2014-02-23T08:10:01Z</time>
      </trkpt>
      <trkpt lat="41.615535020" lon="2.527028470">
        <ele>174.20</ele>
        <time>2014-02-23T08:10:02Z</time>
      </trkpt>
      <trkpt lat="41.615536690" lon="2.526993430">
        <ele>174.30</ele>
        <time>2014-02-23T08:10:03Z</time>
      </trkpt>
      <trkpt lat="41.615540040" lon="2.526960070">
        <ele>174.10</ele>
        <time>2014-02-23T08:10:04Z</time>
      </trkpt>
      <trkpt lat="41.615545070" lon="2.526926710">
        <ele>174.00</ele>
        <time>2014-02-23T08:10:05Z</time>
      </trkpt>
      <trkpt lat="41.615546750" lon="2.526891670">
        <ele>174.30</ele>
        <time>2014-02-23T08:10:06Z</time>
      </trkpt>
      <trkpt lat="41.615550100" lon="2.526855130">
        <ele>174.60</ele>
        <time>2014-02-23T08:10:07Z</time>
      </trkpt>
      <trkpt lat="41.615553460" lon="2.526818420">
        <ele>174.80</ele>
        <time>2014-02-23T08:10:08Z</time>
      </trkpt>
      <trkpt lat="41.615555130" lon="2.526785060">
        <ele>175.00</ele>
        <time>2014-02-23T08:10:09Z</time>
      </trkpt>
      <trkpt lat="41.615555130" lon="2.526751700">
        <ele>175.10</ele>
        <time>2014-02-23T08:10:10Z</time>
      </trkpt>
      <trkpt lat="41.615555130" lon="2.526720010">
        <ele>175.30</ele>
        <time>2014-02-23T08:10:11Z</time>
      </trkpt>
      <trkpt lat="41.615555130" lon="2.526691680">
        <ele>175.40</ele>
        <time>2014-02-23T08:10:12Z</time>
      </trkpt>
      <trkpt lat="41.615550100" lon="2.526660000">
        <ele>175.90</ele>
        <time>2014-02-23T08:10:13Z</time>
      </trkpt>
      <trkpt lat="41.615548430" lon="2.526628480">
        <ele>176.20</ele>
        <time>2014-02-23T08:10:14Z</time>
      </trkpt>
      <trkpt lat="41.615546750" lon="2.526595120">
        <ele>176.00</ele>
        <time>2014-02-23T08:10:15Z</time>
      </trkpt>
      <trkpt lat="41.615540040" lon="2.526558410">
        <ele>175.80</ele>
        <time>2014-02-23T08:10:16Z</time>
      </trkpt>
      <trkpt lat="41.615535020" lon="2.526520020">
        <ele>175.70</ele>
        <time>2014-02-23T08:10:17Z</time>
      </trkpt>
      <trkpt lat="41.615531660" lon="2.526480120">
        <ele>175.90</ele>
        <time>2014-02-23T08:10:18Z</time>
      </trkpt>
      <trkpt lat="41.615528480" lon="2.526441730">
        <ele>176.00</ele>
        <time>2014-02-23T08:10:19Z</time>
      </trkpt>
      <trkpt lat="41.615526800" lon="2.526406700">
        <ele>176.60</ele>
        <time>2014-02-23T08:10:20Z</time>
      </trkpt>
      <trkpt lat="41.615523450" lon="2.526371830">
        <ele>177.00</ele>
        <time>2014-02-23T08:10:21Z</time>
      </trkpt>
      <trkpt lat="41.615521770" lon="2.526335120">
        <ele>177.30</ele>
        <time>2014-02-23T08:10:22Z</time>
      </trkpt>
      <trkpt lat="41.615518420" lon="2.526300080">
        <ele>177.40</ele>
        <time>2014-02-23T08:10:23Z</time>
      </trkpt>
      <trkpt lat="41.615516740" lon="2.526263370">
        <ele>177.40</ele>
        <time>2014-02-23T08:10:24Z</time>
      </trkpt>
      <trkpt lat="41.615515070" lon="2.526226820">
        <ele>177.40</ele>
        <time>2014-02-23T08:10:25Z</time>
      </trkpt>
      <trkpt lat="41.615513390" lon="2.526193460">
        <ele>177.50</ele>
        <time>2014-02-23T08:10:26Z</time>
      </trkpt>
      <trkpt lat="41.615511710" lon="2.526155070">
        <ele>177.60</ele>
        <time>2014-02-23T08:10:27Z</time>
      </trkpt>
      <trkpt lat="41.615510040" lon="2.526120040">
        <ele>177.70</ele>
        <time>2014-02-23T08:10:28Z</time>
      </trkpt>
      <trkpt lat="41.615508360" lon="2.526088350">
        <ele>177.80</ele>
        <time>2014-02-23T08:10:29Z</time>
      </trkpt>
      <trkpt lat="41.615510040" lon="2.526053480">
        <ele>178.00</ele>
        <time>2014-02-23T08:10:30Z</time>
      </trkpt>
      <trkpt lat="41.615508360" lon="2.526016770">
        <ele>178.20</ele>
        <time>2014-02-23T08:10:31Z</time>
      </trkpt>
      <trkpt lat="41.615508360" lon="2.525980060">
        <ele>178.10</ele>
        <time>2014-02-23T08:10:32Z</time>
      </trkpt>
      <trkpt lat="41.615508360" lon="2.525941670">
        <ele>178.10</ele>
        <time>2014-02-23T08:10:33Z</time>
      </trkpt>
      <trkpt lat="41.615510040" lon="2.525903450">
        <ele>178.40</ele>
        <time>2014-02-23T08:10:34Z</time>
      </trkpt>
      <trkpt lat="41.615510040" lon="2.525865060">
        <ele>178.60</ele>
        <time>2014-02-23T08:10:35Z</time>
      </trkpt>
      <trkpt lat="41.615511710" lon="2.525828350">
        <ele>178.80</ele>
        <time>2014-02-23T08:10:36Z</time>
      </trkpt>
      <trkpt lat="41.615511710" lon="2.525790120">
        <ele>179.00</ele>
        <time>2014-02-23T08:10:37Z</time>
      </trkpt>
      <trkpt lat="41.615511710" lon="2.525751730">
        <ele>179.10</ele>
        <time>2014-02-23T08:10:38Z</time>
      </trkpt>
      <trkpt lat="41.615510040" lon="2.525713350">
        <ele>179.10</ele>
        <time>2014-02-23T08:10:39Z</time>
      </trkpt>
      <trkpt lat="41.615506680" lon="2.525675120">
        <ele>179.00</ele>
        <time>2014-02-23T08:10:40Z</time>
      </trkpt>
      <trkpt lat="41.615506680" lon="2.525638410">
        <ele>179.00</ele>
        <time>2014-02-23T08:10:41Z</time>
      </trkpt>
      <trkpt lat="41.615508360" lon="2.525600020">
        <ele>179.00</ele>
        <time>2014-02-23T08:10:42Z</time>
      </trkpt>
      <trkpt lat="41.615508360" lon="2.525563480">
        <ele>178.90</ele>
        <time>2014-02-23T08:10:43Z</time>
      </trkpt>
      <trkpt lat="41.615510040" lon="2.525525090">
        <ele>179.00</ele>
        <time>2014-02-23T08:10:44Z</time>
      </trkpt>
      <trkpt lat="41.615510040" lon="2.525488380">
        <ele>179.10</ele>
        <time>2014-02-23T08:10:45Z</time>
      </trkpt>
      <trkpt lat="41.615511710" lon="2.525450150">
        <ele>179.30</ele>
        <time>2014-02-23T08:10:46Z</time>
      </trkpt>
      <trkpt lat="41.615511710" lon="2.525413440">
        <ele>179.50</ele>
        <time>2014-02-23T08:10:47Z</time>
      </trkpt>
      <trkpt lat="41.615513390" lon="2.525373380">
        <ele>179.60</ele>
        <time>2014-02-23T08:10:48Z</time>
      </trkpt>
      <trkpt lat="41.615513390" lon="2.525333480">
        <ele>179.60</ele>
        <time>2014-02-23T08:10:49Z</time>
      </trkpt>
      <trkpt lat="41.615515070" lon="2.525293410">
        <ele>179.50</ele>
        <time>2014-02-23T08:10:50Z</time>
      </trkpt>
      <trkpt lat="41.615516740" lon="2.525253350">
        <ele>180.20</ele>
        <time>2014-02-23T08:10:51Z</time>
      </trkpt>
      <trkpt lat="41.615518420" lon="2.525213450">
        <ele>180.60</ele>
        <time>2014-02-23T08:10:52Z</time>
      </trkpt>
      <trkpt lat="41.615520100" lon="2.525173380">
        <ele>180.40</ele>
        <time>2014-02-23T08:10:53Z</time>
      </trkpt>
      <trkpt lat="41.615523450" lon="2.525135160">
        <ele>180.30</ele>
        <time>2014-02-23T08:10:54Z</time>
      </trkpt>
      <trkpt lat="41.615523450" lon="2.525096770">
        <ele>180.10</ele>
        <time>2014-02-23T08:10:55Z</time>
      </trkpt>
      <trkpt lat="41.615523450" lon="2.525055030">
        <ele>180.20</ele>
        <time>2014-02-23T08:10:56Z</time>
      </trkpt>
      <trkpt lat="41.615526800" lon="2.525015130">
        <ele>180.30</ele>
        <time>2014-02-23T08:10:57Z</time>
      </trkpt>
      <trkpt lat="41.615526800" lon="2.524971710">
        <ele>180.70</ele>
        <time>2014-02-23T08:10:58Z</time>
      </trkpt>
      <trkpt lat="41.615526800" lon="2.524931820">
        <ele>181.00</ele>
        <time>2014-02-23T08:10:59Z</time>
      </trkpt>
      <trkpt lat="41.615528480" lon="2.524893430">
        <ele>181.30</ele>
        <time>2014-02-23T08:11:00Z</time>
      </trkpt>
      <trkpt lat="41.615530150" lon="2.524853360">
        <ele>181.60</ele>
        <time>2014-02-23T08:11:01Z</time>
      </trkpt>
      <trkpt lat="41.615531660" lon="2.524815140">
        <ele>181.90</ele>
        <time>2014-02-23T08:11:02Z</time>
      </trkpt>
      <trkpt lat="41.615535020" lon="2.524778430">
        <ele>182.30</ele>
        <time>2014-02-23T08:11:03Z</time>
      </trkpt>
      <trkpt lat="41.615538370" lon="2.524740040">
        <ele>182.60</ele>
        <time>2014-02-23T08:11:04Z</time>
      </trkpt>
      <trkpt lat="41.615541720" lon="2.524705000">
        <ele>182.80</ele>
        <time>2014-02-23T08:11:05Z</time>
      </trkpt>
      <trkpt lat="41.615543400" lon="2.524670130">
        <ele>183.00</ele>
        <time>2014-02-23T08:11:06Z</time>
      </trkpt>
      <trkpt lat="41.615545070" lon="2.524633420">
        <ele>183.10</ele>
        <time>2014-02-23T08:11:07Z</time>
      </trkpt>
      <trkpt lat="41.615550100" lon="2.524598380">
        <ele>183.30</ele>
        <time>2014-02-23T08:11:08Z</time>
      </trkpt>
      <trkpt lat="41.615553460" lon="2.524560000">
        <ele>183.40</ele>
        <time>2014-02-23T08:11:09Z</time>
      </trkpt>
      <trkpt lat="41.615556810" lon="2.524521770">
        <ele>183.20</ele>
        <time>2014-02-23T08:11:10Z</time>
      </trkpt>
      <trkpt lat="41.615560160" lon="2.524483390">
        <ele>183.00</ele>
        <time>2014-02-23T08:11:11Z</time>
      </trkpt>
      <trkpt lat="41.615561670" lon="2.524445000">
        <ele>183.10</ele>
        <time>2014-02-23T08:11:12Z</time>
      </trkpt>
      <trkpt lat="41.615563350" lon="2.524406770">
        <ele>183.20</ele>
        <time>2014-02-23T08:11:13Z</time>
      </trkpt>
      <trkpt lat="41.615566700" lon="2.524368390">
        <ele>183.20</ele>
        <time>2014-02-23T08:11:14Z</time>
      </trkpt>
      <trkpt lat="41.615568380" lon="2.524331670">
        <ele>183.30</ele>
        <time>2014-02-23T08:11:15Z</time>
      </trkpt>
      <trkpt lat="41.615571730" lon="2.524295130">
        <ele>183.40</ele>
        <time>2014-02-23T08:11:16Z</time>
      </trkpt>
      <trkpt lat="41.615573400" lon="2.524258410">
        <ele>183.70</ele>
        <time>2014-02-23T08:11:17Z</time>
      </trkpt>
      <trkpt lat="41.615576760" lon="2.524221700">
        <ele>183.90</ele>
        <time>2014-02-23T08:11:18Z</time>
      </trkpt>
      <trkpt lat="41.615580110" lon="2.524185160">
        <ele>184.00</ele>
        <time>2014-02-23T08:11:19Z</time>
      </trkpt>
      <trkpt lat="41.615583460" lon="2.524148440">
        <ele>183.90</ele>
        <time>2014-02-23T08:11:20Z</time>
      </trkpt>
      <trkpt lat="41.615588490" lon="2.524111730">
        <ele>183.90</ele>
        <time>2014-02-23T08:11:21Z</time>
      </trkpt>
      <trkpt lat="41.615591680" lon="2.524075020">
        <ele>184.40</ele>
        <time>2014-02-23T08:11:22Z</time>
      </trkpt>
      <trkpt lat="41.615593350" lon="2.524038470">
        <ele>184.70</ele>
        <time>2014-02-23T08:11:23Z</time>
      </trkpt>
      <trkpt lat="41.615591680" lon="2.524006790">
        <ele>184.80</ele>
        <time>2014-02-23T08:11:24Z</time>
      </trkpt>
      <trkpt lat="41.615595030" lon="2.523973430">
        <ele>184.90</ele>
        <time>2014-02-23T08:11:25Z</time>
      </trkpt>
      <trkpt lat="41.615598380" lon="2.523941750">
        <ele>185.00</ele>
        <time>2014-02-23T08:11:26Z</time>
      </trkpt>
      <trkpt lat="41.615606760" lon="2.523901680">
        <ele>185.80</ele>
        <time>2014-02-23T08:11:27Z</time>
      </trkpt>
      <trkpt lat="41.615610120" lon="2.523861780">
        <ele>186.40</ele>
        <time>2014-02-23T08:11:28Z</time>
      </trkpt>
      <trkpt lat="41.615613470" lon="2.523818360">
        <ele>186.90</ele>
        <time>2014-02-23T08:11:29Z</time>
      </trkpt>
      <trkpt lat="41.615613470" lon="2.523775110">
        <ele>187.20</ele>
        <time>2014-02-23T08:11:30Z</time>
      </trkpt>
      <trkpt lat="41.615616820" lon="2.523735050">
        <ele>187.00</ele>
        <time>2014-02-23T08:11:31Z</time>
      </trkpt>
      <trkpt lat="41.615621680" lon="2.523696830">
        <ele>186.80</ele>
        <time>2014-02-23T08:11:32Z</time>
      </trkpt>
      <trkpt lat="41.615626710" lon="2.523658440">
        <ele>186.70</ele>
        <time>2014-02-23T08:11:33Z</time>
      </trkpt>
      <trkpt lat="41.615631740" lon="2.523616700">
        <ele>187.00</ele>
        <time>2014-02-23T08:11:34Z</time>
      </trkpt>
      <trkpt lat="41.615635100" lon="2.523575120">
        <ele>187.20</ele>
        <time>2014-02-23T08:11:35Z</time>
      </trkpt>
      <trkpt lat="41.615638450" lon="2.523536730">
        <ele>187.20</ele>
        <time>2014-02-23T08:11:36Z</time>
      </trkpt>
      <trkpt lat="41.615641800" lon="2.523495160">
        <ele>187.10</ele>
        <time>2014-02-23T08:11:37Z</time>
      </trkpt>
      <trkpt lat="41.615648340" lon="2.523455090">
        <ele>187.10</ele>
        <time>2014-02-23T08:11:38Z</time>
      </trkpt>
      <trkpt lat="41.615655040" lon="2.523416700">
        <ele>187.30</ele>
        <time>2014-02-23T08:11:39Z</time>
      </trkpt>
      <trkpt lat="41.615663430" lon="2.523378480">
        <ele>187.40</ele>
        <time>2014-02-23T08:11:40Z</time>
      </trkpt>
      <trkpt lat="41.615671810" lon="2.523340090">
        <ele>188.00</ele>
        <time>2014-02-23T08:11:41Z</time>
      </trkpt>
      <trkpt lat="41.615680020" lon="2.523301700">
        <ele>188.50</ele>
        <time>2014-02-23T08:11:42Z</time>
      </trkpt>
      <trkpt lat="41.615686730" lon="2.523261810">
        <ele>188.30</ele>
        <time>2014-02-23T08:11:43Z</time>
      </trkpt>
      <trkpt lat="41.615693430" lon="2.523223420">
        <ele>188.20</ele>
        <time>2014-02-23T08:11:44Z</time>
      </trkpt>
      <trkpt lat="41.615701820" lon="2.523183350">
        <ele>188.10</ele>
        <time>2014-02-23T08:11:45Z</time>
      </trkpt>
      <trkpt lat="41.615708350" lon="2.523146810">
        <ele>188.30</ele>
        <time>2014-02-23T08:11:46Z</time>
      </trkpt>
      <trkpt lat="41.615716740" lon="2.523110090">
        <ele>188.40</ele>
        <time>2014-02-23T08:11:47Z</time>
      </trkpt>
      <trkpt lat="41.615725120" lon="2.523073380">
        <ele>188.50</ele>
        <time>2014-02-23T08:11:48Z</time>
      </trkpt>
      <trkpt lat="41.615733330" lon="2.523035160">
        <ele>188.70</ele>
        <time>2014-02-23T08:11:49Z</time>
      </trkpt>
      <trkpt lat="41.615745070" lon="2.522998450">
        <ele>189.10</ele>
        <time>2014-02-23T08:11:50Z</time>
      </trkpt>
      <trkpt lat="41.615755120" lon="2.522963410">
        <ele>189.40</ele>
        <time>2014-02-23T08:11:51Z</time>
      </trkpt>
      <trkpt lat="41.615765020" lon="2.522930050">
        <ele>189.70</ele>
        <time>2014-02-23T08:11:52Z</time>
      </trkpt>
      <trkpt lat="41.615773400" lon="2.522898370">
        <ele>189.30</ele>
        <time>2014-02-23T08:11:53Z</time>
      </trkpt>
      <trkpt lat="41.615781780" lon="2.522863330">
        <ele>189.10</ele>
        <time>2014-02-23T08:11:54Z</time>
      </trkpt>
      <trkpt lat="41.615790160" lon="2.522826790">
        <ele>189.40</ele>
        <time>2014-02-23T08:11:55Z</time>
      </trkpt>
      <trkpt lat="41.615800050" lon="2.522788400">
        <ele>189.60</ele>
        <time>2014-02-23T08:11:56Z</time>
      </trkpt>
      <trkpt lat="41.615811790" lon="2.522755040">
        <ele>189.80</ele>
        <time>2014-02-23T08:11:57Z</time>
      </trkpt>
      <trkpt lat="41.615823350" lon="2.522721680">
        <ele>189.90</ele>
        <time>2014-02-23T08:11:58Z</time>
      </trkpt>
      <trkpt lat="41.615830060" lon="2.522688480">
        <ele>190.10</ele>
        <time>2014-02-23T08:11:59Z</time>
      </trkpt>
      <trkpt lat="41.615836760" lon="2.522651770">
        <ele>190.40</ele>
        <time>2014-02-23T08:12:00Z</time>
      </trkpt>
      <trkpt lat="41.615843470" lon="2.522615060">
        <ele>190.70</ele>
        <time>2014-02-23T08:12:01Z</time>
      </trkpt>
      <trkpt lat="41.615848330" lon="2.522578350">
        <ele>191.00</ele>
        <time>2014-02-23T08:12:02Z</time>
      </trkpt>
      <trkpt lat="41.615853360" lon="2.522543480">
        <ele>191.20</ele>
        <time>2014-02-23T08:12:03Z</time>
      </trkpt>
      <trkpt lat="41.615858390" lon="2.522508440">
        <ele>191.30</ele>
        <time>2014-02-23T08:12:04Z</time>
      </trkpt>
      <trkpt lat="41.615863420" lon="2.522475080">
        <ele>191.80</ele>
        <time>2014-02-23T08:12:05Z</time>
      </trkpt>
      <trkpt lat="41.615870120" lon="2.522438370">
        <ele>192.20</ele>
        <time>2014-02-23T08:12:06Z</time>
      </trkpt>
      <trkpt lat="41.615875150" lon="2.522403330">
        <ele>192.20</ele>
        <time>2014-02-23T08:12:07Z</time>
      </trkpt>
      <trkpt lat="41.615880010" lon="2.522366790">
        <ele>192.30</ele>
        <time>2014-02-23T08:12:08Z</time>
      </trkpt>
      <trkpt lat="41.615886720" lon="2.522330070">
        <ele>192.30</ele>
        <time>2014-02-23T08:12:09Z</time>
      </trkpt>
      <trkpt lat="41.615893430" lon="2.522295040">
        <ele>192.30</ele>
        <time>2014-02-23T08:12:10Z</time>
      </trkpt>
      <trkpt lat="41.615898460" lon="2.522258490">
        <ele>192.30</ele>
        <time>2014-02-23T08:12:11Z</time>
      </trkpt>
      <trkpt lat="41.615903480" lon="2.522223460">
        <ele>192.20</ele>
        <time>2014-02-23T08:12:12Z</time>
      </trkpt>
      <trkpt lat="41.615911700" lon="2.522186740">
        <ele>192.10</ele>
        <time>2014-02-23T08:12:13Z</time>
      </trkpt>
      <trkpt lat="41.615918400" lon="2.522151710">
        <ele>192.30</ele>
        <time>2014-02-23T08:12:14Z</time>
      </trkpt>
      <trkpt lat="41.615925110" lon="2.522116670">
        <ele>192.50</ele>
        <time>2014-02-23T08:12:15Z</time>
      </trkpt>
      <trkpt lat="41.615931820" lon="2.522083480">
        <ele>192.60</ele>
        <time>2014-02-23T08:12:16Z</time>
      </trkpt>
      <trkpt lat="41.615935000" lon="2.522051800">
        <ele>192.60</ele>
        <time>2014-02-23T08:12:17Z</time>
      </trkpt>
      <trkpt lat="41.615938350" lon="2.522023460">
        <ele>192.60</ele>
        <time>2014-02-23T08:12:18Z</time>
      </trkpt>
      <trkpt lat="41.615941710" lon="2.521993460">
        <ele>192.70</ele>
        <time>2014-02-23T08:12:19Z</time>
      </trkpt>
      <trkpt lat="41.615945060" lon="2.521963450">
        <ele>192.70</ele>
        <time>2014-02-23T08:12:20Z</time>
      </trkpt>
      <trkpt lat="41.615946730" lon="2.521931770">
        <ele>193.00</ele>
        <time>2014-02-23T08:12:21Z</time>
      </trkpt>
      <trkpt lat="41.615950090" lon="2.521900080">
        <ele>193.30</ele>
        <time>2014-02-23T08:12:22Z</time>
      </trkpt>
      <trkpt lat="41.615955120" lon="2.521870080">
        <ele>193.40</ele>
        <time>2014-02-23T08:12:23Z</time>
      </trkpt>
      <trkpt lat="41.615958470" lon="2.521835040">
        <ele>193.70</ele>
        <time>2014-02-23T08:12:24Z</time>
      </trkpt>
      <trkpt lat="41.615963330" lon="2.521800000">
        <ele>193.90</ele>
        <time>2014-02-23T08:12:25Z</time>
      </trkpt>
      <trkpt lat="41.615970040" lon="2.521758430">
        <ele>194.30</ele>
        <time>2014-02-23T08:12:26Z</time>
      </trkpt>
      <trkpt lat="41.615973390" lon="2.521713330">
        <ele>194.60</ele>
        <time>2014-02-23T08:12:27Z</time>
      </trkpt>
      <trkpt lat="41.615978420" lon="2.521670080">
        <ele>194.40</ele>
        <time>2014-02-23T08:12:28Z</time>
      </trkpt>
      <trkpt lat="41.615981770" lon="2.521628340">
        <ele>194.40</ele>
        <time>2014-02-23T08:12:29Z</time>
      </trkpt>
      <trkpt lat="41.615986800" lon="2.521590120">
        <ele>194.30</ele>
        <time>2014-02-23T08:12:30Z</time>
      </trkpt>
      <trkpt lat="41.615990150" lon="2.521551730">
        <ele>194.10</ele>
        <time>2014-02-23T08:12:31Z</time>
      </trkpt>
      <trkpt lat="41.615991660" lon="2.521513340">
        <ele>194.00</ele>
        <time>2014-02-23T08:12:32Z</time>
      </trkpt>
      <trkpt lat="41.615993340" lon="2.521475120">
        <ele>193.90</ele>
        <time>2014-02-23T08:12:33Z</time>
      </trkpt>
      <trkpt lat="41.615993340" lon="2.521438410">
        <ele>193.90</ele>
        <time>2014-02-23T08:12:34Z</time>
      </trkpt>
      <trkpt lat="41.615995010" lon="2.521405050">
        <ele>193.80</ele>
        <time>2014-02-23T08:12:35Z</time>
      </trkpt>
      <trkpt lat="41.615998370" lon="2.521370010">
        <ele>193.70</ele>
        <time>2014-02-23T08:12:36Z</time>
      </trkpt>
      <trkpt lat="41.615998370" lon="2.521335140">
        <ele>193.70</ele>
        <time>2014-02-23T08:12:37Z</time>
      </trkpt>
      <trkpt lat="41.616000040" lon="2.521301780">
        <ele>193.80</ele>
        <time>2014-02-23T08:12:38Z</time>
      </trkpt>
      <trkpt lat="41.616001720" lon="2.521263390">
        <ele>193.90</ele>
        <time>2014-02-23T08:12:39Z</time>
      </trkpt>
      <trkpt lat="41.616006750" lon="2.521223500">
        <ele>194.20</ele>
        <time>2014-02-23T08:12:40Z</time>
      </trkpt>
      <trkpt lat="41.616011780" lon="2.521183430">
        <ele>194.50</ele>
        <time>2014-02-23T08:12:41Z</time>
      </trkpt>
      <trkpt lat="41.616016810" lon="2.521145040">
        <ele>194.70</ele>
        <time>2014-02-23T08:12:42Z</time>
      </trkpt>
      <trkpt lat="41.616020160" lon="2.521105140">
        <ele>194.90</ele>
        <time>2014-02-23T08:12:43Z</time>
      </trkpt>
      <trkpt lat="41.616025020" lon="2.521066750">
        <ele>195.00</ele>
        <time>2014-02-23T08:12:44Z</time>
      </trkpt>
      <trkpt lat="41.616031730" lon="2.521030040">
        <ele>195.10</ele>
        <time>2014-02-23T08:12:45Z</time>
      </trkpt>
      <trkpt lat="41.616036760" lon="2.520995000">
        <ele>195.10</ele>
        <time>2014-02-23T08:12:46Z</time>
      </trkpt>
      <trkpt lat="41.616045140" lon="2.520958460">
        <ele>195.20</ele>
        <time>2014-02-23T08:12:47Z</time>
      </trkpt>
      <trkpt lat="41.616053350" lon="2.520923420">
        <ele>195.20</ele>
        <time>2014-02-23T08:12:48Z</time>
      </trkpt>
      <trkpt lat="41.616058380" lon="2.520885030">
        <ele>195.30</ele>
        <time>2014-02-23T08:12:49Z</time>
      </trkpt>
      <trkpt lat="41.616063410" lon="2.520848490">
        <ele>195.10</ele>
        <time>2014-02-23T08:12:50Z</time>
      </trkpt>
      <trkpt lat="41.616068440" lon="2.520810100">
        <ele>195.00</ele>
        <time>2014-02-23T08:12:51Z</time>
      </trkpt>
      <trkpt lat="41.616075150" lon="2.520771710">
        <ele>195.40</ele>
        <time>2014-02-23T08:12:52Z</time>
      </trkpt>
      <trkpt lat="41.616086710" lon="2.520733490">
        <ele>195.70</ele>
        <time>2014-02-23T08:12:53Z</time>
      </trkpt>
      <trkpt lat="41.616096770" lon="2.520696780">
        <ele>195.80</ele>
        <time>2014-02-23T08:12:54Z</time>
      </trkpt>
      <trkpt lat="41.616108340" lon="2.520660060">
        <ele>195.90</ele>
        <time>2014-02-23T08:12:55Z</time>
      </trkpt>
      <trkpt lat="41.616116720" lon="2.520623350">
        <ele>195.90</ele>
        <time>2014-02-23T08:12:56Z</time>
      </trkpt>
      <trkpt lat="41.616123430" lon="2.520588480">
        <ele>196.00</ele>
        <time>2014-02-23T08:12:57Z</time>
      </trkpt>
      <trkpt lat="41.616133480" lon="2.520553450">
        <ele>196.00</ele>
        <time>2014-02-23T08:12:58Z</time>
      </trkpt>
      <trkpt lat="41.616146730" lon="2.520520090">
        <ele>196.20</ele>
        <time>2014-02-23T08:12:59Z</time>
      </trkpt>
      <trkpt lat="41.616156790" lon="2.520486730">
        <ele>196.40</ele>
        <time>2014-02-23T08:13:00Z</time>
      </trkpt>
      <trkpt lat="41.616168350" lon="2.520453370">
        <ele>196.50</ele>
        <time>2014-02-23T08:13:01Z</time>
      </trkpt>
      <trkpt lat="41.616181760" lon="2.520420010">
        <ele>196.20</ele>
        <time>2014-02-23T08:13:02Z</time>
      </trkpt>
      <trkpt lat="41.616193330" lon="2.520385140">
        <ele>195.90</ele>
        <time>2014-02-23T08:13:03Z</time>
      </trkpt>
      <trkpt lat="41.616205070" lon="2.520351780">
        <ele>195.80</ele>
        <time>2014-02-23T08:13:04Z</time>
      </trkpt>
      <trkpt lat="41.616220150" lon="2.520320090">
        <ele>195.80</ele>
        <time>2014-02-23T08:13:05Z</time>
      </trkpt>
      <trkpt lat="41.616231720" lon="2.520288410">
        <ele>196.20</ele>
        <time>2014-02-23T08:13:06Z</time>
      </trkpt>
      <trkpt lat="41.616243450" lon="2.520258400">
        <ele>196.50</ele>
        <time>2014-02-23T08:13:07Z</time>
      </trkpt>
      <trkpt lat="41.616255020" lon="2.520226720">
        <ele>196.70</ele>
        <time>2014-02-23T08:13:08Z</time>
      </trkpt>
      <trkpt lat="41.616265080" lon="2.520191680">
        <ele>196.70</ele>
        <time>2014-02-23T08:13:09Z</time>
      </trkpt>
      <trkpt lat="41.616276810" lon="2.520158490">
        <ele>196.70</ele>
        <time>2014-02-23T08:13:10Z</time>
      </trkpt>
      <trkpt lat="41.616288380" lon="2.520125130">
        <ele>197.20</ele>
        <time>2014-02-23T08:13:11Z</time>
      </trkpt>
      <trkpt lat="41.616296760" lon="2.520093450">
        <ele>197.50</ele>
        <time>2014-02-23T08:13:12Z</time>
      </trkpt>
      <trkpt lat="41.616305150" lon="2.520061760">
        <ele>197.50</ele>
        <time>2014-02-23T08:13:13Z</time>
      </trkpt>
      <trkpt lat="41.616316710" lon="2.520028400">
        <ele>197.50</ele>
        <time>2014-02-23T08:13:14Z</time>
      </trkpt>
      <trkpt lat="41.616326770" lon="2.519998400">
        <ele>197.50</ele>
        <time>2014-02-23T08:13:15Z</time>
      </trkpt>
      <trkpt lat="41.616338340" lon="2.519966710">
        <ele>197.70</ele>
        <time>2014-02-23T08:13:16Z</time>
      </trkpt>
      <trkpt lat="41.616351750" lon="2.519933350">
        <ele>197.80</ele>
        <time>2014-02-23T08:13:17Z</time>
      </trkpt>
      <trkpt lat="41.616365160" lon="2.519896810">
        <ele>198.20</ele>
        <time>2014-02-23T08:13:18Z</time>
      </trkpt>
      <trkpt lat="41.616375050" lon="2.519858420">
        <ele>198.50</ele>
        <time>2014-02-23T08:13:19Z</time>
      </trkpt>
      <trkpt lat="41.616385110" lon="2.519820030">
        <ele>198.70</ele>
        <time>2014-02-23T08:13:20Z</time>
      </trkpt>
      <trkpt lat="41.616396680" lon="2.519783480">
        <ele>198.40</ele>
        <time>2014-02-23T08:13:21Z</time>
      </trkpt>
      <trkpt lat="41.616406730" lon="2.519748450">
        <ele>198.20</ele>
        <time>2014-02-23T08:13:22Z</time>
      </trkpt>
      <trkpt lat="41.616416790" lon="2.519711740">
        <ele>198.50</ele>
        <time>2014-02-23T08:13:23Z</time>
      </trkpt>
      <trkpt lat="41.616426680" lon="2.519675020">
        <ele>198.60</ele>
        <time>2014-02-23T08:13:24Z</time>
      </trkpt>
      <trkpt lat="41.616438420" lon="2.519640150">
        <ele>198.60</ele>
        <time>2014-02-23T08:13:25Z</time>
      </trkpt>
      <trkpt lat="41.616448480" lon="2.519605120">
        <ele>198.60</ele>
        <time>2014-02-23T08:13:26Z</time>
      </trkpt>
      <trkpt lat="41.616456690" lon="2.519570080">
        <ele>198.60</ele>
        <time>2014-02-23T08:13:27Z</time>
      </trkpt>
      <trkpt lat="41.616465070" lon="2.519533370">
        <ele>199.20</ele>
        <time>2014-02-23T08:13:28Z</time>
      </trkpt>
      <trkpt lat="41.616471780" lon="2.519495150">
        <ele>199.60</ele>
        <time>2014-02-23T08:13:29Z</time>
      </trkpt>
      <trkpt lat="41.616480160" lon="2.519458430">
        <ele>199.60</ele>
        <time>2014-02-23T08:13:30Z</time>
      </trkpt>
      <trkpt lat="41.616485020" lon="2.519421720">
        <ele>199.70</ele>
        <time>2014-02-23T08:13:31Z</time>
      </trkpt>
      <trkpt lat="41.616493400" lon="2.519383330">
        <ele>199.60</ele>
        <time>2014-02-23T08:13:32Z</time>
      </trkpt>
      <trkpt lat="41.616501780" lon="2.519348460">
        <ele>199.60</ele>
        <time>2014-02-23T08:13:33Z</time>
      </trkpt>
      <trkpt lat="41.616510000" lon="2.519311750">
        <ele>199.60</ele>
        <time>2014-02-23T08:13:34Z</time>
      </trkpt>
      <trkpt lat="41.616516700" lon="2.519276710">
        <ele>200.00</ele>
        <time>2014-02-23T08:13:35Z</time>
      </trkpt>
      <trkpt lat="41.616523410" lon="2.519240000">
        <ele>200.20</ele>
        <time>2014-02-23T08:13:36Z</time>
      </trkpt>
      <trkpt lat="41.616528440" lon="2.519201780">
        <ele>200.20</ele>
        <time>2014-02-23T08:13:37Z</time>
      </trkpt>
      <trkpt lat="41.616533470" lon="2.519168420">
        <ele>200.20</ele>
        <time>2014-02-23T08:13:38Z</time>
      </trkpt>
      <trkpt lat="41.616538330" lon="2.519131710">
        <ele>200.20</ele>
        <time>2014-02-23T08:13:39Z</time>
      </trkpt>
      <trkpt lat="41.616543360" lon="2.519095160">
        <ele>200.50</ele>
        <time>2014-02-23T08:13:40Z</time>
      </trkpt>
      <trkpt lat="41.616546710" lon="2.519056770">
        <ele>200.60</ele>
        <time>2014-02-23T08:13:41Z</time>
      </trkpt>
      <trkpt lat="41.616551740" lon="2.519021740">
        <ele>200.60</ele>
        <time>2014-02-23T08:13:42Z</time>
      </trkpt>
      <trkpt lat="41.616555090" lon="2.518983350">
        <ele>200.50</ele>
        <time>2014-02-23T08:13:43Z</time>
      </trkpt>
      <trkpt lat="41.616556770" lon="2.518945130">
        <ele>200.60</ele>
        <time>2014-02-23T08:13:44Z</time>
      </trkpt>
      <trkpt lat="41.616556770" lon="2.518908410">
        <ele>200.70</ele>
        <time>2014-02-23T08:13:45Z</time>
      </trkpt>
      <trkpt lat="41.616556770" lon="2.518870020">
        <ele>200.80</ele>
        <time>2014-02-23T08:13:46Z</time>
      </trkpt>
      <trkpt lat="41.616560120" lon="2.518831800">
        <ele>200.90</ele>
        <time>2014-02-23T08:13:47Z</time>
      </trkpt>
      <trkpt lat="41.616561800" lon="2.518793410">
        <ele>201.00</ele>
        <time>2014-02-23T08:13:48Z</time>
      </trkpt>
      <trkpt lat="41.616565150" lon="2.518755020">
        <ele>201.20</ele>
        <time>2014-02-23T08:13:49Z</time>
      </trkpt>
      <trkpt lat="41.616570010" lon="2.518718480">
        <ele>201.40</ele>
        <time>2014-02-23T08:13:50Z</time>
      </trkpt>
      <trkpt lat="41.616575040" lon="2.518680090">
        <ele>201.40</ele>
        <time>2014-02-23T08:13:51Z</time>
      </trkpt>
      <trkpt lat="41.616580070" lon="2.518643380">
        <ele>201.40</ele>
        <time>2014-02-23T08:13:52Z</time>
      </trkpt>
      <trkpt lat="41.616583420" lon="2.518606670">
        <ele>201.40</ele>
        <time>2014-02-23T08:13:53Z</time>
      </trkpt>
      <trkpt lat="41.616583420" lon="2.518573470">
        <ele>202.00</ele>
        <time>2014-02-23T08:13:54Z</time>
      </trkpt>
      <trkpt lat="41.616585100" lon="2.518541790">
        <ele>202.40</ele>
        <time>2014-02-23T08:13:55Z</time>
      </trkpt>
      <trkpt lat="41.616586780" lon="2.518510110">
        <ele>202.70</ele>
        <time>2014-02-23T08:13:56Z</time>
      </trkpt>
      <trkpt lat="41.616585100" lon="2.518478420">
        <ele>202.90</ele>
        <time>2014-02-23T08:13:57Z</time>
      </trkpt>
      <trkpt lat="41.616586780" lon="2.518441710">
        <ele>203.00</ele>
        <time>2014-02-23T08:13:58Z</time>
      </trkpt>
      <trkpt lat="41.616586780" lon="2.518405000">
        <ele>203.10</ele>
        <time>2014-02-23T08:13:59Z</time>
      </trkpt>
      <trkpt lat="41.616586780" lon="2.518368450">
        <ele>203.10</ele>
        <time>2014-02-23T08:14:00Z</time>
      </trkpt>
      <trkpt lat="41.616588450" lon="2.518333420">
        <ele>203.20</ele>
        <time>2014-02-23T08:14:01Z</time>
      </trkpt>
      <trkpt lat="41.616590130" lon="2.518296700">
        <ele>203.20</ele>
        <time>2014-02-23T08:14:02Z</time>
      </trkpt>
      <trkpt lat="41.616593480" lon="2.518261670">
        <ele>203.40</ele>
        <time>2014-02-23T08:14:03Z</time>
      </trkpt>
      <trkpt lat="41.616595160" lon="2.518225120">
        <ele>203.50</ele>
        <time>2014-02-23T08:14:04Z</time>
      </trkpt>
      <trkpt lat="41.616596670" lon="2.518188410">
        <ele>203.50</ele>
        <time>2014-02-23T08:14:05Z</time>
      </trkpt>
      <trkpt lat="41.616598340" lon="2.518153370">
        <ele>203.50</ele>
        <time>2014-02-23T08:14:06Z</time>
      </trkpt>
      <trkpt lat="41.616600020" lon="2.518116830">
        <ele>203.40</ele>
        <time>2014-02-23T08:14:07Z</time>
      </trkpt>
      <trkpt lat="41.616600020" lon="2.518081790">
        <ele>203.40</ele>
        <time>2014-02-23T08:14:08Z</time>
      </trkpt>
      <trkpt lat="41.616598340" lon="2.518045080">
        <ele>203.40</ele>
        <time>2014-02-23T08:14:09Z</time>
      </trkpt>
      <trkpt lat="41.616596670" lon="2.518010040">
        <ele>204.00</ele>
        <time>2014-02-23T08:14:10Z</time>
      </trkpt>
      <trkpt lat="41.616593480" lon="2.517976680">
        <ele>204.40</ele>
        <time>2014-02-23T08:14:11Z</time>
      </trkpt>
      <trkpt lat="41.616590130" lon="2.517943490">
        <ele>204.70</ele>
        <time>2014-02-23T08:14:12Z</time>
      </trkpt>
      <trkpt lat="41.616585100" lon="2.517910130">
        <ele>205.00</ele>
        <time>2014-02-23T08:14:13Z</time>
      </trkpt>
      <trkpt lat="41.616580070" lon="2.517880120">
        <ele>205.20</ele>
        <time>2014-02-23T08:14:14Z</time>
      </trkpt>
      <trkpt lat="41.616575040" lon="2.517850110">
        <ele>205.70</ele>
        <time>2014-02-23T08:14:15Z</time>
      </trkpt>
      <trkpt lat="41.616566830" lon="2.517823460">
        <ele>206.10</ele>
        <time>2014-02-23T08:14:16Z</time>
      </trkpt>
      <trkpt lat="41.616556770" lon="2.517793450">
        <ele>206.40</ele>
        <time>2014-02-23T08:14:17Z</time>
      </trkpt>
      <trkpt lat="41.616541680" lon="2.517763450">
        <ele>206.40</ele>
        <time>2014-02-23T08:14:18Z</time>
      </trkpt>
      <trkpt lat="41.616526760" lon="2.517733440">
        <ele>206.50</ele>
        <time>2014-02-23T08:14:19Z</time>
      </trkpt>
      <trkpt lat="41.616510000" lon="2.517706780">
        <ele>206.80</ele>
        <time>2014-02-23T08:14:20Z</time>
      </trkpt>
      <trkpt lat="41.616493400" lon="2.517680130">
        <ele>207.00</ele>
        <time>2014-02-23T08:14:21Z</time>
      </trkpt>
      <trkpt lat="41.616478480" lon="2.517651800">
        <ele>207.10</ele>
        <time>2014-02-23T08:14:22Z</time>
      </trkpt>
      <trkpt lat="41.616465070" lon="2.517623470">
        <ele>207.10</ele>
        <time>2014-02-23T08:14:23Z</time>
      </trkpt>
      <trkpt lat="41.616453340" lon="2.517593460">
        <ele>207.10</ele>
        <time>2014-02-23T08:14:24Z</time>
      </trkpt>
      <trkpt lat="41.616446800" lon="2.517563450">
        <ele>206.80</ele>
        <time>2014-02-23T08:14:25Z</time>
      </trkpt>
      <trkpt lat="41.616440090" lon="2.517530090">
        <ele>206.50</ele>
        <time>2014-02-23T08:14:26Z</time>
      </trkpt>
      <trkpt lat="41.616436740" lon="2.517496730">
        <ele>206.40</ele>
        <time>2014-02-23T08:14:27Z</time>
      </trkpt>
      <trkpt lat="41.616433390" lon="2.517461700">
        <ele>206.20</ele>
        <time>2014-02-23T08:14:28Z</time>
      </trkpt>
      <trkpt lat="41.616431710" lon="2.517425150">
        <ele>206.50</ele>
        <time>2014-02-23T08:14:29Z</time>
      </trkpt>
      <trkpt lat="41.616430040" lon="2.517388440">
        <ele>206.60</ele>
        <time>2014-02-23T08:14:30Z</time>
      </trkpt>
      <trkpt lat="41.616428360" lon="2.517353400">
        <ele>206.80</ele>
        <time>2014-02-23T08:14:31Z</time>
      </trkpt>
      <trkpt lat="41.616426680" lon="2.517316690">
        <ele>207.00</ele>
        <time>2014-02-23T08:14:32Z</time>
      </trkpt>
      <trkpt lat="41.616425010" lon="2.517281820">
        <ele>207.20</ele>
        <time>2014-02-23T08:14:33Z</time>
      </trkpt>
      <trkpt lat="41.616421820" lon="2.517245110">
        <ele>207.30</ele>
        <time>2014-02-23T08:14:34Z</time>
      </trkpt>
      <trkpt lat="41.616420140" lon="2.517208400">
        <ele>207.40</ele>
        <time>2014-02-23T08:14:35Z</time>
      </trkpt>
      <trkpt lat="41.616416790" lon="2.517173360">
        <ele>207.50</ele>
        <time>2014-02-23T08:14:36Z</time>
      </trkpt>
      <trkpt lat="41.616413440" lon="2.517136810">
        <ele>207.10</ele>
        <time>2014-02-23T08:14:37Z</time>
      </trkpt>
      <trkpt lat="41.616411760" lon="2.517098430">
        <ele>206.80</ele>
        <time>2014-02-23T08:14:38Z</time>
      </trkpt>
      <trkpt lat="41.616413440" lon="2.517058360">
        <ele>207.20</ele>
        <time>2014-02-23T08:14:39Z</time>
      </trkpt>
      <trkpt lat="41.616420140" lon="2.517020140">
        <ele>207.50</ele>
        <time>2014-02-23T08:14:40Z</time>
      </trkpt>
      <trkpt lat="41.616431710" lon="2.516983430">
        <ele>207.70</ele>
        <time>2014-02-23T08:14:41Z</time>
      </trkpt>
      <trkpt lat="41.616445120" lon="2.516945040">
        <ele>207.80</ele>
        <time>2014-02-23T08:14:42Z</time>
      </trkpt>
      <trkpt lat="41.616461720" lon="2.516910000">
        <ele>208.00</ele>
        <time>2014-02-23T08:14:43Z</time>
      </trkpt>
      <trkpt lat="41.616476810" lon="2.516878480">
        <ele>208.00</ele>
        <time>2014-02-23T08:14:44Z</time>
      </trkpt>
      <trkpt lat="41.616495080" lon="2.516846800">
        <ele>208.00</ele>
        <time>2014-02-23T08:14:45Z</time>
      </trkpt>
      <trkpt lat="41.616511680" lon="2.516815120">
        <ele>207.60</ele>
        <time>2014-02-23T08:14:46Z</time>
      </trkpt>
      <trkpt lat="41.616525090" lon="2.516783430">
        <ele>207.40</ele>
        <time>2014-02-23T08:14:47Z</time>
      </trkpt>
      <trkpt lat="41.616535140" lon="2.516748400">
        <ele>207.20</ele>
        <time>2014-02-23T08:14:48Z</time>
      </trkpt>
      <trkpt lat="41.616538330" lon="2.516713360">
        <ele>207.20</ele>
        <time>2014-02-23T08:14:49Z</time>
      </trkpt>
      <trkpt lat="41.616535140" lon="2.516680000">
        <ele>207.10</ele>
        <time>2014-02-23T08:14:50Z</time>
      </trkpt>
      <trkpt lat="41.616526760" lon="2.516643460">
        <ele>207.20</ele>
        <time>2014-02-23T08:14:51Z</time>
      </trkpt>
      <trkpt lat="41.616516700" lon="2.516606740">
        <ele>207.30</ele>
        <time>2014-02-23T08:14:52Z</time>
      </trkpt>
      <trkpt lat="41.616508490" lon="2.516571710">
        <ele>207.70</ele>
        <time>2014-02-23T08:14:53Z</time>
      </trkpt>
      <trkpt lat="41.616501780" lon="2.516535160">
        <ele>208.00</ele>
        <time>2014-02-23T08:14:54Z</time>
      </trkpt>
      <trkpt lat="41.616495080" lon="2.516498450">
        <ele>208.30</ele>
        <time>2014-02-23T08:14:55Z</time>
      </trkpt>
      <trkpt lat="41.616490050" lon="2.516460060">
        <ele>208.40</ele>
        <time>2014-02-23T08:14:56Z</time>
      </trkpt>
      <trkpt lat="41.616483340" lon="2.516423350">
        <ele>208.60</ele>
        <time>2014-02-23T08:14:57Z</time>
      </trkpt>
      <trkpt lat="41.616475130" lon="2.516390150">
        <ele>208.60</ele>
        <time>2014-02-23T08:14:58Z</time>
      </trkpt>
      <trkpt lat="41.616465070" lon="2.516356790">
        <ele>208.70</ele>
        <time>2014-02-23T08:14:59Z</time>
      </trkpt>
      <trkpt lat="41.616456690" lon="2.516320080">
        <ele>208.10</ele>
        <time>2014-02-23T08:15:00Z</time>
      </trkpt>
      <trkpt lat="41.616448480" lon="2.516286720">
        <ele>207.60</ele>
        <time>2014-02-23T08:15:01Z</time>
      </trkpt>
      <trkpt lat="41.616438420" lon="2.516251690">
        <ele>207.30</ele>
        <time>2014-02-23T08:15:02Z</time>
      </trkpt>
      <trkpt lat="41.616430040" lon="2.516218490">
        <ele>207.50</ele>
        <time>2014-02-23T08:15:03Z</time>
      </trkpt>
      <trkpt lat="41.616420140" lon="2.516185130">
        <ele>207.70</ele>
        <time>2014-02-23T08:15:04Z</time>
      </trkpt>
      <trkpt lat="41.616410090" lon="2.516153450">
        <ele>207.90</ele>
        <time>2014-02-23T08:15:05Z</time>
      </trkpt>
      <trkpt lat="41.616403380" lon="2.516120090">
        <ele>208.10</ele>
        <time>2014-02-23T08:15:06Z</time>
      </trkpt>
      <trkpt lat="41.616398350" lon="2.516088410">
        <ele>208.30</ele>
        <time>2014-02-23T08:15:07Z</time>
      </trkpt>
      <trkpt lat="41.616400030" lon="2.516053370">
        <ele>208.50</ele>
        <time>2014-02-23T08:15:08Z</time>
      </trkpt>
      <trkpt lat="41.616400030" lon="2.516015150">
        <ele>208.60</ele>
        <time>2014-02-23T08:15:09Z</time>
      </trkpt>
      <trkpt lat="41.616398350" lon="2.515976760">
        <ele>208.90</ele>
        <time>2014-02-23T08:15:10Z</time>
      </trkpt>
      <trkpt lat="41.616405060" lon="2.515938370">
        <ele>209.10</ele>
        <time>2014-02-23T08:15:11Z</time>
      </trkpt>
      <trkpt lat="41.616408410" lon="2.515900150">
        <ele>209.00</ele>
        <time>2014-02-23T08:15:12Z</time>
      </trkpt>
      <trkpt lat="41.616411760" lon="2.515861760">
        <ele>208.90</ele>
        <time>2014-02-23T08:15:13Z</time>
      </trkpt>
      <trkpt lat="41.616418470" lon="2.515825050">
        <ele>208.80</ele>
        <time>2014-02-23T08:15:14Z</time>
      </trkpt>
      <trkpt lat="41.616421820" lon="2.515788330">
        <ele>209.30</ele>
        <time>2014-02-23T08:15:15Z</time>
      </trkpt>
      <trkpt lat="41.616430040" lon="2.515750110">
        <ele>209.60</ele>
        <time>2014-02-23T08:15:16Z</time>
      </trkpt>
      <trkpt lat="41.616438420" lon="2.515711720">
        <ele>209.50</ele>
        <time>2014-02-23T08:15:17Z</time>
      </trkpt>
      <trkpt lat="41.616446800" lon="2.515673330">
        <ele>209.50</ele>
        <time>2014-02-23T08:15:18Z</time>
      </trkpt>
      <trkpt lat="41.616455010" lon="2.515636790">
        <ele>209.50</ele>
        <time>2014-02-23T08:15:19Z</time>
      </trkpt>
      <trkpt lat="41.616465070" lon="2.515600080">
        <ele>209.50</ele>
        <time>2014-02-23T08:15:20Z</time>
      </trkpt>
      <trkpt lat="41.616473450" lon="2.515565040">
        <ele>209.50</ele>
        <time>2014-02-23T08:15:21Z</time>
      </trkpt>
      <trkpt lat="41.616483340" lon="2.515530000">
        <ele>209.70</ele>
        <time>2014-02-23T08:15:22Z</time>
      </trkpt>
      <trkpt lat="41.616493400" lon="2.515498490">
        <ele>209.90</ele>
        <time>2014-02-23T08:15:23Z</time>
      </trkpt>
      <trkpt lat="41.616505140" lon="2.515468480">
        <ele>209.70</ele>
        <time>2014-02-23T08:15:24Z</time>
      </trkpt>
      <trkpt lat="41.616520060" lon="2.515440150">
        <ele>209.50</ele>
        <time>2014-02-23T08:15:25Z</time>
      </trkpt>
      <trkpt lat="41.616531790" lon="2.515408470">
        <ele>209.70</ele>
        <time>2014-02-23T08:15:26Z</time>
      </trkpt>
      <trkpt lat="41.616543360" lon="2.515378460">
        <ele>209.80</ele>
        <time>2014-02-23T08:15:27Z</time>
      </trkpt>
      <trkpt lat="41.616553420" lon="2.515346780">
        <ele>210.00</ele>
        <time>2014-02-23T08:15:28Z</time>
      </trkpt>
      <trkpt lat="41.616566830" lon="2.515313420">
        <ele>210.00</ele>
        <time>2014-02-23T08:15:29Z</time>
      </trkpt>
      <trkpt lat="41.616576720" lon="2.515280060">
        <ele>210.00</ele>
        <time>2014-02-23T08:15:30Z</time>
      </trkpt>
      <trkpt lat="41.616583420" lon="2.515243340">
        <ele>210.10</ele>
        <time>2014-02-23T08:15:31Z</time>
      </trkpt>
      <trkpt lat="41.616593480" lon="2.515208470">
        <ele>210.10</ele>
        <time>2014-02-23T08:15:32Z</time>
      </trkpt>
      <trkpt lat="41.616598340" lon="2.515171760">
        <ele>210.20</ele>
        <time>2014-02-23T08:15:33Z</time>
      </trkpt>
      <trkpt lat="41.616605050" lon="2.515138400">
        <ele>210.50</ele>
        <time>2014-02-23T08:15:34Z</time>
      </trkpt>
      <trkpt lat="41.616611760" lon="2.515105040">
        <ele>210.70</ele>
        <time>2014-02-23T08:15:35Z</time>
      </trkpt>
      <trkpt lat="41.616626670" lon="2.515075030">
        <ele>210.70</ele>
        <time>2014-02-23T08:15:36Z</time>
      </trkpt>
      <trkpt lat="41.616640090" lon="2.515048380">
        <ele>210.70</ele>
        <time>2014-02-23T08:15:37Z</time>
      </trkpt>
      <trkpt lat="41.616656680" lon="2.515023400">
        <ele>210.90</ele>
        <time>2014-02-23T08:15:38Z</time>
      </trkpt>
      <trkpt lat="41.616670090" lon="2.514995070">
        <ele>211.20</ele>
        <time>2014-02-23T08:15:39Z</time>
      </trkpt>
      <trkpt lat="41.616681830" lon="2.514965060">
        <ele>211.30</ele>
        <time>2014-02-23T08:15:40Z</time>
      </trkpt>
      <trkpt lat="41.616695070" lon="2.514935060">
        <ele>211.40</ele>
        <time>2014-02-23T08:15:41Z</time>
      </trkpt>
      <trkpt lat="41.616706810" lon="2.514906730">
        <ele>211.40</ele>
        <time>2014-02-23T08:15:42Z</time>
      </trkpt>
      <trkpt lat="41.616720050" lon="2.514876720">
        <ele>211.70</ele>
        <time>2014-02-23T08:15:43Z</time>
      </trkpt>
      <trkpt lat="41.616728430" lon="2.514845030">
        <ele>211.90</ele>
        <time>2014-02-23T08:15:44Z</time>
      </trkpt>
      <trkpt lat="41.616735140" lon="2.514820060">
        <ele>212.20</ele>
        <time>2014-02-23T08:15:45Z</time>
      </trkpt>
      <trkpt lat="41.616736810" lon="2.514795080">
        <ele>212.50</ele>
        <time>2014-02-23T08:15:46Z</time>
      </trkpt>
      <trkpt lat="41.616738490" lon="2.514766750">
        <ele>212.70</ele>
        <time>2014-02-23T08:15:47Z</time>
      </trkpt>
      <trkpt lat="41.616746700" lon="2.514741770">
        <ele>212.90</ele>
        <time>2014-02-23T08:15:48Z</time>
      </trkpt>
      <trkpt lat="41.616755090" lon="2.514723330">
        <ele>213.00</ele>
        <time>2014-02-23T08:15:49Z</time>
      </trkpt>
      <trkpt lat="41.616771680" lon="2.514711760">
        <ele>213.10</ele>
        <time>2014-02-23T08:15:50Z</time>
      </trkpt>
      <trkpt lat="41.616788450" lon="2.514706730">
        <ele>213.10</ele>
        <time>2014-02-23T08:15:51Z</time>
      </trkpt>
      <trkpt lat="41.616801690" lon="2.514710090">
        <ele>213.00</ele>
        <time>2014-02-23T08:15:52Z</time>
      </trkpt>
      <trkpt lat="41.616811750" lon="2.514711760">
        <ele>212.90</ele>
        <time>2014-02-23T08:15:53Z</time>
      </trkpt>
      <trkpt lat="41.616821810" lon="2.514713440">
        <ele>212.80</ele>
        <time>2014-02-23T08:15:54Z</time>
      </trkpt>
      <trkpt lat="41.616835050" lon="2.514710090">
        <ele>213.20</ele>
        <time>2014-02-23T08:15:55Z</time>
      </trkpt>
      <trkpt lat="41.616851810" lon="2.514703380">
        <ele>213.60</ele>
        <time>2014-02-23T08:15:56Z</time>
      </trkpt>
      <trkpt lat="41.616868410" lon="2.514700030">
        <ele>213.80</ele>
        <time>2014-02-23T08:15:57Z</time>
      </trkpt>
      <trkpt lat="41.616883330" lon="2.514695000">
        <ele>214.00</ele>
        <time>2014-02-23T08:15:58Z</time>
      </trkpt>
      <trkpt lat="41.616891710" lon="2.514671700">
        <ele>214.10</ele>
        <time>2014-02-23T08:15:59Z</time>
      </trkpt>
      <trkpt lat="41.616896740" lon="2.514638340">
        <ele>213.70</ele>
        <time>2014-02-23T08:16:00Z</time>
      </trkpt>
      <trkpt lat="41.616900090" lon="2.514603470">
        <ele>213.40</ele>
        <time>2014-02-23T08:16:01Z</time>
      </trkpt>
      <trkpt lat="41.616898420" lon="2.514566760">
        <ele>213.70</ele>
        <time>2014-02-23T08:16:02Z</time>
      </trkpt>
      <trkpt lat="41.616898420" lon="2.514530040">
        <ele>214.00</ele>
        <time>2014-02-23T08:16:03Z</time>
      </trkpt>
      <trkpt lat="41.616900090" lon="2.514495010">
        <ele>214.20</ele>
        <time>2014-02-23T08:16:04Z</time>
      </trkpt>
      <trkpt lat="41.616901770" lon="2.514460140">
        <ele>214.40</ele>
        <time>2014-02-23T08:16:05Z</time>
      </trkpt>
      <trkpt lat="41.616901770" lon="2.514426780">
        <ele>214.50</ele>
        <time>2014-02-23T08:16:06Z</time>
      </trkpt>
      <trkpt lat="41.616900090" lon="2.514391740">
        <ele>214.30</ele>
        <time>2014-02-23T08:16:07Z</time>
      </trkpt>
      <trkpt lat="41.616900090" lon="2.514356710">
        <ele>214.20</ele>
        <time>2014-02-23T08:16:08Z</time>
      </trkpt>
      <trkpt lat="41.616901770" lon="2.514323350">
        <ele>214.10</ele>
        <time>2014-02-23T08:16:09Z</time>
      </trkpt>
      <trkpt lat="41.616903450" lon="2.514288480">
        <ele>214.00</ele>
        <time>2014-02-23T08:16:10Z</time>
      </trkpt>
      <trkpt lat="41.616905120" lon="2.514255120">
        <ele>213.90</ele>
        <time>2014-02-23T08:16:11Z</time>
      </trkpt>
      <trkpt lat="41.616908470" lon="2.514220080">
        <ele>214.20</ele>
        <time>2014-02-23T08:16:12Z</time>
      </trkpt>
      <trkpt lat="41.616908470" lon="2.514188400">
        <ele>214.50</ele>
        <time>2014-02-23T08:16:13Z</time>
      </trkpt>
      <trkpt lat="41.616906800" lon="2.514155040">
        <ele>215.00</ele>
        <time>2014-02-23T08:16:14Z</time>
      </trkpt>
      <trkpt lat="41.616908470" lon="2.514121680">
        <ele>215.40</ele>
        <time>2014-02-23T08:16:15Z</time>
      </trkpt>
      <trkpt lat="41.616911830" lon="2.514088480">
        <ele>215.40</ele>
        <time>2014-02-23T08:16:16Z</time>
      </trkpt>
      <trkpt lat="41.616913340" lon="2.514055120">
        <ele>215.40</ele>
        <time>2014-02-23T08:16:17Z</time>
      </trkpt>
      <trkpt lat="41.616915010" lon="2.514021760">
        <ele>215.40</ele>
        <time>2014-02-23T08:16:18Z</time>
      </trkpt>
      <trkpt lat="41.616915010" lon="2.513988400">
        <ele>215.30</ele>
        <time>2014-02-23T08:16:19Z</time>
      </trkpt>
      <trkpt lat="41.616913340" lon="2.513958400">
        <ele>215.30</ele>
        <time>2014-02-23T08:16:20Z</time>
      </trkpt>
      <trkpt lat="41.616911830" lon="2.513925040">
        <ele>215.40</ele>
        <time>2014-02-23T08:16:21Z</time>
      </trkpt>
      <trkpt lat="41.616910150" lon="2.513893350">
        <ele>215.50</ele>
        <time>2014-02-23T08:16:22Z</time>
      </trkpt>
      <trkpt lat="41.616908470" lon="2.513858480">
        <ele>215.70</ele>
        <time>2014-02-23T08:16:23Z</time>
      </trkpt>
      <trkpt lat="41.616906800" lon="2.513825120">
        <ele>215.80</ele>
        <time>2014-02-23T08:16:24Z</time>
      </trkpt>
      <trkpt lat="41.616906800" lon="2.513793440">
        <ele>216.00</ele>
        <time>2014-02-23T08:16:25Z</time>
      </trkpt>
      <trkpt lat="41.616908470" lon="2.513760080">
        <ele>216.00</ele>
        <time>2014-02-23T08:16:26Z</time>
      </trkpt>
      <trkpt lat="41.616908470" lon="2.513726720">
        <ele>216.10</ele>
        <time>2014-02-23T08:16:27Z</time>
      </trkpt>
      <trkpt lat="41.616906800" lon="2.513691680">
        <ele>216.10</ele>
        <time>2014-02-23T08:16:28Z</time>
      </trkpt>
      <trkpt lat="41.616903450" lon="2.513658490">
        <ele>216.20</ele>
        <time>2014-02-23T08:16:29Z</time>
      </trkpt>
      <trkpt lat="41.616903450" lon="2.513626810">
        <ele>216.50</ele>
        <time>2014-02-23T08:16:30Z</time>
      </trkpt>
      <trkpt lat="41.616900090" lon="2.513595130">
        <ele>216.80</ele>
        <time>2014-02-23T08:16:31Z</time>
      </trkpt>
      <trkpt lat="41.616900090" lon="2.513561770">
        <ele>217.00</ele>
        <time>2014-02-23T08:16:32Z</time>
      </trkpt>
      <trkpt lat="41.616901770" lon="2.513528410">
        <ele>217.10</ele>
        <time>2014-02-23T08:16:33Z</time>
      </trkpt>
      <trkpt lat="41.616901770" lon="2.513496720">
        <ele>217.20</ele>
        <time>2014-02-23T08:16:34Z</time>
      </trkpt>
      <trkpt lat="41.616900090" lon="2.513463360">
        <ele>217.50</ele>
        <time>2014-02-23T08:16:35Z</time>
      </trkpt>
      <trkpt lat="41.616901770" lon="2.513431680">
        <ele>217.80</ele>
        <time>2014-02-23T08:16:36Z</time>
      </trkpt>
      <trkpt lat="41.616901770" lon="2.513398490">
        <ele>217.90</ele>
        <time>2014-02-23T08:16:37Z</time>
      </trkpt>
      <trkpt lat="41.616903450" lon="2.513363450">
        <ele>218.20</ele>
        <time>2014-02-23T08:16:38Z</time>
      </trkpt>
      <trkpt lat="41.616903450" lon="2.513330090">
        <ele>218.40</ele>
        <time>2014-02-23T08:16:39Z</time>
      </trkpt>
      <trkpt lat="41.616901770" lon="2.513296730">
        <ele>218.60</ele>
        <time>2014-02-23T08:16:40Z</time>
      </trkpt>
      <trkpt lat="41.616903450" lon="2.513263370">
        <ele>218.70</ele>
        <time>2014-02-23T08:16:41Z</time>
      </trkpt>
      <trkpt lat="41.616905120" lon="2.513231690">
        <ele>218.60</ele>
        <time>2014-02-23T08:16:42Z</time>
      </trkpt>
      <trkpt lat="41.616905120" lon="2.513198490">
        <ele>218.50</ele>
        <time>2014-02-23T08:16:43Z</time>
      </trkpt>
      <trkpt lat="41.616906800" lon="2.513165130">
        <ele>218.50</ele>
        <time>2014-02-23T08:16:44Z</time>
      </trkpt>
      <trkpt lat="41.616906800" lon="2.513131770">
        <ele>218.40</ele>
        <time>2014-02-23T08:16:45Z</time>
      </trkpt>
      <trkpt lat="41.616905120" lon="2.513100090">
        <ele>218.40</ele>
        <time>2014-02-23T08:16:46Z</time>
      </trkpt>
      <trkpt lat="41.616903450" lon="2.513066730">
        <ele>218.30</ele>
        <time>2014-02-23T08:16:47Z</time>
      </trkpt>
      <trkpt lat="41.616901770" lon="2.513035050">
        <ele>218.20</ele>
        <time>2014-02-23T08:16:48Z</time>
      </trkpt>
      <trkpt lat="41.616898420" lon="2.513001690">
        <ele>218.20</ele>
        <time>2014-02-23T08:16:49Z</time>
      </trkpt>
      <trkpt lat="41.616895060" lon="2.512968490">
        <ele>218.10</ele>
        <time>2014-02-23T08:16:50Z</time>
      </trkpt>
      <trkpt lat="41.616891710" lon="2.512938490">
        <ele>218.10</ele>
        <time>2014-02-23T08:16:51Z</time>
      </trkpt>
      <trkpt lat="41.616886680" lon="2.512905130">
        <ele>218.70</ele>
        <time>2014-02-23T08:16:52Z</time>
      </trkpt>
      <trkpt lat="41.616883330" lon="2.512871770">
        <ele>219.10</ele>
        <time>2014-02-23T08:16:53Z</time>
      </trkpt>
      <trkpt lat="41.616878470" lon="2.512836730">
        <ele>219.10</ele>
        <time>2014-02-23T08:16:54Z</time>
      </trkpt>
      <trkpt lat="41.616875110" lon="2.512803370">
        <ele>219.10</ele>
        <time>2014-02-23T08:16:55Z</time>
      </trkpt>
      <trkpt lat="41.616870090" lon="2.512770010">
        <ele>219.10</ele>
        <time>2014-02-23T08:16:56Z</time>
      </trkpt>
      <trkpt lat="41.616865060" lon="2.512738490">
        <ele>219.00</ele>
        <time>2014-02-23T08:16:57Z</time>
      </trkpt>
      <trkpt lat="41.616861700" lon="2.512706810">
        <ele>218.90</ele>
        <time>2014-02-23T08:16:58Z</time>
      </trkpt>
      <trkpt lat="41.616856670" lon="2.512676800">
        <ele>219.10</ele>
        <time>2014-02-23T08:16:59Z</time>
      </trkpt>
      <trkpt lat="41.616848460" lon="2.512646800">
        <ele>219.30</ele>
        <time>2014-02-23T08:17:00Z</time>
      </trkpt>
      <trkpt lat="41.616841750" lon="2.512616790">
        <ele>219.50</ele>
        <time>2014-02-23T08:17:01Z</time>
      </trkpt>
      <trkpt lat="41.616833370" lon="2.512585110">
        <ele>219.70</ele>
        <time>2014-02-23T08:17:02Z</time>
      </trkpt>
      <trkpt lat="41.616825160" lon="2.512551750">
        <ele>219.80</ele>
        <time>2014-02-23T08:17:03Z</time>
      </trkpt>
      <trkpt lat="41.616816780" lon="2.512518390">
        <ele>219.80</ele>
        <time>2014-02-23T08:17:04Z</time>
      </trkpt>
      <trkpt lat="41.616806720" lon="2.512485030">
        <ele>219.80</ele>
        <time>2014-02-23T08:17:05Z</time>
      </trkpt>
      <trkpt lat="41.616796830" lon="2.512451670">
        <ele>219.70</ele>
        <time>2014-02-23T08:17:06Z</time>
      </trkpt>
      <trkpt lat="41.616786770" lon="2.512420150">
        <ele>219.60</ele>
        <time>2014-02-23T08:17:07Z</time>
      </trkpt>
      <trkpt lat="41.616775030" lon="2.512388470">
        <ele>219.70</ele>
        <time>2014-02-23T08:17:08Z</time>
      </trkpt>
      <trkpt lat="41.616766820" lon="2.512358460">
        <ele>219.80</ele>
        <time>2014-02-23T08:17:09Z</time>
      </trkpt>
      <trkpt lat="41.616755090" lon="2.512330130">
        <ele>219.90</ele>
        <time>2014-02-23T08:17:10Z</time>
      </trkpt>
      <trkpt lat="41.616743350" lon="2.512301800">
        <ele>220.10</ele>
        <time>2014-02-23T08:17:11Z</time>
      </trkpt>
      <trkpt lat="41.616736810" lon="2.512275140">
        <ele>220.30</ele>
        <time>2014-02-23T08:17:12Z</time>
      </trkpt>
      <trkpt lat="41.616730110" lon="2.512251670">
        <ele>220.30</ele>
        <time>2014-02-23T08:17:13Z</time>
      </trkpt>
      <trkpt lat="41.616723400" lon="2.512226700">
        <ele>220.30</ele>
        <time>2014-02-23T08:17:14Z</time>
      </trkpt>
      <trkpt lat="41.616710160" lon="2.512200040">
        <ele>220.40</ele>
        <time>2014-02-23T08:17:15Z</time>
      </trkpt>
      <trkpt lat="41.616691720" lon="2.512175060">
        <ele>220.60</ele>
        <time>2014-02-23T08:17:16Z</time>
      </trkpt>
      <trkpt lat="41.616678480" lon="2.512148410">
        <ele>220.80</ele>
        <time>2014-02-23T08:17:17Z</time>
      </trkpt>
      <trkpt lat="41.616666740" lon="2.512123430">
        <ele>220.80</ele>
        <time>2014-02-23T08:17:18Z</time>
      </trkpt>
      <trkpt lat="41.616656680" lon="2.512098450">
        <ele>220.80</ele>
        <time>2014-02-23T08:17:19Z</time>
      </trkpt>
      <trkpt lat="41.616643440" lon="2.512073470">
        <ele>221.10</ele>
        <time>2014-02-23T08:17:20Z</time>
      </trkpt>
      <trkpt lat="41.616630030" lon="2.512045140">
        <ele>221.30</ele>
        <time>2014-02-23T08:17:21Z</time>
      </trkpt>
      <trkpt lat="41.616616780" lon="2.512016810">
        <ele>221.50</ele>
        <time>2014-02-23T08:17:22Z</time>
      </trkpt>
      <trkpt lat="41.616603370" lon="2.511988480">
        <ele>221.80</ele>
        <time>2014-02-23T08:17:23Z</time>
      </trkpt>
      <trkpt lat="41.616590130" lon="2.511960150">
        <ele>222.00</ele>
        <time>2014-02-23T08:17:24Z</time>
      </trkpt>
      <trkpt lat="41.616580070" lon="2.511933330">
        <ele>222.20</ele>
        <time>2014-02-23T08:17:25Z</time>
      </trkpt>
      <trkpt lat="41.616570010" lon="2.511906670">
        <ele>222.30</ele>
        <time>2014-02-23T08:17:26Z</time>
      </trkpt>
      <trkpt lat="41.616556770" lon="2.511878340">
        <ele>222.40</ele>
        <time>2014-02-23T08:17:27Z</time>
      </trkpt>
      <trkpt lat="41.616541680" lon="2.511850010">
        <ele>222.50</ele>
        <time>2014-02-23T08:17:28Z</time>
      </trkpt>
      <trkpt lat="41.616526760" lon="2.511821680">
        <ele>222.60</ele>
        <time>2014-02-23T08:17:29Z</time>
      </trkpt>
      <trkpt lat="41.616510000" lon="2.511793350">
        <ele>222.60</ele>
        <time>2014-02-23T08:17:30Z</time>
      </trkpt>
      <trkpt lat="41.616495080" lon="2.511765020">
        <ele>222.60</ele>
        <time>2014-02-23T08:17:31Z</time>
      </trkpt>
      <trkpt lat="41.616481670" lon="2.511735010">
        <ele>222.70</ele>
        <time>2014-02-23T08:17:32Z</time>
      </trkpt>
      <trkpt lat="41.616468420" lon="2.511706680">
        <ele>222.90</ele>
        <time>2014-02-23T08:17:33Z</time>
      </trkpt>
      <trkpt lat="41.616461720" lon="2.511678350">
        <ele>222.90</ele>
        <time>2014-02-23T08:17:34Z</time>
      </trkpt>
      <trkpt lat="41.616456690" lon="2.511645160">
        <ele>223.30</ele>
        <time>2014-02-23T08:17:35Z</time>
      </trkpt>
      <trkpt lat="41.616450150" lon="2.511610120">
        <ele>223.50</ele>
        <time>2014-02-23T08:17:36Z</time>
      </trkpt>
      <trkpt lat="41.616445120" lon="2.511573410">
        <ele>223.50</ele>
        <time>2014-02-23T08:17:37Z</time>
      </trkpt>
      <trkpt lat="41.616441770" lon="2.511535020">
        <ele>223.50</ele>
        <time>2014-02-23T08:17:38Z</time>
      </trkpt>
      <trkpt lat="41.616435060" lon="2.511493450">
        <ele>223.20</ele>
        <time>2014-02-23T08:17:39Z</time>
      </trkpt>
      <trkpt lat="41.616430040" lon="2.511450030">
        <ele>223.00</ele>
        <time>2014-02-23T08:17:40Z</time>
      </trkpt>
      <trkpt lat="41.616430040" lon="2.511411810">
        <ele>222.90</ele>
        <time>2014-02-23T08:17:41Z</time>
      </trkpt>
      <trkpt lat="41.616423330" lon="2.511383480">
        <ele>223.30</ele>
        <time>2014-02-23T08:17:42Z</time>
      </trkpt>
      <trkpt lat="41.616413440" lon="2.511346760">
        <ele>223.60</ele>
        <time>2014-02-23T08:17:43Z</time>
      </trkpt>
      <trkpt lat="41.616410090" lon="2.511315080">
        <ele>223.30</ele>
        <time>2014-02-23T08:17:44Z</time>
      </trkpt>
      <trkpt lat="41.616411760" lon="2.511281720">
        <ele>223.00</ele>
        <time>2014-02-23T08:17:45Z</time>
      </trkpt>
      <trkpt lat="41.616415120" lon="2.511248360">
        <ele>223.50</ele>
        <time>2014-02-23T08:17:46Z</time>
      </trkpt>
      <trkpt lat="41.616416790" lon="2.511213490">
        <ele>223.80</ele>
        <time>2014-02-23T08:17:47Z</time>
      </trkpt>
      <trkpt lat="41.616420140" lon="2.511173430">
        <ele>224.00</ele>
        <time>2014-02-23T08:17:48Z</time>
      </trkpt>
      <trkpt lat="41.616423330" lon="2.511133360">
        <ele>224.60</ele>
        <time>2014-02-23T08:17:49Z</time>
      </trkpt>
      <trkpt lat="41.616430040" lon="2.511095140">
        <ele>225.10</ele>
        <time>2014-02-23T08:17:50Z</time>
      </trkpt>
      <trkpt lat="41.616438420" lon="2.511060100">
        <ele>225.40</ele>
        <time>2014-02-23T08:17:51Z</time>
      </trkpt>
      <trkpt lat="41.616445120" lon="2.511026740">
        <ele>225.70</ele>
        <time>2014-02-23T08:17:52Z</time>
      </trkpt>
      <trkpt lat="41.616451830" lon="2.510993380">
        <ele>225.90</ele>
        <time>2014-02-23T08:17:53Z</time>
      </trkpt>
      <trkpt lat="41.616458370" lon="2.510958350">
        <ele>225.80</ele>
        <time>2014-02-23T08:17:54Z</time>
      </trkpt>
      <trkpt lat="41.616465070" lon="2.510923480">
        <ele>225.70</ele>
        <time>2014-02-23T08:17:55Z</time>
      </trkpt>
      <trkpt lat="41.616473450" lon="2.510890120">
        <ele>225.50</ele>
        <time>2014-02-23T08:17:56Z</time>
      </trkpt>
      <trkpt lat="41.616483340" lon="2.510858430">
        <ele>225.40</ele>
        <time>2014-02-23T08:17:57Z</time>
      </trkpt>
      <trkpt lat="41.616495080" lon="2.510828430">
        <ele>225.70</ele>
        <time>2014-02-23T08:17:58Z</time>
      </trkpt>
      <trkpt lat="41.616508490" lon="2.510801770">
        <ele>225.90</ele>
        <time>2014-02-23T08:17:59Z</time>
      </trkpt>
      <trkpt lat="41.616525090" lon="2.510776790">
        <ele>226.10</ele>
        <time>2014-02-23T08:18:00Z</time>
      </trkpt>
      <trkpt lat="41.616540010" lon="2.510751820">
        <ele>226.30</ele>
        <time>2014-02-23T08:18:01Z</time>
      </trkpt>
      <trkpt lat="41.616555090" lon="2.510728350">
        <ele>226.50</ele>
        <time>2014-02-23T08:18:02Z</time>
      </trkpt>
      <trkpt lat="41.616568340" lon="2.510706720">
        <ele>227.00</ele>
        <time>2014-02-23T08:18:03Z</time>
      </trkpt>
      <trkpt lat="41.616581750" lon="2.510688450">
        <ele>227.40</ele>
        <time>2014-02-23T08:18:04Z</time>
      </trkpt>
      <trkpt lat="41.616595160" lon="2.510670010">
        <ele>227.70</ele>
        <time>2014-02-23T08:18:05Z</time>
      </trkpt>
      <trkpt lat="41.616608400" lon="2.510653410">
        <ele>228.00</ele>
        <time>2014-02-23T08:18:06Z</time>
      </trkpt>
      <trkpt lat="41.616621810" lon="2.510635140">
        <ele>228.30</ele>
        <time>2014-02-23T08:18:07Z</time>
      </trkpt>
      <trkpt lat="41.616635060" lon="2.510615020">
        <ele>228.50</ele>
        <time>2014-02-23T08:18:08Z</time>
      </trkpt>
      <trkpt lat="41.616646790" lon="2.510595070">
        <ele>228.70</ele>
        <time>2014-02-23T08:18:09Z</time>
      </trkpt>
      <trkpt lat="41.616655010" lon="2.510573450">
        <ele>228.70</ele>
        <time>2014-02-23T08:18:10Z</time>
      </trkpt>
      <trkpt lat="41.616663390" lon="2.510553330">
        <ele>228.70</ele>
        <time>2014-02-23T08:18:11Z</time>
      </trkpt>
      <trkpt lat="41.616671770" lon="2.510531710">
        <ele>228.70</ele>
        <time>2014-02-23T08:18:12Z</time>
      </trkpt>
      <trkpt lat="41.616680150" lon="2.510511760">
        <ele>229.00</ele>
        <time>2014-02-23T08:18:13Z</time>
      </trkpt>
      <trkpt lat="41.616690040" lon="2.510491810">
        <ele>229.30</ele>
        <time>2014-02-23T08:18:14Z</time>
      </trkpt>
      <trkpt lat="41.616698420" lon="2.510470020">
        <ele>229.70</ele>
        <time>2014-02-23T08:18:15Z</time>
      </trkpt>
      <trkpt lat="41.616705130" lon="2.510448390">
        <ele>230.00</ele>
        <time>2014-02-23T08:18:16Z</time>
      </trkpt>
      <trkpt lat="41.616713340" lon="2.510425090">
        <ele>230.50</ele>
        <time>2014-02-23T08:18:17Z</time>
      </trkpt>
      <trkpt lat="41.616720050" lon="2.510403460">
        <ele>230.80</ele>
        <time>2014-02-23T08:18:18Z</time>
      </trkpt>
      <trkpt lat="41.616728430" lon="2.510380160">
        <ele>231.10</ele>
        <time>2014-02-23T08:18:19Z</time>
      </trkpt>
      <trkpt lat="41.616731780" lon="2.510356690">
        <ele>231.50</ele>
        <time>2014-02-23T08:18:20Z</time>
      </trkpt>
      <trkpt lat="41.616736810" lon="2.510331720">
        <ele>231.90</ele>
        <time>2014-02-23T08:18:21Z</time>
      </trkpt>
      <trkpt lat="41.616740000" lon="2.510308410">
        <ele>231.90</ele>
        <time>2014-02-23T08:18:22Z</time>
      </trkpt>
      <trkpt lat="41.616745030" lon="2.510285110">
        <ele>231.90</ele>
        <time>2014-02-23T08:18:23Z</time>
      </trkpt>
      <trkpt lat="41.616746700" lon="2.510260130">
        <ele>232.40</ele>
        <time>2014-02-23T08:18:24Z</time>
      </trkpt>
      <trkpt lat="41.616748380" lon="2.510235160">
        <ele>232.70</ele>
        <time>2014-02-23T08:18:25Z</time>
      </trkpt>
      <trkpt lat="41.616748380" lon="2.510210010">
        <ele>233.00</ele>
        <time>2014-02-23T08:18:26Z</time>
      </trkpt>
      <trkpt lat="41.616751730" lon="2.510186710">
        <ele>233.40</ele>
        <time>2014-02-23T08:18:27Z</time>
      </trkpt>
      <trkpt lat="41.616753410" lon="2.510163410">
        <ele>233.80</ele>
        <time>2014-02-23T08:18:28Z</time>
      </trkpt>
      <trkpt lat="41.616755090" lon="2.510140100">
        <ele>234.20</ele>
        <time>2014-02-23T08:18:29Z</time>
      </trkpt>
      <trkpt lat="41.616756760" lon="2.510116800">
        <ele>234.50</ele>
        <time>2014-02-23T08:18:30Z</time>
      </trkpt>
      <trkpt lat="41.616756760" lon="2.510095010">
        <ele>234.70</ele>
        <time>2014-02-23T08:18:31Z</time>
      </trkpt>
      <trkpt lat="41.616756760" lon="2.510073380">
        <ele>235.00</ele>
        <time>2014-02-23T08:18:32Z</time>
      </trkpt>
      <trkpt lat="41.616756760" lon="2.510050080">
        <ele>235.30</ele>
        <time>2014-02-23T08:18:33Z</time>
      </trkpt>
      <trkpt lat="41.616755090" lon="2.510028460">
        <ele>235.50</ele>
        <time>2014-02-23T08:18:34Z</time>
      </trkpt>
      <trkpt lat="41.616756760" lon="2.510005160">
        <ele>235.70</ele>
        <time>2014-02-23T08:18:35Z</time>
      </trkpt>
      <trkpt lat="41.616756760" lon="2.509981690">
        <ele>235.80</ele>
        <time>2014-02-23T08:18:36Z</time>
      </trkpt>
      <trkpt lat="41.616758440" lon="2.509956710">
        <ele>235.80</ele>
        <time>2014-02-23T08:18:37Z</time>
      </trkpt>
      <trkpt lat="41.616761790" lon="2.509933410">
        <ele>235.80</ele>
        <time>2014-02-23T08:18:38Z</time>
      </trkpt>
      <trkpt lat="41.616765140" lon="2.509910110">
        <ele>236.00</ele>
        <time>2014-02-23T08:18:39Z</time>
      </trkpt>
      <trkpt lat="41.616773360" lon="2.509886800">
        <ele>236.10</ele>
        <time>2014-02-23T08:18:40Z</time>
      </trkpt>
      <trkpt lat="41.616780060" lon="2.509861830">
        <ele>236.70</ele>
        <time>2014-02-23T08:18:41Z</time>
      </trkpt>
      <trkpt lat="41.616786770" lon="2.509838360">
        <ele>237.10</ele>
        <time>2014-02-23T08:18:42Z</time>
      </trkpt>
      <trkpt lat="41.616793470" lon="2.509813380">
        <ele>237.30</ele>
        <time>2014-02-23T08:18:43Z</time>
      </trkpt>
      <trkpt lat="41.616801690" lon="2.509788400">
        <ele>237.40</ele>
        <time>2014-02-23T08:18:44Z</time>
      </trkpt>
      <trkpt lat="41.616813420" lon="2.509765100">
        <ele>237.60</ele>
        <time>2014-02-23T08:18:45Z</time>
      </trkpt>
      <trkpt lat="41.616821810" lon="2.509741800">
        <ele>238.20</ele>
        <time>2014-02-23T08:18:46Z</time>
      </trkpt>
      <trkpt lat="41.616831700" lon="2.509720000">
        <ele>238.60</ele>
        <time>2014-02-23T08:18:47Z</time>
      </trkpt>
      <trkpt lat="41.616841750" lon="2.509700050">
        <ele>238.50</ele>
        <time>2014-02-23T08:18:48Z</time>
      </trkpt>
      <trkpt lat="41.616853490" lon="2.509680110">
        <ele>238.50</ele>
        <time>2014-02-23T08:18:49Z</time>
      </trkpt>
      <trkpt lat="41.616863380" lon="2.509658480">
        <ele>238.30</ele>
        <time>2014-02-23T08:18:50Z</time>
      </trkpt>
      <trkpt lat="41.616871760" lon="2.509636690">
        <ele>238.10</ele>
        <time>2014-02-23T08:18:51Z</time>
      </trkpt>
      <trkpt lat="41.616885010" lon="2.509618420">
        <ele>238.00</ele>
        <time>2014-02-23T08:18:52Z</time>
      </trkpt>
      <trkpt lat="41.616893390" lon="2.509595110">
        <ele>238.10</ele>
        <time>2014-02-23T08:18:53Z</time>
      </trkpt>
      <trkpt lat="41.616896740" lon="2.509570140">
        <ele>238.10</ele>
        <time>2014-02-23T08:18:54Z</time>
      </trkpt>
      <trkpt lat="41.616891710" lon="2.509551700">
        <ele>238.40</ele>
        <time>2014-02-23T08:18:55Z</time>
      </trkpt>
      <trkpt lat="41.616880140" lon="2.509538450">
        <ele>238.60</ele>
        <time>2014-02-23T08:18:56Z</time>
      </trkpt>
      <trkpt lat="41.616865060" lon="2.509533420">
        <ele>238.80</ele>
        <time>2014-02-23T08:18:57Z</time>
      </trkpt>
      <trkpt lat="41.616850140" lon="2.509536780">
        <ele>238.90</ele>
        <time>2014-02-23T08:18:58Z</time>
      </trkpt>
      <trkpt lat="41.616836730" lon="2.509543480">
        <ele>238.90</ele>
        <time>2014-02-23T08:18:59Z</time>
      </trkpt>
      <trkpt lat="41.616825160" lon="2.509551700">
        <ele>239.20</ele>
        <time>2014-02-23T08:19:00Z</time>
      </trkpt>
      <trkpt lat="41.616815100" lon="2.509561750">
        <ele>239.40</ele>
        <time>2014-02-23T08:19:01Z</time>
      </trkpt>
      <trkpt lat="41.616803370" lon="2.509575000">
        <ele>239.50</ele>
        <time>2014-02-23T08:19:02Z</time>
      </trkpt>
      <trkpt lat="41.616793470" lon="2.509586730">
        <ele>239.50</ele>
        <time>2014-02-23T08:19:03Z</time>
      </trkpt>
      <trkpt lat="41.616781740" lon="2.509600140">
        <ele>239.60</ele>
        <time>2014-02-23T08:19:04Z</time>
      </trkpt>
      <trkpt lat="41.616771680" lon="2.509613390">
        <ele>239.90</ele>
        <time>2014-02-23T08:19:05Z</time>
      </trkpt>
      <trkpt lat="41.616761790" lon="2.509623440">
        <ele>240.10</ele>
        <time>2014-02-23T08:19:06Z</time>
      </trkpt>
      <trkpt lat="41.616753410" lon="2.509636690">
        <ele>240.10</ele>
        <time>2014-02-23T08:19:07Z</time>
      </trkpt>
      <trkpt lat="41.616743350" lon="2.509651780">
        <ele>240.10</ele>
        <time>2014-02-23T08:19:08Z</time>
      </trkpt>
      <trkpt lat="41.616733460" lon="2.509668370">
        <ele>240.10</ele>
        <time>2014-02-23T08:19:09Z</time>
      </trkpt>
      <trkpt lat="41.616723400" lon="2.509686810">
        <ele>240.10</ele>
        <time>2014-02-23T08:19:10Z</time>
      </trkpt>
      <trkpt lat="41.616713340" lon="2.509703410">
        <ele>240.10</ele>
        <time>2014-02-23T08:19:11Z</time>
      </trkpt>
      <trkpt lat="41.616703450" lon="2.509721680">
        <ele>240.30</ele>
        <time>2014-02-23T08:19:12Z</time>
      </trkpt>
      <trkpt lat="41.616693390" lon="2.509738440">
        <ele>240.50</ele>
        <time>2014-02-23T08:19:13Z</time>
      </trkpt>
      <trkpt lat="41.616685010" lon="2.509758390">
        <ele>240.50</ele>
        <time>2014-02-23T08:19:14Z</time>
      </trkpt>
      <trkpt lat="41.616675120" lon="2.509776670">
        <ele>240.50</ele>
        <time>2014-02-23T08:19:15Z</time>
      </trkpt>
      <trkpt lat="41.616665060" lon="2.509793430">
        <ele>240.60</ele>
        <time>2014-02-23T08:19:16Z</time>
      </trkpt>
      <trkpt lat="41.616651820" lon="2.509810030">
        <ele>240.70</ele>
        <time>2014-02-23T08:19:17Z</time>
      </trkpt>
      <trkpt lat="41.616638410" lon="2.509823440">
        <ele>240.90</ele>
        <time>2014-02-23T08:19:18Z</time>
      </trkpt>
      <trkpt lat="41.616625000" lon="2.509835000">
        <ele>240.80</ele>
        <time>2014-02-23T08:19:19Z</time>
      </trkpt>
      <trkpt lat="41.616610080" lon="2.509845060">
        <ele>240.80</ele>
        <time>2014-02-23T08:19:20Z</time>
      </trkpt>
      <trkpt lat="41.616595160" lon="2.509853440">
        <ele>241.10</ele>
        <time>2014-02-23T08:19:21Z</time>
      </trkpt>
      <trkpt lat="41.616578400" lon="2.509855120">
        <ele>241.40</ele>
        <time>2014-02-23T08:19:22Z</time>
      </trkpt>
      <trkpt lat="41.616563480" lon="2.509853440">
        <ele>241.60</ele>
        <time>2014-02-23T08:19:23Z</time>
      </trkpt>
      <trkpt lat="41.616546710" lon="2.509850090">
        <ele>241.80</ele>
        <time>2014-02-23T08:19:24Z</time>
      </trkpt>
      <trkpt lat="41.616530120" lon="2.509846740">
        <ele>242.00</ele>
        <time>2014-02-23T08:19:25Z</time>
      </trkpt>
      <trkpt lat="41.616513350" lon="2.509841710">
        <ele>242.50</ele>
        <time>2014-02-23T08:19:26Z</time>
      </trkpt>
      <trkpt lat="41.616498430" lon="2.509835000">
        <ele>242.90</ele>
        <time>2014-02-23T08:19:27Z</time>
      </trkpt>
      <trkpt lat="41.616480160" lon="2.509840030">
        <ele>243.20</ele>
        <time>2014-02-23T08:19:28Z</time>
      </trkpt>
      <trkpt lat="41.616465070" lon="2.509830140">
        <ele>243.50</ele>
        <time>2014-02-23T08:19:29Z</time>
      </trkpt>
      <trkpt lat="41.616450150" lon="2.509823440">
        <ele>243.60</ele>
        <time>2014-02-23T08:19:30Z</time>
      </trkpt>
      <trkpt lat="41.616435060" lon="2.509816730">
        <ele>243.70</ele>
        <time>2014-02-23T08:19:31Z</time>
      </trkpt>
      <trkpt lat="41.616421820" lon="2.509811700">
        <ele>243.70</ele>
        <time>2014-02-23T08:19:32Z</time>
      </trkpt>
      <trkpt lat="41.616408410" lon="2.509800130">
        <ele>243.90</ele>
        <time>2014-02-23T08:19:33Z</time>
      </trkpt>
      <trkpt lat="41.616396680" lon="2.509786720">
        <ele>244.10</ele>
        <time>2014-02-23T08:19:34Z</time>
      </trkpt>
      <trkpt lat="41.616386780" lon="2.509770130">
        <ele>244.20</ele>
        <time>2014-02-23T08:19:35Z</time>
      </trkpt>
      <trkpt lat="41.616380080" lon="2.509758390">
        <ele>244.40</ele>
        <time>2014-02-23T08:19:36Z</time>
      </trkpt>
      <trkpt lat="41.616371700" lon="2.509741800">
        <ele>244.60</ele>
        <time>2014-02-23T08:19:37Z</time>
      </trkpt>
      <trkpt lat="41.616365160" lon="2.509725030">
        <ele>244.50</ele>
        <time>2014-02-23T08:19:38Z</time>
      </trkpt>
      <trkpt lat="41.616360130" lon="2.509706760">
        <ele>244.40</ele>
        <time>2014-02-23T08:19:39Z</time>
      </trkpt>
      <trkpt lat="41.616356780" lon="2.509686810">
        <ele>244.80</ele>
        <time>2014-02-23T08:19:40Z</time>
      </trkpt>
      <trkpt lat="41.616355100" lon="2.509668370">
        <ele>245.20</ele>
        <time>2014-02-23T08:19:41Z</time>
      </trkpt>
      <trkpt lat="41.616356780" lon="2.509646750">
        <ele>245.40</ele>
        <time>2014-02-23T08:19:42Z</time>
      </trkpt>
      <trkpt lat="41.616356780" lon="2.509626800">
        <ele>245.60</ele>
        <time>2014-02-23T08:19:43Z</time>
      </trkpt>
      <trkpt lat="41.616356780" lon="2.509605000">
        <ele>245.80</ele>
        <time>2014-02-23T08:19:44Z</time>
      </trkpt>
      <trkpt lat="41.616355100" lon="2.509586730">
        <ele>246.30</ele>
        <time>2014-02-23T08:19:45Z</time>
      </trkpt>
      <trkpt lat="41.616355100" lon="2.509566780">
        <ele>246.70</ele>
        <time>2014-02-23T08:19:46Z</time>
      </trkpt>
      <trkpt lat="41.616356780" lon="2.509545160">
        <ele>246.70</ele>
        <time>2014-02-23T08:19:47Z</time>
      </trkpt>
      <trkpt lat="41.616355100" lon="2.509525040">
        <ele>246.70</ele>
        <time>2014-02-23T08:19:48Z</time>
      </trkpt>
      <trkpt lat="41.616356780" lon="2.509503420">
        <ele>246.70</ele>
        <time>2014-02-23T08:19:49Z</time>
      </trkpt>
      <trkpt lat="41.616355100" lon="2.509485140">
        <ele>246.90</ele>
        <time>2014-02-23T08:19:50Z</time>
      </trkpt>
      <trkpt lat="41.616353420" lon="2.509465030">
        <ele>247.00</ele>
        <time>2014-02-23T08:19:51Z</time>
      </trkpt>
      <trkpt lat="41.616350070" lon="2.509450110">
        <ele>247.20</ele>
        <time>2014-02-23T08:19:52Z</time>
      </trkpt>
      <trkpt lat="41.616348400" lon="2.509431670">
        <ele>247.40</ele>
        <time>2014-02-23T08:19:53Z</time>
      </trkpt>
      <trkpt lat="41.616345040" lon="2.509415070">
        <ele>247.60</ele>
        <time>2014-02-23T08:19:54Z</time>
      </trkpt>
      <trkpt lat="41.616345040" lon="2.509396800">
        <ele>247.60</ele>
        <time>2014-02-23T08:19:55Z</time>
      </trkpt>
      <trkpt lat="41.616341690" lon="2.509381710">
        <ele>247.70</ele>
        <time>2014-02-23T08:19:56Z</time>
      </trkpt>
      <trkpt lat="41.616336830" lon="2.509368470">
        <ele>247.70</ele>
        <time>2014-02-23T08:19:57Z</time>
      </trkpt>
      <trkpt lat="41.616331800" lon="2.509350030">
        <ele>247.70</ele>
        <time>2014-02-23T08:19:58Z</time>
      </trkpt>
      <trkpt lat="41.616328450" lon="2.509333430">
        <ele>248.10</ele>
        <time>2014-02-23T08:19:59Z</time>
      </trkpt>
      <trkpt lat="41.616326770" lon="2.509315160">
        <ele>248.40</ele>
        <time>2014-02-23T08:20:00Z</time>
      </trkpt>
      <trkpt lat="41.616321740" lon="2.509296720">
        <ele>248.60</ele>
        <time>2014-02-23T08:20:01Z</time>
      </trkpt>
      <trkpt lat="41.616318390" lon="2.509278450">
        <ele>249.10</ele>
        <time>2014-02-23T08:20:02Z</time>
      </trkpt>
      <trkpt lat="41.616315040" lon="2.509260000">
        <ele>249.50</ele>
        <time>2014-02-23T08:20:03Z</time>
      </trkpt>
      <trkpt lat="41.616310010" lon="2.509240060">
        <ele>249.60</ele>
        <time>2014-02-23T08:20:04Z</time>
      </trkpt>
      <trkpt lat="41.616303470" lon="2.509221780">
        <ele>249.70</ele>
        <time>2014-02-23T08:20:05Z</time>
      </trkpt>
      <trkpt lat="41.616300120" lon="2.509200160">
        <ele>250.30</ele>
        <time>2014-02-23T08:20:06Z</time>
      </trkpt>
      <trkpt lat="41.616300120" lon="2.509180040">
        <ele>250.70</ele>
        <time>2014-02-23T08:20:07Z</time>
      </trkpt>
      <trkpt lat="41.616298440" lon="2.509160090">
        <ele>251.00</ele>
        <time>2014-02-23T08:20:08Z</time>
      </trkpt>
      <trkpt lat="41.616293410" lon="2.509138470">
        <ele>251.20</ele>
        <time>2014-02-23T08:20:09Z</time>
      </trkpt>
      <trkpt lat="41.616288380" lon="2.509118350">
        <ele>251.40</ele>
        <time>2014-02-23T08:20:10Z</time>
      </trkpt>
      <trkpt lat="41.616283350" lon="2.509100080">
        <ele>251.60</ele>
        <time>2014-02-23T08:20:11Z</time>
      </trkpt>
      <trkpt lat="41.616275140" lon="2.509078450">
        <ele>251.80</ele>
        <time>2014-02-23T08:20:12Z</time>
      </trkpt>
      <trkpt lat="41.616268430" lon="2.509060010">
        <ele>251.90</ele>
        <time>2014-02-23T08:20:13Z</time>
      </trkpt>
      <trkpt lat="41.616260050" lon="2.509040060">
        <ele>252.10</ele>
        <time>2014-02-23T08:20:14Z</time>
      </trkpt>
      <trkpt lat="41.616253340" lon="2.509018440">
        <ele>252.20</ele>
        <time>2014-02-23T08:20:15Z</time>
      </trkpt>
      <trkpt lat="41.616246810" lon="2.509000000">
        <ele>252.50</ele>
        <time>2014-02-23T08:20:16Z</time>
      </trkpt>
      <trkpt lat="41.616241780" lon="2.508980050">
        <ele>252.80</ele>
        <time>2014-02-23T08:20:17Z</time>
      </trkpt>
      <trkpt lat="41.616235070" lon="2.508960100">
        <ele>253.00</ele>
        <time>2014-02-23T08:20:18Z</time>
      </trkpt>
      <trkpt lat="41.616230040" lon="2.508940150">
        <ele>253.20</ele>
        <time>2014-02-23T08:20:19Z</time>
      </trkpt>
      <trkpt lat="41.616223340" lon="2.508921710">
        <ele>253.30</ele>
        <time>2014-02-23T08:20:20Z</time>
      </trkpt>
      <trkpt lat="41.616215120" lon="2.508905120">
        <ele>253.80</ele>
        <time>2014-02-23T08:20:21Z</time>
      </trkpt>
      <trkpt lat="41.616208420" lon="2.508886680">
        <ele>254.20</ele>
        <time>2014-02-23T08:20:22Z</time>
      </trkpt>
      <trkpt lat="41.616201710" lon="2.508868400">
        <ele>255.00</ele>
        <time>2014-02-23T08:20:23Z</time>
      </trkpt>
      <trkpt lat="41.616196680" lon="2.508850130">
        <ele>255.50</ele>
        <time>2014-02-23T08:20:24Z</time>
      </trkpt>
      <trkpt lat="41.616193330" lon="2.508830010">
        <ele>255.50</ele>
        <time>2014-02-23T08:20:25Z</time>
      </trkpt>
      <trkpt lat="41.616186790" lon="2.508813420">
        <ele>255.50</ele>
        <time>2014-02-23T08:20:26Z</time>
      </trkpt>
      <trkpt lat="41.616181760" lon="2.508796820">
        <ele>255.50</ele>
        <time>2014-02-23T08:20:27Z</time>
      </trkpt>
      <trkpt lat="41.616176730" lon="2.508778380">
        <ele>256.00</ele>
        <time>2014-02-23T08:20:28Z</time>
      </trkpt>
      <trkpt lat="41.616170030" lon="2.508760110">
        <ele>256.30</ele>
        <time>2014-02-23T08:20:29Z</time>
      </trkpt>
      <trkpt lat="41.616165000" lon="2.508741670">
        <ele>256.60</ele>
        <time>2014-02-23T08:20:30Z</time>
      </trkpt>
      <trkpt lat="41.616161810" lon="2.508721720">
        <ele>256.90</ele>
        <time>2014-02-23T08:20:31Z</time>
      </trkpt>
      <trkpt lat="41.616156790" lon="2.508705120">
        <ele>257.10</ele>
        <time>2014-02-23T08:20:32Z</time>
      </trkpt>
      <trkpt lat="41.616151760" lon="2.508686680">
        <ele>257.50</ele>
        <time>2014-02-23T08:20:33Z</time>
      </trkpt>
      <trkpt lat="41.616146730" lon="2.508670090">
        <ele>257.80</ele>
        <time>2014-02-23T08:20:34Z</time>
      </trkpt>
      <trkpt lat="41.616143370" lon="2.508655000">
        <ele>257.80</ele>
        <time>2014-02-23T08:20:35Z</time>
      </trkpt>
      <trkpt lat="41.616140020" lon="2.508641760">
        <ele>257.80</ele>
        <time>2014-02-23T08:20:36Z</time>
      </trkpt>
      <trkpt lat="41.616135160" lon="2.508625160">
        <ele>258.20</ele>
        <time>2014-02-23T08:20:37Z</time>
      </trkpt>
      <trkpt lat="41.616131810" lon="2.508608400">
        <ele>258.40</ele>
        <time>2014-02-23T08:20:38Z</time>
      </trkpt>
      <trkpt lat="41.616128450" lon="2.508591800">
        <ele>258.60</ele>
        <time>2014-02-23T08:20:39Z</time>
      </trkpt>
      <trkpt lat="41.616125100" lon="2.508575040">
        <ele>258.70</ele>
        <time>2014-02-23T08:20:40Z</time>
      </trkpt>
      <trkpt lat="41.616121750" lon="2.508556760">
        <ele>258.70</ele>
        <time>2014-02-23T08:20:41Z</time>
      </trkpt>
      <trkpt lat="41.616118400" lon="2.508536810">
        <ele>259.10</ele>
        <time>2014-02-23T08:20:42Z</time>
      </trkpt>
      <trkpt lat="41.616113370" lon="2.508518370">
        <ele>259.40</ele>
        <time>2014-02-23T08:20:43Z</time>
      </trkpt>
      <trkpt lat="41.616106830" lon="2.508500100">
        <ele>259.50</ele>
        <time>2014-02-23T08:20:44Z</time>
      </trkpt>
      <trkpt lat="41.616100120" lon="2.508481830">
        <ele>259.60</ele>
        <time>2014-02-23T08:20:45Z</time>
      </trkpt>
      <trkpt lat="41.616095090" lon="2.508465070">
        <ele>259.60</ele>
        <time>2014-02-23T08:20:46Z</time>
      </trkpt>
      <trkpt lat="41.616088390" lon="2.508445120">
        <ele>260.10</ele>
        <time>2014-02-23T08:20:47Z</time>
      </trkpt>
      <trkpt lat="41.616083360" lon="2.508426680">
        <ele>260.50</ele>
        <time>2014-02-23T08:20:48Z</time>
      </trkpt>
      <trkpt lat="41.616076820" lon="2.508408400">
        <ele>260.30</ele>
        <time>2014-02-23T08:20:49Z</time>
      </trkpt>
      <trkpt lat="41.616071790" lon="2.508390130">
        <ele>260.10</ele>
        <time>2014-02-23T08:20:50Z</time>
      </trkpt>
      <trkpt lat="41.616066760" lon="2.508371690">
        <ele>260.00</ele>
        <time>2014-02-23T08:20:51Z</time>
      </trkpt>
      <trkpt lat="41.616061730" lon="2.508353420">
        <ele>260.20</ele>
        <time>2014-02-23T08:20:52Z</time>
      </trkpt>
      <trkpt lat="41.616056710" lon="2.508335150">
        <ele>260.40</ele>
        <time>2014-02-23T08:20:53Z</time>
      </trkpt>
      <trkpt lat="41.616051680" lon="2.508316710">
        <ele>260.70</ele>
        <time>2014-02-23T08:20:54Z</time>
      </trkpt>
      <trkpt lat="41.616045140" lon="2.508296760">
        <ele>260.90</ele>
        <time>2014-02-23T08:20:55Z</time>
      </trkpt>
      <trkpt lat="41.616038430" lon="2.508278480">
        <ele>261.00</ele>
        <time>2014-02-23T08:20:56Z</time>
      </trkpt>
      <trkpt lat="41.616033400" lon="2.508260040">
        <ele>261.20</ele>
        <time>2014-02-23T08:20:57Z</time>
      </trkpt>
      <trkpt lat="41.616026700" lon="2.508241770">
        <ele>261.30</ele>
        <time>2014-02-23T08:20:58Z</time>
      </trkpt>
      <trkpt lat="41.616021670" lon="2.508223330">
        <ele>261.80</ele>
        <time>2014-02-23T08:20:59Z</time>
      </trkpt>
      <trkpt lat="41.616013450" lon="2.508206740">
        <ele>262.10</ele>
        <time>2014-02-23T08:21:00Z</time>
      </trkpt>
      <trkpt lat="41.616006750" lon="2.508188460">
        <ele>262.50</ele>
        <time>2014-02-23T08:21:01Z</time>
      </trkpt>
      <trkpt lat="41.616000040" lon="2.508170020">
        <ele>262.80</ele>
        <time>2014-02-23T08:21:02Z</time>
      </trkpt>
      <trkpt lat="41.615993340" lon="2.508151750">
        <ele>263.00</ele>
        <time>2014-02-23T08:21:03Z</time>
      </trkpt>
      <trkpt lat="41.615988480" lon="2.508133480">
        <ele>263.20</ele>
        <time>2014-02-23T08:21:04Z</time>
      </trkpt>
      <trkpt lat="41.615983450" lon="2.508115040">
        <ele>263.30</ele>
        <time>2014-02-23T08:21:05Z</time>
      </trkpt>
      <trkpt lat="41.615978420" lon="2.508096760">
        <ele>263.60</ele>
        <time>2014-02-23T08:21:06Z</time>
      </trkpt>
      <trkpt lat="41.615976740" lon="2.508078490">
        <ele>263.90</ele>
        <time>2014-02-23T08:21:07Z</time>
      </trkpt>
      <trkpt lat="41.615971710" lon="2.508061730">
        <ele>264.20</ele>
        <time>2014-02-23T08:21:08Z</time>
      </trkpt>
      <trkpt lat="41.615970040" lon="2.508046810">
        <ele>264.50</ele>
        <time>2014-02-23T08:21:09Z</time>
      </trkpt>
      <trkpt lat="41.615966680" lon="2.508030040">
        <ele>264.60</ele>
        <time>2014-02-23T08:21:10Z</time>
      </trkpt>
      <trkpt lat="41.615965010" lon="2.508010100">
        <ele>264.90</ele>
        <time>2014-02-23T08:21:11Z</time>
      </trkpt>
      <trkpt lat="41.615955120" lon="2.507988470">
        <ele>265.00</ele>
        <time>2014-02-23T08:21:12Z</time>
      </trkpt>
      <trkpt lat="41.615948410" lon="2.507965000">
        <ele>265.00</ele>
        <time>2014-02-23T08:21:13Z</time>
      </trkpt>
      <trkpt lat="41.615941710" lon="2.507943380">
        <ele>264.90</ele>
        <time>2014-02-23T08:21:14Z</time>
      </trkpt>
      <trkpt lat="41.615938350" lon="2.507925100">
        <ele>264.80</ele>
        <time>2014-02-23T08:21:15Z</time>
      </trkpt>
      <trkpt lat="41.615933490" lon="2.507908340">
        <ele>264.60</ele>
        <time>2014-02-23T08:21:16Z</time>
      </trkpt>
      <trkpt lat="41.615928460" lon="2.507895100">
        <ele>264.50</ele>
        <time>2014-02-23T08:21:17Z</time>
      </trkpt>
      <trkpt lat="41.615921760" lon="2.507880010">
        <ele>265.20</ele>
        <time>2014-02-23T08:21:18Z</time>
      </trkpt>
      <trkpt lat="41.615916730" lon="2.507863410">
        <ele>265.70</ele>
        <time>2014-02-23T08:21:19Z</time>
      </trkpt>
      <trkpt lat="41.615911700" lon="2.507846820">
        <ele>266.10</ele>
        <time>2014-02-23T08:21:20Z</time>
      </trkpt>
      <trkpt lat="41.615906670" lon="2.507830050">
        <ele>266.30</ele>
        <time>2014-02-23T08:21:21Z</time>
      </trkpt>
      <trkpt lat="41.615900130" lon="2.507813460">
        <ele>266.60</ele>
        <time>2014-02-23T08:21:22Z</time>
      </trkpt>
      <trkpt lat="41.615895100" lon="2.507796690">
        <ele>266.70</ele>
        <time>2014-02-23T08:21:23Z</time>
      </trkpt>
      <trkpt lat="41.615890070" lon="2.507781770">
        <ele>266.90</ele>
        <time>2014-02-23T08:21:24Z</time>
      </trkpt>
      <trkpt lat="41.615886720" lon="2.507765010">
        <ele>266.90</ele>
        <time>2014-02-23T08:21:25Z</time>
      </trkpt>
      <trkpt lat="41.615881690" lon="2.507748410">
        <ele>266.90</ele>
        <time>2014-02-23T08:21:26Z</time>
      </trkpt>
      <trkpt lat="41.615875150" lon="2.507731820">
        <ele>267.10</ele>
        <time>2014-02-23T08:21:27Z</time>
      </trkpt>
      <trkpt lat="41.615868450" lon="2.507715050">
        <ele>267.30</ele>
        <time>2014-02-23T08:21:28Z</time>
      </trkpt>
      <trkpt lat="41.615861740" lon="2.507698460">
        <ele>267.90</ele>
        <time>2014-02-23T08:21:29Z</time>
      </trkpt>
      <trkpt lat="41.615856710" lon="2.507683370">
        <ele>268.30</ele>
        <time>2014-02-23T08:21:30Z</time>
      </trkpt>
      <trkpt lat="41.615850010" lon="2.507666770">
        <ele>268.70</ele>
        <time>2014-02-23T08:21:31Z</time>
      </trkpt>
      <trkpt lat="41.615841790" lon="2.507651690">
        <ele>269.00</ele>
        <time>2014-02-23T08:21:32Z</time>
      </trkpt>
      <trkpt lat="41.615835090" lon="2.507633410">
        <ele>269.30</ele>
        <time>2014-02-23T08:21:33Z</time>
      </trkpt>
      <trkpt lat="41.615830060" lon="2.507615140">
        <ele>269.50</ele>
        <time>2014-02-23T08:21:34Z</time>
      </trkpt>
      <trkpt lat="41.615825030" lon="2.507595020">
        <ele>269.70</ele>
        <time>2014-02-23T08:21:35Z</time>
      </trkpt>
      <trkpt lat="41.615820000" lon="2.507575070">
        <ele>269.90</ele>
        <time>2014-02-23T08:21:36Z</time>
      </trkpt>
      <trkpt lat="41.615815140" lon="2.507555130">
        <ele>269.90</ele>
        <time>2014-02-23T08:21:37Z</time>
      </trkpt>
      <trkpt lat="41.615811790" lon="2.507536690">
        <ele>269.80</ele>
        <time>2014-02-23T08:21:38Z</time>
      </trkpt>
      <trkpt lat="41.615808430" lon="2.507516740">
        <ele>269.70</ele>
        <time>2014-02-23T08:21:39Z</time>
      </trkpt>
      <trkpt lat="41.615808430" lon="2.507495110">
        <ele>269.70</ele>
        <time>2014-02-23T08:21:40Z</time>
      </trkpt>
      <trkpt lat="41.615803400" lon="2.507478350">
        <ele>270.30</ele>
        <time>2014-02-23T08:21:41Z</time>
      </trkpt>
      <trkpt lat="41.615800050" lon="2.507458400">
        <ele>270.70</ele>
        <time>2014-02-23T08:21:42Z</time>
      </trkpt>
      <trkpt lat="41.615796700" lon="2.507441800">
        <ele>271.10</ele>
        <time>2014-02-23T08:21:43Z</time>
      </trkpt>
      <trkpt lat="41.615793350" lon="2.507421690">
        <ele>271.10</ele>
        <time>2014-02-23T08:21:44Z</time>
      </trkpt>
      <trkpt lat="41.615788480" lon="2.507405090">
        <ele>271.20</ele>
        <time>2014-02-23T08:21:45Z</time>
      </trkpt>
      <trkpt lat="41.615786810" lon="2.507386820">
        <ele>271.40</ele>
        <time>2014-02-23T08:21:46Z</time>
      </trkpt>
      <trkpt lat="41.615783460" lon="2.507368380">
        <ele>271.60</ele>
        <time>2014-02-23T08:21:47Z</time>
      </trkpt>
      <trkpt lat="41.615780100" lon="2.507348430">
        <ele>271.70</ele>
        <time>2014-02-23T08:21:48Z</time>
      </trkpt>
      <trkpt lat="41.615775070" lon="2.507330160">
        <ele>271.50</ele>
        <time>2014-02-23T08:21:49Z</time>
      </trkpt>
      <trkpt lat="41.615770040" lon="2.507313390">
        <ele>271.40</ele>
        <time>2014-02-23T08:21:50Z</time>
      </trkpt>
      <trkpt lat="41.615765020" lon="2.507295120">
        <ele>271.40</ele>
        <time>2014-02-23T08:21:51Z</time>
      </trkpt>
      <trkpt lat="41.615761660" lon="2.507276680">
        <ele>271.40</ele>
        <time>2014-02-23T08:21:52Z</time>
      </trkpt>
      <trkpt lat="41.615758480" lon="2.507258410">
        <ele>271.90</ele>
        <time>2014-02-23T08:21:53Z</time>
      </trkpt>
      <trkpt lat="41.615753450" lon="2.507240130">
        <ele>272.20</ele>
        <time>2014-02-23T08:21:54Z</time>
      </trkpt>
      <trkpt lat="41.615746740" lon="2.507221690">
        <ele>272.40</ele>
        <time>2014-02-23T08:21:55Z</time>
      </trkpt>
      <trkpt lat="41.615741710" lon="2.507205100">
        <ele>272.40</ele>
        <time>2014-02-23T08:21:56Z</time>
      </trkpt>
      <trkpt lat="41.615736680" lon="2.507188330">
        <ele>272.40</ele>
        <time>2014-02-23T08:21:57Z</time>
      </trkpt>
      <trkpt lat="41.615730150" lon="2.507173410">
        <ele>272.50</ele>
        <time>2014-02-23T08:21:58Z</time>
      </trkpt>
      <trkpt lat="41.615725120" lon="2.507158490">
        <ele>272.60</ele>
        <time>2014-02-23T08:21:59Z</time>
      </trkpt>
      <trkpt lat="41.615720090" lon="2.507143410">
        <ele>273.10</ele>
        <time>2014-02-23T08:22:00Z</time>
      </trkpt>
      <trkpt lat="41.615715060" lon="2.507128490">
        <ele>273.50</ele>
        <time>2014-02-23T08:22:01Z</time>
      </trkpt>
      <trkpt lat="41.615711710" lon="2.507111720">
        <ele>273.90</ele>
        <time>2014-02-23T08:22:02Z</time>
      </trkpt>
      <trkpt lat="41.615708350" lon="2.507096800">
        <ele>274.20</ele>
        <time>2014-02-23T08:22:03Z</time>
      </trkpt>
      <trkpt lat="41.615706680" lon="2.507080040">
        <ele>274.40</ele>
        <time>2014-02-23T08:22:04Z</time>
      </trkpt>
      <trkpt lat="41.615703490" lon="2.507061770">
        <ele>274.50</ele>
        <time>2014-02-23T08:22:05Z</time>
      </trkpt>
      <trkpt lat="41.615703490" lon="2.507045000">
        <ele>274.60</ele>
        <time>2014-02-23T08:22:06Z</time>
      </trkpt>
      <trkpt lat="41.615705000" lon="2.507028410">
        <ele>274.60</ele>
        <time>2014-02-23T08:22:07Z</time>
      </trkpt>
      <trkpt lat="41.615706680" lon="2.507011810">
        <ele>274.70</ele>
        <time>2014-02-23T08:22:08Z</time>
      </trkpt>
      <trkpt lat="41.615705000" lon="2.506991690">
        <ele>274.70</ele>
        <time>2014-02-23T08:22:09Z</time>
      </trkpt>
      <trkpt lat="41.615703490" lon="2.506971750">
        <ele>274.90</ele>
        <time>2014-02-23T08:22:10Z</time>
      </trkpt>
      <trkpt lat="41.615703490" lon="2.506953470">
        <ele>275.00</ele>
        <time>2014-02-23T08:22:11Z</time>
      </trkpt>
      <trkpt lat="41.615701820" lon="2.506933360">
        <ele>275.60</ele>
        <time>2014-02-23T08:22:12Z</time>
      </trkpt>
      <trkpt lat="41.615701820" lon="2.506913410">
        <ele>276.10</ele>
        <time>2014-02-23T08:22:13Z</time>
      </trkpt>
      <trkpt lat="41.615703490" lon="2.506895130">
        <ele>276.40</ele>
        <time>2014-02-23T08:22:14Z</time>
      </trkpt>
      <trkpt lat="41.615705000" lon="2.506876690">
        <ele>276.80</ele>
        <time>2014-02-23T08:22:15Z</time>
      </trkpt>
      <trkpt lat="41.615706680" lon="2.506858420">
        <ele>277.10</ele>
        <time>2014-02-23T08:22:16Z</time>
      </trkpt>
      <trkpt lat="41.615705000" lon="2.506838470">
        <ele>277.00</ele>
        <time>2014-02-23T08:22:17Z</time>
      </trkpt>
      <trkpt lat="41.615705000" lon="2.506818360">
        <ele>276.90</ele>
        <time>2014-02-23T08:22:18Z</time>
      </trkpt>
      <trkpt lat="41.615705000" lon="2.506800080">
        <ele>277.10</ele>
        <time>2014-02-23T08:22:19Z</time>
      </trkpt>
      <trkpt lat="41.615701820" lon="2.506781810">
        <ele>277.30</ele>
        <time>2014-02-23T08:22:20Z</time>
      </trkpt>
      <trkpt lat="41.615701820" lon="2.506760020">
        <ele>277.50</ele>
        <time>2014-02-23T08:22:21Z</time>
      </trkpt>
      <trkpt lat="41.615701820" lon="2.506740070">
        <ele>277.80</ele>
        <time>2014-02-23T08:22:22Z</time>
      </trkpt>
      <trkpt lat="41.615701820" lon="2.506720120">
        <ele>278.00</ele>
        <time>2014-02-23T08:22:23Z</time>
      </trkpt>
      <trkpt lat="41.615701820" lon="2.506701680">
        <ele>278.10</ele>
        <time>2014-02-23T08:22:24Z</time>
      </trkpt>
      <trkpt lat="41.615703490" lon="2.506681730">
        <ele>278.10</ele>
        <time>2014-02-23T08:22:25Z</time>
      </trkpt>
      <trkpt lat="41.615703490" lon="2.506666810">
        <ele>278.20</ele>
        <time>2014-02-23T08:22:26Z</time>
      </trkpt>
      <trkpt lat="41.615706680" lon="2.506646700">
        <ele>278.30</ele>
        <time>2014-02-23T08:22:27Z</time>
      </trkpt>
      <trkpt lat="41.615708350" lon="2.506626750">
        <ele>278.30</ele>
        <time>2014-02-23T08:22:28Z</time>
      </trkpt>
      <trkpt lat="41.615711710" lon="2.506610150">
        <ele>278.80</ele>
        <time>2014-02-23T08:22:29Z</time>
      </trkpt>
      <trkpt lat="41.615715060" lon="2.506595060">
        <ele>279.10</ele>
        <time>2014-02-23T08:22:30Z</time>
      </trkpt>
      <trkpt lat="41.615716740" lon="2.506576790">
        <ele>279.60</ele>
        <time>2014-02-23T08:22:31Z</time>
      </trkpt>
      <trkpt lat="41.615720090" lon="2.506561700">
        <ele>279.90</ele>
        <time>2014-02-23T08:22:32Z</time>
      </trkpt>
      <trkpt lat="41.615725120" lon="2.506546780">
        <ele>280.20</ele>
        <time>2014-02-23T08:22:33Z</time>
      </trkpt>
      <trkpt lat="41.615728470" lon="2.506531700">
        <ele>280.50</ele>
        <time>2014-02-23T08:22:34Z</time>
      </trkpt>
      <trkpt lat="41.615731820" lon="2.506516780">
        <ele>280.70</ele>
        <time>2014-02-23T08:22:35Z</time>
      </trkpt>
      <trkpt lat="41.615735010" lon="2.506505040">
        <ele>281.10</ele>
        <time>2014-02-23T08:22:36Z</time>
      </trkpt>
      <trkpt lat="41.615740040" lon="2.506490120">
        <ele>281.40</ele>
        <time>2014-02-23T08:22:37Z</time>
      </trkpt>
      <trkpt lat="41.615745070" lon="2.506473360">
        <ele>281.70</ele>
        <time>2014-02-23T08:22:38Z</time>
      </trkpt>
      <trkpt lat="41.615750100" lon="2.506456760">
        <ele>282.00</ele>
        <time>2014-02-23T08:22:39Z</time>
      </trkpt>
      <trkpt lat="41.615756800" lon="2.506441670">
        <ele>282.10</ele>
        <time>2014-02-23T08:22:40Z</time>
      </trkpt>
      <trkpt lat="41.615761660" lon="2.506425080">
        <ele>282.60</ele>
        <time>2014-02-23T08:22:41Z</time>
      </trkpt>
      <trkpt lat="41.615768370" lon="2.506410160">
        <ele>282.90</ele>
        <time>2014-02-23T08:22:42Z</time>
      </trkpt>
      <trkpt lat="41.615775070" lon="2.506391720">
        <ele>283.30</ele>
        <time>2014-02-23T08:22:43Z</time>
      </trkpt>
      <trkpt lat="41.615781780" lon="2.506375120">
        <ele>283.60</ele>
        <time>2014-02-23T08:22:44Z</time>
      </trkpt>
      <trkpt lat="41.615788480" lon="2.506356680">
        <ele>284.10</ele>
        <time>2014-02-23T08:22:45Z</time>
      </trkpt>
      <trkpt lat="41.615796700" lon="2.506340090">
        <ele>284.50</ele>
        <time>2014-02-23T08:22:46Z</time>
      </trkpt>
      <trkpt lat="41.615803400" lon="2.506321810">
        <ele>284.90</ele>
        <time>2014-02-23T08:22:47Z</time>
      </trkpt>
      <trkpt lat="41.615813460" lon="2.506308400">
        <ele>284.80</ele>
        <time>2014-02-23T08:22:48Z</time>
      </trkpt>
      <trkpt lat="41.615820000" lon="2.506293480">
        <ele>284.80</ele>
        <time>2014-02-23T08:22:49Z</time>
      </trkpt>
      <trkpt lat="41.615825030" lon="2.506276720">
        <ele>284.90</ele>
        <time>2014-02-23T08:22:50Z</time>
      </trkpt>
      <trkpt lat="41.615833410" lon="2.506260120">
        <ele>285.00</ele>
        <time>2014-02-23T08:22:51Z</time>
      </trkpt>
      <trkpt lat="41.615838440" lon="2.506243360">
        <ele>285.10</ele>
        <time>2014-02-23T08:22:52Z</time>
      </trkpt>
      <trkpt lat="41.615843470" lon="2.506225090">
        <ele>285.40</ele>
        <time>2014-02-23T08:22:53Z</time>
      </trkpt>
      <trkpt lat="41.615848330" lon="2.506210000">
        <ele>285.60</ele>
        <time>2014-02-23T08:22:54Z</time>
      </trkpt>
      <trkpt lat="41.615853360" lon="2.506191730">
        <ele>285.50</ele>
        <time>2014-02-23T08:22:55Z</time>
      </trkpt>
      <trkpt lat="41.615860070" lon="2.506175130">
        <ele>285.50</ele>
        <time>2014-02-23T08:22:56Z</time>
      </trkpt>
      <trkpt lat="41.615865100" lon="2.506156690">
        <ele>285.90</ele>
        <time>2014-02-23T08:22:57Z</time>
      </trkpt>
      <trkpt lat="41.615871800" lon="2.506138420">
        <ele>286.30</ele>
        <time>2014-02-23T08:22:58Z</time>
      </trkpt>
      <trkpt lat="41.615876660" lon="2.506120140">
        <ele>286.60</ele>
        <time>2014-02-23T08:22:59Z</time>
      </trkpt>
      <trkpt lat="41.615885040" lon="2.506101700">
        <ele>286.70</ele>
        <time>2014-02-23T08:23:00Z</time>
      </trkpt>
      <trkpt lat="41.615893430" lon="2.506085110">
        <ele>286.80</ele>
        <time>2014-02-23T08:23:01Z</time>
      </trkpt>
      <trkpt lat="41.615903480" lon="2.506066670">
        <ele>287.40</ele>
        <time>2014-02-23T08:23:02Z</time>
      </trkpt>
      <trkpt lat="41.615911700" lon="2.506050070">
        <ele>287.90</ele>
        <time>2014-02-23T08:23:03Z</time>
      </trkpt>
      <trkpt lat="41.615918400" lon="2.506031800">
        <ele>288.30</ele>
        <time>2014-02-23T08:23:04Z</time>
      </trkpt>
      <trkpt lat="41.615926790" lon="2.506011680">
        <ele>288.30</ele>
        <time>2014-02-23T08:23:05Z</time>
      </trkpt>
      <trkpt lat="41.615933490" lon="2.505995090">
        <ele>288.20</ele>
        <time>2014-02-23T08:23:06Z</time>
      </trkpt>
      <trkpt lat="41.615940030" lon="2.505976810">
        <ele>288.30</ele>
        <time>2014-02-23T08:23:07Z</time>
      </trkpt>
      <trkpt lat="41.615945060" lon="2.505958370">
        <ele>288.30</ele>
        <time>2014-02-23T08:23:08Z</time>
      </trkpt>
      <trkpt lat="41.615951760" lon="2.505941780">
        <ele>288.80</ele>
        <time>2014-02-23T08:23:09Z</time>
      </trkpt>
      <trkpt lat="41.615956790" lon="2.505928370">
        <ele>289.10</ele>
        <time>2014-02-23T08:23:10Z</time>
      </trkpt>
      <trkpt lat="41.615960150" lon="2.505913450">
        <ele>289.30</ele>
        <time>2014-02-23T08:23:11Z</time>
      </trkpt>
      <trkpt lat="41.615965010" lon="2.505896680">
        <ele>289.60</ele>
        <time>2014-02-23T08:23:12Z</time>
      </trkpt>
      <trkpt lat="41.615970040" lon="2.505878410">
        <ele>289.80</ele>
        <time>2014-02-23T08:23:13Z</time>
      </trkpt>
      <trkpt lat="41.615975070" lon="2.505860140">
        <ele>289.90</ele>
        <time>2014-02-23T08:23:14Z</time>
      </trkpt>
      <trkpt lat="41.615981770" lon="2.505843370">
        <ele>290.10</ele>
        <time>2014-02-23T08:23:15Z</time>
      </trkpt>
      <trkpt lat="41.615988480" lon="2.505825100">
        <ele>290.40</ele>
        <time>2014-02-23T08:23:16Z</time>
      </trkpt>
      <trkpt lat="41.615995010" lon="2.505806830">
        <ele>290.70</ele>
        <time>2014-02-23T08:23:17Z</time>
      </trkpt>
      <trkpt lat="41.616000040" lon="2.505788390">
        <ele>290.90</ele>
        <time>2014-02-23T08:23:18Z</time>
      </trkpt>
      <trkpt lat="41.616005070" lon="2.505770120">
        <ele>291.10</ele>
        <time>2014-02-23T08:23:19Z</time>
      </trkpt>
      <trkpt lat="41.616010100" lon="2.505750000">
        <ele>291.30</ele>
        <time>2014-02-23T08:23:20Z</time>
      </trkpt>
      <trkpt lat="41.616013450" lon="2.505731730">
        <ele>291.50</ele>
        <time>2014-02-23T08:23:21Z</time>
      </trkpt>
      <trkpt lat="41.616020160" lon="2.505715130">
        <ele>291.70</ele>
        <time>2014-02-23T08:23:22Z</time>
      </trkpt>
      <trkpt lat="41.616026700" lon="2.505696690">
        <ele>291.90</ele>
        <time>2014-02-23T08:23:23Z</time>
      </trkpt>
      <trkpt lat="41.616031730" lon="2.505678420">
        <ele>292.10</ele>
        <time>2014-02-23T08:23:24Z</time>
      </trkpt>
      <trkpt lat="41.616038430" lon="2.505661820">
        <ele>292.20</ele>
        <time>2014-02-23T08:23:25Z</time>
      </trkpt>
      <trkpt lat="41.616043460" lon="2.505643380">
        <ele>292.60</ele>
        <time>2014-02-23T08:23:26Z</time>
      </trkpt>
      <trkpt lat="41.616048490" lon="2.505625110">
        <ele>292.90</ele>
        <time>2014-02-23T08:23:27Z</time>
      </trkpt>
      <trkpt lat="41.616053350" lon="2.505606670">
        <ele>292.80</ele>
        <time>2014-02-23T08:23:28Z</time>
      </trkpt>
      <trkpt lat="41.616058380" lon="2.505588400">
        <ele>292.80</ele>
        <time>2014-02-23T08:23:29Z</time>
      </trkpt>
      <trkpt lat="41.616063410" lon="2.505568450">
        <ele>292.80</ele>
        <time>2014-02-23T08:23:30Z</time>
      </trkpt>
      <trkpt lat="41.616068440" lon="2.505550010">
        <ele>293.20</ele>
        <time>2014-02-23T08:23:31Z</time>
      </trkpt>
      <trkpt lat="41.616071790" lon="2.505530060">
        <ele>293.40</ele>
        <time>2014-02-23T08:23:32Z</time>
      </trkpt>
      <trkpt lat="41.616078330" lon="2.505513460">
        <ele>294.00</ele>
        <time>2014-02-23T08:23:33Z</time>
      </trkpt>
      <trkpt lat="41.616085040" lon="2.505496700">
        <ele>294.50</ele>
        <time>2014-02-23T08:23:34Z</time>
      </trkpt>
      <trkpt lat="41.616091740" lon="2.505478430">
        <ele>294.70</ele>
        <time>2014-02-23T08:23:35Z</time>
      </trkpt>
      <trkpt lat="41.616100120" lon="2.505460150">
        <ele>294.90</ele>
        <time>2014-02-23T08:23:36Z</time>
      </trkpt>
      <trkpt lat="41.616106830" lon="2.505441710">
        <ele>295.00</ele>
        <time>2014-02-23T08:23:37Z</time>
      </trkpt>
      <trkpt lat="41.616113370" lon="2.505425120">
        <ele>295.40</ele>
        <time>2014-02-23T08:23:38Z</time>
      </trkpt>
      <trkpt lat="41.616120070" lon="2.505406680">
        <ele>295.70</ele>
        <time>2014-02-23T08:23:39Z</time>
      </trkpt>
      <trkpt lat="41.616126780" lon="2.505388400">
        <ele>296.20</ele>
        <time>2014-02-23T08:23:40Z</time>
      </trkpt>
      <trkpt lat="41.616133480" lon="2.505371810">
        <ele>296.50</ele>
        <time>2014-02-23T08:23:41Z</time>
      </trkpt>
      <trkpt lat="41.616138350" lon="2.505353370">
        <ele>296.50</ele>
        <time>2014-02-23T08:23:42Z</time>
      </trkpt>
      <trkpt lat="41.616141700" lon="2.505335090">
        <ele>296.50</ele>
        <time>2014-02-23T08:23:43Z</time>
      </trkpt>
      <trkpt lat="41.616145050" lon="2.505315150">
        <ele>296.50</ele>
        <time>2014-02-23T08:23:44Z</time>
      </trkpt>
      <trkpt lat="41.616146730" lon="2.505296710">
        <ele>296.70</ele>
        <time>2014-02-23T08:23:45Z</time>
      </trkpt>
      <trkpt lat="41.616146730" lon="2.505275080">
        <ele>296.90</ele>
        <time>2014-02-23T08:23:46Z</time>
      </trkpt>
      <trkpt lat="41.616150080" lon="2.505250100">
        <ele>297.10</ele>
        <time>2014-02-23T08:23:47Z</time>
      </trkpt>
      <trkpt lat="41.616150080" lon="2.505226800">
        <ele>297.30</ele>
        <time>2014-02-23T08:23:48Z</time>
      </trkpt>
      <trkpt lat="41.616150080" lon="2.505205010">
        <ele>297.40</ele>
        <time>2014-02-23T08:23:49Z</time>
      </trkpt>
      <trkpt lat="41.616150080" lon="2.505185060">
        <ele>297.60</ele>
        <time>2014-02-23T08:23:50Z</time>
      </trkpt>
      <trkpt lat="41.616148400" lon="2.505166790">
        <ele>297.60</ele>
        <time>2014-02-23T08:23:51Z</time>
      </trkpt>
      <trkpt lat="41.616145050" lon="2.505148350">
        <ele>298.30</ele>
        <time>2014-02-23T08:23:52Z</time>
      </trkpt>
      <trkpt lat="41.616140020" lon="2.505128400">
        <ele>298.80</ele>
        <time>2014-02-23T08:23:53Z</time>
      </trkpt>
      <trkpt lat="41.616140020" lon="2.505106770">
        <ele>298.90</ele>
        <time>2014-02-23T08:23:54Z</time>
      </trkpt>
      <trkpt lat="41.616140020" lon="2.505083470">
        <ele>298.90</ele>
        <time>2014-02-23T08:23:55Z</time>
      </trkpt>
      <trkpt lat="41.616140020" lon="2.505060000">
        <ele>298.90</ele>
        <time>2014-02-23T08:23:56Z</time>
      </trkpt>
      <trkpt lat="41.616138350" lon="2.505035020">
        <ele>299.20</ele>
        <time>2014-02-23T08:23:57Z</time>
      </trkpt>
      <trkpt lat="41.616135160" lon="2.505013400">
        <ele>299.40</ele>
        <time>2014-02-23T08:23:58Z</time>
      </trkpt>
      <trkpt lat="41.616126780" lon="2.504993450">
        <ele>299.50</ele>
        <time>2014-02-23T08:23:59Z</time>
      </trkpt>
      <trkpt lat="41.616118400" lon="2.504973330">
        <ele>299.60</ele>
        <time>2014-02-23T08:24:00Z</time>
      </trkpt>
      <trkpt lat="41.616108340" lon="2.504956740">
        <ele>299.70</ele>
        <time>2014-02-23T08:24:01Z</time>
      </trkpt>
      <trkpt lat="41.616096770" lon="2.504940140">
        <ele>299.80</ele>
        <time>2014-02-23T08:24:02Z</time>
      </trkpt>
      <trkpt lat="41.616085040" lon="2.504928410">
        <ele>299.80</ele>
        <time>2014-02-23T08:24:03Z</time>
      </trkpt>
      <trkpt lat="41.616071790" lon="2.504916670">
        <ele>299.90</ele>
        <time>2014-02-23T08:24:04Z</time>
      </trkpt>
      <trkpt lat="41.616058380" lon="2.504908460">
        <ele>300.00</ele>
        <time>2014-02-23T08:24:05Z</time>
      </trkpt>
      <trkpt lat="41.616045140" lon="2.504900070">
        <ele>300.50</ele>
        <time>2014-02-23T08:24:06Z</time>
      </trkpt>
      <trkpt lat="41.616031730" lon="2.504893370">
        <ele>300.80</ele>
        <time>2014-02-23T08:24:07Z</time>
      </trkpt>
      <trkpt lat="41.616016810" lon="2.504886660">
        <ele>300.80</ele>
        <time>2014-02-23T08:24:08Z</time>
      </trkpt>
      <trkpt lat="41.616003400" lon="2.504883480">
        <ele>300.70</ele>
        <time>2014-02-23T08:24:09Z</time>
      </trkpt>
      <trkpt lat="41.615988480" lon="2.504880130">
        <ele>300.60</ele>
        <time>2014-02-23T08:24:10Z</time>
      </trkpt>
      <trkpt lat="41.615973390" lon="2.504876770">
        <ele>301.20</ele>
        <time>2014-02-23T08:24:11Z</time>
      </trkpt>
      <trkpt lat="41.615958470" lon="2.504875100">
        <ele>301.60</ele>
        <time>2014-02-23T08:24:12Z</time>
      </trkpt>
      <trkpt lat="41.615943380" lon="2.504871740">
        <ele>301.70</ele>
        <time>2014-02-23T08:24:13Z</time>
      </trkpt>
      <trkpt lat="41.615928460" lon="2.504868390">
        <ele>301.70</ele>
        <time>2014-02-23T08:24:14Z</time>
      </trkpt>
      <trkpt lat="41.615913370" lon="2.504866710">
        <ele>301.80</ele>
        <time>2014-02-23T08:24:15Z</time>
      </trkpt>
      <trkpt lat="41.615898460" lon="2.504866710">
        <ele>302.00</ele>
        <time>2014-02-23T08:24:16Z</time>
      </trkpt>
      <trkpt lat="41.615883370" lon="2.504865040">
        <ele>302.20</ele>
        <time>2014-02-23T08:24:17Z</time>
      </trkpt>
      <trkpt lat="41.615868450" lon="2.504865040">
        <ele>302.20</ele>
        <time>2014-02-23T08:24:18Z</time>
      </trkpt>
      <trkpt lat="41.615851680" lon="2.504866710">
        <ele>302.10</ele>
        <time>2014-02-23T08:24:19Z</time>
      </trkpt>
      <trkpt lat="41.615836760" lon="2.504868390">
        <ele>302.60</ele>
        <time>2014-02-23T08:24:20Z</time>
      </trkpt>
      <trkpt lat="41.615821680" lon="2.504871740">
        <ele>303.00</ele>
        <time>2014-02-23T08:24:21Z</time>
      </trkpt>
      <trkpt lat="41.615805080" lon="2.504871740">
        <ele>303.20</ele>
        <time>2014-02-23T08:24:22Z</time>
      </trkpt>
      <trkpt lat="41.615790160" lon="2.504870070">
        <ele>303.30</ele>
        <time>2014-02-23T08:24:23Z</time>
      </trkpt>
      <trkpt lat="41.615773400" lon="2.504868390">
        <ele>303.30</ele>
        <time>2014-02-23T08:24:24Z</time>
      </trkpt>
      <trkpt lat="41.615758480" lon="2.504868390">
        <ele>303.50</ele>
        <time>2014-02-23T08:24:25Z</time>
      </trkpt>
      <trkpt lat="41.615741710" lon="2.504868390">
        <ele>303.60</ele>
        <time>2014-02-23T08:24:26Z</time>
      </trkpt>
      <trkpt lat="41.615725120" lon="2.504866710">
        <ele>303.70</ele>
        <time>2014-02-23T08:24:27Z</time>
      </trkpt>
      <trkpt lat="41.615710030" lon="2.504868390">
        <ele>303.80</ele>
        <time>2014-02-23T08:24:28Z</time>
      </trkpt>
      <trkpt lat="41.615695110" lon="2.504868390">
        <ele>303.80</ele>
        <time>2014-02-23T08:24:29Z</time>
      </trkpt>
      <trkpt lat="41.615680020" lon="2.504870070">
        <ele>304.30</ele>
        <time>2014-02-23T08:24:30Z</time>
      </trkpt>
      <trkpt lat="41.615665100" lon="2.504870070">
        <ele>304.70</ele>
        <time>2014-02-23T08:24:31Z</time>
      </trkpt>
      <trkpt lat="41.615650020" lon="2.504871740">
        <ele>304.80</ele>
        <time>2014-02-23T08:24:32Z</time>
      </trkpt>
      <trkpt lat="41.615635100" lon="2.504873420">
        <ele>304.90</ele>
        <time>2014-02-23T08:24:33Z</time>
      </trkpt>
      <trkpt lat="41.615620010" lon="2.504875100">
        <ele>305.00</ele>
        <time>2014-02-23T08:24:34Z</time>
      </trkpt>
      <trkpt lat="41.615606760" lon="2.504875100">
        <ele>305.00</ele>
        <time>2014-02-23T08:24:35Z</time>
      </trkpt>
      <trkpt lat="41.615591680" lon="2.504876770">
        <ele>305.00</ele>
        <time>2014-02-23T08:24:36Z</time>
      </trkpt>
      <trkpt lat="41.615578430" lon="2.504880130">
        <ele>305.00</ele>
        <time>2014-02-23T08:24:37Z</time>
      </trkpt>
      <trkpt lat="41.615563350" lon="2.504883480">
        <ele>305.10</ele>
        <time>2014-02-23T08:24:38Z</time>
      </trkpt>
      <trkpt lat="41.615550100" lon="2.504883480">
        <ele>305.30</ele>
        <time>2014-02-23T08:24:39Z</time>
      </trkpt>
      <trkpt lat="41.615535020" lon="2.504883480">
        <ele>305.40</ele>
        <time>2014-02-23T08:24:40Z</time>
      </trkpt>
      <trkpt lat="41.615521770" lon="2.504885150">
        <ele>305.50</ele>
        <time>2014-02-23T08:24:41Z</time>
      </trkpt>
      <trkpt lat="41.615508360" lon="2.504885150">
        <ele>305.90</ele>
        <time>2014-02-23T08:24:42Z</time>
      </trkpt>
      <trkpt lat="41.615495120" lon="2.504881800">
        <ele>306.10</ele>
        <time>2014-02-23T08:24:43Z</time>
      </trkpt>
      <trkpt lat="41.615481710" lon="2.504880130">
        <ele>306.50</ele>
        <time>2014-02-23T08:24:44Z</time>
      </trkpt>
      <trkpt lat="41.615468460" lon="2.504875100">
        <ele>306.70</ele>
        <time>2014-02-23T08:24:45Z</time>
      </trkpt>
      <trkpt lat="41.615455050" lon="2.504868390">
        <ele>306.90</ele>
        <time>2014-02-23T08:24:46Z</time>
      </trkpt>
      <trkpt lat="41.615441810" lon="2.504858330">
        <ele>307.30</ele>
        <time>2014-02-23T08:24:47Z</time>
      </trkpt>
      <trkpt lat="41.615428400" lon="2.504845090">
        <ele>307.50</ele>
        <time>2014-02-23T08:24:48Z</time>
      </trkpt>
      <trkpt lat="41.615418340" lon="2.504830000">
        <ele>307.30</ele>
        <time>2014-02-23T08:24:49Z</time>
      </trkpt>
      <trkpt lat="41.615410130" lon="2.504811730">
        <ele>307.20</ele>
        <time>2014-02-23T08:24:50Z</time>
      </trkpt>
      <trkpt lat="41.615401740" lon="2.504793460">
        <ele>307.50</ele>
        <time>2014-02-23T08:24:51Z</time>
      </trkpt>
      <trkpt lat="41.615395040" lon="2.504775020">
        <ele>307.80</ele>
        <time>2014-02-23T08:24:52Z</time>
      </trkpt>
      <trkpt lat="41.615390010" lon="2.504755070">
        <ele>308.00</ele>
        <time>2014-02-23T08:24:53Z</time>
      </trkpt>
      <trkpt lat="41.615385150" lon="2.504733440">
        <ele>307.90</ele>
        <time>2014-02-23T08:24:54Z</time>
      </trkpt>
      <trkpt lat="41.615383470" lon="2.504710140">
        <ele>307.90</ele>
        <time>2014-02-23T08:24:55Z</time>
      </trkpt>
      <trkpt lat="41.615381790" lon="2.504690020">
        <ele>308.60</ele>
        <time>2014-02-23T08:24:56Z</time>
      </trkpt>
      <trkpt lat="41.615380120" lon="2.504671750">
        <ele>309.10</ele>
        <time>2014-02-23T08:24:57Z</time>
      </trkpt>
      <trkpt lat="41.615380120" lon="2.504651800">
        <ele>309.30</ele>
        <time>2014-02-23T08:24:58Z</time>
      </trkpt>
      <trkpt lat="41.615381790" lon="2.504633360">
        <ele>309.40</ele>
        <time>2014-02-23T08:24:59Z</time>
      </trkpt>
      <trkpt lat="41.615380120" lon="2.504613410">
        <ele>309.50</ele>
        <time>2014-02-23T08:25:00Z</time>
      </trkpt>
      <trkpt lat="41.615381790" lon="2.504595140">
        <ele>309.90</ele>
        <time>2014-02-23T08:25:01Z</time>
      </trkpt>
      <trkpt lat="41.615383470" lon="2.504576700">
        <ele>310.20</ele>
        <time>2014-02-23T08:25:02Z</time>
      </trkpt>
      <trkpt lat="41.615383470" lon="2.504558430">
        <ele>310.30</ele>
        <time>2014-02-23T08:25:03Z</time>
      </trkpt>
      <trkpt lat="41.615386820" lon="2.504538480">
        <ele>310.40</ele>
        <time>2014-02-23T08:25:04Z</time>
      </trkpt>
      <trkpt lat="41.615386820" lon="2.504518360">
        <ele>310.50</ele>
        <time>2014-02-23T08:25:05Z</time>
      </trkpt>
      <trkpt lat="41.615386820" lon="2.504500090">
        <ele>310.80</ele>
        <time>2014-02-23T08:25:06Z</time>
      </trkpt>
      <trkpt lat="41.615385150" lon="2.504480140">
        <ele>311.10</ele>
        <time>2014-02-23T08:25:07Z</time>
      </trkpt>
      <trkpt lat="41.615385150" lon="2.504460020">
        <ele>311.50</ele>
        <time>2014-02-23T08:25:08Z</time>
      </trkpt>
      <trkpt lat="41.615386820" lon="2.504441750">
        <ele>311.80</ele>
        <time>2014-02-23T08:25:09Z</time>
      </trkpt>
      <trkpt lat="41.615386820" lon="2.504421800">
        <ele>311.70</ele>
        <time>2014-02-23T08:25:10Z</time>
      </trkpt>
      <trkpt lat="41.615386820" lon="2.504403360">
        <ele>311.60</ele>
        <time>2014-02-23T08:25:11Z</time>
      </trkpt>
      <trkpt lat="41.615386820" lon="2.504383410">
        <ele>311.50</ele>
        <time>2014-02-23T08:25:12Z</time>
      </trkpt>
      <trkpt lat="41.615386820" lon="2.504363460">
        <ele>312.40</ele>
        <time>2014-02-23T08:25:13Z</time>
      </trkpt>
      <trkpt lat="41.615388330" lon="2.504345020">
        <ele>313.00</ele>
        <time>2014-02-23T08:25:14Z</time>
      </trkpt>
      <trkpt lat="41.615391690" lon="2.504326750">
        <ele>313.10</ele>
        <time>2014-02-23T08:25:15Z</time>
      </trkpt>
      <trkpt lat="41.615393360" lon="2.504308480">
        <ele>313.20</ele>
        <time>2014-02-23T08:25:16Z</time>
      </trkpt>
      <trkpt lat="41.615398390" lon="2.504290040">
        <ele>313.50</ele>
        <time>2014-02-23T08:25:17Z</time>
      </trkpt>
      <trkpt lat="41.615401740" lon="2.504271770">
        <ele>313.80</ele>
        <time>2014-02-23T08:25:18Z</time>
      </trkpt>
      <trkpt lat="41.615405100" lon="2.504251820">
        <ele>314.00</ele>
        <time>2014-02-23T08:25:19Z</time>
      </trkpt>
      <trkpt lat="41.615408450" lon="2.504231700">
        <ele>314.40</ele>
        <time>2014-02-23T08:25:20Z</time>
      </trkpt>
      <trkpt lat="41.615410130" lon="2.504213430">
        <ele>314.60</ele>
        <time>2014-02-23T08:25:21Z</time>
      </trkpt>
      <trkpt lat="41.615411800" lon="2.504195160">
        <ele>314.80</ele>
        <time>2014-02-23T08:25:22Z</time>
      </trkpt>
      <trkpt lat="41.615413480" lon="2.504176720">
        <ele>314.80</ele>
        <time>2014-02-23T08:25:23Z</time>
      </trkpt>
      <trkpt lat="41.615415150" lon="2.504158440">
        <ele>314.90</ele>
        <time>2014-02-23T08:25:24Z</time>
      </trkpt>
      <trkpt lat="41.615416660" lon="2.504140000">
        <ele>314.90</ele>
        <time>2014-02-23T08:25:25Z</time>
      </trkpt>
      <trkpt lat="41.615418340" lon="2.504121730">
        <ele>315.00</ele>
        <time>2014-02-23T08:25:26Z</time>
      </trkpt>
      <trkpt lat="41.615418340" lon="2.504101780">
        <ele>315.50</ele>
        <time>2014-02-23T08:25:27Z</time>
      </trkpt>
      <trkpt lat="41.615420020" lon="2.504083340">
        <ele>315.90</ele>
        <time>2014-02-23T08:25:28Z</time>
      </trkpt>
      <trkpt lat="41.615420020" lon="2.504063390">
        <ele>316.20</ele>
        <time>2014-02-23T08:25:29Z</time>
      </trkpt>
      <trkpt lat="41.615420020" lon="2.504043440">
        <ele>316.40</ele>
        <time>2014-02-23T08:25:30Z</time>
      </trkpt>
      <trkpt lat="41.615420020" lon="2.504023490">
        <ele>316.60</ele>
        <time>2014-02-23T08:25:31Z</time>
      </trkpt>
      <trkpt lat="41.615421690" lon="2.504003380">
        <ele>317.00</ele>
        <time>2014-02-23T08:25:32Z</time>
      </trkpt>
      <trkpt lat="41.615425050" lon="2.503985110">
        <ele>317.40</ele>
        <time>2014-02-23T08:25:33Z</time>
      </trkpt>
      <trkpt lat="41.615426720" lon="2.503966670">
        <ele>318.00</ele>
        <time>2014-02-23T08:25:34Z</time>
      </trkpt>
      <trkpt lat="41.615428400" lon="2.503946720">
        <ele>318.40</ele>
        <time>2014-02-23T08:25:35Z</time>
      </trkpt>
      <trkpt lat="41.615428400" lon="2.503926770">
        <ele>318.70</ele>
        <time>2014-02-23T08:25:36Z</time>
      </trkpt>
      <trkpt lat="41.615430070" lon="2.503908500">
        <ele>318.80</ele>
        <time>2014-02-23T08:25:37Z</time>
      </trkpt>
      <trkpt lat="41.615430070" lon="2.503890050">
        <ele>319.00</ele>
        <time>2014-02-23T08:25:38Z</time>
      </trkpt>
      <trkpt lat="41.615431750" lon="2.503871780">
        <ele>318.80</ele>
        <time>2014-02-23T08:25:39Z</time>
      </trkpt>
      <trkpt lat="41.615431750" lon="2.503851670">
        <ele>318.70</ele>
        <time>2014-02-23T08:25:40Z</time>
      </trkpt>
      <trkpt lat="41.615431750" lon="2.503833390">
        <ele>319.40</ele>
        <time>2014-02-23T08:25:41Z</time>
      </trkpt>
      <trkpt lat="41.615433430" lon="2.503815120">
        <ele>319.80</ele>
        <time>2014-02-23T08:25:42Z</time>
      </trkpt>
      <trkpt lat="41.615433430" lon="2.503796680">
        <ele>320.20</ele>
        <time>2014-02-23T08:25:43Z</time>
      </trkpt>
      <trkpt lat="41.615430070" lon="2.503776730">
        <ele>320.50</ele>
        <time>2014-02-23T08:25:44Z</time>
      </trkpt>
      <trkpt lat="41.615428400" lon="2.503758460">
        <ele>320.70</ele>
        <time>2014-02-23T08:25:45Z</time>
      </trkpt>
      <trkpt lat="41.615428400" lon="2.503740020">
        <ele>320.70</ele>
        <time>2014-02-23T08:25:46Z</time>
      </trkpt>
      <trkpt lat="41.615426720" lon="2.503721750">
        <ele>320.70</ele>
        <time>2014-02-23T08:25:47Z</time>
      </trkpt>
      <trkpt lat="41.615425050" lon="2.503703470">
        <ele>321.30</ele>
        <time>2014-02-23T08:25:48Z</time>
      </trkpt>
      <trkpt lat="41.615423370" lon="2.503685030">
        <ele>321.80</ele>
        <time>2014-02-23T08:25:49Z</time>
      </trkpt>
      <trkpt lat="41.615423370" lon="2.503665080">
        <ele>322.10</ele>
        <time>2014-02-23T08:25:50Z</time>
      </trkpt>
      <trkpt lat="41.615421690" lon="2.503646810">
        <ele>322.40</ele>
        <time>2014-02-23T08:25:51Z</time>
      </trkpt>
      <trkpt lat="41.615418340" lon="2.503628370">
        <ele>322.60</ele>
        <time>2014-02-23T08:25:52Z</time>
      </trkpt>
      <trkpt lat="41.615418340" lon="2.503608420">
        <ele>322.70</ele>
        <time>2014-02-23T08:25:53Z</time>
      </trkpt>
      <trkpt lat="41.615418340" lon="2.503588470">
        <ele>322.90</ele>
        <time>2014-02-23T08:25:54Z</time>
      </trkpt>
      <trkpt lat="41.615415150" lon="2.503568360">
        <ele>322.80</ele>
        <time>2014-02-23T08:25:55Z</time>
      </trkpt>
      <trkpt lat="41.615411800" lon="2.503550080">
        <ele>322.70</ele>
        <time>2014-02-23T08:25:56Z</time>
      </trkpt>
      <trkpt lat="41.615408450" lon="2.503530140">
        <ele>322.70</ele>
        <time>2014-02-23T08:25:57Z</time>
      </trkpt>
      <trkpt lat="41.615403420" lon="2.503510020">
        <ele>323.30</ele>
        <time>2014-02-23T08:25:58Z</time>
      </trkpt>
      <trkpt lat="41.615400070" lon="2.503490070">
        <ele>323.80</ele>
        <time>2014-02-23T08:25:59Z</time>
      </trkpt>
      <trkpt lat="41.615396710" lon="2.503470120">
        <ele>323.90</ele>
        <time>2014-02-23T08:26:00Z</time>
      </trkpt>
      <trkpt lat="41.615395040" lon="2.503450000">
        <ele>324.10</ele>
        <time>2014-02-23T08:26:01Z</time>
      </trkpt>
      <trkpt lat="41.615393360" lon="2.503425030">
        <ele>324.50</ele>
        <time>2014-02-23T08:26:02Z</time>
      </trkpt>
      <trkpt lat="41.615390010" lon="2.503403400">
        <ele>324.80</ele>
        <time>2014-02-23T08:26:03Z</time>
      </trkpt>
      <trkpt lat="41.615386820" lon="2.503380100">
        <ele>325.00</ele>
        <time>2014-02-23T08:26:04Z</time>
      </trkpt>
      <trkpt lat="41.615385150" lon="2.503356800">
        <ele>324.80</ele>
        <time>2014-02-23T08:26:05Z</time>
      </trkpt>
      <trkpt lat="41.615381790" lon="2.503331820">
        <ele>324.70</ele>
        <time>2014-02-23T08:26:06Z</time>
      </trkpt>
      <trkpt lat="41.615378440" lon="2.503308350">
        <ele>325.00</ele>
        <time>2014-02-23T08:26:07Z</time>
      </trkpt>
      <trkpt lat="41.615373410" lon="2.503286730">
        <ele>325.30</ele>
        <time>2014-02-23T08:26:08Z</time>
      </trkpt>
      <trkpt lat="41.615366710" lon="2.503260070">
        <ele>325.40</ele>
        <time>2014-02-23T08:26:09Z</time>
      </trkpt>
      <trkpt lat="41.615358490" lon="2.503228390">
        <ele>325.50</ele>
        <time>2014-02-23T08:26:10Z</time>
      </trkpt>
      <trkpt lat="41.615346760" lon="2.503196700">
        <ele>325.60</ele>
        <time>2014-02-23T08:26:11Z</time>
      </trkpt>
      <trkpt lat="41.615335020" lon="2.503166700">
        <ele>325.50</ele>
        <time>2014-02-23T08:26:12Z</time>
      </trkpt>
      <trkpt lat="41.615321780" lon="2.503138370">
        <ele>325.40</ele>
        <time>2014-02-23T08:26:13Z</time>
      </trkpt>
      <trkpt lat="41.615310050" lon="2.503110030">
        <ele>325.30</ele>
        <time>2014-02-23T08:26:14Z</time>
      </trkpt>
      <trkpt lat="41.615296800" lon="2.503083380">
        <ele>325.20</ele>
        <time>2014-02-23T08:26:15Z</time>
      </trkpt>
      <trkpt lat="41.615280040" lon="2.503056730">
        <ele>325.10</ele>
        <time>2014-02-23T08:26:16Z</time>
      </trkpt>
      <trkpt lat="41.615263440" lon="2.503031750">
        <ele>324.80</ele>
        <time>2014-02-23T08:26:17Z</time>
      </trkpt>
      <trkpt lat="41.615245000" lon="2.503003420">
        <ele>324.50</ele>
        <time>2014-02-23T08:26:18Z</time>
      </trkpt>
      <trkpt lat="41.615226730" lon="2.502975090">
        <ele>324.70</ele>
        <time>2014-02-23T08:26:19Z</time>
      </trkpt>
      <trkpt lat="41.615208460" lon="2.502945080">
        <ele>324.80</ele>
        <time>2014-02-23T08:26:20Z</time>
      </trkpt>
      <trkpt lat="41.615190020" lon="2.502916750">
        <ele>324.70</ele>
        <time>2014-02-23T08:26:21Z</time>
      </trkpt>
      <trkpt lat="41.615175100" lon="2.502885060">
        <ele>324.50</ele>
        <time>2014-02-23T08:26:22Z</time>
      </trkpt>
      <trkpt lat="41.615163360" lon="2.502853380">
        <ele>324.40</ele>
        <time>2014-02-23T08:26:23Z</time>
      </trkpt>
      <trkpt lat="41.615151800" lon="2.502821700">
        <ele>324.70</ele>
        <time>2014-02-23T08:26:24Z</time>
      </trkpt>
      <trkpt lat="41.615141740" lon="2.502790010">
        <ele>324.90</ele>
        <time>2014-02-23T08:26:25Z</time>
      </trkpt>
      <trkpt lat="41.615133360" lon="2.502758330">
        <ele>324.80</ele>
        <time>2014-02-23T08:26:26Z</time>
      </trkpt>
      <trkpt lat="41.615128490" lon="2.502725140">
        <ele>324.80</ele>
        <time>2014-02-23T08:26:27Z</time>
      </trkpt>
      <trkpt lat="41.615121790" lon="2.502691780">
        <ele>324.70</ele>
        <time>2014-02-23T08:26:28Z</time>
      </trkpt>
      <trkpt lat="41.615116760" lon="2.502658420">
        <ele>324.90</ele>
        <time>2014-02-23T08:26:29Z</time>
      </trkpt>
      <trkpt lat="41.615110050" lon="2.502626730">
        <ele>325.00</ele>
        <time>2014-02-23T08:26:30Z</time>
      </trkpt>
      <trkpt lat="41.615105020" lon="2.502596730">
        <ele>325.10</ele>
        <time>2014-02-23T08:26:31Z</time>
      </trkpt>
      <trkpt lat="41.615101670" lon="2.502566720">
        <ele>325.10</ele>
        <time>2014-02-23T08:26:32Z</time>
      </trkpt>
      <trkpt lat="41.615096810" lon="2.502538390">
        <ele>325.50</ele>
        <time>2014-02-23T08:26:33Z</time>
      </trkpt>
      <trkpt lat="41.615090100" lon="2.502511730">
        <ele>325.80</ele>
        <time>2014-02-23T08:26:34Z</time>
      </trkpt>
      <trkpt lat="41.615085080" lon="2.502483400">
        <ele>326.00</ele>
        <time>2014-02-23T08:26:35Z</time>
      </trkpt>
      <trkpt lat="41.615078370" lon="2.502456750">
        <ele>325.80</ele>
        <time>2014-02-23T08:26:36Z</time>
      </trkpt>
      <trkpt lat="41.615073340" lon="2.502430090">
        <ele>325.60</ele>
        <time>2014-02-23T08:26:37Z</time>
      </trkpt>
      <trkpt lat="41.615066800" lon="2.502403440">
        <ele>326.10</ele>
        <time>2014-02-23T08:26:38Z</time>
      </trkpt>
      <trkpt lat="41.615060100" lon="2.502376790">
        <ele>326.50</ele>
        <time>2014-02-23T08:26:39Z</time>
      </trkpt>
      <trkpt lat="41.615053390" lon="2.502351810">
        <ele>326.40</ele>
        <time>2014-02-23T08:26:40Z</time>
      </trkpt>
      <trkpt lat="41.615045010" lon="2.502326660">
        <ele>326.40</ele>
        <time>2014-02-23T08:26:41Z</time>
      </trkpt>
      <trkpt lat="41.615038470" lon="2.502301680">
        <ele>326.30</ele>
        <time>2014-02-23T08:26:42Z</time>
      </trkpt>
      <trkpt lat="41.615031770" lon="2.502276710">
        <ele>326.30</ele>
        <time>2014-02-23T08:26:43Z</time>
      </trkpt>
      <trkpt lat="41.615023380" lon="2.502253400">
        <ele>326.20</ele>
        <time>2014-02-23T08:26:44Z</time>
      </trkpt>
      <trkpt lat="41.615016680" lon="2.502230100">
        <ele>326.50</ele>
        <time>2014-02-23T08:26:45Z</time>
      </trkpt>
      <trkpt lat="41.615010140" lon="2.502205120">
        <ele>326.70</ele>
        <time>2014-02-23T08:26:46Z</time>
      </trkpt>
      <trkpt lat="41.615001760" lon="2.502181820">
        <ele>326.90</ele>
        <time>2014-02-23T08:26:47Z</time>
      </trkpt>
      <trkpt lat="41.614996730" lon="2.502160030">
        <ele>327.00</ele>
        <time>2014-02-23T08:26:48Z</time>
      </trkpt>
      <trkpt lat="41.614988350" lon="2.502136730">
        <ele>327.10</ele>
        <time>2014-02-23T08:26:49Z</time>
      </trkpt>
      <trkpt lat="41.614980130" lon="2.502113430">
        <ele>326.80</ele>
        <time>2014-02-23T08:26:50Z</time>
      </trkpt>
      <trkpt lat="41.614973430" lon="2.502090130">
        <ele>326.50</ele>
        <time>2014-02-23T08:26:51Z</time>
      </trkpt>
      <trkpt lat="41.614966720" lon="2.502068330">
        <ele>327.00</ele>
        <time>2014-02-23T08:26:52Z</time>
      </trkpt>
      <trkpt lat="41.614960020" lon="2.502045030">
        <ele>327.30</ele>
        <time>2014-02-23T08:26:53Z</time>
      </trkpt>
      <trkpt lat="41.614956660" lon="2.502021730">
        <ele>327.50</ele>
        <time>2014-02-23T08:26:54Z</time>
      </trkpt>
      <trkpt lat="41.614951800" lon="2.501998430">
        <ele>327.70</ele>
        <time>2014-02-23T08:26:55Z</time>
      </trkpt>
      <trkpt lat="41.614951800" lon="2.501973450">
        <ele>327.80</ele>
        <time>2014-02-23T08:26:56Z</time>
      </trkpt>
      <trkpt lat="41.614950130" lon="2.501948470">
        <ele>328.00</ele>
        <time>2014-02-23T08:26:57Z</time>
      </trkpt>
      <trkpt lat="41.614950130" lon="2.501923490">
        <ele>328.10</ele>
        <time>2014-02-23T08:26:58Z</time>
      </trkpt>
      <trkpt lat="41.614946770" lon="2.501896670">
        <ele>328.50</ele>
        <time>2014-02-23T08:26:59Z</time>
      </trkpt>
      <trkpt lat="41.614945100" lon="2.501871690">
        <ele>328.80</ele>
        <time>2014-02-23T08:27:00Z</time>
      </trkpt>
      <trkpt lat="41.614946770" lon="2.501845040">
        <ele>329.00</ele>
        <time>2014-02-23T08:27:01Z</time>
      </trkpt>
      <trkpt lat="41.614941740" lon="2.501820060">
        <ele>329.00</ele>
        <time>2014-02-23T08:27:02Z</time>
      </trkpt>
      <trkpt lat="41.614936720" lon="2.501791730">
        <ele>328.90</ele>
        <time>2014-02-23T08:27:03Z</time>
      </trkpt>
      <trkpt lat="41.614930010" lon="2.501760050">
        <ele>329.00</ele>
        <time>2014-02-23T08:27:04Z</time>
      </trkpt>
      <trkpt lat="41.614926820" lon="2.501725010">
        <ele>329.10</ele>
        <time>2014-02-23T08:27:05Z</time>
      </trkpt>
      <trkpt lat="41.614925150" lon="2.501688460">
        <ele>329.10</ele>
        <time>2014-02-23T08:27:06Z</time>
      </trkpt>
      <trkpt lat="41.614925150" lon="2.501650080">
        <ele>329.40</ele>
        <time>2014-02-23T08:27:07Z</time>
      </trkpt>
      <trkpt lat="41.614926820" lon="2.501613360">
        <ele>329.70</ele>
        <time>2014-02-23T08:27:08Z</time>
      </trkpt>
      <trkpt lat="41.614926820" lon="2.501576820">
        <ele>329.60</ele>
        <time>2014-02-23T08:27:09Z</time>
      </trkpt>
      <trkpt lat="41.614925150" lon="2.501541780">
        <ele>329.50</ele>
        <time>2014-02-23T08:27:10Z</time>
      </trkpt>
      <trkpt lat="41.614916770" lon="2.501508420">
        <ele>329.10</ele>
        <time>2014-02-23T08:27:11Z</time>
      </trkpt>
      <trkpt lat="41.614900000" lon="2.501480090">
        <ele>328.90</ele>
        <time>2014-02-23T08:27:12Z</time>
      </trkpt>
      <trkpt lat="41.614876700" lon="2.501460140">
        <ele>328.70</ele>
        <time>2014-02-23T08:27:13Z</time>
      </trkpt>
      <trkpt lat="41.614851720" lon="2.501446730">
        <ele>328.40</ele>
        <time>2014-02-23T08:27:14Z</time>
      </trkpt>
      <trkpt lat="41.614826750" lon="2.501440020">
        <ele>328.10</ele>
        <time>2014-02-23T08:27:15Z</time>
      </trkpt>
      <trkpt lat="41.614801770" lon="2.501440020">
        <ele>328.20</ele>
        <time>2014-02-23T08:27:16Z</time>
      </trkpt>
      <trkpt lat="41.614778470" lon="2.501441700">
        <ele>328.30</ele>
        <time>2014-02-23T08:27:17Z</time>
      </trkpt>
      <trkpt lat="41.614755000" lon="2.501441700">
        <ele>328.60</ele>
        <time>2014-02-23T08:27:18Z</time>
      </trkpt>
      <trkpt lat="41.614733370" lon="2.501440020">
        <ele>328.80</ele>
        <time>2014-02-23T08:27:19Z</time>
      </trkpt>
      <trkpt lat="41.614711750" lon="2.501435000">
        <ele>329.00</ele>
        <time>2014-02-23T08:27:20Z</time>
      </trkpt>
      <trkpt lat="41.614690120" lon="2.501430130">
        <ele>329.30</ele>
        <time>2014-02-23T08:27:21Z</time>
      </trkpt>
      <trkpt lat="41.614670000" lon="2.501421750">
        <ele>329.60</ele>
        <time>2014-02-23T08:27:22Z</time>
      </trkpt>
      <trkpt lat="41.614650050" lon="2.501413370">
        <ele>329.60</ele>
        <time>2014-02-23T08:27:23Z</time>
      </trkpt>
      <trkpt lat="41.614628430" lon="2.501403480">
        <ele>329.70</ele>
        <time>2014-02-23T08:27:24Z</time>
      </trkpt>
      <trkpt lat="41.614608480" lon="2.501391740">
        <ele>329.70</ele>
        <time>2014-02-23T08:27:25Z</time>
      </trkpt>
      <trkpt lat="41.614588360" lon="2.501378330">
        <ele>329.60</ele>
        <time>2014-02-23T08:27:26Z</time>
      </trkpt>
      <trkpt lat="41.614570090" lon="2.501366770">
        <ele>329.50</ele>
        <time>2014-02-23T08:27:27Z</time>
      </trkpt>
      <trkpt lat="41.614550140" lon="2.501356710">
        <ele>329.80</ele>
        <time>2014-02-23T08:27:28Z</time>
      </trkpt>
      <trkpt lat="41.614531700" lon="2.501341790">
        <ele>329.90</ele>
        <time>2014-02-23T08:27:29Z</time>
      </trkpt>
      <trkpt lat="41.614515110" lon="2.501325020">
        <ele>329.90</ele>
        <time>2014-02-23T08:27:30Z</time>
      </trkpt>
      <trkpt lat="41.614496670" lon="2.501313460">
        <ele>330.00</ele>
        <time>2014-02-23T08:27:31Z</time>
      </trkpt>
      <trkpt lat="41.614476720" lon="2.501301720">
        <ele>330.00</ele>
        <time>2014-02-23T08:27:32Z</time>
      </trkpt>
      <trkpt lat="41.614458440" lon="2.501290160">
        <ele>330.20</ele>
        <time>2014-02-23T08:27:33Z</time>
      </trkpt>
      <trkpt lat="41.614438500" lon="2.501278420">
        <ele>330.40</ele>
        <time>2014-02-23T08:27:34Z</time>
      </trkpt>
      <trkpt lat="41.614418380" lon="2.501268360">
        <ele>330.50</ele>
        <time>2014-02-23T08:27:35Z</time>
      </trkpt>
      <trkpt lat="41.614398430" lon="2.501256800">
        <ele>330.60</ele>
        <time>2014-02-23T08:27:36Z</time>
      </trkpt>
      <trkpt lat="41.614380160" lon="2.501246740">
        <ele>330.70</ele>
        <time>2014-02-23T08:27:37Z</time>
      </trkpt>
      <trkpt lat="41.614361720" lon="2.501235000">
        <ele>330.80</ele>
        <time>2014-02-23T08:27:38Z</time>
      </trkpt>
      <trkpt lat="41.614345120" lon="2.501226790">
        <ele>330.90</ele>
        <time>2014-02-23T08:27:39Z</time>
      </trkpt>
      <trkpt lat="41.614328360" lon="2.501213380">
        <ele>331.00</ele>
        <time>2014-02-23T08:27:40Z</time>
      </trkpt>
      <trkpt lat="41.614313440" lon="2.501196780">
        <ele>331.10</ele>
        <time>2014-02-23T08:27:41Z</time>
      </trkpt>
      <trkpt lat="41.614300030" lon="2.501181690">
        <ele>331.70</ele>
        <time>2014-02-23T08:27:42Z</time>
      </trkpt>
      <trkpt lat="41.614286780" lon="2.501165100">
        <ele>332.10</ele>
        <time>2014-02-23T08:27:43Z</time>
      </trkpt>
      <trkpt lat="41.614271700" lon="2.501150010">
        <ele>332.40</ele>
        <time>2014-02-23T08:27:44Z</time>
      </trkpt>
      <trkpt lat="41.614258450" lon="2.501133410">
        <ele>332.80</ele>
        <time>2014-02-23T08:27:45Z</time>
      </trkpt>
      <trkpt lat="41.614246720" lon="2.501113470">
        <ele>333.10</ele>
        <time>2014-02-23T08:27:46Z</time>
      </trkpt>
      <trkpt lat="41.614240010" lon="2.501093350">
        <ele>333.30</ele>
        <time>2014-02-23T08:27:47Z</time>
      </trkpt>
      <trkpt lat="41.614231800" lon="2.501073400">
        <ele>333.40</ele>
        <time>2014-02-23T08:27:48Z</time>
      </trkpt>
      <trkpt lat="41.614223420" lon="2.501051770">
        <ele>333.50</ele>
        <time>2014-02-23T08:27:49Z</time>
      </trkpt>
      <trkpt lat="41.614218390" lon="2.501028470">
        <ele>333.50</ele>
        <time>2014-02-23T08:27:50Z</time>
      </trkpt>
      <trkpt lat="41.614213360" lon="2.501005000">
        <ele>333.50</ele>
        <time>2014-02-23T08:27:51Z</time>
      </trkpt>
      <trkpt lat="41.614210000" lon="2.500981700">
        <ele>333.80</ele>
        <time>2014-02-23T08:27:52Z</time>
      </trkpt>
      <trkpt lat="41.614206820" lon="2.500961750">
        <ele>334.00</ele>
        <time>2014-02-23T08:27:53Z</time>
      </trkpt>
      <trkpt lat="41.614205140" lon="2.500941800">
        <ele>334.20</ele>
        <time>2014-02-23T08:27:54Z</time>
      </trkpt>
      <trkpt lat="41.614203470" lon="2.500920010">
        <ele>334.30</ele>
        <time>2014-02-23T08:27:55Z</time>
      </trkpt>
      <trkpt lat="41.614201790" lon="2.500898390">
        <ele>334.30</ele>
        <time>2014-02-23T08:27:56Z</time>
      </trkpt>
      <trkpt lat="41.614198440" lon="2.500878440">
        <ele>334.30</ele>
        <time>2014-02-23T08:27:57Z</time>
      </trkpt>
      <trkpt lat="41.614193410" lon="2.500858490">
        <ele>334.30</ele>
        <time>2014-02-23T08:27:58Z</time>
      </trkpt>
      <trkpt lat="41.614188380" lon="2.500840050">
        <ele>334.80</ele>
        <time>2014-02-23T08:27:59Z</time>
      </trkpt>
      <trkpt lat="41.614183350" lon="2.500821780">
        <ele>335.20</ele>
        <time>2014-02-23T08:28:00Z</time>
      </trkpt>
      <trkpt lat="41.614180000" lon="2.500801830">
        <ele>335.30</ele>
        <time>2014-02-23T08:28:01Z</time>
      </trkpt>
      <trkpt lat="41.614175140" lon="2.500783390">
        <ele>335.40</ele>
        <time>2014-02-23T08:28:02Z</time>
      </trkpt>
      <trkpt lat="41.614171780" lon="2.500766790">
        <ele>335.50</ele>
        <time>2014-02-23T08:28:03Z</time>
      </trkpt>
      <trkpt lat="41.614165080" lon="2.500748350">
        <ele>335.90</ele>
        <time>2014-02-23T08:28:04Z</time>
      </trkpt>
      <trkpt lat="41.614156700" lon="2.500731750">
        <ele>336.30</ele>
        <time>2014-02-23T08:28:05Z</time>
      </trkpt>
      <trkpt lat="41.614148480" lon="2.500715160">
        <ele>336.60</ele>
        <time>2014-02-23T08:28:06Z</time>
      </trkpt>
      <trkpt lat="41.614140100" lon="2.500698390">
        <ele>336.90</ele>
        <time>2014-02-23T08:28:07Z</time>
      </trkpt>
      <trkpt lat="41.614133390" lon="2.500680120">
        <ele>337.10</ele>
        <time>2014-02-23T08:28:08Z</time>
      </trkpt>
      <trkpt lat="41.614126690" lon="2.500663360">
        <ele>337.20</ele>
        <time>2014-02-23T08:28:09Z</time>
      </trkpt>
      <trkpt lat="41.614120150" lon="2.500643410">
        <ele>337.30</ele>
        <time>2014-02-23T08:28:10Z</time>
      </trkpt>
      <trkpt lat="41.614111770" lon="2.500626810">
        <ele>337.60</ele>
        <time>2014-02-23T08:28:11Z</time>
      </trkpt>
      <trkpt lat="41.614103390" lon="2.500611720">
        <ele>337.70</ele>
        <time>2014-02-23T08:28:12Z</time>
      </trkpt>
      <trkpt lat="41.614093330" lon="2.500596810">
        <ele>338.30</ele>
        <time>2014-02-23T08:28:13Z</time>
      </trkpt>
      <trkpt lat="41.614083440" lon="2.500583390">
        <ele>338.70</ele>
        <time>2014-02-23T08:28:14Z</time>
      </trkpt>
      <trkpt lat="41.614075060" lon="2.500568470">
        <ele>339.10</ele>
        <time>2014-02-23T08:28:15Z</time>
      </trkpt>
      <trkpt lat="41.614066670" lon="2.500555060">
        <ele>339.30</ele>
        <time>2014-02-23T08:28:16Z</time>
      </trkpt>
      <trkpt lat="41.614056780" lon="2.500541820">
        <ele>339.50</ele>
        <time>2014-02-23T08:28:17Z</time>
      </trkpt>
      <trkpt lat="41.614046730" lon="2.500530090">
        <ele>339.70</ele>
        <time>2014-02-23T08:28:18Z</time>
      </trkpt>
      <trkpt lat="41.614036670" lon="2.500518350">
        <ele>339.90</ele>
        <time>2014-02-23T08:28:19Z</time>
      </trkpt>
      <trkpt lat="41.614026780" lon="2.500506780">
        <ele>340.10</ele>
        <time>2014-02-23T08:28:20Z</time>
      </trkpt>
      <trkpt lat="41.614020070" lon="2.500491700">
        <ele>340.30</ele>
        <time>2014-02-23T08:28:21Z</time>
      </trkpt>
      <trkpt lat="41.614011690" lon="2.500478450">
        <ele>340.40</ele>
        <time>2014-02-23T08:28:22Z</time>
      </trkpt>
      <trkpt lat="41.614005150" lon="2.500465040">
        <ele>340.50</ele>
        <time>2014-02-23T08:28:23Z</time>
      </trkpt>
      <trkpt lat="41.613996770" lon="2.500450120">
        <ele>340.60</ele>
        <time>2014-02-23T08:28:24Z</time>
      </trkpt>
      <trkpt lat="41.613988390" lon="2.500438390">
        <ele>341.20</ele>
        <time>2014-02-23T08:28:25Z</time>
      </trkpt>
      <trkpt lat="41.613978330" lon="2.500425140">
        <ele>341.70</ele>
        <time>2014-02-23T08:28:26Z</time>
      </trkpt>
      <trkpt lat="41.613971790" lon="2.500411730">
        <ele>341.80</ele>
        <time>2014-02-23T08:28:27Z</time>
      </trkpt>
      <trkpt lat="41.613963410" lon="2.500396810">
        <ele>341.90</ele>
        <time>2014-02-23T08:28:28Z</time>
      </trkpt>
      <trkpt lat="41.613958380" lon="2.500380050">
        <ele>341.90</ele>
        <time>2014-02-23T08:28:29Z</time>
      </trkpt>
      <trkpt lat="41.613953350" lon="2.500366810">
        <ele>342.40</ele>
        <time>2014-02-23T08:28:30Z</time>
      </trkpt>
      <trkpt lat="41.613948490" lon="2.500355070">
        <ele>342.70</ele>
        <time>2014-02-23T08:28:31Z</time>
      </trkpt>
      <trkpt lat="41.613940110" lon="2.500346690">
        <ele>343.50</ele>
        <time>2014-02-23T08:28:32Z</time>
      </trkpt>
      <trkpt lat="41.613930050" lon="2.500336800">
        <ele>344.10</ele>
        <time>2014-02-23T08:28:33Z</time>
      </trkpt>
      <trkpt lat="41.613921670" lon="2.500325060">
        <ele>344.20</ele>
        <time>2014-02-23T08:28:34Z</time>
      </trkpt>
      <trkpt lat="41.613915130" lon="2.500313330">
        <ele>344.30</ele>
        <time>2014-02-23T08:28:35Z</time>
      </trkpt>
      <trkpt lat="41.613906750" lon="2.500301760">
        <ele>344.30</ele>
        <time>2014-02-23T08:28:36Z</time>
      </trkpt>
      <trkpt lat="41.613900040" lon="2.500288350">
        <ele>344.70</ele>
        <time>2014-02-23T08:28:37Z</time>
      </trkpt>
      <trkpt lat="41.613895010" lon="2.500273430">
        <ele>345.00</ele>
        <time>2014-02-23T08:28:38Z</time>
      </trkpt>
      <trkpt lat="41.613890150" lon="2.500258340">
        <ele>345.50</ele>
        <time>2014-02-23T08:28:39Z</time>
      </trkpt>
      <trkpt lat="41.613883450" lon="2.500245100">
        <ele>345.90</ele>
        <time>2014-02-23T08:28:40Z</time>
      </trkpt>
      <trkpt lat="41.613878420" lon="2.500231690">
        <ele>346.10</ele>
        <time>2014-02-23T08:28:41Z</time>
      </trkpt>
      <trkpt lat="41.613871710" lon="2.500218450">
        <ele>346.80</ele>
        <time>2014-02-23T08:28:42Z</time>
      </trkpt>
      <trkpt lat="41.613866680" lon="2.500205030">
        <ele>347.30</ele>
        <time>2014-02-23T08:28:43Z</time>
      </trkpt>
      <trkpt lat="41.613860140" lon="2.500191790">
        <ele>347.20</ele>
        <time>2014-02-23T08:28:44Z</time>
      </trkpt>
      <trkpt lat="41.613853440" lon="2.500180060">
        <ele>347.20</ele>
        <time>2014-02-23T08:28:45Z</time>
      </trkpt>
      <trkpt lat="41.613845060" lon="2.500166810">
        <ele>347.30</ele>
        <time>2014-02-23T08:28:46Z</time>
      </trkpt>
      <trkpt lat="41.613840030" lon="2.500153400">
        <ele>347.40</ele>
        <time>2014-02-23T08:28:47Z</time>
      </trkpt>
      <trkpt lat="41.613833490" lon="2.500140160">
        <ele>347.50</ele>
        <time>2014-02-23T08:28:48Z</time>
      </trkpt>
      <trkpt lat="41.613825110" lon="2.500126750">
        <ele>347.90</ele>
        <time>2014-02-23T08:28:49Z</time>
      </trkpt>
      <trkpt lat="41.613820080" lon="2.500113340">
        <ele>348.20</ele>
        <time>2014-02-23T08:28:50Z</time>
      </trkpt>
      <trkpt lat="41.613816730" lon="2.500098420">
        <ele>348.50</ele>
        <time>2014-02-23T08:28:51Z</time>
      </trkpt>
      <trkpt lat="41.613813370" lon="2.500083330">
        <ele>348.70</ele>
        <time>2014-02-23T08:28:52Z</time>
      </trkpt>
      <trkpt lat="41.613815050" lon="2.500068410">
        <ele>349.00</ele>
        <time>2014-02-23T08:28:53Z</time>
      </trkpt>
      <trkpt lat="41.613818400" lon="2.500055000">
        <ele>349.20</ele>
        <time>2014-02-23T08:28:54Z</time>
      </trkpt>
      <trkpt lat="41.613826780" lon="2.500046780">
        <ele>349.40</ele>
        <time>2014-02-23T08:28:55Z</time>
      </trkpt>
      <trkpt lat="41.613835000" lon="2.500041760">
        <ele>349.50</ele>
        <time>2014-02-23T08:28:56Z</time>
      </trkpt>
      <trkpt lat="41.613841700" lon="2.500038400">
        <ele>349.60</ele>
        <time>2014-02-23T08:28:57Z</time>
      </trkpt>
      <trkpt lat="41.613851760" lon="2.500038400">
        <ele>349.90</ele>
        <time>2014-02-23T08:28:58Z</time>
      </trkpt>
      <trkpt lat="41.613860140" lon="2.500041760">
        <ele>350.10</ele>
        <time>2014-02-23T08:28:59Z</time>
      </trkpt>
      <trkpt lat="41.613868360" lon="2.500050140">
        <ele>350.30</ele>
        <time>2014-02-23T08:29:00Z</time>
      </trkpt>
      <trkpt lat="41.613876740" lon="2.500061700">
        <ele>350.30</ele>
        <time>2014-02-23T08:29:01Z</time>
      </trkpt>
      <trkpt lat="41.613883450" lon="2.500075120">
        <ele>350.40</ele>
        <time>2014-02-23T08:29:02Z</time>
      </trkpt>
      <trkpt lat="41.613890150" lon="2.500086680">
        <ele>350.40</ele>
        <time>2014-02-23T08:29:03Z</time>
      </trkpt>
      <trkpt lat="41.613896690" lon="2.500100090">
        <ele>350.40</ele>
        <time>2014-02-23T08:29:04Z</time>
      </trkpt>
      <trkpt lat="41.613901720" lon="2.500113340">
        <ele>350.90</ele>
        <time>2014-02-23T08:29:05Z</time>
      </trkpt>
      <trkpt lat="41.613908420" lon="2.500126750">
        <ele>351.20</ele>
        <time>2014-02-23T08:29:06Z</time>
      </trkpt>
      <trkpt lat="41.613915130" lon="2.500141670">
        <ele>351.50</ele>
        <time>2014-02-23T08:29:07Z</time>
      </trkpt>
      <trkpt lat="41.613921670" lon="2.500153400">
        <ele>351.70</ele>
        <time>2014-02-23T08:29:08Z</time>
      </trkpt>
      <trkpt lat="41.613930050" lon="2.500163460">
        <ele>351.90</ele>
        <time>2014-02-23T08:29:09Z</time>
      </trkpt>
      <trkpt lat="41.613938430" lon="2.500171680">
        <ele>352.20</ele>
        <time>2014-02-23T08:29:10Z</time>
      </trkpt>
      <trkpt lat="41.613946810" lon="2.500181730">
        <ele>352.40</ele>
        <time>2014-02-23T08:29:11Z</time>
      </trkpt>
      <trkpt lat="41.613958380" lon="2.500190120">
        <ele>352.80</ele>
        <time>2014-02-23T08:29:12Z</time>
      </trkpt>
      <trkpt lat="41.613966760" lon="2.500201680">
        <ele>353.00</ele>
        <time>2014-02-23T08:29:13Z</time>
      </trkpt>
      <trkpt lat="41.613976820" lon="2.500211740">
        <ele>353.20</ele>
        <time>2014-02-23T08:29:14Z</time>
      </trkpt>
      <trkpt lat="41.613986710" lon="2.500221800">
        <ele>353.20</ele>
        <time>2014-02-23T08:29:15Z</time>
      </trkpt>
      <trkpt lat="41.613998450" lon="2.500231690">
        <ele>353.20</ele>
        <time>2014-02-23T08:29:16Z</time>
      </trkpt>
      <trkpt lat="41.614008340" lon="2.500241750">
        <ele>353.70</ele>
        <time>2014-02-23T08:29:17Z</time>
      </trkpt>
      <trkpt lat="41.614018390" lon="2.500250130">
        <ele>354.00</ele>
        <time>2014-02-23T08:29:18Z</time>
      </trkpt>
      <trkpt lat="41.614028450" lon="2.500256670">
        <ele>353.90</ele>
        <time>2014-02-23T08:29:19Z</time>
      </trkpt>
      <trkpt lat="41.614040020" lon="2.500266730">
        <ele>353.80</ele>
        <time>2014-02-23T08:29:20Z</time>
      </trkpt>
      <trkpt lat="41.614051750" lon="2.500273430">
        <ele>353.70</ele>
        <time>2014-02-23T08:29:21Z</time>
      </trkpt>
      <trkpt lat="41.614063490" lon="2.500280140">
        <ele>354.40</ele>
        <time>2014-02-23T08:29:22Z</time>
      </trkpt>
      <trkpt lat="41.614073380" lon="2.500285000">
        <ele>354.90</ele>
        <time>2014-02-23T08:29:23Z</time>
      </trkpt>
      <trkpt lat="41.614085110" lon="2.500291700">
        <ele>355.10</ele>
        <time>2014-02-23T08:29:24Z</time>
      </trkpt>
      <trkpt lat="41.614096680" lon="2.500296730">
        <ele>355.30</ele>
        <time>2014-02-23T08:29:25Z</time>
      </trkpt>
      <trkpt lat="41.614110090" lon="2.500301760">
        <ele>355.50</ele>
        <time>2014-02-23T08:29:26Z</time>
      </trkpt>
      <trkpt lat="41.614121830" lon="2.500306790">
        <ele>355.60</ele>
        <time>2014-02-23T08:29:27Z</time>
      </trkpt>
      <trkpt lat="41.614133390" lon="2.500311820">
        <ele>355.70</ele>
        <time>2014-02-23T08:29:28Z</time>
      </trkpt>
      <trkpt lat="41.614145130" lon="2.500315010">
        <ele>356.00</ele>
        <time>2014-02-23T08:29:29Z</time>
      </trkpt>
      <trkpt lat="41.614156700" lon="2.500318360">
        <ele>356.20</ele>
        <time>2014-02-23T08:29:30Z</time>
      </trkpt>
      <trkpt lat="41.614168430" lon="2.500321710">
        <ele>356.50</ele>
        <time>2014-02-23T08:29:31Z</time>
      </trkpt>
      <trkpt lat="41.614180000" lon="2.500326740">
        <ele>356.80</ele>
        <time>2014-02-23T08:29:32Z</time>
      </trkpt>
      <trkpt lat="41.614191730" lon="2.500331770">
        <ele>357.00</ele>
        <time>2014-02-23T08:29:33Z</time>
      </trkpt>
      <trkpt lat="41.614203470" lon="2.500338470">
        <ele>357.10</ele>
        <time>2014-02-23T08:29:34Z</time>
      </trkpt>
      <trkpt lat="41.614216710" lon="2.500343340">
        <ele>357.20</ele>
        <time>2014-02-23T08:29:35Z</time>
      </trkpt>
      <trkpt lat="41.614228440" lon="2.500350040">
        <ele>357.50</ele>
        <time>2014-02-23T08:29:36Z</time>
      </trkpt>
      <trkpt lat="41.614240010" lon="2.500353390">
        <ele>357.70</ele>
        <time>2014-02-23T08:29:37Z</time>
      </trkpt>
      <trkpt lat="41.614251750" lon="2.500355070">
        <ele>357.70</ele>
        <time>2014-02-23T08:29:38Z</time>
      </trkpt>
      <trkpt lat="41.614263480" lon="2.500361780">
        <ele>357.70</ele>
        <time>2014-02-23T08:29:39Z</time>
      </trkpt>
      <trkpt lat="41.614273370" lon="2.500368480">
        <ele>357.70</ele>
        <time>2014-02-23T08:29:40Z</time>
      </trkpt>
      <trkpt lat="41.614285110" lon="2.500375020">
        <ele>358.30</ele>
        <time>2014-02-23T08:29:41Z</time>
      </trkpt>
      <trkpt lat="41.614296670" lon="2.500380050">
        <ele>358.70</ele>
        <time>2014-02-23T08:29:42Z</time>
      </trkpt>
      <trkpt lat="41.614308410" lon="2.500388430">
        <ele>359.00</ele>
        <time>2014-02-23T08:29:43Z</time>
      </trkpt>
      <trkpt lat="41.614318470" lon="2.500395140">
        <ele>359.30</ele>
        <time>2014-02-23T08:29:44Z</time>
      </trkpt>
      <trkpt lat="41.614331710" lon="2.500400000">
        <ele>359.40</ele>
        <time>2014-02-23T08:29:45Z</time>
      </trkpt>
      <trkpt lat="41.614343440" lon="2.500405030">
        <ele>359.80</ele>
        <time>2014-02-23T08:29:46Z</time>
      </trkpt>
      <trkpt lat="41.614353340" lon="2.500413410">
        <ele>360.10</ele>
        <time>2014-02-23T08:29:47Z</time>
      </trkpt>
      <trkpt lat="41.614365070" lon="2.500421790">
        <ele>360.30</ele>
        <time>2014-02-23T08:29:48Z</time>
      </trkpt>
      <trkpt lat="41.614375130" lon="2.500431680">
        <ele>360.40</ele>
        <time>2014-02-23T08:29:49Z</time>
      </trkpt>
      <trkpt lat="41.614385020" lon="2.500440060">
        <ele>360.80</ele>
        <time>2014-02-23T08:29:50Z</time>
      </trkpt>
      <trkpt lat="41.614396750" lon="2.500450120">
        <ele>361.10</ele>
        <time>2014-02-23T08:29:51Z</time>
      </trkpt>
      <trkpt lat="41.614408490" lon="2.500458340">
        <ele>361.30</ele>
        <time>2014-02-23T08:29:52Z</time>
      </trkpt>
      <trkpt lat="41.614418380" lon="2.500466720">
        <ele>361.60</ele>
        <time>2014-02-23T08:29:53Z</time>
      </trkpt>
      <trkpt lat="41.614430110" lon="2.500475100">
        <ele>361.90</ele>
        <time>2014-02-23T08:29:54Z</time>
      </trkpt>
      <trkpt lat="41.614441680" lon="2.500483480">
        <ele>361.90</ele>
        <time>2014-02-23T08:29:55Z</time>
      </trkpt>
      <trkpt lat="41.614451740" lon="2.500491700">
        <ele>361.90</ele>
        <time>2014-02-23T08:29:56Z</time>
      </trkpt>
      <trkpt lat="41.614461800" lon="2.500501750">
        <ele>361.90</ele>
        <time>2014-02-23T08:29:57Z</time>
      </trkpt>
      <trkpt lat="41.614471690" lon="2.500511810">
        <ele>361.90</ele>
        <time>2014-02-23T08:29:58Z</time>
      </trkpt>
      <trkpt lat="41.614480070" lon="2.500523380">
        <ele>361.90</ele>
        <time>2014-02-23T08:29:59Z</time>
      </trkpt>
      <trkpt lat="41.614488450" lon="2.500536790">
        <ele>362.10</ele>
        <time>2014-02-23T08:30:00Z</time>
      </trkpt>
      <trkpt lat="41.614496670" lon="2.500550030">
        <ele>362.30</ele>
        <time>2014-02-23T08:30:01Z</time>
      </trkpt>
      <trkpt lat="41.614505050" lon="2.500561770">
        <ele>362.60</ele>
        <time>2014-02-23T08:30:02Z</time>
      </trkpt>
      <trkpt lat="41.614515110" lon="2.500575010">
        <ele>362.90</ele>
        <time>2014-02-23T08:30:03Z</time>
      </trkpt>
      <trkpt lat="41.614525000" lon="2.500583390">
        <ele>363.10</ele>
        <time>2014-02-23T08:30:04Z</time>
      </trkpt>
      <trkpt lat="41.614536730" lon="2.500591780">
        <ele>363.30</ele>
        <time>2014-02-23T08:30:05Z</time>
      </trkpt>
      <trkpt lat="41.614548470" lon="2.500600160">
        <ele>363.40</ele>
        <time>2014-02-23T08:30:06Z</time>
      </trkpt>
      <trkpt lat="41.614560030" lon="2.500608370">
        <ele>363.60</ele>
        <time>2014-02-23T08:30:07Z</time>
      </trkpt>
      <trkpt lat="41.614571770" lon="2.500613400">
        <ele>363.80</ele>
        <time>2014-02-23T08:30:08Z</time>
      </trkpt>
      <trkpt lat="41.614583330" lon="2.500618430">
        <ele>363.80</ele>
        <time>2014-02-23T08:30:09Z</time>
      </trkpt>
      <trkpt lat="41.614595070" lon="2.500623460">
        <ele>363.90</ele>
        <time>2014-02-23T08:30:10Z</time>
      </trkpt>
      <trkpt lat="41.614608480" lon="2.500628490">
        <ele>363.90</ele>
        <time>2014-02-23T08:30:11Z</time>
      </trkpt>
      <trkpt lat="41.614621720" lon="2.500633350">
        <ele>364.10</ele>
        <time>2014-02-23T08:30:12Z</time>
      </trkpt>
      <trkpt lat="41.614635130" lon="2.500636700">
        <ele>364.30</ele>
        <time>2014-02-23T08:30:13Z</time>
      </trkpt>
      <trkpt lat="41.614648380" lon="2.500638380">
        <ele>364.40</ele>
        <time>2014-02-23T08:30:14Z</time>
      </trkpt>
      <trkpt lat="41.614660110" lon="2.500636700">
        <ele>364.50</ele>
        <time>2014-02-23T08:30:15Z</time>
      </trkpt>
      <trkpt lat="41.614675030" lon="2.500631670">
        <ele>364.50</ele>
        <time>2014-02-23T08:30:16Z</time>
      </trkpt>
      <trkpt lat="41.614691800" lon="2.500625140">
        <ele>364.40</ele>
        <time>2014-02-23T08:30:17Z</time>
      </trkpt>
      <trkpt lat="41.614708390" lon="2.500620110">
        <ele>364.40</ele>
        <time>2014-02-23T08:30:18Z</time>
      </trkpt>
      <trkpt lat="41.614723480" lon="2.500610050">
        <ele>364.60</ele>
        <time>2014-02-23T08:30:19Z</time>
      </trkpt>
      <trkpt lat="41.614738400" lon="2.500601670">
        <ele>364.70</ele>
        <time>2014-02-23T08:30:20Z</time>
      </trkpt>
      <trkpt lat="41.614753490" lon="2.500591780">
        <ele>365.10</ele>
        <time>2014-02-23T08:30:21Z</time>
      </trkpt>
      <trkpt lat="41.614766730" lon="2.500581720">
        <ele>365.40</ele>
        <time>2014-02-23T08:30:22Z</time>
      </trkpt>
      <trkpt lat="41.614780140" lon="2.500576690">
        <ele>365.60</ele>
        <time>2014-02-23T08:30:23Z</time>
      </trkpt>
      <trkpt lat="41.614796740" lon="2.500566800">
        <ele>365.90</ele>
        <time>2014-02-23T08:30:24Z</time>
      </trkpt>
      <trkpt lat="41.614813330" lon="2.500558420">
        <ele>366.10</ele>
        <time>2014-02-23T08:30:25Z</time>
      </trkpt>
      <trkpt lat="41.614826750" lon="2.500551710">
        <ele>365.90</ele>
        <time>2014-02-23T08:30:26Z</time>
      </trkpt>
      <trkpt lat="41.614840160" lon="2.500548360">
        <ele>365.70</ele>
        <time>2014-02-23T08:30:27Z</time>
      </trkpt>
      <trkpt lat="41.614855080" lon="2.500548360">
        <ele>366.10</ele>
        <time>2014-02-23T08:30:28Z</time>
      </trkpt>
      <trkpt lat="41.614871670" lon="2.500550030">
        <ele>366.40</ele>
        <time>2014-02-23T08:30:29Z</time>
      </trkpt>
      <trkpt lat="41.614883410" lon="2.500553390">
        <ele>366.60</ele>
        <time>2014-02-23T08:30:30Z</time>
      </trkpt>
      <trkpt lat="41.614906710" lon="2.500556740">
        <ele>366.70</ele>
        <time>2014-02-23T08:30:31Z</time>
      </trkpt>
      <trkpt lat="41.614928330" lon="2.500565120">
        <ele>366.80</ele>
        <time>2014-02-23T08:30:32Z</time>
      </trkpt>
      <trkpt lat="41.614950130" lon="2.500573340">
        <ele>366.80</ele>
        <time>2014-02-23T08:30:33Z</time>
      </trkpt>
      <trkpt lat="41.614968400" lon="2.500585070">
        <ele>366.90</ele>
        <time>2014-02-23T08:30:34Z</time>
      </trkpt>
      <trkpt lat="41.614988350" lon="2.500596810">
        <ele>366.80</ele>
        <time>2014-02-23T08:30:35Z</time>
      </trkpt>
      <trkpt lat="41.615006790" lon="2.500610050">
        <ele>366.80</ele>
        <time>2014-02-23T08:30:36Z</time>
      </trkpt>
      <trkpt lat="41.615023380" lon="2.500621780">
        <ele>366.80</ele>
        <time>2014-02-23T08:30:37Z</time>
      </trkpt>
      <trkpt lat="41.615040150" lon="2.500635030">
        <ele>367.00</ele>
        <time>2014-02-23T08:30:38Z</time>
      </trkpt>
      <trkpt lat="41.615058420" lon="2.500646760">
        <ele>367.10</ele>
        <time>2014-02-23T08:30:39Z</time>
      </trkpt>
      <trkpt lat="41.615076690" lon="2.500655140">
        <ele>367.30</ele>
        <time>2014-02-23T08:30:40Z</time>
      </trkpt>
      <trkpt lat="41.615095130" lon="2.500660000">
        <ele>367.50</ele>
        <time>2014-02-23T08:30:41Z</time>
      </trkpt>
      <trkpt lat="41.615113410" lon="2.500661680">
        <ele>367.60</ele>
        <time>2014-02-23T08:30:42Z</time>
      </trkpt>
      <trkpt lat="41.615131680" lon="2.500658500">
        <ele>367.40</ele>
        <time>2014-02-23T08:30:43Z</time>
      </trkpt>
      <trkpt lat="41.615148440" lon="2.500653470">
        <ele>367.30</ele>
        <time>2014-02-23T08:30:44Z</time>
      </trkpt>
      <trkpt lat="41.615166720" lon="2.500645080">
        <ele>367.40</ele>
        <time>2014-02-23T08:30:45Z</time>
      </trkpt>
      <trkpt lat="41.615185160" lon="2.500635030">
        <ele>367.50</ele>
        <time>2014-02-23T08:30:46Z</time>
      </trkpt>
      <trkpt lat="41.615201750" lon="2.500623460">
        <ele>367.80</ele>
        <time>2014-02-23T08:30:47Z</time>
      </trkpt>
      <trkpt lat="41.615216670" lon="2.500613400">
        <ele>368.00</ele>
        <time>2014-02-23T08:30:48Z</time>
      </trkpt>
      <trkpt lat="41.615233430" lon="2.500601670">
        <ele>368.10</ele>
        <time>2014-02-23T08:30:49Z</time>
      </trkpt>
      <trkpt lat="41.615248350" lon="2.500591780">
        <ele>368.30</ele>
        <time>2014-02-23T08:30:50Z</time>
      </trkpt>
      <trkpt lat="41.615263440" lon="2.500580040">
        <ele>368.40</ele>
        <time>2014-02-23T08:30:51Z</time>
      </trkpt>
      <trkpt lat="41.615278360" lon="2.500566800">
        <ele>368.50</ele>
        <time>2014-02-23T08:30:52Z</time>
      </trkpt>
      <trkpt lat="41.615295130" lon="2.500556740">
        <ele>368.70</ele>
        <time>2014-02-23T08:30:53Z</time>
      </trkpt>
      <trkpt lat="41.615308370" lon="2.500543330">
        <ele>369.10</ele>
        <time>2014-02-23T08:30:54Z</time>
      </trkpt>
      <trkpt lat="41.615323460" lon="2.500531760">
        <ele>369.40</ele>
        <time>2014-02-23T08:30:55Z</time>
      </trkpt>
      <trkpt lat="41.615336700" lon="2.500521700">
        <ele>369.60</ele>
        <time>2014-02-23T08:30:56Z</time>
      </trkpt>
      <trkpt lat="41.615353460" lon="2.500513490">
        <ele>369.50</ele>
        <time>2014-02-23T08:30:57Z</time>
      </trkpt>
      <trkpt lat="41.615368380" lon="2.500506780">
        <ele>369.40</ele>
        <time>2014-02-23T08:30:58Z</time>
      </trkpt>
      <trkpt lat="41.615381790" lon="2.500500080">
        <ele>369.60</ele>
        <time>2014-02-23T08:30:59Z</time>
      </trkpt>
      <trkpt lat="41.615398390" lon="2.500491700">
        <ele>369.70</ele>
        <time>2014-02-23T08:31:00Z</time>
      </trkpt>
      <trkpt lat="41.615415150" lon="2.500486670">
        <ele>369.80</ele>
        <time>2014-02-23T08:31:01Z</time>
      </trkpt>
      <trkpt lat="41.615431750" lon="2.500485160">
        <ele>370.10</ele>
        <time>2014-02-23T08:31:02Z</time>
      </trkpt>
      <trkpt lat="41.615445160" lon="2.500483480">
        <ele>370.40</ele>
        <time>2014-02-23T08:31:03Z</time>
      </trkpt>
      <trkpt lat="41.615460080" lon="2.500481810">
        <ele>370.20</ele>
        <time>2014-02-23T08:31:04Z</time>
      </trkpt>
      <trkpt lat="41.615476680" lon="2.500481810">
        <ele>370.00</ele>
        <time>2014-02-23T08:31:05Z</time>
      </trkpt>
      <trkpt lat="41.615493440" lon="2.500483480">
        <ele>369.70</ele>
        <time>2014-02-23T08:31:06Z</time>
      </trkpt>
      <trkpt lat="41.615510040" lon="2.500485160">
        <ele>369.50</ele>
        <time>2014-02-23T08:31:07Z</time>
      </trkpt>
      <trkpt lat="41.615526800" lon="2.500483480">
        <ele>369.30</ele>
        <time>2014-02-23T08:31:08Z</time>
      </trkpt>
      <trkpt lat="41.615543400" lon="2.500483480">
        <ele>369.40</ele>
        <time>2014-02-23T08:31:09Z</time>
      </trkpt>
      <trkpt lat="41.615558490" lon="2.500486670">
        <ele>369.50</ele>
        <time>2014-02-23T08:31:10Z</time>
      </trkpt>
      <trkpt lat="41.615575080" lon="2.500488340">
        <ele>370.10</ele>
        <time>2014-02-23T08:31:11Z</time>
      </trkpt>
      <trkpt lat="41.615591680" lon="2.500488340">
        <ele>370.50</ele>
        <time>2014-02-23T08:31:12Z</time>
      </trkpt>
      <trkpt lat="41.615608440" lon="2.500491700">
        <ele>370.80</ele>
        <time>2014-02-23T08:31:13Z</time>
      </trkpt>
      <trkpt lat="41.615625040" lon="2.500495050">
        <ele>371.00</ele>
        <time>2014-02-23T08:31:14Z</time>
      </trkpt>
      <trkpt lat="41.615641800" lon="2.500493370">
        <ele>371.20</ele>
        <time>2014-02-23T08:31:15Z</time>
      </trkpt>
      <trkpt lat="41.615655040" lon="2.500491700">
        <ele>371.00</ele>
        <time>2014-02-23T08:31:16Z</time>
      </trkpt>
      <trkpt lat="41.615668460" lon="2.500486670">
        <ele>370.80</ele>
        <time>2014-02-23T08:31:17Z</time>
      </trkpt>
      <trkpt lat="41.615680020" lon="2.500476780">
        <ele>371.30</ele>
        <time>2014-02-23T08:31:18Z</time>
      </trkpt>
      <trkpt lat="41.615693430" lon="2.500463370">
        <ele>371.70</ele>
        <time>2014-02-23T08:31:19Z</time>
      </trkpt>
      <trkpt lat="41.615703490" lon="2.500450120">
        <ele>371.90</ele>
        <time>2014-02-23T08:31:20Z</time>
      </trkpt>
      <trkpt lat="41.615711710" lon="2.500435030">
        <ele>372.50</ele>
        <time>2014-02-23T08:31:21Z</time>
      </trkpt>
      <trkpt lat="41.615716740" lon="2.500418440">
        <ele>373.00</ele>
        <time>2014-02-23T08:31:22Z</time>
      </trkpt>
      <trkpt lat="41.615720090" lon="2.500401670">
        <ele>373.40</ele>
        <time>2014-02-23T08:31:23Z</time>
      </trkpt>
      <trkpt lat="41.615721760" lon="2.500385080">
        <ele>373.70</ele>
        <time>2014-02-23T08:31:24Z</time>
      </trkpt>
      <trkpt lat="41.615721760" lon="2.500370160">
        <ele>374.10</ele>
        <time>2014-02-23T08:31:25Z</time>
      </trkpt>
      <trkpt lat="41.615716740" lon="2.500353390">
        <ele>374.50</ele>
        <time>2014-02-23T08:31:26Z</time>
      </trkpt>
      <trkpt lat="41.615711710" lon="2.500338470">
        <ele>374.70</ele>
        <time>2014-02-23T08:31:27Z</time>
      </trkpt>
      <trkpt lat="41.615705000" lon="2.500323390">
        <ele>374.80</ele>
        <time>2014-02-23T08:31:28Z</time>
      </trkpt>
      <trkpt lat="41.615698460" lon="2.500311820">
        <ele>374.90</ele>
        <time>2014-02-23T08:31:29Z</time>
      </trkpt>
      <trkpt lat="41.615690080" lon="2.500298410">
        <ele>374.90</ele>
        <time>2014-02-23T08:31:30Z</time>
      </trkpt>
      <trkpt lat="41.615678350" lon="2.500293380">
        <ele>374.80</ele>
        <time>2014-02-23T08:31:31Z</time>
      </trkpt>
      <trkpt lat="41.615666780" lon="2.500291700">
        <ele>375.10</ele>
        <time>2014-02-23T08:31:32Z</time>
      </trkpt>
      <trkpt lat="41.615653370" lon="2.500290030">
        <ele>375.40</ele>
        <time>2014-02-23T08:31:33Z</time>
      </trkpt>
      <trkpt lat="41.615641800" lon="2.500288350">
        <ele>375.50</ele>
        <time>2014-02-23T08:31:34Z</time>
      </trkpt>
      <trkpt lat="41.615628390" lon="2.500286670">
        <ele>375.60</ele>
        <time>2014-02-23T08:31:35Z</time>
      </trkpt>
      <trkpt lat="41.615616820" lon="2.500285000">
        <ele>375.70</ele>
        <time>2014-02-23T08:31:36Z</time>
      </trkpt>
      <trkpt lat="41.615603410" lon="2.500285000">
        <ele>376.20</ele>
        <time>2014-02-23T08:31:37Z</time>
      </trkpt>
      <trkpt lat="41.615590000" lon="2.500285000">
        <ele>376.60</ele>
        <time>2014-02-23T08:31:38Z</time>
      </trkpt>
      <trkpt lat="41.615578430" lon="2.500283490">
        <ele>376.90</ele>
        <time>2014-02-23T08:31:39Z</time>
      </trkpt>
      <trkpt lat="41.615565020" lon="2.500283490">
        <ele>377.10</ele>
        <time>2014-02-23T08:31:40Z</time>
      </trkpt>
      <trkpt lat="41.615553460" lon="2.500283490">
        <ele>377.20</ele>
        <time>2014-02-23T08:31:41Z</time>
      </trkpt>
      <trkpt lat="41.615540040" lon="2.500283490">
        <ele>377.60</ele>
        <time>2014-02-23T08:31:42Z</time>
      </trkpt>
      <trkpt lat="41.615528480" lon="2.500283490">
        <ele>378.00</ele>
        <time>2014-02-23T08:31:43Z</time>
      </trkpt>
      <trkpt lat="41.615515070" lon="2.500283490">
        <ele>378.30</ele>
        <time>2014-02-23T08:31:44Z</time>
      </trkpt>
      <trkpt lat="41.615501820" lon="2.500281810">
        <ele>378.50</ele>
        <time>2014-02-23T08:31:45Z</time>
      </trkpt>
      <trkpt lat="41.615486740" lon="2.500280140">
        <ele>378.70</ele>
        <time>2014-02-23T08:31:46Z</time>
      </trkpt>
      <trkpt lat="41.615473490" lon="2.500281810">
        <ele>378.60</ele>
        <time>2014-02-23T08:31:47Z</time>
      </trkpt>
      <trkpt lat="41.615460080" lon="2.500283490">
        <ele>378.50</ele>
        <time>2014-02-23T08:31:48Z</time>
      </trkpt>
      <trkpt lat="41.615448350" lon="2.500288350">
        <ele>379.10</ele>
        <time>2014-02-23T08:31:49Z</time>
      </trkpt>
      <trkpt lat="41.615435100" lon="2.500290030">
        <ele>379.50</ele>
        <time>2014-02-23T08:31:50Z</time>
      </trkpt>
      <trkpt lat="41.615423370" lon="2.500295060">
        <ele>379.70</ele>
        <time>2014-02-23T08:31:51Z</time>
      </trkpt>
      <trkpt lat="41.615408450" lon="2.500300090">
        <ele>379.90</ele>
        <time>2014-02-23T08:31:52Z</time>
      </trkpt>
      <trkpt lat="41.615396710" lon="2.500303440">
        <ele>380.10</ele>
        <time>2014-02-23T08:31:53Z</time>
      </trkpt>
      <trkpt lat="41.615383470" lon="2.500306790">
        <ele>380.30</ele>
        <time>2014-02-23T08:31:54Z</time>
      </trkpt>
      <trkpt lat="41.615368380" lon="2.500308470">
        <ele>380.50</ele>
        <time>2014-02-23T08:31:55Z</time>
      </trkpt>
      <trkpt lat="41.615356820" lon="2.500308470">
        <ele>381.10</ele>
        <time>2014-02-23T08:31:56Z</time>
      </trkpt>
      <trkpt lat="41.615343410" lon="2.500308470">
        <ele>381.60</ele>
        <time>2014-02-23T08:31:57Z</time>
      </trkpt>
      <trkpt lat="41.615330160" lon="2.500308470">
        <ele>382.00</ele>
        <time>2014-02-23T08:31:58Z</time>
      </trkpt>
      <trkpt lat="41.615316750" lon="2.500313330">
        <ele>381.90</ele>
        <time>2014-02-23T08:31:59Z</time>
      </trkpt>
      <trkpt lat="41.615303340" lon="2.500318360">
        <ele>381.90</ele>
        <time>2014-02-23T08:32:00Z</time>
      </trkpt>
      <trkpt lat="41.615290100" lon="2.500320030">
        <ele>381.80</ele>
        <time>2014-02-23T08:32:01Z</time>
      </trkpt>
      <trkpt lat="41.615278360" lon="2.500318360">
        <ele>381.70</ele>
        <time>2014-02-23T08:32:02Z</time>
      </trkpt>
      <trkpt lat="41.615265120" lon="2.500315010">
        <ele>382.00</ele>
        <time>2014-02-23T08:32:03Z</time>
      </trkpt>
      <trkpt lat="41.615251710" lon="2.500313330">
        <ele>382.30</ele>
        <time>2014-02-23T08:32:04Z</time>
      </trkpt>
      <trkpt lat="41.615238460" lon="2.500310140">
        <ele>382.40</ele>
        <time>2014-02-23T08:32:05Z</time>
      </trkpt>
      <trkpt lat="41.615225050" lon="2.500303440">
        <ele>382.70</ele>
        <time>2014-02-23T08:32:06Z</time>
      </trkpt>
      <trkpt lat="41.615213490" lon="2.500295060">
        <ele>382.80</ele>
        <time>2014-02-23T08:32:07Z</time>
      </trkpt>
      <trkpt lat="41.615201750" lon="2.500283490">
        <ele>382.90</ele>
        <time>2014-02-23T08:32:08Z</time>
      </trkpt>
      <trkpt lat="41.615190020" lon="2.500273430">
        <ele>383.00</ele>
        <time>2014-02-23T08:32:09Z</time>
      </trkpt>
      <trkpt lat="41.615180130" lon="2.500261700">
        <ele>383.50</ele>
        <time>2014-02-23T08:32:10Z</time>
      </trkpt>
      <trkpt lat="41.615170070" lon="2.500246780">
        <ele>383.90</ele>
        <time>2014-02-23T08:32:11Z</time>
      </trkpt>
      <trkpt lat="41.615161690" lon="2.500231690">
        <ele>384.10</ele>
        <time>2014-02-23T08:32:12Z</time>
      </trkpt>
      <trkpt lat="41.615153470" lon="2.500216770">
        <ele>384.60</ele>
        <time>2014-02-23T08:32:13Z</time>
      </trkpt>
      <trkpt lat="41.615145090" lon="2.500200010">
        <ele>385.00</ele>
        <time>2014-02-23T08:32:14Z</time>
      </trkpt>
      <trkpt lat="41.615136710" lon="2.500183410">
        <ele>384.70</ele>
        <time>2014-02-23T08:32:15Z</time>
      </trkpt>
      <trkpt lat="41.615128490" lon="2.500168490">
        <ele>384.50</ele>
        <time>2014-02-23T08:32:16Z</time>
      </trkpt>
      <trkpt lat="41.615120110" lon="2.500151730">
        <ele>384.70</ele>
        <time>2014-02-23T08:32:17Z</time>
      </trkpt>
      <trkpt lat="41.615111730" lon="2.500136810">
        <ele>384.80</ele>
        <time>2014-02-23T08:32:18Z</time>
      </trkpt>
      <trkpt lat="41.615103350" lon="2.500120040">
        <ele>384.80</ele>
        <time>2014-02-23T08:32:19Z</time>
      </trkpt>
      <trkpt lat="41.615095130" lon="2.500105120">
        <ele>385.00</ele>
        <time>2014-02-23T08:32:20Z</time>
      </trkpt>
      <trkpt lat="41.615086750" lon="2.500090040">
        <ele>385.10</ele>
        <time>2014-02-23T08:32:21Z</time>
      </trkpt>
      <trkpt lat="41.615075020" lon="2.500076790">
        <ele>385.10</ele>
        <time>2014-02-23T08:32:22Z</time>
      </trkpt>
      <trkpt lat="41.615065130" lon="2.500066730">
        <ele>385.10</ele>
        <time>2014-02-23T08:32:23Z</time>
      </trkpt>
      <trkpt lat="41.615051720" lon="2.500058350">
        <ele>385.10</ele>
        <time>2014-02-23T08:32:24Z</time>
      </trkpt>
      <trkpt lat="41.615040150" lon="2.500050140">
        <ele>385.40</ele>
        <time>2014-02-23T08:32:25Z</time>
      </trkpt>
      <trkpt lat="41.615026740" lon="2.500041760">
        <ele>385.70</ele>
        <time>2014-02-23T08:32:26Z</time>
      </trkpt>
      <trkpt lat="41.615013490" lon="2.500038400">
        <ele>385.90</ele>
        <time>2014-02-23T08:32:27Z</time>
      </trkpt>
      <trkpt lat="41.614998410" lon="2.500036730">
        <ele>386.20</ele>
        <time>2014-02-23T08:32:28Z</time>
      </trkpt>
      <trkpt lat="41.614983490" lon="2.500036730">
        <ele>385.90</ele>
        <time>2014-02-23T08:32:29Z</time>
      </trkpt>
      <trkpt lat="41.614970080" lon="2.500036730">
        <ele>385.80</ele>
        <time>2014-02-23T08:32:30Z</time>
      </trkpt>
      <trkpt lat="41.614955160" lon="2.500038400">
        <ele>385.70</ele>
        <time>2014-02-23T08:32:31Z</time>
      </trkpt>
      <trkpt lat="41.614941740" lon="2.500041760">
        <ele>386.00</ele>
        <time>2014-02-23T08:32:32Z</time>
      </trkpt>
      <trkpt lat="41.614926820" lon="2.500043430">
        <ele>386.20</ele>
        <time>2014-02-23T08:32:33Z</time>
      </trkpt>
      <trkpt lat="41.614915090" lon="2.500046780">
        <ele>386.40</ele>
        <time>2014-02-23T08:32:34Z</time>
      </trkpt>
      <trkpt lat="41.614901680" lon="2.500051810">
        <ele>386.60</ele>
        <time>2014-02-23T08:32:35Z</time>
      </trkpt>
      <trkpt lat="41.614888440" lon="2.500056680">
        <ele>387.20</ele>
        <time>2014-02-23T08:32:36Z</time>
      </trkpt>
      <trkpt lat="41.614873350" lon="2.500061700">
        <ele>387.50</ele>
        <time>2014-02-23T08:32:37Z</time>
      </trkpt>
      <trkpt lat="41.614860100" lon="2.500065060">
        <ele>387.80</ele>
        <time>2014-02-23T08:32:38Z</time>
      </trkpt>
      <trkpt lat="41.614846690" lon="2.500065060">
        <ele>388.20</ele>
        <time>2014-02-23T08:32:39Z</time>
      </trkpt>
      <trkpt lat="41.614833450" lon="2.500063380">
        <ele>388.60</ele>
        <time>2014-02-23T08:32:40Z</time>
      </trkpt>
      <trkpt lat="41.614820040" lon="2.500063380">
        <ele>388.80</ele>
        <time>2014-02-23T08:32:41Z</time>
      </trkpt>
      <trkpt lat="41.614806800" lon="2.500058350">
        <ele>389.10</ele>
        <time>2014-02-23T08:32:42Z</time>
      </trkpt>
      <trkpt lat="41.614793390" lon="2.500051810">
        <ele>389.20</ele>
        <time>2014-02-23T08:32:43Z</time>
      </trkpt>
      <trkpt lat="41.614781820" lon="2.500046780">
        <ele>389.60</ele>
        <time>2014-02-23T08:32:44Z</time>
      </trkpt>
      <trkpt lat="41.614770080" lon="2.500040080">
        <ele>389.80</ele>
        <time>2014-02-23T08:32:45Z</time>
      </trkpt>
      <trkpt lat="41.614758350" lon="2.500031700">
        <ele>390.20</ele>
        <time>2014-02-23T08:32:46Z</time>
      </trkpt>
      <trkpt lat="41.614750130" lon="2.500020130">
        <ele>390.40</ele>
        <time>2014-02-23T08:32:47Z</time>
      </trkpt>
      <trkpt lat="41.614740080" lon="2.500010070">
        <ele>391.20</ele>
        <time>2014-02-23T08:32:48Z</time>
      </trkpt>
      <trkpt lat="41.614730020" lon="2.500000010">
        <ele>391.80</ele>
        <time>2014-02-23T08:32:49Z</time>
      </trkpt>
      <trkpt lat="41.614721800" lon="2.499988450">
        <ele>392.20</ele>
        <time>2014-02-23T08:32:50Z</time>
      </trkpt>
      <trkpt lat="41.614715100" lon="2.499973360">
        <ele>392.30</ele>
        <time>2014-02-23T08:32:51Z</time>
      </trkpt>
      <trkpt lat="41.614708390" lon="2.499958440">
        <ele>392.30</ele>
        <time>2014-02-23T08:32:52Z</time>
      </trkpt>
      <trkpt lat="41.614703360" lon="2.499943350">
        <ele>392.30</ele>
        <time>2014-02-23T08:32:53Z</time>
      </trkpt>
      <trkpt lat="41.614695150" lon="2.499930110">
        <ele>392.30</ele>
        <time>2014-02-23T08:32:54Z</time>
      </trkpt>
      <trkpt lat="41.614690120" lon="2.499916700">
        <ele>392.20</ele>
        <time>2014-02-23T08:32:55Z</time>
      </trkpt>
      <trkpt lat="41.614683410" lon="2.499903450">
        <ele>392.10</ele>
        <time>2014-02-23T08:32:56Z</time>
      </trkpt>
      <trkpt lat="41.614676710" lon="2.499890040">
        <ele>392.10</ele>
        <time>2014-02-23T08:32:57Z</time>
      </trkpt>
      <trkpt lat="41.614670000" lon="2.499876800">
        <ele>392.60</ele>
        <time>2014-02-23T08:32:58Z</time>
      </trkpt>
      <trkpt lat="41.614665140" lon="2.499863390">
        <ele>392.90</ele>
        <time>2014-02-23T08:32:59Z</time>
      </trkpt>
      <trkpt lat="41.614658440" lon="2.499848470">
        <ele>393.50</ele>
        <time>2014-02-23T08:33:00Z</time>
      </trkpt>
      <trkpt lat="41.614651730" lon="2.499835060">
        <ele>393.90</ele>
        <time>2014-02-23T08:33:01Z</time>
      </trkpt>
      <trkpt lat="41.614645030" lon="2.499821810">
        <ele>394.20</ele>
        <time>2014-02-23T08:33:02Z</time>
      </trkpt>
      <trkpt lat="41.614640000" lon="2.499808400">
        <ele>394.80</ele>
        <time>2014-02-23T08:33:03Z</time>
      </trkpt>
      <trkpt lat="41.614633460" lon="2.499793480">
        <ele>395.30</ele>
        <time>2014-02-23T08:33:04Z</time>
      </trkpt>
      <trkpt lat="41.614626750" lon="2.499778400">
        <ele>395.30</ele>
        <time>2014-02-23T08:33:05Z</time>
      </trkpt>
      <trkpt lat="41.614623400" lon="2.499763480">
        <ele>395.30</ele>
        <time>2014-02-23T08:33:06Z</time>
      </trkpt>
      <trkpt lat="41.614618370" lon="2.499750070">
        <ele>395.90</ele>
        <time>2014-02-23T08:33:07Z</time>
      </trkpt>
      <trkpt lat="41.614611670" lon="2.499736820">
        <ele>396.40</ele>
        <time>2014-02-23T08:33:08Z</time>
      </trkpt>
      <trkpt lat="41.614606800" lon="2.499721730">
        <ele>396.70</ele>
        <time>2014-02-23T08:33:09Z</time>
      </trkpt>
      <trkpt lat="41.614601770" lon="2.499706810">
        <ele>396.80</ele>
        <time>2014-02-23T08:33:10Z</time>
      </trkpt>
      <trkpt lat="41.614596750" lon="2.499691730">
        <ele>396.80</ele>
        <time>2014-02-23T08:33:11Z</time>
      </trkpt>
      <trkpt lat="41.614590040" lon="2.499678480">
        <ele>397.10</ele>
        <time>2014-02-23T08:33:12Z</time>
      </trkpt>
      <trkpt lat="41.614586690" lon="2.499661720">
        <ele>397.30</ele>
        <time>2014-02-23T08:33:13Z</time>
      </trkpt>
      <trkpt lat="41.614581830" lon="2.499646800">
        <ele>397.60</ele>
        <time>2014-02-23T08:33:14Z</time>
      </trkpt>
      <trkpt lat="41.614576800" lon="2.499631710">
        <ele>397.90</ele>
        <time>2014-02-23T08:33:15Z</time>
      </trkpt>
      <trkpt lat="41.614571770" lon="2.499613440">
        <ele>398.10</ele>
        <time>2014-02-23T08:33:16Z</time>
      </trkpt>
      <trkpt lat="41.614568410" lon="2.499595000">
        <ele>398.30</ele>
        <time>2014-02-23T08:33:17Z</time>
      </trkpt>
      <trkpt lat="41.614566740" lon="2.499578400">
        <ele>398.40</ele>
        <time>2014-02-23T08:33:18Z</time>
      </trkpt>
      <trkpt lat="41.614565060" lon="2.499560130">
        <ele>398.80</ele>
        <time>2014-02-23T08:33:19Z</time>
      </trkpt>
      <trkpt lat="41.614563390" lon="2.499541690">
        <ele>399.10</ele>
        <time>2014-02-23T08:33:20Z</time>
      </trkpt>
      <trkpt lat="41.614563390" lon="2.499523420">
        <ele>399.40</ele>
        <time>2014-02-23T08:33:21Z</time>
      </trkpt>
      <trkpt lat="41.614565060" lon="2.499505150">
        <ele>399.80</ele>
        <time>2014-02-23T08:33:22Z</time>
      </trkpt>
      <trkpt lat="41.614566740" lon="2.499485030">
        <ele>400.10</ele>
        <time>2014-02-23T08:33:23Z</time>
      </trkpt>
      <trkpt lat="41.614568410" lon="2.499466760">
        <ele>400.40</ele>
        <time>2014-02-23T08:33:24Z</time>
      </trkpt>
      <trkpt lat="41.614568410" lon="2.499448480">
        <ele>400.60</ele>
        <time>2014-02-23T08:33:25Z</time>
      </trkpt>
      <trkpt lat="41.614570090" lon="2.499428370">
        <ele>400.80</ele>
        <time>2014-02-23T08:33:26Z</time>
      </trkpt>
      <trkpt lat="41.614575120" lon="2.499410100">
        <ele>401.00</ele>
        <time>2014-02-23T08:33:27Z</time>
      </trkpt>
      <trkpt lat="41.614578470" lon="2.499391820">
        <ele>401.10</ele>
        <time>2014-02-23T08:33:28Z</time>
      </trkpt>
      <trkpt lat="41.614585010" lon="2.499373380">
        <ele>401.30</ele>
        <time>2014-02-23T08:33:29Z</time>
      </trkpt>
      <trkpt lat="41.614588360" lon="2.499355110">
        <ele>401.40</ele>
        <time>2014-02-23T08:33:30Z</time>
      </trkpt>
      <trkpt lat="41.614593390" lon="2.499336670">
        <ele>401.80</ele>
        <time>2014-02-23T08:33:31Z</time>
      </trkpt>
      <trkpt lat="41.614596750" lon="2.499318400">
        <ele>402.10</ele>
        <time>2014-02-23T08:33:32Z</time>
      </trkpt>
      <trkpt lat="41.614600100" lon="2.499300120">
        <ele>402.20</ele>
        <time>2014-02-23T08:33:33Z</time>
      </trkpt>
      <trkpt lat="41.614605130" lon="2.499281680">
        <ele>402.40</ele>
        <time>2014-02-23T08:33:34Z</time>
      </trkpt>
      <trkpt lat="41.614610160" lon="2.499261740">
        <ele>402.40</ele>
        <time>2014-02-23T08:33:35Z</time>
      </trkpt>
      <trkpt lat="41.614615020" lon="2.499240110">
        <ele>402.50</ele>
        <time>2014-02-23T08:33:36Z</time>
      </trkpt>
      <trkpt lat="41.614621720" lon="2.499220160">
        <ele>402.50</ele>
        <time>2014-02-23T08:33:37Z</time>
      </trkpt>
      <trkpt lat="41.614630110" lon="2.499201720">
        <ele>402.70</ele>
        <time>2014-02-23T08:33:38Z</time>
      </trkpt>
      <trkpt lat="41.614636810" lon="2.499180100">
        <ele>402.90</ele>
        <time>2014-02-23T08:33:39Z</time>
      </trkpt>
      <trkpt lat="41.614643350" lon="2.499158470">
        <ele>403.00</ele>
        <time>2014-02-23T08:33:40Z</time>
      </trkpt>
      <trkpt lat="41.614650050" lon="2.499138350">
        <ele>402.80</ele>
        <time>2014-02-23T08:33:41Z</time>
      </trkpt>
      <trkpt lat="41.614655080" lon="2.499116730">
        <ele>402.70</ele>
        <time>2014-02-23T08:33:42Z</time>
      </trkpt>
      <trkpt lat="41.614660110" lon="2.499095100">
        <ele>403.50</ele>
        <time>2014-02-23T08:33:43Z</time>
      </trkpt>
      <trkpt lat="41.614665140" lon="2.499073480">
        <ele>404.00</ele>
        <time>2014-02-23T08:33:44Z</time>
      </trkpt>
      <trkpt lat="41.614668490" lon="2.499051690">
        <ele>403.90</ele>
        <time>2014-02-23T08:33:45Z</time>
      </trkpt>
      <trkpt lat="41.614671680" lon="2.499030060">
        <ele>403.80</ele>
        <time>2014-02-23T08:33:46Z</time>
      </trkpt>
      <trkpt lat="41.614673360" lon="2.499006760">
        <ele>403.80</ele>
        <time>2014-02-23T08:33:47Z</time>
      </trkpt>
      <trkpt lat="41.614675030" lon="2.498985130">
        <ele>404.30</ele>
        <time>2014-02-23T08:33:48Z</time>
      </trkpt>
      <trkpt lat="41.614676710" lon="2.498963340">
        <ele>404.60</ele>
        <time>2014-02-23T08:33:49Z</time>
      </trkpt>
      <trkpt lat="41.614678390" lon="2.498941710">
        <ele>404.60</ele>
        <time>2014-02-23T08:33:50Z</time>
      </trkpt>
      <trkpt lat="41.614680060" lon="2.498920090">
        <ele>404.50</ele>
        <time>2014-02-23T08:33:51Z</time>
      </trkpt>
      <trkpt lat="41.614681740" lon="2.498898460">
        <ele>404.90</ele>
        <time>2014-02-23T08:33:52Z</time>
      </trkpt>
      <trkpt lat="41.614683410" lon="2.498876670">
        <ele>405.10</ele>
        <time>2014-02-23T08:33:53Z</time>
      </trkpt>
      <trkpt lat="41.614686770" lon="2.498856720">
        <ele>405.30</ele>
        <time>2014-02-23T08:33:54Z</time>
      </trkpt>
      <trkpt lat="41.614688440" lon="2.498835100">
        <ele>405.70</ele>
        <time>2014-02-23T08:33:55Z</time>
      </trkpt>
      <trkpt lat="41.614691800" lon="2.498813470">
        <ele>406.00</ele>
        <time>2014-02-23T08:33:56Z</time>
      </trkpt>
      <trkpt lat="41.614693470" lon="2.498793350">
        <ele>406.30</ele>
        <time>2014-02-23T08:33:57Z</time>
      </trkpt>
      <trkpt lat="41.614695150" lon="2.498771730">
        <ele>406.60</ele>
        <time>2014-02-23T08:33:58Z</time>
      </trkpt>
      <trkpt lat="41.614698330" lon="2.498750100">
        <ele>406.80</ele>
        <time>2014-02-23T08:33:59Z</time>
      </trkpt>
      <trkpt lat="41.614700010" lon="2.498728480">
        <ele>406.70</ele>
        <time>2014-02-23T08:34:00Z</time>
      </trkpt>
      <trkpt lat="41.614701690" lon="2.498705010">
        <ele>406.70</ele>
        <time>2014-02-23T08:34:01Z</time>
      </trkpt>
      <trkpt lat="41.614705040" lon="2.498683380">
        <ele>407.20</ele>
        <time>2014-02-23T08:34:02Z</time>
      </trkpt>
      <trkpt lat="41.614708390" lon="2.498661760">
        <ele>407.50</ele>
        <time>2014-02-23T08:34:03Z</time>
      </trkpt>
      <trkpt lat="41.614711750" lon="2.498631750">
        <ele>407.70</ele>
        <time>2014-02-23T08:34:04Z</time>
      </trkpt>
      <trkpt lat="41.614713420" lon="2.498613480">
        <ele>407.70</ele>
        <time>2014-02-23T08:34:05Z</time>
      </trkpt>
      <trkpt lat="41.614715100" lon="2.498593360">
        <ele>407.80</ele>
        <time>2014-02-23T08:34:06Z</time>
      </trkpt>
      <trkpt lat="41.614718450" lon="2.498571740">
        <ele>407.70</ele>
        <time>2014-02-23T08:34:07Z</time>
      </trkpt>
      <trkpt lat="41.614720130" lon="2.498550110">
        <ele>407.60</ele>
        <time>2014-02-23T08:34:08Z</time>
      </trkpt>
      <trkpt lat="41.614723480" lon="2.498528490">
        <ele>407.60</ele>
        <time>2014-02-23T08:34:09Z</time>
      </trkpt>
      <trkpt lat="41.614723480" lon="2.498505020">
        <ele>407.60</ele>
        <time>2014-02-23T08:34:10Z</time>
      </trkpt>
      <trkpt lat="41.614721800" lon="2.498483390">
        <ele>407.70</ele>
        <time>2014-02-23T08:34:11Z</time>
      </trkpt>
      <trkpt lat="41.614721800" lon="2.498463440">
        <ele>407.70</ele>
        <time>2014-02-23T08:34:12Z</time>
      </trkpt>
      <trkpt lat="41.614716770" lon="2.498443490">
        <ele>407.80</ele>
        <time>2014-02-23T08:34:13Z</time>
      </trkpt>
      <trkpt lat="41.614708390" lon="2.498426730">
        <ele>408.10</ele>
        <time>2014-02-23T08:34:14Z</time>
      </trkpt>
      <trkpt lat="41.614703360" lon="2.498408460">
        <ele>408.40</ele>
        <time>2014-02-23T08:34:15Z</time>
      </trkpt>
      <trkpt lat="41.614696830" lon="2.498390020">
        <ele>408.60</ele>
        <time>2014-02-23T08:34:16Z</time>
      </trkpt>
      <trkpt lat="41.614693470" lon="2.498373420">
        <ele>408.80</ele>
        <time>2014-02-23T08:34:17Z</time>
      </trkpt>
      <trkpt lat="41.614690120" lon="2.498353470">
        <ele>408.90</ele>
        <time>2014-02-23T08:34:18Z</time>
      </trkpt>
      <trkpt lat="41.614693470" lon="2.498331680">
        <ele>409.30</ele>
        <time>2014-02-23T08:34:19Z</time>
      </trkpt>
      <trkpt lat="41.614693470" lon="2.498310050">
        <ele>409.70</ele>
        <time>2014-02-23T08:34:20Z</time>
      </trkpt>
      <trkpt lat="41.614693470" lon="2.498290110">
        <ele>410.20</ele>
        <time>2014-02-23T08:34:21Z</time>
      </trkpt>
      <trkpt lat="41.614688440" lon="2.498270160">
        <ele>410.70</ele>
        <time>2014-02-23T08:34:22Z</time>
      </trkpt>
      <trkpt lat="41.614686770" lon="2.498250040">
        <ele>410.50</ele>
        <time>2014-02-23T08:34:23Z</time>
      </trkpt>
      <trkpt lat="41.614683410" lon="2.498230090">
        <ele>410.40</ele>
        <time>2014-02-23T08:34:24Z</time>
      </trkpt>
      <trkpt lat="41.614686770" lon="2.498208470">
        <ele>410.30</ele>
        <time>2014-02-23T08:34:25Z</time>
      </trkpt>
      <trkpt lat="41.614691800" lon="2.498186670">
        <ele>410.70</ele>
        <time>2014-02-23T08:34:26Z</time>
      </trkpt>
      <trkpt lat="41.614696830" lon="2.498163370">
        <ele>410.90</ele>
        <time>2014-02-23T08:34:27Z</time>
      </trkpt>
      <trkpt lat="41.614698330" lon="2.498141750">
        <ele>411.10</ele>
        <time>2014-02-23T08:34:28Z</time>
      </trkpt>
      <trkpt lat="41.614695150" lon="2.498121800">
        <ele>411.20</ele>
        <time>2014-02-23T08:34:29Z</time>
      </trkpt>
      <trkpt lat="41.614690120" lon="2.498101680">
        <ele>411.70</ele>
        <time>2014-02-23T08:34:30Z</time>
      </trkpt>
      <trkpt lat="41.614690120" lon="2.498081730">
        <ele>412.00</ele>
        <time>2014-02-23T08:34:31Z</time>
      </trkpt>
      <trkpt lat="41.614691800" lon="2.498060110">
        <ele>412.30</ele>
        <time>2014-02-23T08:34:32Z</time>
      </trkpt>
      <trkpt lat="41.614696830" lon="2.498043340">
        <ele>412.40</ele>
        <time>2014-02-23T08:34:33Z</time>
      </trkpt>
      <trkpt lat="41.614701690" lon="2.498023390">
        <ele>412.50</ele>
        <time>2014-02-23T08:34:34Z</time>
      </trkpt>
      <trkpt lat="41.614706720" lon="2.498003440">
        <ele>412.60</ele>
        <time>2014-02-23T08:34:35Z</time>
      </trkpt>
      <trkpt lat="41.614711750" lon="2.497985000">
        <ele>412.70</ele>
        <time>2014-02-23T08:34:36Z</time>
      </trkpt>
      <trkpt lat="41.614716770" lon="2.497965060">
        <ele>412.80</ele>
        <time>2014-02-23T08:34:37Z</time>
      </trkpt>
      <trkpt lat="41.614713420" lon="2.497941750">
        <ele>412.90</ele>
        <time>2014-02-23T08:34:38Z</time>
      </trkpt>
      <trkpt lat="41.614710070" lon="2.497911750">
        <ele>413.10</ele>
        <time>2014-02-23T08:34:39Z</time>
      </trkpt>
      <trkpt lat="41.614708390" lon="2.497880060">
        <ele>412.90</ele>
        <time>2014-02-23T08:34:40Z</time>
      </trkpt>
      <trkpt lat="41.614695150" lon="2.497856760">
        <ele>412.70</ele>
        <time>2014-02-23T08:34:41Z</time>
      </trkpt>
      <trkpt lat="41.614681740" lon="2.497821720">
        <ele>412.60</ele>
        <time>2014-02-23T08:34:42Z</time>
      </trkpt>
      <trkpt lat="41.614675030" lon="2.497780150">
        <ele>412.40</ele>
        <time>2014-02-23T08:34:43Z</time>
      </trkpt>
      <trkpt lat="41.614670000" lon="2.497743440">
        <ele>412.40</ele>
        <time>2014-02-23T08:34:44Z</time>
      </trkpt>
      <trkpt lat="41.614590040" lon="2.497685100">
        <ele>412.40</ele>
        <time>2014-02-23T08:34:45Z</time>
      </trkpt>
      <trkpt lat="41.614546790" lon="2.497636820">
        <ele>412.40</ele>
        <time>2014-02-23T08:34:46Z</time>
      </trkpt>
      <trkpt lat="41.614491800" lon="2.497613350">
        <ele>411.50</ele>
        <time>2014-02-23T08:34:47Z</time>
      </trkpt>
      <trkpt lat="41.614430110" lon="2.497608490">
        <ele>410.80</ele>
        <time>2014-02-23T08:34:48Z</time>
      </trkpt>
      <trkpt lat="41.614370100" lon="2.497626760">
        <ele>410.40</ele>
        <time>2014-02-23T08:34:49Z</time>
      </trkpt>
      <trkpt lat="41.614321820" lon="2.497658450">
        <ele>410.10</ele>
        <time>2014-02-23T08:34:50Z</time>
      </trkpt>
      <trkpt lat="41.614286780" lon="2.497691810">
        <ele>409.90</ele>
        <time>2014-02-23T08:34:51Z</time>
      </trkpt>
      <trkpt lat="41.614263480" lon="2.497718460">
        <ele>409.40</ele>
        <time>2014-02-23T08:34:52Z</time>
      </trkpt>
      <trkpt lat="41.614246720" lon="2.497743440">
        <ele>409.10</ele>
        <time>2014-02-23T08:34:53Z</time>
      </trkpt>
      <trkpt lat="41.614233470" lon="2.497763390">
        <ele>408.90</ele>
        <time>2014-02-23T08:34:54Z</time>
      </trkpt>
      <trkpt lat="41.614218390" lon="2.497775120">
        <ele>408.70</ele>
        <time>2014-02-23T08:34:55Z</time>
      </trkpt>
      <trkpt lat="41.614205140" lon="2.497785010">
        <ele>408.50</ele>
        <time>2014-02-23T08:34:56Z</time>
      </trkpt>
      <trkpt lat="41.614191730" lon="2.497798420">
        <ele>408.90</ele>
        <time>2014-02-23T08:34:57Z</time>
      </trkpt>
      <trkpt lat="41.614180000" lon="2.497810160">
        <ele>409.20</ele>
        <time>2014-02-23T08:34:58Z</time>
      </trkpt>
      <trkpt lat="41.614168430" lon="2.497823400">
        <ele>409.40</ele>
        <time>2014-02-23T08:34:59Z</time>
      </trkpt>
      <trkpt lat="41.614155020" lon="2.497830110">
        <ele>409.60</ele>
        <time>2014-02-23T08:35:00Z</time>
      </trkpt>
      <trkpt lat="41.614141780" lon="2.497836810">
        <ele>410.00</ele>
        <time>2014-02-23T08:35:01Z</time>
      </trkpt>
      <trkpt lat="41.614126690" lon="2.497846700">
        <ele>410.40</ele>
        <time>2014-02-23T08:35:02Z</time>
      </trkpt>
      <trkpt lat="41.614111770" lon="2.497855080">
        <ele>410.70</ele>
        <time>2014-02-23T08:35:03Z</time>
      </trkpt>
      <trkpt lat="41.614096680" lon="2.497861790">
        <ele>411.00</ele>
        <time>2014-02-23T08:35:04Z</time>
      </trkpt>
      <trkpt lat="41.614080090" lon="2.497868500">
        <ele>411.20</ele>
        <time>2014-02-23T08:35:05Z</time>
      </trkpt>
      <trkpt lat="41.614065000" lon="2.497873360">
        <ele>411.80</ele>
        <time>2014-02-23T08:35:06Z</time>
      </trkpt>
      <trkpt lat="41.614051750" lon="2.497878390">
        <ele>412.20</ele>
        <time>2014-02-23T08:35:07Z</time>
      </trkpt>
      <trkpt lat="41.614036670" lon="2.497883420">
        <ele>412.40</ele>
        <time>2014-02-23T08:35:08Z</time>
      </trkpt>
      <trkpt lat="41.614023420" lon="2.497886770">
        <ele>412.50</ele>
        <time>2014-02-23T08:35:09Z</time>
      </trkpt>
      <trkpt lat="41.614008340" lon="2.497891800">
        <ele>412.60</ele>
        <time>2014-02-23T08:35:10Z</time>
      </trkpt>
      <trkpt lat="41.613993420" lon="2.497893470">
        <ele>412.50</ele>
        <time>2014-02-23T08:35:11Z</time>
      </trkpt>
      <trkpt lat="41.613980010" lon="2.497895150">
        <ele>412.40</ele>
        <time>2014-02-23T08:35:12Z</time>
      </trkpt>
      <trkpt lat="41.613965090" lon="2.497893470">
        <ele>412.90</ele>
        <time>2014-02-23T08:35:13Z</time>
      </trkpt>
      <trkpt lat="41.613948490" lon="2.497891800">
        <ele>413.40</ele>
        <time>2014-02-23T08:35:14Z</time>
      </trkpt>
      <trkpt lat="41.613933400" lon="2.497891800">
        <ele>413.70</ele>
        <time>2014-02-23T08:35:15Z</time>
      </trkpt>
      <trkpt lat="41.613916810" lon="2.497893470">
        <ele>413.70</ele>
        <time>2014-02-23T08:35:16Z</time>
      </trkpt>
      <trkpt lat="41.613901720" lon="2.497893470">
        <ele>413.60</ele>
        <time>2014-02-23T08:35:17Z</time>
      </trkpt>
      <trkpt lat="41.613885120" lon="2.497891800">
        <ele>413.90</ele>
        <time>2014-02-23T08:35:18Z</time>
      </trkpt>
      <trkpt lat="41.613870030" lon="2.497888440">
        <ele>414.00</ele>
        <time>2014-02-23T08:35:19Z</time>
      </trkpt>
      <trkpt lat="41.613853440" lon="2.497885090">
        <ele>414.40</ele>
        <time>2014-02-23T08:35:20Z</time>
      </trkpt>
      <trkpt lat="41.613840030" lon="2.497876710">
        <ele>414.70</ele>
        <time>2014-02-23T08:35:21Z</time>
      </trkpt>
      <trkpt lat="41.613825110" lon="2.497870000">
        <ele>414.90</ele>
        <time>2014-02-23T08:35:22Z</time>
      </trkpt>
      <trkpt lat="41.613811700" lon="2.497860110">
        <ele>414.80</ele>
        <time>2014-02-23T08:35:23Z</time>
      </trkpt>
      <trkpt lat="41.613798450" lon="2.497848380">
        <ele>414.80</ele>
        <time>2014-02-23T08:35:24Z</time>
      </trkpt>
      <trkpt lat="41.613786720" lon="2.497835140">
        <ele>414.60</ele>
        <time>2014-02-23T08:35:25Z</time>
      </trkpt>
      <trkpt lat="41.613773480" lon="2.497821720">
        <ele>414.50</ele>
        <time>2014-02-23T08:35:26Z</time>
      </trkpt>
      <trkpt lat="41.613760060" lon="2.497806800">
        <ele>414.80</ele>
        <time>2014-02-23T08:35:27Z</time>
      </trkpt>
      <trkpt lat="41.613746820" lon="2.497788360">
        <ele>415.10</ele>
        <time>2014-02-23T08:35:28Z</time>
      </trkpt>
      <trkpt lat="41.613735090" lon="2.497771770">
        <ele>415.30</ele>
        <time>2014-02-23T08:35:29Z</time>
      </trkpt>
      <trkpt lat="41.613725030" lon="2.497751820">
        <ele>415.50</ele>
        <time>2014-02-23T08:35:30Z</time>
      </trkpt>
      <trkpt lat="41.613716810" lon="2.497730030">
        <ele>415.60</ele>
        <time>2014-02-23T08:35:31Z</time>
      </trkpt>
      <trkpt lat="41.613706760" lon="2.497708400">
        <ele>415.70</ele>
        <time>2014-02-23T08:35:32Z</time>
      </trkpt>
      <trkpt lat="41.613698370" lon="2.497686780">
        <ele>415.80</ele>
        <time>2014-02-23T08:35:33Z</time>
      </trkpt>
      <trkpt lat="41.613690160" lon="2.497668340">
        <ele>415.80</ele>
        <time>2014-02-23T08:35:34Z</time>
      </trkpt>
      <trkpt lat="41.613680100" lon="2.497646710">
        <ele>415.80</ele>
        <time>2014-02-23T08:35:35Z</time>
      </trkpt>
      <trkpt lat="41.613670040" lon="2.497626760">
        <ele>415.70</ele>
        <time>2014-02-23T08:35:36Z</time>
      </trkpt>
      <trkpt lat="41.613660150" lon="2.497608490">
        <ele>416.40</ele>
        <time>2014-02-23T08:35:37Z</time>
      </trkpt>
      <trkpt lat="41.613650090" lon="2.497588370">
        <ele>416.90</ele>
        <time>2014-02-23T08:35:38Z</time>
      </trkpt>
      <trkpt lat="41.613641710" lon="2.497566750">
        <ele>416.90</ele>
        <time>2014-02-23T08:35:39Z</time>
      </trkpt>
      <trkpt lat="41.613631820" lon="2.497546800">
        <ele>417.00</ele>
        <time>2014-02-23T08:35:40Z</time>
      </trkpt>
      <trkpt lat="41.613621760" lon="2.497530030">
        <ele>417.00</ele>
        <time>2014-02-23T08:35:41Z</time>
      </trkpt>
      <trkpt lat="41.613613380" lon="2.497511760">
        <ele>417.30</ele>
        <time>2014-02-23T08:35:42Z</time>
      </trkpt>
      <trkpt lat="41.613601810" lon="2.497493490">
        <ele>417.40</ele>
        <time>2014-02-23T08:35:43Z</time>
      </trkpt>
      <trkpt lat="41.613590080" lon="2.497476730">
        <ele>417.50</ele>
        <time>2014-02-23T08:35:44Z</time>
      </trkpt>
      <trkpt lat="41.613578340" lon="2.497461810">
        <ele>417.60</ele>
        <time>2014-02-23T08:35:45Z</time>
      </trkpt>
      <trkpt lat="41.613563420" lon="2.497448390">
        <ele>417.50</ele>
        <time>2014-02-23T08:35:46Z</time>
      </trkpt>
      <trkpt lat="41.613546830" lon="2.497438340">
        <ele>417.30</ele>
        <time>2014-02-23T08:35:47Z</time>
      </trkpt>
      <trkpt lat="41.613531740" lon="2.497430120">
        <ele>417.30</ele>
        <time>2014-02-23T08:35:48Z</time>
      </trkpt>
      <trkpt lat="41.613515140" lon="2.497421740">
        <ele>417.40</ele>
        <time>2014-02-23T08:35:49Z</time>
      </trkpt>
      <trkpt lat="41.613498380" lon="2.497418390">
        <ele>417.60</ele>
        <time>2014-02-23T08:35:50Z</time>
      </trkpt>
      <trkpt lat="41.613481780" lon="2.497413360">
        <ele>417.70</ele>
        <time>2014-02-23T08:35:51Z</time>
      </trkpt>
      <trkpt lat="41.613466700" lon="2.497411680">
        <ele>417.80</ele>
        <time>2014-02-23T08:35:52Z</time>
      </trkpt>
      <trkpt lat="41.613450100" lon="2.497408330">
        <ele>417.90</ele>
        <time>2014-02-23T08:35:53Z</time>
      </trkpt>
      <trkpt lat="41.613433340" lon="2.497406820">
        <ele>417.80</ele>
        <time>2014-02-23T08:35:54Z</time>
      </trkpt>
      <trkpt lat="41.613416740" lon="2.497408330">
        <ele>417.80</ele>
        <time>2014-02-23T08:35:55Z</time>
      </trkpt>
      <trkpt lat="41.613398470" lon="2.497410010">
        <ele>418.10</ele>
        <time>2014-02-23T08:35:56Z</time>
      </trkpt>
      <trkpt lat="41.613376680" lon="2.497410010">
        <ele>418.40</ele>
        <time>2014-02-23T08:35:57Z</time>
      </trkpt>
      <trkpt lat="41.613358400" lon="2.497413360">
        <ele>418.20</ele>
        <time>2014-02-23T08:35:58Z</time>
      </trkpt>
      <trkpt lat="41.613341810" lon="2.497420060">
        <ele>418.10</ele>
        <time>2014-02-23T08:35:59Z</time>
      </trkpt>
      <trkpt lat="41.613325040" lon="2.497426770">
        <ele>418.00</ele>
        <time>2014-02-23T08:36:00Z</time>
      </trkpt>
      <trkpt lat="41.613310120" lon="2.497433470">
        <ele>418.80</ele>
        <time>2014-02-23T08:36:01Z</time>
      </trkpt>
      <trkpt lat="41.613293360" lon="2.497440010">
        <ele>419.30</ele>
        <time>2014-02-23T08:36:02Z</time>
      </trkpt>
      <trkpt lat="41.613278440" lon="2.497445040">
        <ele>419.50</ele>
        <time>2014-02-23T08:36:03Z</time>
      </trkpt>
      <trkpt lat="41.613263350" lon="2.497448390">
        <ele>419.60</ele>
        <time>2014-02-23T08:36:04Z</time>
      </trkpt>
      <trkpt lat="41.613246760" lon="2.497451750">
        <ele>419.80</ele>
        <time>2014-02-23T08:36:05Z</time>
      </trkpt>
      <trkpt lat="41.613230160" lon="2.497455100">
        <ele>420.00</ele>
        <time>2014-02-23T08:36:06Z</time>
      </trkpt>
      <trkpt lat="41.613213400" lon="2.497456780">
        <ele>420.10</ele>
        <time>2014-02-23T08:36:07Z</time>
      </trkpt>
      <trkpt lat="41.613198480" lon="2.497455100">
        <ele>420.40</ele>
        <time>2014-02-23T08:36:08Z</time>
      </trkpt>
      <trkpt lat="41.613183390" lon="2.497450070">
        <ele>420.70</ele>
        <time>2014-02-23T08:36:09Z</time>
      </trkpt>
      <trkpt lat="41.613168470" lon="2.497445040">
        <ele>420.50</ele>
        <time>2014-02-23T08:36:10Z</time>
      </trkpt>
      <trkpt lat="41.613151710" lon="2.497438340">
        <ele>420.30</ele>
        <time>2014-02-23T08:36:11Z</time>
      </trkpt>
      <trkpt lat="41.613138460" lon="2.497430120">
        <ele>420.80</ele>
        <time>2014-02-23T08:36:12Z</time>
      </trkpt>
      <trkpt lat="41.613123370" lon="2.497418390">
        <ele>421.10</ele>
        <time>2014-02-23T08:36:13Z</time>
      </trkpt>
      <trkpt lat="41.613108450" lon="2.497406820">
        <ele>421.40</ele>
        <time>2014-02-23T08:36:14Z</time>
      </trkpt>
      <trkpt lat="41.613093370" lon="2.497391730">
        <ele>421.60</ele>
        <time>2014-02-23T08:36:15Z</time>
      </trkpt>
      <trkpt lat="41.613080120" lon="2.497375140">
        <ele>421.80</ele>
        <time>2014-02-23T08:36:16Z</time>
      </trkpt>
      <trkpt lat="41.613068390" lon="2.497355020">
        <ele>422.00</ele>
        <time>2014-02-23T08:36:17Z</time>
      </trkpt>
      <trkpt lat="41.613056820" lon="2.497336750">
        <ele>422.10</ele>
        <time>2014-02-23T08:36:18Z</time>
      </trkpt>
      <trkpt lat="41.613046760" lon="2.497316800">
        <ele>422.20</ele>
        <time>2014-02-23T08:36:19Z</time>
      </trkpt>
      <trkpt lat="41.613040060" lon="2.497296680">
        <ele>422.20</ele>
        <time>2014-02-23T08:36:20Z</time>
      </trkpt>
      <trkpt lat="41.613030000" lon="2.497276730">
        <ele>422.20</ele>
        <time>2014-02-23T08:36:21Z</time>
      </trkpt>
      <trkpt lat="41.613021790" lon="2.497258460">
        <ele>422.40</ele>
        <time>2014-02-23T08:36:22Z</time>
      </trkpt>
      <trkpt lat="41.613015080" lon="2.497238340">
        <ele>422.60</ele>
        <time>2014-02-23T08:36:23Z</time>
      </trkpt>
      <trkpt lat="41.613008370" lon="2.497218400">
        <ele>422.60</ele>
        <time>2014-02-23T08:36:24Z</time>
      </trkpt>
      <trkpt lat="41.613000160" lon="2.497198450">
        <ele>422.70</ele>
        <time>2014-02-23T08:36:25Z</time>
      </trkpt>
      <trkpt lat="41.612991780" lon="2.497178330">
        <ele>422.70</ele>
        <time>2014-02-23T08:36:26Z</time>
      </trkpt>
      <trkpt lat="41.612983400" lon="2.497158380">
        <ele>422.90</ele>
        <time>2014-02-23T08:36:27Z</time>
      </trkpt>
      <trkpt lat="41.612976690" lon="2.497140110">
        <ele>423.10</ele>
        <time>2014-02-23T08:36:28Z</time>
      </trkpt>
      <trkpt lat="41.612968480" lon="2.497121670">
        <ele>423.10</ele>
        <time>2014-02-23T08:36:29Z</time>
      </trkpt>
      <trkpt lat="41.612961770" lon="2.497101720">
        <ele>423.10</ele>
        <time>2014-02-23T08:36:30Z</time>
      </trkpt>
      <trkpt lat="41.612956740" lon="2.497083450">
        <ele>423.10</ele>
        <time>2014-02-23T08:36:31Z</time>
      </trkpt>
      <trkpt lat="41.612950040" lon="2.497065010">
        <ele>423.10</ele>
        <time>2014-02-23T08:36:32Z</time>
      </trkpt>
      <trkpt lat="41.612943330" lon="2.497046730">
        <ele>423.20</ele>
        <time>2014-02-23T08:36:33Z</time>
      </trkpt>
      <trkpt lat="41.612935120" lon="2.497026780">
        <ele>423.80</ele>
        <time>2014-02-23T08:36:34Z</time>
      </trkpt>
      <trkpt lat="41.612926740" lon="2.497008340">
        <ele>424.30</ele>
        <time>2014-02-23T08:36:35Z</time>
      </trkpt>
      <trkpt lat="41.612918350" lon="2.496990070">
        <ele>424.40</ele>
        <time>2014-02-23T08:36:36Z</time>
      </trkpt>
      <trkpt lat="41.612911820" lon="2.496970120">
        <ele>424.50</ele>
        <time>2014-02-23T08:36:37Z</time>
      </trkpt>
      <trkpt lat="41.612905110" lon="2.496950010">
        <ele>424.60</ele>
        <time>2014-02-23T08:36:38Z</time>
      </trkpt>
      <trkpt lat="41.612898400" lon="2.496931730">
        <ele>425.00</ele>
        <time>2014-02-23T08:36:39Z</time>
      </trkpt>
      <trkpt lat="41.612890020" lon="2.496913460">
        <ele>425.30</ele>
        <time>2014-02-23T08:36:40Z</time>
      </trkpt>
      <trkpt lat="41.612881810" lon="2.496891670">
        <ele>425.50</ele>
        <time>2014-02-23T08:36:41Z</time>
      </trkpt>
      <trkpt lat="41.612875100" lon="2.496873400">
        <ele>425.70</ele>
        <time>2014-02-23T08:36:42Z</time>
      </trkpt>
      <trkpt lat="41.612868400" lon="2.496855120">
        <ele>425.60</ele>
        <time>2014-02-23T08:36:43Z</time>
      </trkpt>
      <trkpt lat="41.612861690" lon="2.496835010">
        <ele>425.60</ele>
        <time>2014-02-23T08:36:44Z</time>
      </trkpt>
      <trkpt lat="41.612856660" lon="2.496815060">
        <ele>425.50</ele>
        <time>2014-02-23T08:36:45Z</time>
      </trkpt>
      <trkpt lat="41.612853480" lon="2.496800140">
        <ele>426.10</ele>
        <time>2014-02-23T08:36:46Z</time>
      </trkpt>
      <trkpt lat="41.612848450" lon="2.496780020">
        <ele>426.50</ele>
        <time>2014-02-23T08:36:47Z</time>
      </trkpt>
      <trkpt lat="41.612843420" lon="2.496760070">
        <ele>426.70</ele>
        <time>2014-02-23T08:36:48Z</time>
      </trkpt>
      <trkpt lat="41.612840070" lon="2.496741800">
        <ele>426.80</ele>
        <time>2014-02-23T08:36:49Z</time>
      </trkpt>
      <trkpt lat="41.612835040" lon="2.496723360">
        <ele>427.20</ele>
        <time>2014-02-23T08:36:50Z</time>
      </trkpt>
      <trkpt lat="41.612830010" lon="2.496703410">
        <ele>427.40</ele>
        <time>2014-02-23T08:36:51Z</time>
      </trkpt>
      <trkpt lat="41.612825150" lon="2.496683460">
        <ele>427.60</ele>
        <time>2014-02-23T08:36:52Z</time>
      </trkpt>
      <trkpt lat="41.612818440" lon="2.496661670">
        <ele>427.70</ele>
        <time>2014-02-23T08:36:53Z</time>
      </trkpt>
      <trkpt lat="41.612810060" lon="2.496641720">
        <ele>427.70</ele>
        <time>2014-02-23T08:36:54Z</time>
      </trkpt>
      <trkpt lat="41.612801680" lon="2.496621770">
        <ele>427.90</ele>
        <time>2014-02-23T08:36:55Z</time>
      </trkpt>
      <trkpt lat="41.612793460" lon="2.496603330">
        <ele>428.10</ele>
        <time>2014-02-23T08:36:56Z</time>
      </trkpt>
      <trkpt lat="41.612785080" lon="2.496585060">
        <ele>428.20</ele>
        <time>2014-02-23T08:36:57Z</time>
      </trkpt>
      <trkpt lat="41.612778380" lon="2.496565110">
        <ele>428.30</ele>
        <time>2014-02-23T08:36:58Z</time>
      </trkpt>
      <trkpt lat="41.612771670" lon="2.496546670">
        <ele>428.40</ele>
        <time>2014-02-23T08:36:59Z</time>
      </trkpt>
      <trkpt lat="41.612763460" lon="2.496526720">
        <ele>428.70</ele>
        <time>2014-02-23T08:37:00Z</time>
      </trkpt>
      <trkpt lat="41.612755070" lon="2.496508450">
        <ele>428.90</ele>
        <time>2014-02-23T08:37:01Z</time>
      </trkpt>
      <trkpt lat="41.612745020" lon="2.496488330">
        <ele>429.40</ele>
        <time>2014-02-23T08:37:02Z</time>
      </trkpt>
      <trkpt lat="41.612738480" lon="2.496470060">
        <ele>429.70</ele>
        <time>2014-02-23T08:37:03Z</time>
      </trkpt>
      <trkpt lat="41.612730100" lon="2.496453460">
        <ele>430.00</ele>
        <time>2014-02-23T08:37:04Z</time>
      </trkpt>
      <trkpt lat="41.612721710" lon="2.496436700">
        <ele>429.80</ele>
        <time>2014-02-23T08:37:05Z</time>
      </trkpt>
      <trkpt lat="41.612713330" lon="2.496418430">
        <ele>429.70</ele>
        <time>2014-02-23T08:37:06Z</time>
      </trkpt>
      <trkpt lat="41.612705120" lon="2.496398480">
        <ele>430.00</ele>
        <time>2014-02-23T08:37:07Z</time>
      </trkpt>
      <trkpt lat="41.612698410" lon="2.496380040">
        <ele>430.20</ele>
        <time>2014-02-23T08:37:08Z</time>
      </trkpt>
      <trkpt lat="41.612690030" lon="2.496360090">
        <ele>430.30</ele>
        <time>2014-02-23T08:37:09Z</time>
      </trkpt>
      <trkpt lat="41.612681820" lon="2.496341820">
        <ele>430.40</ele>
        <time>2014-02-23T08:37:10Z</time>
      </trkpt>
      <trkpt lat="41.612676790" lon="2.496321700">
        <ele>430.50</ele>
        <time>2014-02-23T08:37:11Z</time>
      </trkpt>
      <trkpt lat="41.612668400" lon="2.496303430">
        <ele>431.00</ele>
        <time>2014-02-23T08:37:12Z</time>
      </trkpt>
      <trkpt lat="41.612660020" lon="2.496285150">
        <ele>431.40</ele>
        <time>2014-02-23T08:37:13Z</time>
      </trkpt>
      <trkpt lat="41.612638400" lon="2.496248440">
        <ele>431.70</ele>
        <time>2014-02-23T08:37:14Z</time>
      </trkpt>
      <trkpt lat="41.612630020" lon="2.496228490">
        <ele>431.90</ele>
        <time>2014-02-23T08:37:15Z</time>
      </trkpt>
      <trkpt lat="41.612628340" lon="2.496208380">
        <ele>432.00</ele>
        <time>2014-02-23T08:37:16Z</time>
      </trkpt>
      <trkpt lat="41.612625150" lon="2.496186750">
        <ele>432.10</ele>
        <time>2014-02-23T08:37:17Z</time>
      </trkpt>
      <trkpt lat="41.612623480" lon="2.496165130">
        <ele>432.20</ele>
        <time>2014-02-23T08:37:18Z</time>
      </trkpt>
      <trkpt lat="41.612621800" lon="2.496145010">
        <ele>432.20</ele>
        <time>2014-02-23T08:37:19Z</time>
      </trkpt>
      <trkpt lat="41.612618450" lon="2.496125060">
        <ele>432.30</ele>
        <time>2014-02-23T08:37:20Z</time>
      </trkpt>
      <trkpt lat="41.612616770" lon="2.496105110">
        <ele>432.30</ele>
        <time>2014-02-23T08:37:21Z</time>
      </trkpt>
      <trkpt lat="41.612616770" lon="2.496088350">
        <ele>432.30</ele>
        <time>2014-02-23T08:37:22Z</time>
      </trkpt>
      <trkpt lat="41.612615100" lon="2.496073430">
        <ele>432.30</ele>
        <time>2014-02-23T08:37:23Z</time>
      </trkpt>
      <trkpt lat="41.612613420" lon="2.496056660">
        <ele>432.60</ele>
        <time>2014-02-23T08:37:24Z</time>
      </trkpt>
      <trkpt lat="41.612611740" lon="2.496040070">
        <ele>432.80</ele>
        <time>2014-02-23T08:37:25Z</time>
      </trkpt>
      <trkpt lat="41.612608390" lon="2.496023470">
        <ele>432.90</ele>
        <time>2014-02-23T08:37:26Z</time>
      </trkpt>
      <trkpt lat="41.612606710" lon="2.496006710">
        <ele>433.00</ele>
        <time>2014-02-23T08:37:27Z</time>
      </trkpt>
      <trkpt lat="41.612601680" lon="2.495986760">
        <ele>433.50</ele>
        <time>2014-02-23T08:37:28Z</time>
      </trkpt>
      <trkpt lat="41.612600010" lon="2.495966810">
        <ele>433.80</ele>
        <time>2014-02-23T08:37:29Z</time>
      </trkpt>
      <trkpt lat="41.612598330" lon="2.495948370">
        <ele>434.10</ele>
        <time>2014-02-23T08:37:30Z</time>
      </trkpt>
      <trkpt lat="41.612593470" lon="2.495930100">
        <ele>434.20</ele>
        <time>2014-02-23T08:37:31Z</time>
      </trkpt>
      <trkpt lat="41.612590120" lon="2.495913330">
        <ele>434.30</ele>
        <time>2014-02-23T08:37:32Z</time>
      </trkpt>
      <trkpt lat="41.612586770" lon="2.495896740">
        <ele>434.30</ele>
        <time>2014-02-23T08:37:33Z</time>
      </trkpt>
      <trkpt lat="41.612586770" lon="2.495883490">
        <ele>434.30</ele>
        <time>2014-02-23T08:37:34Z</time>
      </trkpt>
      <trkpt lat="41.612590120" lon="2.495870080">
        <ele>434.30</ele>
        <time>2014-02-23T08:37:35Z</time>
      </trkpt>
      <trkpt lat="41.612595150" lon="2.495861700">
        <ele>434.70</ele>
        <time>2014-02-23T08:37:36Z</time>
      </trkpt>
      <trkpt lat="41.612605040" lon="2.495855160">
        <ele>435.00</ele>
        <time>2014-02-23T08:37:37Z</time>
      </trkpt>
      <trkpt lat="41.612615100" lon="2.495851810">
        <ele>435.20</ele>
        <time>2014-02-23T08:37:38Z</time>
      </trkpt>
      <trkpt lat="41.612625150" lon="2.495851810">
        <ele>435.40</ele>
        <time>2014-02-23T08:37:39Z</time>
      </trkpt>
      <trkpt lat="41.612635040" lon="2.495853490">
        <ele>435.20</ele>
        <time>2014-02-23T08:37:40Z</time>
      </trkpt>
      <trkpt lat="41.612648460" lon="2.495853490">
        <ele>435.00</ele>
        <time>2014-02-23T08:37:41Z</time>
      </trkpt>
      <trkpt lat="41.612663380" lon="2.495853490">
        <ele>434.80</ele>
        <time>2014-02-23T08:37:42Z</time>
      </trkpt>
      <trkpt lat="41.612676790" lon="2.495853490">
        <ele>434.70</ele>
        <time>2014-02-23T08:37:43Z</time>
      </trkpt>
      <trkpt lat="41.612690030" lon="2.495855160">
        <ele>434.50</ele>
        <time>2014-02-23T08:37:44Z</time>
      </trkpt>
      <trkpt lat="41.612700090" lon="2.495858350">
        <ele>435.10</ele>
        <time>2014-02-23T08:37:45Z</time>
      </trkpt>
      <trkpt lat="41.612710150" lon="2.495860020">
        <ele>435.60</ele>
        <time>2014-02-23T08:37:46Z</time>
      </trkpt>
      <trkpt lat="41.612720040" lon="2.495861700">
        <ele>435.70</ele>
        <time>2014-02-23T08:37:47Z</time>
      </trkpt>
      <trkpt lat="41.612728420" lon="2.495865050">
        <ele>435.70</ele>
        <time>2014-02-23T08:37:48Z</time>
      </trkpt>
      <trkpt lat="41.612740150" lon="2.495866730">
        <ele>435.80</ele>
        <time>2014-02-23T08:37:49Z</time>
      </trkpt>
      <trkpt lat="41.612750040" lon="2.495866730">
        <ele>435.50</ele>
        <time>2014-02-23T08:37:50Z</time>
      </trkpt>
      <trkpt lat="41.612761780" lon="2.495866730">
        <ele>435.40</ele>
        <time>2014-02-23T08:37:51Z</time>
      </trkpt>
      <trkpt lat="41.612773350" lon="2.495865050">
        <ele>435.40</ele>
        <time>2014-02-23T08:37:52Z</time>
      </trkpt>
      <trkpt lat="41.612786760" lon="2.495865050">
        <ele>435.50</ele>
        <time>2014-02-23T08:37:53Z</time>
      </trkpt>
      <trkpt lat="41.612800000" lon="2.495865050">
        <ele>435.60</ele>
        <time>2014-02-23T08:37:54Z</time>
      </trkpt>
      <trkpt lat="41.612810060" lon="2.495866730">
        <ele>435.90</ele>
        <time>2014-02-23T08:37:55Z</time>
      </trkpt>
      <trkpt lat="41.612821790" lon="2.495870080">
        <ele>436.10</ele>
        <time>2014-02-23T08:37:56Z</time>
      </trkpt>
      <trkpt lat="41.612835040" lon="2.495870080">
        <ele>436.10</ele>
        <time>2014-02-23T08:37:57Z</time>
      </trkpt>
      <trkpt lat="41.612846770" lon="2.495870080">
        <ele>436.10</ele>
        <time>2014-02-23T08:37:58Z</time>
      </trkpt>
      <trkpt lat="41.612858340" lon="2.495866730">
        <ele>436.20</ele>
        <time>2014-02-23T08:37:59Z</time>
      </trkpt>
      <trkpt lat="41.612870070" lon="2.495868410">
        <ele>436.30</ele>
        <time>2014-02-23T08:38:00Z</time>
      </trkpt>
      <trkpt lat="41.612883480" lon="2.495868410">
        <ele>436.30</ele>
        <time>2014-02-23T08:38:01Z</time>
      </trkpt>
      <trkpt lat="41.612898400" lon="2.495870080">
        <ele>436.60</ele>
        <time>2014-02-23T08:38:02Z</time>
      </trkpt>
      <trkpt lat="41.612908460" lon="2.495870080">
        <ele>436.80</ele>
        <time>2014-02-23T08:38:03Z</time>
      </trkpt>
      <trkpt lat="41.612923380" lon="2.495871760">
        <ele>436.60</ele>
        <time>2014-02-23T08:38:04Z</time>
      </trkpt>
      <trkpt lat="41.612938470" lon="2.495875110">
        <ele>436.40</ele>
        <time>2014-02-23T08:38:05Z</time>
      </trkpt>
      <trkpt lat="41.612951710" lon="2.495876790">
        <ele>436.90</ele>
        <time>2014-02-23T08:38:06Z</time>
      </trkpt>
      <trkpt lat="41.612965120" lon="2.495880140">
        <ele>437.20</ele>
        <time>2014-02-23T08:38:07Z</time>
      </trkpt>
      <trkpt lat="41.612978370" lon="2.495883490">
        <ele>437.50</ele>
        <time>2014-02-23T08:38:08Z</time>
      </trkpt>
      <trkpt lat="41.612991780" lon="2.495886680">
        <ele>437.50</ele>
        <time>2014-02-23T08:38:09Z</time>
      </trkpt>
      <trkpt lat="41.613006700" lon="2.495890030">
        <ele>437.40</ele>
        <time>2014-02-23T08:38:10Z</time>
      </trkpt>
      <trkpt lat="41.613020110" lon="2.495895060">
        <ele>437.50</ele>
        <time>2014-02-23T08:38:11Z</time>
      </trkpt>
      <trkpt lat="41.613035030" lon="2.495900090">
        <ele>437.60</ele>
        <time>2014-02-23T08:38:12Z</time>
      </trkpt>
      <trkpt lat="41.613048440" lon="2.495905120">
        <ele>438.00</ele>
        <time>2014-02-23T08:38:13Z</time>
      </trkpt>
      <trkpt lat="41.613063360" lon="2.495908470">
        <ele>438.40</ele>
        <time>2014-02-23T08:38:14Z</time>
      </trkpt>
      <trkpt lat="41.613078450" lon="2.495911820">
        <ele>438.60</ele>
        <time>2014-02-23T08:38:15Z</time>
      </trkpt>
      <trkpt lat="41.613093370" lon="2.495916690">
        <ele>438.80</ele>
        <time>2014-02-23T08:38:16Z</time>
      </trkpt>
      <trkpt lat="41.613108450" lon="2.495920040">
        <ele>438.90</ele>
        <time>2014-02-23T08:38:17Z</time>
      </trkpt>
      <trkpt lat="41.613121700" lon="2.495921710">
        <ele>438.80</ele>
        <time>2014-02-23T08:38:18Z</time>
      </trkpt>
      <trkpt lat="41.613136790" lon="2.495921710">
        <ele>438.80</ele>
        <time>2014-02-23T08:38:19Z</time>
      </trkpt>
      <trkpt lat="41.613151710" lon="2.495925070">
        <ele>438.80</ele>
        <time>2014-02-23T08:38:20Z</time>
      </trkpt>
      <trkpt lat="41.613168470" lon="2.495928420">
        <ele>438.90</ele>
        <time>2014-02-23T08:38:21Z</time>
      </trkpt>
      <trkpt lat="41.613183390" lon="2.495930100">
        <ele>439.00</ele>
        <time>2014-02-23T08:38:22Z</time>
      </trkpt>
      <trkpt lat="41.613200150" lon="2.495931770">
        <ele>439.30</ele>
        <time>2014-02-23T08:38:23Z</time>
      </trkpt>
      <trkpt lat="41.613216750" lon="2.495933450">
        <ele>439.60</ele>
        <time>2014-02-23T08:38:24Z</time>
      </trkpt>
      <trkpt lat="41.613233350" lon="2.495935130">
        <ele>439.70</ele>
        <time>2014-02-23T08:38:25Z</time>
      </trkpt>
      <trkpt lat="41.613250110" lon="2.495935130">
        <ele>439.70</ele>
        <time>2014-02-23T08:38:26Z</time>
      </trkpt>
      <trkpt lat="41.613265030" lon="2.495936800">
        <ele>439.80</ele>
        <time>2014-02-23T08:38:27Z</time>
      </trkpt>
      <trkpt lat="41.613281790" lon="2.495936800">
        <ele>439.80</ele>
        <time>2014-02-23T08:38:28Z</time>
      </trkpt>
      <trkpt lat="41.613298390" lon="2.495933450">
        <ele>439.80</ele>
        <time>2014-02-23T08:38:29Z</time>
      </trkpt>
      <trkpt lat="41.613315150" lon="2.495931770">
        <ele>440.00</ele>
        <time>2014-02-23T08:38:30Z</time>
      </trkpt>
      <trkpt lat="41.613330070" lon="2.495930100">
        <ele>440.10</ele>
        <time>2014-02-23T08:38:31Z</time>
      </trkpt>
      <trkpt lat="41.613345160" lon="2.495928420">
        <ele>440.00</ele>
        <time>2014-02-23T08:38:32Z</time>
      </trkpt>
      <trkpt lat="41.613360080" lon="2.495926740">
        <ele>439.80</ele>
        <time>2014-02-23T08:38:33Z</time>
      </trkpt>
      <trkpt lat="41.613373490" lon="2.495923390">
        <ele>439.80</ele>
        <time>2014-02-23T08:38:34Z</time>
      </trkpt>
      <trkpt lat="41.613388410" lon="2.495921710">
        <ele>439.70</ele>
        <time>2014-02-23T08:38:35Z</time>
      </trkpt>
      <trkpt lat="41.613403330" lon="2.495918360">
        <ele>439.70</ele>
        <time>2014-02-23T08:38:36Z</time>
      </trkpt>
      <trkpt lat="41.613418420" lon="2.495915010">
        <ele>439.80</ele>
        <time>2014-02-23T08:38:37Z</time>
      </trkpt>
      <trkpt lat="41.613435010" lon="2.495910150">
        <ele>439.80</ele>
        <time>2014-02-23T08:38:38Z</time>
      </trkpt>
      <trkpt lat="41.613448420" lon="2.495906800">
        <ele>439.90</ele>
        <time>2014-02-23T08:38:39Z</time>
      </trkpt>
      <trkpt lat="41.613463340" lon="2.495900090">
        <ele>440.20</ele>
        <time>2014-02-23T08:38:40Z</time>
      </trkpt>
      <trkpt lat="41.613478430" lon="2.495893380">
        <ele>440.40</ele>
        <time>2014-02-23T08:38:41Z</time>
      </trkpt>
      <trkpt lat="41.613493350" lon="2.495890030">
        <ele>440.40</ele>
        <time>2014-02-23T08:38:42Z</time>
      </trkpt>
      <trkpt lat="41.613506760" lon="2.495883490">
        <ele>440.30</ele>
        <time>2014-02-23T08:38:43Z</time>
      </trkpt>
      <trkpt lat="41.613523360" lon="2.495875110">
        <ele>440.50</ele>
        <time>2014-02-23T08:38:44Z</time>
      </trkpt>
      <trkpt lat="41.613540120" lon="2.495870080">
        <ele>440.60</ele>
        <time>2014-02-23T08:38:45Z</time>
      </trkpt>
      <trkpt lat="41.613556720" lon="2.495865050">
        <ele>440.70</ele>
        <time>2014-02-23T08:38:46Z</time>
      </trkpt>
      <trkpt lat="41.613573480" lon="2.495858350">
        <ele>440.90</ele>
        <time>2014-02-23T08:38:47Z</time>
      </trkpt>
      <trkpt lat="41.613590080" lon="2.495853490">
        <ele>441.10</ele>
        <time>2014-02-23T08:38:48Z</time>
      </trkpt>
      <trkpt lat="41.613605000" lon="2.495850130">
        <ele>441.30</ele>
        <time>2014-02-23T08:38:49Z</time>
      </trkpt>
      <trkpt lat="41.613623440" lon="2.495843430">
        <ele>441.50</ele>
        <time>2014-02-23T08:38:50Z</time>
      </trkpt>
      <trkpt lat="41.613638360" lon="2.495836720">
        <ele>441.70</ele>
        <time>2014-02-23T08:38:51Z</time>
      </trkpt>
      <trkpt lat="41.613655120" lon="2.495830020">
        <ele>441.90</ele>
        <time>2014-02-23T08:38:52Z</time>
      </trkpt>
      <trkpt lat="41.613671720" lon="2.495823480">
        <ele>442.10</ele>
        <time>2014-02-23T08:38:53Z</time>
      </trkpt>
      <trkpt lat="41.613688480" lon="2.495815100">
        <ele>442.10</ele>
        <time>2014-02-23T08:38:54Z</time>
      </trkpt>
      <trkpt lat="41.613705080" lon="2.495808390">
        <ele>442.10</ele>
        <time>2014-02-23T08:38:55Z</time>
      </trkpt>
      <trkpt lat="41.613723350" lon="2.495803360">
        <ele>442.00</ele>
        <time>2014-02-23T08:38:56Z</time>
      </trkpt>
      <trkpt lat="41.613740120" lon="2.495798330">
        <ele>441.90</ele>
        <time>2014-02-23T08:38:57Z</time>
      </trkpt>
      <trkpt lat="41.613758390" lon="2.495791800">
        <ele>441.80</ele>
        <time>2014-02-23T08:38:58Z</time>
      </trkpt>
      <trkpt lat="41.613775150" lon="2.495786770">
        <ele>442.30</ele>
        <time>2014-02-23T08:38:59Z</time>
      </trkpt>
      <trkpt lat="41.613793420" lon="2.495780060">
        <ele>442.60</ele>
        <time>2014-02-23T08:39:00Z</time>
      </trkpt>
      <trkpt lat="41.613813370" lon="2.495773360">
        <ele>442.90</ele>
        <time>2014-02-23T08:39:01Z</time>
      </trkpt>
      <trkpt lat="41.613835000" lon="2.495766820">
        <ele>443.20</ele>
        <time>2014-02-23T08:39:02Z</time>
      </trkpt>
      <trkpt lat="41.613856790" lon="2.495761790">
        <ele>443.30</ele>
        <time>2014-02-23T08:39:03Z</time>
      </trkpt>
      <trkpt lat="41.613875060" lon="2.495755080">
        <ele>443.40</ele>
        <time>2014-02-23T08:39:04Z</time>
      </trkpt>
      <trkpt lat="41.613893340" lon="2.495748380">
        <ele>443.50</ele>
        <time>2014-02-23T08:39:05Z</time>
      </trkpt>
      <trkpt lat="41.613910100" lon="2.495741670">
        <ele>443.10</ele>
        <time>2014-02-23T08:39:06Z</time>
      </trkpt>
      <trkpt lat="41.613928370" lon="2.495735130">
        <ele>442.80</ele>
        <time>2014-02-23T08:39:07Z</time>
      </trkpt>
      <trkpt lat="41.613945140" lon="2.495730100">
        <ele>443.10</ele>
        <time>2014-02-23T08:39:08Z</time>
      </trkpt>
      <trkpt lat="41.613961730" lon="2.495726750">
        <ele>443.30</ele>
        <time>2014-02-23T08:39:09Z</time>
      </trkpt>
      <trkpt lat="41.613978330" lon="2.495721720">
        <ele>443.30</ele>
        <time>2014-02-23T08:39:10Z</time>
      </trkpt>
      <trkpt lat="41.613993420" lon="2.495718370">
        <ele>443.30</ele>
        <time>2014-02-23T08:39:11Z</time>
      </trkpt>
      <trkpt lat="41.614010010" lon="2.495713340">
        <ele>443.40</ele>
        <time>2014-02-23T08:39:12Z</time>
      </trkpt>
      <trkpt lat="41.614025100" lon="2.495708480">
        <ele>443.50</ele>
        <time>2014-02-23T08:39:13Z</time>
      </trkpt>
      <trkpt lat="41.614041700" lon="2.495701770">
        <ele>443.70</ele>
        <time>2014-02-23T08:39:14Z</time>
      </trkpt>
      <trkpt lat="41.614056780" lon="2.495695070">
        <ele>443.70</ele>
        <time>2014-02-23T08:39:15Z</time>
      </trkpt>
      <trkpt lat="41.614071700" lon="2.495691720">
        <ele>443.60</ele>
        <time>2014-02-23T08:39:16Z</time>
      </trkpt>
      <trkpt lat="41.614086790" lon="2.495685010">
        <ele>443.60</ele>
        <time>2014-02-23T08:39:17Z</time>
      </trkpt>
      <trkpt lat="41.614101710" lon="2.495683330">
        <ele>443.70</ele>
        <time>2014-02-23T08:39:18Z</time>
      </trkpt>
      <trkpt lat="41.614118470" lon="2.495678470">
        <ele>443.70</ele>
        <time>2014-02-23T08:39:19Z</time>
      </trkpt>
      <trkpt lat="41.614136750" lon="2.495675120">
        <ele>444.10</ele>
        <time>2014-02-23T08:39:20Z</time>
      </trkpt>
      <trkpt lat="41.614155020" lon="2.495673440">
        <ele>444.40</ele>
        <time>2014-02-23T08:39:21Z</time>
      </trkpt>
      <trkpt lat="41.614171780" lon="2.495668410">
        <ele>444.70</ele>
        <time>2014-02-23T08:39:22Z</time>
      </trkpt>
      <trkpt lat="41.614188380" lon="2.495668410">
        <ele>445.00</ele>
        <time>2014-02-23T08:39:23Z</time>
      </trkpt>
      <trkpt lat="41.614205140" lon="2.495665060">
        <ele>445.10</ele>
        <time>2014-02-23T08:39:24Z</time>
      </trkpt>
      <trkpt lat="41.614223420" lon="2.495661710">
        <ele>445.30</ele>
        <time>2014-02-23T08:39:25Z</time>
      </trkpt>
      <trkpt lat="41.614241690" lon="2.495658360">
        <ele>445.40</ele>
        <time>2014-02-23T08:39:26Z</time>
      </trkpt>
      <trkpt lat="41.614263480" lon="2.495656680">
        <ele>445.50</ele>
        <time>2014-02-23T08:39:27Z</time>
      </trkpt>
      <trkpt lat="41.614281750" lon="2.495655000">
        <ele>445.70</ele>
        <time>2014-02-23T08:39:28Z</time>
      </trkpt>
      <trkpt lat="41.614298350" lon="2.495653490">
        <ele>445.90</ele>
        <time>2014-02-23T08:39:29Z</time>
      </trkpt>
      <trkpt lat="41.614313440" lon="2.495653490">
        <ele>446.10</ele>
        <time>2014-02-23T08:39:30Z</time>
      </trkpt>
      <trkpt lat="41.614328360" lon="2.495651820">
        <ele>446.20</ele>
        <time>2014-02-23T08:39:31Z</time>
      </trkpt>
      <trkpt lat="41.614343440" lon="2.495648460">
        <ele>446.30</ele>
        <time>2014-02-23T08:39:32Z</time>
      </trkpt>
      <trkpt lat="41.614360040" lon="2.495648460">
        <ele>446.40</ele>
        <time>2014-02-23T08:39:33Z</time>
      </trkpt>
      <trkpt lat="41.614375130" lon="2.495646790">
        <ele>446.40</ele>
        <time>2014-02-23T08:39:34Z</time>
      </trkpt>
      <trkpt lat="41.614386700" lon="2.495646790">
        <ele>446.30</ele>
        <time>2014-02-23T08:39:35Z</time>
      </trkpt>
      <trkpt lat="41.614400110" lon="2.495646790">
        <ele>446.30</ele>
        <time>2014-02-23T08:39:36Z</time>
      </trkpt>
      <trkpt lat="41.614411670" lon="2.495648460">
        <ele>446.60</ele>
        <time>2014-02-23T08:39:37Z</time>
      </trkpt>
      <trkpt lat="41.614426760" lon="2.495648460">
        <ele>446.90</ele>
        <time>2014-02-23T08:39:38Z</time>
      </trkpt>
      <trkpt lat="41.614440000" lon="2.495643440">
        <ele>447.20</ele>
        <time>2014-02-23T08:39:39Z</time>
      </trkpt>
      <trkpt lat="41.614453420" lon="2.495641760">
        <ele>447.40</ele>
        <time>2014-02-23T08:39:40Z</time>
      </trkpt>
      <trkpt lat="41.614466830" lon="2.495640080">
        <ele>447.50</ele>
        <time>2014-02-23T08:39:41Z</time>
      </trkpt>
      <trkpt lat="41.614481750" lon="2.495633380">
        <ele>447.50</ele>
        <time>2014-02-23T08:39:42Z</time>
      </trkpt>
      <trkpt lat="41.614498340" lon="2.495628350">
        <ele>447.60</ele>
        <time>2014-02-23T08:39:43Z</time>
      </trkpt>
      <trkpt lat="41.614515110" lon="2.495621810">
        <ele>447.60</ele>
        <time>2014-02-23T08:39:44Z</time>
      </trkpt>
      <trkpt lat="41.614530030" lon="2.495613430">
        <ele>447.50</ele>
        <time>2014-02-23T08:39:45Z</time>
      </trkpt>
      <trkpt lat="41.614546790" lon="2.495608400">
        <ele>447.80</ele>
        <time>2014-02-23T08:39:46Z</time>
      </trkpt>
      <trkpt lat="41.614561710" lon="2.495601690">
        <ele>448.00</ele>
        <time>2014-02-23T08:39:47Z</time>
      </trkpt>
      <trkpt lat="41.614576800" lon="2.495595160">
        <ele>448.40</ele>
        <time>2014-02-23T08:39:48Z</time>
      </trkpt>
      <trkpt lat="41.614591720" lon="2.495591800">
        <ele>448.60</ele>
        <time>2014-02-23T08:39:49Z</time>
      </trkpt>
      <trkpt lat="41.614605130" lon="2.495583420">
        <ele>448.80</ele>
        <time>2014-02-23T08:39:50Z</time>
      </trkpt>
      <trkpt lat="41.614621720" lon="2.495571690">
        <ele>449.00</ele>
        <time>2014-02-23T08:39:51Z</time>
      </trkpt>
      <trkpt lat="41.614636810" lon="2.495561800">
        <ele>449.20</ele>
        <time>2014-02-23T08:39:52Z</time>
      </trkpt>
      <trkpt lat="41.614653410" lon="2.495551740">
        <ele>449.50</ele>
        <time>2014-02-23T08:39:53Z</time>
      </trkpt>
      <trkpt lat="41.614668490" lon="2.495543360">
        <ele>449.80</ele>
        <time>2014-02-23T08:39:54Z</time>
      </trkpt>
      <trkpt lat="41.614685090" lon="2.495535140">
        <ele>450.00</ele>
        <time>2014-02-23T08:39:55Z</time>
      </trkpt>
      <trkpt lat="41.614698330" lon="2.495526760">
        <ele>450.00</ele>
        <time>2014-02-23T08:39:56Z</time>
      </trkpt>
      <trkpt lat="41.614710070" lon="2.495518380">
        <ele>450.00</ele>
        <time>2014-02-23T08:39:57Z</time>
      </trkpt>
      <trkpt lat="41.614721800" lon="2.495511670">
        <ele>450.50</ele>
        <time>2014-02-23T08:39:58Z</time>
      </trkpt>
      <trkpt lat="41.614735050" lon="2.495505130">
        <ele>450.80</ele>
        <time>2014-02-23T08:39:59Z</time>
      </trkpt>
      <trkpt lat="41.614748460" lon="2.495500110">
        <ele>451.10</ele>
        <time>2014-02-23T08:40:00Z</time>
      </trkpt>
      <trkpt lat="41.614763380" lon="2.495493400">
        <ele>451.30</ele>
        <time>2014-02-23T08:40:01Z</time>
      </trkpt>
      <trkpt lat="41.614780140" lon="2.495483340">
        <ele>451.40</ele>
        <time>2014-02-23T08:40:02Z</time>
      </trkpt>
      <trkpt lat="41.614795060" lon="2.495475130">
        <ele>451.60</ele>
        <time>2014-02-23T08:40:03Z</time>
      </trkpt>
      <trkpt lat="41.614806800" lon="2.495471770">
        <ele>451.80</ele>
        <time>2014-02-23T08:40:04Z</time>
      </trkpt>
      <trkpt lat="41.614820040" lon="2.495468420">
        <ele>452.20</ele>
        <time>2014-02-23T08:40:05Z</time>
      </trkpt>
      <trkpt lat="41.614831770" lon="2.495466750">
        <ele>452.60</ele>
        <time>2014-02-23T08:40:06Z</time>
      </trkpt>
      <trkpt lat="41.614843340" lon="2.495463390">
        <ele>453.00</ele>
        <time>2014-02-23T08:40:07Z</time>
      </trkpt>
      <trkpt lat="41.614858430" lon="2.495458360">
        <ele>453.30</ele>
        <time>2014-02-23T08:40:08Z</time>
      </trkpt>
      <trkpt lat="41.614873350" lon="2.495455010">
        <ele>453.50</ele>
        <time>2014-02-23T08:40:09Z</time>
      </trkpt>
      <trkpt lat="41.614888440" lon="2.495451830">
        <ele>453.70</ele>
        <time>2014-02-23T08:40:10Z</time>
      </trkpt>
      <trkpt lat="41.614901680" lon="2.495448470">
        <ele>453.90</ele>
        <time>2014-02-23T08:40:11Z</time>
      </trkpt>
      <trkpt lat="41.614918440" lon="2.495445120">
        <ele>453.80</ele>
        <time>2014-02-23T08:40:12Z</time>
      </trkpt>
      <trkpt lat="41.614935040" lon="2.495443440">
        <ele>453.70</ele>
        <time>2014-02-23T08:40:13Z</time>
      </trkpt>
      <trkpt lat="41.614953480" lon="2.495445120">
        <ele>453.70</ele>
        <time>2014-02-23T08:40:14Z</time>
      </trkpt>
      <trkpt lat="41.614973430" lon="2.495448470">
        <ele>454.30</ele>
        <time>2014-02-23T08:40:15Z</time>
      </trkpt>
      <trkpt lat="41.614991700" lon="2.495455010">
        <ele>454.70</ele>
        <time>2014-02-23T08:40:16Z</time>
      </trkpt>
      <trkpt lat="41.615010140" lon="2.495460040">
        <ele>454.60</ele>
        <time>2014-02-23T08:40:17Z</time>
      </trkpt>
      <trkpt lat="41.615026740" lon="2.495466750">
        <ele>454.50</ele>
        <time>2014-02-23T08:40:18Z</time>
      </trkpt>
      <trkpt lat="41.615041820" lon="2.495478480">
        <ele>454.80</ele>
        <time>2014-02-23T08:40:19Z</time>
      </trkpt>
      <trkpt lat="41.615056740" lon="2.495488370">
        <ele>455.00</ele>
        <time>2014-02-23T08:40:20Z</time>
      </trkpt>
      <trkpt lat="41.615071660" lon="2.495501780">
        <ele>455.20</ele>
        <time>2014-02-23T08:40:21Z</time>
      </trkpt>
      <trkpt lat="41.615085080" lon="2.495515020">
        <ele>455.50</ele>
        <time>2014-02-23T08:40:22Z</time>
      </trkpt>
      <trkpt lat="41.615098490" lon="2.495528440">
        <ele>455.70</ele>
        <time>2014-02-23T08:40:23Z</time>
      </trkpt>
      <trkpt lat="41.615111730" lon="2.495541680">
        <ele>455.80</ele>
        <time>2014-02-23T08:40:24Z</time>
      </trkpt>
      <trkpt lat="41.615125140" lon="2.495555090">
        <ele>456.00</ele>
        <time>2014-02-23T08:40:25Z</time>
      </trkpt>
      <trkpt lat="41.615138380" lon="2.495568330">
        <ele>456.20</ele>
        <time>2014-02-23T08:40:26Z</time>
      </trkpt>
      <trkpt lat="41.615151800" lon="2.495581740">
        <ele>456.40</ele>
        <time>2014-02-23T08:40:27Z</time>
      </trkpt>
      <trkpt lat="41.615163360" lon="2.495591800">
        <ele>456.50</ele>
        <time>2014-02-23T08:40:28Z</time>
      </trkpt>
      <trkpt lat="41.615176770" lon="2.495605050">
        <ele>456.80</ele>
        <time>2014-02-23T08:40:29Z</time>
      </trkpt>
      <trkpt lat="41.615191690" lon="2.495618460">
        <ele>457.00</ele>
        <time>2014-02-23T08:40:30Z</time>
      </trkpt>
      <trkpt lat="41.615205100" lon="2.495633380">
        <ele>457.20</ele>
        <time>2014-02-23T08:40:31Z</time>
      </trkpt>
      <trkpt lat="41.615216670" lon="2.495648460">
        <ele>457.40</ele>
        <time>2014-02-23T08:40:32Z</time>
      </trkpt>
      <trkpt lat="41.615226730" lon="2.495665060">
        <ele>457.50</ele>
        <time>2014-02-23T08:40:33Z</time>
      </trkpt>
      <trkpt lat="41.615238460" lon="2.495680150">
        <ele>457.80</ele>
        <time>2014-02-23T08:40:34Z</time>
      </trkpt>
      <trkpt lat="41.615250030" lon="2.495695070">
        <ele>458.10</ele>
        <time>2014-02-23T08:40:35Z</time>
      </trkpt>
      <trkpt lat="41.615261770" lon="2.495710160">
        <ele>458.20</ele>
        <time>2014-02-23T08:40:36Z</time>
      </trkpt>
      <trkpt lat="41.615271820" lon="2.495725080">
        <ele>458.30</ele>
        <time>2014-02-23T08:40:37Z</time>
      </trkpt>
      <trkpt lat="41.615283390" lon="2.495740000">
        <ele>458.80</ele>
        <time>2014-02-23T08:40:38Z</time>
      </trkpt>
      <trkpt lat="41.615295130" lon="2.495755080">
        <ele>459.10</ele>
        <time>2014-02-23T08:40:39Z</time>
      </trkpt>
      <trkpt lat="41.615306690" lon="2.495770000">
        <ele>459.30</ele>
        <time>2014-02-23T08:40:40Z</time>
      </trkpt>
      <trkpt lat="41.615318430" lon="2.495785090">
        <ele>459.50</ele>
        <time>2014-02-23T08:40:41Z</time>
      </trkpt>
      <trkpt lat="41.615330160" lon="2.495798330">
        <ele>459.70</ele>
        <time>2014-02-23T08:40:42Z</time>
      </trkpt>
      <trkpt lat="41.615341730" lon="2.495815100">
        <ele>460.10</ele>
        <time>2014-02-23T08:40:43Z</time>
      </trkpt>
      <trkpt lat="41.615351790" lon="2.495830020">
        <ele>460.40</ele>
        <time>2014-02-23T08:40:44Z</time>
      </trkpt>
      <trkpt lat="41.615363350" lon="2.495846780">
        <ele>460.40</ele>
        <time>2014-02-23T08:40:45Z</time>
      </trkpt>
      <trkpt lat="41.615373410" lon="2.495860020">
        <ele>460.30</ele>
        <time>2014-02-23T08:40:46Z</time>
      </trkpt>
      <trkpt lat="41.615383470" lon="2.495876790">
        <ele>460.30</ele>
        <time>2014-02-23T08:40:47Z</time>
      </trkpt>
      <trkpt lat="41.615391690" lon="2.495893380">
        <ele>460.40</ele>
        <time>2014-02-23T08:40:48Z</time>
      </trkpt>
      <trkpt lat="41.615400070" lon="2.495910150">
        <ele>460.60</ele>
        <time>2014-02-23T08:40:49Z</time>
      </trkpt>
      <trkpt lat="41.615408450" lon="2.495926740">
        <ele>461.00</ele>
        <time>2014-02-23T08:40:50Z</time>
      </trkpt>
      <trkpt lat="41.615416660" lon="2.495945020">
        <ele>461.20</ele>
        <time>2014-02-23T08:40:51Z</time>
      </trkpt>
      <trkpt lat="41.615425050" lon="2.495961780">
        <ele>461.40</ele>
        <time>2014-02-23T08:40:52Z</time>
      </trkpt>
      <trkpt lat="41.615433430" lon="2.495980050">
        <ele>461.70</ele>
        <time>2014-02-23T08:40:53Z</time>
      </trkpt>
      <trkpt lat="41.615440130" lon="2.496000000">
        <ele>461.80</ele>
        <time>2014-02-23T08:40:54Z</time>
      </trkpt>
      <trkpt lat="41.615446670" lon="2.496020120">
        <ele>461.70</ele>
        <time>2014-02-23T08:40:55Z</time>
      </trkpt>
      <trkpt lat="41.615453380" lon="2.496038390">
        <ele>461.60</ele>
        <time>2014-02-23T08:40:56Z</time>
      </trkpt>
      <trkpt lat="41.615460080" lon="2.496056660">
        <ele>461.90</ele>
        <time>2014-02-23T08:40:57Z</time>
      </trkpt>
      <trkpt lat="41.615465110" lon="2.496075100">
        <ele>462.10</ele>
        <time>2014-02-23T08:40:58Z</time>
      </trkpt>
      <trkpt lat="41.615470140" lon="2.496093380">
        <ele>462.30</ele>
        <time>2014-02-23T08:40:59Z</time>
      </trkpt>
      <trkpt lat="41.615475000" lon="2.496111820">
        <ele>462.30</ele>
        <time>2014-02-23T08:41:00Z</time>
      </trkpt>
      <trkpt lat="41.615480030" lon="2.496128410">
        <ele>462.40</ele>
        <time>2014-02-23T08:41:01Z</time>
      </trkpt>
      <trkpt lat="41.615486740" lon="2.496146690">
        <ele>462.60</ele>
        <time>2014-02-23T08:41:02Z</time>
      </trkpt>
      <trkpt lat="41.615493440" lon="2.496163450">
        <ele>462.80</ele>
        <time>2014-02-23T08:41:03Z</time>
      </trkpt>
      <trkpt lat="41.615503330" lon="2.496180050">
        <ele>463.40</ele>
        <time>2014-02-23T08:41:04Z</time>
      </trkpt>
      <trkpt lat="41.615510040" lon="2.496193460">
        <ele>463.90</ele>
        <time>2014-02-23T08:41:05Z</time>
      </trkpt>
      <trkpt lat="41.615516740" lon="2.496211730">
        <ele>464.20</ele>
        <time>2014-02-23T08:41:06Z</time>
      </trkpt>
      <trkpt lat="41.615525130" lon="2.496231680">
        <ele>464.40</ele>
        <time>2014-02-23T08:41:07Z</time>
      </trkpt>
      <trkpt lat="41.615533340" lon="2.496251790">
        <ele>464.50</ele>
        <time>2014-02-23T08:41:08Z</time>
      </trkpt>
      <trkpt lat="41.615541720" lon="2.496271740">
        <ele>464.60</ele>
        <time>2014-02-23T08:41:09Z</time>
      </trkpt>
      <trkpt lat="41.615550100" lon="2.496293370">
        <ele>464.70</ele>
        <time>2014-02-23T08:41:10Z</time>
      </trkpt>
      <trkpt lat="41.615558490" lon="2.496311810">
        <ele>464.60</ele>
        <time>2014-02-23T08:41:11Z</time>
      </trkpt>
      <trkpt lat="41.615565020" lon="2.496331760">
        <ele>464.50</ele>
        <time>2014-02-23T08:41:12Z</time>
      </trkpt>
      <trkpt lat="41.615571730" lon="2.496350030">
        <ele>464.40</ele>
        <time>2014-02-23T08:41:13Z</time>
      </trkpt>
      <trkpt lat="41.615580110" lon="2.496368470">
        <ele>464.50</ele>
        <time>2014-02-23T08:41:14Z</time>
      </trkpt>
      <trkpt lat="41.615588490" lon="2.496388420">
        <ele>464.60</ele>
        <time>2014-02-23T08:41:15Z</time>
      </trkpt>
      <trkpt lat="41.615598380" lon="2.496406690">
        <ele>465.00</ele>
        <time>2014-02-23T08:41:16Z</time>
      </trkpt>
      <trkpt lat="41.615610120" lon="2.496425130">
        <ele>465.30</ele>
        <time>2014-02-23T08:41:17Z</time>
      </trkpt>
      <trkpt lat="41.615621680" lon="2.496440050">
        <ele>465.50</ele>
        <time>2014-02-23T08:41:18Z</time>
      </trkpt>
      <trkpt lat="41.615633420" lon="2.496455140">
        <ele>465.60</ele>
        <time>2014-02-23T08:41:19Z</time>
      </trkpt>
      <trkpt lat="41.615643480" lon="2.496471740">
        <ele>465.60</ele>
        <time>2014-02-23T08:41:20Z</time>
      </trkpt>
      <trkpt lat="41.615655040" lon="2.496488330">
        <ele>465.90</ele>
        <time>2014-02-23T08:41:21Z</time>
      </trkpt>
      <trkpt lat="41.615665100" lon="2.496506770">
        <ele>466.10</ele>
        <time>2014-02-23T08:41:22Z</time>
      </trkpt>
      <trkpt lat="41.615675160" lon="2.496523370">
        <ele>466.70</ele>
        <time>2014-02-23T08:41:23Z</time>
      </trkpt>
      <trkpt lat="41.615686730" lon="2.496540130">
        <ele>467.20</ele>
        <time>2014-02-23T08:41:24Z</time>
      </trkpt>
      <trkpt lat="41.615695110" lon="2.496558400">
        <ele>467.60</ele>
        <time>2014-02-23T08:41:25Z</time>
      </trkpt>
      <trkpt lat="41.615703490" lon="2.496576680">
        <ele>467.90</ele>
        <time>2014-02-23T08:41:26Z</time>
      </trkpt>
      <trkpt lat="41.615713380" lon="2.496596790">
        <ele>468.10</ele>
        <time>2014-02-23T08:41:27Z</time>
      </trkpt>
      <trkpt lat="41.615721760" lon="2.496613390">
        <ele>468.50</ele>
        <time>2014-02-23T08:41:28Z</time>
      </trkpt>
      <trkpt lat="41.615730150" lon="2.496631660">
        <ele>468.70</ele>
        <time>2014-02-23T08:41:29Z</time>
      </trkpt>
      <trkpt lat="41.615740040" lon="2.496648430">
        <ele>468.90</ele>
        <time>2014-02-23T08:41:30Z</time>
      </trkpt>
      <trkpt lat="41.615750100" lon="2.496665020">
        <ele>469.00</ele>
        <time>2014-02-23T08:41:31Z</time>
      </trkpt>
      <trkpt lat="41.615758480" lon="2.496683460">
        <ele>469.10</ele>
        <time>2014-02-23T08:41:32Z</time>
      </trkpt>
      <trkpt lat="41.615768370" lon="2.496700060">
        <ele>469.00</ele>
        <time>2014-02-23T08:41:33Z</time>
      </trkpt>
      <trkpt lat="41.615780100" lon="2.496715150">
        <ele>469.00</ele>
        <time>2014-02-23T08:41:34Z</time>
      </trkpt>
      <trkpt lat="41.615790160" lon="2.496730070">
        <ele>469.00</ele>
        <time>2014-02-23T08:41:35Z</time>
      </trkpt>
      <trkpt lat="41.615803400" lon="2.496743480">
        <ele>469.00</ele>
        <time>2014-02-23T08:41:36Z</time>
      </trkpt>
      <trkpt lat="41.615815140" lon="2.496753370">
        <ele>469.00</ele>
        <time>2014-02-23T08:41:37Z</time>
      </trkpt>
      <trkpt lat="41.615826710" lon="2.496763430">
        <ele>469.30</ele>
        <time>2014-02-23T08:41:38Z</time>
      </trkpt>
      <trkpt lat="41.615840120" lon="2.496771810">
        <ele>469.50</ele>
        <time>2014-02-23T08:41:39Z</time>
      </trkpt>
      <trkpt lat="41.615850010" lon="2.496780020">
        <ele>469.70</ele>
        <time>2014-02-23T08:41:40Z</time>
      </trkpt>
      <trkpt lat="41.615861740" lon="2.496785050">
        <ele>469.90</ele>
        <time>2014-02-23T08:41:41Z</time>
      </trkpt>
      <trkpt lat="41.615875150" lon="2.496790080">
        <ele>469.90</ele>
        <time>2014-02-23T08:41:42Z</time>
      </trkpt>
      <trkpt lat="41.615888400" lon="2.496791760">
        <ele>469.90</ele>
        <time>2014-02-23T08:41:43Z</time>
      </trkpt>
      <trkpt lat="41.615901810" lon="2.496796790">
        <ele>469.90</ele>
        <time>2014-02-23T08:41:44Z</time>
      </trkpt>
      <trkpt lat="41.615911700" lon="2.496800140">
        <ele>470.40</ele>
        <time>2014-02-23T08:41:45Z</time>
      </trkpt>
      <trkpt lat="41.615925110" lon="2.496798460">
        <ele>470.70</ele>
        <time>2014-02-23T08:41:46Z</time>
      </trkpt>
      <trkpt lat="41.615941710" lon="2.496795110">
        <ele>470.90</ele>
        <time>2014-02-23T08:41:47Z</time>
      </trkpt>
      <trkpt lat="41.615956790" lon="2.496791760">
        <ele>471.00</ele>
        <time>2014-02-23T08:41:48Z</time>
      </trkpt>
      <trkpt lat="41.615970040" lon="2.496788400">
        <ele>471.10</ele>
        <time>2014-02-23T08:41:49Z</time>
      </trkpt>
      <trkpt lat="41.615983450" lon="2.496781700">
        <ele>471.10</ele>
        <time>2014-02-23T08:41:50Z</time>
      </trkpt>
      <trkpt lat="41.615996690" lon="2.496775160">
        <ele>471.00</ele>
        <time>2014-02-23T08:41:51Z</time>
      </trkpt>
      <trkpt lat="41.616010100" lon="2.496766780">
        <ele>471.10</ele>
        <time>2014-02-23T08:41:52Z</time>
      </trkpt>
      <trkpt lat="41.616023350" lon="2.496756720">
        <ele>471.10</ele>
        <time>2014-02-23T08:41:53Z</time>
      </trkpt>
      <trkpt lat="41.616035080" lon="2.496746660">
        <ele>471.30</ele>
        <time>2014-02-23T08:41:54Z</time>
      </trkpt>
      <trkpt lat="41.616046810" lon="2.496735090">
        <ele>471.40</ele>
        <time>2014-02-23T08:41:55Z</time>
      </trkpt>
      <trkpt lat="41.616058380" lon="2.496721680">
        <ele>471.50</ele>
        <time>2014-02-23T08:41:56Z</time>
      </trkpt>
      <trkpt lat="41.616070120" lon="2.496708440">
        <ele>471.90</ele>
        <time>2014-02-23T08:41:57Z</time>
      </trkpt>
      <trkpt lat="41.616083360" lon="2.496696710">
        <ele>472.20</ele>
        <time>2014-02-23T08:41:58Z</time>
      </trkpt>
      <trkpt lat="41.616096770" lon="2.496683460">
        <ele>472.30</ele>
        <time>2014-02-23T08:41:59Z</time>
      </trkpt>
      <trkpt lat="41.616110010" lon="2.496671730">
        <ele>472.30</ele>
        <time>2014-02-23T08:42:00Z</time>
      </trkpt>
      <trkpt lat="41.616123430" lon="2.496660160">
        <ele>472.80</ele>
        <time>2014-02-23T08:42:01Z</time>
      </trkpt>
      <trkpt lat="41.616135160" lon="2.496646750">
        <ele>473.10</ele>
        <time>2014-02-23T08:42:02Z</time>
      </trkpt>
      <trkpt lat="41.616148400" lon="2.496633340">
        <ele>473.40</ele>
        <time>2014-02-23T08:42:03Z</time>
      </trkpt>
      <trkpt lat="41.616160140" lon="2.496618420">
        <ele>473.60</ele>
        <time>2014-02-23T08:42:04Z</time>
      </trkpt>
      <trkpt lat="41.616171710" lon="2.496603330">
        <ele>473.70</ele>
        <time>2014-02-23T08:42:05Z</time>
      </trkpt>
      <trkpt lat="41.616185120" lon="2.496588410">
        <ele>473.80</ele>
        <time>2014-02-23T08:42:06Z</time>
      </trkpt>
      <trkpt lat="41.616196680" lon="2.496571820">
        <ele>473.80</ele>
        <time>2014-02-23T08:42:07Z</time>
      </trkpt>
      <trkpt lat="41.616206740" lon="2.496555050">
        <ele>473.90</ele>
        <time>2014-02-23T08:42:08Z</time>
      </trkpt>
      <trkpt lat="41.616216800" lon="2.496536780">
        <ele>474.20</ele>
        <time>2014-02-23T08:42:09Z</time>
      </trkpt>
      <trkpt lat="41.616225010" lon="2.496518340">
        <ele>474.50</ele>
        <time>2014-02-23T08:42:10Z</time>
      </trkpt>
      <trkpt lat="41.616235070" lon="2.496501740">
        <ele>474.90</ele>
        <time>2014-02-23T08:42:11Z</time>
      </trkpt>
      <trkpt lat="41.616241780" lon="2.496483470">
        <ele>475.30</ele>
        <time>2014-02-23T08:42:12Z</time>
      </trkpt>
      <trkpt lat="41.616250160" lon="2.496463350">
        <ele>475.70</ele>
        <time>2014-02-23T08:42:13Z</time>
      </trkpt>
      <trkpt lat="41.616256700" lon="2.496443400">
        <ele>476.00</ele>
        <time>2014-02-23T08:42:14Z</time>
      </trkpt>
      <trkpt lat="41.616263400" lon="2.496423460">
        <ele>476.20</ele>
        <time>2014-02-23T08:42:15Z</time>
      </trkpt>
      <trkpt lat="41.616271790" lon="2.496405020">
        <ele>476.00</ele>
        <time>2014-02-23T08:42:16Z</time>
      </trkpt>
      <trkpt lat="41.616278490" lon="2.496385070">
        <ele>475.90</ele>
        <time>2014-02-23T08:42:17Z</time>
      </trkpt>
      <trkpt lat="41.616283350" lon="2.496365120">
        <ele>476.20</ele>
        <time>2014-02-23T08:42:18Z</time>
      </trkpt>
      <trkpt lat="41.616290060" lon="2.496345000">
        <ele>476.50</ele>
        <time>2014-02-23T08:42:19Z</time>
      </trkpt>
      <trkpt lat="41.616296760" lon="2.496326730">
        <ele>476.50</ele>
        <time>2014-02-23T08:42:20Z</time>
      </trkpt>
      <trkpt lat="41.616301790" lon="2.496308460">
        <ele>476.50</ele>
        <time>2014-02-23T08:42:21Z</time>
      </trkpt>
      <trkpt lat="41.616308330" lon="2.496290020">
        <ele>476.50</ele>
        <time>2014-02-23T08:42:22Z</time>
      </trkpt>
      <trkpt lat="41.616313360" lon="2.496270070">
        <ele>476.50</ele>
        <time>2014-02-23T08:42:23Z</time>
      </trkpt>
      <trkpt lat="41.616320060" lon="2.496251790">
        <ele>476.50</ele>
        <time>2014-02-23T08:42:24Z</time>
      </trkpt>
      <trkpt lat="41.616325090" lon="2.496231680">
        <ele>476.70</ele>
        <time>2014-02-23T08:42:25Z</time>
      </trkpt>
      <trkpt lat="41.616330120" lon="2.496211730">
        <ele>476.80</ele>
        <time>2014-02-23T08:42:26Z</time>
      </trkpt>
      <trkpt lat="41.616336830" lon="2.496191780">
        <ele>477.40</ele>
        <time>2014-02-23T08:42:27Z</time>
      </trkpt>
      <trkpt lat="41.616340010" lon="2.496171660">
        <ele>477.90</ele>
        <time>2014-02-23T08:42:28Z</time>
      </trkpt>
      <trkpt lat="41.616345040" lon="2.496151710">
        <ele>478.20</ele>
        <time>2014-02-23T08:42:29Z</time>
      </trkpt>
      <trkpt lat="41.616350070" lon="2.496130090">
        <ele>478.70</ele>
        <time>2014-02-23T08:42:30Z</time>
      </trkpt>
      <trkpt lat="41.616353420" lon="2.496108460">
        <ele>479.00</ele>
        <time>2014-02-23T08:42:31Z</time>
      </trkpt>
      <trkpt lat="41.616356780" lon="2.496090020">
        <ele>479.20</ele>
        <time>2014-02-23T08:42:32Z</time>
      </trkpt>
      <trkpt lat="41.616361810" lon="2.496068400">
        <ele>479.30</ele>
        <time>2014-02-23T08:42:33Z</time>
      </trkpt>
      <trkpt lat="41.616363480" lon="2.496048450">
        <ele>479.40</ele>
        <time>2014-02-23T08:42:34Z</time>
      </trkpt>
      <trkpt lat="41.616365160" lon="2.496028330">
        <ele>479.20</ele>
        <time>2014-02-23T08:42:35Z</time>
      </trkpt>
      <trkpt lat="41.616366670" lon="2.496006710">
        <ele>479.10</ele>
        <time>2014-02-23T08:42:36Z</time>
      </trkpt>
      <trkpt lat="41.616368340" lon="2.495985080">
        <ele>479.40</ele>
        <time>2014-02-23T08:42:37Z</time>
      </trkpt>
      <trkpt lat="41.616368340" lon="2.495963460">
        <ele>479.70</ele>
        <time>2014-02-23T08:42:38Z</time>
      </trkpt>
      <trkpt lat="41.616370020" lon="2.495943340">
        <ele>479.80</ele>
        <time>2014-02-23T08:42:39Z</time>
      </trkpt>
      <trkpt lat="41.616368340" lon="2.495920040">
        <ele>479.80</ele>
        <time>2014-02-23T08:42:40Z</time>
      </trkpt>
      <trkpt lat="41.616368340" lon="2.495900090">
        <ele>479.90</ele>
        <time>2014-02-23T08:42:41Z</time>
      </trkpt>
      <trkpt lat="41.616370020" lon="2.495880140">
        <ele>480.40</ele>
        <time>2014-02-23T08:42:42Z</time>
      </trkpt>
      <trkpt lat="41.616370020" lon="2.495861700">
        <ele>480.80</ele>
        <time>2014-02-23T08:42:43Z</time>
      </trkpt>
      <trkpt lat="41.616370020" lon="2.495840080">
        <ele>481.10</ele>
        <time>2014-02-23T08:42:44Z</time>
      </trkpt>
      <trkpt lat="41.616371700" lon="2.495821800">
        <ele>481.30</ele>
        <time>2014-02-23T08:42:45Z</time>
      </trkpt>
      <trkpt lat="41.616371700" lon="2.495801690">
        <ele>481.80</ele>
        <time>2014-02-23T08:42:46Z</time>
      </trkpt>
      <trkpt lat="41.616371700" lon="2.495781740">
        <ele>482.20</ele>
        <time>2014-02-23T08:42:47Z</time>
      </trkpt>
      <trkpt lat="41.616370020" lon="2.495761790">
        <ele>482.40</ele>
        <time>2014-02-23T08:42:48Z</time>
      </trkpt>
      <trkpt lat="41.616370020" lon="2.495743350">
        <ele>482.50</ele>
        <time>2014-02-23T08:42:49Z</time>
      </trkpt>
      <trkpt lat="41.616371700" lon="2.495723400">
        <ele>482.60</ele>
        <time>2014-02-23T08:42:50Z</time>
      </trkpt>
      <trkpt lat="41.616371700" lon="2.495701770">
        <ele>483.00</ele>
        <time>2014-02-23T08:42:51Z</time>
      </trkpt>
      <trkpt lat="41.616375050" lon="2.495683330">
        <ele>483.30</ele>
        <time>2014-02-23T08:42:52Z</time>
      </trkpt>
      <trkpt lat="41.616376730" lon="2.495663380">
        <ele>483.60</ele>
        <time>2014-02-23T08:42:53Z</time>
      </trkpt>
      <trkpt lat="41.616378400" lon="2.495641760">
        <ele>483.70</ele>
        <time>2014-02-23T08:42:54Z</time>
      </trkpt>
      <trkpt lat="41.616381760" lon="2.495621810">
        <ele>483.80</ele>
        <time>2014-02-23T08:42:55Z</time>
      </trkpt>
      <trkpt lat="41.616386780" lon="2.495601690">
        <ele>483.50</ele>
        <time>2014-02-23T08:42:56Z</time>
      </trkpt>
      <trkpt lat="41.616393490" lon="2.495581740">
        <ele>483.40</ele>
        <time>2014-02-23T08:42:57Z</time>
      </trkpt>
      <trkpt lat="41.616403380" lon="2.495565150">
        <ele>483.80</ele>
        <time>2014-02-23T08:42:58Z</time>
      </trkpt>
      <trkpt lat="41.616415120" lon="2.495548380">
        <ele>484.10</ele>
        <time>2014-02-23T08:42:59Z</time>
      </trkpt>
      <trkpt lat="41.616428360" lon="2.495533470">
        <ele>484.30</ele>
        <time>2014-02-23T08:43:00Z</time>
      </trkpt>
      <trkpt lat="41.616440090" lon="2.495520050">
        <ele>484.10</ele>
        <time>2014-02-23T08:43:01Z</time>
      </trkpt>
      <trkpt lat="41.616453340" lon="2.495508490">
        <ele>483.90</ele>
        <time>2014-02-23T08:43:02Z</time>
      </trkpt>
      <trkpt lat="41.616470100" lon="2.495498430">
        <ele>484.20</ele>
        <time>2014-02-23T08:43:03Z</time>
      </trkpt>
      <trkpt lat="41.616486700" lon="2.495490050">
        <ele>484.40</ele>
        <time>2014-02-23T08:43:04Z</time>
      </trkpt>
      <trkpt lat="41.616505140" lon="2.495485020">
        <ele>484.60</ele>
        <time>2014-02-23T08:43:05Z</time>
      </trkpt>
      <trkpt lat="41.616521730" lon="2.495480160">
        <ele>484.70</ele>
        <time>2014-02-23T08:43:06Z</time>
      </trkpt>
      <trkpt lat="41.616540010" lon="2.495480160">
        <ele>484.80</ele>
        <time>2014-02-23T08:43:07Z</time>
      </trkpt>
      <trkpt lat="41.616560120" lon="2.495481660">
        <ele>485.00</ele>
        <time>2014-02-23T08:43:08Z</time>
      </trkpt>
      <trkpt lat="41.616578400" lon="2.495485020">
        <ele>485.20</ele>
        <time>2014-02-23T08:43:09Z</time>
      </trkpt>
      <trkpt lat="41.616598340" lon="2.495491720">
        <ele>485.50</ele>
        <time>2014-02-23T08:43:10Z</time>
      </trkpt>
      <trkpt lat="41.616616780" lon="2.495500110">
        <ele>485.70</ele>
        <time>2014-02-23T08:43:11Z</time>
      </trkpt>
      <trkpt lat="41.616635060" lon="2.495506810">
        <ele>485.80</ele>
        <time>2014-02-23T08:43:12Z</time>
      </trkpt>
      <trkpt lat="41.616653330" lon="2.495511670">
        <ele>485.40</ele>
        <time>2014-02-23T08:43:13Z</time>
      </trkpt>
      <trkpt lat="41.616671770" lon="2.495518380">
        <ele>485.10</ele>
        <time>2014-02-23T08:43:14Z</time>
      </trkpt>
      <trkpt lat="41.616690040" lon="2.495525080">
        <ele>485.40</ele>
        <time>2014-02-23T08:43:15Z</time>
      </trkpt>
      <trkpt lat="41.616708480" lon="2.495531790">
        <ele>485.60</ele>
        <time>2014-02-23T08:43:16Z</time>
      </trkpt>
      <trkpt lat="41.616728430" lon="2.495538490">
        <ele>485.80</ele>
        <time>2014-02-23T08:43:17Z</time>
      </trkpt>
      <trkpt lat="41.616746700" lon="2.495545030">
        <ele>486.00</ele>
        <time>2014-02-23T08:43:18Z</time>
      </trkpt>
      <trkpt lat="41.616766820" lon="2.495551740">
        <ele>486.10</ele>
        <time>2014-02-23T08:43:19Z</time>
      </trkpt>
      <trkpt lat="41.616786770" lon="2.495558440">
        <ele>485.80</ele>
        <time>2014-02-23T08:43:20Z</time>
      </trkpt>
      <trkpt lat="41.616806720" lon="2.495565150">
        <ele>485.70</ele>
        <time>2014-02-23T08:43:21Z</time>
      </trkpt>
      <trkpt lat="41.616828340" lon="2.495570010">
        <ele>485.70</ele>
        <time>2014-02-23T08:43:22Z</time>
      </trkpt>
      <trkpt lat="41.616848460" lon="2.495576720">
        <ele>485.70</ele>
        <time>2014-02-23T08:43:23Z</time>
      </trkpt>
      <trkpt lat="41.616868410" lon="2.495581740">
        <ele>485.70</ele>
        <time>2014-02-23T08:43:24Z</time>
      </trkpt>
      <trkpt lat="41.616888360" lon="2.495588450">
        <ele>485.70</ele>
        <time>2014-02-23T08:43:25Z</time>
      </trkpt>
      <trkpt lat="41.616910150" lon="2.495595160">
        <ele>485.70</ele>
        <time>2014-02-23T08:43:26Z</time>
      </trkpt>
      <trkpt lat="41.616930100" lon="2.495603370">
        <ele>486.10</ele>
        <time>2014-02-23T08:43:27Z</time>
      </trkpt>
      <trkpt lat="41.616951730" lon="2.495610080">
        <ele>486.40</ele>
        <time>2014-02-23T08:43:28Z</time>
      </trkpt>
      <trkpt lat="41.616973350" lon="2.495616780">
        <ele>486.40</ele>
        <time>2014-02-23T08:43:29Z</time>
      </trkpt>
      <trkpt lat="41.616993470" lon="2.495621810">
        <ele>486.50</ele>
        <time>2014-02-23T08:43:30Z</time>
      </trkpt>
      <trkpt lat="41.617013420" lon="2.495628350">
        <ele>486.50</ele>
        <time>2014-02-23T08:43:31Z</time>
      </trkpt>
      <trkpt lat="41.617035040" lon="2.495633380">
        <ele>486.50</ele>
        <time>2014-02-23T08:43:32Z</time>
      </trkpt>
      <trkpt lat="41.617055160" lon="2.495640080">
        <ele>486.50</ele>
        <time>2014-02-23T08:43:33Z</time>
      </trkpt>
      <trkpt lat="41.617075110" lon="2.495646790">
        <ele>486.50</ele>
        <time>2014-02-23T08:43:34Z</time>
      </trkpt>
      <trkpt lat="41.617095060" lon="2.495655000">
        <ele>486.40</ele>
        <time>2014-02-23T08:43:35Z</time>
      </trkpt>
      <trkpt lat="41.617116680" lon="2.495660030">
        <ele>486.70</ele>
        <time>2014-02-23T08:43:36Z</time>
      </trkpt>
      <trkpt lat="41.617136800" lon="2.495665060">
        <ele>487.00</ele>
        <time>2014-02-23T08:43:37Z</time>
      </trkpt>
      <trkpt lat="41.617156750" lon="2.495666740">
        <ele>487.10</ele>
        <time>2014-02-23T08:43:38Z</time>
      </trkpt>
      <trkpt lat="41.617176700" lon="2.495670090">
        <ele>487.10</ele>
        <time>2014-02-23T08:43:39Z</time>
      </trkpt>
      <trkpt lat="41.617195140" lon="2.495670090">
        <ele>487.10</ele>
        <time>2014-02-23T08:43:40Z</time>
      </trkpt>
      <trkpt lat="41.617213410" lon="2.495671770">
        <ele>487.20</ele>
        <time>2014-02-23T08:43:41Z</time>
      </trkpt>
      <trkpt lat="41.617231680" lon="2.495670090">
        <ele>487.30</ele>
        <time>2014-02-23T08:43:42Z</time>
      </trkpt>
      <trkpt lat="41.617251800" lon="2.495670090">
        <ele>487.10</ele>
        <time>2014-02-23T08:43:43Z</time>
      </trkpt>
      <trkpt lat="41.617270070" lon="2.495666740">
        <ele>486.90</ele>
        <time>2014-02-23T08:43:44Z</time>
      </trkpt>
      <trkpt lat="41.617288340" lon="2.495665060">
        <ele>486.70</ele>
        <time>2014-02-23T08:43:45Z</time>
      </trkpt>
      <trkpt lat="41.617306780" lon="2.495665060">
        <ele>486.80</ele>
        <time>2014-02-23T08:43:46Z</time>
      </trkpt>
      <trkpt lat="41.617325060" lon="2.495663380">
        <ele>486.90</ele>
        <time>2014-02-23T08:43:47Z</time>
      </trkpt>
      <trkpt lat="41.617345000" lon="2.495658360">
        <ele>487.00</ele>
        <time>2014-02-23T08:43:48Z</time>
      </trkpt>
      <trkpt lat="41.617365120" lon="2.495656680">
        <ele>487.10</ele>
        <time>2014-02-23T08:43:49Z</time>
      </trkpt>
      <trkpt lat="41.617385070" lon="2.495653490">
        <ele>487.20</ele>
        <time>2014-02-23T08:43:50Z</time>
      </trkpt>
      <trkpt lat="41.617405020" lon="2.495655000">
        <ele>487.80</ele>
        <time>2014-02-23T08:43:51Z</time>
      </trkpt>
      <trkpt lat="41.617420110" lon="2.495653490">
        <ele>488.30</ele>
        <time>2014-02-23T08:43:52Z</time>
      </trkpt>
      <trkpt lat="41.617436700" lon="2.495653490">
        <ele>488.00</ele>
        <time>2014-02-23T08:43:53Z</time>
      </trkpt>
      <trkpt lat="41.617456820" lon="2.495648460">
        <ele>487.90</ele>
        <time>2014-02-23T08:43:54Z</time>
      </trkpt>
      <trkpt lat="41.617476770" lon="2.495646790">
        <ele>487.90</ele>
        <time>2014-02-23T08:43:55Z</time>
      </trkpt>
      <trkpt lat="41.617490010" lon="2.495648460">
        <ele>488.00</ele>
        <time>2014-02-23T08:43:56Z</time>
      </trkpt>
      <trkpt lat="41.617503420" lon="2.495648460">
        <ele>488.00</ele>
        <time>2014-02-23T08:43:57Z</time>
      </trkpt>
      <trkpt lat="41.617516670" lon="2.495646790">
        <ele>488.60</ele>
        <time>2014-02-23T08:43:58Z</time>
      </trkpt>
      <trkpt lat="41.617528400" lon="2.495648460">
        <ele>489.00</ele>
        <time>2014-02-23T08:43:59Z</time>
      </trkpt>
      <trkpt lat="41.617541810" lon="2.495650140">
        <ele>488.80</ele>
        <time>2014-02-23T08:44:00Z</time>
      </trkpt>
      <trkpt lat="41.617558410" lon="2.495650140">
        <ele>488.70</ele>
        <time>2014-02-23T08:44:01Z</time>
      </trkpt>
      <trkpt lat="41.617573490" lon="2.495650140">
        <ele>489.00</ele>
        <time>2014-02-23T08:44:02Z</time>
      </trkpt>
      <trkpt lat="41.617593440" lon="2.495648460">
        <ele>489.20</ele>
        <time>2014-02-23T08:44:03Z</time>
      </trkpt>
      <trkpt lat="41.617611720" lon="2.495648460">
        <ele>489.40</ele>
        <time>2014-02-23T08:44:04Z</time>
      </trkpt>
      <trkpt lat="41.617628480" lon="2.495651820">
        <ele>489.70</ele>
        <time>2014-02-23T08:44:05Z</time>
      </trkpt>
      <trkpt lat="41.617645080" lon="2.495656680">
        <ele>490.00</ele>
        <time>2014-02-23T08:44:06Z</time>
      </trkpt>
      <trkpt lat="41.617660000" lon="2.495658360">
        <ele>490.00</ele>
        <time>2014-02-23T08:44:07Z</time>
      </trkpt>
      <trkpt lat="41.617673410" lon="2.495663380">
        <ele>490.10</ele>
        <time>2014-02-23T08:44:08Z</time>
      </trkpt>
      <trkpt lat="41.617690000" lon="2.495665060">
        <ele>490.10</ele>
        <time>2014-02-23T08:44:09Z</time>
      </trkpt>
      <trkpt lat="41.617705090" lon="2.495670090">
        <ele>490.40</ele>
        <time>2014-02-23T08:44:10Z</time>
      </trkpt>
      <trkpt lat="41.617720010" lon="2.495673440">
        <ele>490.60</ele>
        <time>2014-02-23T08:44:11Z</time>
      </trkpt>
      <trkpt lat="41.617733420" lon="2.495678470">
        <ele>490.60</ele>
        <time>2014-02-23T08:44:12Z</time>
      </trkpt>
      <trkpt lat="41.617748340" lon="2.495681820">
        <ele>490.70</ele>
        <time>2014-02-23T08:44:13Z</time>
      </trkpt>
      <trkpt lat="41.617763430" lon="2.495688360">
        <ele>490.40</ele>
        <time>2014-02-23T08:44:14Z</time>
      </trkpt>
      <trkpt lat="41.617775000" lon="2.495693390">
        <ele>490.20</ele>
        <time>2014-02-23T08:44:15Z</time>
      </trkpt>
      <trkpt lat="41.617791760" lon="2.495698420">
        <ele>490.10</ele>
        <time>2014-02-23T08:44:16Z</time>
      </trkpt>
      <trkpt lat="41.617810030" lon="2.495700100">
        <ele>490.20</ele>
        <time>2014-02-23T08:44:17Z</time>
      </trkpt>
      <trkpt lat="41.617826800" lon="2.495706800">
        <ele>490.30</ele>
        <time>2014-02-23T08:44:18Z</time>
      </trkpt>
      <trkpt lat="41.617840040" lon="2.495713340">
        <ele>490.80</ele>
        <time>2014-02-23T08:44:19Z</time>
      </trkpt>
      <trkpt lat="41.617856800" lon="2.495716690">
        <ele>491.20</ele>
        <time>2014-02-23T08:44:20Z</time>
      </trkpt>
      <trkpt lat="41.617871720" lon="2.495718370">
        <ele>491.40</ele>
        <time>2014-02-23T08:44:21Z</time>
      </trkpt>
      <trkpt lat="41.617885130" lon="2.495725080">
        <ele>491.60</ele>
        <time>2014-02-23T08:44:22Z</time>
      </trkpt>
      <trkpt lat="41.617901730" lon="2.495728430">
        <ele>491.80</ele>
        <time>2014-02-23T08:44:23Z</time>
      </trkpt>
      <trkpt lat="41.617916820" lon="2.495731780">
        <ele>492.00</ele>
        <time>2014-02-23T08:44:24Z</time>
      </trkpt>
      <trkpt lat="41.617933410" lon="2.495735130">
        <ele>492.20</ele>
        <time>2014-02-23T08:44:25Z</time>
      </trkpt>
      <trkpt lat="41.617950010" lon="2.495735130">
        <ele>492.30</ele>
        <time>2014-02-23T08:44:26Z</time>
      </trkpt>
      <trkpt lat="41.617966770" lon="2.495738490">
        <ele>492.50</ele>
        <time>2014-02-23T08:44:27Z</time>
      </trkpt>
      <trkpt lat="41.617983370" lon="2.495741670">
        <ele>492.50</ele>
        <time>2014-02-23T08:44:28Z</time>
      </trkpt>
      <trkpt lat="41.617998460" lon="2.495746700">
        <ele>492.50</ele>
        <time>2014-02-23T08:44:29Z</time>
      </trkpt>
      <trkpt lat="41.618013380" lon="2.495751730">
        <ele>492.50</ele>
        <time>2014-02-23T08:44:30Z</time>
      </trkpt>
      <trkpt lat="41.618030140" lon="2.495755080">
        <ele>492.80</ele>
        <time>2014-02-23T08:44:31Z</time>
      </trkpt>
      <trkpt lat="41.618045060" lon="2.495756760">
        <ele>493.00</ele>
        <time>2014-02-23T08:44:32Z</time>
      </trkpt>
      <trkpt lat="41.618058470" lon="2.495758440">
        <ele>493.40</ele>
        <time>2014-02-23T08:44:33Z</time>
      </trkpt>
      <trkpt lat="41.618071720" lon="2.495760110">
        <ele>493.60</ele>
        <time>2014-02-23T08:44:34Z</time>
      </trkpt>
      <trkpt lat="41.618090160" lon="2.495763460">
        <ele>493.80</ele>
        <time>2014-02-23T08:44:35Z</time>
      </trkpt>
      <trkpt lat="41.618103400" lon="2.495765140">
        <ele>493.90</ele>
        <time>2014-02-23T08:44:36Z</time>
      </trkpt>
      <trkpt lat="41.618120160" lon="2.495765140">
        <ele>494.00</ele>
        <time>2014-02-23T08:44:37Z</time>
      </trkpt>
      <trkpt lat="41.618136760" lon="2.495761790">
        <ele>494.20</ele>
        <time>2014-02-23T08:44:38Z</time>
      </trkpt>
      <trkpt lat="41.618153350" lon="2.495758440">
        <ele>494.40</ele>
        <time>2014-02-23T08:44:39Z</time>
      </trkpt>
      <trkpt lat="41.618171790" lon="2.495755080">
        <ele>494.60</ele>
        <time>2014-02-23T08:44:40Z</time>
      </trkpt>
      <trkpt lat="41.618185040" lon="2.495755080">
        <ele>494.70</ele>
        <time>2014-02-23T08:44:41Z</time>
      </trkpt>
      <trkpt lat="41.618201800" lon="2.495751730">
        <ele>494.80</ele>
        <time>2014-02-23T08:44:42Z</time>
      </trkpt>
      <trkpt lat="41.618216720" lon="2.495751730">
        <ele>494.70</ele>
        <time>2014-02-23T08:44:43Z</time>
      </trkpt>
      <trkpt lat="41.618231810" lon="2.495748380">
        <ele>494.70</ele>
        <time>2014-02-23T08:44:44Z</time>
      </trkpt>
      <trkpt lat="41.618248410" lon="2.495741670">
        <ele>494.70</ele>
        <time>2014-02-23T08:44:45Z</time>
      </trkpt>
      <trkpt lat="41.618263490" lon="2.495736810">
        <ele>494.70</ele>
        <time>2014-02-23T08:44:46Z</time>
      </trkpt>
      <trkpt lat="41.618278410" lon="2.495726750">
        <ele>495.10</ele>
        <time>2014-02-23T08:44:47Z</time>
      </trkpt>
      <trkpt lat="41.618295010" lon="2.495720050">
        <ele>495.30</ele>
        <time>2014-02-23T08:44:48Z</time>
      </trkpt>
      <trkpt lat="41.618311770" lon="2.495713340">
        <ele>495.50</ele>
        <time>2014-02-23T08:44:49Z</time>
      </trkpt>
      <trkpt lat="41.618328370" lon="2.495705130">
        <ele>495.90</ele>
        <time>2014-02-23T08:44:50Z</time>
      </trkpt>
      <trkpt lat="41.618341780" lon="2.495698420">
        <ele>496.20</ele>
        <time>2014-02-23T08:44:51Z</time>
      </trkpt>
      <trkpt lat="41.618358380" lon="2.495683330">
        <ele>496.30</ele>
        <time>2014-02-23T08:44:52Z</time>
      </trkpt>
      <trkpt lat="41.618373460" lon="2.495670090">
        <ele>496.40</ele>
        <time>2014-02-23T08:44:53Z</time>
      </trkpt>
      <trkpt lat="41.618388380" lon="2.495658360">
        <ele>496.40</ele>
        <time>2014-02-23T08:44:54Z</time>
      </trkpt>
      <trkpt lat="41.618400120" lon="2.495648460">
        <ele>496.70</ele>
        <time>2014-02-23T08:44:55Z</time>
      </trkpt>
      <trkpt lat="41.618415040" lon="2.495638410">
        <ele>496.80</ele>
        <time>2014-02-23T08:44:56Z</time>
      </trkpt>
      <trkpt lat="41.618430130" lon="2.495625000">
        <ele>497.20</ele>
        <time>2014-02-23T08:44:57Z</time>
      </trkpt>
      <trkpt lat="41.618445040" lon="2.495618460">
        <ele>497.40</ele>
        <time>2014-02-23T08:44:58Z</time>
      </trkpt>
      <trkpt lat="41.618458460" lon="2.495605050">
        <ele>497.40</ele>
        <time>2014-02-23T08:44:59Z</time>
      </trkpt>
      <trkpt lat="41.618473380" lon="2.495593480">
        <ele>497.30</ele>
        <time>2014-02-23T08:45:00Z</time>
      </trkpt>
      <trkpt lat="41.618485110" lon="2.495580070">
        <ele>497.30</ele>
        <time>2014-02-23T08:45:01Z</time>
      </trkpt>
      <trkpt lat="41.618496680" lon="2.495566830">
        <ele>497.30</ele>
        <time>2014-02-23T08:45:02Z</time>
      </trkpt>
      <trkpt lat="41.618511760" lon="2.495551740">
        <ele>497.40</ele>
        <time>2014-02-23T08:45:03Z</time>
      </trkpt>
      <trkpt lat="41.618526680" lon="2.495536820">
        <ele>498.10</ele>
        <time>2014-02-23T08:45:04Z</time>
      </trkpt>
      <trkpt lat="41.618541770" lon="2.495520050">
        <ele>498.60</ele>
        <time>2014-02-23T08:45:05Z</time>
      </trkpt>
      <trkpt lat="41.618556690" lon="2.495503460">
        <ele>498.80</ele>
        <time>2014-02-23T08:45:06Z</time>
      </trkpt>
      <trkpt lat="41.618573460" lon="2.495485020">
        <ele>498.80</ele>
        <time>2014-02-23T08:45:07Z</time>
      </trkpt>
      <trkpt lat="41.618590050" lon="2.495465070">
        <ele>498.90</ele>
        <time>2014-02-23T08:45:08Z</time>
      </trkpt>
      <trkpt lat="41.618608490" lon="2.495445120">
        <ele>498.90</ele>
        <time>2014-02-23T08:45:09Z</time>
      </trkpt>
      <trkpt lat="41.618625090" lon="2.495425000">
        <ele>498.90</ele>
        <time>2014-02-23T08:45:10Z</time>
      </trkpt>
      <trkpt lat="41.618640010" lon="2.495408410">
        <ele>498.80</ele>
        <time>2014-02-23T08:45:11Z</time>
      </trkpt>
      <trkpt lat="41.618651740" lon="2.495391810">
        <ele>498.80</ele>
        <time>2014-02-23T08:45:12Z</time>
      </trkpt>
      <trkpt lat="41.618666660" lon="2.495376720">
        <ele>498.80</ele>
        <time>2014-02-23T08:45:13Z</time>
      </trkpt>
      <trkpt lat="41.618680070" lon="2.495360130">
        <ele>499.20</ele>
        <time>2014-02-23T08:45:14Z</time>
      </trkpt>
      <trkpt lat="41.618695160" lon="2.495343360">
        <ele>499.50</ele>
        <time>2014-02-23T08:45:15Z</time>
      </trkpt>
      <trkpt lat="41.618710080" lon="2.495326770">
        <ele>500.00</ele>
        <time>2014-02-23T08:45:16Z</time>
      </trkpt>
      <trkpt lat="41.618723490" lon="2.495310000">
        <ele>500.30</ele>
        <time>2014-02-23T08:45:17Z</time>
      </trkpt>
      <trkpt lat="41.618735060" lon="2.495291730">
        <ele>500.20</ele>
        <time>2014-02-23T08:45:18Z</time>
      </trkpt>
      <trkpt lat="41.618748470" lon="2.495276810">
        <ele>500.10</ele>
        <time>2014-02-23T08:45:19Z</time>
      </trkpt>
      <trkpt lat="41.618763390" lon="2.495261720">
        <ele>500.00</ele>
        <time>2014-02-23T08:45:20Z</time>
      </trkpt>
      <trkpt lat="41.618778480" lon="2.495246800">
        <ele>500.30</ele>
        <time>2014-02-23T08:45:21Z</time>
      </trkpt>
      <trkpt lat="41.618793400" lon="2.495231720">
        <ele>500.40</ele>
        <time>2014-02-23T08:45:22Z</time>
      </trkpt>
      <trkpt lat="41.618808480" lon="2.495216800">
        <ele>500.30</ele>
        <time>2014-02-23T08:45:23Z</time>
      </trkpt>
      <trkpt lat="41.618818370" lon="2.495203390">
        <ele>500.20</ele>
        <time>2014-02-23T08:45:24Z</time>
      </trkpt>
      <trkpt lat="41.618831790" lon="2.495188470">
        <ele>500.60</ele>
        <time>2014-02-23T08:45:25Z</time>
      </trkpt>
      <trkpt lat="41.618846710" lon="2.495175050">
        <ele>500.90</ele>
        <time>2014-02-23T08:45:26Z</time>
      </trkpt>
      <trkpt lat="41.618858440" lon="2.495163490">
        <ele>501.10</ele>
        <time>2014-02-23T08:45:27Z</time>
      </trkpt>
      <trkpt lat="41.618870010" lon="2.495150080">
        <ele>500.90</ele>
        <time>2014-02-23T08:45:28Z</time>
      </trkpt>
      <trkpt lat="41.618885090" lon="2.495136670">
        <ele>500.70</ele>
        <time>2014-02-23T08:45:29Z</time>
      </trkpt>
      <trkpt lat="41.618896660" lon="2.495121750">
        <ele>500.60</ele>
        <time>2014-02-23T08:45:30Z</time>
      </trkpt>
      <trkpt lat="41.618911750" lon="2.495111690">
        <ele>500.50</ele>
        <time>2014-02-23T08:45:31Z</time>
      </trkpt>
      <trkpt lat="41.618926670" lon="2.495101800">
        <ele>500.40</ele>
        <time>2014-02-23T08:45:32Z</time>
      </trkpt>
      <trkpt lat="41.618940080" lon="2.495091740">
        <ele>500.80</ele>
        <time>2014-02-23T08:45:33Z</time>
      </trkpt>
      <trkpt lat="41.618953490" lon="2.495081680">
        <ele>501.00</ele>
        <time>2014-02-23T08:45:34Z</time>
      </trkpt>
      <trkpt lat="41.618968410" lon="2.495073470">
        <ele>500.80</ele>
        <time>2014-02-23T08:45:35Z</time>
      </trkpt>
      <trkpt lat="41.618983330" lon="2.495068440">
        <ele>500.70</ele>
        <time>2014-02-23T08:45:36Z</time>
      </trkpt>
      <trkpt lat="41.619000090" lon="2.495063410">
        <ele>500.50</ele>
        <time>2014-02-23T08:45:37Z</time>
      </trkpt>
      <trkpt lat="41.619018370" lon="2.495061730">
        <ele>500.40</ele>
        <time>2014-02-23T08:45:38Z</time>
      </trkpt>
      <trkpt lat="41.619036810" lon="2.495060060">
        <ele>500.30</ele>
        <time>2014-02-23T08:45:39Z</time>
      </trkpt>
      <trkpt lat="41.619051730" lon="2.495058380">
        <ele>500.50</ele>
        <time>2014-02-23T08:45:40Z</time>
      </trkpt>
      <trkpt lat="41.619066810" lon="2.495060060">
        <ele>500.60</ele>
        <time>2014-02-23T08:45:41Z</time>
      </trkpt>
      <trkpt lat="41.619083410" lon="2.495063410">
        <ele>500.70</ele>
        <time>2014-02-23T08:45:42Z</time>
      </trkpt>
      <trkpt lat="41.619101680" lon="2.495068440">
        <ele>500.80</ele>
        <time>2014-02-23T08:45:43Z</time>
      </trkpt>
      <trkpt lat="41.619121800" lon="2.495070110">
        <ele>501.10</ele>
        <time>2014-02-23T08:45:44Z</time>
      </trkpt>
      <trkpt lat="41.619141750" lon="2.495073470">
        <ele>501.30</ele>
        <time>2014-02-23T08:45:45Z</time>
      </trkpt>
      <trkpt lat="41.619161700" lon="2.495073470">
        <ele>501.50</ele>
        <time>2014-02-23T08:45:46Z</time>
      </trkpt>
      <trkpt lat="41.619183490" lon="2.495075140">
        <ele>501.40</ele>
        <time>2014-02-23T08:45:47Z</time>
      </trkpt>
      <trkpt lat="41.619201760" lon="2.495080000">
        <ele>501.40</ele>
        <time>2014-02-23T08:45:48Z</time>
      </trkpt>
      <trkpt lat="41.619221710" lon="2.495088390">
        <ele>501.30</ele>
        <time>2014-02-23T08:45:49Z</time>
      </trkpt>
      <trkpt lat="41.619240150" lon="2.495095090">
        <ele>501.20</ele>
        <time>2014-02-23T08:45:50Z</time>
      </trkpt>
      <trkpt lat="41.619258420" lon="2.495103470">
        <ele>501.20</ele>
        <time>2014-02-23T08:45:51Z</time>
      </trkpt>
      <trkpt lat="41.619275020" lon="2.495113360">
        <ele>501.60</ele>
        <time>2014-02-23T08:45:52Z</time>
      </trkpt>
      <trkpt lat="41.619295140" lon="2.495123420">
        <ele>501.90</ele>
        <time>2014-02-23T08:45:53Z</time>
      </trkpt>
      <trkpt lat="41.619313410" lon="2.495131800">
        <ele>502.10</ele>
        <time>2014-02-23T08:45:54Z</time>
      </trkpt>
      <trkpt lat="41.619331680" lon="2.495141690">
        <ele>502.20</ele>
        <time>2014-02-23T08:45:55Z</time>
      </trkpt>
      <trkpt lat="41.619348450" lon="2.495150080">
        <ele>502.00</ele>
        <time>2014-02-23T08:45:56Z</time>
      </trkpt>
      <trkpt lat="41.619368400" lon="2.495156780">
        <ele>501.80</ele>
        <time>2014-02-23T08:45:57Z</time>
      </trkpt>
      <trkpt lat="41.619386670" lon="2.495165000">
        <ele>501.70</ele>
        <time>2014-02-23T08:45:58Z</time>
      </trkpt>
      <trkpt lat="41.619405110" lon="2.495175050">
        <ele>502.00</ele>
        <time>2014-02-23T08:45:59Z</time>
      </trkpt>
      <trkpt lat="41.619423380" lon="2.495183440">
        <ele>502.30</ele>
        <time>2014-02-23T08:46:00Z</time>
      </trkpt>
      <trkpt lat="41.619443330" lon="2.495191820">
        <ele>502.20</ele>
        <time>2014-02-23T08:46:01Z</time>
      </trkpt>
      <trkpt lat="41.619460090" lon="2.495200030">
        <ele>502.10</ele>
        <time>2014-02-23T08:46:02Z</time>
      </trkpt>
      <trkpt lat="41.619476690" lon="2.495210090">
        <ele>502.30</ele>
        <time>2014-02-23T08:46:03Z</time>
      </trkpt>
      <trkpt lat="41.619495130" lon="2.495218470">
        <ele>502.50</ele>
        <time>2014-02-23T08:46:04Z</time>
      </trkpt>
      <trkpt lat="41.619515080" lon="2.495230040">
        <ele>502.60</ele>
        <time>2014-02-23T08:46:05Z</time>
      </trkpt>
      <trkpt lat="41.619533350" lon="2.495243450">
        <ele>502.60</ele>
        <time>2014-02-23T08:46:06Z</time>
      </trkpt>
      <trkpt lat="41.619553470" lon="2.495255020">
        <ele>502.60</ele>
        <time>2014-02-23T08:46:07Z</time>
      </trkpt>
      <trkpt lat="41.619570060" lon="2.495265080">
        <ele>502.50</ele>
        <time>2014-02-23T08:46:08Z</time>
      </trkpt>
      <trkpt lat="41.619588340" lon="2.495278490">
        <ele>502.50</ele>
        <time>2014-02-23T08:46:09Z</time>
      </trkpt>
      <trkpt lat="41.619606780" lon="2.495290050">
        <ele>502.40</ele>
        <time>2014-02-23T08:46:10Z</time>
      </trkpt>
      <trkpt lat="41.619623370" lon="2.495301790">
        <ele>502.60</ele>
        <time>2014-02-23T08:46:11Z</time>
      </trkpt>
      <trkpt lat="41.619641810" lon="2.495315030">
        <ele>502.70</ele>
        <time>2014-02-23T08:46:12Z</time>
      </trkpt>
      <trkpt lat="41.619658410" lon="2.495328440">
        <ele>502.60</ele>
        <time>2014-02-23T08:46:13Z</time>
      </trkpt>
      <trkpt lat="41.619676680" lon="2.495336830">
        <ele>502.40</ele>
        <time>2014-02-23T08:46:14Z</time>
      </trkpt>
      <trkpt lat="41.619693450" lon="2.495343360">
        <ele>502.70</ele>
        <time>2014-02-23T08:46:15Z</time>
      </trkpt>
      <trkpt lat="41.619710040" lon="2.495348390">
        <ele>502.90</ele>
        <time>2014-02-23T08:46:16Z</time>
      </trkpt>
      <trkpt lat="41.619725130" lon="2.495348390">
        <ele>503.10</ele>
        <time>2014-02-23T08:46:17Z</time>
      </trkpt>
      <trkpt lat="41.619736700" lon="2.495346720">
        <ele>503.60</ele>
        <time>2014-02-23T08:46:18Z</time>
      </trkpt>
      <trkpt lat="41.619746750" lon="2.495345040">
        <ele>504.00</ele>
        <time>2014-02-23T08:46:19Z</time>
      </trkpt>
      <trkpt lat="41.619756810" lon="2.495341690">
        <ele>503.80</ele>
        <time>2014-02-23T08:46:20Z</time>
      </trkpt>
      <trkpt lat="41.619766700" lon="2.495341690">
        <ele>503.60</ele>
        <time>2014-02-23T08:46:21Z</time>
      </trkpt>
      <trkpt lat="41.619780110" lon="2.495341690">
        <ele>503.70</ele>
        <time>2014-02-23T08:46:22Z</time>
      </trkpt>
      <trkpt lat="41.619795030" lon="2.495341690">
        <ele>503.80</ele>
        <time>2014-02-23T08:46:23Z</time>
      </trkpt>
      <trkpt lat="41.619808450" lon="2.495340010">
        <ele>503.90</ele>
        <time>2014-02-23T08:46:24Z</time>
      </trkpt>
      <trkpt lat="41.619816830" lon="2.495336830">
        <ele>503.70</ele>
        <time>2014-02-23T08:46:25Z</time>
      </trkpt>
      <trkpt lat="41.619820010" lon="2.495335150">
        <ele>503.60</ele>
        <time>2014-02-23T08:46:26Z</time>
      </trkpt>
      <trkpt lat="41.619825040" lon="2.495335150">
        <ele>504.00</ele>
        <time>2014-02-23T08:46:27Z</time>
      </trkpt>
      <trkpt lat="41.619828390" lon="2.495335150">
        <ele>504.40</ele>
        <time>2014-02-23T08:46:28Z</time>
      </trkpt>
      <trkpt lat="41.619831750" lon="2.495335150">
        <ele>504.60</ele>
        <time>2014-02-23T08:46:29Z</time>
      </trkpt>
      <trkpt lat="41.619835100" lon="2.495336830">
        <ele>504.80</ele>
        <time>2014-02-23T08:46:30Z</time>
      </trkpt>
      <trkpt lat="41.619840130" lon="2.495336830">
        <ele>505.00</ele>
        <time>2014-02-23T08:46:31Z</time>
      </trkpt>
      <trkpt lat="41.619843480" lon="2.495336830">
        <ele>505.10</ele>
        <time>2014-02-23T08:46:32Z</time>
      </trkpt>
      <trkpt lat="41.619845160" lon="2.495336830">
        <ele>505.20</ele>
        <time>2014-02-23T08:46:33Z</time>
      </trkpt>
      <trkpt lat="41.619848340" lon="2.495335150">
        <ele>505.30</ele>
        <time>2014-02-23T08:46:34Z</time>
      </trkpt>
      <trkpt lat="41.619851700" lon="2.495333470">
        <ele>505.40</ele>
        <time>2014-02-23T08:46:35Z</time>
      </trkpt>
      <trkpt lat="41.619855050" lon="2.495335150">
        <ele>505.50</ele>
        <time>2014-02-23T08:46:36Z</time>
      </trkpt>
      <trkpt lat="41.619856730" lon="2.495333470">
        <ele>505.50</ele>
        <time>2014-02-23T08:46:37Z</time>
      </trkpt>
      <trkpt lat="41.619860080" lon="2.495335150">
        <ele>505.50</ele>
        <time>2014-02-23T08:46:38Z</time>
      </trkpt>
      <trkpt lat="41.619863430" lon="2.495333470">
        <ele>505.20</ele>
        <time>2014-02-23T08:46:39Z</time>
      </trkpt>
      <trkpt lat="41.619865110" lon="2.495333470">
        <ele>505.00</ele>
        <time>2014-02-23T08:46:40Z</time>
      </trkpt>
      <trkpt lat="41.619868460" lon="2.495333470">
        <ele>504.60</ele>
        <time>2014-02-23T08:46:41Z</time>
      </trkpt>
      <trkpt lat="41.619871810" lon="2.495333470">
        <ele>504.20</ele>
        <time>2014-02-23T08:46:42Z</time>
      </trkpt>
      <trkpt lat="41.619871810" lon="2.495333470">
        <ele>504.00</ele>
        <time>2014-02-23T08:46:43Z</time>
      </trkpt>
      <trkpt lat="41.619876670" lon="2.495331800">
        <ele>503.90</ele>
        <time>2014-02-23T08:46:44Z</time>
      </trkpt>
      <trkpt lat="41.619878350" lon="2.495331800">
        <ele>503.90</ele>
        <time>2014-02-23T08:46:45Z</time>
      </trkpt>
      <trkpt lat="41.619881700" lon="2.495331800">
        <ele>504.10</ele>
        <time>2014-02-23T08:46:46Z</time>
      </trkpt>
      <trkpt lat="41.619883380" lon="2.495331800">
        <ele>504.40</ele>
        <time>2014-02-23T08:46:47Z</time>
      </trkpt>
      <trkpt lat="41.619886730" lon="2.495331800">
        <ele>504.50</ele>
        <time>2014-02-23T08:46:48Z</time>
      </trkpt>
      <trkpt lat="41.619888410" lon="2.495331800">
        <ele>504.30</ele>
        <time>2014-02-23T08:46:49Z</time>
      </trkpt>
      <trkpt lat="41.619890090" lon="2.495331800">
        <ele>504.20</ele>
        <time>2014-02-23T08:46:50Z</time>
      </trkpt>
      <trkpt lat="41.619893440" lon="2.495331800">
        <ele>504.10</ele>
        <time>2014-02-23T08:46:51Z</time>
      </trkpt>
      <trkpt lat="41.619895110" lon="2.495331800">
        <ele>504.10</ele>
        <time>2014-02-23T08:46:52Z</time>
      </trkpt>
      <trkpt lat="41.619896790" lon="2.495330120">
        <ele>504.60</ele>
        <time>2014-02-23T08:46:53Z</time>
      </trkpt>
      <trkpt lat="41.619898470" lon="2.495328440">
        <ele>505.00</ele>
        <time>2014-02-23T08:46:54Z</time>
      </trkpt>
      <trkpt lat="41.619900140" lon="2.495330120">
        <ele>505.30</ele>
        <time>2014-02-23T08:46:55Z</time>
      </trkpt>
      <trkpt lat="41.619901820" lon="2.495330120">
        <ele>505.10</ele>
        <time>2014-02-23T08:46:56Z</time>
      </trkpt>
      <trkpt lat="41.619903330" lon="2.495330120">
        <ele>504.90</ele>
        <time>2014-02-23T08:46:57Z</time>
      </trkpt>
      <trkpt lat="41.619905000" lon="2.495328440">
        <ele>504.70</ele>
        <time>2014-02-23T08:46:58Z</time>
      </trkpt>
      <trkpt lat="41.619905000" lon="2.495328440">
        <ele>504.60</ele>
        <time>2014-02-23T08:46:59Z</time>
      </trkpt>
      <trkpt lat="41.619906680" lon="2.495326770">
        <ele>504.70</ele>
        <time>2014-02-23T08:47:00Z</time>
      </trkpt>
      <trkpt lat="41.619908360" lon="2.495325090">
        <ele>504.70</ele>
        <time>2014-02-23T08:47:01Z</time>
      </trkpt>
      <trkpt lat="41.619913390" lon="2.495316710">
        <ele>504.80</ele>
        <time>2014-02-23T08:47:02Z</time>
      </trkpt>
      <trkpt lat="41.619923450" lon="2.495308490">
        <ele>504.60</ele>
        <time>2014-02-23T08:47:03Z</time>
      </trkpt>
      <trkpt lat="41.619931830" lon="2.495298440">
        <ele>504.40</ele>
        <time>2014-02-23T08:47:04Z</time>
      </trkpt>
      <trkpt lat="41.619941720" lon="2.495285030">
        <ele>504.40</ele>
        <time>2014-02-23T08:47:05Z</time>
      </trkpt>
      <trkpt lat="41.619951780" lon="2.495270110">
        <ele>504.40</ele>
        <time>2014-02-23T08:47:06Z</time>
      </trkpt>
      <trkpt lat="41.619963340" lon="2.495256690">
        <ele>504.40</ele>
        <time>2014-02-23T08:47:07Z</time>
      </trkpt>
      <trkpt lat="41.619975080" lon="2.495241770">
        <ele>504.40</ele>
        <time>2014-02-23T08:47:08Z</time>
      </trkpt>
      <trkpt lat="41.619986810" lon="2.495228360">
        <ele>504.40</ele>
        <time>2014-02-23T08:47:09Z</time>
      </trkpt>
      <trkpt lat="41.619998380" lon="2.495213440">
        <ele>504.70</ele>
        <time>2014-02-23T08:47:10Z</time>
      </trkpt>
      <trkpt lat="41.620013470" lon="2.495200030">
        <ele>504.90</ele>
        <time>2014-02-23T08:47:11Z</time>
      </trkpt>
      <trkpt lat="41.620026710" lon="2.495186790">
        <ele>505.20</ele>
        <time>2014-02-23T08:47:12Z</time>
      </trkpt>
      <trkpt lat="41.620041800" lon="2.495175050">
        <ele>505.50</ele>
        <time>2014-02-23T08:47:13Z</time>
      </trkpt>
      <trkpt lat="41.620055040" lon="2.495163490">
        <ele>505.70</ele>
        <time>2014-02-23T08:47:14Z</time>
      </trkpt>
      <trkpt lat="41.620070130" lon="2.495151750">
        <ele>505.90</ele>
        <time>2014-02-23T08:47:15Z</time>
      </trkpt>
      <trkpt lat="41.620081700" lon="2.495140020">
        <ele>506.10</ele>
        <time>2014-02-23T08:47:16Z</time>
      </trkpt>
      <trkpt lat="41.620098460" lon="2.495126780">
        <ele>506.10</ele>
        <time>2014-02-23T08:47:17Z</time>
      </trkpt>
      <trkpt lat="41.620115060" lon="2.495115040">
        <ele>506.10</ele>
        <time>2014-02-23T08:47:18Z</time>
      </trkpt>
      <trkpt lat="41.620130140" lon="2.495103470">
        <ele>506.10</ele>
        <time>2014-02-23T08:47:19Z</time>
      </trkpt>
      <trkpt lat="41.620145060" lon="2.495093420">
        <ele>506.00</ele>
        <time>2014-02-23T08:47:20Z</time>
      </trkpt>
      <trkpt lat="41.620158470" lon="2.495080000">
        <ele>506.00</ele>
        <time>2014-02-23T08:47:21Z</time>
      </trkpt>
      <trkpt lat="41.620170040" lon="2.495065080">
        <ele>505.90</ele>
        <time>2014-02-23T08:47:22Z</time>
      </trkpt>
      <trkpt lat="41.620181780" lon="2.495053350">
        <ele>505.80</ele>
        <time>2014-02-23T08:47:23Z</time>
      </trkpt>
      <trkpt lat="41.620191670" lon="2.495041780">
        <ele>506.10</ele>
        <time>2014-02-23T08:47:24Z</time>
      </trkpt>
      <trkpt lat="41.620205080" lon="2.495030050">
        <ele>506.30</ele>
        <time>2014-02-23T08:47:25Z</time>
      </trkpt>
      <trkpt lat="41.620216810" lon="2.495016800">
        <ele>506.20</ele>
        <time>2014-02-23T08:47:26Z</time>
      </trkpt>
      <trkpt lat="41.620228380" lon="2.495003390">
        <ele>506.10</ele>
        <time>2014-02-23T08:47:27Z</time>
      </trkpt>
      <trkpt lat="41.620238440" lon="2.494990150">
        <ele>506.10</ele>
        <time>2014-02-23T08:47:28Z</time>
      </trkpt>
      <trkpt lat="41.620250000" lon="2.494975060">
        <ele>506.40</ele>
        <time>2014-02-23T08:47:29Z</time>
      </trkpt>
      <trkpt lat="41.620258390" lon="2.494960140">
        <ele>506.70</ele>
        <time>2014-02-23T08:47:30Z</time>
      </trkpt>
      <trkpt lat="41.620268440" lon="2.494943380">
        <ele>507.20</ele>
        <time>2014-02-23T08:47:31Z</time>
      </trkpt>
      <trkpt lat="41.620276830" lon="2.494926780">
        <ele>507.50</ele>
        <time>2014-02-23T08:47:32Z</time>
      </trkpt>
      <trkpt lat="41.620285040" lon="2.494910020">
        <ele>507.80</ele>
        <time>2014-02-23T08:47:33Z</time>
      </trkpt>
      <trkpt lat="41.620293420" lon="2.494891750">
        <ele>507.80</ele>
        <time>2014-02-23T08:47:34Z</time>
      </trkpt>
      <trkpt lat="41.620301800" lon="2.494873470">
        <ele>507.80</ele>
        <time>2014-02-23T08:47:35Z</time>
      </trkpt>
      <trkpt lat="41.620310020" lon="2.494856710">
        <ele>507.70</ele>
        <time>2014-02-23T08:47:36Z</time>
      </trkpt>
      <trkpt lat="41.620320080" lon="2.494840110">
        <ele>507.70</ele>
        <time>2014-02-23T08:47:37Z</time>
      </trkpt>
      <trkpt lat="41.620330130" lon="2.494825030">
        <ele>507.90</ele>
        <time>2014-02-23T08:47:38Z</time>
      </trkpt>
      <trkpt lat="41.620340030" lon="2.494810110">
        <ele>508.10</ele>
        <time>2014-02-23T08:47:39Z</time>
      </trkpt>
      <trkpt lat="41.620351760" lon="2.494796700">
        <ele>508.20</ele>
        <time>2014-02-23T08:47:40Z</time>
      </trkpt>
      <trkpt lat="41.620361820" lon="2.494786810">
        <ele>508.20</ele>
        <time>2014-02-23T08:47:41Z</time>
      </trkpt>
      <trkpt lat="41.620370030" lon="2.494778420">
        <ele>508.20</ele>
        <time>2014-02-23T08:47:42Z</time>
      </trkpt>
      <trkpt lat="41.620383440" lon="2.494773390">
        <ele>508.60</ele>
        <time>2014-02-23T08:47:43Z</time>
      </trkpt>
      <trkpt lat="41.620395010" lon="2.494768360">
        <ele>509.00</ele>
        <time>2014-02-23T08:47:44Z</time>
      </trkpt>
      <trkpt lat="41.620406750" lon="2.494765010">
        <ele>508.80</ele>
        <time>2014-02-23T08:47:45Z</time>
      </trkpt>
      <trkpt lat="41.620420160" lon="2.494768360">
        <ele>508.70</ele>
        <time>2014-02-23T08:47:46Z</time>
      </trkpt>
      <trkpt lat="41.620435080" lon="2.494776750">
        <ele>508.70</ele>
        <time>2014-02-23T08:47:47Z</time>
      </trkpt>
      <trkpt lat="41.620448490" lon="2.494785130">
        <ele>508.80</ele>
        <time>2014-02-23T08:47:48Z</time>
      </trkpt>
      <trkpt lat="41.620461730" lon="2.494796700">
        <ele>508.90</ele>
        <time>2014-02-23T08:47:49Z</time>
      </trkpt>
      <trkpt lat="41.620475140" lon="2.494806750">
        <ele>509.50</ele>
        <time>2014-02-23T08:47:50Z</time>
      </trkpt>
      <trkpt lat="41.620488390" lon="2.494820000">
        <ele>510.00</ele>
        <time>2014-02-23T08:47:51Z</time>
      </trkpt>
      <trkpt lat="41.620501800" lon="2.494833410">
        <ele>510.40</ele>
        <time>2014-02-23T08:47:52Z</time>
      </trkpt>
      <trkpt lat="41.620515040" lon="2.494846820">
        <ele>510.40</ele>
        <time>2014-02-23T08:47:53Z</time>
      </trkpt>
      <trkpt lat="41.620528450" lon="2.494858390">
        <ele>510.50</ele>
        <time>2014-02-23T08:47:54Z</time>
      </trkpt>
      <trkpt lat="41.620541690" lon="2.494870120">
        <ele>510.90</ele>
        <time>2014-02-23T08:47:55Z</time>
      </trkpt>
      <trkpt lat="41.620555110" lon="2.494881690">
        <ele>511.30</ele>
        <time>2014-02-23T08:47:56Z</time>
      </trkpt>
      <trkpt lat="41.620566670" lon="2.494895100">
        <ele>511.50</ele>
        <time>2014-02-23T08:47:57Z</time>
      </trkpt>
      <trkpt lat="41.620578410" lon="2.494910020">
        <ele>511.70</ele>
        <time>2014-02-23T08:47:58Z</time>
      </trkpt>
      <trkpt lat="41.620593490" lon="2.494923430">
        <ele>511.80</ele>
        <time>2014-02-23T08:47:59Z</time>
      </trkpt>
      <trkpt lat="41.620606740" lon="2.494938350">
        <ele>511.90</ele>
        <time>2014-02-23T08:48:00Z</time>
      </trkpt>
      <trkpt lat="41.620620150" lon="2.494950080">
        <ele>512.10</ele>
        <time>2014-02-23T08:48:01Z</time>
      </trkpt>
      <trkpt lat="41.620631720" lon="2.494965000">
        <ele>512.20</ele>
        <time>2014-02-23T08:48:02Z</time>
      </trkpt>
      <trkpt lat="41.620646800" lon="2.494976740">
        <ele>512.20</ele>
        <time>2014-02-23T08:48:03Z</time>
      </trkpt>
      <trkpt lat="41.620660050" lon="2.494990150">
        <ele>512.40</ele>
        <time>2014-02-23T08:48:04Z</time>
      </trkpt>
      <trkpt lat="41.620673460" lon="2.495005070">
        <ele>512.50</ele>
        <time>2014-02-23T08:48:05Z</time>
      </trkpt>
      <trkpt lat="41.620688380" lon="2.495018480">
        <ele>512.50</ele>
        <time>2014-02-23T08:48:06Z</time>
      </trkpt>
      <trkpt lat="41.620703460" lon="2.495033400">
        <ele>512.70</ele>
        <time>2014-02-23T08:48:07Z</time>
      </trkpt>
      <trkpt lat="41.620720060" lon="2.495048490">
        <ele>512.90</ele>
        <time>2014-02-23T08:48:08Z</time>
      </trkpt>
      <trkpt lat="41.620735150" lon="2.495061730">
        <ele>513.00</ele>
        <time>2014-02-23T08:48:09Z</time>
      </trkpt>
      <trkpt lat="41.620751740" lon="2.495075140">
        <ele>513.00</ele>
        <time>2014-02-23T08:48:10Z</time>
      </trkpt>
      <trkpt lat="41.620768340" lon="2.495086710">
        <ele>513.10</ele>
        <time>2014-02-23T08:48:11Z</time>
      </trkpt>
      <trkpt lat="41.620785100" lon="2.495098440">
        <ele>513.10</ele>
        <time>2014-02-23T08:48:12Z</time>
      </trkpt>
      <trkpt lat="41.620800020" lon="2.495111690">
        <ele>513.20</ele>
        <time>2014-02-23T08:48:13Z</time>
      </trkpt>
      <trkpt lat="41.620816790" lon="2.495125100">
        <ele>513.80</ele>
        <time>2014-02-23T08:48:14Z</time>
      </trkpt>
      <trkpt lat="41.620831710" lon="2.495136670">
        <ele>514.30</ele>
        <time>2014-02-23T08:48:15Z</time>
      </trkpt>
      <trkpt lat="41.620848470" lon="2.495146720">
        <ele>514.90</ele>
        <time>2014-02-23T08:48:16Z</time>
      </trkpt>
      <trkpt lat="41.620865070" lon="2.495156780">
        <ele>515.30</ele>
        <time>2014-02-23T08:48:17Z</time>
      </trkpt>
      <trkpt lat="41.620883340" lon="2.495165000">
        <ele>515.70</ele>
        <time>2014-02-23T08:48:18Z</time>
      </trkpt>
      <trkpt lat="41.620900100" lon="2.495173380">
        <ele>515.60</ele>
        <time>2014-02-23T08:48:19Z</time>
      </trkpt>
      <trkpt lat="41.620916700" lon="2.495185110">
        <ele>515.60</ele>
        <time>2014-02-23T08:48:20Z</time>
      </trkpt>
      <trkpt lat="41.620933460" lon="2.495195000">
        <ele>515.70</ele>
        <time>2014-02-23T08:48:21Z</time>
      </trkpt>
      <trkpt lat="41.620951740" lon="2.495205060">
        <ele>515.70</ele>
        <time>2014-02-23T08:48:22Z</time>
      </trkpt>
      <trkpt lat="41.620968330" lon="2.495216800">
        <ele>515.80</ele>
        <time>2014-02-23T08:48:23Z</time>
      </trkpt>
      <trkpt lat="41.620985100" lon="2.495225010">
        <ele>515.80</ele>
        <time>2014-02-23T08:48:24Z</time>
      </trkpt>
      <trkpt lat="41.621003370" lon="2.495228360">
        <ele>515.80</ele>
        <time>2014-02-23T08:48:25Z</time>
      </trkpt>
      <trkpt lat="41.621021810" lon="2.495230040">
        <ele>516.30</ele>
        <time>2014-02-23T08:48:26Z</time>
      </trkpt>
      <trkpt lat="41.621040080" lon="2.495230040">
        <ele>516.60</ele>
        <time>2014-02-23T08:48:27Z</time>
      </trkpt>
      <trkpt lat="41.621058350" lon="2.495225010">
        <ele>516.60</ele>
        <time>2014-02-23T08:48:28Z</time>
      </trkpt>
      <trkpt lat="41.621076790" lon="2.495218470">
        <ele>516.70</ele>
        <time>2014-02-23T08:48:29Z</time>
      </trkpt>
      <trkpt lat="41.621091710" lon="2.495206740">
        <ele>516.70</ele>
        <time>2014-02-23T08:48:30Z</time>
      </trkpt>
      <trkpt lat="41.621105130" lon="2.495190140">
        <ele>516.60</ele>
        <time>2014-02-23T08:48:31Z</time>
      </trkpt>
      <trkpt lat="41.621120050" lon="2.495170030">
        <ele>516.50</ele>
        <time>2014-02-23T08:48:32Z</time>
      </trkpt>
      <trkpt lat="41.621131780" lon="2.495150080">
        <ele>516.70</ele>
        <time>2014-02-23T08:48:33Z</time>
      </trkpt>
      <trkpt lat="41.621141670" lon="2.495128450">
        <ele>516.80</ele>
        <time>2014-02-23T08:48:34Z</time>
      </trkpt>
      <trkpt lat="41.621151730" lon="2.495106830">
        <ele>516.90</ele>
        <time>2014-02-23T08:48:35Z</time>
      </trkpt>
      <trkpt lat="41.621160110" lon="2.495083360">
        <ele>516.90</ele>
        <time>2014-02-23T08:48:36Z</time>
      </trkpt>
      <trkpt lat="41.621165140" lon="2.495061730">
        <ele>516.90</ele>
        <time>2014-02-23T08:48:37Z</time>
      </trkpt>
      <trkpt lat="41.621168490" lon="2.495036750">
        <ele>517.10</ele>
        <time>2014-02-23T08:48:38Z</time>
      </trkpt>
      <trkpt lat="41.621175030" lon="2.495013450">
        <ele>517.30</ele>
        <time>2014-02-23T08:48:39Z</time>
      </trkpt>
      <trkpt lat="41.621183410" lon="2.494991830">
        <ele>517.40</ele>
        <time>2014-02-23T08:48:40Z</time>
      </trkpt>
      <trkpt lat="41.621193470" lon="2.494970030">
        <ele>517.50</ele>
        <time>2014-02-23T08:48:41Z</time>
      </trkpt>
      <trkpt lat="41.621203360" lon="2.494946730">
        <ele>517.50</ele>
        <time>2014-02-23T08:48:42Z</time>
      </trkpt>
      <trkpt lat="41.621216770" lon="2.494923430">
        <ele>517.40</ele>
        <time>2014-02-23T08:48:43Z</time>
      </trkpt>
      <trkpt lat="41.621230020" lon="2.494900130">
        <ele>517.30</ele>
        <time>2014-02-23T08:48:44Z</time>
      </trkpt>
      <trkpt lat="41.621246780" lon="2.494880010">
        <ele>517.50</ele>
        <time>2014-02-23T08:48:45Z</time>
      </trkpt>
      <trkpt lat="41.621266730" lon="2.494863420">
        <ele>517.60</ele>
        <time>2014-02-23T08:48:46Z</time>
      </trkpt>
      <trkpt lat="41.621286680" lon="2.494845140">
        <ele>517.80</ele>
        <time>2014-02-23T08:48:47Z</time>
      </trkpt>
      <trkpt lat="41.621306790" lon="2.494825030">
        <ele>518.00</ele>
        <time>2014-02-23T08:48:48Z</time>
      </trkpt>
      <trkpt lat="41.621323390" lon="2.494805080">
        <ele>518.10</ele>
        <time>2014-02-23T08:48:49Z</time>
      </trkpt>
      <trkpt lat="41.621340150" lon="2.494781780">
        <ele>518.00</ele>
        <time>2014-02-23T08:48:50Z</time>
      </trkpt>
      <trkpt lat="41.621358430" lon="2.494758470">
        <ele>518.00</ele>
        <time>2014-02-23T08:48:51Z</time>
      </trkpt>
      <trkpt lat="41.621373350" lon="2.494731820">
        <ele>517.80</ele>
        <time>2014-02-23T08:48:52Z</time>
      </trkpt>
      <trkpt lat="41.621388430" lon="2.494705000">
        <ele>517.80</ele>
        <time>2014-02-23T08:48:53Z</time>
      </trkpt>
      <trkpt lat="41.621398490" lon="2.494675160">
        <ele>517.80</ele>
        <time>2014-02-23T08:48:54Z</time>
      </trkpt>
      <trkpt lat="41.621403350" lon="2.494645150">
        <ele>517.80</ele>
        <time>2014-02-23T08:48:55Z</time>
      </trkpt>
      <trkpt lat="41.621405030" lon="2.494616820">
        <ele>517.80</ele>
        <time>2014-02-23T08:48:56Z</time>
      </trkpt>
      <trkpt lat="41.621403350" lon="2.494588490">
        <ele>517.70</ele>
        <time>2014-02-23T08:48:57Z</time>
      </trkpt>
      <trkpt lat="41.621403350" lon="2.494560160">
        <ele>517.70</ele>
        <time>2014-02-23T08:48:58Z</time>
      </trkpt>
      <trkpt lat="41.621401680" lon="2.494530150">
        <ele>518.00</ele>
        <time>2014-02-23T08:48:59Z</time>
      </trkpt>
      <trkpt lat="41.621401680" lon="2.494498470">
        <ele>518.20</ele>
        <time>2014-02-23T08:49:00Z</time>
      </trkpt>
      <trkpt lat="41.621401680" lon="2.494463430">
        <ele>518.10</ele>
        <time>2014-02-23T08:49:01Z</time>
      </trkpt>
      <trkpt lat="41.621400000" lon="2.494431750">
        <ele>518.10</ele>
        <time>2014-02-23T08:49:02Z</time>
      </trkpt>
      <trkpt lat="41.621398490" lon="2.494395030">
        <ele>518.00</ele>
        <time>2014-02-23T08:49:03Z</time>
      </trkpt>
      <trkpt lat="41.621396820" lon="2.494360000">
        <ele>518.20</ele>
        <time>2014-02-23T08:49:04Z</time>
      </trkpt>
      <trkpt lat="41.621393460" lon="2.494323450">
        <ele>518.40</ele>
        <time>2014-02-23T08:49:05Z</time>
      </trkpt>
      <trkpt lat="41.621390110" lon="2.494288420">
        <ele>517.90</ele>
        <time>2014-02-23T08:49:06Z</time>
      </trkpt>
      <trkpt lat="41.621386760" lon="2.494250030">
        <ele>517.60</ele>
        <time>2014-02-23T08:49:07Z</time>
      </trkpt>
      <trkpt lat="41.621388430" lon="2.494215160">
        <ele>517.30</ele>
        <time>2014-02-23T08:49:08Z</time>
      </trkpt>
      <trkpt lat="41.621390110" lon="2.494181800">
        <ele>517.80</ele>
        <time>2014-02-23T08:49:09Z</time>
      </trkpt>
      <trkpt lat="41.621395140" lon="2.494148440">
        <ele>518.20</ele>
        <time>2014-02-23T08:49:10Z</time>
      </trkpt>
      <trkpt lat="41.621400000" lon="2.494116760">
        <ele>518.20</ele>
        <time>2014-02-23T08:49:11Z</time>
      </trkpt>
      <trkpt lat="41.621410060" lon="2.494088420">
        <ele>518.20</ele>
        <time>2014-02-23T08:49:12Z</time>
      </trkpt>
      <trkpt lat="41.621420120" lon="2.494058420">
        <ele>518.40</ele>
        <time>2014-02-23T08:49:13Z</time>
      </trkpt>
      <trkpt lat="41.621433360" lon="2.494030090">
        <ele>518.50</ele>
        <time>2014-02-23T08:49:14Z</time>
      </trkpt>
      <trkpt lat="41.621450120" lon="2.494006790">
        <ele>518.60</ele>
        <time>2014-02-23T08:49:15Z</time>
      </trkpt>
      <trkpt lat="41.621471750" lon="2.493985160">
        <ele>518.70</ele>
        <time>2014-02-23T08:49:16Z</time>
      </trkpt>
      <trkpt lat="41.621491700" lon="2.493965040">
        <ele>518.80</ele>
        <time>2014-02-23T08:49:17Z</time>
      </trkpt>
      <trkpt lat="41.621515000" lon="2.493948450">
        <ele>519.20</ele>
        <time>2014-02-23T08:49:18Z</time>
      </trkpt>
      <trkpt lat="41.621538470" lon="2.493931680">
        <ele>519.50</ele>
        <time>2014-02-23T08:49:19Z</time>
      </trkpt>
      <trkpt lat="41.621565120" lon="2.493913410">
        <ele>519.20</ele>
        <time>2014-02-23T08:49:20Z</time>
      </trkpt>
      <trkpt lat="41.621588430" lon="2.493888430">
        <ele>519.00</ele>
        <time>2014-02-23T08:49:21Z</time>
      </trkpt>
      <trkpt lat="41.621613400" lon="2.493861780">
        <ele>518.90</ele>
        <time>2014-02-23T08:49:22Z</time>
      </trkpt>
      <trkpt lat="41.621638380" lon="2.493836800">
        <ele>518.80</ele>
        <time>2014-02-23T08:49:23Z</time>
      </trkpt>
      <trkpt lat="41.621666710" lon="2.493813330">
        <ele>518.80</ele>
        <time>2014-02-23T08:49:24Z</time>
      </trkpt>
      <trkpt lat="41.621695040" lon="2.493786680">
        <ele>518.30</ele>
        <time>2014-02-23T08:49:25Z</time>
      </trkpt>
      <trkpt lat="41.621725050" lon="2.493760020">
        <ele>518.00</ele>
        <time>2014-02-23T08:49:26Z</time>
      </trkpt>
      <trkpt lat="41.621755060" lon="2.493730010">
        <ele>517.70</ele>
        <time>2014-02-23T08:49:27Z</time>
      </trkpt>
      <trkpt lat="41.621786740" lon="2.493700010">
        <ele>517.60</ele>
        <time>2014-02-23T08:49:28Z</time>
      </trkpt>
      <trkpt lat="41.621820100" lon="2.493671680">
        <ele>517.50</ele>
        <time>2014-02-23T08:49:29Z</time>
      </trkpt>
      <trkpt lat="41.621853460" lon="2.493641670">
        <ele>517.50</ele>
        <time>2014-02-23T08:49:30Z</time>
      </trkpt>
      <trkpt lat="41.621888330" lon="2.493621720">
        <ele>517.60</ele>
        <time>2014-02-23T08:49:31Z</time>
      </trkpt>
      <trkpt lat="41.621925040" lon="2.493611660">
        <ele>517.40</ele>
        <time>2014-02-23T08:49:32Z</time>
      </trkpt>
      <trkpt lat="41.621960080" lon="2.493618370">
        <ele>517.20</ele>
        <time>2014-02-23T08:49:33Z</time>
      </trkpt>
      <trkpt lat="41.621993440" lon="2.493635130">
        <ele>517.10</ele>
        <time>2014-02-23T08:49:34Z</time>
      </trkpt>
      <trkpt lat="41.622021770" lon="2.493660110">
        <ele>517.20</ele>
        <time>2014-02-23T08:49:35Z</time>
      </trkpt>
      <trkpt lat="41.622041720" lon="2.493693470">
        <ele>517.30</ele>
        <time>2014-02-23T08:49:36Z</time>
      </trkpt>
      <trkpt lat="41.622065020" lon="2.493733370">
        <ele>517.00</ele>
        <time>2014-02-23T08:49:37Z</time>
      </trkpt>
      <trkpt lat="41.622088490" lon="2.493773430">
        <ele>516.80</ele>
        <time>2014-02-23T08:49:38Z</time>
      </trkpt>
      <trkpt lat="41.622111790" lon="2.493815010">
        <ele>516.60</ele>
        <time>2014-02-23T08:49:39Z</time>
      </trkpt>
      <trkpt lat="41.622136770" lon="2.493853400">
        <ele>516.50</ele>
        <time>2014-02-23T08:49:40Z</time>
      </trkpt>
      <trkpt lat="41.622166780" lon="2.493891790">
        <ele>516.40</ele>
        <time>2014-02-23T08:49:41Z</time>
      </trkpt>
      <trkpt lat="41.622200140" lon="2.493916760">
        <ele>516.00</ele>
        <time>2014-02-23T08:49:42Z</time>
      </trkpt>
      <trkpt lat="41.622233330" lon="2.493938390">
        <ele>515.60</ele>
        <time>2014-02-23T08:49:43Z</time>
      </trkpt>
      <trkpt lat="41.622268370" lon="2.493951800">
        <ele>515.50</ele>
        <time>2014-02-23T08:49:44Z</time>
      </trkpt>
      <trkpt lat="41.622306760" lon="2.493963370">
        <ele>515.40</ele>
        <time>2014-02-23T08:49:45Z</time>
      </trkpt>
      <trkpt lat="41.622341790" lon="2.493968400">
        <ele>515.40</ele>
        <time>2014-02-23T08:49:46Z</time>
      </trkpt>
      <trkpt lat="41.622375150" lon="2.493971750">
        <ele>515.60</ele>
        <time>2014-02-23T08:49:47Z</time>
      </trkpt>
      <trkpt lat="41.622405160" lon="2.493973430">
        <ele>515.80</ele>
        <time>2014-02-23T08:49:48Z</time>
      </trkpt>
      <trkpt lat="41.622435000" lon="2.493971750">
        <ele>516.00</ele>
        <time>2014-02-23T08:49:49Z</time>
      </trkpt>
      <trkpt lat="41.622463330" lon="2.493968400">
        <ele>516.10</ele>
        <time>2014-02-23T08:49:50Z</time>
      </trkpt>
      <trkpt lat="41.622493340" lon="2.493968400">
        <ele>516.30</ele>
        <time>2014-02-23T08:49:51Z</time>
      </trkpt>
      <trkpt lat="41.622526700" lon="2.493970070">
        <ele>516.50</ele>
        <time>2014-02-23T08:49:52Z</time>
      </trkpt>
      <trkpt lat="41.622561730" lon="2.493976780">
        <ele>516.60</ele>
        <time>2014-02-23T08:49:53Z</time>
      </trkpt>
      <trkpt lat="41.622593420" lon="2.493985160">
        <ele>516.40</ele>
        <time>2014-02-23T08:49:54Z</time>
      </trkpt>
      <trkpt lat="41.622628450" lon="2.494005110">
        <ele>516.30</ele>
        <time>2014-02-23T08:49:55Z</time>
      </trkpt>
      <trkpt lat="41.622661810" lon="2.494028410">
        <ele>516.00</ele>
        <time>2014-02-23T08:49:56Z</time>
      </trkpt>
      <trkpt lat="41.622690140" lon="2.494051710">
        <ele>515.80</ele>
        <time>2014-02-23T08:49:57Z</time>
      </trkpt>
      <trkpt lat="41.622720150" lon="2.494078370">
        <ele>515.50</ele>
        <time>2014-02-23T08:49:58Z</time>
      </trkpt>
      <trkpt lat="41.622750160" lon="2.494110050">
        <ele>515.30</ele>
        <time>2014-02-23T08:49:59Z</time>
      </trkpt>
      <trkpt lat="41.622776810" lon="2.494145090">
        <ele>515.10</ele>
        <time>2014-02-23T08:50:00Z</time>
      </trkpt>
      <trkpt lat="41.622806820" lon="2.494183480">
        <ele>515.10</ele>
        <time>2014-02-23T08:50:01Z</time>
      </trkpt>
      <trkpt lat="41.622836830" lon="2.494220020">
        <ele>515.00</ele>
        <time>2014-02-23T08:50:02Z</time>
      </trkpt>
      <trkpt lat="41.622866670" lon="2.494258410">
        <ele>515.20</ele>
        <time>2014-02-23T08:50:03Z</time>
      </trkpt>
      <trkpt lat="41.622893490" lon="2.494296800">
        <ele>515.40</ele>
        <time>2014-02-23T08:50:04Z</time>
      </trkpt>
      <trkpt lat="41.622918470" lon="2.494335020">
        <ele>515.50</ele>
        <time>2014-02-23T08:50:05Z</time>
      </trkpt>
      <trkpt lat="41.622940090" lon="2.494373410">
        <ele>515.10</ele>
        <time>2014-02-23T08:50:06Z</time>
      </trkpt>
      <trkpt lat="41.622960040" lon="2.494411800">
        <ele>514.90</ele>
        <time>2014-02-23T08:50:07Z</time>
      </trkpt>
      <trkpt lat="41.622976800" lon="2.494446670">
        <ele>514.80</ele>
        <time>2014-02-23T08:50:08Z</time>
      </trkpt>
      <trkpt lat="41.622990050" lon="2.494480030">
        <ele>514.70</ele>
        <time>2014-02-23T08:50:09Z</time>
      </trkpt>
      <trkpt lat="41.623003460" lon="2.494511710">
        <ele>514.90</ele>
        <time>2014-02-23T08:50:10Z</time>
      </trkpt>
      <trkpt lat="41.623016700" lon="2.494543390">
        <ele>515.10</ele>
        <time>2014-02-23T08:50:11Z</time>
      </trkpt>
      <trkpt lat="41.623026760" lon="2.494576750">
        <ele>515.20</ele>
        <time>2014-02-23T08:50:12Z</time>
      </trkpt>
      <trkpt lat="41.623040000" lon="2.494610110">
        <ele>515.50</ele>
        <time>2014-02-23T08:50:13Z</time>
      </trkpt>
      <trkpt lat="41.623050060" lon="2.494645150">
        <ele>515.70</ele>
        <time>2014-02-23T08:50:14Z</time>
      </trkpt>
      <trkpt lat="41.623063470" lon="2.494683370">
        <ele>515.70</ele>
        <time>2014-02-23T08:50:15Z</time>
      </trkpt>
      <trkpt lat="41.623075040" lon="2.494723440">
        <ele>515.70</ele>
        <time>2014-02-23T08:50:16Z</time>
      </trkpt>
      <trkpt lat="41.623088450" lon="2.494763340">
        <ele>515.80</ele>
        <time>2014-02-23T08:50:17Z</time>
      </trkpt>
      <trkpt lat="41.623100020" lon="2.494805080">
        <ele>515.90</ele>
        <time>2014-02-23T08:50:18Z</time>
      </trkpt>
      <trkpt lat="41.623110080" lon="2.494848500">
        <ele>516.00</ele>
        <time>2014-02-23T08:50:19Z</time>
      </trkpt>
      <trkpt lat="41.623121810" lon="2.494891750">
        <ele>515.70</ele>
        <time>2014-02-23T08:50:20Z</time>
      </trkpt>
      <trkpt lat="41.623131700" lon="2.494933490">
        <ele>515.60</ele>
        <time>2014-02-23T08:50:21Z</time>
      </trkpt>
      <trkpt lat="41.623141760" lon="2.494975060">
        <ele>515.70</ele>
        <time>2014-02-23T08:50:22Z</time>
      </trkpt>
      <trkpt lat="41.623150140" lon="2.495016800">
        <ele>515.70</ele>
        <time>2014-02-23T08:50:23Z</time>
      </trkpt>
      <trkpt lat="41.623156680" lon="2.495058380">
        <ele>515.70</ele>
        <time>2014-02-23T08:50:24Z</time>
      </trkpt>
      <trkpt lat="41.623165060" lon="2.495100120">
        <ele>515.70</ele>
        <time>2014-02-23T08:50:25Z</time>
      </trkpt>
      <trkpt lat="41.623168420" lon="2.495140020">
        <ele>515.70</ele>
        <time>2014-02-23T08:50:26Z</time>
      </trkpt>
      <trkpt lat="41.623168420" lon="2.495178410">
        <ele>515.80</ele>
        <time>2014-02-23T08:50:27Z</time>
      </trkpt>
      <trkpt lat="41.623168420" lon="2.495216800">
        <ele>515.90</ele>
        <time>2014-02-23T08:50:28Z</time>
      </trkpt>
      <trkpt lat="41.623166740" lon="2.495251670">
        <ele>516.00</ele>
        <time>2014-02-23T08:50:29Z</time>
      </trkpt>
      <trkpt lat="41.623161710" lon="2.495286700">
        <ele>516.10</ele>
        <time>2014-02-23T08:50:30Z</time>
      </trkpt>
      <trkpt lat="41.623156680" lon="2.495321740">
        <ele>516.20</ele>
        <time>2014-02-23T08:50:31Z</time>
      </trkpt>
      <trkpt lat="41.623150140" lon="2.495358450">
        <ele>516.00</ele>
        <time>2014-02-23T08:50:32Z</time>
      </trkpt>
      <trkpt lat="41.623141760" lon="2.495393490">
        <ele>515.80</ele>
        <time>2014-02-23T08:50:33Z</time>
      </trkpt>
      <trkpt lat="41.623130030" lon="2.495426680">
        <ele>516.00</ele>
        <time>2014-02-23T08:50:34Z</time>
      </trkpt>
      <trkpt lat="41.623116780" lon="2.495460040">
        <ele>516.10</ele>
        <time>2014-02-23T08:50:35Z</time>
      </trkpt>
      <trkpt lat="41.623101700" lon="2.495493400">
        <ele>515.90</ele>
        <time>2014-02-23T08:50:36Z</time>
      </trkpt>
      <trkpt lat="41.623088450" lon="2.495523410">
        <ele>515.80</ele>
        <time>2014-02-23T08:50:37Z</time>
      </trkpt>
      <trkpt lat="41.623076720" lon="2.495551740">
        <ele>515.70</ele>
        <time>2014-02-23T08:50:38Z</time>
      </trkpt>
      <trkpt lat="41.623071690" lon="2.495585100">
        <ele>516.00</ele>
        <time>2014-02-23T08:50:39Z</time>
      </trkpt>
      <trkpt lat="41.623068340" lon="2.495625000">
        <ele>516.20</ele>
        <time>2014-02-23T08:50:40Z</time>
      </trkpt>
      <trkpt lat="41.623071690" lon="2.495665060">
        <ele>516.20</ele>
        <time>2014-02-23T08:50:41Z</time>
      </trkpt>
      <trkpt lat="41.623081750" lon="2.495701770">
        <ele>516.30</ele>
        <time>2014-02-23T08:50:42Z</time>
      </trkpt>
      <trkpt lat="41.623098340" lon="2.495731780">
        <ele>516.50</ele>
        <time>2014-02-23T08:50:43Z</time>
      </trkpt>
      <trkpt lat="41.623120140" lon="2.495755080">
        <ele>516.70</ele>
        <time>2014-02-23T08:50:44Z</time>
      </trkpt>
      <trkpt lat="41.623143440" lon="2.495775030">
        <ele>516.90</ele>
        <time>2014-02-23T08:50:45Z</time>
      </trkpt>
      <trkpt lat="41.623166740" lon="2.495791800">
        <ele>517.20</ele>
        <time>2014-02-23T08:50:46Z</time>
      </trkpt>
      <trkpt lat="41.623188360" lon="2.495806720">
        <ele>517.50</ele>
        <time>2014-02-23T08:50:47Z</time>
      </trkpt>
      <trkpt lat="41.623210160" lon="2.495826660">
        <ele>517.50</ele>
        <time>2014-02-23T08:50:48Z</time>
      </trkpt>
      <trkpt lat="41.623228430" lon="2.495848460">
        <ele>517.60</ele>
        <time>2014-02-23T08:50:49Z</time>
      </trkpt>
      <trkpt lat="41.623245030" lon="2.495875110">
        <ele>517.60</ele>
        <time>2014-02-23T08:50:50Z</time>
      </trkpt>
      <trkpt lat="41.623260110" lon="2.495901770">
        <ele>517.80</ele>
        <time>2014-02-23T08:50:51Z</time>
      </trkpt>
      <trkpt lat="41.623273360" lon="2.495930100">
        <ele>518.00</ele>
        <time>2014-02-23T08:50:52Z</time>
      </trkpt>
      <trkpt lat="41.623288440" lon="2.495960100">
        <ele>518.10</ele>
        <time>2014-02-23T08:50:53Z</time>
      </trkpt>
      <trkpt lat="41.623301690" lon="2.495991790">
        <ele>518.20</ele>
        <time>2014-02-23T08:50:54Z</time>
      </trkpt>
      <trkpt lat="41.623316770" lon="2.496021790">
        <ele>518.40</ele>
        <time>2014-02-23T08:50:55Z</time>
      </trkpt>
      <trkpt lat="41.623331690" lon="2.496053480">
        <ele>518.50</ele>
        <time>2014-02-23T08:50:56Z</time>
      </trkpt>
      <trkpt lat="41.623345110" lon="2.496085160">
        <ele>518.60</ele>
        <time>2014-02-23T08:50:57Z</time>
      </trkpt>
      <trkpt lat="41.623356670" lon="2.496115000">
        <ele>518.60</ele>
        <time>2014-02-23T08:50:58Z</time>
      </trkpt>
      <trkpt lat="41.623371760" lon="2.496145010">
        <ele>518.60</ele>
        <time>2014-02-23T08:50:59Z</time>
      </trkpt>
      <trkpt lat="41.623385000" lon="2.496173340">
        <ele>518.70</ele>
        <time>2014-02-23T08:51:00Z</time>
      </trkpt>
      <trkpt lat="41.623400090" lon="2.496198490">
        <ele>518.80</ele>
        <time>2014-02-23T08:51:01Z</time>
      </trkpt>
      <trkpt lat="41.623415010" lon="2.496221790">
        <ele>519.20</ele>
        <time>2014-02-23T08:51:02Z</time>
      </trkpt>
      <trkpt lat="41.623430100" lon="2.496246770">
        <ele>519.50</ele>
        <time>2014-02-23T08:51:03Z</time>
      </trkpt>
      <trkpt lat="41.623446690" lon="2.496271740">
        <ele>519.70</ele>
        <time>2014-02-23T08:51:04Z</time>
      </trkpt>
      <trkpt lat="41.623466810" lon="2.496295040">
        <ele>519.70</ele>
        <time>2014-02-23T08:51:05Z</time>
      </trkpt>
      <trkpt lat="41.623486760" lon="2.496315160">
        <ele>519.70</ele>
        <time>2014-02-23T08:51:06Z</time>
      </trkpt>
      <trkpt lat="41.623508390" lon="2.496331760">
        <ele>519.70</ele>
        <time>2014-02-23T08:51:07Z</time>
      </trkpt>
      <trkpt lat="41.623528330" lon="2.496343490">
        <ele>519.70</ele>
        <time>2014-02-23T08:51:08Z</time>
      </trkpt>
      <trkpt lat="41.623550130" lon="2.496355060">
        <ele>519.70</ele>
        <time>2014-02-23T08:51:09Z</time>
      </trkpt>
      <trkpt lat="41.623571750" lon="2.496368470">
        <ele>519.70</ele>
        <time>2014-02-23T08:51:10Z</time>
      </trkpt>
      <trkpt lat="41.623595050" lon="2.496380040">
        <ele>519.60</ele>
        <time>2014-02-23T08:51:11Z</time>
      </trkpt>
      <trkpt lat="41.623618360" lon="2.496386740">
        <ele>519.70</ele>
        <time>2014-02-23T08:51:12Z</time>
      </trkpt>
      <trkpt lat="41.623641820" lon="2.496393450">
        <ele>519.80</ele>
        <time>2014-02-23T08:51:13Z</time>
      </trkpt>
      <trkpt lat="41.623668480" lon="2.496401660">
        <ele>519.80</ele>
        <time>2014-02-23T08:51:14Z</time>
      </trkpt>
      <trkpt lat="41.623691780" lon="2.496406690">
        <ele>519.70</ele>
        <time>2014-02-23T08:51:15Z</time>
      </trkpt>
      <trkpt lat="41.623716760" lon="2.496410040">
        <ele>519.70</ele>
        <time>2014-02-23T08:51:16Z</time>
      </trkpt>
      <trkpt lat="41.623745090" lon="2.496408370">
        <ele>519.90</ele>
        <time>2014-02-23T08:51:17Z</time>
      </trkpt>
      <trkpt lat="41.623775100" lon="2.496401660">
        <ele>520.00</ele>
        <time>2014-02-23T08:51:18Z</time>
      </trkpt>
      <trkpt lat="41.623806780" lon="2.496390100">
        <ele>519.80</ele>
        <time>2014-02-23T08:51:19Z</time>
      </trkpt>
      <trkpt lat="41.623840140" lon="2.496375010">
        <ele>519.70</ele>
        <time>2014-02-23T08:51:20Z</time>
      </trkpt>
      <trkpt lat="41.623875010" lon="2.496355060">
        <ele>519.60</ele>
        <time>2014-02-23T08:51:21Z</time>
      </trkpt>
      <trkpt lat="41.623913400" lon="2.496328400">
        <ele>519.50</ele>
        <time>2014-02-23T08:51:22Z</time>
      </trkpt>
      <trkpt lat="41.623960000" lon="2.496293370">
        <ele>519.50</ele>
        <time>2014-02-23T08:51:23Z</time>
      </trkpt>
      <trkpt lat="41.624010130" lon="2.496248440">
        <ele>519.00</ele>
        <time>2014-02-23T08:51:24Z</time>
      </trkpt>
      <trkpt lat="41.624058410" lon="2.496195130">
        <ele>518.60</ele>
        <time>2014-02-23T08:51:25Z</time>
      </trkpt>
      <trkpt lat="41.624100150" lon="2.496133440">
        <ele>518.20</ele>
        <time>2014-02-23T08:51:26Z</time>
      </trkpt>
      <trkpt lat="41.624138370" lon="2.496068400">
        <ele>518.00</ele>
        <time>2014-02-23T08:51:27Z</time>
      </trkpt>
      <trkpt lat="41.624166700" lon="2.496000000">
        <ele>517.80</ele>
        <time>2014-02-23T08:51:28Z</time>
      </trkpt>
      <trkpt lat="41.624186820" lon="2.495936800">
        <ele>517.60</ele>
        <time>2014-02-23T08:51:29Z</time>
      </trkpt>
      <trkpt lat="41.624200060" lon="2.495875110">
        <ele>517.50</ele>
        <time>2014-02-23T08:51:30Z</time>
      </trkpt>
      <trkpt lat="41.624208440" lon="2.495810070">
        <ele>517.20</ele>
        <time>2014-02-23T08:51:31Z</time>
      </trkpt>
      <trkpt lat="41.624216820" lon="2.495743350">
        <ele>516.90</ele>
        <time>2014-02-23T08:51:32Z</time>
      </trkpt>
      <trkpt lat="41.624226710" lon="2.495678470">
        <ele>516.60</ele>
        <time>2014-02-23T08:51:33Z</time>
      </trkpt>
      <trkpt lat="41.624235100" lon="2.495613430">
        <ele>516.30</ele>
        <time>2014-02-23T08:51:34Z</time>
      </trkpt>
      <trkpt lat="41.624240130" lon="2.495546710">
        <ele>516.10</ele>
        <time>2014-02-23T08:51:35Z</time>
      </trkpt>
      <trkpt lat="41.624241800" lon="2.495476800">
        <ele>516.10</ele>
        <time>2014-02-23T08:51:36Z</time>
      </trkpt>
      <trkpt lat="41.624241800" lon="2.495406730">
        <ele>516.00</ele>
        <time>2014-02-23T08:51:37Z</time>
      </trkpt>
      <trkpt lat="41.624235100" lon="2.495338330">
        <ele>515.80</ele>
        <time>2014-02-23T08:51:38Z</time>
      </trkpt>
      <trkpt lat="41.624225040" lon="2.495266750">
        <ele>515.60</ele>
        <time>2014-02-23T08:51:39Z</time>
      </trkpt>
      <trkpt lat="41.624216820" lon="2.495195000">
        <ele>515.30</ele>
        <time>2014-02-23T08:51:40Z</time>
      </trkpt>
      <trkpt lat="41.624208440" lon="2.495120070">
        <ele>515.00</ele>
        <time>2014-02-23T08:51:41Z</time>
      </trkpt>
      <trkpt lat="41.624203410" lon="2.495045140">
        <ele>514.80</ele>
        <time>2014-02-23T08:51:42Z</time>
      </trkpt>
      <trkpt lat="41.624201740" lon="2.494968360">
        <ele>514.20</ele>
        <time>2014-02-23T08:51:43Z</time>
      </trkpt>
      <trkpt lat="41.624205090" lon="2.494888390">
        <ele>513.80</ele>
        <time>2014-02-23T08:51:44Z</time>
      </trkpt>
      <trkpt lat="41.624216820" lon="2.494813460">
        <ele>513.30</ele>
        <time>2014-02-23T08:51:45Z</time>
      </trkpt>
      <trkpt lat="41.624233420" lon="2.494740030">
        <ele>512.90</ele>
        <time>2014-02-23T08:51:46Z</time>
      </trkpt>
      <trkpt lat="41.624255040" lon="2.494673480">
        <ele>512.60</ele>
        <time>2014-02-23T08:51:47Z</time>
      </trkpt>
      <trkpt lat="41.624275160" lon="2.494608440">
        <ele>512.40</ele>
        <time>2014-02-23T08:51:48Z</time>
      </trkpt>
      <trkpt lat="41.624288400" lon="2.494540040">
        <ele>512.30</ele>
        <time>2014-02-23T08:51:49Z</time>
      </trkpt>
      <trkpt lat="41.624293430" lon="2.494476670">
        <ele>512.70</ele>
        <time>2014-02-23T08:51:50Z</time>
      </trkpt>
      <trkpt lat="41.624286730" lon="2.494413480">
        <ele>512.90</ele>
        <time>2014-02-23T08:51:51Z</time>
      </trkpt>
      <trkpt lat="41.624276670" lon="2.494356810">
        <ele>512.70</ele>
        <time>2014-02-23T08:51:52Z</time>
      </trkpt>
      <trkpt lat="41.624260070" lon="2.494303340">
        <ele>512.50</ele>
        <time>2014-02-23T08:51:53Z</time>
      </trkpt>
      <trkpt lat="41.624246660" lon="2.494251700">
        <ele>512.40</ele>
        <time>2014-02-23T08:51:54Z</time>
      </trkpt>
      <trkpt lat="41.624233420" lon="2.494196720">
        <ele>512.60</ele>
        <time>2014-02-23T08:51:55Z</time>
      </trkpt>
      <trkpt lat="41.624221680" lon="2.494143410">
        <ele>512.80</ele>
        <time>2014-02-23T08:51:56Z</time>
      </trkpt>
      <trkpt lat="41.624215150" lon="2.494090100">
        <ele>512.70</ele>
        <time>2014-02-23T08:51:57Z</time>
      </trkpt>
      <trkpt lat="41.624208440" lon="2.494036790">
        <ele>512.60</ele>
        <time>2014-02-23T08:51:58Z</time>
      </trkpt>
      <trkpt lat="41.624200060" lon="2.493983480">
        <ele>512.30</ele>
        <time>2014-02-23T08:51:59Z</time>
      </trkpt>
      <trkpt lat="41.624193350" lon="2.493928330">
        <ele>512.20</ele>
        <time>2014-02-23T08:52:00Z</time>
      </trkpt>
      <trkpt lat="41.624183460" lon="2.493871670">
        <ele>512.00</ele>
        <time>2014-02-23T08:52:01Z</time>
      </trkpt>
      <trkpt lat="41.624175080" lon="2.493813330">
        <ele>512.00</ele>
        <time>2014-02-23T08:52:02Z</time>
      </trkpt>
      <trkpt lat="41.624165020" lon="2.493756670">
        <ele>512.10</ele>
        <time>2014-02-23T08:52:03Z</time>
      </trkpt>
      <trkpt lat="41.624156810" lon="2.493700010">
        <ele>511.90</ele>
        <time>2014-02-23T08:52:04Z</time>
      </trkpt>
      <trkpt lat="41.624150100" lon="2.493645020">
        <ele>511.80</ele>
        <time>2014-02-23T08:52:05Z</time>
      </trkpt>
      <trkpt lat="41.624145070" lon="2.493593390">
        <ele>511.70</ele>
        <time>2014-02-23T08:52:06Z</time>
      </trkpt>
      <trkpt lat="41.624140050" lon="2.493538400">
        <ele>512.00</ele>
        <time>2014-02-23T08:52:07Z</time>
      </trkpt>
      <trkpt lat="41.624131660" lon="2.493485100">
        <ele>512.30</ele>
        <time>2014-02-23T08:52:08Z</time>
      </trkpt>
      <trkpt lat="41.624125130" lon="2.493433460">
        <ele>512.50</ele>
        <time>2014-02-23T08:52:09Z</time>
      </trkpt>
      <trkpt lat="41.624120100" lon="2.493385020">
        <ele>512.60</ele>
        <time>2014-02-23T08:52:10Z</time>
      </trkpt>
      <trkpt lat="41.624116740" lon="2.493340090">
        <ele>513.00</ele>
        <time>2014-02-23T08:52:11Z</time>
      </trkpt>
      <trkpt lat="41.624111710" lon="2.493295160">
        <ele>513.30</ele>
        <time>2014-02-23T08:52:12Z</time>
      </trkpt>
      <trkpt lat="41.624110040" lon="2.493251740">
        <ele>513.50</ele>
        <time>2014-02-23T08:52:13Z</time>
      </trkpt>
      <trkpt lat="41.624106690" lon="2.493206820">
        <ele>513.30</ele>
        <time>2014-02-23T08:52:14Z</time>
      </trkpt>
      <trkpt lat="41.624103330" lon="2.493156690">
        <ele>513.20</ele>
        <time>2014-02-23T08:52:15Z</time>
      </trkpt>
      <trkpt lat="41.624095120" lon="2.493105060">
        <ele>513.20</ele>
        <time>2014-02-23T08:52:16Z</time>
      </trkpt>
      <trkpt lat="41.624085060" lon="2.493051750">
        <ele>513.20</ele>
        <time>2014-02-23T08:52:17Z</time>
      </trkpt>
      <trkpt lat="41.624070140" lon="2.492996770">
        <ele>513.10</ele>
        <time>2014-02-23T08:52:18Z</time>
      </trkpt>
      <trkpt lat="41.624065110" lon="2.492936750">
        <ele>513.00</ele>
        <time>2014-02-23T08:52:19Z</time>
      </trkpt>
      <trkpt lat="41.624066790" lon="2.492876740">
        <ele>513.00</ele>
        <time>2014-02-23T08:52:20Z</time>
      </trkpt>
      <trkpt lat="41.624075000" lon="2.492815050">
        <ele>512.70</ele>
        <time>2014-02-23T08:52:21Z</time>
      </trkpt>
      <trkpt lat="41.624088410" lon="2.492755030">
        <ele>512.40</ele>
        <time>2014-02-23T08:52:22Z</time>
      </trkpt>
      <trkpt lat="41.624108360" lon="2.492700050">
        <ele>512.20</ele>
        <time>2014-02-23T08:52:23Z</time>
      </trkpt>
      <trkpt lat="41.624130150" lon="2.492645060">
        <ele>512.00</ele>
        <time>2014-02-23T08:52:24Z</time>
      </trkpt>
      <trkpt lat="41.624153460" lon="2.492593430">
        <ele>511.90</ele>
        <time>2014-02-23T08:52:25Z</time>
      </trkpt>
      <trkpt lat="41.624176760" lon="2.492543470">
        <ele>511.90</ele>
        <time>2014-02-23T08:52:26Z</time>
      </trkpt>
      <trkpt lat="41.624198380" lon="2.492495030">
        <ele>511.80</ele>
        <time>2014-02-23T08:52:27Z</time>
      </trkpt>
      <trkpt lat="41.624213470" lon="2.492446750">
        <ele>512.10</ele>
        <time>2014-02-23T08:52:28Z</time>
      </trkpt>
      <trkpt lat="41.624226710" lon="2.492400140">
        <ele>512.30</ele>
        <time>2014-02-23T08:52:29Z</time>
      </trkpt>
      <trkpt lat="41.624240130" lon="2.492353370">
        <ele>512.20</ele>
        <time>2014-02-23T08:52:30Z</time>
      </trkpt>
      <trkpt lat="41.624253370" lon="2.492308440">
        <ele>512.10</ele>
        <time>2014-02-23T08:52:31Z</time>
      </trkpt>
      <trkpt lat="41.624265100" lon="2.492265030">
        <ele>512.00</ele>
        <time>2014-02-23T08:52:32Z</time>
      </trkpt>
      <trkpt lat="41.624275160" lon="2.492223450">
        <ele>512.10</ele>
        <time>2014-02-23T08:52:33Z</time>
      </trkpt>
      <trkpt lat="41.624283380" lon="2.492181710">
        <ele>512.10</ele>
        <time>2014-02-23T08:52:34Z</time>
      </trkpt>
      <trkpt lat="41.624291760" lon="2.492145000">
        <ele>512.30</ele>
        <time>2014-02-23T08:52:35Z</time>
      </trkpt>
      <trkpt lat="41.624300140" lon="2.492108450">
        <ele>512.50</ele>
        <time>2014-02-23T08:52:36Z</time>
      </trkpt>
      <trkpt lat="41.624306680" lon="2.492073420">
        <ele>512.60</ele>
        <time>2014-02-23T08:52:37Z</time>
      </trkpt>
      <trkpt lat="41.624311710" lon="2.492040060">
        <ele>512.80</ele>
        <time>2014-02-23T08:52:38Z</time>
      </trkpt>
      <trkpt lat="41.624316740" lon="2.492005020">
        <ele>512.80</ele>
        <time>2014-02-23T08:52:39Z</time>
      </trkpt>
      <trkpt lat="41.624325120" lon="2.491970150">
        <ele>512.90</ele>
        <time>2014-02-23T08:52:40Z</time>
      </trkpt>
      <trkpt lat="41.624331820" lon="2.491933440">
        <ele>512.90</ele>
        <time>2014-02-23T08:52:41Z</time>
      </trkpt>
      <trkpt lat="41.624335010" lon="2.491893370">
        <ele>513.10</ele>
        <time>2014-02-23T08:52:42Z</time>
      </trkpt>
      <trkpt lat="41.624338360" lon="2.491851800">
        <ele>513.20</ele>
        <time>2014-02-23T08:52:43Z</time>
      </trkpt>
      <trkpt lat="41.624341710" lon="2.491806700">
        <ele>513.00</ele>
        <time>2014-02-23T08:52:44Z</time>
      </trkpt>
      <trkpt lat="41.624346740" lon="2.491760100">
        <ele>512.90</ele>
        <time>2014-02-23T08:52:45Z</time>
      </trkpt>
      <trkpt lat="41.624351770" lon="2.491711820">
        <ele>512.80</ele>
        <time>2014-02-23T08:52:46Z</time>
      </trkpt>
      <trkpt lat="41.624351770" lon="2.491663370">
        <ele>512.90</ele>
        <time>2014-02-23T08:52:47Z</time>
      </trkpt>
      <trkpt lat="41.624350100" lon="2.491618450">
        <ele>512.90</ele>
        <time>2014-02-23T08:52:48Z</time>
      </trkpt>
      <trkpt lat="41.624348420" lon="2.491576700">
        <ele>512.90</ele>
        <time>2014-02-23T08:52:49Z</time>
      </trkpt>
      <trkpt lat="41.624348420" lon="2.491531780">
        <ele>512.90</ele>
        <time>2014-02-23T08:52:50Z</time>
      </trkpt>
      <trkpt lat="41.624350100" lon="2.491488360">
        <ele>512.80</ele>
        <time>2014-02-23T08:52:51Z</time>
      </trkpt>
      <trkpt lat="41.624353450" lon="2.491446780">
        <ele>512.80</ele>
        <time>2014-02-23T08:52:52Z</time>
      </trkpt>
      <trkpt lat="41.624356800" lon="2.491406720">
        <ele>512.80</ele>
        <time>2014-02-23T08:52:53Z</time>
      </trkpt>
      <trkpt lat="41.624361660" lon="2.491366820">
        <ele>513.00</ele>
        <time>2014-02-23T08:52:54Z</time>
      </trkpt>
      <trkpt lat="41.624365020" lon="2.491326760">
        <ele>513.10</ele>
        <time>2014-02-23T08:52:55Z</time>
      </trkpt>
      <trkpt lat="41.624370040" lon="2.491288370">
        <ele>513.40</ele>
        <time>2014-02-23T08:52:56Z</time>
      </trkpt>
      <trkpt lat="41.624376750" lon="2.491248470">
        <ele>513.60</ele>
        <time>2014-02-23T08:52:57Z</time>
      </trkpt>
      <trkpt lat="41.624383460" lon="2.491213430">
        <ele>513.80</ele>
        <time>2014-02-23T08:52:58Z</time>
      </trkpt>
      <trkpt lat="41.624390160" lon="2.491178400">
        <ele>513.90</ele>
        <time>2014-02-23T08:52:59Z</time>
      </trkpt>
      <trkpt lat="41.624396700" lon="2.491143360">
        <ele>514.00</ele>
        <time>2014-02-23T08:53:00Z</time>
      </trkpt>
      <trkpt lat="41.624403400" lon="2.491106810">
        <ele>514.50</ele>
        <time>2014-02-23T08:53:01Z</time>
      </trkpt>
      <trkpt lat="41.624411790" lon="2.491071780">
        <ele>514.90</ele>
        <time>2014-02-23T08:53:02Z</time>
      </trkpt>
      <trkpt lat="41.624421680" lon="2.491035070">
        <ele>514.80</ele>
        <time>2014-02-23T08:53:03Z</time>
      </trkpt>
      <trkpt lat="41.624430060" lon="2.491000030">
        <ele>514.80</ele>
        <time>2014-02-23T08:53:04Z</time>
      </trkpt>
      <trkpt lat="41.624436760" lon="2.490965160">
        <ele>514.80</ele>
        <time>2014-02-23T08:53:05Z</time>
      </trkpt>
      <trkpt lat="41.624445150" lon="2.490931800">
        <ele>515.10</ele>
        <time>2014-02-23T08:53:06Z</time>
      </trkpt>
      <trkpt lat="41.624453360" lon="2.490898440">
        <ele>515.40</ele>
        <time>2014-02-23T08:53:07Z</time>
      </trkpt>
      <trkpt lat="41.624463420" lon="2.490865080">
        <ele>515.80</ele>
        <time>2014-02-23T08:53:08Z</time>
      </trkpt>
      <trkpt lat="41.624475150" lon="2.490830040">
        <ele>516.00</ele>
        <time>2014-02-23T08:53:09Z</time>
      </trkpt>
      <trkpt lat="41.624486720" lon="2.490793330">
        <ele>516.20</ele>
        <time>2014-02-23T08:53:10Z</time>
      </trkpt>
      <trkpt lat="41.624505160" lon="2.490756790">
        <ele>516.50</ele>
        <time>2014-02-23T08:53:11Z</time>
      </trkpt>
      <trkpt lat="41.624526790" lon="2.490721750">
        <ele>516.70</ele>
        <time>2014-02-23T08:53:12Z</time>
      </trkpt>
      <trkpt lat="41.624550090" lon="2.490683360">
        <ele>516.90</ele>
        <time>2014-02-23T08:53:13Z</time>
      </trkpt>
      <trkpt lat="41.624573390" lon="2.490645140">
        <ele>517.10</ele>
        <time>2014-02-23T08:53:14Z</time>
      </trkpt>
      <trkpt lat="41.624591660" lon="2.490603400">
        <ele>517.30</ele>
        <time>2014-02-23T08:53:15Z</time>
      </trkpt>
      <trkpt lat="41.624610100" lon="2.490561820">
        <ele>517.50</ele>
        <time>2014-02-23T08:53:16Z</time>
      </trkpt>
      <trkpt lat="41.624626700" lon="2.490525110">
        <ele>517.60</ele>
        <time>2014-02-23T08:53:17Z</time>
      </trkpt>
      <trkpt lat="41.624645140" lon="2.490488400">
        <ele>517.50</ele>
        <time>2014-02-23T08:53:18Z</time>
      </trkpt>
      <trkpt lat="41.624665090" lon="2.490456710">
        <ele>517.50</ele>
        <time>2014-02-23T08:53:19Z</time>
      </trkpt>
      <trkpt lat="41.624686710" lon="2.490423350">
        <ele>517.00</ele>
        <time>2014-02-23T08:53:20Z</time>
      </trkpt>
      <trkpt lat="41.624706660" lon="2.490390160">
        <ele>516.70</ele>
        <time>2014-02-23T08:53:21Z</time>
      </trkpt>
      <trkpt lat="41.624725100" lon="2.490355130">
        <ele>516.50</ele>
        <time>2014-02-23T08:53:22Z</time>
      </trkpt>
      <trkpt lat="41.624748400" lon="2.490321770">
        <ele>516.40</ele>
        <time>2014-02-23T08:53:23Z</time>
      </trkpt>
      <trkpt lat="41.624770030" lon="2.490286730">
        <ele>516.30</ele>
        <time>2014-02-23T08:53:24Z</time>
      </trkpt>
      <trkpt lat="41.624796680" lon="2.490251690">
        <ele>516.30</ele>
        <time>2014-02-23T08:53:25Z</time>
      </trkpt>
      <trkpt lat="41.624826690" lon="2.490221690">
        <ele>516.30</ele>
        <time>2014-02-23T08:53:26Z</time>
      </trkpt>
      <trkpt lat="41.624853350" lon="2.490191680">
        <ele>515.90</ele>
        <time>2014-02-23T08:53:27Z</time>
      </trkpt>
      <trkpt lat="41.624876810" lon="2.490161670">
        <ele>515.60</ele>
        <time>2014-02-23T08:53:28Z</time>
      </trkpt>
      <trkpt lat="41.624900120" lon="2.490136690">
        <ele>515.30</ele>
        <time>2014-02-23T08:53:29Z</time>
      </trkpt>
      <trkpt lat="41.624923420" lon="2.490113390">
        <ele>515.50</ele>
        <time>2014-02-23T08:53:30Z</time>
      </trkpt>
      <trkpt lat="41.624938340" lon="2.490083380">
        <ele>515.60</ele>
        <time>2014-02-23T08:53:31Z</time>
      </trkpt>
      <trkpt lat="41.624953430" lon="2.490051700">
        <ele>515.70</ele>
        <time>2014-02-23T08:53:32Z</time>
      </trkpt>
      <trkpt lat="41.624970020" lon="2.490018340">
        <ele>515.70</ele>
        <time>2014-02-23T08:53:33Z</time>
      </trkpt>
      <trkpt lat="41.624986790" lon="2.489986820">
        <ele>515.70</ele>
        <time>2014-02-23T08:53:34Z</time>
      </trkpt>
      <trkpt lat="41.625001700" lon="2.489956820">
        <ele>515.60</ele>
        <time>2014-02-23T08:53:35Z</time>
      </trkpt>
      <trkpt lat="41.625015120" lon="2.489928490">
        <ele>515.60</ele>
        <time>2014-02-23T08:53:36Z</time>
      </trkpt>
      <trkpt lat="41.625028360" lon="2.489903340">
        <ele>515.80</ele>
        <time>2014-02-23T08:53:37Z</time>
      </trkpt>
      <trkpt lat="41.625040090" lon="2.489878360">
        <ele>516.00</ele>
        <time>2014-02-23T08:53:38Z</time>
      </trkpt>
      <trkpt lat="41.625053340" lon="2.489853380">
        <ele>516.40</ele>
        <time>2014-02-23T08:53:39Z</time>
      </trkpt>
      <trkpt lat="41.625066750" lon="2.489825050">
        <ele>516.70</ele>
        <time>2014-02-23T08:53:40Z</time>
      </trkpt>
      <trkpt lat="41.625076810" lon="2.489798400">
        <ele>517.40</ele>
        <time>2014-02-23T08:53:41Z</time>
      </trkpt>
      <trkpt lat="41.625088370" lon="2.489770070">
        <ele>517.90</ele>
        <time>2014-02-23T08:53:42Z</time>
      </trkpt>
      <trkpt lat="41.625101780" lon="2.489745090">
        <ele>518.20</ele>
        <time>2014-02-23T08:53:43Z</time>
      </trkpt>
      <trkpt lat="41.625113350" lon="2.489720110">
        <ele>518.40</ele>
        <time>2014-02-23T08:53:44Z</time>
      </trkpt>
      <trkpt lat="41.625126760" lon="2.489700000">
        <ele>518.40</ele>
        <time>2014-02-23T08:53:45Z</time>
      </trkpt>
      <trkpt lat="41.625140010" lon="2.489680050">
        <ele>518.80</ele>
        <time>2014-02-23T08:53:46Z</time>
      </trkpt>
      <trkpt lat="41.625150060" lon="2.489661770">
        <ele>519.00</ele>
        <time>2014-02-23T08:53:47Z</time>
      </trkpt>
      <trkpt lat="41.625161800" lon="2.489640150">
        <ele>519.20</ele>
        <time>2014-02-23T08:53:48Z</time>
      </trkpt>
      <trkpt lat="41.625173370" lon="2.489621710">
        <ele>519.10</ele>
        <time>2014-02-23T08:53:49Z</time>
      </trkpt>
      <trkpt lat="41.625185100" lon="2.489600080">
        <ele>519.00</ele>
        <time>2014-02-23T08:53:50Z</time>
      </trkpt>
      <trkpt lat="41.625195160" lon="2.489576780">
        <ele>519.20</ele>
        <time>2014-02-23T08:53:51Z</time>
      </trkpt>
      <trkpt lat="41.625205050" lon="2.489550130">
        <ele>519.40</ele>
        <time>2014-02-23T08:53:52Z</time>
      </trkpt>
      <trkpt lat="41.625213430" lon="2.489525150">
        <ele>519.40</ele>
        <time>2014-02-23T08:53:53Z</time>
      </trkpt>
      <trkpt lat="41.625221810" lon="2.489498490">
        <ele>519.30</ele>
        <time>2014-02-23T08:53:54Z</time>
      </trkpt>
      <trkpt lat="41.625228350" lon="2.489471670">
        <ele>519.30</ele>
        <time>2014-02-23T08:53:55Z</time>
      </trkpt>
      <trkpt lat="41.625235060" lon="2.489445020">
        <ele>519.70</ele>
        <time>2014-02-23T08:53:56Z</time>
      </trkpt>
      <trkpt lat="41.625240090" lon="2.489415010">
        <ele>519.90</ele>
        <time>2014-02-23T08:53:57Z</time>
      </trkpt>
      <trkpt lat="41.625246790" lon="2.489388360">
        <ele>520.50</ele>
        <time>2014-02-23T08:53:58Z</time>
      </trkpt>
      <trkpt lat="41.625253330" lon="2.489363380">
        <ele>521.00</ele>
        <time>2014-02-23T08:53:59Z</time>
      </trkpt>
      <trkpt lat="41.625260040" lon="2.489338400">
        <ele>521.10</ele>
        <time>2014-02-23T08:54:00Z</time>
      </trkpt>
      <trkpt lat="41.625263390" lon="2.489311750">
        <ele>521.20</ele>
        <time>2014-02-23T08:54:01Z</time>
      </trkpt>
      <trkpt lat="41.625270090" lon="2.489285090">
        <ele>521.20</ele>
        <time>2014-02-23T08:54:02Z</time>
      </trkpt>
      <trkpt lat="41.625278480" lon="2.489260110">
        <ele>521.40</ele>
        <time>2014-02-23T08:54:03Z</time>
      </trkpt>
      <trkpt lat="41.625283340" lon="2.489231780">
        <ele>521.50</ele>
        <time>2014-02-23T08:54:04Z</time>
      </trkpt>
      <trkpt lat="41.625291720" lon="2.489205130">
        <ele>521.50</ele>
        <time>2014-02-23T08:54:05Z</time>
      </trkpt>
      <trkpt lat="41.625300100" lon="2.489176800">
        <ele>521.50</ele>
        <time>2014-02-23T08:54:06Z</time>
      </trkpt>
      <trkpt lat="41.625306810" lon="2.489146790">
        <ele>521.50</ele>
        <time>2014-02-23T08:54:07Z</time>
      </trkpt>
      <trkpt lat="41.625315020" lon="2.489118460">
        <ele>521.80</ele>
        <time>2014-02-23T08:54:08Z</time>
      </trkpt>
      <trkpt lat="41.625323400" lon="2.489088450">
        <ele>522.00</ele>
        <time>2014-02-23T08:54:09Z</time>
      </trkpt>
      <trkpt lat="41.625331780" lon="2.489060120">
        <ele>522.40</ele>
        <time>2014-02-23T08:54:10Z</time>
      </trkpt>
      <trkpt lat="41.625340000" lon="2.489030110">
        <ele>522.70</ele>
        <time>2014-02-23T08:54:11Z</time>
      </trkpt>
      <trkpt lat="41.625350060" lon="2.489001780">
        <ele>523.00</ele>
        <time>2014-02-23T08:54:12Z</time>
      </trkpt>
      <trkpt lat="41.625358440" lon="2.488975130">
        <ele>523.20</ele>
        <time>2014-02-23T08:54:13Z</time>
      </trkpt>
      <trkpt lat="41.625366820" lon="2.488946800">
        <ele>523.40</ele>
        <time>2014-02-23T08:54:14Z</time>
      </trkpt>
      <trkpt lat="41.625376710" lon="2.488920140">
        <ele>523.30</ele>
        <time>2014-02-23T08:54:15Z</time>
      </trkpt>
      <trkpt lat="41.625385090" lon="2.488891810">
        <ele>523.10</ele>
        <time>2014-02-23T08:54:16Z</time>
      </trkpt>
      <trkpt lat="41.625393480" lon="2.488865160">
        <ele>523.20</ele>
        <time>2014-02-23T08:54:17Z</time>
      </trkpt>
      <trkpt lat="41.625403370" lon="2.488840010">
        <ele>523.20</ele>
        <time>2014-02-23T08:54:18Z</time>
      </trkpt>
      <trkpt lat="41.625413420" lon="2.488815030">
        <ele>523.50</ele>
        <time>2014-02-23T08:54:19Z</time>
      </trkpt>
      <trkpt lat="41.625425160" lon="2.488791730">
        <ele>523.70</ele>
        <time>2014-02-23T08:54:20Z</time>
      </trkpt>
      <trkpt lat="41.625435050" lon="2.488766750">
        <ele>523.90</ele>
        <time>2014-02-23T08:54:21Z</time>
      </trkpt>
      <trkpt lat="41.625445110" lon="2.488743450">
        <ele>524.00</ele>
        <time>2014-02-23T08:54:22Z</time>
      </trkpt>
      <trkpt lat="41.625456670" lon="2.488721830">
        <ele>524.00</ele>
        <time>2014-02-23T08:54:23Z</time>
      </trkpt>
      <trkpt lat="41.625468410" lon="2.488701710">
        <ele>524.70</ele>
        <time>2014-02-23T08:54:24Z</time>
      </trkpt>
      <trkpt lat="41.625480140" lon="2.488681760">
        <ele>525.30</ele>
        <time>2014-02-23T08:54:25Z</time>
      </trkpt>
      <trkpt lat="41.625491710" lon="2.488661810">
        <ele>525.60</ele>
        <time>2014-02-23T08:54:26Z</time>
      </trkpt>
      <trkpt lat="41.625503450" lon="2.488643370">
        <ele>525.80</ele>
        <time>2014-02-23T08:54:27Z</time>
      </trkpt>
      <trkpt lat="41.625516690" lon="2.488626780">
        <ele>525.90</ele>
        <time>2014-02-23T08:54:28Z</time>
      </trkpt>
      <trkpt lat="41.625530100" lon="2.488610010">
        <ele>526.10</ele>
        <time>2014-02-23T08:54:29Z</time>
      </trkpt>
      <trkpt lat="41.625546700" lon="2.488591740">
        <ele>526.20</ele>
        <time>2014-02-23T08:54:30Z</time>
      </trkpt>
      <trkpt lat="41.625561780" lon="2.488575140">
        <ele>526.70</ele>
        <time>2014-02-23T08:54:31Z</time>
      </trkpt>
      <trkpt lat="41.625575030" lon="2.488556700">
        <ele>527.00</ele>
        <time>2014-02-23T08:54:32Z</time>
      </trkpt>
      <trkpt lat="41.625588440" lon="2.488545140">
        <ele>527.30</ele>
        <time>2014-02-23T08:54:33Z</time>
      </trkpt>
      <trkpt lat="41.625603360" lon="2.488533400">
        <ele>527.60</ele>
        <time>2014-02-23T08:54:34Z</time>
      </trkpt>
      <trkpt lat="41.625616770" lon="2.488520160">
        <ele>527.90</ele>
        <time>2014-02-23T08:54:35Z</time>
      </trkpt>
      <trkpt lat="41.625631690" lon="2.488505070">
        <ele>527.90</ele>
        <time>2014-02-23T08:54:36Z</time>
      </trkpt>
      <trkpt lat="41.625645100" lon="2.488490150">
        <ele>527.90</ele>
        <time>2014-02-23T08:54:37Z</time>
      </trkpt>
      <trkpt lat="41.625658340" lon="2.488473390">
        <ele>528.20</ele>
        <time>2014-02-23T08:54:38Z</time>
      </trkpt>
      <trkpt lat="41.625671750" lon="2.488455120">
        <ele>528.50</ele>
        <time>2014-02-23T08:54:39Z</time>
      </trkpt>
      <trkpt lat="41.625683490" lon="2.488435000">
        <ele>528.70</ele>
        <time>2014-02-23T08:54:40Z</time>
      </trkpt>
      <trkpt lat="41.625693380" lon="2.488415050">
        <ele>528.90</ele>
        <time>2014-02-23T08:54:41Z</time>
      </trkpt>
      <trkpt lat="41.625703440" lon="2.488395100">
        <ele>529.20</ele>
        <time>2014-02-23T08:54:42Z</time>
      </trkpt>
      <trkpt lat="41.625715000" lon="2.488376830">
        <ele>529.50</ele>
        <time>2014-02-23T08:54:43Z</time>
      </trkpt>
      <trkpt lat="41.625723390" lon="2.488356710">
        <ele>529.70</ele>
        <time>2014-02-23T08:54:44Z</time>
      </trkpt>
      <trkpt lat="41.625728420" lon="2.488335090">
        <ele>529.90</ele>
        <time>2014-02-23T08:54:45Z</time>
      </trkpt>
      <trkpt lat="41.625730090" lon="2.488313460">
        <ele>530.30</ele>
        <time>2014-02-23T08:54:46Z</time>
      </trkpt>
      <trkpt lat="41.625733450" lon="2.488291670">
        <ele>530.70</ele>
        <time>2014-02-23T08:54:47Z</time>
      </trkpt>
      <trkpt lat="41.625736800" lon="2.488270040">
        <ele>531.00</ele>
        <time>2014-02-23T08:54:48Z</time>
      </trkpt>
      <trkpt lat="41.625736800" lon="2.488245060">
        <ele>531.20</ele>
        <time>2014-02-23T08:54:49Z</time>
      </trkpt>
      <trkpt lat="41.625736800" lon="2.488223440">
        <ele>531.50</ele>
        <time>2014-02-23T08:54:50Z</time>
      </trkpt>
      <trkpt lat="41.625735120" lon="2.488201810">
        <ele>531.70</ele>
        <time>2014-02-23T08:54:51Z</time>
      </trkpt>
      <trkpt lat="41.625735120" lon="2.488178350">
        <ele>531.90</ele>
        <time>2014-02-23T08:54:52Z</time>
      </trkpt>
      <trkpt lat="41.625731770" lon="2.488160070">
        <ele>531.80</ele>
        <time>2014-02-23T08:54:53Z</time>
      </trkpt>
      <trkpt lat="41.625725060" lon="2.488141800">
        <ele>531.80</ele>
        <time>2014-02-23T08:54:54Z</time>
      </trkpt>
      <trkpt lat="41.625721710" lon="2.488123360">
        <ele>532.30</ele>
        <time>2014-02-23T08:54:55Z</time>
      </trkpt>
      <trkpt lat="41.625720030" lon="2.488105090">
        <ele>532.70</ele>
        <time>2014-02-23T08:54:56Z</time>
      </trkpt>
      <trkpt lat="41.625715000" lon="2.488083460">
        <ele>533.20</ele>
        <time>2014-02-23T08:54:57Z</time>
      </trkpt>
      <trkpt lat="41.625711820" lon="2.488063350">
        <ele>533.60</ele>
        <time>2014-02-23T08:54:58Z</time>
      </trkpt>
      <trkpt lat="41.625708470" lon="2.488043400">
        <ele>533.80</ele>
        <time>2014-02-23T08:54:59Z</time>
      </trkpt>
      <trkpt lat="41.625703440" lon="2.488021770">
        <ele>534.00</ele>
        <time>2014-02-23T08:55:00Z</time>
      </trkpt>
      <trkpt lat="41.625698410" lon="2.488001820">
        <ele>534.10</ele>
        <time>2014-02-23T08:55:01Z</time>
      </trkpt>
      <trkpt lat="41.625691700" lon="2.487981710">
        <ele>534.10</ele>
        <time>2014-02-23T08:55:02Z</time>
      </trkpt>
      <trkpt lat="41.625685000" lon="2.487961760">
        <ele>534.10</ele>
        <time>2014-02-23T08:55:03Z</time>
      </trkpt>
      <trkpt lat="41.625680140" lon="2.487941810">
        <ele>534.20</ele>
        <time>2014-02-23T08:55:04Z</time>
      </trkpt>
      <trkpt lat="41.625670080" lon="2.487925040">
        <ele>534.30</ele>
        <time>2014-02-23T08:55:05Z</time>
      </trkpt>
      <trkpt lat="41.625661700" lon="2.487906770">
        <ele>534.50</ele>
        <time>2014-02-23T08:55:06Z</time>
      </trkpt>
      <trkpt lat="41.625651810" lon="2.487885150">
        <ele>534.40</ele>
        <time>2014-02-23T08:55:07Z</time>
      </trkpt>
      <trkpt lat="41.625643420" lon="2.487863350">
        <ele>534.40</ele>
        <time>2014-02-23T08:55:08Z</time>
      </trkpt>
      <trkpt lat="41.625633370" lon="2.487845080">
        <ele>534.70</ele>
        <time>2014-02-23T08:55:09Z</time>
      </trkpt>
      <trkpt lat="41.625620120" lon="2.487826810">
        <ele>534.90</ele>
        <time>2014-02-23T08:55:10Z</time>
      </trkpt>
      <trkpt lat="41.625608390" lon="2.487810040">
        <ele>535.10</ele>
        <time>2014-02-23T08:55:11Z</time>
      </trkpt>
      <trkpt lat="41.625595140" lon="2.487795120">
        <ele>535.20</ele>
        <time>2014-02-23T08:55:12Z</time>
      </trkpt>
      <trkpt lat="41.625581730" lon="2.487778360">
        <ele>535.30</ele>
        <time>2014-02-23T08:55:13Z</time>
      </trkpt>
      <trkpt lat="41.625568490" lon="2.487761760">
        <ele>535.50</ele>
        <time>2014-02-23T08:55:14Z</time>
      </trkpt>
      <trkpt lat="41.625556750" lon="2.487745000">
        <ele>535.70</ele>
        <time>2014-02-23T08:55:15Z</time>
      </trkpt>
      <trkpt lat="41.625545020" lon="2.487726730">
        <ele>535.90</ele>
        <time>2014-02-23T08:55:16Z</time>
      </trkpt>
      <trkpt lat="41.625531780" lon="2.487710130">
        <ele>536.00</ele>
        <time>2014-02-23T08:55:17Z</time>
      </trkpt>
      <trkpt lat="41.625516690" lon="2.487690020">
        <ele>536.10</ele>
        <time>2014-02-23T08:55:18Z</time>
      </trkpt>
      <trkpt lat="41.625501770" lon="2.487673420">
        <ele>536.30</ele>
        <time>2014-02-23T08:55:19Z</time>
      </trkpt>
      <trkpt lat="41.625485010" lon="2.487655150">
        <ele>536.40</ele>
        <time>2014-02-23T08:55:20Z</time>
      </trkpt>
      <trkpt lat="41.625468410" lon="2.487636710">
        <ele>536.70</ele>
        <time>2014-02-23T08:55:21Z</time>
      </trkpt>
      <trkpt lat="41.625451810" lon="2.487616760">
        <ele>536.80</ele>
        <time>2014-02-23T08:55:22Z</time>
      </trkpt>
      <trkpt lat="41.625435050" lon="2.487598480">
        <ele>536.70</ele>
        <time>2014-02-23T08:55:23Z</time>
      </trkpt>
      <trkpt lat="41.625418450" lon="2.487578370">
        <ele>536.70</ele>
        <time>2014-02-23T08:55:24Z</time>
      </trkpt>
      <trkpt lat="41.625401690" lon="2.487560100">
        <ele>536.60</ele>
        <time>2014-02-23T08:55:25Z</time>
      </trkpt>
      <trkpt lat="41.625383420" lon="2.487543330">
        <ele>536.70</ele>
        <time>2014-02-23T08:55:26Z</time>
      </trkpt>
      <trkpt lat="41.625365140" lon="2.487523380">
        <ele>536.80</ele>
        <time>2014-02-23T08:55:27Z</time>
      </trkpt>
      <trkpt lat="41.625346700" lon="2.487505110">
        <ele>536.80</ele>
        <time>2014-02-23T08:55:28Z</time>
      </trkpt>
      <trkpt lat="41.625326760" lon="2.487485160">
        <ele>536.80</ele>
        <time>2014-02-23T08:55:29Z</time>
      </trkpt>
      <trkpt lat="41.625306810" lon="2.487465050">
        <ele>536.80</ele>
        <time>2014-02-23T08:55:30Z</time>
      </trkpt>
      <trkpt lat="41.625288370" lon="2.487445100">
        <ele>536.60</ele>
        <time>2014-02-23T08:55:31Z</time>
      </trkpt>
      <trkpt lat="41.625266740" lon="2.487426820">
        <ele>536.40</ele>
        <time>2014-02-23T08:55:32Z</time>
      </trkpt>
      <trkpt lat="41.625245120" lon="2.487410060">
        <ele>536.80</ele>
        <time>2014-02-23T08:55:33Z</time>
      </trkpt>
      <trkpt lat="41.625223490" lon="2.487393460">
        <ele>537.10</ele>
        <time>2014-02-23T08:55:34Z</time>
      </trkpt>
      <trkpt lat="41.625201700" lon="2.487376700">
        <ele>537.10</ele>
        <time>2014-02-23T08:55:35Z</time>
      </trkpt>
      <trkpt lat="41.625180070" lon="2.487358430">
        <ele>537.10</ele>
        <time>2014-02-23T08:55:36Z</time>
      </trkpt>
      <trkpt lat="41.625158450" lon="2.487343340">
        <ele>537.10</ele>
        <time>2014-02-23T08:55:37Z</time>
      </trkpt>
      <trkpt lat="41.625136820" lon="2.487325070">
        <ele>537.30</ele>
        <time>2014-02-23T08:55:38Z</time>
      </trkpt>
      <trkpt lat="41.625113350" lon="2.487310150">
        <ele>537.40</ele>
        <time>2014-02-23T08:55:39Z</time>
      </trkpt>
      <trkpt lat="41.625090050" lon="2.487293380">
        <ele>537.10</ele>
        <time>2014-02-23T08:55:40Z</time>
      </trkpt>
      <trkpt lat="41.625066750" lon="2.487275110">
        <ele>536.90</ele>
        <time>2014-02-23T08:55:41Z</time>
      </trkpt>
      <trkpt lat="41.625041770" lon="2.487255160">
        <ele>537.10</ele>
        <time>2014-02-23T08:55:42Z</time>
      </trkpt>
      <trkpt lat="41.625020150" lon="2.487235050">
        <ele>537.30</ele>
        <time>2014-02-23T08:55:43Z</time>
      </trkpt>
      <trkpt lat="41.624998350" lon="2.487215100">
        <ele>537.50</ele>
        <time>2014-02-23T08:55:44Z</time>
      </trkpt>
      <trkpt lat="41.624978400" lon="2.487198330">
        <ele>537.50</ele>
        <time>2014-02-23T08:55:45Z</time>
      </trkpt>
      <trkpt lat="41.624958450" lon="2.487183410">
        <ele>537.50</ele>
        <time>2014-02-23T08:55:46Z</time>
      </trkpt>
      <trkpt lat="41.624940010" lon="2.487166820">
        <ele>538.00</ele>
        <time>2014-02-23T08:55:47Z</time>
      </trkpt>
      <trkpt lat="41.624923420" lon="2.487148380">
        <ele>538.30</ele>
        <time>2014-02-23T08:55:48Z</time>
      </trkpt>
      <trkpt lat="41.624906820" lon="2.487128430">
        <ele>538.60</ele>
        <time>2014-02-23T08:55:49Z</time>
      </trkpt>
      <trkpt lat="41.624895090" lon="2.487106800">
        <ele>538.30</ele>
        <time>2014-02-23T08:55:50Z</time>
      </trkpt>
      <trkpt lat="41.624885030" lon="2.487085010">
        <ele>538.20</ele>
        <time>2014-02-23T08:55:51Z</time>
      </trkpt>
      <trkpt lat="41.624876810" lon="2.487063380">
        <ele>538.40</ele>
        <time>2014-02-23T08:55:52Z</time>
      </trkpt>
      <trkpt lat="41.624868430" lon="2.487040080">
        <ele>538.60</ele>
        <time>2014-02-23T08:55:53Z</time>
      </trkpt>
      <trkpt lat="41.624861730" lon="2.487016780">
        <ele>539.10</ele>
        <time>2014-02-23T08:55:54Z</time>
      </trkpt>
      <trkpt lat="41.624858370" lon="2.486996660">
        <ele>539.50</ele>
        <time>2014-02-23T08:55:55Z</time>
      </trkpt>
      <trkpt lat="41.624856700" lon="2.486976720">
        <ele>539.80</ele>
        <time>2014-02-23T08:55:56Z</time>
      </trkpt>
      <trkpt lat="41.624855020" lon="2.486955090">
        <ele>540.20</ele>
        <time>2014-02-23T08:55:57Z</time>
      </trkpt>
      <trkpt lat="41.624855020" lon="2.486930110">
        <ele>540.50</ele>
        <time>2014-02-23T08:55:58Z</time>
      </trkpt>
      <trkpt lat="41.624856700" lon="2.486906810">
        <ele>540.40</ele>
        <time>2014-02-23T08:55:59Z</time>
      </trkpt>
      <trkpt lat="41.624858370" lon="2.486883340">
        <ele>540.30</ele>
        <time>2014-02-23T08:56:00Z</time>
      </trkpt>
      <trkpt lat="41.624858370" lon="2.486861720">
        <ele>540.60</ele>
        <time>2014-02-23T08:56:01Z</time>
      </trkpt>
      <trkpt lat="41.624860050" lon="2.486838410">
        <ele>540.80</ele>
        <time>2014-02-23T08:56:02Z</time>
      </trkpt>
      <trkpt lat="41.624863400" lon="2.486815110">
        <ele>540.90</ele>
        <time>2014-02-23T08:56:03Z</time>
      </trkpt>
      <trkpt lat="41.624865080" lon="2.486791810">
        <ele>541.10</ele>
        <time>2014-02-23T08:56:04Z</time>
      </trkpt>
      <trkpt lat="41.624870110" lon="2.486770020">
        <ele>541.20</ele>
        <time>2014-02-23T08:56:05Z</time>
      </trkpt>
      <trkpt lat="41.624873460" lon="2.486748390">
        <ele>541.40</ele>
        <time>2014-02-23T08:56:06Z</time>
      </trkpt>
      <trkpt lat="41.624875140" lon="2.486728440">
        <ele>541.60</ele>
        <time>2014-02-23T08:56:07Z</time>
      </trkpt>
      <trkpt lat="41.624876810" lon="2.486703470">
        <ele>541.80</ele>
        <time>2014-02-23T08:56:08Z</time>
      </trkpt>
      <trkpt lat="41.624878490" lon="2.486680000">
        <ele>541.80</ele>
        <time>2014-02-23T08:56:09Z</time>
      </trkpt>
      <trkpt lat="41.624880000" lon="2.486660050">
        <ele>541.90</ele>
        <time>2014-02-23T08:56:10Z</time>
      </trkpt>
      <trkpt lat="41.624880000" lon="2.486636750">
        <ele>542.50</ele>
        <time>2014-02-23T08:56:11Z</time>
      </trkpt>
      <trkpt lat="41.624878490" lon="2.486615120">
        <ele>542.90</ele>
        <time>2014-02-23T08:56:12Z</time>
      </trkpt>
      <trkpt lat="41.624878490" lon="2.486593490">
        <ele>543.10</ele>
        <time>2014-02-23T08:56:13Z</time>
      </trkpt>
      <trkpt lat="41.624876810" lon="2.486571700">
        <ele>543.20</ele>
        <time>2014-02-23T08:56:14Z</time>
      </trkpt>
      <trkpt lat="41.624875140" lon="2.486550080">
        <ele>543.30</ele>
        <time>2014-02-23T08:56:15Z</time>
      </trkpt>
      <trkpt lat="41.624873460" lon="2.486528450">
        <ele>543.50</ele>
        <time>2014-02-23T08:56:16Z</time>
      </trkpt>
      <trkpt lat="41.624871790" lon="2.486506830">
        <ele>543.60</ele>
        <time>2014-02-23T08:56:17Z</time>
      </trkpt>
      <trkpt lat="41.624870110" lon="2.486485030">
        <ele>543.70</ele>
        <time>2014-02-23T08:56:18Z</time>
      </trkpt>
      <trkpt lat="41.624868430" lon="2.486461730">
        <ele>543.70</ele>
        <time>2014-02-23T08:56:19Z</time>
      </trkpt>
      <trkpt lat="41.624868430" lon="2.486438430">
        <ele>544.20</ele>
        <time>2014-02-23T08:56:20Z</time>
      </trkpt>
      <trkpt lat="41.624868430" lon="2.486415130">
        <ele>544.60</ele>
        <time>2014-02-23T08:56:21Z</time>
      </trkpt>
      <trkpt lat="41.624866760" lon="2.486388470">
        <ele>544.80</ele>
        <time>2014-02-23T08:56:22Z</time>
      </trkpt>
      <trkpt lat="41.624870110" lon="2.486365000">
        <ele>545.60</ele>
        <time>2014-02-23T08:56:23Z</time>
      </trkpt>
      <trkpt lat="41.624871790" lon="2.486341700">
        <ele>546.20</ele>
        <time>2014-02-23T08:56:24Z</time>
      </trkpt>
      <trkpt lat="41.624871790" lon="2.486316720">
        <ele>546.20</ele>
        <time>2014-02-23T08:56:25Z</time>
      </trkpt>
      <trkpt lat="41.624875140" lon="2.486293420">
        <ele>546.30</ele>
        <time>2014-02-23T08:56:26Z</time>
      </trkpt>
      <trkpt lat="41.624880000" lon="2.486270120">
        <ele>546.30</ele>
        <time>2014-02-23T08:56:27Z</time>
      </trkpt>
      <trkpt lat="41.624885030" lon="2.486246820">
        <ele>546.70</ele>
        <time>2014-02-23T08:56:28Z</time>
      </trkpt>
      <trkpt lat="41.624888380" lon="2.486221670">
        <ele>547.10</ele>
        <time>2014-02-23T08:56:29Z</time>
      </trkpt>
      <trkpt lat="41.624888380" lon="2.486198370">
        <ele>547.20</ele>
        <time>2014-02-23T08:56:30Z</time>
      </trkpt>
      <trkpt lat="41.624886710" lon="2.486175070">
        <ele>547.30</ele>
        <time>2014-02-23T08:56:31Z</time>
      </trkpt>
      <trkpt lat="41.624885030" lon="2.486151770">
        <ele>547.60</ele>
        <time>2014-02-23T08:56:32Z</time>
      </trkpt>
      <trkpt lat="41.624885030" lon="2.486130140">
        <ele>547.90</ele>
        <time>2014-02-23T08:56:33Z</time>
      </trkpt>
      <trkpt lat="41.624883350" lon="2.486108350">
        <ele>548.10</ele>
        <time>2014-02-23T08:56:34Z</time>
      </trkpt>
      <trkpt lat="41.624885030" lon="2.486086720">
        <ele>548.50</ele>
        <time>2014-02-23T08:56:35Z</time>
      </trkpt>
      <trkpt lat="41.624886710" lon="2.486068450">
        <ele>548.80</ele>
        <time>2014-02-23T08:56:36Z</time>
      </trkpt>
      <trkpt lat="41.624888380" lon="2.486048340">
        <ele>549.40</ele>
        <time>2014-02-23T08:56:37Z</time>
      </trkpt>
      <trkpt lat="41.624890060" lon="2.486026710">
        <ele>549.80</ele>
        <time>2014-02-23T08:56:38Z</time>
      </trkpt>
      <trkpt lat="41.624890060" lon="2.486006760">
        <ele>550.30</ele>
        <time>2014-02-23T08:56:39Z</time>
      </trkpt>
      <trkpt lat="41.624890060" lon="2.485986810">
        <ele>550.70</ele>
        <time>2014-02-23T08:56:40Z</time>
      </trkpt>
      <trkpt lat="41.624890060" lon="2.485966700">
        <ele>551.00</ele>
        <time>2014-02-23T08:56:41Z</time>
      </trkpt>
      <trkpt lat="41.624888380" lon="2.485945070">
        <ele>551.50</ele>
        <time>2014-02-23T08:56:42Z</time>
      </trkpt>
      <trkpt lat="41.624888380" lon="2.485925120">
        <ele>551.90</ele>
        <time>2014-02-23T08:56:43Z</time>
      </trkpt>
      <trkpt lat="41.624886710" lon="2.485905010">
        <ele>552.20</ele>
        <time>2014-02-23T08:56:44Z</time>
      </trkpt>
      <trkpt lat="41.624885030" lon="2.485886730">
        <ele>552.40</ele>
        <time>2014-02-23T08:56:45Z</time>
      </trkpt>
      <trkpt lat="41.624885030" lon="2.485866780">
        <ele>552.60</ele>
        <time>2014-02-23T08:56:46Z</time>
      </trkpt>
      <trkpt lat="41.624885030" lon="2.485843480">
        <ele>552.60</ele>
        <time>2014-02-23T08:56:47Z</time>
      </trkpt>
      <trkpt lat="41.624885030" lon="2.485823370">
        <ele>552.50</ele>
        <time>2014-02-23T08:56:48Z</time>
      </trkpt>
      <trkpt lat="41.624885030" lon="2.485801740">
        <ele>552.90</ele>
        <time>2014-02-23T08:56:49Z</time>
      </trkpt>
      <trkpt lat="41.624888380" lon="2.485785140">
        <ele>553.20</ele>
        <time>2014-02-23T08:56:50Z</time>
      </trkpt>
      <trkpt lat="41.624890060" lon="2.485765030">
        <ele>553.40</ele>
        <time>2014-02-23T08:56:51Z</time>
      </trkpt>
      <trkpt lat="41.624893410" lon="2.485746750">
        <ele>553.50</ele>
        <time>2014-02-23T08:56:52Z</time>
      </trkpt>
      <trkpt lat="41.624893410" lon="2.485726810">
        <ele>553.70</ele>
        <time>2014-02-23T08:56:53Z</time>
      </trkpt>
      <trkpt lat="41.624895090" lon="2.485706690">
        <ele>554.10</ele>
        <time>2014-02-23T08:56:54Z</time>
      </trkpt>
      <trkpt lat="41.624898440" lon="2.485686740">
        <ele>554.40</ele>
        <time>2014-02-23T08:56:55Z</time>
      </trkpt>
      <trkpt lat="41.624900120" lon="2.485666790">
        <ele>554.60</ele>
        <time>2014-02-23T08:56:56Z</time>
      </trkpt>
      <trkpt lat="41.624905150" lon="2.485646670">
        <ele>554.70</ele>
        <time>2014-02-23T08:56:57Z</time>
      </trkpt>
      <trkpt lat="41.624906820" lon="2.485626730">
        <ele>555.00</ele>
        <time>2014-02-23T08:56:58Z</time>
      </trkpt>
      <trkpt lat="41.624908330" lon="2.485605100">
        <ele>555.20</ele>
        <time>2014-02-23T08:56:59Z</time>
      </trkpt>
      <trkpt lat="41.624913360" lon="2.485583480">
        <ele>555.40</ele>
        <time>2014-02-23T08:57:00Z</time>
      </trkpt>
      <trkpt lat="41.624916710" lon="2.485563360">
        <ele>555.60</ele>
        <time>2014-02-23T08:57:01Z</time>
      </trkpt>
      <trkpt lat="41.624921740" lon="2.485543410">
        <ele>555.70</ele>
        <time>2014-02-23T08:57:02Z</time>
      </trkpt>
      <trkpt lat="41.624925090" lon="2.485521780">
        <ele>555.60</ele>
        <time>2014-02-23T08:57:03Z</time>
      </trkpt>
      <trkpt lat="41.624926770" lon="2.485500160">
        <ele>555.60</ele>
        <time>2014-02-23T08:57:04Z</time>
      </trkpt>
      <trkpt lat="41.624928450" lon="2.485480040">
        <ele>555.60</ele>
        <time>2014-02-23T08:57:05Z</time>
      </trkpt>
      <trkpt lat="41.624928450" lon="2.485458420">
        <ele>556.00</ele>
        <time>2014-02-23T08:57:06Z</time>
      </trkpt>
      <trkpt lat="41.624931800" lon="2.485438470">
        <ele>556.30</ele>
        <time>2014-02-23T08:57:07Z</time>
      </trkpt>
      <trkpt lat="41.624935150" lon="2.485418350">
        <ele>556.70</ele>
        <time>2014-02-23T08:57:08Z</time>
      </trkpt>
      <trkpt lat="41.624936830" lon="2.485396730">
        <ele>557.00</ele>
        <time>2014-02-23T08:57:09Z</time>
      </trkpt>
      <trkpt lat="41.624938340" lon="2.485376780">
        <ele>557.10</ele>
        <time>2014-02-23T08:57:10Z</time>
      </trkpt>
      <trkpt lat="41.624940010" lon="2.485356830">
        <ele>557.30</ele>
        <time>2014-02-23T08:57:11Z</time>
      </trkpt>
      <trkpt lat="41.624941690" lon="2.485336710">
        <ele>557.40</ele>
        <time>2014-02-23T08:57:12Z</time>
      </trkpt>
      <trkpt lat="41.624943370" lon="2.485313410">
        <ele>557.80</ele>
        <time>2014-02-23T08:57:13Z</time>
      </trkpt>
      <trkpt lat="41.624948400" lon="2.485291790">
        <ele>558.20</ele>
        <time>2014-02-23T08:57:14Z</time>
      </trkpt>
      <trkpt lat="41.624951750" lon="2.485268480">
        <ele>558.10</ele>
        <time>2014-02-23T08:57:15Z</time>
      </trkpt>
      <trkpt lat="41.624955100" lon="2.485245010">
        <ele>558.00</ele>
        <time>2014-02-23T08:57:16Z</time>
      </trkpt>
      <trkpt lat="41.624958450" lon="2.485225070">
        <ele>558.70</ele>
        <time>2014-02-23T08:57:17Z</time>
      </trkpt>
      <trkpt lat="41.624963480" lon="2.485203440">
        <ele>559.20</ele>
        <time>2014-02-23T08:57:18Z</time>
      </trkpt>
      <trkpt lat="41.624966670" lon="2.485180140">
        <ele>559.60</ele>
        <time>2014-02-23T08:57:19Z</time>
      </trkpt>
      <trkpt lat="41.624971700" lon="2.485155160">
        <ele>559.80</ele>
        <time>2014-02-23T08:57:20Z</time>
      </trkpt>
      <trkpt lat="41.624980080" lon="2.485131690">
        <ele>559.90</ele>
        <time>2014-02-23T08:57:21Z</time>
      </trkpt>
      <trkpt lat="41.624985110" lon="2.485105040">
        <ele>560.00</ele>
        <time>2014-02-23T08:57:22Z</time>
      </trkpt>
      <trkpt lat="41.624991810" lon="2.485080060">
        <ele>560.00</ele>
        <time>2014-02-23T08:57:23Z</time>
      </trkpt>
      <trkpt lat="41.624998350" lon="2.485051730">
        <ele>560.00</ele>
        <time>2014-02-23T08:57:24Z</time>
      </trkpt>
      <trkpt lat="41.625005060" lon="2.485023400">
        <ele>559.90</ele>
        <time>2014-02-23T08:57:25Z</time>
      </trkpt>
      <trkpt lat="41.625011760" lon="2.484995070">
        <ele>559.70</ele>
        <time>2014-02-23T08:57:26Z</time>
      </trkpt>
      <trkpt lat="41.625018470" lon="2.484968410">
        <ele>559.90</ele>
        <time>2014-02-23T08:57:27Z</time>
      </trkpt>
      <trkpt lat="41.625025010" lon="2.484938400">
        <ele>560.00</ele>
        <time>2014-02-23T08:57:28Z</time>
      </trkpt>
      <trkpt lat="41.625031710" lon="2.484903370">
        <ele>560.20</ele>
        <time>2014-02-23T08:57:29Z</time>
      </trkpt>
      <trkpt lat="41.625036740" lon="2.484868330">
        <ele>560.30</ele>
        <time>2014-02-23T08:57:30Z</time>
      </trkpt>
      <trkpt lat="41.625038420" lon="2.484831790">
        <ele>560.40</ele>
        <time>2014-02-23T08:57:31Z</time>
      </trkpt>
      <trkpt lat="41.625038420" lon="2.484796750">
        <ele>560.40</ele>
        <time>2014-02-23T08:57:32Z</time>
      </trkpt>
      <trkpt lat="41.625036740" lon="2.484763390">
        <ele>560.40</ele>
        <time>2014-02-23T08:57:33Z</time>
      </trkpt>
      <trkpt lat="41.625033390" lon="2.484736740">
        <ele>560.30</ele>
        <time>2014-02-23T08:57:34Z</time>
      </trkpt>
      <trkpt lat="41.625031710" lon="2.484710080">
        <ele>560.30</ele>
        <time>2014-02-23T08:57:35Z</time>
      </trkpt>
      <trkpt lat="41.625030040" lon="2.484683430">
        <ele>560.30</ele>
        <time>2014-02-23T08:57:36Z</time>
      </trkpt>
      <trkpt lat="41.625028360" lon="2.484655100">
        <ele>560.30</ele>
        <time>2014-02-23T08:57:37Z</time>
      </trkpt>
      <trkpt lat="41.625025010" lon="2.484630120">
        <ele>560.30</ele>
        <time>2014-02-23T08:57:38Z</time>
      </trkpt>
      <trkpt lat="41.625020150" lon="2.484603460">
        <ele>560.70</ele>
        <time>2014-02-23T08:57:39Z</time>
      </trkpt>
      <trkpt lat="41.625018470" lon="2.484578490">
        <ele>560.90</ele>
        <time>2014-02-23T08:57:40Z</time>
      </trkpt>
      <trkpt lat="41.625018470" lon="2.484551660">
        <ele>560.70</ele>
        <time>2014-02-23T08:57:41Z</time>
      </trkpt>
      <trkpt lat="41.625018470" lon="2.484528360">
        <ele>560.50</ele>
        <time>2014-02-23T08:57:42Z</time>
      </trkpt>
      <trkpt lat="41.625023330" lon="2.484503380">
        <ele>560.80</ele>
        <time>2014-02-23T08:57:43Z</time>
      </trkpt>
      <trkpt lat="41.625026680" lon="2.484480080">
        <ele>561.00</ele>
        <time>2014-02-23T08:57:44Z</time>
      </trkpt>
      <trkpt lat="41.625033390" lon="2.484458460">
        <ele>561.10</ele>
        <time>2014-02-23T08:57:45Z</time>
      </trkpt>
      <trkpt lat="41.625038420" lon="2.484436660">
        <ele>561.40</ele>
        <time>2014-02-23T08:57:46Z</time>
      </trkpt>
      <trkpt lat="41.625043450" lon="2.484413360">
        <ele>561.50</ele>
        <time>2014-02-23T08:57:47Z</time>
      </trkpt>
      <trkpt lat="41.625050150" lon="2.484391740">
        <ele>561.90</ele>
        <time>2014-02-23T08:57:48Z</time>
      </trkpt>
      <trkpt lat="41.625058370" lon="2.484370110">
        <ele>562.20</ele>
        <time>2014-02-23T08:57:49Z</time>
      </trkpt>
      <trkpt lat="41.625066750" lon="2.484348490">
        <ele>562.40</ele>
        <time>2014-02-23T08:57:50Z</time>
      </trkpt>
      <trkpt lat="41.625075130" lon="2.484326690">
        <ele>562.10</ele>
        <time>2014-02-23T08:57:51Z</time>
      </trkpt>
      <trkpt lat="41.625083340" lon="2.484303390">
        <ele>561.90</ele>
        <time>2014-02-23T08:57:52Z</time>
      </trkpt>
      <trkpt lat="41.625091730" lon="2.484281770">
        <ele>562.20</ele>
        <time>2014-02-23T08:57:53Z</time>
      </trkpt>
      <trkpt lat="41.625100110" lon="2.484258460">
        <ele>562.40</ele>
        <time>2014-02-23T08:57:54Z</time>
      </trkpt>
      <trkpt lat="41.625108490" lon="2.484236670">
        <ele>562.20</ele>
        <time>2014-02-23T08:57:55Z</time>
      </trkpt>
      <trkpt lat="41.625116700" lon="2.484215050">
        <ele>562.00</ele>
        <time>2014-02-23T08:57:56Z</time>
      </trkpt>
      <trkpt lat="41.625121730" lon="2.484193420">
        <ele>561.90</ele>
        <time>2014-02-23T08:57:57Z</time>
      </trkpt>
      <trkpt lat="41.625125090" lon="2.484171800">
        <ele>562.20</ele>
        <time>2014-02-23T08:57:58Z</time>
      </trkpt>
      <trkpt lat="41.625125090" lon="2.484148490">
        <ele>562.30</ele>
        <time>2014-02-23T08:57:59Z</time>
      </trkpt>
      <trkpt lat="41.625126760" lon="2.484123350">
        <ele>562.40</ele>
        <time>2014-02-23T08:58:00Z</time>
      </trkpt>
      <trkpt lat="41.625128440" lon="2.484098370">
        <ele>562.50</ele>
        <time>2014-02-23T08:58:01Z</time>
      </trkpt>
      <trkpt lat="41.625130120" lon="2.484073390">
        <ele>562.70</ele>
        <time>2014-02-23T08:58:02Z</time>
      </trkpt>
      <trkpt lat="41.625133470" lon="2.484050090">
        <ele>562.90</ele>
        <time>2014-02-23T08:58:03Z</time>
      </trkpt>
      <trkpt lat="41.625136820" lon="2.484025110">
        <ele>563.10</ele>
        <time>2014-02-23T08:58:04Z</time>
      </trkpt>
      <trkpt lat="41.625141680" lon="2.484003490">
        <ele>563.30</ele>
        <time>2014-02-23T08:58:05Z</time>
      </trkpt>
      <trkpt lat="41.625150060" lon="2.483983370">
        <ele>563.50</ele>
        <time>2014-02-23T08:58:06Z</time>
      </trkpt>
      <trkpt lat="41.625160120" lon="2.483963420">
        <ele>563.90</ele>
        <time>2014-02-23T08:58:07Z</time>
      </trkpt>
      <trkpt lat="41.625171690" lon="2.483946830">
        <ele>564.10</ele>
        <time>2014-02-23T08:58:08Z</time>
      </trkpt>
      <trkpt lat="41.625185100" lon="2.483935090">
        <ele>564.30</ele>
        <time>2014-02-23T08:58:09Z</time>
      </trkpt>
      <trkpt lat="41.625200020" lon="2.483931740">
        <ele>564.40</ele>
        <time>2014-02-23T08:58:10Z</time>
      </trkpt>
      <trkpt lat="41.625213430" lon="2.483931740">
        <ele>564.50</ele>
        <time>2014-02-23T08:58:11Z</time>
      </trkpt>
      <trkpt lat="41.625226680" lon="2.483933410">
        <ele>564.80</ele>
        <time>2014-02-23T08:58:12Z</time>
      </trkpt>
      <trkpt lat="41.625238410" lon="2.483936770">
        <ele>565.00</ele>
        <time>2014-02-23T08:58:13Z</time>
      </trkpt>
      <trkpt lat="41.625250140" lon="2.483940120">
        <ele>565.20</ele>
        <time>2014-02-23T08:58:14Z</time>
      </trkpt>
      <trkpt lat="41.625261710" lon="2.483941800">
        <ele>565.20</ele>
        <time>2014-02-23T08:58:15Z</time>
      </trkpt>
      <trkpt lat="41.625275120" lon="2.483943470">
        <ele>565.30</ele>
        <time>2014-02-23T08:58:16Z</time>
      </trkpt>
      <trkpt lat="41.625286690" lon="2.483945150">
        <ele>565.70</ele>
        <time>2014-02-23T08:58:17Z</time>
      </trkpt>
      <trkpt lat="41.625300100" lon="2.483948330">
        <ele>565.90</ele>
        <time>2014-02-23T08:58:18Z</time>
      </trkpt>
      <trkpt lat="41.625313340" lon="2.483953360">
        <ele>566.40</ele>
        <time>2014-02-23T08:58:19Z</time>
      </trkpt>
      <trkpt lat="41.625325080" lon="2.483961740">
        <ele>566.70</ele>
        <time>2014-02-23T08:58:20Z</time>
      </trkpt>
      <trkpt lat="41.625336810" lon="2.483966770">
        <ele>567.00</ele>
        <time>2014-02-23T08:58:21Z</time>
      </trkpt>
      <trkpt lat="41.625350060" lon="2.483971800">
        <ele>567.20</ele>
        <time>2014-02-23T08:58:22Z</time>
      </trkpt>
      <trkpt lat="41.625363470" lon="2.483975160">
        <ele>567.40</ele>
        <time>2014-02-23T08:58:23Z</time>
      </trkpt>
      <trkpt lat="41.625376710" lon="2.483980020">
        <ele>567.70</ele>
        <time>2014-02-23T08:58:24Z</time>
      </trkpt>
      <trkpt lat="41.625388450" lon="2.483986720">
        <ele>567.90</ele>
        <time>2014-02-23T08:58:25Z</time>
      </trkpt>
      <trkpt lat="41.625401690" lon="2.483996780">
        <ele>568.20</ele>
        <time>2014-02-23T08:58:26Z</time>
      </trkpt>
      <trkpt lat="41.625415100" lon="2.484008350">
        <ele>568.50</ele>
        <time>2014-02-23T08:58:27Z</time>
      </trkpt>
      <trkpt lat="41.625425160" lon="2.484023440">
        <ele>568.60</ele>
        <time>2014-02-23T08:58:28Z</time>
      </trkpt>
      <trkpt lat="41.625433370" lon="2.484041710">
        <ele>568.70</ele>
        <time>2014-02-23T08:58:29Z</time>
      </trkpt>
      <trkpt lat="41.625441750" lon="2.484061820">
        <ele>568.70</ele>
        <time>2014-02-23T08:58:30Z</time>
      </trkpt>
      <trkpt lat="41.625446780" lon="2.484085130">
        <ele>568.80</ele>
        <time>2014-02-23T08:58:31Z</time>
      </trkpt>
      <trkpt lat="41.625450140" lon="2.484106750">
        <ele>568.80</ele>
        <time>2014-02-23T08:58:32Z</time>
      </trkpt>
      <trkpt lat="41.625450140" lon="2.484131730">
        <ele>569.00</ele>
        <time>2014-02-23T08:58:33Z</time>
      </trkpt>
      <trkpt lat="41.625448460" lon="2.484153360">
        <ele>569.10</ele>
        <time>2014-02-23T08:58:34Z</time>
      </trkpt>
      <trkpt lat="41.625445110" lon="2.484176820">
        <ele>569.20</ele>
        <time>2014-02-23T08:58:35Z</time>
      </trkpt>
      <trkpt lat="41.625440080" lon="2.484200130">
        <ele>569.20</ele>
        <time>2014-02-23T08:58:36Z</time>
      </trkpt>
      <trkpt lat="41.625431700" lon="2.484218400">
        <ele>569.20</ele>
        <time>2014-02-23T08:58:37Z</time>
      </trkpt>
      <trkpt lat="41.625423480" lon="2.484235160">
        <ele>568.90</ele>
        <time>2014-02-23T08:58:38Z</time>
      </trkpt>
      <trkpt lat="41.625413420" lon="2.484251760">
        <ele>568.70</ele>
        <time>2014-02-23T08:58:39Z</time>
      </trkpt>
      <trkpt lat="41.625401690" lon="2.484266680">
        <ele>568.50</ele>
        <time>2014-02-23T08:58:40Z</time>
      </trkpt>
      <trkpt lat="41.625391800" lon="2.484283440">
        <ele>568.50</ele>
        <time>2014-02-23T08:58:41Z</time>
      </trkpt>
      <trkpt lat="41.625378390" lon="2.484298360">
        <ele>568.50</ele>
        <time>2014-02-23T08:58:42Z</time>
      </trkpt>
      <trkpt lat="41.625365140" lon="2.484311770">
        <ele>568.70</ele>
        <time>2014-02-23T08:58:43Z</time>
      </trkpt>
      <trkpt lat="41.625351730" lon="2.484325020">
        <ele>568.90</ele>
        <time>2014-02-23T08:58:44Z</time>
      </trkpt>
      <trkpt lat="41.625338490" lon="2.484338430">
        <ele>568.90</ele>
        <time>2014-02-23T08:58:45Z</time>
      </trkpt>
      <trkpt lat="41.625323400" lon="2.484346810">
        <ele>569.00</ele>
        <time>2014-02-23T08:58:46Z</time>
      </trkpt>
      <trkpt lat="41.625308480" lon="2.484356700">
        <ele>569.00</ele>
        <time>2014-02-23T08:58:47Z</time>
      </trkpt>
      <trkpt lat="41.625291720" lon="2.484366760">
        <ele>569.50</ele>
        <time>2014-02-23T08:58:48Z</time>
      </trkpt>
      <trkpt lat="41.625276800" lon="2.484376820">
        <ele>569.90</ele>
        <time>2014-02-23T08:58:49Z</time>
      </trkpt>
      <trkpt lat="41.625263390" lon="2.484385030">
        <ele>570.00</ele>
        <time>2014-02-23T08:58:50Z</time>
      </trkpt>
      <trkpt lat="41.625250140" lon="2.484395090">
        <ele>570.00</ele>
        <time>2014-02-23T08:58:51Z</time>
      </trkpt>
      <trkpt lat="41.625240090" lon="2.484408330">
        <ele>570.40</ele>
        <time>2014-02-23T08:58:52Z</time>
      </trkpt>
      <trkpt lat="41.625231700" lon="2.484428450">
        <ele>570.70</ele>
        <time>2014-02-23T08:58:53Z</time>
      </trkpt>
      <trkpt lat="41.625225000" lon="2.484448400">
        <ele>570.90</ele>
        <time>2014-02-23T08:58:54Z</time>
      </trkpt>
      <trkpt lat="41.625223490" lon="2.484470020">
        <ele>571.30</ele>
        <time>2014-02-23T08:58:55Z</time>
      </trkpt>
      <trkpt lat="41.625223490" lon="2.484490140">
        <ele>571.50</ele>
        <time>2014-02-23T08:58:56Z</time>
      </trkpt>
      <trkpt lat="41.625230030" lon="2.484506740">
        <ele>571.70</ele>
        <time>2014-02-23T08:58:57Z</time>
      </trkpt>
      <trkpt lat="41.625241760" lon="2.484521820">
        <ele>571.90</ele>
        <time>2014-02-23T08:58:58Z</time>
      </trkpt>
      <trkpt lat="41.625255010" lon="2.484531710">
        <ele>572.30</ele>
        <time>2014-02-23T08:58:59Z</time>
      </trkpt>
      <trkpt lat="41.625268420" lon="2.484536740">
        <ele>572.70</ele>
        <time>2014-02-23T08:59:00Z</time>
      </trkpt>
      <trkpt lat="41.625281830" lon="2.484540100">
        <ele>572.90</ele>
        <time>2014-02-23T08:59:01Z</time>
      </trkpt>
      <trkpt lat="41.625296750" lon="2.484541770">
        <ele>572.70</ele>
        <time>2014-02-23T08:59:02Z</time>
      </trkpt>
      <trkpt lat="41.625311670" lon="2.484541770">
        <ele>572.60</ele>
        <time>2014-02-23T08:59:03Z</time>
      </trkpt>
      <trkpt lat="41.625325080" lon="2.484538420">
        <ele>572.70</ele>
        <time>2014-02-23T08:59:04Z</time>
      </trkpt>
      <trkpt lat="41.625341670" lon="2.484535070">
        <ele>572.90</ele>
        <time>2014-02-23T08:59:05Z</time>
      </trkpt>
      <trkpt lat="41.625358440" lon="2.484531710">
        <ele>573.00</ele>
        <time>2014-02-23T08:59:06Z</time>
      </trkpt>
      <trkpt lat="41.625371680" lon="2.484526690">
        <ele>573.20</ele>
        <time>2014-02-23T08:59:07Z</time>
      </trkpt>
      <trkpt lat="41.625385090" lon="2.484521820">
        <ele>573.30</ele>
        <time>2014-02-23T08:59:08Z</time>
      </trkpt>
      <trkpt lat="41.625400010" lon="2.484518470">
        <ele>573.40</ele>
        <time>2014-02-23T08:59:09Z</time>
      </trkpt>
      <trkpt lat="41.625415100" lon="2.484515120">
        <ele>573.50</ele>
        <time>2014-02-23T08:59:10Z</time>
      </trkpt>
      <trkpt lat="41.625430020" lon="2.484513440">
        <ele>573.80</ele>
        <time>2014-02-23T08:59:11Z</time>
      </trkpt>
      <trkpt lat="41.625445110" lon="2.484511770">
        <ele>574.10</ele>
        <time>2014-02-23T08:59:12Z</time>
      </trkpt>
      <trkpt lat="41.625461700" lon="2.484505060">
        <ele>574.30</ele>
        <time>2014-02-23T08:59:13Z</time>
      </trkpt>
      <trkpt lat="41.625475110" lon="2.484500030">
        <ele>574.50</ele>
        <time>2014-02-23T08:59:14Z</time>
      </trkpt>
      <trkpt lat="41.625486680" lon="2.484496680">
        <ele>574.70</ele>
        <time>2014-02-23T08:59:15Z</time>
      </trkpt>
      <trkpt lat="41.625501770" lon="2.484488460">
        <ele>574.80</ele>
        <time>2014-02-23T08:59:16Z</time>
      </trkpt>
      <trkpt lat="41.625515010" lon="2.484481760">
        <ele>574.90</ele>
        <time>2014-02-23T08:59:17Z</time>
      </trkpt>
      <trkpt lat="41.625526750" lon="2.484471700">
        <ele>575.00</ele>
        <time>2014-02-23T08:59:18Z</time>
      </trkpt>
      <trkpt lat="41.625540160" lon="2.484461810">
        <ele>575.20</ele>
        <time>2014-02-23T08:59:19Z</time>
      </trkpt>
      <trkpt lat="41.625555080" lon="2.484451750">
        <ele>575.30</ele>
        <time>2014-02-23T08:59:20Z</time>
      </trkpt>
      <trkpt lat="41.625568490" lon="2.484440020">
        <ele>575.70</ele>
        <time>2014-02-23T08:59:21Z</time>
      </trkpt>
      <trkpt lat="41.625583410" lon="2.484426770">
        <ele>576.00</ele>
        <time>2014-02-23T08:59:22Z</time>
      </trkpt>
      <trkpt lat="41.625596820" lon="2.484415040">
        <ele>576.30</ele>
        <time>2014-02-23T08:59:23Z</time>
      </trkpt>
      <trkpt lat="41.625611740" lon="2.484405150">
        <ele>576.50</ele>
        <time>2014-02-23T08:59:24Z</time>
      </trkpt>
      <trkpt lat="41.625626830" lon="2.484396770">
        <ele>576.60</ele>
        <time>2014-02-23T08:59:25Z</time>
      </trkpt>
      <trkpt lat="41.625641750" lon="2.484386710">
        <ele>576.90</ele>
        <time>2014-02-23T08:59:26Z</time>
      </trkpt>
      <trkpt lat="41.625656670" lon="2.484375140">
        <ele>577.10</ele>
        <time>2014-02-23T08:59:27Z</time>
      </trkpt>
      <trkpt lat="41.625673430" lon="2.484365080">
        <ele>577.30</ele>
        <time>2014-02-23T08:59:28Z</time>
      </trkpt>
      <trkpt lat="41.625690030" lon="2.484353350">
        <ele>577.50</ele>
        <time>2014-02-23T08:59:29Z</time>
      </trkpt>
      <trkpt lat="41.625706790" lon="2.484343460">
        <ele>577.50</ele>
        <time>2014-02-23T08:59:30Z</time>
      </trkpt>
      <trkpt lat="41.625721710" lon="2.484333400">
        <ele>577.60</ele>
        <time>2014-02-23T08:59:31Z</time>
      </trkpt>
      <trkpt lat="41.625738470" lon="2.484321660">
        <ele>577.70</ele>
        <time>2014-02-23T08:59:32Z</time>
      </trkpt>
      <trkpt lat="41.625753390" lon="2.484311770">
        <ele>577.80</ele>
        <time>2014-02-23T08:59:33Z</time>
      </trkpt>
      <trkpt lat="41.625770160" lon="2.484300040">
        <ele>578.00</ele>
        <time>2014-02-23T08:59:34Z</time>
      </trkpt>
      <trkpt lat="41.625786750" lon="2.484293330">
        <ele>578.10</ele>
        <time>2014-02-23T08:59:35Z</time>
      </trkpt>
      <trkpt lat="41.625798490" lon="2.484281770">
        <ele>578.30</ele>
        <time>2014-02-23T08:59:36Z</time>
      </trkpt>
      <trkpt lat="41.625815080" lon="2.484273380">
        <ele>578.40</ele>
        <time>2014-02-23T08:59:37Z</time>
      </trkpt>
      <trkpt lat="41.625831680" lon="2.484263490">
        <ele>578.50</ele>
        <time>2014-02-23T08:59:38Z</time>
      </trkpt>
      <trkpt lat="41.625848440" lon="2.484253440">
        <ele>578.60</ele>
        <time>2014-02-23T08:59:39Z</time>
      </trkpt>
      <trkpt lat="41.625863360" lon="2.484243380">
        <ele>578.80</ele>
        <time>2014-02-23T08:59:40Z</time>
      </trkpt>
      <trkpt lat="41.625880130" lon="2.484231810">
        <ele>578.90</ele>
        <time>2014-02-23T08:59:41Z</time>
      </trkpt>
      <trkpt lat="41.625895050" lon="2.484220080">
        <ele>579.20</ele>
        <time>2014-02-23T08:59:42Z</time>
      </trkpt>
      <trkpt lat="41.625911810" lon="2.484205160">
        <ele>579.40</ele>
        <time>2014-02-23T08:59:43Z</time>
      </trkpt>
      <trkpt lat="41.625926730" lon="2.484191740">
        <ele>579.60</ele>
        <time>2014-02-23T08:59:44Z</time>
      </trkpt>
      <trkpt lat="41.625941820" lon="2.484175150">
        <ele>579.70</ele>
        <time>2014-02-23T08:59:45Z</time>
      </trkpt>
      <trkpt lat="41.625956740" lon="2.484160060">
        <ele>579.90</ele>
        <time>2014-02-23T08:59:46Z</time>
      </trkpt>
      <trkpt lat="41.625973340" lon="2.484145140">
        <ele>580.20</ele>
        <time>2014-02-23T08:59:47Z</time>
      </trkpt>
      <trkpt lat="41.625988420" lon="2.484131730">
        <ele>580.50</ele>
        <time>2014-02-23T08:59:48Z</time>
      </trkpt>
      <trkpt lat="41.626005020" lon="2.484118490">
        <ele>580.70</ele>
        <time>2014-02-23T08:59:49Z</time>
      </trkpt>
      <trkpt lat="41.626018430" lon="2.484101720">
        <ele>580.90</ele>
        <time>2014-02-23T08:59:50Z</time>
      </trkpt>
      <trkpt lat="41.626033350" lon="2.484085130">
        <ele>581.00</ele>
        <time>2014-02-23T08:59:51Z</time>
      </trkpt>
      <trkpt lat="41.626046760" lon="2.484070040">
        <ele>581.30</ele>
        <time>2014-02-23T08:59:52Z</time>
      </trkpt>
      <trkpt lat="41.626060000" lon="2.484053440">
        <ele>581.50</ele>
        <time>2014-02-23T08:59:53Z</time>
      </trkpt>
      <trkpt lat="41.626073420" lon="2.484036680">
        <ele>581.80</ele>
        <time>2014-02-23T08:59:54Z</time>
      </trkpt>
      <trkpt lat="41.626085150" lon="2.484020080">
        <ele>582.10</ele>
        <time>2014-02-23T08:59:55Z</time>
      </trkpt>
      <trkpt lat="41.626096720" lon="2.484003490">
        <ele>582.30</ele>
        <time>2014-02-23T08:59:56Z</time>
      </trkpt>
      <trkpt lat="41.626111800" lon="2.483991750">
        <ele>582.50</ele>
        <time>2014-02-23T08:59:57Z</time>
      </trkpt>
      <trkpt lat="41.626126720" lon="2.483978340">
        <ele>582.60</ele>
        <time>2014-02-23T08:59:58Z</time>
      </trkpt>
      <trkpt lat="41.626140130" lon="2.483965100">
        <ele>583.10</ele>
        <time>2014-02-23T08:59:59Z</time>
      </trkpt>
      <trkpt lat="41.626153380" lon="2.483951690">
        <ele>583.40</ele>
        <time>2014-02-23T09:00:00Z</time>
      </trkpt>
      <trkpt lat="41.626165110" lon="2.483938440">
        <ele>584.00</ele>
        <time>2014-02-23T09:00:01Z</time>
      </trkpt>
      <trkpt lat="41.626175000" lon="2.483925030">
        <ele>584.30</ele>
        <time>2014-02-23T09:00:02Z</time>
      </trkpt>
      <trkpt lat="41.626186740" lon="2.483911790">
        <ele>584.60</ele>
        <time>2014-02-23T09:00:03Z</time>
      </trkpt>
      <trkpt lat="41.626198470" lon="2.483900050">
        <ele>585.00</ele>
        <time>2014-02-23T09:00:04Z</time>
      </trkpt>
      <trkpt lat="41.626210040" lon="2.483890000">
        <ele>585.20</ele>
        <time>2014-02-23T09:00:05Z</time>
      </trkpt>
      <trkpt lat="41.626223450" lon="2.483878430">
        <ele>585.70</ele>
        <time>2014-02-23T09:00:06Z</time>
      </trkpt>
      <trkpt lat="41.626236690" lon="2.483868370">
        <ele>586.00</ele>
        <time>2014-02-23T09:00:07Z</time>
      </trkpt>
      <trkpt lat="41.626248430" lon="2.483856800">
        <ele>586.40</ele>
        <time>2014-02-23T09:00:08Z</time>
      </trkpt>
      <trkpt lat="41.626261670" lon="2.483845070">
        <ele>586.70</ele>
        <time>2014-02-23T09:00:09Z</time>
      </trkpt>
      <trkpt lat="41.626271730" lon="2.483833330">
        <ele>586.90</ele>
        <time>2014-02-23T09:00:10Z</time>
      </trkpt>
      <trkpt lat="41.626281790" lon="2.483821770">
        <ele>586.90</ele>
        <time>2014-02-23T09:00:11Z</time>
      </trkpt>
      <trkpt lat="41.626298390" lon="2.483813390">
        <ele>586.90</ele>
        <time>2014-02-23T09:00:12Z</time>
      </trkpt>
      <trkpt lat="41.626313470" lon="2.483805000">
        <ele>587.30</ele>
        <time>2014-02-23T09:00:13Z</time>
      </trkpt>
      <trkpt lat="41.626328390" lon="2.483793440">
        <ele>587.50</ele>
        <time>2014-02-23T09:00:14Z</time>
      </trkpt>
      <trkpt lat="41.626343480" lon="2.483785050">
        <ele>587.80</ele>
        <time>2014-02-23T09:00:15Z</time>
      </trkpt>
      <trkpt lat="41.626356720" lon="2.483775000">
        <ele>588.00</ele>
        <time>2014-02-23T09:00:16Z</time>
      </trkpt>
      <trkpt lat="41.626368460" lon="2.483763430">
        <ele>588.20</ele>
        <time>2014-02-23T09:00:17Z</time>
      </trkpt>
      <trkpt lat="41.626381700" lon="2.483751690">
        <ele>588.80</ele>
        <time>2014-02-23T09:00:18Z</time>
      </trkpt>
      <trkpt lat="41.626398470" lon="2.483740130">
        <ele>589.20</ele>
        <time>2014-02-23T09:00:19Z</time>
      </trkpt>
      <trkpt lat="41.626415060" lon="2.483726720">
        <ele>589.30</ele>
        <time>2014-02-23T09:00:20Z</time>
      </trkpt>
      <trkpt lat="41.626431830" lon="2.483708440">
        <ele>589.40</ele>
        <time>2014-02-23T09:00:21Z</time>
      </trkpt>
      <trkpt lat="41.626448420" lon="2.483683470">
        <ele>589.50</ele>
        <time>2014-02-23T09:00:22Z</time>
      </trkpt>
      <trkpt lat="41.626463340" lon="2.483651780">
        <ele>589.40</ele>
        <time>2014-02-23T09:00:23Z</time>
      </trkpt>
      <trkpt lat="41.626480100" lon="2.483615070">
        <ele>589.40</ele>
        <time>2014-02-23T09:00:24Z</time>
      </trkpt>
      <trkpt lat="41.626495020" lon="2.483571820">
        <ele>589.30</ele>
        <time>2014-02-23T09:00:25Z</time>
      </trkpt>
      <trkpt lat="41.626508440" lon="2.483521690">
        <ele>589.10</ele>
        <time>2014-02-23T09:00:26Z</time>
      </trkpt>
      <trkpt lat="41.626520000" lon="2.483468390">
        <ele>588.90</ele>
        <time>2014-02-23T09:00:27Z</time>
      </trkpt>
      <trkpt lat="41.626531740" lon="2.483415080">
        <ele>588.70</ele>
        <time>2014-02-23T09:00:28Z</time>
      </trkpt>
      <trkpt lat="41.626541800" lon="2.483360090">
        <ele>588.50</ele>
        <time>2014-02-23T09:00:29Z</time>
      </trkpt>
      <trkpt lat="41.626553360" lon="2.483303430">
        <ele>588.50</ele>
        <time>2014-02-23T09:00:30Z</time>
      </trkpt>
      <trkpt lat="41.626565100" lon="2.483250120">
        <ele>588.40</ele>
        <time>2014-02-23T09:00:31Z</time>
      </trkpt>
      <trkpt lat="41.626580020" lon="2.483195140">
        <ele>587.80</ele>
        <time>2014-02-23T09:00:32Z</time>
      </trkpt>
      <trkpt lat="41.626598460" lon="2.483145010">
        <ele>587.40</ele>
        <time>2014-02-23T09:00:33Z</time>
      </trkpt>
      <trkpt lat="41.626626790" lon="2.483108470">
        <ele>587.30</ele>
        <time>2014-02-23T09:00:34Z</time>
      </trkpt>
      <trkpt lat="41.626660150" lon="2.483090030">
        <ele>587.30</ele>
        <time>2014-02-23T09:00:35Z</time>
      </trkpt>
      <trkpt lat="41.626685130" lon="2.483085000">
        <ele>587.30</ele>
        <time>2014-02-23T09:00:36Z</time>
      </trkpt>
      <trkpt lat="41.626711780" lon="2.483088350">
        <ele>587.40</ele>
        <time>2014-02-23T09:00:37Z</time>
      </trkpt>
      <trkpt lat="41.626733410" lon="2.483100090">
        <ele>587.50</ele>
        <time>2014-02-23T09:00:38Z</time>
      </trkpt>
      <trkpt lat="41.626753360" lon="2.483111820">
        <ele>587.50</ele>
        <time>2014-02-23T09:00:39Z</time>
      </trkpt>
      <trkpt lat="41.626771800" lon="2.483123390">
        <ele>587.50</ele>
        <time>2014-02-23T09:00:40Z</time>
      </trkpt>
      <trkpt lat="41.626788390" lon="2.483135120">
        <ele>587.50</ele>
        <time>2014-02-23T09:00:41Z</time>
      </trkpt>
      <trkpt lat="41.626805160" lon="2.483143340">
        <ele>587.70</ele>
        <time>2014-02-23T09:00:42Z</time>
      </trkpt>
      <trkpt lat="41.626820070" lon="2.483153390">
        <ele>587.80</ele>
        <time>2014-02-23T09:00:43Z</time>
      </trkpt>
      <trkpt lat="41.626836670" lon="2.483163450">
        <ele>587.60</ele>
        <time>2014-02-23T09:00:44Z</time>
      </trkpt>
      <trkpt lat="41.626853430" lon="2.483170160">
        <ele>587.50</ele>
        <time>2014-02-23T09:00:45Z</time>
      </trkpt>
      <trkpt lat="41.626868350" lon="2.483173340">
        <ele>588.00</ele>
        <time>2014-02-23T09:00:46Z</time>
      </trkpt>
      <trkpt lat="41.626885120" lon="2.483178370">
        <ele>588.30</ele>
        <time>2014-02-23T09:00:47Z</time>
      </trkpt>
      <trkpt lat="41.626903390" lon="2.483178370">
        <ele>588.60</ele>
        <time>2014-02-23T09:00:48Z</time>
      </trkpt>
      <trkpt lat="41.626920150" lon="2.483180050">
        <ele>588.80</ele>
        <time>2014-02-23T09:00:49Z</time>
      </trkpt>
      <trkpt lat="41.626938430" lon="2.483180050">
        <ele>589.00</ele>
        <time>2014-02-23T09:00:50Z</time>
      </trkpt>
      <trkpt lat="41.626955020" lon="2.483180050">
        <ele>589.80</ele>
        <time>2014-02-23T09:00:51Z</time>
      </trkpt>
      <trkpt lat="41.626971790" lon="2.483173340">
        <ele>590.40</ele>
        <time>2014-02-23T09:00:52Z</time>
      </trkpt>
      <trkpt lat="41.626988380" lon="2.483166810">
        <ele>590.50</ele>
        <time>2014-02-23T09:00:53Z</time>
      </trkpt>
      <trkpt lat="41.627006820" lon="2.483156750">
        <ele>590.60</ele>
        <time>2014-02-23T09:00:54Z</time>
      </trkpt>
      <trkpt lat="41.627023420" lon="2.483146690">
        <ele>590.60</ele>
        <time>2014-02-23T09:00:55Z</time>
      </trkpt>
      <trkpt lat="41.627040020" lon="2.483136800">
        <ele>590.70</ele>
        <time>2014-02-23T09:00:56Z</time>
      </trkpt>
      <trkpt lat="41.627058460" lon="2.483126740">
        <ele>590.70</ele>
        <time>2014-02-23T09:00:57Z</time>
      </trkpt>
      <trkpt lat="41.627073380" lon="2.483116680">
        <ele>591.10</ele>
        <time>2014-02-23T09:00:58Z</time>
      </trkpt>
      <trkpt lat="41.627086790" lon="2.483103440">
        <ele>591.40</ele>
        <time>2014-02-23T09:00:59Z</time>
      </trkpt>
      <trkpt lat="41.627096680" lon="2.483086670">
        <ele>591.70</ele>
        <time>2014-02-23T09:01:00Z</time>
      </trkpt>
      <trkpt lat="41.627110090" lon="2.483073430">
        <ele>591.80</ele>
        <time>2014-02-23T09:01:01Z</time>
      </trkpt>
      <trkpt lat="41.627123330" lon="2.483058340">
        <ele>591.90</ele>
        <time>2014-02-23T09:01:02Z</time>
      </trkpt>
      <trkpt lat="41.627136740" lon="2.483045100">
        <ele>592.50</ele>
        <time>2014-02-23T09:01:03Z</time>
      </trkpt>
      <trkpt lat="41.627150150" lon="2.483031690">
        <ele>593.00</ele>
        <time>2014-02-23T09:01:04Z</time>
      </trkpt>
      <trkpt lat="41.627160040" lon="2.483018450">
        <ele>593.20</ele>
        <time>2014-02-23T09:01:05Z</time>
      </trkpt>
      <trkpt lat="41.627173460" lon="2.483005030">
        <ele>593.40</ele>
        <time>2014-02-23T09:01:06Z</time>
      </trkpt>
      <trkpt lat="41.627185020" lon="2.482991790">
        <ele>593.50</ele>
        <time>2014-02-23T09:01:07Z</time>
      </trkpt>
      <trkpt lat="41.627200110" lon="2.482980060">
        <ele>594.00</ele>
        <time>2014-02-23T09:01:08Z</time>
      </trkpt>
      <trkpt lat="41.627210000" lon="2.482970000">
        <ele>594.40</ele>
        <time>2014-02-23T09:01:09Z</time>
      </trkpt>
      <trkpt lat="41.627220060" lon="2.482958430">
        <ele>594.50</ele>
        <time>2014-02-23T09:01:10Z</time>
      </trkpt>
      <trkpt lat="41.627231790" lon="2.482948370">
        <ele>594.70</ele>
        <time>2014-02-23T09:01:11Z</time>
      </trkpt>
      <trkpt lat="41.627241680" lon="2.482940160">
        <ele>594.40</ele>
        <time>2014-02-23T09:01:12Z</time>
      </trkpt>
      <trkpt lat="41.627253420" lon="2.482930100">
        <ele>594.20</ele>
        <time>2014-02-23T09:01:13Z</time>
      </trkpt>
      <trkpt lat="41.627268340" lon="2.482920040">
        <ele>594.00</ele>
        <time>2014-02-23T09:01:14Z</time>
      </trkpt>
      <trkpt lat="41.627285100" lon="2.482908470">
        <ele>594.50</ele>
        <time>2014-02-23T09:01:15Z</time>
      </trkpt>
      <trkpt lat="41.627301700" lon="2.482896740">
        <ele>594.90</ele>
        <time>2014-02-23T09:01:16Z</time>
      </trkpt>
      <trkpt lat="41.627320140" lon="2.482883330">
        <ele>595.40</ele>
        <time>2014-02-23T09:01:17Z</time>
      </trkpt>
      <trkpt lat="41.627335060" lon="2.482873440">
        <ele>595.90</ele>
        <time>2014-02-23T09:01:18Z</time>
      </trkpt>
      <trkpt lat="41.627348470" lon="2.482866730">
        <ele>596.20</ele>
        <time>2014-02-23T09:01:19Z</time>
      </trkpt>
      <trkpt lat="41.627360040" lon="2.482858350">
        <ele>596.90</ele>
        <time>2014-02-23T09:01:20Z</time>
      </trkpt>
      <trkpt lat="41.627373450" lon="2.482851810">
        <ele>597.40</ele>
        <time>2014-02-23T09:01:21Z</time>
      </trkpt>
      <trkpt lat="41.627383340" lon="2.482843430">
        <ele>597.90</ele>
        <time>2014-02-23T09:01:22Z</time>
      </trkpt>
      <trkpt lat="41.627398430" lon="2.482841750">
        <ele>598.30</ele>
        <time>2014-02-23T09:01:23Z</time>
      </trkpt>
      <trkpt lat="41.627411670" lon="2.482841750">
        <ele>598.40</ele>
        <time>2014-02-23T09:01:24Z</time>
      </trkpt>
      <trkpt lat="41.627426760" lon="2.482845110">
        <ele>598.50</ele>
        <time>2014-02-23T09:01:25Z</time>
      </trkpt>
      <trkpt lat="41.627440000" lon="2.482848460">
        <ele>598.60</ele>
        <time>2014-02-23T09:01:26Z</time>
      </trkpt>
      <trkpt lat="41.627455090" lon="2.482853490">
        <ele>598.90</ele>
        <time>2014-02-23T09:01:27Z</time>
      </trkpt>
      <trkpt lat="41.627470010" lon="2.482858350">
        <ele>599.10</ele>
        <time>2014-02-23T09:01:28Z</time>
      </trkpt>
      <trkpt lat="41.627486770" lon="2.482863380">
        <ele>599.40</ele>
        <time>2014-02-23T09:01:29Z</time>
      </trkpt>
      <trkpt lat="41.627501690" lon="2.482866730">
        <ele>599.60</ele>
        <time>2014-02-23T09:01:30Z</time>
      </trkpt>
      <trkpt lat="41.627516780" lon="2.482870090">
        <ele>600.30</ele>
        <time>2014-02-23T09:01:31Z</time>
      </trkpt>
      <trkpt lat="41.627528350" lon="2.482876790">
        <ele>600.80</ele>
        <time>2014-02-23T09:01:32Z</time>
      </trkpt>
      <trkpt lat="41.627540080" lon="2.482881820">
        <ele>601.20</ele>
        <time>2014-02-23T09:01:33Z</time>
      </trkpt>
      <trkpt lat="41.627551820" lon="2.482885010">
        <ele>601.30</ele>
        <time>2014-02-23T09:01:34Z</time>
      </trkpt>
      <trkpt lat="41.627565060" lon="2.482891710">
        <ele>601.50</ele>
        <time>2014-02-23T09:01:35Z</time>
      </trkpt>
      <trkpt lat="41.627576790" lon="2.482896740">
        <ele>601.70</ele>
        <time>2014-02-23T09:01:36Z</time>
      </trkpt>
      <trkpt lat="41.627590040" lon="2.482903450">
        <ele>601.80</ele>
        <time>2014-02-23T09:01:37Z</time>
      </trkpt>
      <trkpt lat="41.627603450" lon="2.482911830">
        <ele>602.20</ele>
        <time>2014-02-23T09:01:38Z</time>
      </trkpt>
      <trkpt lat="41.627618370" lon="2.482926750">
        <ele>602.40</ele>
        <time>2014-02-23T09:01:39Z</time>
      </trkpt>
      <trkpt lat="41.627633450" lon="2.482938480">
        <ele>602.60</ele>
        <time>2014-02-23T09:01:40Z</time>
      </trkpt>
      <trkpt lat="41.627646700" lon="2.482948370">
        <ele>602.60</ele>
        <time>2014-02-23T09:01:41Z</time>
      </trkpt>
      <trkpt lat="41.627663460" lon="2.482958430">
        <ele>602.60</ele>
        <time>2014-02-23T09:01:42Z</time>
      </trkpt>
      <trkpt lat="41.627676710" lon="2.482963460">
        <ele>602.60</ele>
        <time>2014-02-23T09:01:43Z</time>
      </trkpt>
      <trkpt lat="41.627690120" lon="2.482968490">
        <ele>602.50</ele>
        <time>2014-02-23T09:01:44Z</time>
      </trkpt>
      <trkpt lat="41.627703360" lon="2.482968490">
        <ele>602.50</ele>
        <time>2014-02-23T09:01:45Z</time>
      </trkpt>
      <trkpt lat="41.627716770" lon="2.482966810">
        <ele>602.80</ele>
        <time>2014-02-23T09:01:46Z</time>
      </trkpt>
      <trkpt lat="41.627730010" lon="2.482965140">
        <ele>602.90</ele>
        <time>2014-02-23T09:01:47Z</time>
      </trkpt>
      <trkpt lat="41.627745100" lon="2.482961780">
        <ele>603.20</ele>
        <time>2014-02-23T09:01:48Z</time>
      </trkpt>
      <trkpt lat="41.627758350" lon="2.482960110">
        <ele>603.40</ele>
        <time>2014-02-23T09:01:49Z</time>
      </trkpt>
      <trkpt lat="41.627768400" lon="2.482953400">
        <ele>603.30</ele>
        <time>2014-02-23T09:01:50Z</time>
      </trkpt>
      <trkpt lat="41.627778460" lon="2.482945020">
        <ele>603.30</ele>
        <time>2014-02-23T09:01:51Z</time>
      </trkpt>
      <trkpt lat="41.627786680" lon="2.482933450">
        <ele>603.30</ele>
        <time>2014-02-23T09:01:52Z</time>
      </trkpt>
      <trkpt lat="41.627793380" lon="2.482918370">
        <ele>603.70</ele>
        <time>2014-02-23T09:01:53Z</time>
      </trkpt>
      <trkpt lat="41.627796730" lon="2.482903450">
        <ele>604.00</ele>
        <time>2014-02-23T09:01:54Z</time>
      </trkpt>
      <trkpt lat="41.627798410" lon="2.482890030">
        <ele>604.20</ele>
        <time>2014-02-23T09:01:55Z</time>
      </trkpt>
      <trkpt lat="41.627798410" lon="2.482875110">
        <ele>604.30</ele>
        <time>2014-02-23T09:01:56Z</time>
      </trkpt>
      <trkpt lat="41.627800090" lon="2.482860030">
        <ele>604.40</ele>
        <time>2014-02-23T09:01:57Z</time>
      </trkpt>
      <trkpt lat="41.627801760" lon="2.482846780">
        <ele>604.90</ele>
        <time>2014-02-23T09:01:58Z</time>
      </trkpt>
      <trkpt lat="41.627801760" lon="2.482830020">
        <ele>605.30</ele>
        <time>2014-02-23T09:01:59Z</time>
      </trkpt>
      <trkpt lat="41.627801760" lon="2.482816780">
        <ele>605.40</ele>
        <time>2014-02-23T09:02:00Z</time>
      </trkpt>
      <trkpt lat="41.627801760" lon="2.482801690">
        <ele>605.50</ele>
        <time>2014-02-23T09:02:01Z</time>
      </trkpt>
      <trkpt lat="41.627805120" lon="2.482785090">
        <ele>605.40</ele>
        <time>2014-02-23T09:02:02Z</time>
      </trkpt>
      <trkpt lat="41.627806790" lon="2.482766820">
        <ele>605.40</ele>
        <time>2014-02-23T09:02:03Z</time>
      </trkpt>
      <trkpt lat="41.627805120" lon="2.482748380">
        <ele>605.40</ele>
        <time>2014-02-23T09:02:04Z</time>
      </trkpt>
      <trkpt lat="41.627803440" lon="2.482728430">
        <ele>605.70</ele>
        <time>2014-02-23T09:02:05Z</time>
      </trkpt>
      <trkpt lat="41.627800090" lon="2.482710160">
        <ele>605.90</ele>
        <time>2014-02-23T09:02:06Z</time>
      </trkpt>
      <trkpt lat="41.627795060" lon="2.482693400">
        <ele>606.10</ele>
        <time>2014-02-23T09:02:07Z</time>
      </trkpt>
      <trkpt lat="41.627790030" lon="2.482675120">
        <ele>606.30</ele>
        <time>2014-02-23T09:02:08Z</time>
      </trkpt>
      <trkpt lat="41.627785000" lon="2.482658360">
        <ele>606.50</ele>
        <time>2014-02-23T09:02:09Z</time>
      </trkpt>
      <trkpt lat="41.627776790" lon="2.482641760">
        <ele>606.70</ele>
        <time>2014-02-23T09:02:10Z</time>
      </trkpt>
      <trkpt lat="41.627766730" lon="2.482626680">
        <ele>606.90</ele>
        <time>2014-02-23T09:02:11Z</time>
      </trkpt>
      <trkpt lat="41.627756670" lon="2.482613430">
        <ele>607.20</ele>
        <time>2014-02-23T09:02:12Z</time>
      </trkpt>
      <trkpt lat="41.627745100" lon="2.482596670">
        <ele>607.50</ele>
        <time>2014-02-23T09:02:13Z</time>
      </trkpt>
      <trkpt lat="41.627736720" lon="2.482581750">
        <ele>607.50</ele>
        <time>2014-02-23T09:02:14Z</time>
      </trkpt>
      <trkpt lat="41.627726830" lon="2.482565150">
        <ele>607.50</ele>
        <time>2014-02-23T09:02:15Z</time>
      </trkpt>
      <trkpt lat="41.627715090" lon="2.482548390">
        <ele>607.40</ele>
        <time>2014-02-23T09:02:16Z</time>
      </trkpt>
      <trkpt lat="41.627703360" lon="2.482533470">
        <ele>607.40</ele>
        <time>2014-02-23T09:02:17Z</time>
      </trkpt>
      <trkpt lat="41.627693470" lon="2.482516700">
        <ele>607.40</ele>
        <time>2014-02-23T09:02:18Z</time>
      </trkpt>
      <trkpt lat="41.627686760" lon="2.482503460">
        <ele>607.50</ele>
        <time>2014-02-23T09:02:19Z</time>
      </trkpt>
      <trkpt lat="41.627678380" lon="2.482491730">
        <ele>607.70</ele>
        <time>2014-02-23T09:02:20Z</time>
      </trkpt>
      <trkpt lat="41.627666810" lon="2.482478480">
        <ele>607.90</ele>
        <time>2014-02-23T09:02:21Z</time>
      </trkpt>
      <trkpt lat="41.627655080" lon="2.482463400">
        <ele>608.10</ele>
        <time>2014-02-23T09:02:22Z</time>
      </trkpt>
      <trkpt lat="41.627641670" lon="2.482450150">
        <ele>608.30</ele>
        <time>2014-02-23T09:02:23Z</time>
      </trkpt>
      <trkpt lat="41.627630100" lon="2.482431710">
        <ele>608.40</ele>
        <time>2014-02-23T09:02:24Z</time>
      </trkpt>
      <trkpt lat="41.627620040" lon="2.482415120">
        <ele>608.60</ele>
        <time>2014-02-23T09:02:25Z</time>
      </trkpt>
      <trkpt lat="41.627608480" lon="2.482396680">
        <ele>608.80</ele>
        <time>2014-02-23T09:02:26Z</time>
      </trkpt>
      <trkpt lat="41.627600090" lon="2.482378400">
        <ele>608.90</ele>
        <time>2014-02-23T09:02:27Z</time>
      </trkpt>
      <trkpt lat="41.627591710" lon="2.482358450">
        <ele>609.20</ele>
        <time>2014-02-23T09:02:28Z</time>
      </trkpt>
      <trkpt lat="41.627586680" lon="2.482338340">
        <ele>609.40</ele>
        <time>2014-02-23T09:02:29Z</time>
      </trkpt>
      <trkpt lat="41.627581820" lon="2.482318390">
        <ele>609.50</ele>
        <time>2014-02-23T09:02:30Z</time>
      </trkpt>
      <trkpt lat="41.627575120" lon="2.482298440">
        <ele>609.60</ele>
        <time>2014-02-23T09:02:31Z</time>
      </trkpt>
      <trkpt lat="41.627570090" lon="2.482276810">
        <ele>609.70</ele>
        <time>2014-02-23T09:02:32Z</time>
      </trkpt>
      <trkpt lat="41.627565060" lon="2.482255020">
        <ele>610.10</ele>
        <time>2014-02-23T09:02:33Z</time>
      </trkpt>
      <trkpt lat="41.627561710" lon="2.482235070">
        <ele>610.40</ele>
        <time>2014-02-23T09:02:34Z</time>
      </trkpt>
      <trkpt lat="41.627558350" lon="2.482215120">
        <ele>610.70</ele>
        <time>2014-02-23T09:02:35Z</time>
      </trkpt>
      <trkpt lat="41.627555000" lon="2.482195010">
        <ele>610.90</ele>
        <time>2014-02-23T09:02:36Z</time>
      </trkpt>
      <trkpt lat="41.627555000" lon="2.482178410">
        <ele>611.00</ele>
        <time>2014-02-23T09:02:37Z</time>
      </trkpt>
      <trkpt lat="41.627551820" lon="2.482158460">
        <ele>611.20</ele>
        <time>2014-02-23T09:02:38Z</time>
      </trkpt>
      <trkpt lat="41.627550140" lon="2.482140020">
        <ele>611.30</ele>
        <time>2014-02-23T09:02:39Z</time>
      </trkpt>
      <trkpt lat="41.627550140" lon="2.482123430">
        <ele>611.60</ele>
        <time>2014-02-23T09:02:40Z</time>
      </trkpt>
      <trkpt lat="41.627548460" lon="2.482105150">
        <ele>611.70</ele>
        <time>2014-02-23T09:02:41Z</time>
      </trkpt>
      <trkpt lat="41.627546790" lon="2.482086710">
        <ele>611.90</ele>
        <time>2014-02-23T09:02:42Z</time>
      </trkpt>
      <trkpt lat="41.627545110" lon="2.482068440">
        <ele>611.60</ele>
        <time>2014-02-23T09:02:43Z</time>
      </trkpt>
      <trkpt lat="41.627541760" lon="2.482050000">
        <ele>611.40</ele>
        <time>2014-02-23T09:02:44Z</time>
      </trkpt>
      <trkpt lat="41.627538400" lon="2.482030050">
        <ele>611.60</ele>
        <time>2014-02-23T09:02:45Z</time>
      </trkpt>
      <trkpt lat="41.627535050" lon="2.482010100">
        <ele>611.80</ele>
        <time>2014-02-23T09:02:46Z</time>
      </trkpt>
      <trkpt lat="41.627530020" lon="2.481990150">
        <ele>612.10</ele>
        <time>2014-02-23T09:02:47Z</time>
      </trkpt>
      <trkpt lat="41.627525160" lon="2.481971710">
        <ele>612.30</ele>
        <time>2014-02-23T09:02:48Z</time>
      </trkpt>
      <trkpt lat="41.627518460" lon="2.481951760">
        <ele>612.40</ele>
        <time>2014-02-23T09:02:49Z</time>
      </trkpt>
      <trkpt lat="41.627513430" lon="2.481933490">
        <ele>612.70</ele>
        <time>2014-02-23T09:02:50Z</time>
      </trkpt>
      <trkpt lat="41.627505040" lon="2.481915050">
        <ele>612.90</ele>
        <time>2014-02-23T09:02:51Z</time>
      </trkpt>
      <trkpt lat="41.627498340" lon="2.481896780">
        <ele>613.20</ele>
        <time>2014-02-23T09:02:52Z</time>
      </trkpt>
      <trkpt lat="41.627491800" lon="2.481878340">
        <ele>613.50</ele>
        <time>2014-02-23T09:02:53Z</time>
      </trkpt>
      <trkpt lat="41.627486770" lon="2.481863420">
        <ele>613.80</ele>
        <time>2014-02-23T09:02:54Z</time>
      </trkpt>
      <trkpt lat="41.627480070" lon="2.481846820">
        <ele>614.00</ele>
        <time>2014-02-23T09:02:55Z</time>
      </trkpt>
      <trkpt lat="41.627471680" lon="2.481830060">
        <ele>614.20</ele>
        <time>2014-02-23T09:02:56Z</time>
      </trkpt>
      <trkpt lat="41.627463470" lon="2.481816820">
        <ele>614.20</ele>
        <time>2014-02-23T09:02:57Z</time>
      </trkpt>
      <trkpt lat="41.627453410" lon="2.481798380">
        <ele>614.20</ele>
        <time>2014-02-23T09:02:58Z</time>
      </trkpt>
      <trkpt lat="41.627445030" lon="2.481780100">
        <ele>614.70</ele>
        <time>2014-02-23T09:02:59Z</time>
      </trkpt>
      <trkpt lat="41.627435140" lon="2.481761660">
        <ele>615.10</ele>
        <time>2014-02-23T09:03:00Z</time>
      </trkpt>
      <trkpt lat="41.627423400" lon="2.481745070">
        <ele>615.30</ele>
        <time>2014-02-23T09:03:01Z</time>
      </trkpt>
      <trkpt lat="41.627410160" lon="2.481733330">
        <ele>615.20</ele>
        <time>2014-02-23T09:03:02Z</time>
      </trkpt>
      <trkpt lat="41.627398430" lon="2.481723440">
        <ele>615.10</ele>
        <time>2014-02-23T09:03:03Z</time>
      </trkpt>
      <trkpt lat="41.627386690" lon="2.481713380">
        <ele>615.00</ele>
        <time>2014-02-23T09:03:04Z</time>
      </trkpt>
      <trkpt lat="41.627375120" lon="2.481701820">
        <ele>614.90</ele>
        <time>2014-02-23T09:03:05Z</time>
      </trkpt>
      <trkpt lat="41.627361710" lon="2.481691760">
        <ele>615.10</ele>
        <time>2014-02-23T09:03:06Z</time>
      </trkpt>
      <trkpt lat="41.627350150" lon="2.481683380">
        <ele>615.30</ele>
        <time>2014-02-23T09:03:07Z</time>
      </trkpt>
      <trkpt lat="41.627338410" lon="2.481671810">
        <ele>615.40</ele>
        <time>2014-02-23T09:03:08Z</time>
      </trkpt>
      <trkpt lat="41.627326680" lon="2.481660070">
        <ele>615.60</ele>
        <time>2014-02-23T09:03:09Z</time>
      </trkpt>
      <trkpt lat="41.627313430" lon="2.481648340">
        <ele>615.70</ele>
        <time>2014-02-23T09:03:10Z</time>
      </trkpt>
      <trkpt lat="41.627300020" lon="2.481640130">
        <ele>616.30</ele>
        <time>2014-02-23T09:03:11Z</time>
      </trkpt>
      <trkpt lat="41.627285100" lon="2.481631740">
        <ele>616.80</ele>
        <time>2014-02-23T09:03:12Z</time>
      </trkpt>
      <trkpt lat="41.627270020" lon="2.481623360">
        <ele>616.70</ele>
        <time>2014-02-23T09:03:13Z</time>
      </trkpt>
      <trkpt lat="41.627256770" lon="2.481616820">
        <ele>616.60</ele>
        <time>2014-02-23T09:03:14Z</time>
      </trkpt>
      <trkpt lat="41.627241680" lon="2.481608440">
        <ele>616.50</ele>
        <time>2014-02-23T09:03:15Z</time>
      </trkpt>
      <trkpt lat="41.627226760" lon="2.481598380">
        <ele>616.90</ele>
        <time>2014-02-23T09:03:16Z</time>
      </trkpt>
      <trkpt lat="41.627211680" lon="2.481588490">
        <ele>617.20</ele>
        <time>2014-02-23T09:03:17Z</time>
      </trkpt>
      <trkpt lat="41.627196760" lon="2.481581790">
        <ele>617.60</ele>
        <time>2014-02-23T09:03:18Z</time>
      </trkpt>
      <trkpt lat="41.627181670" lon="2.481573410">
        <ele>617.90</ele>
        <time>2014-02-23T09:03:19Z</time>
      </trkpt>
      <trkpt lat="41.627168430" lon="2.481563350">
        <ele>618.10</ele>
        <time>2014-02-23T09:03:20Z</time>
      </trkpt>
      <trkpt lat="41.627153340" lon="2.481553460">
        <ele>618.30</ele>
        <time>2014-02-23T09:03:21Z</time>
      </trkpt>
      <trkpt lat="41.627136740" lon="2.481548430">
        <ele>618.30</ele>
        <time>2014-02-23T09:03:22Z</time>
      </trkpt>
      <trkpt lat="41.627120150" lon="2.481545070">
        <ele>618.60</ele>
        <time>2014-02-23T09:03:23Z</time>
      </trkpt>
      <trkpt lat="41.627103380" lon="2.481540050">
        <ele>618.80</ele>
        <time>2014-02-23T09:03:24Z</time>
      </trkpt>
      <trkpt lat="41.627086790" lon="2.481533340">
        <ele>618.80</ele>
        <time>2014-02-23T09:03:25Z</time>
      </trkpt>
      <trkpt lat="41.627070020" lon="2.481528480">
        <ele>618.90</ele>
        <time>2014-02-23T09:03:26Z</time>
      </trkpt>
      <trkpt lat="41.627053430" lon="2.481525130">
        <ele>618.90</ele>
        <time>2014-02-23T09:03:27Z</time>
      </trkpt>
      <trkpt lat="41.627036660" lon="2.481518420">
        <ele>618.90</ele>
        <time>2014-02-23T09:03:28Z</time>
      </trkpt>
      <trkpt lat="41.627020070" lon="2.481513390">
        <ele>618.90</ele>
        <time>2014-02-23T09:03:29Z</time>
      </trkpt>
      <trkpt lat="41.627003470" lon="2.481508360">
        <ele>619.40</ele>
        <time>2014-02-23T09:03:30Z</time>
      </trkpt>
      <trkpt lat="41.626986710" lon="2.481503330">
        <ele>619.70</ele>
        <time>2014-02-23T09:03:31Z</time>
      </trkpt>
      <trkpt lat="41.626971790" lon="2.481495120">
        <ele>619.90</ele>
        <time>2014-02-23T09:03:32Z</time>
      </trkpt>
      <trkpt lat="41.626955020" lon="2.481486740">
        <ele>620.00</ele>
        <time>2014-02-23T09:03:33Z</time>
      </trkpt>
      <trkpt lat="41.626940100" lon="2.481481710">
        <ele>620.10</ele>
        <time>2014-02-23T09:03:34Z</time>
      </trkpt>
      <trkpt lat="41.626925020" lon="2.481473490">
        <ele>620.20</ele>
        <time>2014-02-23T09:03:35Z</time>
      </trkpt>
      <trkpt lat="41.626913450" lon="2.481463430">
        <ele>620.30</ele>
        <time>2014-02-23T09:03:36Z</time>
      </trkpt>
      <trkpt lat="41.626898360" lon="2.481456730">
        <ele>620.40</ele>
        <time>2014-02-23T09:03:37Z</time>
      </trkpt>
      <trkpt lat="41.626883440" lon="2.481451700">
        <ele>620.50</ele>
        <time>2014-02-23T09:03:38Z</time>
      </trkpt>
      <trkpt lat="41.626866680" lon="2.481450020">
        <ele>620.50</ele>
        <time>2014-02-23T09:03:39Z</time>
      </trkpt>
      <trkpt lat="41.626850080" lon="2.481450020">
        <ele>620.70</ele>
        <time>2014-02-23T09:03:40Z</time>
      </trkpt>
      <trkpt lat="41.626833490" lon="2.481450020">
        <ele>620.80</ele>
        <time>2014-02-23T09:03:41Z</time>
      </trkpt>
      <trkpt lat="41.626818400" lon="2.481451700">
        <ele>621.20</ele>
        <time>2014-02-23T09:03:42Z</time>
      </trkpt>
      <trkpt lat="41.626801800" lon="2.481453380">
        <ele>621.40</ele>
        <time>2014-02-23T09:03:43Z</time>
      </trkpt>
      <trkpt lat="41.626786720" lon="2.481458410">
        <ele>621.60</ele>
        <time>2014-02-23T09:03:44Z</time>
      </trkpt>
      <trkpt lat="41.626771800" lon="2.481461760">
        <ele>621.70</ele>
        <time>2014-02-23T09:03:45Z</time>
      </trkpt>
      <trkpt lat="41.626755030" lon="2.481463430">
        <ele>621.80</ele>
        <time>2014-02-23T09:03:46Z</time>
      </trkpt>
      <trkpt lat="41.626740110" lon="2.481465110">
        <ele>622.10</ele>
        <time>2014-02-23T09:03:47Z</time>
      </trkpt>
      <trkpt lat="41.626725020" lon="2.481470140">
        <ele>622.40</ele>
        <time>2014-02-23T09:03:48Z</time>
      </trkpt>
      <trkpt lat="41.626708430" lon="2.481475000">
        <ele>622.60</ele>
        <time>2014-02-23T09:03:49Z</time>
      </trkpt>
      <trkpt lat="41.626693340" lon="2.481480030">
        <ele>622.80</ele>
        <time>2014-02-23T09:03:50Z</time>
      </trkpt>
      <trkpt lat="41.626680100" lon="2.481485060">
        <ele>623.10</ele>
        <time>2014-02-23T09:03:51Z</time>
      </trkpt>
      <trkpt lat="41.626665010" lon="2.481488410">
        <ele>623.40</ele>
        <time>2014-02-23T09:03:52Z</time>
      </trkpt>
      <trkpt lat="41.626650090" lon="2.481490090">
        <ele>623.60</ele>
        <time>2014-02-23T09:03:53Z</time>
      </trkpt>
      <trkpt lat="41.626635000" lon="2.481491770">
        <ele>623.70</ele>
        <time>2014-02-23T09:03:54Z</time>
      </trkpt>
      <trkpt lat="41.626620080" lon="2.481491770">
        <ele>623.80</ele>
        <time>2014-02-23T09:03:55Z</time>
      </trkpt>
      <trkpt lat="41.626606670" lon="2.481488410">
        <ele>624.10</ele>
        <time>2014-02-23T09:03:56Z</time>
      </trkpt>
      <trkpt lat="41.626593430" lon="2.481481710">
        <ele>624.30</ele>
        <time>2014-02-23T09:03:57Z</time>
      </trkpt>
      <trkpt lat="41.626578340" lon="2.481476680">
        <ele>624.50</ele>
        <time>2014-02-23T09:03:58Z</time>
      </trkpt>
      <trkpt lat="41.626565100" lon="2.481470140">
        <ele>624.90</ele>
        <time>2014-02-23T09:03:59Z</time>
      </trkpt>
      <trkpt lat="41.626553360" lon="2.481461760">
        <ele>625.20</ele>
        <time>2014-02-23T09:04:00Z</time>
      </trkpt>
      <trkpt lat="41.626541800" lon="2.481451700">
        <ele>625.60</ele>
        <time>2014-02-23T09:04:01Z</time>
      </trkpt>
      <trkpt lat="41.626531740" lon="2.481441810">
        <ele>625.90</ele>
        <time>2014-02-23T09:04:02Z</time>
      </trkpt>
      <trkpt lat="41.626521680" lon="2.481428400">
        <ele>626.10</ele>
        <time>2014-02-23T09:04:03Z</time>
      </trkpt>
      <trkpt lat="41.626513460" lon="2.481418340">
        <ele>626.30</ele>
        <time>2014-02-23T09:04:04Z</time>
      </trkpt>
      <trkpt lat="41.626503410" lon="2.481405100">
        <ele>626.40</ele>
        <time>2014-02-23T09:04:05Z</time>
      </trkpt>
      <trkpt lat="41.626496700" lon="2.481390010">
        <ele>626.60</ele>
        <time>2014-02-23T09:04:06Z</time>
      </trkpt>
      <trkpt lat="41.626488490" lon="2.481375090">
        <ele>626.70</ele>
        <time>2014-02-23T09:04:07Z</time>
      </trkpt>
      <trkpt lat="41.626478430" lon="2.481361680">
        <ele>627.00</ele>
        <time>2014-02-23T09:04:08Z</time>
      </trkpt>
      <trkpt lat="41.626471720" lon="2.481346760">
        <ele>627.30</ele>
        <time>2014-02-23T09:04:09Z</time>
      </trkpt>
      <trkpt lat="41.626463340" lon="2.481331670">
        <ele>627.30</ele>
        <time>2014-02-23T09:04:10Z</time>
      </trkpt>
      <trkpt lat="41.626455130" lon="2.481315080">
        <ele>627.20</ele>
        <time>2014-02-23T09:04:11Z</time>
      </trkpt>
      <trkpt lat="41.626446750" lon="2.481296800">
        <ele>627.20</ele>
        <time>2014-02-23T09:04:12Z</time>
      </trkpt>
      <trkpt lat="41.626436690" lon="2.481276690">
        <ele>627.70</ele>
        <time>2014-02-23T09:04:13Z</time>
      </trkpt>
      <trkpt lat="41.626426800" lon="2.481261770">
        <ele>628.10</ele>
        <time>2014-02-23T09:04:14Z</time>
      </trkpt>
      <trkpt lat="41.626413390" lon="2.481250030">
        <ele>628.40</ele>
        <time>2014-02-23T09:04:15Z</time>
      </trkpt>
      <trkpt lat="41.626401820" lon="2.481240140">
        <ele>628.60</ele>
        <time>2014-02-23T09:04:16Z</time>
      </trkpt>
      <trkpt lat="41.626388410" lon="2.481228410">
        <ele>628.70</ele>
        <time>2014-02-23T09:04:17Z</time>
      </trkpt>
      <trkpt lat="41.626375000" lon="2.481216670">
        <ele>629.10</ele>
        <time>2014-02-23T09:04:18Z</time>
      </trkpt>
      <trkpt lat="41.626361750" lon="2.481208460">
        <ele>629.30</ele>
        <time>2014-02-23T09:04:19Z</time>
      </trkpt>
      <trkpt lat="41.626346670" lon="2.481200080">
        <ele>629.60</ele>
        <time>2014-02-23T09:04:20Z</time>
      </trkpt>
      <trkpt lat="41.626335100" lon="2.481190020">
        <ele>629.80</ele>
        <time>2014-02-23T09:04:21Z</time>
      </trkpt>
      <trkpt lat="41.626321690" lon="2.481178450">
        <ele>630.10</ele>
        <time>2014-02-23T09:04:22Z</time>
      </trkpt>
      <trkpt lat="41.626308440" lon="2.481171740">
        <ele>630.30</ele>
        <time>2014-02-23T09:04:23Z</time>
      </trkpt>
      <trkpt lat="41.626295030" lon="2.481165040">
        <ele>630.50</ele>
        <time>2014-02-23T09:04:24Z</time>
      </trkpt>
      <trkpt lat="41.626281790" lon="2.481158330">
        <ele>630.30</ele>
        <time>2014-02-23T09:04:25Z</time>
      </trkpt>
      <trkpt lat="41.626266700" lon="2.481155150">
        <ele>630.10</ele>
        <time>2014-02-23T09:04:26Z</time>
      </trkpt>
      <trkpt lat="41.626251780" lon="2.481153470">
        <ele>630.00</ele>
        <time>2014-02-23T09:04:27Z</time>
      </trkpt>
      <trkpt lat="41.626236690" lon="2.481150120">
        <ele>630.00</ele>
        <time>2014-02-23T09:04:28Z</time>
      </trkpt>
      <trkpt lat="41.626220100" lon="2.481148440">
        <ele>630.50</ele>
        <time>2014-02-23T09:04:29Z</time>
      </trkpt>
      <trkpt lat="41.626205010" lon="2.481143410">
        <ele>630.90</ele>
        <time>2014-02-23T09:04:30Z</time>
      </trkpt>
      <trkpt lat="41.626191770" lon="2.481135030">
        <ele>631.20</ele>
        <time>2014-02-23T09:04:31Z</time>
      </trkpt>
      <trkpt lat="41.626175000" lon="2.481133360">
        <ele>631.40</ele>
        <time>2014-02-23T09:04:32Z</time>
      </trkpt>
      <trkpt lat="41.626158410" lon="2.481130000">
        <ele>631.50</ele>
        <time>2014-02-23T09:04:33Z</time>
      </trkpt>
      <trkpt lat="41.626143490" lon="2.481126820">
        <ele>631.60</ele>
        <time>2014-02-23T09:04:34Z</time>
      </trkpt>
      <trkpt lat="41.626126720" lon="2.481126820">
        <ele>631.60</ele>
        <time>2014-02-23T09:04:35Z</time>
      </trkpt>
      <trkpt lat="41.626111800" lon="2.481123460">
        <ele>631.70</ele>
        <time>2014-02-23T09:04:36Z</time>
      </trkpt>
      <trkpt lat="41.626096720" lon="2.481120110">
        <ele>631.80</ele>
        <time>2014-02-23T09:04:37Z</time>
      </trkpt>
      <trkpt lat="41.626081800" lon="2.481113410">
        <ele>631.80</ele>
        <time>2014-02-23T09:04:38Z</time>
      </trkpt>
      <trkpt lat="41.626066710" lon="2.481106700">
        <ele>631.90</ele>
        <time>2014-02-23T09:04:39Z</time>
      </trkpt>
      <trkpt lat="41.626051790" lon="2.481103350">
        <ele>631.90</ele>
        <time>2014-02-23T09:04:40Z</time>
      </trkpt>
      <trkpt lat="41.626036700" lon="2.481100000">
        <ele>632.30</ele>
        <time>2014-02-23T09:04:41Z</time>
      </trkpt>
      <trkpt lat="41.626025140" lon="2.481091780">
        <ele>632.60</ele>
        <time>2014-02-23T09:04:42Z</time>
      </trkpt>
      <trkpt lat="41.626013400" lon="2.481080050">
        <ele>632.80</ele>
        <time>2014-02-23T09:04:43Z</time>
      </trkpt>
      <trkpt lat="41.626001670" lon="2.481066800">
        <ele>632.90</ele>
        <time>2014-02-23T09:04:44Z</time>
      </trkpt>
      <trkpt lat="41.625991780" lon="2.481055070">
        <ele>633.00</ele>
        <time>2014-02-23T09:04:45Z</time>
      </trkpt>
      <trkpt lat="41.625983390" lon="2.481040150">
        <ele>633.00</ele>
        <time>2014-02-23T09:04:46Z</time>
      </trkpt>
      <trkpt lat="41.625975010" lon="2.481021710">
        <ele>633.00</ele>
        <time>2014-02-23T09:04:47Z</time>
      </trkpt>
      <trkpt lat="41.625965120" lon="2.481003440">
        <ele>633.00</ele>
        <time>2014-02-23T09:04:48Z</time>
      </trkpt>
      <trkpt lat="41.625958420" lon="2.480985000">
        <ele>633.10</ele>
        <time>2014-02-23T09:04:49Z</time>
      </trkpt>
      <trkpt lat="41.625953390" lon="2.480966720">
        <ele>633.10</ele>
        <time>2014-02-23T09:04:50Z</time>
      </trkpt>
      <trkpt lat="41.625950030" lon="2.480948450">
        <ele>633.00</ele>
        <time>2014-02-23T09:04:51Z</time>
      </trkpt>
      <trkpt lat="41.625946680" lon="2.480930010">
        <ele>632.90</ele>
        <time>2014-02-23T09:04:52Z</time>
      </trkpt>
      <trkpt lat="41.625945000" lon="2.480910060">
        <ele>633.00</ele>
        <time>2014-02-23T09:04:53Z</time>
      </trkpt>
      <trkpt lat="41.625943500" lon="2.480891790">
        <ele>633.10</ele>
        <time>2014-02-23T09:04:54Z</time>
      </trkpt>
      <trkpt lat="41.625943500" lon="2.480871670">
        <ele>633.20</ele>
        <time>2014-02-23T09:04:55Z</time>
      </trkpt>
      <trkpt lat="41.625941820" lon="2.480853400">
        <ele>633.60</ele>
        <time>2014-02-23T09:04:56Z</time>
      </trkpt>
      <trkpt lat="41.625938470" lon="2.480833450">
        <ele>634.00</ele>
        <time>2014-02-23T09:04:57Z</time>
      </trkpt>
      <trkpt lat="41.625930080" lon="2.480813330">
        <ele>634.60</ele>
        <time>2014-02-23T09:04:58Z</time>
      </trkpt>
      <trkpt lat="41.625923380" lon="2.480793390">
        <ele>635.10</ele>
        <time>2014-02-23T09:04:59Z</time>
      </trkpt>
      <trkpt lat="41.625916670" lon="2.480771760">
        <ele>635.50</ele>
        <time>2014-02-23T09:05:00Z</time>
      </trkpt>
      <trkpt lat="41.625910140" lon="2.480751810">
        <ele>635.70</ele>
        <time>2014-02-23T09:05:01Z</time>
      </trkpt>
      <trkpt lat="41.625898400" lon="2.480731690">
        <ele>635.90</ele>
        <time>2014-02-23T09:05:02Z</time>
      </trkpt>
      <trkpt lat="41.625886670" lon="2.480713420">
        <ele>635.70</ele>
        <time>2014-02-23T09:05:03Z</time>
      </trkpt>
      <trkpt lat="41.625876780" lon="2.480693470">
        <ele>635.60</ele>
        <time>2014-02-23T09:05:04Z</time>
      </trkpt>
      <trkpt lat="41.625868390" lon="2.480671680">
        <ele>635.70</ele>
        <time>2014-02-23T09:05:05Z</time>
      </trkpt>
      <trkpt lat="41.625861690" lon="2.480651730">
        <ele>635.80</ele>
        <time>2014-02-23T09:05:06Z</time>
      </trkpt>
      <trkpt lat="41.625856830" lon="2.480631780">
        <ele>636.10</ele>
        <time>2014-02-23T09:05:07Z</time>
      </trkpt>
      <trkpt lat="41.625851800" lon="2.480610160">
        <ele>636.20</ele>
        <time>2014-02-23T09:05:08Z</time>
      </trkpt>
      <trkpt lat="41.625843420" lon="2.480593390">
        <ele>636.40</ele>
        <time>2014-02-23T09:05:09Z</time>
      </trkpt>
      <trkpt lat="41.625838390" lon="2.480573440">
        <ele>636.80</ele>
        <time>2014-02-23T09:05:10Z</time>
      </trkpt>
      <trkpt lat="41.625833360" lon="2.480551820">
        <ele>637.10</ele>
        <time>2014-02-23T09:05:11Z</time>
      </trkpt>
      <trkpt lat="41.625831680" lon="2.480531700">
        <ele>637.20</ele>
        <time>2014-02-23T09:05:12Z</time>
      </trkpt>
      <trkpt lat="41.625830000" lon="2.480511750">
        <ele>637.30</ele>
        <time>2014-02-23T09:05:13Z</time>
      </trkpt>
      <trkpt lat="41.625830000" lon="2.480491800">
        <ele>637.30</ele>
        <time>2014-02-23T09:05:14Z</time>
      </trkpt>
      <trkpt lat="41.625830000" lon="2.480471690">
        <ele>637.60</ele>
        <time>2014-02-23T09:05:15Z</time>
      </trkpt>
      <trkpt lat="41.625833360" lon="2.480451740">
        <ele>637.90</ele>
        <time>2014-02-23T09:05:16Z</time>
      </trkpt>
      <trkpt lat="41.625833360" lon="2.480431790">
        <ele>638.20</ele>
        <time>2014-02-23T09:05:17Z</time>
      </trkpt>
      <trkpt lat="41.625836710" lon="2.480411670">
        <ele>638.40</ele>
        <time>2014-02-23T09:05:18Z</time>
      </trkpt>
      <trkpt lat="41.625840060" lon="2.480393400">
        <ele>638.80</ele>
        <time>2014-02-23T09:05:19Z</time>
      </trkpt>
      <trkpt lat="41.625845090" lon="2.480375130">
        <ele>639.00</ele>
        <time>2014-02-23T09:05:20Z</time>
      </trkpt>
      <trkpt lat="41.625853470" lon="2.480356690">
        <ele>639.20</ele>
        <time>2014-02-23T09:05:21Z</time>
      </trkpt>
      <trkpt lat="41.625860010" lon="2.480338420">
        <ele>639.40</ele>
        <time>2014-02-23T09:05:22Z</time>
      </trkpt>
      <trkpt lat="41.625866720" lon="2.480318470">
        <ele>639.60</ele>
        <time>2014-02-23T09:05:23Z</time>
      </trkpt>
      <trkpt lat="41.625871750" lon="2.480298350">
        <ele>639.60</ele>
        <time>2014-02-23T09:05:24Z</time>
      </trkpt>
      <trkpt lat="41.625876780" lon="2.480278400">
        <ele>639.60</ele>
        <time>2014-02-23T09:05:25Z</time>
      </trkpt>
      <trkpt lat="41.625880130" lon="2.480256780">
        <ele>639.90</ele>
        <time>2014-02-23T09:05:26Z</time>
      </trkpt>
      <trkpt lat="41.625881800" lon="2.480236830">
        <ele>640.20</ele>
        <time>2014-02-23T09:05:27Z</time>
      </trkpt>
      <trkpt lat="41.625885160" lon="2.480216710">
        <ele>640.40</ele>
        <time>2014-02-23T09:05:28Z</time>
      </trkpt>
      <trkpt lat="41.625890020" lon="2.480196760">
        <ele>640.60</ele>
        <time>2014-02-23T09:05:29Z</time>
      </trkpt>
      <trkpt lat="41.625895050" lon="2.480176810">
        <ele>640.70</ele>
        <time>2014-02-23T09:05:30Z</time>
      </trkpt>
      <trkpt lat="41.625900080" lon="2.480155020">
        <ele>641.00</ele>
        <time>2014-02-23T09:05:31Z</time>
      </trkpt>
      <trkpt lat="41.625906780" lon="2.480135070">
        <ele>641.30</ele>
        <time>2014-02-23T09:05:32Z</time>
      </trkpt>
      <trkpt lat="41.625913490" lon="2.480113450">
        <ele>641.30</ele>
        <time>2014-02-23T09:05:33Z</time>
      </trkpt>
      <trkpt lat="41.625918350" lon="2.480091820">
        <ele>641.30</ele>
        <time>2014-02-23T09:05:34Z</time>
      </trkpt>
      <trkpt lat="41.625928410" lon="2.480070030">
        <ele>641.30</ele>
        <time>2014-02-23T09:05:35Z</time>
      </trkpt>
      <trkpt lat="41.625941820" lon="2.480045050">
        <ele>641.70</ele>
        <time>2014-02-23T09:05:36Z</time>
      </trkpt>
      <trkpt lat="41.625958420" lon="2.480023420">
        <ele>642.00</ele>
        <time>2014-02-23T09:05:37Z</time>
      </trkpt>
      <trkpt lat="41.625971830" lon="2.480006830">
        <ele>641.90</ele>
        <time>2014-02-23T09:05:38Z</time>
      </trkpt>
      <trkpt lat="41.625981720" lon="2.479991740">
        <ele>641.90</ele>
        <time>2014-02-23T09:05:39Z</time>
      </trkpt>
      <trkpt lat="41.625991780" lon="2.479976820">
        <ele>641.80</ele>
        <time>2014-02-23T09:05:40Z</time>
      </trkpt>
      <trkpt lat="41.626003340" lon="2.479960060">
        <ele>641.90</ele>
        <time>2014-02-23T09:05:41Z</time>
      </trkpt>
      <trkpt lat="41.626016750" lon="2.479945140">
        <ele>641.90</ele>
        <time>2014-02-23T09:05:42Z</time>
      </trkpt>
      <trkpt lat="41.626030000" lon="2.479926700">
        <ele>641.60</ele>
        <time>2014-02-23T09:05:43Z</time>
      </trkpt>
      <trkpt lat="41.626046760" lon="2.479908420">
        <ele>641.40</ele>
        <time>2014-02-23T09:05:44Z</time>
      </trkpt>
      <trkpt lat="41.626066710" lon="2.479890150">
        <ele>641.60</ele>
        <time>2014-02-23T09:05:45Z</time>
      </trkpt>
      <trkpt lat="41.626088330" lon="2.479871710">
        <ele>641.90</ele>
        <time>2014-02-23T09:05:46Z</time>
      </trkpt>
      <trkpt lat="41.626108450" lon="2.479856790">
        <ele>642.00</ele>
        <time>2014-02-23T09:05:47Z</time>
      </trkpt>
      <trkpt lat="41.626130080" lon="2.479848410">
        <ele>642.20</ele>
        <time>2014-02-23T09:05:48Z</time>
      </trkpt>
      <trkpt lat="41.626150030" lon="2.479836670">
        <ele>642.30</ele>
        <time>2014-02-23T09:05:49Z</time>
      </trkpt>
      <trkpt lat="41.626170140" lon="2.479820080">
        <ele>642.10</ele>
        <time>2014-02-23T09:05:50Z</time>
      </trkpt>
      <trkpt lat="41.626191770" lon="2.479801810">
        <ele>642.00</ele>
        <time>2014-02-23T09:05:51Z</time>
      </trkpt>
      <trkpt lat="41.626215070" lon="2.479788400">
        <ele>642.20</ele>
        <time>2014-02-23T09:05:52Z</time>
      </trkpt>
      <trkpt lat="41.626235020" lon="2.479778340">
        <ele>642.30</ele>
        <time>2014-02-23T09:05:53Z</time>
      </trkpt>
      <trkpt lat="41.626251780" lon="2.479768450">
        <ele>642.40</ele>
        <time>2014-02-23T09:05:54Z</time>
      </trkpt>
      <trkpt lat="41.626266700" lon="2.479756710">
        <ele>642.30</ele>
        <time>2014-02-23T09:05:55Z</time>
      </trkpt>
      <trkpt lat="41.626280110" lon="2.479746820">
        <ele>642.10</ele>
        <time>2014-02-23T09:05:56Z</time>
      </trkpt>
      <trkpt lat="41.626293360" lon="2.479736760">
        <ele>642.00</ele>
        <time>2014-02-23T09:05:57Z</time>
      </trkpt>
      <trkpt lat="41.626301740" lon="2.479728380">
        <ele>641.90</ele>
        <time>2014-02-23T09:05:58Z</time>
      </trkpt>
      <trkpt lat="41.626303410" lon="2.479725030">
        <ele>641.80</ele>
        <time>2014-02-23T09:05:59Z</time>
      </trkpt>
      <trkpt lat="41.626303410" lon="2.479723350">
        <ele>641.80</ele>
        <time>2014-02-23T09:06:00Z</time>
      </trkpt>
      <trkpt lat="41.626303410" lon="2.479720000">
        <ele>641.70</ele>
        <time>2014-02-23T09:06:01Z</time>
      </trkpt>
      <trkpt lat="41.626305090" lon="2.479718490">
        <ele>641.50</ele>
        <time>2014-02-23T09:06:02Z</time>
      </trkpt>
      <trkpt lat="41.626305090" lon="2.479715140">
        <ele>641.40</ele>
        <time>2014-02-23T09:06:03Z</time>
      </trkpt>
      <trkpt lat="41.626306770" lon="2.479713460">
        <ele>641.30</ele>
        <time>2014-02-23T09:06:04Z</time>
      </trkpt>
      <trkpt lat="41.626306770" lon="2.479711780">
        <ele>641.20</ele>
        <time>2014-02-23T09:06:05Z</time>
      </trkpt>
      <trkpt lat="41.626308440" lon="2.479710110">
        <ele>641.10</ele>
        <time>2014-02-23T09:06:06Z</time>
      </trkpt>
      <trkpt lat="41.626308440" lon="2.479708430">
        <ele>641.00</ele>
        <time>2014-02-23T09:06:07Z</time>
      </trkpt>
      <trkpt lat="41.626308440" lon="2.479706760">
        <ele>640.90</ele>
        <time>2014-02-23T09:06:08Z</time>
      </trkpt>
      <trkpt lat="41.626308440" lon="2.479705080">
        <ele>641.20</ele>
        <time>2014-02-23T09:06:09Z</time>
      </trkpt>
      <trkpt lat="41.626308440" lon="2.479701730">
        <ele>641.50</ele>
        <time>2014-02-23T09:06:10Z</time>
      </trkpt>
      <trkpt lat="41.626308440" lon="2.479700050">
        <ele>641.60</ele>
        <time>2014-02-23T09:06:11Z</time>
      </trkpt>
      <trkpt lat="41.626308440" lon="2.479698370">
        <ele>641.70</ele>
        <time>2014-02-23T09:06:12Z</time>
      </trkpt>
      <trkpt lat="41.626308440" lon="2.479696700">
        <ele>641.80</ele>
        <time>2014-02-23T09:06:13Z</time>
      </trkpt>
      <trkpt lat="41.626308440" lon="2.479693340">
        <ele>641.50</ele>
        <time>2014-02-23T09:06:14Z</time>
      </trkpt>
      <trkpt lat="41.626308440" lon="2.479691670">
        <ele>641.40</ele>
        <time>2014-02-23T09:06:15Z</time>
      </trkpt>
      <trkpt lat="41.626308440" lon="2.479690160">
        <ele>641.20</ele>
        <time>2014-02-23T09:06:16Z</time>
      </trkpt>
      <trkpt lat="41.626308440" lon="2.479686810">
        <ele>641.10</ele>
        <time>2014-02-23T09:06:17Z</time>
      </trkpt>
      <trkpt lat="41.626306770" lon="2.479685130">
        <ele>641.00</ele>
        <time>2014-02-23T09:06:18Z</time>
      </trkpt>
      <trkpt lat="41.626306770" lon="2.479683450">
        <ele>641.30</ele>
        <time>2014-02-23T09:06:19Z</time>
      </trkpt>
      <trkpt lat="41.626308440" lon="2.479683450">
        <ele>641.50</ele>
        <time>2014-02-23T09:06:20Z</time>
      </trkpt>
      <trkpt lat="41.626315150" lon="2.479680100">
        <ele>641.70</ele>
        <time>2014-02-23T09:06:21Z</time>
      </trkpt>
      <trkpt lat="41.626323360" lon="2.479676750">
        <ele>641.90</ele>
        <time>2014-02-23T09:06:22Z</time>
      </trkpt>
      <trkpt lat="41.626333420" lon="2.479671720">
        <ele>641.90</ele>
        <time>2014-02-23T09:06:23Z</time>
      </trkpt>
      <trkpt lat="41.626345160" lon="2.479665010">
        <ele>642.00</ele>
        <time>2014-02-23T09:06:24Z</time>
      </trkpt>
      <trkpt lat="41.626360080" lon="2.479656800">
        <ele>642.00</ele>
        <time>2014-02-23T09:06:25Z</time>
      </trkpt>
      <trkpt lat="41.626375000" lon="2.479651770">
        <ele>642.30</ele>
        <time>2014-02-23T09:06:26Z</time>
      </trkpt>
      <trkpt lat="41.626388410" lon="2.479648420">
        <ele>642.60</ele>
        <time>2014-02-23T09:06:27Z</time>
      </trkpt>
      <trkpt lat="41.626401820" lon="2.479650090">
        <ele>642.20</ele>
        <time>2014-02-23T09:06:28Z</time>
      </trkpt>
      <trkpt lat="41.626413390" lon="2.479650090">
        <ele>642.00</ele>
        <time>2014-02-23T09:06:29Z</time>
      </trkpt>
      <trkpt lat="41.626425120" lon="2.479646740">
        <ele>641.80</ele>
        <time>2014-02-23T09:06:30Z</time>
      </trkpt>
      <trkpt lat="41.626438360" lon="2.479643390">
        <ele>642.20</ele>
        <time>2014-02-23T09:06:31Z</time>
      </trkpt>
      <trkpt lat="41.626451770" lon="2.479640040">
        <ele>642.50</ele>
        <time>2014-02-23T09:06:32Z</time>
      </trkpt>
      <trkpt lat="41.626463340" lon="2.479643390">
        <ele>642.30</ele>
        <time>2014-02-23T09:06:33Z</time>
      </trkpt>
      <trkpt lat="41.626475080" lon="2.479646740">
        <ele>642.20</ele>
        <time>2014-02-23T09:06:34Z</time>
      </trkpt>
      <trkpt lat="41.626486810" lon="2.479648420">
        <ele>642.20</ele>
        <time>2014-02-23T09:06:35Z</time>
      </trkpt>
      <trkpt lat="41.626500050" lon="2.479645060">
        <ele>642.20</ele>
        <time>2014-02-23T09:06:36Z</time>
      </trkpt>
      <trkpt lat="41.626513460" lon="2.479638360">
        <ele>642.20</ele>
        <time>2014-02-23T09:06:37Z</time>
      </trkpt>
      <trkpt lat="41.626530060" lon="2.479635010">
        <ele>642.60</ele>
        <time>2014-02-23T09:06:38Z</time>
      </trkpt>
      <trkpt lat="41.626546820" lon="2.479633330">
        <ele>642.90</ele>
        <time>2014-02-23T09:06:39Z</time>
      </trkpt>
      <trkpt lat="41.626561740" lon="2.479633330">
        <ele>642.60</ele>
        <time>2014-02-23T09:06:40Z</time>
      </trkpt>
      <trkpt lat="41.626573480" lon="2.479631820">
        <ele>642.40</ele>
        <time>2014-02-23T09:06:41Z</time>
      </trkpt>
      <trkpt lat="41.626585050" lon="2.479628470">
        <ele>642.20</ele>
        <time>2014-02-23T09:06:42Z</time>
      </trkpt>
      <trkpt lat="41.626595100" lon="2.479625120">
        <ele>642.10</ele>
        <time>2014-02-23T09:06:43Z</time>
      </trkpt>
      <trkpt lat="41.626603490" lon="2.479620090">
        <ele>641.90</ele>
        <time>2014-02-23T09:06:44Z</time>
      </trkpt>
      <trkpt lat="41.626610020" lon="2.479616730">
        <ele>641.80</ele>
        <time>2014-02-23T09:06:45Z</time>
      </trkpt>
      <trkpt lat="41.626618410" lon="2.479611700">
        <ele>641.60</ele>
        <time>2014-02-23T09:06:46Z</time>
      </trkpt>
      <trkpt lat="41.626620080" lon="2.479610030">
        <ele>641.80</ele>
        <time>2014-02-23T09:06:47Z</time>
      </trkpt>
      <trkpt lat="41.626620080" lon="2.479606680">
        <ele>641.90</ele>
        <time>2014-02-23T09:06:48Z</time>
      </trkpt>
      <trkpt lat="41.626621760" lon="2.479606680">
        <ele>641.90</ele>
        <time>2014-02-23T09:06:49Z</time>
      </trkpt>
      <trkpt lat="41.626621760" lon="2.479608350">
        <ele>641.90</ele>
        <time>2014-02-23T09:06:50Z</time>
      </trkpt>
      <trkpt lat="41.626621760" lon="2.479608350">
        <ele>641.90</ele>
        <time>2014-02-23T09:06:51Z</time>
      </trkpt>
      <trkpt lat="41.626623440" lon="2.479608350">
        <ele>641.70</ele>
        <time>2014-02-23T09:06:52Z</time>
      </trkpt>
      <trkpt lat="41.626625110" lon="2.479608350">
        <ele>641.50</ele>
        <time>2014-02-23T09:06:53Z</time>
      </trkpt>
      <trkpt lat="41.626625110" lon="2.479606680">
        <ele>641.20</ele>
        <time>2014-02-23T09:06:54Z</time>
      </trkpt>
      <trkpt lat="41.626626790" lon="2.479606680">
        <ele>641.00</ele>
        <time>2014-02-23T09:06:55Z</time>
      </trkpt>
      <trkpt lat="41.626626790" lon="2.479606680">
        <ele>640.90</ele>
        <time>2014-02-23T09:06:56Z</time>
      </trkpt>
      <trkpt lat="41.626628460" lon="2.479606680">
        <ele>640.90</ele>
        <time>2014-02-23T09:06:57Z</time>
      </trkpt>
      <trkpt lat="41.626630140" lon="2.479608350">
        <ele>641.00</ele>
        <time>2014-02-23T09:06:58Z</time>
      </trkpt>
      <trkpt lat="41.626630140" lon="2.479606680">
        <ele>641.00</ele>
        <time>2014-02-23T09:06:59Z</time>
      </trkpt>
      <trkpt lat="41.626631820" lon="2.479606680">
        <ele>641.00</ele>
        <time>2014-02-23T09:07:00Z</time>
      </trkpt>
      <trkpt lat="41.626631820" lon="2.479606680">
        <ele>641.00</ele>
        <time>2014-02-23T09:07:01Z</time>
      </trkpt>
      <trkpt lat="41.626631820" lon="2.479605000">
        <ele>641.00</ele>
        <time>2014-02-23T09:07:02Z</time>
      </trkpt>
      <trkpt lat="41.626633490" lon="2.479605000">
        <ele>641.00</ele>
        <time>2014-02-23T09:07:03Z</time>
      </trkpt>
      <trkpt lat="41.626633490" lon="2.479605000">
        <ele>640.90</ele>
        <time>2014-02-23T09:07:04Z</time>
      </trkpt>
      <trkpt lat="41.626633490" lon="2.479605000">
        <ele>640.80</ele>
        <time>2014-02-23T09:07:05Z</time>
      </trkpt>
      <trkpt lat="41.626635000" lon="2.479605000">
        <ele>640.70</ele>
        <time>2014-02-23T09:07:06Z</time>
      </trkpt>
      <trkpt lat="41.626635000" lon="2.479606680">
        <ele>640.70</ele>
        <time>2014-02-23T09:07:07Z</time>
      </trkpt>
      <trkpt lat="41.626635000" lon="2.479606680">
        <ele>640.70</ele>
        <time>2014-02-23T09:07:08Z</time>
      </trkpt>
      <trkpt lat="41.626636680" lon="2.479606680">
        <ele>640.70</ele>
        <time>2014-02-23T09:07:09Z</time>
      </trkpt>
      <trkpt lat="41.626636680" lon="2.479608350">
        <ele>640.70</ele>
        <time>2014-02-23T09:07:10Z</time>
      </trkpt>
      <trkpt lat="41.626638360" lon="2.479608350">
        <ele>640.50</ele>
        <time>2014-02-23T09:07:11Z</time>
      </trkpt>
      <trkpt lat="41.626638360" lon="2.479608350">
        <ele>640.40</ele>
        <time>2014-02-23T09:07:12Z</time>
      </trkpt>
      <trkpt lat="41.626640030" lon="2.479608350">
        <ele>640.60</ele>
        <time>2014-02-23T09:07:13Z</time>
      </trkpt>
      <trkpt lat="41.626646740" lon="2.479603490">
        <ele>640.70</ele>
        <time>2014-02-23T09:07:14Z</time>
      </trkpt>
      <trkpt lat="41.626650090" lon="2.479591760">
        <ele>640.80</ele>
        <time>2014-02-23T09:07:15Z</time>
      </trkpt>
      <trkpt lat="41.626646740" lon="2.479578340">
        <ele>641.10</ele>
        <time>2014-02-23T09:07:16Z</time>
      </trkpt>
      <trkpt lat="41.626636680" lon="2.479568450">
        <ele>641.30</ele>
        <time>2014-02-23T09:07:17Z</time>
      </trkpt>
      <trkpt lat="41.626626790" lon="2.479565100">
        <ele>641.10</ele>
        <time>2014-02-23T09:07:18Z</time>
      </trkpt>
      <trkpt lat="41.626616730" lon="2.479568450">
        <ele>640.90</ele>
        <time>2014-02-23T09:07:19Z</time>
      </trkpt>
      <trkpt lat="41.626608350" lon="2.479573480">
        <ele>641.00</ele>
        <time>2014-02-23T09:07:20Z</time>
      </trkpt>
      <trkpt lat="41.626600130" lon="2.479581700">
        <ele>641.10</ele>
        <time>2014-02-23T09:07:21Z</time>
      </trkpt>
      <trkpt lat="41.626591750" lon="2.479588400">
        <ele>641.10</ele>
        <time>2014-02-23T09:07:22Z</time>
      </trkpt>
      <trkpt lat="41.626583370" lon="2.479595110">
        <ele>641.30</ele>
        <time>2014-02-23T09:07:23Z</time>
      </trkpt>
      <trkpt lat="41.626575160" lon="2.479598460">
        <ele>641.40</ele>
        <time>2014-02-23T09:07:24Z</time>
      </trkpt>
      <trkpt lat="41.626566770" lon="2.479598460">
        <ele>641.30</ele>
        <time>2014-02-23T09:07:25Z</time>
      </trkpt>
      <trkpt lat="41.626558390" lon="2.479600140">
        <ele>641.30</ele>
        <time>2014-02-23T09:07:26Z</time>
      </trkpt>
      <trkpt lat="41.626548330" lon="2.479603490">
        <ele>641.40</ele>
        <time>2014-02-23T09:07:27Z</time>
      </trkpt>
      <trkpt lat="41.626540120" lon="2.479606680">
        <ele>641.50</ele>
        <time>2014-02-23T09:07:28Z</time>
      </trkpt>
      <trkpt lat="41.626533410" lon="2.479615060">
        <ele>641.50</ele>
        <time>2014-02-23T09:07:29Z</time>
      </trkpt>
      <trkpt lat="41.626528380" lon="2.479625120">
        <ele>641.20</ele>
        <time>2014-02-23T09:07:30Z</time>
      </trkpt>
      <trkpt lat="41.626530060" lon="2.479638360">
        <ele>640.90</ele>
        <time>2014-02-23T09:07:31Z</time>
      </trkpt>
      <trkpt lat="41.626538440" lon="2.479646740">
        <ele>641.00</ele>
        <time>2014-02-23T09:07:32Z</time>
      </trkpt>
      <trkpt lat="41.626546820" lon="2.479651770">
        <ele>641.10</ele>
        <time>2014-02-23T09:07:33Z</time>
      </trkpt>
      <trkpt lat="41.626560070" lon="2.479653450">
        <ele>641.10</ele>
        <time>2014-02-23T09:07:34Z</time>
      </trkpt>
      <trkpt lat="41.626575160" lon="2.479650090">
        <ele>641.20</ele>
        <time>2014-02-23T09:07:35Z</time>
      </trkpt>
      <trkpt lat="41.626591750" lon="2.479645060">
        <ele>641.30</ele>
        <time>2014-02-23T09:07:36Z</time>
      </trkpt>
      <trkpt lat="41.626610020" lon="2.479641710">
        <ele>641.50</ele>
        <time>2014-02-23T09:07:37Z</time>
      </trkpt>
      <trkpt lat="41.626626790" lon="2.479635010">
        <ele>641.60</ele>
        <time>2014-02-23T09:07:38Z</time>
      </trkpt>
      <trkpt lat="41.626643380" lon="2.479628470">
        <ele>641.60</ele>
        <time>2014-02-23T09:07:39Z</time>
      </trkpt>
      <trkpt lat="41.626660150" lon="2.479621760">
        <ele>641.60</ele>
        <time>2014-02-23T09:07:40Z</time>
      </trkpt>
      <trkpt lat="41.626676740" lon="2.479615060">
        <ele>641.50</ele>
        <time>2014-02-23T09:07:41Z</time>
      </trkpt>
      <trkpt lat="41.626695020" lon="2.479608350">
        <ele>641.40</ele>
        <time>2014-02-23T09:07:42Z</time>
      </trkpt>
      <trkpt lat="41.626713460" lon="2.479601810">
        <ele>641.20</ele>
        <time>2014-02-23T09:07:43Z</time>
      </trkpt>
      <trkpt lat="41.626731730" lon="2.479595110">
        <ele>641.30</ele>
        <time>2014-02-23T09:07:44Z</time>
      </trkpt>
      <trkpt lat="41.626748490" lon="2.479588400">
        <ele>641.30</ele>
        <time>2014-02-23T09:07:45Z</time>
      </trkpt>
      <trkpt lat="41.626766770" lon="2.479583370">
        <ele>641.30</ele>
        <time>2014-02-23T09:07:46Z</time>
      </trkpt>
      <trkpt lat="41.626785040" lon="2.479578340">
        <ele>641.40</ele>
        <time>2014-02-23T09:07:47Z</time>
      </trkpt>
      <trkpt lat="41.626803480" lon="2.479575160">
        <ele>641.40</ele>
        <time>2014-02-23T09:07:48Z</time>
      </trkpt>
      <trkpt lat="41.626820070" lon="2.479570130">
        <ele>641.40</ele>
        <time>2014-02-23T09:07:49Z</time>
      </trkpt>
      <trkpt lat="41.626838350" lon="2.479561750">
        <ele>641.30</ele>
        <time>2014-02-23T09:07:50Z</time>
      </trkpt>
      <trkpt lat="41.626855110" lon="2.479553370">
        <ele>641.20</ele>
        <time>2014-02-23T09:07:51Z</time>
      </trkpt>
      <trkpt lat="41.626871710" lon="2.479543480">
        <ele>641.00</ele>
        <time>2014-02-23T09:07:52Z</time>
      </trkpt>
      <trkpt lat="41.626890150" lon="2.479533420">
        <ele>640.90</ele>
        <time>2014-02-23T09:07:53Z</time>
      </trkpt>
      <trkpt lat="41.626908420" lon="2.479521680">
        <ele>641.00</ele>
        <time>2014-02-23T09:07:54Z</time>
      </trkpt>
      <trkpt lat="41.626928370" lon="2.479508440">
        <ele>641.10</ele>
        <time>2014-02-23T09:07:55Z</time>
      </trkpt>
      <trkpt lat="41.626950160" lon="2.479498380">
        <ele>641.10</ele>
        <time>2014-02-23T09:07:56Z</time>
      </trkpt>
      <trkpt lat="41.626968430" lon="2.479483460">
        <ele>641.00</ele>
        <time>2014-02-23T09:07:57Z</time>
      </trkpt>
      <trkpt lat="41.626990060" lon="2.479470050">
        <ele>640.90</ele>
        <time>2014-02-23T09:07:58Z</time>
      </trkpt>
      <trkpt lat="41.627011690" lon="2.479456810">
        <ele>640.80</ele>
        <time>2014-02-23T09:07:59Z</time>
      </trkpt>
      <trkpt lat="41.627031800" lon="2.479445070">
        <ele>640.70</ele>
        <time>2014-02-23T09:08:00Z</time>
      </trkpt>
      <trkpt lat="41.627053430" lon="2.479433340">
        <ele>640.70</ele>
        <time>2014-02-23T09:08:01Z</time>
      </trkpt>
      <trkpt lat="41.627073380" lon="2.479421770">
        <ele>640.70</ele>
        <time>2014-02-23T09:08:02Z</time>
      </trkpt>
      <trkpt lat="41.627093490" lon="2.479411710">
        <ele>641.00</ele>
        <time>2014-02-23T09:08:03Z</time>
      </trkpt>
      <trkpt lat="41.627113440" lon="2.479401820">
        <ele>641.20</ele>
        <time>2014-02-23T09:08:04Z</time>
      </trkpt>
      <trkpt lat="41.627131710" lon="2.479393440">
        <ele>641.00</ele>
        <time>2014-02-23T09:08:05Z</time>
      </trkpt>
      <trkpt lat="41.627153340" lon="2.479386730">
        <ele>640.80</ele>
        <time>2014-02-23T09:08:06Z</time>
      </trkpt>
      <trkpt lat="41.627173460" lon="2.479380030">
        <ele>640.60</ele>
        <time>2014-02-23T09:08:07Z</time>
      </trkpt>
      <trkpt lat="41.627193400" lon="2.479375000">
        <ele>640.60</ele>
        <time>2014-02-23T09:08:08Z</time>
      </trkpt>
      <trkpt lat="41.627215030" lon="2.479373490">
        <ele>640.70</ele>
        <time>2014-02-23T09:08:09Z</time>
      </trkpt>
      <trkpt lat="41.627235150" lon="2.479368460">
        <ele>641.10</ele>
        <time>2014-02-23T09:08:10Z</time>
      </trkpt>
      <trkpt lat="41.627255100" lon="2.479365110">
        <ele>641.40</ele>
        <time>2014-02-23T09:08:11Z</time>
      </trkpt>
      <trkpt lat="41.627273370" lon="2.479356730">
        <ele>641.70</ele>
        <time>2014-02-23T09:08:12Z</time>
      </trkpt>
      <trkpt lat="41.627293480" lon="2.479350020">
        <ele>641.90</ele>
        <time>2014-02-23T09:08:13Z</time>
      </trkpt>
      <trkpt lat="41.627313430" lon="2.479341810">
        <ele>642.10</ele>
        <time>2014-02-23T09:08:14Z</time>
      </trkpt>
      <trkpt lat="41.627333380" lon="2.479331750">
        <ele>641.90</ele>
        <time>2014-02-23T09:08:15Z</time>
      </trkpt>
      <trkpt lat="41.627353330" lon="2.479323370">
        <ele>641.80</ele>
        <time>2014-02-23T09:08:16Z</time>
      </trkpt>
      <trkpt lat="41.627373450" lon="2.479316660">
        <ele>642.00</ele>
        <time>2014-02-23T09:08:17Z</time>
      </trkpt>
      <trkpt lat="41.627393400" lon="2.479306770">
        <ele>642.10</ele>
        <time>2014-02-23T09:08:18Z</time>
      </trkpt>
      <trkpt lat="41.627413350" lon="2.479296710">
        <ele>642.30</ele>
        <time>2014-02-23T09:08:19Z</time>
      </trkpt>
      <trkpt lat="41.627435140" lon="2.479288330">
        <ele>642.00</ele>
        <time>2014-02-23T09:08:20Z</time>
      </trkpt>
      <trkpt lat="41.627453410" lon="2.479280120">
        <ele>641.80</ele>
        <time>2014-02-23T09:08:21Z</time>
      </trkpt>
      <trkpt lat="41.627470010" lon="2.479271730">
        <ele>641.90</ele>
        <time>2014-02-23T09:08:22Z</time>
      </trkpt>
      <trkpt lat="41.627483420" lon="2.479261680">
        <ele>641.90</ele>
        <time>2014-02-23T09:08:23Z</time>
      </trkpt>
      <trkpt lat="41.627496660" lon="2.479258490">
        <ele>642.10</ele>
        <time>2014-02-23T09:08:24Z</time>
      </trkpt>
      <trkpt lat="41.627511750" lon="2.479253460">
        <ele>642.10</ele>
        <time>2014-02-23T09:08:25Z</time>
      </trkpt>
      <trkpt lat="41.627523480" lon="2.479241730">
        <ele>642.20</ele>
        <time>2014-02-23T09:08:26Z</time>
      </trkpt>
      <trkpt lat="41.627535050" lon="2.479228480">
        <ele>642.40</ele>
        <time>2014-02-23T09:08:27Z</time>
      </trkpt>
      <trkpt lat="41.627546790" lon="2.479215070">
        <ele>642.60</ele>
        <time>2014-02-23T09:08:28Z</time>
      </trkpt>
      <trkpt lat="41.627560030" lon="2.479200150">
        <ele>642.80</ele>
        <time>2014-02-23T09:08:29Z</time>
      </trkpt>
      <trkpt lat="41.627571760" lon="2.479186740">
        <ele>642.90</ele>
        <time>2014-02-23T09:08:30Z</time>
      </trkpt>
      <trkpt lat="41.627585010" lon="2.479173330">
        <ele>642.90</ele>
        <time>2014-02-23T09:08:31Z</time>
      </trkpt>
      <trkpt lat="41.627595070" lon="2.479163440">
        <ele>643.30</ele>
        <time>2014-02-23T09:08:32Z</time>
      </trkpt>
      <trkpt lat="41.627606800" lon="2.479151710">
        <ele>643.60</ele>
        <time>2014-02-23T09:08:33Z</time>
      </trkpt>
      <trkpt lat="41.627621720" lon="2.479133430">
        <ele>643.50</ele>
        <time>2014-02-23T09:08:34Z</time>
      </trkpt>
      <trkpt lat="41.627641670" lon="2.479115160">
        <ele>643.40</ele>
        <time>2014-02-23T09:08:35Z</time>
      </trkpt>
      <trkpt lat="41.627656760" lon="2.479106780">
        <ele>643.00</ele>
        <time>2014-02-23T09:08:36Z</time>
      </trkpt>
      <trkpt lat="41.627670000" lon="2.479098400">
        <ele>642.80</ele>
        <time>2014-02-23T09:08:37Z</time>
      </trkpt>
      <trkpt lat="41.627685090" lon="2.479081800">
        <ele>642.60</ele>
        <time>2014-02-23T09:08:38Z</time>
      </trkpt>
      <trkpt lat="41.627705040" lon="2.479058330">
        <ele>642.20</ele>
        <time>2014-02-23T09:08:39Z</time>
      </trkpt>
      <trkpt lat="41.627723480" lon="2.479031680">
        <ele>642.00</ele>
        <time>2014-02-23T09:08:40Z</time>
      </trkpt>
      <trkpt lat="41.627743430" lon="2.479003350">
        <ele>641.80</ele>
        <time>2014-02-23T09:08:41Z</time>
      </trkpt>
      <trkpt lat="41.627766730" lon="2.478973340">
        <ele>641.60</ele>
        <time>2014-02-23T09:08:42Z</time>
      </trkpt>
      <trkpt lat="41.627786680" lon="2.478946680">
        <ele>641.50</ele>
        <time>2014-02-23T09:08:43Z</time>
      </trkpt>
      <trkpt lat="41.627806790" lon="2.478920030">
        <ele>641.50</ele>
        <time>2014-02-23T09:08:44Z</time>
      </trkpt>
      <trkpt lat="41.627826740" lon="2.478891700">
        <ele>641.40</ele>
        <time>2014-02-23T09:08:45Z</time>
      </trkpt>
      <trkpt lat="41.627846690" lon="2.478865040">
        <ele>640.90</ele>
        <time>2014-02-23T09:08:46Z</time>
      </trkpt>
      <trkpt lat="41.627868480" lon="2.478838390">
        <ele>640.50</ele>
        <time>2014-02-23T09:08:47Z</time>
      </trkpt>
      <trkpt lat="41.627891790" lon="2.478813410">
        <ele>640.50</ele>
        <time>2014-02-23T09:08:48Z</time>
      </trkpt>
      <trkpt lat="41.627915090" lon="2.478788430">
        <ele>640.50</ele>
        <time>2014-02-23T09:08:49Z</time>
      </trkpt>
      <trkpt lat="41.627933360" lon="2.478763460">
        <ele>640.80</ele>
        <time>2014-02-23T09:08:50Z</time>
      </trkpt>
      <trkpt lat="41.627956830" lon="2.478738480">
        <ele>641.00</ele>
        <time>2014-02-23T09:08:51Z</time>
      </trkpt>
      <trkpt lat="41.627981810" lon="2.478716690">
        <ele>641.10</ele>
        <time>2014-02-23T09:08:52Z</time>
      </trkpt>
      <trkpt lat="41.628010140" lon="2.478691710">
        <ele>640.90</ele>
        <time>2014-02-23T09:08:53Z</time>
      </trkpt>
      <trkpt lat="41.628040140" lon="2.478666730">
        <ele>640.80</ele>
        <time>2014-02-23T09:08:54Z</time>
      </trkpt>
      <trkpt lat="41.628063450" lon="2.478640070">
        <ele>640.50</ele>
        <time>2014-02-23T09:08:55Z</time>
      </trkpt>
      <trkpt lat="41.628090100" lon="2.478616770">
        <ele>640.20</ele>
        <time>2014-02-23T09:08:56Z</time>
      </trkpt>
      <trkpt lat="41.628113400" lon="2.478590120">
        <ele>640.10</ele>
        <time>2014-02-23T09:08:57Z</time>
      </trkpt>
      <trkpt lat="41.628133350" lon="2.478558430">
        <ele>639.80</ele>
        <time>2014-02-23T09:08:58Z</time>
      </trkpt>
      <trkpt lat="41.628153470" lon="2.478525070">
        <ele>639.60</ele>
        <time>2014-02-23T09:08:59Z</time>
      </trkpt>
      <trkpt lat="41.628173420" lon="2.478491710">
        <ele>639.60</ele>
        <time>2014-02-23T09:09:00Z</time>
      </trkpt>
      <trkpt lat="41.628195040" lon="2.478455000">
        <ele>639.70</ele>
        <time>2014-02-23T09:09:01Z</time>
      </trkpt>
      <trkpt lat="41.628215160" lon="2.478421810">
        <ele>639.50</ele>
        <time>2014-02-23T09:09:02Z</time>
      </trkpt>
      <trkpt lat="41.628236780" lon="2.478388450">
        <ele>639.30</ele>
        <time>2014-02-23T09:09:03Z</time>
      </trkpt>
      <trkpt lat="41.628258410" lon="2.478355090">
        <ele>639.20</ele>
        <time>2014-02-23T09:09:04Z</time>
      </trkpt>
      <trkpt lat="41.628276680" lon="2.478320050">
        <ele>639.20</ele>
        <time>2014-02-23T09:09:05Z</time>
      </trkpt>
      <trkpt lat="41.628300150" lon="2.478290050">
        <ele>639.10</ele>
        <time>2014-02-23T09:09:06Z</time>
      </trkpt>
      <trkpt lat="41.628325130" lon="2.478263390">
        <ele>639.00</ele>
        <time>2014-02-23T09:09:07Z</time>
      </trkpt>
      <trkpt lat="41.628343400" lon="2.478235060">
        <ele>638.90</ele>
        <time>2014-02-23T09:09:08Z</time>
      </trkpt>
      <trkpt lat="41.628365030" lon="2.478206730">
        <ele>638.80</ele>
        <time>2014-02-23T09:09:09Z</time>
      </trkpt>
      <trkpt lat="41.628388330" lon="2.478180080">
        <ele>638.60</ele>
        <time>2014-02-23T09:09:10Z</time>
      </trkpt>
      <trkpt lat="41.628413470" lon="2.478155100">
        <ele>638.40</ele>
        <time>2014-02-23T09:09:11Z</time>
      </trkpt>
      <trkpt lat="41.628433420" lon="2.478125090">
        <ele>638.40</ele>
        <time>2014-02-23T09:09:12Z</time>
      </trkpt>
      <trkpt lat="41.628455050" lon="2.478095080">
        <ele>638.40</ele>
        <time>2014-02-23T09:09:13Z</time>
      </trkpt>
      <trkpt lat="41.628476670" lon="2.478065080">
        <ele>638.60</ele>
        <time>2014-02-23T09:09:14Z</time>
      </trkpt>
      <trkpt lat="41.628500140" lon="2.478041770">
        <ele>638.70</ele>
        <time>2014-02-23T09:09:15Z</time>
      </trkpt>
      <trkpt lat="41.628523450" lon="2.478018470">
        <ele>638.80</ele>
        <time>2014-02-23T09:09:16Z</time>
      </trkpt>
      <trkpt lat="41.628538370" lon="2.477995000">
        <ele>638.60</ele>
        <time>2014-02-23T09:09:17Z</time>
      </trkpt>
      <trkpt lat="41.628556810" lon="2.477976730">
        <ele>638.50</ele>
        <time>2014-02-23T09:09:18Z</time>
      </trkpt>
      <trkpt lat="41.628580110" lon="2.477956780">
        <ele>638.60</ele>
        <time>2014-02-23T09:09:19Z</time>
      </trkpt>
      <trkpt lat="41.628605090" lon="2.477930130">
        <ele>638.70</ele>
        <time>2014-02-23T09:09:20Z</time>
      </trkpt>
      <trkpt lat="41.628625030" lon="2.477906830">
        <ele>638.70</ele>
        <time>2014-02-23T09:09:21Z</time>
      </trkpt>
      <trkpt lat="41.628651690" lon="2.477890060">
        <ele>638.60</ele>
        <time>2014-02-23T09:09:22Z</time>
      </trkpt>
      <trkpt lat="41.628675160" lon="2.477880000">
        <ele>638.60</ele>
        <time>2014-02-23T09:09:23Z</time>
      </trkpt>
      <trkpt lat="41.628696780" lon="2.477876820">
        <ele>638.40</ele>
        <time>2014-02-23T09:09:24Z</time>
      </trkpt>
      <trkpt lat="41.628715060" lon="2.477868440">
        <ele>638.20</ele>
        <time>2014-02-23T09:09:25Z</time>
      </trkpt>
      <trkpt lat="41.628730140" lon="2.477858380">
        <ele>638.10</ele>
        <time>2014-02-23T09:09:26Z</time>
      </trkpt>
      <trkpt lat="41.628745060" lon="2.477853350">
        <ele>638.00</ele>
        <time>2014-02-23T09:09:27Z</time>
      </trkpt>
      <trkpt lat="41.628760150" lon="2.477846810">
        <ele>637.80</ele>
        <time>2014-02-23T09:09:28Z</time>
      </trkpt>
      <trkpt lat="41.628775070" lon="2.477841780">
        <ele>637.70</ele>
        <time>2014-02-23T09:09:29Z</time>
      </trkpt>
      <trkpt lat="41.628793340" lon="2.477840110">
        <ele>637.60</ele>
        <time>2014-02-23T09:09:30Z</time>
      </trkpt>
      <trkpt lat="41.628810110" lon="2.477838430">
        <ele>637.50</ele>
        <time>2014-02-23T09:09:31Z</time>
      </trkpt>
      <trkpt lat="41.628826700" lon="2.477833400">
        <ele>637.40</ele>
        <time>2014-02-23T09:09:32Z</time>
      </trkpt>
      <trkpt lat="41.628850000" lon="2.477828370">
        <ele>637.40</ele>
        <time>2014-02-23T09:09:33Z</time>
      </trkpt>
      <trkpt lat="41.628878340" lon="2.477823340">
        <ele>637.40</ele>
        <time>2014-02-23T09:09:34Z</time>
      </trkpt>
      <trkpt lat="41.628901800" lon="2.477818480">
        <ele>637.40</ele>
        <time>2014-02-23T09:09:35Z</time>
      </trkpt>
      <trkpt lat="41.628920080" lon="2.477816800">
        <ele>637.30</ele>
        <time>2014-02-23T09:09:36Z</time>
      </trkpt>
      <trkpt lat="41.628938350" lon="2.477813450">
        <ele>637.20</ele>
        <time>2014-02-23T09:09:37Z</time>
      </trkpt>
      <trkpt lat="41.628956790" lon="2.477805070">
        <ele>637.40</ele>
        <time>2014-02-23T09:09:38Z</time>
      </trkpt>
      <trkpt lat="41.628975060" lon="2.477796690">
        <ele>637.60</ele>
        <time>2014-02-23T09:09:39Z</time>
      </trkpt>
      <trkpt lat="41.628991830" lon="2.477788470">
        <ele>637.70</ele>
        <time>2014-02-23T09:09:40Z</time>
      </trkpt>
      <trkpt lat="41.629011780" lon="2.477776740">
        <ele>637.80</ele>
        <time>2014-02-23T09:09:41Z</time>
      </trkpt>
      <trkpt lat="41.629031720" lon="2.477763500">
        <ele>637.80</ele>
        <time>2014-02-23T09:09:42Z</time>
      </trkpt>
      <trkpt lat="41.629056700" lon="2.477751760">
        <ele>637.90</ele>
        <time>2014-02-23T09:09:43Z</time>
      </trkpt>
      <trkpt lat="41.629081680" lon="2.477738350">
        <ele>638.00</ele>
        <time>2014-02-23T09:09:44Z</time>
      </trkpt>
      <trkpt lat="41.629103470" lon="2.477733490">
        <ele>637.90</ele>
        <time>2014-02-23T09:09:45Z</time>
      </trkpt>
      <trkpt lat="41.629123420" lon="2.477725110">
        <ele>637.90</ele>
        <time>2014-02-23T09:09:46Z</time>
      </trkpt>
      <trkpt lat="41.629143370" lon="2.477718400">
        <ele>637.90</ele>
        <time>2014-02-23T09:09:47Z</time>
      </trkpt>
      <trkpt lat="41.629161810" lon="2.477711690">
        <ele>638.00</ele>
        <time>2014-02-23T09:09:48Z</time>
      </trkpt>
      <trkpt lat="41.629181760" lon="2.477705160">
        <ele>638.00</ele>
        <time>2014-02-23T09:09:49Z</time>
      </trkpt>
      <trkpt lat="41.629201710" lon="2.477693420">
        <ele>638.40</ele>
        <time>2014-02-23T09:09:50Z</time>
      </trkpt>
      <trkpt lat="41.629225010" lon="2.477680010">
        <ele>638.70</ele>
        <time>2014-02-23T09:09:51Z</time>
      </trkpt>
      <trkpt lat="41.629246800" lon="2.477660060">
        <ele>638.40</ele>
        <time>2014-02-23T09:09:52Z</time>
      </trkpt>
      <trkpt lat="41.629266750" lon="2.477640110">
        <ele>638.10</ele>
        <time>2014-02-23T09:09:53Z</time>
      </trkpt>
      <trkpt lat="41.629290050" lon="2.477625030">
        <ele>637.90</ele>
        <time>2014-02-23T09:09:54Z</time>
      </trkpt>
      <trkpt lat="41.629320060" lon="2.477613460">
        <ele>638.00</ele>
        <time>2014-02-23T09:09:55Z</time>
      </trkpt>
      <trkpt lat="41.629350070" lon="2.477603400">
        <ele>638.20</ele>
        <time>2014-02-23T09:09:56Z</time>
      </trkpt>
      <trkpt lat="41.629375050" lon="2.477586800">
        <ele>638.40</ele>
        <time>2014-02-23T09:09:57Z</time>
      </trkpt>
      <trkpt lat="41.629401700" lon="2.477571720">
        <ele>638.50</ele>
        <time>2014-02-23T09:09:58Z</time>
      </trkpt>
      <trkpt lat="41.629431710" lon="2.477555120">
        <ele>638.30</ele>
        <time>2014-02-23T09:09:59Z</time>
      </trkpt>
      <trkpt lat="41.629458360" lon="2.477540030">
        <ele>638.10</ele>
        <time>2014-02-23T09:10:00Z</time>
      </trkpt>
      <trkpt lat="41.629490050" lon="2.477525110">
        <ele>637.90</ele>
        <time>2014-02-23T09:10:01Z</time>
      </trkpt>
      <trkpt lat="41.629513350" lon="2.477508350">
        <ele>638.00</ele>
        <time>2014-02-23T09:10:02Z</time>
      </trkpt>
      <trkpt lat="41.629536820" lon="2.477498460">
        <ele>638.00</ele>
        <time>2014-02-23T09:10:03Z</time>
      </trkpt>
      <trkpt lat="41.629560120" lon="2.477490080">
        <ele>637.90</ele>
        <time>2014-02-23T09:10:04Z</time>
      </trkpt>
      <trkpt lat="41.629581740" lon="2.477478340">
        <ele>637.80</ele>
        <time>2014-02-23T09:10:05Z</time>
      </trkpt>
      <trkpt lat="41.629600020" lon="2.477465100">
        <ele>638.10</ele>
        <time>2014-02-23T09:10:06Z</time>
      </trkpt>
      <trkpt lat="41.629623490" lon="2.477453360">
        <ele>638.30</ele>
        <time>2014-02-23T09:10:07Z</time>
      </trkpt>
      <trkpt lat="41.629645110" lon="2.477438440">
        <ele>638.40</ele>
        <time>2014-02-23T09:10:08Z</time>
      </trkpt>
      <trkpt lat="41.629670090" lon="2.477423360">
        <ele>638.50</ele>
        <time>2014-02-23T09:10:09Z</time>
      </trkpt>
      <trkpt lat="41.629691720" lon="2.477408440">
        <ele>638.50</ele>
        <time>2014-02-23T09:10:10Z</time>
      </trkpt>
      <trkpt lat="41.629710160" lon="2.477398380">
        <ele>638.50</ele>
        <time>2014-02-23T09:10:11Z</time>
      </trkpt>
      <trkpt lat="41.629726750" lon="2.477383460">
        <ele>638.60</ele>
        <time>2014-02-23T09:10:12Z</time>
      </trkpt>
      <trkpt lat="41.629743350" lon="2.477370050">
        <ele>638.60</ele>
        <time>2014-02-23T09:10:13Z</time>
      </trkpt>
      <trkpt lat="41.629763460" lon="2.477353450">
        <ele>638.80</ele>
        <time>2014-02-23T09:10:14Z</time>
      </trkpt>
      <trkpt lat="41.629783410" lon="2.477330150">
        <ele>638.90</ele>
        <time>2014-02-23T09:10:15Z</time>
      </trkpt>
      <trkpt lat="41.629806710" lon="2.477308360">
        <ele>638.60</ele>
        <time>2014-02-23T09:10:16Z</time>
      </trkpt>
      <trkpt lat="41.629828340" lon="2.477285060">
        <ele>638.30</ele>
        <time>2014-02-23T09:10:17Z</time>
      </trkpt>
      <trkpt lat="41.629851810" lon="2.477265110">
        <ele>638.30</ele>
        <time>2014-02-23T09:10:18Z</time>
      </trkpt>
      <trkpt lat="41.629875110" lon="2.477246670">
        <ele>638.30</ele>
        <time>2014-02-23T09:10:19Z</time>
      </trkpt>
      <trkpt lat="41.629898410" lon="2.477226720">
        <ele>638.20</ele>
        <time>2014-02-23T09:10:20Z</time>
      </trkpt>
      <trkpt lat="41.629920040" lon="2.477205090">
        <ele>638.40</ele>
        <time>2014-02-23T09:10:21Z</time>
      </trkpt>
      <trkpt lat="41.629941660" lon="2.477185140">
        <ele>638.40</ele>
        <time>2014-02-23T09:10:22Z</time>
      </trkpt>
      <trkpt lat="41.629958430" lon="2.477161670">
        <ele>638.40</ele>
        <time>2014-02-23T09:10:23Z</time>
      </trkpt>
      <trkpt lat="41.629975020" lon="2.477138370">
        <ele>638.40</ele>
        <time>2014-02-23T09:10:24Z</time>
      </trkpt>
      <trkpt lat="41.629993460" lon="2.477113390">
        <ele>638.60</ele>
        <time>2014-02-23T09:10:25Z</time>
      </trkpt>
      <trkpt lat="41.630010060" lon="2.477088420">
        <ele>638.80</ele>
        <time>2014-02-23T09:10:26Z</time>
      </trkpt>
      <trkpt lat="41.630026820" lon="2.477065110">
        <ele>638.90</ele>
        <time>2014-02-23T09:10:27Z</time>
      </trkpt>
      <trkpt lat="41.630043420" lon="2.477040140">
        <ele>639.10</ele>
        <time>2014-02-23T09:10:28Z</time>
      </trkpt>
      <trkpt lat="41.630058340" lon="2.477016670">
        <ele>639.20</ele>
        <time>2014-02-23T09:10:29Z</time>
      </trkpt>
      <trkpt lat="41.630071750" lon="2.476995040">
        <ele>639.10</ele>
        <time>2014-02-23T09:10:30Z</time>
      </trkpt>
      <trkpt lat="41.630086670" lon="2.476971740">
        <ele>638.90</ele>
        <time>2014-02-23T09:10:31Z</time>
      </trkpt>
      <trkpt lat="41.630096730" lon="2.476943410">
        <ele>638.80</ele>
        <time>2014-02-23T09:10:32Z</time>
      </trkpt>
      <trkpt lat="41.630108460" lon="2.476915080">
        <ele>638.90</ele>
        <time>2014-02-23T09:10:33Z</time>
      </trkpt>
      <trkpt lat="41.630123380" lon="2.476888420">
        <ele>638.90</ele>
        <time>2014-02-23T09:10:34Z</time>
      </trkpt>
      <trkpt lat="41.630140150" lon="2.476865120">
        <ele>639.00</ele>
        <time>2014-02-23T09:10:35Z</time>
      </trkpt>
      <trkpt lat="41.630155070" lon="2.476840140">
        <ele>639.00</ele>
        <time>2014-02-23T09:10:36Z</time>
      </trkpt>
      <trkpt lat="41.630171660" lon="2.476815000">
        <ele>639.30</ele>
        <time>2014-02-23T09:10:37Z</time>
      </trkpt>
      <trkpt lat="41.630191780" lon="2.476788340">
        <ele>639.50</ele>
        <time>2014-02-23T09:10:38Z</time>
      </trkpt>
      <trkpt lat="41.630210050" lon="2.476763370">
        <ele>639.70</ele>
        <time>2014-02-23T09:10:39Z</time>
      </trkpt>
      <trkpt lat="41.630225140" lon="2.476741740">
        <ele>639.60</ele>
        <time>2014-02-23T09:10:40Z</time>
      </trkpt>
      <trkpt lat="41.630243410" lon="2.476715090">
        <ele>639.50</ele>
        <time>2014-02-23T09:10:41Z</time>
      </trkpt>
      <trkpt lat="41.630253470" lon="2.476695140">
        <ele>639.40</ele>
        <time>2014-02-23T09:10:42Z</time>
      </trkpt>
      <trkpt lat="41.630268390" lon="2.476680050">
        <ele>639.30</ele>
        <time>2014-02-23T09:10:43Z</time>
      </trkpt>
      <trkpt lat="41.630278450" lon="2.476665130">
        <ele>639.60</ele>
        <time>2014-02-23T09:10:44Z</time>
      </trkpt>
      <trkpt lat="41.630291690" lon="2.476646690">
        <ele>639.80</ele>
        <time>2014-02-23T09:10:45Z</time>
      </trkpt>
      <trkpt lat="41.630306780" lon="2.476625060">
        <ele>639.90</ele>
        <time>2014-02-23T09:10:46Z</time>
      </trkpt>
      <trkpt lat="41.630320020" lon="2.476601760">
        <ele>639.90</ele>
        <time>2014-02-23T09:10:47Z</time>
      </trkpt>
      <trkpt lat="41.630333430" lon="2.476578460">
        <ele>639.90</ele>
        <time>2014-02-23T09:10:48Z</time>
      </trkpt>
      <trkpt lat="41.630345000" lon="2.476555160">
        <ele>640.00</ele>
        <time>2014-02-23T09:10:49Z</time>
      </trkpt>
      <trkpt lat="41.630358410" lon="2.476533370">
        <ele>640.10</ele>
        <time>2014-02-23T09:10:50Z</time>
      </trkpt>
      <trkpt lat="41.630368470" lon="2.476508390">
        <ele>640.10</ele>
        <time>2014-02-23T09:10:51Z</time>
      </trkpt>
      <trkpt lat="41.630380040" lon="2.476483410">
        <ele>640.40</ele>
        <time>2014-02-23T09:10:52Z</time>
      </trkpt>
      <trkpt lat="41.630390100" lon="2.476458430">
        <ele>640.70</ele>
        <time>2014-02-23T09:10:53Z</time>
      </trkpt>
      <trkpt lat="41.630400150" lon="2.476433450">
        <ele>641.10</ele>
        <time>2014-02-23T09:10:54Z</time>
      </trkpt>
      <trkpt lat="41.630410040" lon="2.476406800">
        <ele>641.50</ele>
        <time>2014-02-23T09:10:55Z</time>
      </trkpt>
      <trkpt lat="41.630420100" lon="2.476378470">
        <ele>641.50</ele>
        <time>2014-02-23T09:10:56Z</time>
      </trkpt>
      <trkpt lat="41.630430160" lon="2.476351810">
        <ele>641.50</ele>
        <time>2014-02-23T09:10:57Z</time>
      </trkpt>
      <trkpt lat="41.630440050" lon="2.476325160">
        <ele>641.50</ele>
        <time>2014-02-23T09:10:58Z</time>
      </trkpt>
      <trkpt lat="41.630448430" lon="2.476296660">
        <ele>641.90</ele>
        <time>2014-02-23T09:10:59Z</time>
      </trkpt>
      <trkpt lat="41.630455140" lon="2.476268330">
        <ele>642.20</ele>
        <time>2014-02-23T09:11:00Z</time>
      </trkpt>
      <trkpt lat="41.630463350" lon="2.476233460">
        <ele>642.30</ele>
        <time>2014-02-23T09:11:01Z</time>
      </trkpt>
      <trkpt lat="41.630471730" lon="2.476201780">
        <ele>642.50</ele>
        <time>2014-02-23T09:11:02Z</time>
      </trkpt>
      <trkpt lat="41.630480120" lon="2.476168420">
        <ele>642.60</ele>
        <time>2014-02-23T09:11:03Z</time>
      </trkpt>
      <trkpt lat="41.630485150" lon="2.476136740">
        <ele>642.60</ele>
        <time>2014-02-23T09:11:04Z</time>
      </trkpt>
      <trkpt lat="41.630490010" lon="2.476106730">
        <ele>642.70</ele>
        <time>2014-02-23T09:11:05Z</time>
      </trkpt>
      <trkpt lat="41.630496710" lon="2.476080070">
        <ele>642.80</ele>
        <time>2014-02-23T09:11:06Z</time>
      </trkpt>
      <trkpt lat="41.630503420" lon="2.476053420">
        <ele>642.90</ele>
        <time>2014-02-23T09:11:07Z</time>
      </trkpt>
      <trkpt lat="41.630511800" lon="2.476026760">
        <ele>642.80</ele>
        <time>2014-02-23T09:11:08Z</time>
      </trkpt>
      <trkpt lat="41.630516660" lon="2.475998430">
        <ele>642.70</ele>
        <time>2014-02-23T09:11:09Z</time>
      </trkpt>
      <trkpt lat="41.630521690" lon="2.475971780">
        <ele>642.70</ele>
        <time>2014-02-23T09:11:10Z</time>
      </trkpt>
      <trkpt lat="41.630526720" lon="2.475945120">
        <ele>643.10</ele>
        <time>2014-02-23T09:11:11Z</time>
      </trkpt>
      <trkpt lat="41.630530070" lon="2.475923330">
        <ele>643.40</ele>
        <time>2014-02-23T09:11:12Z</time>
      </trkpt>
      <trkpt lat="41.630535100" lon="2.475905060">
        <ele>643.70</ele>
        <time>2014-02-23T09:11:13Z</time>
      </trkpt>
      <trkpt lat="41.630543480" lon="2.475883430">
        <ele>643.90</ele>
        <time>2014-02-23T09:11:14Z</time>
      </trkpt>
      <trkpt lat="41.630551700" lon="2.475856780">
        <ele>644.40</ele>
        <time>2014-02-23T09:11:15Z</time>
      </trkpt>
      <trkpt lat="41.630560080" lon="2.475826770">
        <ele>644.80</ele>
        <time>2014-02-23T09:11:16Z</time>
      </trkpt>
      <trkpt lat="41.630568460" lon="2.475793410">
        <ele>645.10</ele>
        <time>2014-02-23T09:11:17Z</time>
      </trkpt>
      <trkpt lat="41.630575000" lon="2.475755020">
        <ele>645.40</ele>
        <time>2014-02-23T09:11:18Z</time>
      </trkpt>
      <trkpt lat="41.630585060" lon="2.475718480">
        <ele>645.60</ele>
        <time>2014-02-23T09:11:19Z</time>
      </trkpt>
      <trkpt lat="41.630593440" lon="2.475678410">
        <ele>645.10</ele>
        <time>2014-02-23T09:11:20Z</time>
      </trkpt>
      <trkpt lat="41.630603330" lon="2.475640020">
        <ele>644.80</ele>
        <time>2014-02-23T09:11:21Z</time>
      </trkpt>
      <trkpt lat="41.630606680" lon="2.475608340">
        <ele>644.40</ele>
        <time>2014-02-23T09:11:22Z</time>
      </trkpt>
      <trkpt lat="41.630608360" lon="2.475575150">
        <ele>644.20</ele>
        <time>2014-02-23T09:11:23Z</time>
      </trkpt>
      <trkpt lat="41.630610040" lon="2.475541790">
        <ele>644.00</ele>
        <time>2014-02-23T09:11:24Z</time>
      </trkpt>
      <trkpt lat="41.630608360" lon="2.475511780">
        <ele>644.50</ele>
        <time>2014-02-23T09:11:25Z</time>
      </trkpt>
      <trkpt lat="41.630610040" lon="2.475485130">
        <ele>644.90</ele>
        <time>2014-02-23T09:11:26Z</time>
      </trkpt>
      <trkpt lat="41.630613390" lon="2.475456800">
        <ele>645.00</ele>
        <time>2014-02-23T09:11:27Z</time>
      </trkpt>
      <trkpt lat="41.630616740" lon="2.475430140">
        <ele>645.10</ele>
        <time>2014-02-23T09:11:28Z</time>
      </trkpt>
      <trkpt lat="41.630621770" lon="2.475401810">
        <ele>645.10</ele>
        <time>2014-02-23T09:11:29Z</time>
      </trkpt>
      <trkpt lat="41.630626800" lon="2.475376660">
        <ele>645.00</ele>
        <time>2014-02-23T09:11:30Z</time>
      </trkpt>
      <trkpt lat="41.630630150" lon="2.475348330">
        <ele>645.00</ele>
        <time>2014-02-23T09:11:31Z</time>
      </trkpt>
      <trkpt lat="41.630635010" lon="2.475323360">
        <ele>644.90</ele>
        <time>2014-02-23T09:11:32Z</time>
      </trkpt>
      <trkpt lat="41.630638370" lon="2.475293350">
        <ele>644.80</ele>
        <time>2014-02-23T09:11:33Z</time>
      </trkpt>
      <trkpt lat="41.630643400" lon="2.475266690">
        <ele>644.80</ele>
        <time>2014-02-23T09:11:34Z</time>
      </trkpt>
      <trkpt lat="41.630645070" lon="2.475238360">
        <ele>644.90</ele>
        <time>2014-02-23T09:11:35Z</time>
      </trkpt>
      <trkpt lat="41.630648430" lon="2.475211710">
        <ele>644.90</ele>
        <time>2014-02-23T09:11:36Z</time>
      </trkpt>
      <trkpt lat="41.630651780" lon="2.475185050">
        <ele>645.00</ele>
        <time>2014-02-23T09:11:37Z</time>
      </trkpt>
      <trkpt lat="41.630655130" lon="2.475161750">
        <ele>645.10</ele>
        <time>2014-02-23T09:11:38Z</time>
      </trkpt>
      <trkpt lat="41.630660160" lon="2.475133420">
        <ele>645.30</ele>
        <time>2014-02-23T09:11:39Z</time>
      </trkpt>
      <trkpt lat="41.630668370" lon="2.475108440">
        <ele>645.50</ele>
        <time>2014-02-23T09:11:40Z</time>
      </trkpt>
      <trkpt lat="41.630676760" lon="2.475081790">
        <ele>645.60</ele>
        <time>2014-02-23T09:11:41Z</time>
      </trkpt>
      <trkpt lat="41.630686810" lon="2.475055130">
        <ele>645.70</ele>
        <time>2014-02-23T09:11:42Z</time>
      </trkpt>
      <trkpt lat="41.630693350" lon="2.475035020">
        <ele>645.80</ele>
        <time>2014-02-23T09:11:43Z</time>
      </trkpt>
      <trkpt lat="41.630698380" lon="2.475016750">
        <ele>645.80</ele>
        <time>2014-02-23T09:11:44Z</time>
      </trkpt>
      <trkpt lat="41.630705090" lon="2.474991770">
        <ele>645.80</ele>
        <time>2014-02-23T09:11:45Z</time>
      </trkpt>
      <trkpt lat="41.630713470" lon="2.474965110">
        <ele>645.90</ele>
        <time>2014-02-23T09:11:46Z</time>
      </trkpt>
      <trkpt lat="41.630721680" lon="2.474938460">
        <ele>645.90</ele>
        <time>2014-02-23T09:11:47Z</time>
      </trkpt>
      <trkpt lat="41.630731740" lon="2.474911800">
        <ele>646.00</ele>
        <time>2014-02-23T09:11:48Z</time>
      </trkpt>
      <trkpt lat="41.630740120" lon="2.474890010">
        <ele>646.20</ele>
        <time>2014-02-23T09:11:49Z</time>
      </trkpt>
      <trkpt lat="41.630753370" lon="2.474866710">
        <ele>646.40</ele>
        <time>2014-02-23T09:11:50Z</time>
      </trkpt>
      <trkpt lat="41.630763430" lon="2.474846760">
        <ele>646.60</ele>
        <time>2014-02-23T09:11:51Z</time>
      </trkpt>
      <trkpt lat="41.630775160" lon="2.474821780">
        <ele>646.80</ele>
        <time>2014-02-23T09:11:52Z</time>
      </trkpt>
      <trkpt lat="41.630786730" lon="2.474798480">
        <ele>647.00</ele>
        <time>2014-02-23T09:11:53Z</time>
      </trkpt>
      <trkpt lat="41.630795110" lon="2.474770150">
        <ele>647.10</ele>
        <time>2014-02-23T09:11:54Z</time>
      </trkpt>
      <trkpt lat="41.630803490" lon="2.474743500">
        <ele>647.20</ele>
        <time>2014-02-23T09:11:55Z</time>
      </trkpt>
      <trkpt lat="41.630811700" lon="2.474720030">
        <ele>647.40</ele>
        <time>2014-02-23T09:11:56Z</time>
      </trkpt>
      <trkpt lat="41.630816730" lon="2.474698400">
        <ele>647.50</ele>
        <time>2014-02-23T09:11:57Z</time>
      </trkpt>
      <trkpt lat="41.630821760" lon="2.474676780">
        <ele>647.10</ele>
        <time>2014-02-23T09:11:58Z</time>
      </trkpt>
      <trkpt lat="41.630828470" lon="2.474656830">
        <ele>646.90</ele>
        <time>2014-02-23T09:11:59Z</time>
      </trkpt>
      <trkpt lat="41.630835010" lon="2.474638390">
        <ele>646.70</ele>
        <time>2014-02-23T09:12:00Z</time>
      </trkpt>
      <trkpt lat="41.630841710" lon="2.474616760">
        <ele>646.60</ele>
        <time>2014-02-23T09:12:01Z</time>
      </trkpt>
      <trkpt lat="41.630845060" lon="2.474595140">
        <ele>646.50</ele>
        <time>2014-02-23T09:12:02Z</time>
      </trkpt>
      <trkpt lat="41.630845060" lon="2.474573340">
        <ele>646.60</ele>
        <time>2014-02-23T09:12:03Z</time>
      </trkpt>
      <trkpt lat="41.630845060" lon="2.474548360">
        <ele>646.60</ele>
        <time>2014-02-23T09:12:04Z</time>
      </trkpt>
      <trkpt lat="41.630843390" lon="2.474525060">
        <ele>647.10</ele>
        <time>2014-02-23T09:12:05Z</time>
      </trkpt>
      <trkpt lat="41.630843390" lon="2.474505110">
        <ele>647.50</ele>
        <time>2014-02-23T09:12:06Z</time>
      </trkpt>
      <trkpt lat="41.630841710" lon="2.474483490">
        <ele>647.80</ele>
        <time>2014-02-23T09:12:07Z</time>
      </trkpt>
      <trkpt lat="41.630841710" lon="2.474463370">
        <ele>648.00</ele>
        <time>2014-02-23T09:12:08Z</time>
      </trkpt>
      <trkpt lat="41.630841710" lon="2.474445100">
        <ele>648.20</ele>
        <time>2014-02-23T09:12:09Z</time>
      </trkpt>
      <trkpt lat="41.630841710" lon="2.474426830">
        <ele>648.30</ele>
        <time>2014-02-23T09:12:10Z</time>
      </trkpt>
      <trkpt lat="41.630841710" lon="2.474408390">
        <ele>648.40</ele>
        <time>2014-02-23T09:12:11Z</time>
      </trkpt>
      <trkpt lat="41.630841710" lon="2.474388440">
        <ele>648.50</ele>
        <time>2014-02-23T09:12:12Z</time>
      </trkpt>
      <trkpt lat="41.630841710" lon="2.474368490">
        <ele>648.50</ele>
        <time>2014-02-23T09:12:13Z</time>
      </trkpt>
      <trkpt lat="41.630843390" lon="2.474350050">
        <ele>648.60</ele>
        <time>2014-02-23T09:12:14Z</time>
      </trkpt>
      <trkpt lat="41.630846740" lon="2.474333450">
        <ele>649.00</ele>
        <time>2014-02-23T09:12:15Z</time>
      </trkpt>
      <trkpt lat="41.630845060" lon="2.474316690">
        <ele>649.30</ele>
        <time>2014-02-23T09:12:16Z</time>
      </trkpt>
      <trkpt lat="41.630845060" lon="2.474298420">
        <ele>649.40</ele>
        <time>2014-02-23T09:12:17Z</time>
      </trkpt>
      <trkpt lat="41.630845060" lon="2.474280140">
        <ele>649.50</ele>
        <time>2014-02-23T09:12:18Z</time>
      </trkpt>
      <trkpt lat="41.630848420" lon="2.474256670">
        <ele>649.60</ele>
        <time>2014-02-23T09:12:19Z</time>
      </trkpt>
      <trkpt lat="41.630848420" lon="2.474236730">
        <ele>649.70</ele>
        <time>2014-02-23T09:12:20Z</time>
      </trkpt>
      <trkpt lat="41.630848420" lon="2.474216780">
        <ele>649.80</ele>
        <time>2014-02-23T09:12:21Z</time>
      </trkpt>
      <trkpt lat="41.630845060" lon="2.474196830">
        <ele>649.90</ele>
        <time>2014-02-23T09:12:22Z</time>
      </trkpt>
      <trkpt lat="41.630840040" lon="2.474178390">
        <ele>650.00</ele>
        <time>2014-02-23T09:12:23Z</time>
      </trkpt>
      <trkpt lat="41.630835010" lon="2.474161790">
        <ele>649.80</ele>
        <time>2014-02-23T09:12:24Z</time>
      </trkpt>
      <trkpt lat="41.630831820" lon="2.474145030">
        <ele>649.60</ele>
        <time>2014-02-23T09:12:25Z</time>
      </trkpt>
      <trkpt lat="41.630828470" lon="2.474131780">
        <ele>649.50</ele>
        <time>2014-02-23T09:12:26Z</time>
      </trkpt>
      <trkpt lat="41.630821760" lon="2.474121730">
        <ele>650.00</ele>
        <time>2014-02-23T09:12:27Z</time>
      </trkpt>
      <trkpt lat="41.630813380" lon="2.474110160">
        <ele>650.40</ele>
        <time>2014-02-23T09:12:28Z</time>
      </trkpt>
      <trkpt lat="41.630805000" lon="2.474096750">
        <ele>650.50</ele>
        <time>2014-02-23T09:12:29Z</time>
      </trkpt>
      <trkpt lat="41.630796790" lon="2.474083340">
        <ele>650.70</ele>
        <time>2014-02-23T09:12:30Z</time>
      </trkpt>
      <trkpt lat="41.630786730" lon="2.474071770">
        <ele>651.10</ele>
        <time>2014-02-23T09:12:31Z</time>
      </trkpt>
      <trkpt lat="41.630780020" lon="2.474061710">
        <ele>651.40</ele>
        <time>2014-02-23T09:12:32Z</time>
      </trkpt>
      <trkpt lat="41.630770130" lon="2.474051820">
        <ele>651.70</ele>
        <time>2014-02-23T09:12:33Z</time>
      </trkpt>
      <trkpt lat="41.630760070" lon="2.474041760">
        <ele>651.70</ele>
        <time>2014-02-23T09:12:34Z</time>
      </trkpt>
      <trkpt lat="41.630751690" lon="2.474028350">
        <ele>651.70</ele>
        <time>2014-02-23T09:12:35Z</time>
      </trkpt>
      <trkpt lat="41.630743480" lon="2.474016780">
        <ele>652.10</ele>
        <time>2014-02-23T09:12:36Z</time>
      </trkpt>
      <trkpt lat="41.630733420" lon="2.474006730">
        <ele>652.40</ele>
        <time>2014-02-23T09:12:37Z</time>
      </trkpt>
      <trkpt lat="41.630721680" lon="2.473993480">
        <ele>652.70</ele>
        <time>2014-02-23T09:12:38Z</time>
      </trkpt>
      <trkpt lat="41.630710120" lon="2.473975040">
        <ele>653.00</ele>
        <time>2014-02-23T09:12:39Z</time>
      </trkpt>
      <trkpt lat="41.630696710" lon="2.473955090">
        <ele>653.20</ele>
        <time>2014-02-23T09:12:40Z</time>
      </trkpt>
      <trkpt lat="41.630680110" lon="2.473930120">
        <ele>653.00</ele>
        <time>2014-02-23T09:12:41Z</time>
      </trkpt>
      <trkpt lat="41.630665020" lon="2.473906810">
        <ele>652.80</ele>
        <time>2014-02-23T09:12:42Z</time>
      </trkpt>
      <trkpt lat="41.630650100" lon="2.473883340">
        <ele>653.10</ele>
        <time>2014-02-23T09:12:43Z</time>
      </trkpt>
      <trkpt lat="41.630635010" lon="2.473863400">
        <ele>653.30</ele>
        <time>2014-02-23T09:12:44Z</time>
      </trkpt>
      <trkpt lat="41.630620090" lon="2.473841770">
        <ele>653.40</ele>
        <time>2014-02-23T09:12:45Z</time>
      </trkpt>
      <trkpt lat="41.630603330" lon="2.473826680">
        <ele>653.50</ele>
        <time>2014-02-23T09:12:46Z</time>
      </trkpt>
      <trkpt lat="41.630590090" lon="2.473815120">
        <ele>653.60</ele>
        <time>2014-02-23T09:12:47Z</time>
      </trkpt>
      <trkpt lat="41.630573490" lon="2.473796680">
        <ele>653.30</ele>
        <time>2014-02-23T09:12:48Z</time>
      </trkpt>
      <trkpt lat="41.630555050" lon="2.473775050">
        <ele>653.20</ele>
        <time>2014-02-23T09:12:49Z</time>
      </trkpt>
      <trkpt lat="41.630535100" lon="2.473751750">
        <ele>653.20</ele>
        <time>2014-02-23T09:12:50Z</time>
      </trkpt>
      <trkpt lat="41.630511800" lon="2.473731800">
        <ele>653.20</ele>
        <time>2014-02-23T09:12:51Z</time>
      </trkpt>
      <trkpt lat="41.630491680" lon="2.473708330">
        <ele>653.20</ele>
        <time>2014-02-23T09:12:52Z</time>
      </trkpt>
      <trkpt lat="41.630471730" lon="2.473686710">
        <ele>653.00</ele>
        <time>2014-02-23T09:12:53Z</time>
      </trkpt>
      <trkpt lat="41.630453460" lon="2.473668430">
        <ele>652.80</ele>
        <time>2014-02-23T09:12:54Z</time>
      </trkpt>
      <trkpt lat="41.630438370" lon="2.473651670">
        <ele>652.50</ele>
        <time>2014-02-23T09:12:55Z</time>
      </trkpt>
      <trkpt lat="41.630425130" lon="2.473635070">
        <ele>652.30</ele>
        <time>2014-02-23T09:12:56Z</time>
      </trkpt>
      <trkpt lat="41.630406690" lon="2.473608420">
        <ele>651.70</ele>
        <time>2014-02-23T09:12:57Z</time>
      </trkpt>
      <trkpt lat="41.630391770" lon="2.473585120">
        <ele>651.20</ele>
        <time>2014-02-23T09:12:58Z</time>
      </trkpt>
      <trkpt lat="41.630371820" lon="2.473553430">
        <ele>650.90</ele>
        <time>2014-02-23T09:12:59Z</time>
      </trkpt>
      <trkpt lat="41.630351710" lon="2.473525100">
        <ele>650.50</ele>
        <time>2014-02-23T09:13:00Z</time>
      </trkpt>
      <trkpt lat="41.630330080" lon="2.473500120">
        <ele>650.20</ele>
        <time>2014-02-23T09:13:01Z</time>
      </trkpt>
      <trkpt lat="41.630310130" lon="2.473478330">
        <ele>650.60</ele>
        <time>2014-02-23T09:13:02Z</time>
      </trkpt>
      <trkpt lat="41.630293370" lon="2.473460060">
        <ele>650.90</ele>
        <time>2014-02-23T09:13:03Z</time>
      </trkpt>
      <trkpt lat="41.630273420" lon="2.473440110">
        <ele>651.10</ele>
        <time>2014-02-23T09:13:04Z</time>
      </trkpt>
      <trkpt lat="41.630260010" lon="2.473420160">
        <ele>651.20</ele>
        <time>2014-02-23T09:13:05Z</time>
      </trkpt>
      <trkpt lat="41.630241740" lon="2.473400040">
        <ele>651.20</ele>
        <time>2014-02-23T09:13:06Z</time>
      </trkpt>
      <trkpt lat="41.630223460" lon="2.473378420">
        <ele>651.30</ele>
        <time>2014-02-23T09:13:07Z</time>
      </trkpt>
      <trkpt lat="41.630201670" lon="2.473358470">
        <ele>651.30</ele>
        <time>2014-02-23T09:13:08Z</time>
      </trkpt>
      <trkpt lat="41.630180040" lon="2.473340030">
        <ele>651.20</ele>
        <time>2014-02-23T09:13:09Z</time>
      </trkpt>
      <trkpt lat="41.630160100" lon="2.473325110">
        <ele>651.20</ele>
        <time>2014-02-23T09:13:10Z</time>
      </trkpt>
      <trkpt lat="41.630140150" lon="2.473305160">
        <ele>651.20</ele>
        <time>2014-02-23T09:13:11Z</time>
      </trkpt>
      <trkpt lat="41.630118350" lon="2.473283370">
        <ele>651.40</ele>
        <time>2014-02-23T09:13:12Z</time>
      </trkpt>
      <trkpt lat="41.630098400" lon="2.473260070">
        <ele>651.60</ele>
        <time>2014-02-23T09:13:13Z</time>
      </trkpt>
      <trkpt lat="41.630076780" lon="2.473236760">
        <ele>650.90</ele>
        <time>2014-02-23T09:13:14Z</time>
      </trkpt>
      <trkpt lat="41.630060020" lon="2.473213460">
        <ele>650.40</ele>
        <time>2014-02-23T09:13:15Z</time>
      </trkpt>
      <trkpt lat="41.630046770" lon="2.473191670">
        <ele>650.40</ele>
        <time>2014-02-23T09:13:16Z</time>
      </trkpt>
      <trkpt lat="41.630028330" lon="2.473166690">
        <ele>650.30</ele>
        <time>2014-02-23T09:13:17Z</time>
      </trkpt>
      <trkpt lat="41.630011740" lon="2.473138360">
        <ele>650.30</ele>
        <time>2014-02-23T09:13:18Z</time>
      </trkpt>
      <trkpt lat="41.629995140" lon="2.473105000">
        <ele>650.50</ele>
        <time>2014-02-23T09:13:19Z</time>
      </trkpt>
      <trkpt lat="41.629980050" lon="2.473068460">
        <ele>650.60</ele>
        <time>2014-02-23T09:13:20Z</time>
      </trkpt>
      <trkpt lat="41.629963460" lon="2.473025040">
        <ele>650.40</ele>
        <time>2014-02-23T09:13:21Z</time>
      </trkpt>
      <trkpt lat="41.629951720" lon="2.472976760">
        <ele>650.30</ele>
        <time>2014-02-23T09:13:22Z</time>
      </trkpt>
      <trkpt lat="41.629940150" lon="2.472926800">
        <ele>650.40</ele>
        <time>2014-02-23T09:13:23Z</time>
      </trkpt>
      <trkpt lat="41.629928420" lon="2.472876680">
        <ele>650.50</ele>
        <time>2014-02-23T09:13:24Z</time>
      </trkpt>
      <trkpt lat="41.629908470" lon="2.472826720">
        <ele>650.50</ele>
        <time>2014-02-23T09:13:25Z</time>
      </trkpt>
      <trkpt lat="41.629888350" lon="2.472780120">
        <ele>650.10</ele>
        <time>2014-02-23T09:13:26Z</time>
      </trkpt>
      <trkpt lat="41.629875110" lon="2.472745080">
        <ele>649.80</ele>
        <time>2014-02-23T09:13:27Z</time>
      </trkpt>
      <trkpt lat="41.629860020" lon="2.472703340">
        <ele>649.30</ele>
        <time>2014-02-23T09:13:28Z</time>
      </trkpt>
      <trkpt lat="41.629845100" lon="2.472653380">
        <ele>648.90</ele>
        <time>2014-02-23T09:13:29Z</time>
      </trkpt>
      <trkpt lat="41.629833370" lon="2.472591690">
        <ele>648.70</ele>
        <time>2014-02-23T09:13:30Z</time>
      </trkpt>
      <trkpt lat="41.629825150" lon="2.472526820">
        <ele>648.10</ele>
        <time>2014-02-23T09:13:31Z</time>
      </trkpt>
      <trkpt lat="41.629820130" lon="2.472456740">
        <ele>647.70</ele>
        <time>2014-02-23T09:13:32Z</time>
      </trkpt>
      <trkpt lat="41.629811740" lon="2.472388350">
        <ele>646.80</ele>
        <time>2014-02-23T09:13:33Z</time>
      </trkpt>
      <trkpt lat="41.629801690" lon="2.472315090">
        <ele>646.20</ele>
        <time>2014-02-23T09:13:34Z</time>
      </trkpt>
      <trkpt lat="41.629788440" lon="2.472243340">
        <ele>645.70</ele>
        <time>2014-02-23T09:13:35Z</time>
      </trkpt>
      <trkpt lat="41.629783410" lon="2.472190030">
        <ele>645.30</ele>
        <time>2014-02-23T09:13:36Z</time>
      </trkpt>
      <trkpt lat="41.629780060" lon="2.472131690">
        <ele>645.00</ele>
        <time>2014-02-23T09:13:37Z</time>
      </trkpt>
      <trkpt lat="41.629775030" lon="2.472076710">
        <ele>644.30</ele>
        <time>2014-02-23T09:13:38Z</time>
      </trkpt>
      <trkpt lat="41.629766820" lon="2.472021720">
        <ele>643.80</ele>
        <time>2014-02-23T09:13:39Z</time>
      </trkpt>
      <trkpt lat="41.629750050" lon="2.471966740">
        <ele>643.00</ele>
        <time>2014-02-23T09:13:40Z</time>
      </trkpt>
      <trkpt lat="41.629730100" lon="2.471918460">
        <ele>642.30</ele>
        <time>2014-02-23T09:13:41Z</time>
      </trkpt>
      <trkpt lat="41.629713340" lon="2.471868330">
        <ele>641.90</ele>
        <time>2014-02-23T09:13:42Z</time>
      </trkpt>
      <trkpt lat="41.629688360" lon="2.471810000">
        <ele>641.50</ele>
        <time>2014-02-23T09:13:43Z</time>
      </trkpt>
      <trkpt lat="41.629663380" lon="2.471743440">
        <ele>641.30</ele>
        <time>2014-02-23T09:13:44Z</time>
      </trkpt>
      <trkpt lat="41.629643440" lon="2.471676720">
        <ele>640.80</ele>
        <time>2014-02-23T09:13:45Z</time>
      </trkpt>
      <trkpt lat="41.629630020" lon="2.471605140">
        <ele>640.40</ele>
        <time>2014-02-23T09:13:46Z</time>
      </trkpt>
      <trkpt lat="41.629623490" lon="2.471536750">
        <ele>639.50</ele>
        <time>2014-02-23T09:13:47Z</time>
      </trkpt>
      <trkpt lat="41.629620130" lon="2.471470030">
        <ele>638.70</ele>
        <time>2014-02-23T09:13:48Z</time>
      </trkpt>
      <trkpt lat="41.629618460" lon="2.471410010">
        <ele>638.20</ele>
        <time>2014-02-23T09:13:49Z</time>
      </trkpt>
      <trkpt lat="41.629611750" lon="2.471345140">
        <ele>637.80</ele>
        <time>2014-02-23T09:13:50Z</time>
      </trkpt>
      <trkpt lat="41.629601690" lon="2.471290150">
        <ele>637.40</ele>
        <time>2014-02-23T09:13:51Z</time>
      </trkpt>
      <trkpt lat="41.629591800" lon="2.471235000">
        <ele>636.20</ele>
        <time>2014-02-23T09:13:52Z</time>
      </trkpt>
      <trkpt lat="41.629583420" lon="2.471185040">
        <ele>635.20</ele>
        <time>2014-02-23T09:13:53Z</time>
      </trkpt>
      <trkpt lat="41.629573360" lon="2.471145140">
        <ele>634.50</ele>
        <time>2014-02-23T09:13:54Z</time>
      </trkpt>
      <trkpt lat="41.629566820" lon="2.471101730">
        <ele>633.90</ele>
        <time>2014-02-23T09:13:55Z</time>
      </trkpt>
      <trkpt lat="41.629560120" lon="2.471060150">
        <ele>633.50</ele>
        <time>2014-02-23T09:13:56Z</time>
      </trkpt>
      <trkpt lat="41.629555090" lon="2.471026790">
        <ele>633.30</ele>
        <time>2014-02-23T09:13:57Z</time>
      </trkpt>
      <trkpt lat="41.629551740" lon="2.470996780">
        <ele>633.20</ele>
        <time>2014-02-23T09:13:58Z</time>
      </trkpt>
      <trkpt lat="41.629550060" lon="2.470968450">
        <ele>633.00</ele>
        <time>2014-02-23T09:13:59Z</time>
      </trkpt>
      <trkpt lat="41.629546710" lon="2.470946830">
        <ele>632.90</ele>
        <time>2014-02-23T09:14:00Z</time>
      </trkpt>
      <trkpt lat="41.629545030" lon="2.470925040">
        <ele>632.60</ele>
        <time>2014-02-23T09:14:01Z</time>
      </trkpt>
      <trkpt lat="41.629543360" lon="2.470910120">
        <ele>632.40</ele>
        <time>2014-02-23T09:14:02Z</time>
      </trkpt>
      <trkpt lat="41.629540000" lon="2.470901730">
        <ele>632.20</ele>
        <time>2014-02-23T09:14:03Z</time>
      </trkpt>
      <trkpt lat="41.629535140" lon="2.470891680">
        <ele>632.30</ele>
        <time>2014-02-23T09:14:04Z</time>
      </trkpt>
      <trkpt lat="41.629531790" lon="2.470883460">
        <ele>632.40</ele>
        <time>2014-02-23T09:14:05Z</time>
      </trkpt>
      <trkpt lat="41.629528440" lon="2.470875080">
        <ele>632.00</ele>
        <time>2014-02-23T09:14:06Z</time>
      </trkpt>
      <trkpt lat="41.629523410" lon="2.470863340">
        <ele>631.70</ele>
        <time>2014-02-23T09:14:07Z</time>
      </trkpt>
      <trkpt lat="41.629516700" lon="2.470853450">
        <ele>631.50</ele>
        <time>2014-02-23T09:14:08Z</time>
      </trkpt>
      <trkpt lat="41.629513350" lon="2.470846750">
        <ele>631.80</ele>
        <time>2014-02-23T09:14:09Z</time>
      </trkpt>
      <trkpt lat="41.629510000" lon="2.470838370">
        <ele>632.00</ele>
        <time>2014-02-23T09:14:10Z</time>
      </trkpt>
      <trkpt lat="41.629506810" lon="2.470831830">
        <ele>631.70</ele>
        <time>2014-02-23T09:14:11Z</time>
      </trkpt>
      <trkpt lat="41.629503460" lon="2.470823450">
        <ele>631.40</ele>
        <time>2014-02-23T09:14:12Z</time>
      </trkpt>
      <trkpt lat="41.629498430" lon="2.470816740">
        <ele>631.20</ele>
        <time>2014-02-23T09:14:13Z</time>
      </trkpt>
      <trkpt lat="41.629495080" lon="2.470810040">
        <ele>631.10</ele>
        <time>2014-02-23T09:14:14Z</time>
      </trkpt>
      <trkpt lat="41.629491720" lon="2.470803330">
        <ele>631.00</ele>
        <time>2014-02-23T09:14:15Z</time>
      </trkpt>
      <trkpt lat="41.629488370" lon="2.470798470">
        <ele>630.80</ele>
        <time>2014-02-23T09:14:16Z</time>
      </trkpt>
      <trkpt lat="41.629485020" lon="2.470793440">
        <ele>630.60</ele>
        <time>2014-02-23T09:14:17Z</time>
      </trkpt>
      <trkpt lat="41.629480160" lon="2.470788410">
        <ele>630.90</ele>
        <time>2014-02-23T09:14:18Z</time>
      </trkpt>
      <trkpt lat="41.629476800" lon="2.470785060">
        <ele>631.10</ele>
        <time>2014-02-23T09:14:19Z</time>
      </trkpt>
      <trkpt lat="41.629473450" lon="2.470780030">
        <ele>631.30</ele>
        <time>2014-02-23T09:14:20Z</time>
      </trkpt>
      <trkpt lat="41.629470100" lon="2.470775000">
        <ele>631.50</ele>
        <time>2014-02-23T09:14:21Z</time>
      </trkpt>
      <trkpt lat="41.629463390" lon="2.470770140">
        <ele>631.60</ele>
        <time>2014-02-23T09:14:22Z</time>
      </trkpt>
      <trkpt lat="41.629453330" lon="2.470766790">
        <ele>631.40</ele>
        <time>2014-02-23T09:14:23Z</time>
      </trkpt>
      <trkpt lat="41.629445120" lon="2.470766790">
        <ele>631.20</ele>
        <time>2014-02-23T09:14:24Z</time>
      </trkpt>
      <trkpt lat="41.629436740" lon="2.470766790">
        <ele>630.80</ele>
        <time>2014-02-23T09:14:25Z</time>
      </trkpt>
      <trkpt lat="41.629423490" lon="2.470771810">
        <ele>630.50</ele>
        <time>2014-02-23T09:14:26Z</time>
      </trkpt>
      <trkpt lat="41.629405050" lon="2.470780030">
        <ele>630.20</ele>
        <time>2014-02-23T09:14:27Z</time>
      </trkpt>
      <trkpt lat="41.629381750" lon="2.470791760">
        <ele>630.20</ele>
        <time>2014-02-23T09:14:28Z</time>
      </trkpt>
      <trkpt lat="41.629355100" lon="2.470806680">
        <ele>630.20</ele>
        <time>2014-02-23T09:14:29Z</time>
      </trkpt>
      <trkpt lat="41.629331800" lon="2.470830150">
        <ele>630.50</ele>
        <time>2014-02-23T09:14:30Z</time>
      </trkpt>
      <trkpt lat="41.629308490" lon="2.470851780">
        <ele>630.60</ele>
        <time>2014-02-23T09:14:31Z</time>
      </trkpt>
      <trkpt lat="41.629288380" lon="2.470875080">
        <ele>630.20</ele>
        <time>2014-02-23T09:14:32Z</time>
      </trkpt>
      <trkpt lat="41.629275130" lon="2.470898380">
        <ele>629.90</ele>
        <time>2014-02-23T09:14:33Z</time>
      </trkpt>
      <trkpt lat="41.629261720" lon="2.470921680">
        <ele>629.70</ele>
        <time>2014-02-23T09:14:34Z</time>
      </trkpt>
      <trkpt lat="41.629246800" lon="2.470956720">
        <ele>629.50</ele>
        <time>2014-02-23T09:14:35Z</time>
      </trkpt>
      <trkpt lat="41.629231720" lon="2.470998460">
        <ele>629.30</ele>
        <time>2014-02-23T09:14:36Z</time>
      </trkpt>
      <trkpt lat="41.629216800" lon="2.471041710">
        <ele>628.90</ele>
        <time>2014-02-23T09:14:37Z</time>
      </trkpt>
      <trkpt lat="41.629200030" lon="2.471083450">
        <ele>628.70</ele>
        <time>2014-02-23T09:14:38Z</time>
      </trkpt>
      <trkpt lat="41.629186790" lon="2.471130060">
        <ele>628.20</ele>
        <time>2014-02-23T09:14:39Z</time>
      </trkpt>
      <trkpt lat="41.629176730" lon="2.471180010">
        <ele>627.80</ele>
        <time>2014-02-23T09:14:40Z</time>
      </trkpt>
      <trkpt lat="41.629165000" lon="2.471228460">
        <ele>627.60</ele>
        <time>2014-02-23T09:14:41Z</time>
      </trkpt>
      <trkpt lat="41.629151750" lon="2.471281770">
        <ele>627.50</ele>
        <time>2014-02-23T09:14:42Z</time>
      </trkpt>
      <trkpt lat="41.629135160" lon="2.471333400">
        <ele>627.50</ele>
        <time>2014-02-23T09:14:43Z</time>
      </trkpt>
      <trkpt lat="41.629113360" lon="2.471376820">
        <ele>627.00</ele>
        <time>2014-02-23T09:14:44Z</time>
      </trkpt>
      <trkpt lat="41.629090060" lon="2.471421750">
        <ele>626.60</ele>
        <time>2014-02-23T09:14:45Z</time>
      </trkpt>
      <trkpt lat="41.629070110" lon="2.471471700">
        <ele>626.30</ele>
        <time>2014-02-23T09:14:46Z</time>
      </trkpt>
      <trkpt lat="41.629053350" lon="2.471515120">
        <ele>626.10</ele>
        <time>2014-02-23T09:14:47Z</time>
      </trkpt>
      <trkpt lat="41.629038430" lon="2.471563400">
        <ele>626.00</ele>
        <time>2014-02-23T09:14:48Z</time>
      </trkpt>
      <trkpt lat="41.629020160" lon="2.471611680">
        <ele>625.80</ele>
        <time>2014-02-23T09:14:49Z</time>
      </trkpt>
      <trkpt lat="41.629005070" lon="2.471656780">
        <ele>625.70</ele>
        <time>2014-02-23T09:14:50Z</time>
      </trkpt>
      <trkpt lat="41.628990150" lon="2.471701700">
        <ele>625.20</ele>
        <time>2014-02-23T09:14:51Z</time>
      </trkpt>
      <trkpt lat="41.628981770" lon="2.471753340">
        <ele>624.80</ele>
        <time>2014-02-23T09:14:52Z</time>
      </trkpt>
      <trkpt lat="41.628976740" lon="2.471810000">
        <ele>624.50</ele>
        <time>2014-02-23T09:14:53Z</time>
      </trkpt>
      <trkpt lat="41.628963500" lon="2.471856770">
        <ele>623.90</ele>
        <time>2014-02-23T09:14:54Z</time>
      </trkpt>
      <trkpt lat="41.628941700" lon="2.471900020">
        <ele>623.30</ele>
        <time>2014-02-23T09:14:55Z</time>
      </trkpt>
      <trkpt lat="41.628911700" lon="2.471926670">
        <ele>622.70</ele>
        <time>2014-02-23T09:14:56Z</time>
      </trkpt>
      <trkpt lat="41.628875150" lon="2.471941760">
        <ele>622.30</ele>
        <time>2014-02-23T09:14:57Z</time>
      </trkpt>
      <trkpt lat="41.628833410" lon="2.471945110">
        <ele>621.50</ele>
        <time>2014-02-23T09:14:58Z</time>
      </trkpt>
      <trkpt lat="41.628793340" lon="2.471946790">
        <ele>620.90</ele>
        <time>2014-02-23T09:14:59Z</time>
      </trkpt>
      <trkpt lat="41.628753440" lon="2.471943440">
        <ele>620.50</ele>
        <time>2014-02-23T09:15:00Z</time>
      </trkpt>
      <trkpt lat="41.628711700" lon="2.471926670">
        <ele>620.10</ele>
        <time>2014-02-23T09:15:01Z</time>
      </trkpt>
      <trkpt lat="41.628673480" lon="2.471906720">
        <ele>619.70</ele>
        <time>2014-02-23T09:15:02Z</time>
      </trkpt>
      <trkpt lat="41.628636770" lon="2.471900020">
        <ele>619.30</ele>
        <time>2014-02-23T09:15:03Z</time>
      </trkpt>
      <trkpt lat="41.628598380" lon="2.471913430">
        <ele>619.00</ele>
        <time>2014-02-23T09:15:04Z</time>
      </trkpt>
      <trkpt lat="41.628556810" lon="2.471945110">
        <ele>618.80</ele>
        <time>2014-02-23T09:15:05Z</time>
      </trkpt>
      <trkpt lat="41.628520090" lon="2.471990040">
        <ele>618.40</ele>
        <time>2014-02-23T09:15:06Z</time>
      </trkpt>
      <trkpt lat="41.628496790" lon="2.472033460">
        <ele>618.10</ele>
        <time>2014-02-23T09:15:07Z</time>
      </trkpt>
      <trkpt lat="41.628478350" lon="2.472085090">
        <ele>617.70</ele>
        <time>2014-02-23T09:15:08Z</time>
      </trkpt>
      <trkpt lat="41.628461750" lon="2.472135050">
        <ele>617.40</ele>
        <time>2014-02-23T09:15:09Z</time>
      </trkpt>
      <trkpt lat="41.628453370" lon="2.472186680">
        <ele>616.70</ele>
        <time>2014-02-23T09:15:10Z</time>
      </trkpt>
      <trkpt lat="41.628448340" lon="2.472231770">
        <ele>616.20</ele>
        <time>2014-02-23T09:15:11Z</time>
      </trkpt>
      <trkpt lat="41.628445160" lon="2.472271670">
        <ele>615.80</ele>
        <time>2014-02-23T09:15:12Z</time>
      </trkpt>
      <trkpt lat="41.628438450" lon="2.472310060">
        <ele>615.60</ele>
        <time>2014-02-23T09:15:13Z</time>
      </trkpt>
      <trkpt lat="41.628430070" lon="2.472340070">
        <ele>615.40</ele>
        <time>2014-02-23T09:15:14Z</time>
      </trkpt>
      <trkpt lat="41.628416830" lon="2.472360020">
        <ele>615.30</ele>
        <time>2014-02-23T09:15:15Z</time>
      </trkpt>
      <trkpt lat="41.628403420" lon="2.472375100">
        <ele>615.20</ele>
        <time>2014-02-23T09:15:16Z</time>
      </trkpt>
      <trkpt lat="41.628388330" lon="2.472385000">
        <ele>615.00</ele>
        <time>2014-02-23T09:15:17Z</time>
      </trkpt>
      <trkpt lat="41.628368380" lon="2.472388350">
        <ele>614.80</ele>
        <time>2014-02-23T09:15:18Z</time>
      </trkpt>
      <trkpt lat="41.628346750" lon="2.472385000">
        <ele>614.70</ele>
        <time>2014-02-23T09:15:19Z</time>
      </trkpt>
      <trkpt lat="41.628323450" lon="2.472375100">
        <ele>614.40</ele>
        <time>2014-02-23T09:15:20Z</time>
      </trkpt>
      <trkpt lat="41.628300150" lon="2.472356660">
        <ele>614.10</ele>
        <time>2014-02-23T09:15:21Z</time>
      </trkpt>
      <trkpt lat="41.628285060" lon="2.472333360">
        <ele>613.80</ele>
        <time>2014-02-23T09:15:22Z</time>
      </trkpt>
      <trkpt lat="41.628263440" lon="2.472313410">
        <ele>613.60</ele>
        <time>2014-02-23T09:15:23Z</time>
      </trkpt>
      <trkpt lat="41.628236780" lon="2.472296820">
        <ele>613.40</ele>
        <time>2014-02-23T09:15:24Z</time>
      </trkpt>
      <trkpt lat="41.628205100" lon="2.472280050">
        <ele>613.20</ele>
        <time>2014-02-23T09:15:25Z</time>
      </trkpt>
      <trkpt lat="41.628168390" lon="2.472261780">
        <ele>613.10</ele>
        <time>2014-02-23T09:15:26Z</time>
      </trkpt>
      <trkpt lat="41.628131680" lon="2.472245020">
        <ele>612.60</ele>
        <time>2014-02-23T09:15:27Z</time>
      </trkpt>
      <trkpt lat="41.628098480" lon="2.472230100">
        <ele>612.30</ele>
        <time>2014-02-23T09:15:28Z</time>
      </trkpt>
      <trkpt lat="41.628065120" lon="2.472220040">
        <ele>611.80</ele>
        <time>2014-02-23T09:15:29Z</time>
      </trkpt>
      <trkpt lat="41.628035120" lon="2.472201770">
        <ele>611.40</ele>
        <time>2014-02-23T09:15:30Z</time>
      </trkpt>
      <trkpt lat="41.628010140" lon="2.472183490">
        <ele>611.10</ele>
        <time>2014-02-23T09:15:31Z</time>
      </trkpt>
      <trkpt lat="41.627981810" lon="2.472158350">
        <ele>610.60</ele>
        <time>2014-02-23T09:15:32Z</time>
      </trkpt>
      <trkpt lat="41.627955150" lon="2.472128340">
        <ele>610.30</ele>
        <time>2014-02-23T09:15:33Z</time>
      </trkpt>
      <trkpt lat="41.627926820" lon="2.472093470">
        <ele>610.00</ele>
        <time>2014-02-23T09:15:34Z</time>
      </trkpt>
      <trkpt lat="41.627893460" lon="2.472065140">
        <ele>609.80</ele>
        <time>2014-02-23T09:15:35Z</time>
      </trkpt>
      <trkpt lat="41.627861780" lon="2.472036810">
        <ele>609.20</ele>
        <time>2014-02-23T09:15:36Z</time>
      </trkpt>
      <trkpt lat="41.627831770" lon="2.472011670">
        <ele>608.80</ele>
        <time>2014-02-23T09:15:37Z</time>
      </trkpt>
      <trkpt lat="41.627801760" lon="2.471986690">
        <ele>608.50</ele>
        <time>2014-02-23T09:15:38Z</time>
      </trkpt>
      <trkpt lat="41.627773430" lon="2.471966740">
        <ele>608.60</ele>
        <time>2014-02-23T09:15:39Z</time>
      </trkpt>
      <trkpt lat="41.627743430" lon="2.471941760">
        <ele>608.70</ele>
        <time>2014-02-23T09:15:40Z</time>
      </trkpt>
      <trkpt lat="41.627711740" lon="2.471918460">
        <ele>608.30</ele>
        <time>2014-02-23T09:15:41Z</time>
      </trkpt>
      <trkpt lat="41.627680060" lon="2.471898340">
        <ele>608.00</ele>
        <time>2014-02-23T09:15:42Z</time>
      </trkpt>
      <trkpt lat="41.627651730" lon="2.471875040">
        <ele>607.90</ele>
        <time>2014-02-23T09:15:43Z</time>
      </trkpt>
      <trkpt lat="41.627625070" lon="2.471846710">
        <ele>607.80</ele>
        <time>2014-02-23T09:15:44Z</time>
      </trkpt>
      <trkpt lat="41.627601770" lon="2.471818380">
        <ele>607.70</ele>
        <time>2014-02-23T09:15:45Z</time>
      </trkpt>
      <trkpt lat="41.627580150" lon="2.471791720">
        <ele>607.20</ele>
        <time>2014-02-23T09:15:46Z</time>
      </trkpt>
      <trkpt lat="41.627563380" lon="2.471761720">
        <ele>606.90</ele>
        <time>2014-02-23T09:15:47Z</time>
      </trkpt>
      <trkpt lat="41.627546790" lon="2.471731710">
        <ele>606.50</ele>
        <time>2014-02-23T09:15:48Z</time>
      </trkpt>
      <trkpt lat="41.627528350" lon="2.471705060">
        <ele>606.30</ele>
        <time>2014-02-23T09:15:49Z</time>
      </trkpt>
      <trkpt lat="41.627506720" lon="2.471678400">
        <ele>606.10</ele>
        <time>2014-02-23T09:15:50Z</time>
      </trkpt>
      <trkpt lat="41.627485100" lon="2.471645040">
        <ele>606.00</ele>
        <time>2014-02-23T09:15:51Z</time>
      </trkpt>
      <trkpt lat="41.627461790" lon="2.471606820">
        <ele>605.90</ele>
        <time>2014-02-23T09:15:52Z</time>
      </trkpt>
      <trkpt lat="41.627436820" lon="2.471565080">
        <ele>606.00</ele>
        <time>2014-02-23T09:15:53Z</time>
      </trkpt>
      <trkpt lat="41.627415020" lon="2.471513450">
        <ele>606.00</ele>
        <time>2014-02-23T09:15:54Z</time>
      </trkpt>
      <trkpt lat="41.627395070" lon="2.471458460">
        <ele>605.80</ele>
        <time>2014-02-23T09:15:55Z</time>
      </trkpt>
      <trkpt lat="41.627376800" lon="2.471401800">
        <ele>605.70</ele>
        <time>2014-02-23T09:15:56Z</time>
      </trkpt>
      <trkpt lat="41.627365070" lon="2.471345140">
        <ele>605.60</ele>
        <time>2014-02-23T09:15:57Z</time>
      </trkpt>
      <trkpt lat="41.627356680" lon="2.471290150">
        <ele>605.40</ele>
        <time>2014-02-23T09:15:58Z</time>
      </trkpt>
      <trkpt lat="41.627351820" lon="2.471240030">
        <ele>605.30</ele>
        <time>2014-02-23T09:15:59Z</time>
      </trkpt>
      <trkpt lat="41.627355010" lon="2.471191750">
        <ele>604.80</ele>
        <time>2014-02-23T09:16:00Z</time>
      </trkpt>
      <trkpt lat="41.627358360" lon="2.471138440">
        <ele>604.50</ele>
        <time>2014-02-23T09:16:01Z</time>
      </trkpt>
      <trkpt lat="41.627365070" lon="2.471095020">
        <ele>603.40</ele>
        <time>2014-02-23T09:16:02Z</time>
      </trkpt>
      <trkpt lat="41.627375120" lon="2.471055120">
        <ele>602.50</ele>
        <time>2014-02-23T09:16:03Z</time>
      </trkpt>
      <trkpt lat="41.627383340" lon="2.471015060">
        <ele>601.90</ele>
        <time>2014-02-23T09:16:04Z</time>
      </trkpt>
      <trkpt lat="41.627395070" lon="2.470983370">
        <ele>601.10</ele>
        <time>2014-02-23T09:16:05Z</time>
      </trkpt>
      <trkpt lat="41.627403460" lon="2.470946830">
        <ele>600.60</ele>
        <time>2014-02-23T09:16:06Z</time>
      </trkpt>
      <trkpt lat="41.627410160" lon="2.470905090">
        <ele>599.40</ele>
        <time>2014-02-23T09:16:07Z</time>
      </trkpt>
      <trkpt lat="41.627420050" lon="2.470860160">
        <ele>598.60</ele>
        <time>2014-02-23T09:16:08Z</time>
      </trkpt>
      <trkpt lat="41.627426760" lon="2.470803330">
        <ele>597.90</ele>
        <time>2014-02-23T09:16:09Z</time>
      </trkpt>
      <trkpt lat="41.627420050" lon="2.470743480">
        <ele>597.40</ele>
        <time>2014-02-23T09:16:10Z</time>
      </trkpt>
      <trkpt lat="41.627401780" lon="2.470685150">
        <ele>597.00</ele>
        <time>2014-02-23T09:16:11Z</time>
      </trkpt>
      <trkpt lat="41.627378480" lon="2.470636700">
        <ele>596.20</ele>
        <time>2014-02-23T09:16:12Z</time>
      </trkpt>
      <trkpt lat="41.627341760" lon="2.470596800">
        <ele>595.60</ele>
        <time>2014-02-23T09:16:13Z</time>
      </trkpt>
      <trkpt lat="41.627303380" lon="2.470561760">
        <ele>594.70</ele>
        <time>2014-02-23T09:16:14Z</time>
      </trkpt>
      <trkpt lat="41.627263480" lon="2.470528400">
        <ele>594.10</ele>
        <time>2014-02-23T09:16:15Z</time>
      </trkpt>
      <trkpt lat="41.627223410" lon="2.470486660">
        <ele>593.60</ele>
        <time>2014-02-23T09:16:16Z</time>
      </trkpt>
      <trkpt lat="41.627188380" lon="2.470445090">
        <ele>592.70</ele>
        <time>2014-02-23T09:16:17Z</time>
      </trkpt>
      <trkpt lat="41.627155020" lon="2.470408380">
        <ele>592.00</ele>
        <time>2014-02-23T09:16:18Z</time>
      </trkpt>
      <trkpt lat="41.627121820" lon="2.470386750">
        <ele>591.20</ele>
        <time>2014-02-23T09:16:19Z</time>
      </trkpt>
      <trkpt lat="41.627085110" lon="2.470353390">
        <ele>590.60</ele>
        <time>2014-02-23T09:16:20Z</time>
      </trkpt>
      <trkpt lat="41.627048400" lon="2.470315000">
        <ele>589.70</ele>
        <time>2014-02-23T09:16:21Z</time>
      </trkpt>
      <trkpt lat="41.627010010" lon="2.470280130">
        <ele>589.00</ele>
        <time>2014-02-23T09:16:22Z</time>
      </trkpt>
      <trkpt lat="41.626968430" lon="2.470243420">
        <ele>588.50</ele>
        <time>2014-02-23T09:16:23Z</time>
      </trkpt>
      <trkpt lat="41.626925020" lon="2.470211740">
        <ele>587.60</ele>
        <time>2014-02-23T09:16:24Z</time>
      </trkpt>
      <trkpt lat="41.626886790" lon="2.470180050">
        <ele>586.90</ele>
        <time>2014-02-23T09:16:25Z</time>
      </trkpt>
      <trkpt lat="41.626853430" lon="2.470148370">
        <ele>585.80</ele>
        <time>2014-02-23T09:16:26Z</time>
      </trkpt>
      <trkpt lat="41.626823430" lon="2.470120040">
        <ele>585.00</ele>
        <time>2014-02-23T09:16:27Z</time>
      </trkpt>
      <trkpt lat="41.626795100" lon="2.470091710">
        <ele>584.40</ele>
        <time>2014-02-23T09:16:28Z</time>
      </trkpt>
      <trkpt lat="41.626766770" lon="2.470065050">
        <ele>583.70</ele>
        <time>2014-02-23T09:16:29Z</time>
      </trkpt>
      <trkpt lat="41.626735080" lon="2.470036720">
        <ele>583.10</ele>
        <time>2014-02-23T09:16:30Z</time>
      </trkpt>
      <trkpt lat="41.626700050" lon="2.470013420">
        <ele>582.10</ele>
        <time>2014-02-23T09:16:31Z</time>
      </trkpt>
      <trkpt lat="41.626668360" lon="2.470001690">
        <ele>581.40</ele>
        <time>2014-02-23T09:16:32Z</time>
      </trkpt>
      <trkpt lat="41.626640030" lon="2.470010070">
        <ele>580.60</ele>
        <time>2014-02-23T09:16:33Z</time>
      </trkpt>
      <trkpt lat="41.626620080" lon="2.470031690">
        <ele>580.00</ele>
        <time>2014-02-23T09:16:34Z</time>
      </trkpt>
      <trkpt lat="41.626606670" lon="2.470063380">
        <ele>579.60</ele>
        <time>2014-02-23T09:16:35Z</time>
      </trkpt>
      <trkpt lat="41.626590080" lon="2.470090030">
        <ele>579.30</ele>
        <time>2014-02-23T09:16:36Z</time>
      </trkpt>
      <trkpt lat="41.626573480" lon="2.470110150">
        <ele>579.00</ele>
        <time>2014-02-23T09:16:37Z</time>
      </trkpt>
      <trkpt lat="41.626558390" lon="2.470130100">
        <ele>578.00</ele>
        <time>2014-02-23T09:16:38Z</time>
      </trkpt>
      <trkpt lat="41.626541800" lon="2.470148370">
        <ele>577.30</ele>
        <time>2014-02-23T09:16:39Z</time>
      </trkpt>
      <trkpt lat="41.626523360" lon="2.470165130">
        <ele>576.10</ele>
        <time>2014-02-23T09:16:40Z</time>
      </trkpt>
      <trkpt lat="41.626506760" lon="2.470180050">
        <ele>575.20</ele>
        <time>2014-02-23T09:16:41Z</time>
      </trkpt>
      <trkpt lat="41.626490000" lon="2.470195140">
        <ele>574.50</ele>
        <time>2014-02-23T09:16:42Z</time>
      </trkpt>
      <trkpt lat="41.626468370" lon="2.470210060">
        <ele>574.30</ele>
        <time>2014-02-23T09:16:43Z</time>
      </trkpt>
      <trkpt lat="41.626443390" lon="2.470228330">
        <ele>574.10</ele>
        <time>2014-02-23T09:16:44Z</time>
      </trkpt>
      <trkpt lat="41.626418410" lon="2.470248450">
        <ele>573.40</ele>
        <time>2014-02-23T09:16:45Z</time>
      </trkpt>
      <trkpt lat="41.626391760" lon="2.470255150">
        <ele>572.90</ele>
        <time>2014-02-23T09:16:46Z</time>
      </trkpt>
      <trkpt lat="41.626360080" lon="2.470260020">
        <ele>572.50</ele>
        <time>2014-02-23T09:16:47Z</time>
      </trkpt>
      <trkpt lat="41.626323360" lon="2.470261690">
        <ele>571.60</ele>
        <time>2014-02-23T09:16:48Z</time>
      </trkpt>
      <trkpt lat="41.626288490" lon="2.470251800">
        <ele>570.90</ele>
        <time>2014-02-23T09:16:49Z</time>
      </trkpt>
      <trkpt lat="41.626256810" lon="2.470221790">
        <ele>569.50</ele>
        <time>2014-02-23T09:16:50Z</time>
      </trkpt>
      <trkpt lat="41.626230160" lon="2.470185080">
        <ele>568.40</ele>
        <time>2014-02-23T09:16:51Z</time>
      </trkpt>
      <trkpt lat="41.626208360" lon="2.470135120">
        <ele>567.50</ele>
        <time>2014-02-23T09:16:52Z</time>
      </trkpt>
      <trkpt lat="41.626185060" lon="2.470080140">
        <ele>566.70</ele>
        <time>2014-02-23T09:16:53Z</time>
      </trkpt>
      <trkpt lat="41.626160080" lon="2.470020130">
        <ele>566.20</ele>
        <time>2014-02-23T09:16:54Z</time>
      </trkpt>
      <trkpt lat="41.626123370" lon="2.469961790">
        <ele>566.00</ele>
        <time>2014-02-23T09:16:55Z</time>
      </trkpt>
      <trkpt lat="41.626086830" lon="2.469913340">
        <ele>565.80</ele>
        <time>2014-02-23T09:16:56Z</time>
      </trkpt>
      <trkpt lat="41.626043410" lon="2.469866740">
        <ele>565.20</ele>
        <time>2014-02-23T09:16:57Z</time>
      </trkpt>
      <trkpt lat="41.625995130" lon="2.469830020">
        <ele>564.80</ele>
        <time>2014-02-23T09:16:58Z</time>
      </trkpt>
      <trkpt lat="41.625940140" lon="2.469795150">
        <ele>563.70</ele>
        <time>2014-02-23T09:16:59Z</time>
      </trkpt>
      <trkpt lat="41.625888340" lon="2.469756770">
        <ele>562.90</ele>
        <time>2014-02-23T09:17:00Z</time>
      </trkpt>
      <trkpt lat="41.625835030" lon="2.469720050">
        <ele>562.30</ele>
        <time>2014-02-23T09:17:01Z</time>
      </trkpt>
      <trkpt lat="41.625786750" lon="2.469671770">
        <ele>561.60</ele>
        <time>2014-02-23T09:17:02Z</time>
      </trkpt>
      <trkpt lat="41.625740150" lon="2.469616790">
        <ele>561.00</ele>
        <time>2014-02-23T09:17:03Z</time>
      </trkpt>
      <trkpt lat="41.625686670" lon="2.469575050">
        <ele>560.50</ele>
        <time>2014-02-23T09:17:04Z</time>
      </trkpt>
      <trkpt lat="41.625631690" lon="2.469553420">
        <ele>560.00</ele>
        <time>2014-02-23T09:17:05Z</time>
      </trkpt>
      <trkpt lat="41.625578380" lon="2.469530120">
        <ele>559.70</ele>
        <time>2014-02-23T09:17:06Z</time>
      </trkpt>
      <trkpt lat="41.625526750" lon="2.469490050">
        <ele>559.30</ele>
        <time>2014-02-23T09:17:07Z</time>
      </trkpt>
      <trkpt lat="41.625485010" lon="2.469443450">
        <ele>558.90</ele>
        <time>2014-02-23T09:17:08Z</time>
      </trkpt>
      <trkpt lat="41.625455000" lon="2.469386790">
        <ele>559.30</ele>
        <time>2014-02-23T09:17:09Z</time>
      </trkpt>
      <trkpt lat="41.625426670" lon="2.469326770">
        <ele>559.50</ele>
        <time>2014-02-23T09:17:10Z</time>
      </trkpt>
      <trkpt lat="41.625400010" lon="2.469266760">
        <ele>559.10</ele>
        <time>2014-02-23T09:17:11Z</time>
      </trkpt>
      <trkpt lat="41.625373360" lon="2.469211770">
        <ele>558.80</ele>
        <time>2014-02-23T09:17:12Z</time>
      </trkpt>
      <trkpt lat="41.625346700" lon="2.469163490">
        <ele>558.50</ele>
        <time>2014-02-23T09:17:13Z</time>
      </trkpt>
      <trkpt lat="41.625323400" lon="2.469111690">
        <ele>558.20</ele>
        <time>2014-02-23T09:17:14Z</time>
      </trkpt>
      <trkpt lat="41.625303450" lon="2.469073470">
        <ele>557.90</ele>
        <time>2014-02-23T09:17:15Z</time>
      </trkpt>
      <trkpt lat="41.625285010" lon="2.469033410">
        <ele>558.10</ele>
        <time>2014-02-23T09:17:16Z</time>
      </trkpt>
      <trkpt lat="41.625268420" lon="2.468996690">
        <ele>558.30</ele>
        <time>2014-02-23T09:17:17Z</time>
      </trkpt>
      <trkpt lat="41.625253330" lon="2.468965010">
        <ele>558.20</ele>
        <time>2014-02-23T09:17:18Z</time>
      </trkpt>
      <trkpt lat="41.625238410" lon="2.468930140">
        <ele>558.20</ele>
        <time>2014-02-23T09:17:19Z</time>
      </trkpt>
      <trkpt lat="41.625221810" lon="2.468896780">
        <ele>558.10</ele>
        <time>2014-02-23T09:17:20Z</time>
      </trkpt>
      <trkpt lat="41.625206730" lon="2.468863420">
        <ele>558.40</ele>
        <time>2014-02-23T09:17:21Z</time>
      </trkpt>
      <trkpt lat="41.625190130" lon="2.468833420">
        <ele>558.60</ele>
        <time>2014-02-23T09:17:22Z</time>
      </trkpt>
      <trkpt lat="41.625175040" lon="2.468798380">
        <ele>558.80</ele>
        <time>2014-02-23T09:17:23Z</time>
      </trkpt>
      <trkpt lat="41.625156770" lon="2.468765020">
        <ele>558.90</ele>
        <time>2014-02-23T09:17:24Z</time>
      </trkpt>
      <trkpt lat="41.625143360" lon="2.468733340">
        <ele>559.00</ele>
        <time>2014-02-23T09:17:25Z</time>
      </trkpt>
      <trkpt lat="41.625125090" lon="2.468695110">
        <ele>558.90</ele>
        <time>2014-02-23T09:17:26Z</time>
      </trkpt>
      <trkpt lat="41.625101780" lon="2.468648340">
        <ele>558.80</ele>
        <time>2014-02-23T09:17:27Z</time>
      </trkpt>
      <trkpt lat="41.625075130" lon="2.468596710">
        <ele>558.50</ele>
        <time>2014-02-23T09:17:28Z</time>
      </trkpt>
      <trkpt lat="41.625050150" lon="2.468538370">
        <ele>558.20</ele>
        <time>2014-02-23T09:17:29Z</time>
      </trkpt>
      <trkpt lat="41.625025010" lon="2.468483390">
        <ele>558.00</ele>
        <time>2014-02-23T09:17:30Z</time>
      </trkpt>
      <trkpt lat="41.625001700" lon="2.468430080">
        <ele>557.90</ele>
        <time>2014-02-23T09:17:31Z</time>
      </trkpt>
      <trkpt lat="41.624980080" lon="2.468380120">
        <ele>557.80</ele>
        <time>2014-02-23T09:17:32Z</time>
      </trkpt>
      <trkpt lat="41.624955100" lon="2.468343410">
        <ele>557.80</ele>
        <time>2014-02-23T09:17:33Z</time>
      </trkpt>
      <trkpt lat="41.624935150" lon="2.468311730">
        <ele>557.80</ele>
        <time>2014-02-23T09:17:34Z</time>
      </trkpt>
      <trkpt lat="41.624918390" lon="2.468278370">
        <ele>557.90</ele>
        <time>2014-02-23T09:17:35Z</time>
      </trkpt>
      <trkpt lat="41.624906820" lon="2.468231760">
        <ele>558.00</ele>
        <time>2014-02-23T09:17:36Z</time>
      </trkpt>
      <trkpt lat="41.624895090" lon="2.468175100">
        <ele>558.00</ele>
        <time>2014-02-23T09:17:37Z</time>
      </trkpt>
      <trkpt lat="41.624885030" lon="2.468113410">
        <ele>558.00</ele>
        <time>2014-02-23T09:17:38Z</time>
      </trkpt>
      <trkpt lat="41.624873460" lon="2.468038480">
        <ele>558.00</ele>
        <time>2014-02-23T09:17:39Z</time>
      </trkpt>
      <trkpt lat="41.624848480" lon="2.467980140">
        <ele>557.20</ele>
        <time>2014-02-23T09:17:40Z</time>
      </trkpt>
      <trkpt lat="41.624808420" lon="2.467920120">
        <ele>556.60</ele>
        <time>2014-02-23T09:17:41Z</time>
      </trkpt>
      <trkpt lat="41.624756790" lon="2.467871680">
        <ele>555.90</ele>
        <time>2014-02-23T09:17:42Z</time>
      </trkpt>
      <trkpt lat="41.624705150" lon="2.467840160">
        <ele>555.40</ele>
        <time>2014-02-23T09:17:43Z</time>
      </trkpt>
      <trkpt lat="41.624660060" lon="2.467810150">
        <ele>555.00</ele>
        <time>2014-02-23T09:17:44Z</time>
      </trkpt>
      <trkpt lat="41.624615130" lon="2.467780150">
        <ele>554.20</ele>
        <time>2014-02-23T09:17:45Z</time>
      </trkpt>
      <trkpt lat="41.624573390" lon="2.467751810">
        <ele>553.50</ele>
        <time>2014-02-23T09:17:46Z</time>
      </trkpt>
      <trkpt lat="41.624540030" lon="2.467725160">
        <ele>552.50</ele>
        <time>2014-02-23T09:17:47Z</time>
      </trkpt>
      <trkpt lat="41.624511700" lon="2.467706720">
        <ele>551.70</ele>
        <time>2014-02-23T09:17:48Z</time>
      </trkpt>
      <trkpt lat="41.624486720" lon="2.467685090">
        <ele>550.90</ele>
        <time>2014-02-23T09:17:49Z</time>
      </trkpt>
      <trkpt lat="41.624461740" lon="2.467658440">
        <ele>550.40</ele>
        <time>2014-02-23T09:17:50Z</time>
      </trkpt>
      <trkpt lat="41.624441790" lon="2.467636810">
        <ele>550.00</ele>
        <time>2014-02-23T09:17:51Z</time>
      </trkpt>
      <trkpt lat="41.624420000" lon="2.467615020">
        <ele>549.40</ele>
        <time>2014-02-23T09:17:52Z</time>
      </trkpt>
      <trkpt lat="41.624400050" lon="2.467591720">
        <ele>549.00</ele>
        <time>2014-02-23T09:17:53Z</time>
      </trkpt>
      <trkpt lat="41.624378430" lon="2.467566740">
        <ele>548.20</ele>
        <time>2014-02-23T09:17:54Z</time>
      </trkpt>
      <trkpt lat="41.624353450" lon="2.467536740">
        <ele>547.60</ele>
        <time>2014-02-23T09:17:55Z</time>
      </trkpt>
      <trkpt lat="41.624328470" lon="2.467510080">
        <ele>546.70</ele>
        <time>2014-02-23T09:17:56Z</time>
      </trkpt>
      <trkpt lat="41.624305000" lon="2.467480070">
        <ele>546.00</ele>
        <time>2014-02-23T09:17:57Z</time>
      </trkpt>
      <trkpt lat="41.624285050" lon="2.467450070">
        <ele>545.50</ele>
        <time>2014-02-23T09:17:58Z</time>
      </trkpt>
      <trkpt lat="41.624263430" lon="2.467425090">
        <ele>545.10</ele>
        <time>2014-02-23T09:17:59Z</time>
      </trkpt>
      <trkpt lat="41.624238450" lon="2.467405140">
        <ele>544.90</ele>
        <time>2014-02-23T09:18:00Z</time>
      </trkpt>
      <trkpt lat="41.624215150" lon="2.467373460">
        <ele>544.00</ele>
        <time>2014-02-23T09:18:01Z</time>
      </trkpt>
      <trkpt lat="41.624196710" lon="2.467330040">
        <ele>543.40</ele>
        <time>2014-02-23T09:18:02Z</time>
      </trkpt>
      <trkpt lat="41.624178430" lon="2.467283430">
        <ele>542.90</ele>
        <time>2014-02-23T09:18:03Z</time>
      </trkpt>
      <trkpt lat="41.624161670" lon="2.467243370">
        <ele>542.30</ele>
        <time>2014-02-23T09:18:04Z</time>
      </trkpt>
      <trkpt lat="41.624150100" lon="2.467208330">
        <ele>541.80</ele>
        <time>2014-02-23T09:18:05Z</time>
      </trkpt>
      <trkpt lat="41.624133340" lon="2.467178490">
        <ele>540.70</ele>
        <time>2014-02-23T09:18:06Z</time>
      </trkpt>
      <trkpt lat="41.624108360" lon="2.467143460">
        <ele>539.90</ele>
        <time>2014-02-23T09:18:07Z</time>
      </trkpt>
      <trkpt lat="41.624083380" lon="2.467110100">
        <ele>539.30</ele>
        <time>2014-02-23T09:18:08Z</time>
      </trkpt>
      <trkpt lat="41.624061760" lon="2.467085120">
        <ele>538.80</ele>
        <time>2014-02-23T09:18:09Z</time>
      </trkpt>
      <trkpt lat="41.624036780" lon="2.467075060">
        <ele>538.40</ele>
        <time>2014-02-23T09:18:10Z</time>
      </trkpt>
      <trkpt lat="41.624006770" lon="2.467073380">
        <ele>538.10</ele>
        <time>2014-02-23T09:18:11Z</time>
      </trkpt>
      <trkpt lat="41.623968380" lon="2.467066680">
        <ele>537.90</ele>
        <time>2014-02-23T09:18:12Z</time>
      </trkpt>
      <trkpt lat="41.623931670" lon="2.467056790">
        <ele>537.00</ele>
        <time>2014-02-23T09:18:13Z</time>
      </trkpt>
      <trkpt lat="41.623895130" lon="2.467045050">
        <ele>536.40</ele>
        <time>2014-02-23T09:18:14Z</time>
      </trkpt>
      <trkpt lat="41.623860090" lon="2.467021750">
        <ele>535.20</ele>
        <time>2014-02-23T09:18:15Z</time>
      </trkpt>
      <trkpt lat="41.623828410" lon="2.466991740">
        <ele>534.20</ele>
        <time>2014-02-23T09:18:16Z</time>
      </trkpt>
      <trkpt lat="41.623806780" lon="2.466960060">
        <ele>533.50</ele>
        <time>2014-02-23T09:18:17Z</time>
      </trkpt>
      <trkpt lat="41.623785160" lon="2.466918490">
        <ele>532.60</ele>
        <time>2014-02-23T09:18:18Z</time>
      </trkpt>
      <trkpt lat="41.623771740" lon="2.466873390">
        <ele>531.90</ele>
        <time>2014-02-23T09:18:19Z</time>
      </trkpt>
      <trkpt lat="41.623758330" lon="2.466830140">
        <ele>531.10</ele>
        <time>2014-02-23T09:18:20Z</time>
      </trkpt>
      <trkpt lat="41.623736710" lon="2.466788400">
        <ele>530.50</ele>
        <time>2014-02-23T09:18:21Z</time>
      </trkpt>
      <trkpt lat="41.623700000" lon="2.466765100">
        <ele>530.10</ele>
        <time>2014-02-23T09:18:22Z</time>
      </trkpt>
      <trkpt lat="41.623658420" lon="2.466760070">
        <ele>529.60</ele>
        <time>2014-02-23T09:18:23Z</time>
      </trkpt>
      <trkpt lat="41.623610140" lon="2.466765100">
        <ele>529.20</ele>
        <time>2014-02-23T09:18:24Z</time>
      </trkpt>
      <trkpt lat="41.623561690" lon="2.466773480">
        <ele>528.50</ele>
        <time>2014-02-23T09:18:25Z</time>
      </trkpt>
      <trkpt lat="41.623516770" lon="2.466775160">
        <ele>528.10</ele>
        <time>2014-02-23T09:18:26Z</time>
      </trkpt>
      <trkpt lat="41.623470000" lon="2.466771800">
        <ele>527.10</ele>
        <time>2014-02-23T09:18:27Z</time>
      </trkpt>
      <trkpt lat="41.623425070" lon="2.466758390">
        <ele>526.40</ele>
        <time>2014-02-23T09:18:28Z</time>
      </trkpt>
      <trkpt lat="41.623378470" lon="2.466736770">
        <ele>525.80</ele>
        <time>2014-02-23T09:18:29Z</time>
      </trkpt>
      <trkpt lat="41.623336720" lon="2.466705080">
        <ele>525.40</ele>
        <time>2014-02-23T09:18:30Z</time>
      </trkpt>
      <trkpt lat="41.623300010" lon="2.466666690">
        <ele>525.00</ele>
        <time>2014-02-23T09:18:31Z</time>
      </trkpt>
      <trkpt lat="41.623266820" lon="2.466618410">
        <ele>524.90</ele>
        <time>2014-02-23T09:18:32Z</time>
      </trkpt>
      <trkpt lat="41.623240000" lon="2.466571810">
        <ele>524.90</ele>
        <time>2014-02-23T09:18:33Z</time>
      </trkpt>
      <trkpt lat="41.623218370" lon="2.466525040">
        <ele>524.70</ele>
        <time>2014-02-23T09:18:34Z</time>
      </trkpt>
      <trkpt lat="41.623205130" lon="2.466473410">
        <ele>524.50</ele>
        <time>2014-02-23T09:18:35Z</time>
      </trkpt>
      <trkpt lat="41.623201780" lon="2.466425130">
        <ele>524.40</ele>
        <time>2014-02-23T09:18:36Z</time>
      </trkpt>
      <trkpt lat="41.623195070" lon="2.466380030">
        <ele>523.60</ele>
        <time>2014-02-23T09:18:37Z</time>
      </trkpt>
      <trkpt lat="41.623183330" lon="2.466336780">
        <ele>523.00</ele>
        <time>2014-02-23T09:18:38Z</time>
      </trkpt>
      <trkpt lat="41.623165060" lon="2.466288330">
        <ele>522.20</ele>
        <time>2014-02-23T09:18:39Z</time>
      </trkpt>
      <trkpt lat="41.623140080" lon="2.466236700">
        <ele>521.50</ele>
        <time>2014-02-23T09:18:40Z</time>
      </trkpt>
      <trkpt lat="41.623113430" lon="2.466185070">
        <ele>521.10</ele>
        <time>2014-02-23T09:18:41Z</time>
      </trkpt>
      <trkpt lat="41.623088450" lon="2.466120030">
        <ele>520.20</ele>
        <time>2014-02-23T09:18:42Z</time>
      </trkpt>
      <trkpt lat="41.623071690" lon="2.466043420">
        <ele>519.60</ele>
        <time>2014-02-23T09:18:43Z</time>
      </trkpt>
      <trkpt lat="41.623060120" lon="2.465965130">
        <ele>518.80</ele>
        <time>2014-02-23T09:18:44Z</time>
      </trkpt>
      <trkpt lat="41.623048390" lon="2.465895060">
        <ele>518.10</ele>
        <time>2014-02-23T09:18:45Z</time>
      </trkpt>
      <trkpt lat="41.623026760" lon="2.465828340">
        <ele>517.20</ele>
        <time>2014-02-23T09:18:46Z</time>
      </trkpt>
      <trkpt lat="41.623008490" lon="2.465760110">
        <ele>516.50</ele>
        <time>2014-02-23T09:18:47Z</time>
      </trkpt>
      <trkpt lat="41.622988370" lon="2.465695060">
        <ele>515.90</ele>
        <time>2014-02-23T09:18:48Z</time>
      </trkpt>
      <trkpt lat="41.622963390" lon="2.465631700">
        <ele>515.50</ele>
        <time>2014-02-23T09:18:49Z</time>
      </trkpt>
      <trkpt lat="41.622941770" lon="2.465561790">
        <ele>515.20</ele>
        <time>2014-02-23T09:18:50Z</time>
      </trkpt>
      <trkpt lat="41.622918470" lon="2.465490040">
        <ele>514.50</ele>
        <time>2014-02-23T09:18:51Z</time>
      </trkpt>
      <trkpt lat="41.622885110" lon="2.465415110">
        <ele>514.00</ele>
        <time>2014-02-23T09:18:52Z</time>
      </trkpt>
      <trkpt lat="41.622850070" lon="2.465343360">
        <ele>513.80</ele>
        <time>2014-02-23T09:18:53Z</time>
      </trkpt>
      <trkpt lat="41.622813360" lon="2.465275130">
        <ele>513.70</ele>
        <time>2014-02-23T09:18:54Z</time>
      </trkpt>
      <trkpt lat="41.622783350" lon="2.465200030">
        <ele>513.50</ele>
        <time>2014-02-23T09:18:55Z</time>
      </trkpt>
      <trkpt lat="41.622755020" lon="2.465121740">
        <ele>512.80</ele>
        <time>2014-02-23T09:18:56Z</time>
      </trkpt>
      <trkpt lat="41.622730040" lon="2.465053340">
        <ele>512.30</ele>
        <time>2014-02-23T09:18:57Z</time>
      </trkpt>
      <trkpt lat="41.622708420" lon="2.464975060">
        <ele>512.00</ele>
        <time>2014-02-23T09:18:58Z</time>
      </trkpt>
      <trkpt lat="41.622686790" lon="2.464895090">
        <ele>511.70</ele>
        <time>2014-02-23T09:18:59Z</time>
      </trkpt>
      <trkpt lat="41.622663490" lon="2.464815130">
        <ele>511.30</ele>
        <time>2014-02-23T09:19:00Z</time>
      </trkpt>
      <trkpt lat="41.622640020" lon="2.464738350">
        <ele>511.00</ele>
        <time>2014-02-23T09:19:01Z</time>
      </trkpt>
      <trkpt lat="41.622626780" lon="2.464663420">
        <ele>510.80</ele>
        <time>2014-02-23T09:19:02Z</time>
      </trkpt>
      <trkpt lat="41.622616720" lon="2.464591670">
        <ele>510.60</ele>
        <time>2014-02-23T09:19:03Z</time>
      </trkpt>
      <trkpt lat="41.622606830" lon="2.464538360">
        <ele>510.40</ele>
        <time>2014-02-23T09:19:04Z</time>
      </trkpt>
      <trkpt lat="41.622590060" lon="2.464490080">
        <ele>509.90</ele>
        <time>2014-02-23T09:19:05Z</time>
      </trkpt>
      <trkpt lat="41.622566760" lon="2.464455040">
        <ele>509.50</ele>
        <time>2014-02-23T09:19:06Z</time>
      </trkpt>
      <trkpt lat="41.622536750" lon="2.464430070">
        <ele>509.20</ele>
        <time>2014-02-23T09:19:07Z</time>
      </trkpt>
      <trkpt lat="41.622505070" lon="2.464406760">
        <ele>509.20</ele>
        <time>2014-02-23T09:19:08Z</time>
      </trkpt>
      <trkpt lat="41.622476740" lon="2.464383460">
        <ele>509.10</ele>
        <time>2014-02-23T09:19:09Z</time>
      </trkpt>
      <trkpt lat="41.622443380" lon="2.464365020">
        <ele>509.00</ele>
        <time>2014-02-23T09:19:10Z</time>
      </trkpt>
      <trkpt lat="41.622410020" lon="2.464343400">
        <ele>509.00</ele>
        <time>2014-02-23T09:19:11Z</time>
      </trkpt>
      <trkpt lat="41.622381690" lon="2.464308360">
        <ele>508.30</ele>
        <time>2014-02-23T09:19:12Z</time>
      </trkpt>
      <trkpt lat="41.622353360" lon="2.464271820">
        <ele>507.70</ele>
        <time>2014-02-23T09:19:13Z</time>
      </trkpt>
      <trkpt lat="41.622326700" lon="2.464235100">
        <ele>507.30</ele>
        <time>2014-02-23T09:19:14Z</time>
      </trkpt>
      <trkpt lat="41.622303400" lon="2.464196710">
        <ele>506.60</ele>
        <time>2014-02-23T09:19:15Z</time>
      </trkpt>
      <trkpt lat="41.622281780" lon="2.464153460">
        <ele>506.00</ele>
        <time>2014-02-23T09:19:16Z</time>
      </trkpt>
      <trkpt lat="41.622256800" lon="2.464106690">
        <ele>504.70</ele>
        <time>2014-02-23T09:19:17Z</time>
      </trkpt>
      <trkpt lat="41.622235010" lon="2.464063440">
        <ele>503.80</ele>
        <time>2014-02-23T09:19:18Z</time>
      </trkpt>
      <trkpt lat="41.622211700" lon="2.464025050">
        <ele>503.00</ele>
        <time>2014-02-23T09:19:19Z</time>
      </trkpt>
      <trkpt lat="41.622193430" lon="2.463985150">
        <ele>502.50</ele>
        <time>2014-02-23T09:19:20Z</time>
      </trkpt>
      <trkpt lat="41.622175160" lon="2.463933350">
        <ele>502.00</ele>
        <time>2014-02-23T09:19:21Z</time>
      </trkpt>
      <trkpt lat="41.622166780" lon="2.463876690">
        <ele>501.10</ele>
        <time>2014-02-23T09:19:22Z</time>
      </trkpt>
      <trkpt lat="41.622170130" lon="2.463823380">
        <ele>500.40</ele>
        <time>2014-02-23T09:19:23Z</time>
      </trkpt>
      <trkpt lat="41.622176670" lon="2.463765050">
        <ele>499.90</ele>
        <time>2014-02-23T09:19:24Z</time>
      </trkpt>
      <trkpt lat="41.622183370" lon="2.463706710">
        <ele>499.50</ele>
        <time>2014-02-23T09:19:25Z</time>
      </trkpt>
      <trkpt lat="41.622188400" lon="2.463646690">
        <ele>499.20</ele>
        <time>2014-02-23T09:19:26Z</time>
      </trkpt>
      <trkpt lat="41.622190080" lon="2.463585000">
        <ele>498.90</ele>
        <time>2014-02-23T09:19:27Z</time>
      </trkpt>
      <trkpt lat="41.622190080" lon="2.463531690">
        <ele>498.70</ele>
        <time>2014-02-23T09:19:28Z</time>
      </trkpt>
      <trkpt lat="41.622196780" lon="2.463476710">
        <ele>498.30</ele>
        <time>2014-02-23T09:19:29Z</time>
      </trkpt>
      <trkpt lat="41.622205000" lon="2.463420050">
        <ele>498.10</ele>
        <time>2014-02-23T09:19:30Z</time>
      </trkpt>
      <trkpt lat="41.622216730" lon="2.463360030">
        <ele>497.90</ele>
        <time>2014-02-23T09:19:31Z</time>
      </trkpt>
      <trkpt lat="41.622226790" lon="2.463306720">
        <ele>497.80</ele>
        <time>2014-02-23T09:19:32Z</time>
      </trkpt>
      <trkpt lat="41.622243390" lon="2.463265150">
        <ele>497.70</ele>
        <time>2014-02-23T09:19:33Z</time>
      </trkpt>
      <trkpt lat="41.622261830" lon="2.463223410">
        <ele>497.40</ele>
        <time>2014-02-23T09:19:34Z</time>
      </trkpt>
      <trkpt lat="41.622281780" lon="2.463176800">
        <ele>497.10</ele>
        <time>2014-02-23T09:19:35Z</time>
      </trkpt>
      <trkpt lat="41.622303400" lon="2.463141770">
        <ele>496.90</ele>
        <time>2014-02-23T09:19:36Z</time>
      </trkpt>
      <trkpt lat="41.622326700" lon="2.463111760">
        <ele>496.70</ele>
        <time>2014-02-23T09:19:37Z</time>
      </trkpt>
      <trkpt lat="41.622350010" lon="2.463086780">
        <ele>496.40</ele>
        <time>2014-02-23T09:19:38Z</time>
      </trkpt>
      <trkpt lat="41.622376830" lon="2.463058450">
        <ele>496.20</ele>
        <time>2014-02-23T09:19:39Z</time>
      </trkpt>
      <trkpt lat="41.622395100" lon="2.463033470">
        <ele>496.00</ele>
        <time>2014-02-23T09:19:40Z</time>
      </trkpt>
      <trkpt lat="41.622413370" lon="2.463006820">
        <ele>495.40</ele>
        <time>2014-02-23T09:19:41Z</time>
      </trkpt>
      <trkpt lat="41.622436670" lon="2.462985030">
        <ele>494.90</ele>
        <time>2014-02-23T09:19:42Z</time>
      </trkpt>
      <trkpt lat="41.622455120" lon="2.462963400">
        <ele>494.40</ele>
        <time>2014-02-23T09:19:43Z</time>
      </trkpt>
      <trkpt lat="41.622476740" lon="2.462948480">
        <ele>494.00</ele>
        <time>2014-02-23T09:19:44Z</time>
      </trkpt>
      <trkpt lat="41.622505070" lon="2.462933390">
        <ele>493.70</ele>
        <time>2014-02-23T09:19:45Z</time>
      </trkpt>
      <trkpt lat="41.622528370" lon="2.462913440">
        <ele>493.60</ele>
        <time>2014-02-23T09:19:46Z</time>
      </trkpt>
      <trkpt lat="41.622548490" lon="2.462883440">
        <ele>493.60</ele>
        <time>2014-02-23T09:19:47Z</time>
      </trkpt>
      <trkpt lat="41.622578330" lon="2.462846720">
        <ele>492.90</ele>
        <time>2014-02-23T09:19:48Z</time>
      </trkpt>
      <trkpt lat="41.622611690" lon="2.462818390">
        <ele>492.40</ele>
        <time>2014-02-23T09:19:49Z</time>
      </trkpt>
      <trkpt lat="41.622636670" lon="2.462790060">
        <ele>491.50</ele>
        <time>2014-02-23T09:19:50Z</time>
      </trkpt>
      <trkpt lat="41.622653430" lon="2.462775140">
        <ele>490.90</ele>
        <time>2014-02-23T09:19:51Z</time>
      </trkpt>
      <trkpt lat="41.622665000" lon="2.462766760">
        <ele>490.40</ele>
        <time>2014-02-23T09:19:52Z</time>
      </trkpt>
      <trkpt lat="41.622675060" lon="2.462766760">
        <ele>490.10</ele>
        <time>2014-02-23T09:19:53Z</time>
      </trkpt>
      <trkpt lat="41.622691820" lon="2.462771790">
        <ele>489.90</ele>
        <time>2014-02-23T09:19:54Z</time>
      </trkpt>
      <trkpt lat="41.622716800" lon="2.462783360">
        <ele>489.10</ele>
        <time>2014-02-23T09:19:55Z</time>
      </trkpt>
      <trkpt lat="41.622741780" lon="2.462793420">
        <ele>488.60</ele>
        <time>2014-02-23T09:19:56Z</time>
      </trkpt>
      <trkpt lat="41.622768430" lon="2.462793420">
        <ele>488.20</ele>
        <time>2014-02-23T09:19:57Z</time>
      </trkpt>
      <trkpt lat="41.622798440" lon="2.462796770">
        <ele>487.20</ele>
        <time>2014-02-23T09:19:58Z</time>
      </trkpt>
      <trkpt lat="41.622831800" lon="2.462796770">
        <ele>486.50</ele>
        <time>2014-02-23T09:19:59Z</time>
      </trkpt>
      <trkpt lat="41.622866670" lon="2.462798450">
        <ele>486.10</ele>
        <time>2014-02-23T09:20:00Z</time>
      </trkpt>
      <trkpt lat="41.622910080" lon="2.462808340">
        <ele>485.90</ele>
        <time>2014-02-23T09:20:01Z</time>
      </trkpt>
      <trkpt lat="41.622943440" lon="2.462820070">
        <ele>484.90</ele>
        <time>2014-02-23T09:20:02Z</time>
      </trkpt>
      <trkpt lat="41.622975130" lon="2.462831810">
        <ele>484.20</ele>
        <time>2014-02-23T09:20:03Z</time>
      </trkpt>
      <trkpt lat="41.623008490" lon="2.462846720">
        <ele>483.60</ele>
        <time>2014-02-23T09:20:04Z</time>
      </trkpt>
      <trkpt lat="41.623033470" lon="2.462865000">
        <ele>482.60</ele>
        <time>2014-02-23T09:20:05Z</time>
      </trkpt>
      <trkpt lat="41.623058440" lon="2.462880080">
        <ele>481.90</ele>
        <time>2014-02-23T09:20:06Z</time>
      </trkpt>
      <trkpt lat="41.623088450" lon="2.462896680">
        <ele>480.70</ele>
        <time>2014-02-23T09:20:07Z</time>
      </trkpt>
      <trkpt lat="41.623118460" lon="2.462918470">
        <ele>479.90</ele>
        <time>2014-02-23T09:20:08Z</time>
      </trkpt>
      <trkpt lat="41.623150140" lon="2.462948480">
        <ele>478.80</ele>
        <time>2014-02-23T09:20:09Z</time>
      </trkpt>
      <trkpt lat="41.623181830" lon="2.462986700">
        <ele>478.00</ele>
        <time>2014-02-23T09:20:10Z</time>
      </trkpt>
      <trkpt lat="41.623213340" lon="2.463028440">
        <ele>477.40</ele>
        <time>2014-02-23T09:20:11Z</time>
      </trkpt>
      <trkpt lat="41.623241670" lon="2.463073370">
        <ele>476.60</ele>
        <time>2014-02-23T09:20:12Z</time>
      </trkpt>
      <trkpt lat="41.623266820" lon="2.463123500">
        <ele>476.00</ele>
        <time>2014-02-23T09:20:13Z</time>
      </trkpt>
      <trkpt lat="41.623285090" lon="2.463171780">
        <ele>475.60</ele>
        <time>2014-02-23T09:20:14Z</time>
      </trkpt>
      <trkpt lat="41.623295150" lon="2.463221730">
        <ele>475.30</ele>
        <time>2014-02-23T09:20:15Z</time>
      </trkpt>
      <trkpt lat="41.623310070" lon="2.463273360">
        <ele>474.00</ele>
        <time>2014-02-23T09:20:16Z</time>
      </trkpt>
      <trkpt lat="41.623321800" lon="2.463326670">
        <ele>473.00</ele>
        <time>2014-02-23T09:20:17Z</time>
      </trkpt>
      <trkpt lat="41.623331690" lon="2.463385010">
        <ele>472.30</ele>
        <time>2014-02-23T09:20:18Z</time>
      </trkpt>
      <trkpt lat="41.623333370" lon="2.463441670">
        <ele>471.30</ele>
        <time>2014-02-23T09:20:19Z</time>
      </trkpt>
      <trkpt lat="41.623340080" lon="2.463500010">
        <ele>470.60</ele>
        <time>2014-02-23T09:20:20Z</time>
      </trkpt>
      <trkpt lat="41.623350130" lon="2.463558350">
        <ele>470.10</ele>
        <time>2014-02-23T09:20:21Z</time>
      </trkpt>
      <trkpt lat="41.623358350" lon="2.463605120">
        <ele>469.80</ele>
        <time>2014-02-23T09:20:22Z</time>
      </trkpt>
      <trkpt lat="41.623378470" lon="2.463655080">
        <ele>469.50</ele>
        <time>2014-02-23T09:20:23Z</time>
      </trkpt>
      <trkpt lat="41.623403440" lon="2.463721800">
        <ele>468.80</ele>
        <time>2014-02-23T09:20:24Z</time>
      </trkpt>
      <trkpt lat="41.623426750" lon="2.463786670">
        <ele>468.20</ele>
        <time>2014-02-23T09:20:25Z</time>
      </trkpt>
      <trkpt lat="41.623448370" lon="2.463851720">
        <ele>467.60</ele>
        <time>2014-02-23T09:20:26Z</time>
      </trkpt>
      <trkpt lat="41.623466810" lon="2.463918440">
        <ele>467.10</ele>
        <time>2014-02-23T09:20:27Z</time>
      </trkpt>
      <trkpt lat="41.623483410" lon="2.463986660">
        <ele>467.10</ele>
        <time>2014-02-23T09:20:28Z</time>
      </trkpt>
      <trkpt lat="41.623498490" lon="2.464048350">
        <ele>467.10</ele>
        <time>2014-02-23T09:20:29Z</time>
      </trkpt>
      <trkpt lat="41.623513410" lon="2.464110050">
        <ele>467.00</ele>
        <time>2014-02-23T09:20:30Z</time>
      </trkpt>
      <trkpt lat="41.623525150" lon="2.464150110">
        <ele>466.40</ele>
        <time>2014-02-23T09:20:31Z</time>
      </trkpt>
      <trkpt lat="41.623536720" lon="2.464178440">
        <ele>465.90</ele>
        <time>2014-02-23T09:20:32Z</time>
      </trkpt>
      <trkpt lat="41.623551800" lon="2.464206770">
        <ele>465.60</ele>
        <time>2014-02-23T09:20:33Z</time>
      </trkpt>
      <trkpt lat="41.623566720" lon="2.464238460">
        <ele>465.30</ele>
        <time>2014-02-23T09:20:34Z</time>
      </trkpt>
      <trkpt lat="41.623581810" lon="2.464268460">
        <ele>465.20</ele>
        <time>2014-02-23T09:20:35Z</time>
      </trkpt>
      <trkpt lat="41.623600080" lon="2.464300150">
        <ele>465.00</ele>
        <time>2014-02-23T09:20:36Z</time>
      </trkpt>
      <trkpt lat="41.623618360" lon="2.464328480">
        <ele>465.00</ele>
        <time>2014-02-23T09:20:37Z</time>
      </trkpt>
      <trkpt lat="41.623635120" lon="2.464355130">
        <ele>464.90</ele>
        <time>2014-02-23T09:20:38Z</time>
      </trkpt>
      <trkpt lat="41.623650040" lon="2.464378430">
        <ele>464.80</ele>
        <time>2014-02-23T09:20:39Z</time>
      </trkpt>
      <trkpt lat="41.623663450" lon="2.464393350">
        <ele>464.50</ele>
        <time>2014-02-23T09:20:40Z</time>
      </trkpt>
      <trkpt lat="41.623673340" lon="2.464406760">
        <ele>464.20</ele>
        <time>2014-02-23T09:20:41Z</time>
      </trkpt>
      <trkpt lat="41.623680050" lon="2.464421680">
        <ele>464.00</ele>
        <time>2014-02-23T09:20:42Z</time>
      </trkpt>
      <trkpt lat="41.623691780" lon="2.464443480">
        <ele>464.30</ele>
        <time>2014-02-23T09:20:43Z</time>
      </trkpt>
      <trkpt lat="41.623706700" lon="2.464460070">
        <ele>464.50</ele>
        <time>2014-02-23T09:20:44Z</time>
      </trkpt>
      <trkpt lat="41.623721790" lon="2.464465100">
        <ele>464.40</ele>
        <time>2014-02-23T09:20:45Z</time>
      </trkpt>
      <trkpt lat="41.623743410" lon="2.464463430">
        <ele>464.30</ele>
        <time>2014-02-23T09:20:46Z</time>
      </trkpt>
      <trkpt lat="41.623766720" lon="2.464456720">
        <ele>464.60</ele>
        <time>2014-02-23T09:20:47Z</time>
      </trkpt>
      <trkpt lat="41.623793370" lon="2.464451690">
        <ele>464.80</ele>
        <time>2014-02-23T09:20:48Z</time>
      </trkpt>
      <trkpt lat="41.623818350" lon="2.464446660">
        <ele>465.00</ele>
        <time>2014-02-23T09:20:49Z</time>
      </trkpt>
      <trkpt lat="41.623845000" lon="2.464441800">
        <ele>465.00</ele>
        <time>2014-02-23T09:20:50Z</time>
      </trkpt>
      <trkpt lat="41.623873330" lon="2.464440120">
        <ele>465.00</ele>
        <time>2014-02-23T09:20:51Z</time>
      </trkpt>
      <trkpt lat="41.623896800" lon="2.464443480">
        <ele>464.90</ele>
        <time>2014-02-23T09:20:52Z</time>
      </trkpt>
      <trkpt lat="41.623921780" lon="2.464448340">
        <ele>464.80</ele>
        <time>2014-02-23T09:20:53Z</time>
      </trkpt>
      <trkpt lat="41.623941730" lon="2.464455040">
        <ele>464.80</ele>
        <time>2014-02-23T09:20:54Z</time>
      </trkpt>
      <trkpt lat="41.623960000" lon="2.464460070">
        <ele>464.90</ele>
        <time>2014-02-23T09:20:55Z</time>
      </trkpt>
      <trkpt lat="41.623978440" lon="2.464460070">
        <ele>464.90</ele>
        <time>2014-02-23T09:20:56Z</time>
      </trkpt>
      <trkpt lat="41.623996710" lon="2.464465100">
        <ele>465.30</ele>
        <time>2014-02-23T09:20:57Z</time>
      </trkpt>
      <trkpt lat="41.624005100" lon="2.464466780">
        <ele>465.60</ele>
        <time>2014-02-23T09:20:58Z</time>
      </trkpt>
      <trkpt lat="41.624008450" lon="2.464465100">
        <ele>465.80</ele>
        <time>2014-02-23T09:20:59Z</time>
      </trkpt>
      <trkpt lat="41.624015150" lon="2.464465100">
        <ele>465.90</ele>
        <time>2014-02-23T09:21:00Z</time>
      </trkpt>
      <trkpt lat="41.624018340" lon="2.464466780">
        <ele>466.00</ele>
        <time>2014-02-23T09:21:01Z</time>
      </trkpt>
      <trkpt lat="41.624021690" lon="2.464466780">
        <ele>466.30</ele>
        <time>2014-02-23T09:21:02Z</time>
      </trkpt>
      <trkpt lat="41.624025050" lon="2.464468460">
        <ele>466.60</ele>
        <time>2014-02-23T09:21:03Z</time>
      </trkpt>
      <trkpt lat="41.624028400" lon="2.464471810">
        <ele>466.60</ele>
        <time>2014-02-23T09:21:04Z</time>
      </trkpt>
      <trkpt lat="41.624033430" lon="2.464471810">
        <ele>466.60</ele>
        <time>2014-02-23T09:21:05Z</time>
      </trkpt>
      <trkpt lat="41.624036780" lon="2.464470130">
        <ele>466.30</ele>
        <time>2014-02-23T09:21:06Z</time>
      </trkpt>
      <trkpt lat="41.624040130" lon="2.464470130">
        <ele>466.10</ele>
        <time>2014-02-23T09:21:07Z</time>
      </trkpt>
      <trkpt lat="41.624043490" lon="2.464471810">
        <ele>465.90</ele>
        <time>2014-02-23T09:21:08Z</time>
      </trkpt>
      <trkpt lat="41.624045160" lon="2.464471810">
        <ele>465.50</ele>
        <time>2014-02-23T09:21:09Z</time>
      </trkpt>
      <trkpt lat="41.624048350" lon="2.464471810">
        <ele>465.30</ele>
        <time>2014-02-23T09:21:10Z</time>
      </trkpt>
      <trkpt lat="41.624051700" lon="2.464471810">
        <ele>465.60</ele>
        <time>2014-02-23T09:21:11Z</time>
      </trkpt>
      <trkpt lat="41.624055050" lon="2.464473480">
        <ele>465.80</ele>
        <time>2014-02-23T09:21:12Z</time>
      </trkpt>
      <trkpt lat="41.624058410" lon="2.464473480">
        <ele>466.00</ele>
        <time>2014-02-23T09:21:13Z</time>
      </trkpt>
      <trkpt lat="41.624061760" lon="2.464473480">
        <ele>465.60</ele>
        <time>2014-02-23T09:21:14Z</time>
      </trkpt>
      <trkpt lat="41.624065110" lon="2.464475160">
        <ele>465.30</ele>
        <time>2014-02-23T09:21:15Z</time>
      </trkpt>
      <trkpt lat="41.624068460" lon="2.464475160">
        <ele>465.10</ele>
        <time>2014-02-23T09:21:16Z</time>
      </trkpt>
      <trkpt lat="41.624070140" lon="2.464476670">
        <ele>465.00</ele>
        <time>2014-02-23T09:21:17Z</time>
      </trkpt>
      <trkpt lat="41.624073490" lon="2.464476670">
        <ele>465.10</ele>
        <time>2014-02-23T09:21:18Z</time>
      </trkpt>
      <trkpt lat="41.624075000" lon="2.464478350">
        <ele>465.20</ele>
        <time>2014-02-23T09:21:19Z</time>
      </trkpt>
      <trkpt lat="41.624078350" lon="2.464480020">
        <ele>465.20</ele>
        <time>2014-02-23T09:21:20Z</time>
      </trkpt>
      <trkpt lat="41.624081710" lon="2.464485050">
        <ele>465.20</ele>
        <time>2014-02-23T09:21:21Z</time>
      </trkpt>
      <trkpt lat="41.624085060" lon="2.464485050">
        <ele>465.20</ele>
        <time>2014-02-23T09:21:22Z</time>
      </trkpt>
      <trkpt lat="41.624088410" lon="2.464481700">
        <ele>465.60</ele>
        <time>2014-02-23T09:21:23Z</time>
      </trkpt>
      <trkpt lat="41.624090090" lon="2.464480020">
        <ele>465.90</ele>
        <time>2014-02-23T09:21:24Z</time>
      </trkpt>
      <trkpt lat="41.624090090" lon="2.464476670">
        <ele>466.00</ele>
        <time>2014-02-23T09:21:25Z</time>
      </trkpt>
      <trkpt lat="41.624093440" lon="2.464478350">
        <ele>466.10</ele>
        <time>2014-02-23T09:21:26Z</time>
      </trkpt>
      <trkpt lat="41.624100150" lon="2.464476670">
        <ele>466.20</ele>
        <time>2014-02-23T09:21:27Z</time>
      </trkpt>
      <trkpt lat="41.624105010" lon="2.464481700">
        <ele>466.00</ele>
        <time>2014-02-23T09:21:28Z</time>
      </trkpt>
      <trkpt lat="41.624116740" lon="2.464486730">
        <ele>465.90</ele>
        <time>2014-02-23T09:21:29Z</time>
      </trkpt>
      <trkpt lat="41.624123450" lon="2.464490080">
        <ele>465.70</ele>
        <time>2014-02-23T09:21:30Z</time>
      </trkpt>
      <trkpt lat="41.624131660" lon="2.464490080">
        <ele>465.60</ele>
        <time>2014-02-23T09:21:31Z</time>
      </trkpt>
      <trkpt lat="41.624138370" lon="2.464491760">
        <ele>465.70</ele>
        <time>2014-02-23T09:21:32Z</time>
      </trkpt>
      <trkpt lat="41.624145070" lon="2.464491760">
        <ele>465.80</ele>
        <time>2014-02-23T09:21:33Z</time>
      </trkpt>
      <trkpt lat="41.624155130" lon="2.464495110">
        <ele>465.80</ele>
        <time>2014-02-23T09:21:34Z</time>
      </trkpt>
      <trkpt lat="41.624163350" lon="2.464500140">
        <ele>465.90</ele>
        <time>2014-02-23T09:21:35Z</time>
      </trkpt>
      <trkpt lat="41.624171730" lon="2.464503490">
        <ele>465.90</ele>
        <time>2014-02-23T09:21:36Z</time>
      </trkpt>
      <trkpt lat="41.624181790" lon="2.464505000">
        <ele>465.70</ele>
        <time>2014-02-23T09:21:37Z</time>
      </trkpt>
      <trkpt lat="41.624195030" lon="2.464505000">
        <ele>465.50</ele>
        <time>2014-02-23T09:21:38Z</time>
      </trkpt>
      <trkpt lat="41.624211790" lon="2.464510030">
        <ele>465.40</ele>
        <time>2014-02-23T09:21:39Z</time>
      </trkpt>
      <trkpt lat="41.624226710" lon="2.464510030">
        <ele>465.40</ele>
        <time>2014-02-23T09:21:40Z</time>
      </trkpt>
      <trkpt lat="41.624241800" lon="2.464508350">
        <ele>465.50</ele>
        <time>2014-02-23T09:21:41Z</time>
      </trkpt>
      <trkpt lat="41.624253370" lon="2.464508350">
        <ele>465.40</ele>
        <time>2014-02-23T09:21:42Z</time>
      </trkpt>
      <trkpt lat="41.624266780" lon="2.464506680">
        <ele>465.40</ele>
        <time>2014-02-23T09:21:43Z</time>
      </trkpt>
      <trkpt lat="41.624280020" lon="2.464505000">
        <ele>465.60</ele>
        <time>2014-02-23T09:21:44Z</time>
      </trkpt>
      <trkpt lat="41.624293430" lon="2.464500140">
        <ele>465.70</ele>
        <time>2014-02-23T09:21:45Z</time>
      </trkpt>
      <trkpt lat="41.624310030" lon="2.464491760">
        <ele>465.80</ele>
        <time>2014-02-23T09:21:46Z</time>
      </trkpt>
      <trkpt lat="41.624330150" lon="2.464476670">
        <ele>466.10</ele>
        <time>2014-02-23T09:21:47Z</time>
      </trkpt>
      <trkpt lat="41.624351770" lon="2.464456720">
        <ele>466.30</ele>
        <time>2014-02-23T09:21:48Z</time>
      </trkpt>
      <trkpt lat="41.624373400" lon="2.464436770">
        <ele>465.90</ele>
        <time>2014-02-23T09:21:49Z</time>
      </trkpt>
      <trkpt lat="41.624393350" lon="2.464411790">
        <ele>465.60</ele>
        <time>2014-02-23T09:21:50Z</time>
      </trkpt>
      <trkpt lat="41.624416820" lon="2.464391680">
        <ele>464.50</ele>
        <time>2014-02-23T09:21:51Z</time>
      </trkpt>
      <trkpt lat="41.624438440" lon="2.464373400">
        <ele>463.60</ele>
        <time>2014-02-23T09:21:52Z</time>
      </trkpt>
      <trkpt lat="41.624471800" lon="2.464350100">
        <ele>463.00</ele>
        <time>2014-02-23T09:21:53Z</time>
      </trkpt>
      <trkpt lat="41.624506670" lon="2.464336690">
        <ele>462.50</ele>
        <time>2014-02-23T09:21:54Z</time>
      </trkpt>
      <trkpt lat="41.624538350" lon="2.464328480">
        <ele>462.10</ele>
        <time>2014-02-23T09:21:55Z</time>
      </trkpt>
      <trkpt lat="41.624571710" lon="2.464335020">
        <ele>461.40</ele>
        <time>2014-02-23T09:21:56Z</time>
      </trkpt>
      <trkpt lat="41.624608430" lon="2.464340040">
        <ele>460.90</ele>
        <time>2014-02-23T09:21:57Z</time>
      </trkpt>
      <trkpt lat="41.624635080" lon="2.464351780">
        <ele>460.50</ele>
        <time>2014-02-23T09:21:58Z</time>
      </trkpt>
      <trkpt lat="41.624666760" lon="2.464366700">
        <ele>459.70</ele>
        <time>2014-02-23T09:21:59Z</time>
      </trkpt>
      <trkpt lat="41.624700120" lon="2.464390000">
        <ele>459.10</ele>
        <time>2014-02-23T09:22:00Z</time>
      </trkpt>
      <trkpt lat="41.624733480" lon="2.464418330">
        <ele>458.40</ele>
        <time>2014-02-23T09:22:01Z</time>
      </trkpt>
      <trkpt lat="41.624771710" lon="2.464440120">
        <ele>457.80</ele>
        <time>2014-02-23T09:22:02Z</time>
      </trkpt>
      <trkpt lat="41.624808420" lon="2.464448340">
        <ele>456.80</ele>
        <time>2014-02-23T09:22:03Z</time>
      </trkpt>
      <trkpt lat="41.624840100" lon="2.464448340">
        <ele>456.10</ele>
        <time>2014-02-23T09:22:04Z</time>
      </trkpt>
      <trkpt lat="41.624870110" lon="2.464440120">
        <ele>455.50</ele>
        <time>2014-02-23T09:22:05Z</time>
      </trkpt>
      <trkpt lat="41.624898440" lon="2.464428390">
        <ele>454.80</ele>
        <time>2014-02-23T09:22:06Z</time>
      </trkpt>
      <trkpt lat="41.624933480" lon="2.464418330">
        <ele>454.20</ele>
        <time>2014-02-23T09:22:07Z</time>
      </trkpt>
      <trkpt lat="41.624975050" lon="2.464410120">
        <ele>453.10</ele>
        <time>2014-02-23T09:22:08Z</time>
      </trkpt>
      <trkpt lat="41.625018470" lon="2.464388490">
        <ele>452.30</ele>
        <time>2014-02-23T09:22:09Z</time>
      </trkpt>
      <trkpt lat="41.625053340" lon="2.464356810">
        <ele>451.20</ele>
        <time>2014-02-23T09:22:10Z</time>
      </trkpt>
      <trkpt lat="41.625081670" lon="2.464316740">
        <ele>450.30</ele>
        <time>2014-02-23T09:22:11Z</time>
      </trkpt>
      <trkpt lat="41.625101780" lon="2.464270140">
        <ele>449.70</ele>
        <time>2014-02-23T09:22:12Z</time>
      </trkpt>
      <trkpt lat="41.625115030" lon="2.464225050">
        <ele>449.10</ele>
        <time>2014-02-23T09:22:13Z</time>
      </trkpt>
      <trkpt lat="41.625123410" lon="2.464173410">
        <ele>448.60</ele>
        <time>2014-02-23T09:22:14Z</time>
      </trkpt>
      <trkpt lat="41.625130120" lon="2.464121780">
        <ele>448.40</ele>
        <time>2014-02-23T09:22:15Z</time>
      </trkpt>
      <trkpt lat="41.625140010" lon="2.464070150">
        <ele>448.30</ele>
        <time>2014-02-23T09:22:16Z</time>
      </trkpt>
      <trkpt lat="41.625153420" lon="2.464021700">
        <ele>448.20</ele>
        <time>2014-02-23T09:22:17Z</time>
      </trkpt>
      <trkpt lat="41.625170010" lon="2.463975100">
        <ele>447.60</ele>
        <time>2014-02-23T09:22:18Z</time>
      </trkpt>
      <trkpt lat="41.625193480" lon="2.463926820">
        <ele>447.10</ele>
        <time>2014-02-23T09:22:19Z</time>
      </trkpt>
      <trkpt lat="41.625223490" lon="2.463875020">
        <ele>446.30</ele>
        <time>2014-02-23T09:22:20Z</time>
      </trkpt>
      <trkpt lat="41.625256680" lon="2.463821710">
        <ele>445.70</ele>
        <time>2014-02-23T09:22:21Z</time>
      </trkpt>
      <trkpt lat="41.625291720" lon="2.463768400">
        <ele>444.80</ele>
        <time>2014-02-23T09:22:22Z</time>
      </trkpt>
      <trkpt lat="41.625335140" lon="2.463710060">
        <ele>444.10</ele>
        <time>2014-02-23T09:22:23Z</time>
      </trkpt>
      <trkpt lat="41.625373360" lon="2.463648370">
        <ele>443.60</ele>
        <time>2014-02-23T09:22:24Z</time>
      </trkpt>
      <trkpt lat="41.625413420" lon="2.463580140">
        <ele>442.90</ele>
        <time>2014-02-23T09:22:25Z</time>
      </trkpt>
      <trkpt lat="41.625451810" lon="2.463520130">
        <ele>442.40</ele>
        <time>2014-02-23T09:22:26Z</time>
      </trkpt>
      <trkpt lat="41.625481820" lon="2.463458440">
        <ele>441.60</ele>
        <time>2014-02-23T09:22:27Z</time>
      </trkpt>
      <trkpt lat="41.625505120" lon="2.463386690">
        <ele>440.90</ele>
        <time>2014-02-23T09:22:28Z</time>
      </trkpt>
      <trkpt lat="41.625531780" lon="2.463313430">
        <ele>440.20</ele>
        <time>2014-02-23T09:22:29Z</time>
      </trkpt>
      <trkpt lat="41.625555080" lon="2.463243360">
        <ele>439.70</ele>
        <time>2014-02-23T09:22:30Z</time>
      </trkpt>
      <trkpt lat="41.625576700" lon="2.463181670">
        <ele>439.30</ele>
        <time>2014-02-23T09:22:31Z</time>
      </trkpt>
      <trkpt lat="41.625601680" lon="2.463125000">
        <ele>439.00</ele>
        <time>2014-02-23T09:22:32Z</time>
      </trkpt>
      <trkpt lat="41.625631690" lon="2.463060130">
        <ele>438.70</ele>
        <time>2014-02-23T09:22:33Z</time>
      </trkpt>
      <trkpt lat="41.625665050" lon="2.462995080">
        <ele>437.80</ele>
        <time>2014-02-23T09:22:34Z</time>
      </trkpt>
      <trkpt lat="41.625696730" lon="2.462933390">
        <ele>437.00</ele>
        <time>2014-02-23T09:22:35Z</time>
      </trkpt>
      <trkpt lat="41.625730090" lon="2.462876730">
        <ele>436.50</ele>
        <time>2014-02-23T09:22:36Z</time>
      </trkpt>
      <trkpt lat="41.625765130" lon="2.462820070">
        <ele>435.70</ele>
        <time>2014-02-23T09:22:37Z</time>
      </trkpt>
      <trkpt lat="41.625800000" lon="2.462768440">
        <ele>435.00</ele>
        <time>2014-02-23T09:22:38Z</time>
      </trkpt>
      <trkpt lat="41.625838390" lon="2.462718480">
        <ele>434.20</ele>
        <time>2014-02-23T09:22:39Z</time>
      </trkpt>
      <trkpt lat="41.625881800" lon="2.462670030">
        <ele>433.60</ele>
        <time>2014-02-23T09:22:40Z</time>
      </trkpt>
      <trkpt lat="41.625921700" lon="2.462611700">
        <ele>432.50</ele>
        <time>2014-02-23T09:22:41Z</time>
      </trkpt>
      <trkpt lat="41.625961770" lon="2.462550010">
        <ele>431.70</ele>
        <time>2014-02-23T09:22:42Z</time>
      </trkpt>
      <trkpt lat="41.625995130" lon="2.462490160">
        <ele>431.20</ele>
        <time>2014-02-23T09:22:43Z</time>
      </trkpt>
      <trkpt lat="41.626023460" lon="2.462440030">
        <ele>430.50</ele>
        <time>2014-02-23T09:22:44Z</time>
      </trkpt>
      <trkpt lat="41.626053470" lon="2.462393430">
        <ele>430.00</ele>
        <time>2014-02-23T09:22:45Z</time>
      </trkpt>
      <trkpt lat="41.626080120" lon="2.462348340">
        <ele>429.60</ele>
        <time>2014-02-23T09:22:46Z</time>
      </trkpt>
      <trkpt lat="41.626108450" lon="2.462301730">
        <ele>429.30</ele>
        <time>2014-02-23T09:22:47Z</time>
      </trkpt>
      <trkpt lat="41.626133430" lon="2.462250100">
        <ele>428.80</ele>
        <time>2014-02-23T09:22:48Z</time>
      </trkpt>
      <trkpt lat="41.626156730" lon="2.462208360">
        <ele>428.40</ele>
        <time>2014-02-23T09:22:49Z</time>
      </trkpt>
      <trkpt lat="41.626181710" lon="2.462166780">
        <ele>428.10</ele>
        <time>2014-02-23T09:22:50Z</time>
      </trkpt>
      <trkpt lat="41.626203330" lon="2.462125040">
        <ele>427.60</ele>
        <time>2014-02-23T09:22:51Z</time>
      </trkpt>
      <trkpt lat="41.626226800" lon="2.462086820">
        <ele>427.30</ele>
        <time>2014-02-23T09:22:52Z</time>
      </trkpt>
      <trkpt lat="41.626250110" lon="2.462055140">
        <ele>426.60</ele>
        <time>2014-02-23T09:22:53Z</time>
      </trkpt>
      <trkpt lat="41.626278440" lon="2.462026810">
        <ele>426.10</ele>
        <time>2014-02-23T09:22:54Z</time>
      </trkpt>
      <trkpt lat="41.626315150" lon="2.461998480">
        <ele>425.20</ele>
        <time>2014-02-23T09:22:55Z</time>
      </trkpt>
      <trkpt lat="41.626365110" lon="2.461973330">
        <ele>424.60</ele>
        <time>2014-02-23T09:22:56Z</time>
      </trkpt>
      <trkpt lat="41.626411710" lon="2.461945000">
        <ele>424.10</ele>
        <time>2014-02-23T09:22:57Z</time>
      </trkpt>
      <trkpt lat="41.626455130" lon="2.461908450">
        <ele>423.70</ele>
        <time>2014-02-23T09:22:58Z</time>
      </trkpt>
      <trkpt lat="41.626495020" lon="2.461866710">
        <ele>423.40</ele>
        <time>2014-02-23T09:22:59Z</time>
      </trkpt>
      <trkpt lat="41.626531740" lon="2.461825140">
        <ele>422.80</ele>
        <time>2014-02-23T09:23:00Z</time>
      </trkpt>
      <trkpt lat="41.626566770" lon="2.461778370">
        <ele>422.40</ele>
        <time>2014-02-23T09:23:01Z</time>
      </trkpt>
      <trkpt lat="41.626598460" lon="2.461723380">
        <ele>422.10</ele>
        <time>2014-02-23T09:23:02Z</time>
      </trkpt>
      <trkpt lat="41.626631820" lon="2.461670070">
        <ele>421.40</ele>
        <time>2014-02-23T09:23:03Z</time>
      </trkpt>
      <trkpt lat="41.626660150" lon="2.461625150">
        <ele>420.90</ele>
        <time>2014-02-23T09:23:04Z</time>
      </trkpt>
      <trkpt lat="41.626686800" lon="2.461583400">
        <ele>421.20</ele>
        <time>2014-02-23T09:23:05Z</time>
      </trkpt>
      <trkpt lat="41.626706750" lon="2.461545020">
        <ele>421.30</ele>
        <time>2014-02-23T09:23:06Z</time>
      </trkpt>
      <trkpt lat="41.626723350" lon="2.461513330">
        <ele>420.80</ele>
        <time>2014-02-23T09:23:07Z</time>
      </trkpt>
      <trkpt lat="41.626741790" lon="2.461480140">
        <ele>420.50</ele>
        <time>2014-02-23T09:23:08Z</time>
      </trkpt>
      <trkpt lat="41.626750000" lon="2.461440070">
        <ele>420.20</ele>
        <time>2014-02-23T09:23:09Z</time>
      </trkpt>
      <trkpt lat="41.626751680" lon="2.461398330">
        <ele>419.80</ele>
        <time>2014-02-23T09:23:10Z</time>
      </trkpt>
      <trkpt lat="41.626745140" lon="2.461361790">
        <ele>419.60</ele>
        <time>2014-02-23T09:23:11Z</time>
      </trkpt>
      <trkpt lat="41.626736760" lon="2.461328430">
        <ele>419.30</ele>
        <time>2014-02-23T09:23:12Z</time>
      </trkpt>
      <trkpt lat="41.626735080" lon="2.461296740">
        <ele>419.10</ele>
        <time>2014-02-23T09:23:13Z</time>
      </trkpt>
      <trkpt lat="41.626733410" lon="2.461266740">
        <ele>419.00</ele>
        <time>2014-02-23T09:23:14Z</time>
      </trkpt>
      <trkpt lat="41.626736760" lon="2.461243430">
        <ele>418.60</ele>
        <time>2014-02-23T09:23:15Z</time>
      </trkpt>
      <trkpt lat="41.626741790" lon="2.461223490">
        <ele>418.40</ele>
        <time>2014-02-23T09:23:16Z</time>
      </trkpt>
      <trkpt lat="41.626746820" lon="2.461206720">
        <ele>417.70</ele>
        <time>2014-02-23T09:23:17Z</time>
      </trkpt>
      <trkpt lat="41.626748490" lon="2.461198340">
        <ele>417.20</ele>
        <time>2014-02-23T09:23:18Z</time>
      </trkpt>
      <trkpt lat="41.626748490" lon="2.461193480">
        <ele>417.10</ele>
        <time>2014-02-23T09:23:19Z</time>
      </trkpt>
      <trkpt lat="41.626748490" lon="2.461191800">
        <ele>417.10</ele>
        <time>2014-02-23T09:23:20Z</time>
      </trkpt>
      <trkpt lat="41.626746820" lon="2.461188450">
        <ele>417.00</ele>
        <time>2014-02-23T09:23:21Z</time>
      </trkpt>
      <trkpt lat="41.626746820" lon="2.461185100">
        <ele>416.90</ele>
        <time>2014-02-23T09:23:22Z</time>
      </trkpt>
      <trkpt lat="41.626746820" lon="2.461181740">
        <ele>416.90</ele>
        <time>2014-02-23T09:23:23Z</time>
      </trkpt>
      <trkpt lat="41.626746820" lon="2.461178390">
        <ele>416.40</ele>
        <time>2014-02-23T09:23:24Z</time>
      </trkpt>
      <trkpt lat="41.626750000" lon="2.461175040">
        <ele>416.10</ele>
        <time>2014-02-23T09:23:25Z</time>
      </trkpt>
      <trkpt lat="41.626751680" lon="2.461171690">
        <ele>416.10</ele>
        <time>2014-02-23T09:23:26Z</time>
      </trkpt>
      <trkpt lat="41.626751680" lon="2.461168330">
        <ele>416.00</ele>
        <time>2014-02-23T09:23:27Z</time>
      </trkpt>
      <trkpt lat="41.626753360" lon="2.461165150">
        <ele>416.00</ele>
        <time>2014-02-23T09:23:28Z</time>
      </trkpt>
      <trkpt lat="41.626756710" lon="2.461163470">
        <ele>416.00</ele>
        <time>2014-02-23T09:23:29Z</time>
      </trkpt>
      <trkpt lat="41.626758380" lon="2.461160120">
        <ele>416.00</ele>
        <time>2014-02-23T09:23:30Z</time>
      </trkpt>
      <trkpt lat="41.626761740" lon="2.461158440">
        <ele>415.90</ele>
        <time>2014-02-23T09:23:31Z</time>
      </trkpt>
      <trkpt lat="41.626763410" lon="2.461155090">
        <ele>415.80</ele>
        <time>2014-02-23T09:23:32Z</time>
      </trkpt>
      <trkpt lat="41.626766770" lon="2.461153410">
        <ele>415.70</ele>
        <time>2014-02-23T09:23:33Z</time>
      </trkpt>
      <trkpt lat="41.626771800" lon="2.461151740">
        <ele>415.50</ele>
        <time>2014-02-23T09:23:34Z</time>
      </trkpt>
      <trkpt lat="41.626773470" lon="2.461150060">
        <ele>415.40</ele>
        <time>2014-02-23T09:23:35Z</time>
      </trkpt>
      <trkpt lat="41.626776820" lon="2.461148380">
        <ele>415.20</ele>
        <time>2014-02-23T09:23:36Z</time>
      </trkpt>
      <trkpt lat="41.626780010" lon="2.461146710">
        <ele>415.10</ele>
        <time>2014-02-23T09:23:37Z</time>
      </trkpt>
      <trkpt lat="41.626781690" lon="2.461145030">
        <ele>415.30</ele>
        <time>2014-02-23T09:23:38Z</time>
      </trkpt>
      <trkpt lat="41.626783360" lon="2.461143350">
        <ele>415.50</ele>
        <time>2014-02-23T09:23:39Z</time>
      </trkpt>
      <trkpt lat="41.626786720" lon="2.461141680">
        <ele>415.70</ele>
        <time>2014-02-23T09:23:40Z</time>
      </trkpt>
      <trkpt lat="41.626788390" lon="2.461140000">
        <ele>416.00</ele>
        <time>2014-02-23T09:23:41Z</time>
      </trkpt>
      <trkpt lat="41.626791740" lon="2.461140000">
        <ele>416.20</ele>
        <time>2014-02-23T09:23:42Z</time>
      </trkpt>
      <trkpt lat="41.626793420" lon="2.461138490">
        <ele>416.00</ele>
        <time>2014-02-23T09:23:43Z</time>
      </trkpt>
      <trkpt lat="41.626795100" lon="2.461136820">
        <ele>415.80</ele>
        <time>2014-02-23T09:23:44Z</time>
      </trkpt>
      <trkpt lat="41.626798450" lon="2.461135140">
        <ele>415.90</ele>
        <time>2014-02-23T09:23:45Z</time>
      </trkpt>
      <trkpt lat="41.626800130" lon="2.461135140">
        <ele>416.00</ele>
        <time>2014-02-23T09:23:46Z</time>
      </trkpt>
      <trkpt lat="41.626801800" lon="2.461133460">
        <ele>416.00</ele>
        <time>2014-02-23T09:23:47Z</time>
      </trkpt>
      <trkpt lat="41.626803480" lon="2.461131790">
        <ele>416.10</ele>
        <time>2014-02-23T09:23:48Z</time>
      </trkpt>
      <trkpt lat="41.626805160" lon="2.461130110">
        <ele>416.10</ele>
        <time>2014-02-23T09:23:49Z</time>
      </trkpt>
      <trkpt lat="41.626806660" lon="2.461130110">
        <ele>416.00</ele>
        <time>2014-02-23T09:23:50Z</time>
      </trkpt>
      <trkpt lat="41.626808340" lon="2.461128430">
        <ele>415.90</ele>
        <time>2014-02-23T09:23:51Z</time>
      </trkpt>
      <trkpt lat="41.626810020" lon="2.461126760">
        <ele>415.40</ele>
        <time>2014-02-23T09:23:52Z</time>
      </trkpt>
      <trkpt lat="41.626811690" lon="2.461125080">
        <ele>414.90</ele>
        <time>2014-02-23T09:23:53Z</time>
      </trkpt>
      <trkpt lat="41.626813370" lon="2.461123410">
        <ele>414.60</ele>
        <time>2014-02-23T09:23:54Z</time>
      </trkpt>
      <trkpt lat="41.626815050" lon="2.461123410">
        <ele>415.00</ele>
        <time>2014-02-23T09:23:55Z</time>
      </trkpt>
      <trkpt lat="41.626815050" lon="2.461121730">
        <ele>415.30</ele>
        <time>2014-02-23T09:23:56Z</time>
      </trkpt>
      <trkpt lat="41.626816720" lon="2.461120050">
        <ele>415.10</ele>
        <time>2014-02-23T09:23:57Z</time>
      </trkpt>
      <trkpt lat="41.626816720" lon="2.461120050">
        <ele>415.00</ele>
        <time>2014-02-23T09:23:58Z</time>
      </trkpt>
      <trkpt lat="41.626816720" lon="2.461118380">
        <ele>414.90</ele>
        <time>2014-02-23T09:23:59Z</time>
      </trkpt>
      <trkpt lat="41.626818400" lon="2.461118380">
        <ele>415.00</ele>
        <time>2014-02-23T09:24:00Z</time>
      </trkpt>
      <trkpt lat="41.626818400" lon="2.461116700">
        <ele>415.10</ele>
        <time>2014-02-23T09:24:01Z</time>
      </trkpt>
      <trkpt lat="41.626818400" lon="2.461115020">
        <ele>415.00</ele>
        <time>2014-02-23T09:24:02Z</time>
      </trkpt>
      <trkpt lat="41.626820070" lon="2.461115020">
        <ele>414.90</ele>
        <time>2014-02-23T09:24:03Z</time>
      </trkpt>
      <trkpt lat="41.626820070" lon="2.461113350">
        <ele>415.30</ele>
        <time>2014-02-23T09:24:04Z</time>
      </trkpt>
      <trkpt lat="41.626820070" lon="2.461113350">
        <ele>415.60</ele>
        <time>2014-02-23T09:24:05Z</time>
      </trkpt>
      <trkpt lat="41.626820070" lon="2.461111670">
        <ele>415.80</ele>
        <time>2014-02-23T09:24:06Z</time>
      </trkpt>
      <trkpt lat="41.626821750" lon="2.461111670">
        <ele>415.80</ele>
        <time>2014-02-23T09:24:07Z</time>
      </trkpt>
      <trkpt lat="41.626821750" lon="2.461110160">
        <ele>415.80</ele>
        <time>2014-02-23T09:24:08Z</time>
      </trkpt>
      <trkpt lat="41.626821750" lon="2.461110160">
        <ele>415.70</ele>
        <time>2014-02-23T09:24:09Z</time>
      </trkpt>
      <trkpt lat="41.626823430" lon="2.461110160">
        <ele>415.60</ele>
        <time>2014-02-23T09:24:10Z</time>
      </trkpt>
      <trkpt lat="41.626823430" lon="2.461110160">
        <ele>415.30</ele>
        <time>2014-02-23T09:24:11Z</time>
      </trkpt>
      <trkpt lat="41.626825100" lon="2.461110160">
        <ele>415.20</ele>
        <time>2014-02-23T09:24:12Z</time>
      </trkpt>
      <trkpt lat="41.626825100" lon="2.461108490">
        <ele>415.00</ele>
        <time>2014-02-23T09:24:13Z</time>
      </trkpt>
      <trkpt lat="41.626825100" lon="2.461108490">
        <ele>415.20</ele>
        <time>2014-02-23T09:24:14Z</time>
      </trkpt>
      <trkpt lat="41.626825100" lon="2.461108490">
        <ele>415.40</ele>
        <time>2014-02-23T09:24:15Z</time>
      </trkpt>
      <trkpt lat="41.626825100" lon="2.461106810">
        <ele>415.10</ele>
        <time>2014-02-23T09:24:16Z</time>
      </trkpt>
      <trkpt lat="41.626825100" lon="2.461106810">
        <ele>414.90</ele>
        <time>2014-02-23T09:24:17Z</time>
      </trkpt>
      <trkpt lat="41.626823430" lon="2.461105130">
        <ele>414.70</ele>
        <time>2014-02-23T09:24:18Z</time>
      </trkpt>
      <trkpt lat="41.626821750" lon="2.461105130">
        <ele>415.00</ele>
        <time>2014-02-23T09:24:19Z</time>
      </trkpt>
      <trkpt lat="41.626821750" lon="2.461103460">
        <ele>415.20</ele>
        <time>2014-02-23T09:24:20Z</time>
      </trkpt>
      <trkpt lat="41.626820070" lon="2.461103460">
        <ele>415.30</ele>
        <time>2014-02-23T09:24:21Z</time>
      </trkpt>
      <trkpt lat="41.626820070" lon="2.461101780">
        <ele>415.40</ele>
        <time>2014-02-23T09:24:22Z</time>
      </trkpt>
      <trkpt lat="41.626818400" lon="2.461100100">
        <ele>415.10</ele>
        <time>2014-02-23T09:24:23Z</time>
      </trkpt>
      <trkpt lat="41.626816720" lon="2.461100100">
        <ele>414.90</ele>
        <time>2014-02-23T09:24:24Z</time>
      </trkpt>
      <trkpt lat="41.626815050" lon="2.461098430">
        <ele>414.80</ele>
        <time>2014-02-23T09:24:25Z</time>
      </trkpt>
      <trkpt lat="41.626815050" lon="2.461095070">
        <ele>415.10</ele>
        <time>2014-02-23T09:24:26Z</time>
      </trkpt>
      <trkpt lat="41.626813370" lon="2.461093400">
        <ele>415.40</ele>
        <time>2014-02-23T09:24:27Z</time>
      </trkpt>
      <trkpt lat="41.626813370" lon="2.461093400">
        <ele>415.00</ele>
        <time>2014-02-23T09:24:28Z</time>
      </trkpt>
      <trkpt lat="41.626811690" lon="2.461091720">
        <ele>414.70</ele>
        <time>2014-02-23T09:24:29Z</time>
      </trkpt>
      <trkpt lat="41.626811690" lon="2.461090050">
        <ele>414.70</ele>
        <time>2014-02-23T09:24:30Z</time>
      </trkpt>
      <trkpt lat="41.626810020" lon="2.461088370">
        <ele>414.80</ele>
        <time>2014-02-23T09:24:31Z</time>
      </trkpt>
      <trkpt lat="41.626808340" lon="2.461088370">
        <ele>414.80</ele>
        <time>2014-02-23T09:24:32Z</time>
      </trkpt>
      <trkpt lat="41.626808340" lon="2.461088370">
        <ele>414.90</ele>
        <time>2014-02-23T09:24:33Z</time>
      </trkpt>
      <trkpt lat="41.626806660" lon="2.461088370">
        <ele>415.00</ele>
        <time>2014-02-23T09:24:34Z</time>
      </trkpt>
      <trkpt lat="41.626805160" lon="2.461086690">
        <ele>414.90</ele>
        <time>2014-02-23T09:24:35Z</time>
      </trkpt>
      <trkpt lat="41.626803480" lon="2.461086690">
        <ele>414.90</ele>
        <time>2014-02-23T09:24:36Z</time>
      </trkpt>
      <trkpt lat="41.626801800" lon="2.461086690">
        <ele>414.90</ele>
        <time>2014-02-23T09:24:37Z</time>
      </trkpt>
      <trkpt lat="41.626801800" lon="2.461085020">
        <ele>414.80</ele>
        <time>2014-02-23T09:24:38Z</time>
      </trkpt>
      <trkpt lat="41.626801800" lon="2.461085020">
        <ele>414.80</ele>
        <time>2014-02-23T09:24:39Z</time>
      </trkpt>
      <trkpt lat="41.626800130" lon="2.461085020">
        <ele>415.20</ele>
        <time>2014-02-23T09:24:40Z</time>
      </trkpt>
      <trkpt lat="41.626800130" lon="2.461083340">
        <ele>415.50</ele>
        <time>2014-02-23T09:24:41Z</time>
      </trkpt>
      <trkpt lat="41.626800130" lon="2.461083340">
        <ele>415.50</ele>
        <time>2014-02-23T09:24:42Z</time>
      </trkpt>
      <trkpt lat="41.626800130" lon="2.461083340">
        <ele>415.50</ele>
        <time>2014-02-23T09:24:43Z</time>
      </trkpt>
      <trkpt lat="41.626800130" lon="2.461083340">
        <ele>415.50</ele>
        <time>2014-02-23T09:24:44Z</time>
      </trkpt>
      <trkpt lat="41.626800130" lon="2.461083340">
        <ele>415.30</ele>
        <time>2014-02-23T09:24:45Z</time>
      </trkpt>
      <trkpt lat="41.626800130" lon="2.461085020">
        <ele>415.30</ele>
        <time>2014-02-23T09:24:46Z</time>
      </trkpt>
      <trkpt lat="41.626798450" lon="2.461083340">
        <ele>415.50</ele>
        <time>2014-02-23T09:24:47Z</time>
      </trkpt>
      <trkpt lat="41.626798450" lon="2.461083340">
        <ele>415.70</ele>
        <time>2014-02-23T09:24:48Z</time>
      </trkpt>
      <trkpt lat="41.626796770" lon="2.461081660">
        <ele>415.50</ele>
        <time>2014-02-23T09:24:49Z</time>
      </trkpt>
      <trkpt lat="41.626796770" lon="2.461081660">
        <ele>415.40</ele>
        <time>2014-02-23T09:24:50Z</time>
      </trkpt>
      <trkpt lat="41.626798450" lon="2.461081660">
        <ele>415.30</ele>
        <time>2014-02-23T09:24:51Z</time>
      </trkpt>
      <trkpt lat="41.626796770" lon="2.461080150">
        <ele>415.40</ele>
        <time>2014-02-23T09:24:52Z</time>
      </trkpt>
      <trkpt lat="41.626795100" lon="2.461078480">
        <ele>415.50</ele>
        <time>2014-02-23T09:24:53Z</time>
      </trkpt>
      <trkpt lat="41.626793420" lon="2.461076800">
        <ele>415.60</ele>
        <time>2014-02-23T09:24:54Z</time>
      </trkpt>
      <trkpt lat="41.626793420" lon="2.461076800">
        <ele>415.60</ele>
        <time>2014-02-23T09:24:55Z</time>
      </trkpt>
      <trkpt lat="41.626793420" lon="2.461075130">
        <ele>415.70</ele>
        <time>2014-02-23T09:24:56Z</time>
      </trkpt>
      <trkpt lat="41.626791740" lon="2.461075130">
        <ele>415.60</ele>
        <time>2014-02-23T09:24:57Z</time>
      </trkpt>
      <trkpt lat="41.626791740" lon="2.461073450">
        <ele>415.50</ele>
        <time>2014-02-23T09:24:58Z</time>
      </trkpt>
      <trkpt lat="41.626790070" lon="2.461073450">
        <ele>415.40</ele>
        <time>2014-02-23T09:24:59Z</time>
      </trkpt>
      <trkpt lat="41.626790070" lon="2.461071770">
        <ele>415.30</ele>
        <time>2014-02-23T09:25:00Z</time>
      </trkpt>
      <trkpt lat="41.626790070" lon="2.461070100">
        <ele>415.30</ele>
        <time>2014-02-23T09:25:01Z</time>
      </trkpt>
      <trkpt lat="41.626790070" lon="2.461070100">
        <ele>415.30</ele>
        <time>2014-02-23T09:25:02Z</time>
      </trkpt>
      <trkpt lat="41.626788390" lon="2.461068420">
        <ele>415.20</ele>
        <time>2014-02-23T09:25:03Z</time>
      </trkpt>
      <trkpt lat="41.626788390" lon="2.461066740">
        <ele>414.90</ele>
        <time>2014-02-23T09:25:04Z</time>
      </trkpt>
      <trkpt lat="41.626788390" lon="2.461065070">
        <ele>414.70</ele>
        <time>2014-02-23T09:25:05Z</time>
      </trkpt>
      <trkpt lat="41.626788390" lon="2.461065070">
        <ele>415.20</ele>
        <time>2014-02-23T09:25:06Z</time>
      </trkpt>
      <trkpt lat="41.626788390" lon="2.461063390">
        <ele>415.60</ele>
        <time>2014-02-23T09:25:07Z</time>
      </trkpt>
      <trkpt lat="41.626786720" lon="2.461063390">
        <ele>415.60</ele>
        <time>2014-02-23T09:25:08Z</time>
      </trkpt>
      <trkpt lat="41.626785040" lon="2.461063390">
        <ele>415.70</ele>
        <time>2014-02-23T09:25:09Z</time>
      </trkpt>
      <trkpt lat="41.626785040" lon="2.461063390">
        <ele>415.70</ele>
        <time>2014-02-23T09:25:10Z</time>
      </trkpt>
      <trkpt lat="41.626783360" lon="2.461063390">
        <ele>415.70</ele>
        <time>2014-02-23T09:25:11Z</time>
      </trkpt>
      <trkpt lat="41.626781690" lon="2.461063390">
        <ele>415.60</ele>
        <time>2014-02-23T09:25:12Z</time>
      </trkpt>
      <trkpt lat="41.626781690" lon="2.461063390">
        <ele>415.40</ele>
        <time>2014-02-23T09:25:13Z</time>
      </trkpt>
      <trkpt lat="41.626781690" lon="2.461063390">
        <ele>415.10</ele>
        <time>2014-02-23T09:25:14Z</time>
      </trkpt>
      <trkpt lat="41.626781690" lon="2.461065070">
        <ele>415.00</ele>
        <time>2014-02-23T09:25:15Z</time>
      </trkpt>
      <trkpt lat="41.626781690" lon="2.461065070">
        <ele>415.00</ele>
        <time>2014-02-23T09:25:16Z</time>
      </trkpt>
      <trkpt lat="41.626781690" lon="2.461066740">
        <ele>415.10</ele>
        <time>2014-02-23T09:25:17Z</time>
      </trkpt>
      <trkpt lat="41.626781690" lon="2.461068420">
        <ele>414.90</ele>
        <time>2014-02-23T09:25:18Z</time>
      </trkpt>
      <trkpt lat="41.626781690" lon="2.461070100">
        <ele>414.70</ele>
        <time>2014-02-23T09:25:19Z</time>
      </trkpt>
      <trkpt lat="41.626781690" lon="2.461070100">
        <ele>414.70</ele>
        <time>2014-02-23T09:25:20Z</time>
      </trkpt>
      <trkpt lat="41.626781690" lon="2.461071770">
        <ele>414.70</ele>
        <time>2014-02-23T09:25:21Z</time>
      </trkpt>
      <trkpt lat="41.626781690" lon="2.461071770">
        <ele>414.70</ele>
        <time>2014-02-23T09:25:22Z</time>
      </trkpt>
      <trkpt lat="41.626783360" lon="2.461073450">
        <ele>414.50</ele>
        <time>2014-02-23T09:25:23Z</time>
      </trkpt>
      <trkpt lat="41.626785040" lon="2.461075130">
        <ele>414.30</ele>
        <time>2014-02-23T09:25:24Z</time>
      </trkpt>
      <trkpt lat="41.626785040" lon="2.461076800">
        <ele>414.40</ele>
        <time>2014-02-23T09:25:25Z</time>
      </trkpt>
      <trkpt lat="41.626786720" lon="2.461078480">
        <ele>414.40</ele>
        <time>2014-02-23T09:25:26Z</time>
      </trkpt>
      <trkpt lat="41.626788390" lon="2.461080150">
        <ele>414.70</ele>
        <time>2014-02-23T09:25:27Z</time>
      </trkpt>
      <trkpt lat="41.626788390" lon="2.461083340">
        <ele>414.90</ele>
        <time>2014-02-23T09:25:28Z</time>
      </trkpt>
      <trkpt lat="41.626790070" lon="2.461083340">
        <ele>415.00</ele>
        <time>2014-02-23T09:25:29Z</time>
      </trkpt>
      <trkpt lat="41.626790070" lon="2.461085020">
        <ele>415.40</ele>
        <time>2014-02-23T09:25:30Z</time>
      </trkpt>
      <trkpt lat="41.626791740" lon="2.461086690">
        <ele>415.60</ele>
        <time>2014-02-23T09:25:31Z</time>
      </trkpt>
      <trkpt lat="41.626793420" lon="2.461088370">
        <ele>415.50</ele>
        <time>2014-02-23T09:25:32Z</time>
      </trkpt>
      <trkpt lat="41.626793420" lon="2.461090050">
        <ele>415.40</ele>
        <time>2014-02-23T09:25:33Z</time>
      </trkpt>
      <trkpt lat="41.626795100" lon="2.461090050">
        <ele>415.30</ele>
        <time>2014-02-23T09:25:34Z</time>
      </trkpt>
      <trkpt lat="41.626795100" lon="2.461091720">
        <ele>415.00</ele>
        <time>2014-02-23T09:25:35Z</time>
      </trkpt>
      <trkpt lat="41.626796770" lon="2.461093400">
        <ele>414.70</ele>
        <time>2014-02-23T09:25:36Z</time>
      </trkpt>
      <trkpt lat="41.626796770" lon="2.461095070">
        <ele>414.90</ele>
        <time>2014-02-23T09:25:37Z</time>
      </trkpt>
      <trkpt lat="41.626798450" lon="2.461096750">
        <ele>415.10</ele>
        <time>2014-02-23T09:25:38Z</time>
      </trkpt>
      <trkpt lat="41.626798450" lon="2.461096750">
        <ele>415.30</ele>
        <time>2014-02-23T09:25:39Z</time>
      </trkpt>
      <trkpt lat="41.626798450" lon="2.461098430">
        <ele>415.40</ele>
        <time>2014-02-23T09:25:40Z</time>
      </trkpt>
      <trkpt lat="41.626800130" lon="2.461100100">
        <ele>415.50</ele>
        <time>2014-02-23T09:25:41Z</time>
      </trkpt>
      <trkpt lat="41.626800130" lon="2.461100100">
        <ele>415.20</ele>
        <time>2014-02-23T09:25:42Z</time>
      </trkpt>
      <trkpt lat="41.626801800" lon="2.461101780">
        <ele>415.00</ele>
        <time>2014-02-23T09:25:43Z</time>
      </trkpt>
      <trkpt lat="41.626803480" lon="2.461101780">
        <ele>415.10</ele>
        <time>2014-02-23T09:25:44Z</time>
      </trkpt>
      <trkpt lat="41.626803480" lon="2.461103460">
        <ele>415.20</ele>
        <time>2014-02-23T09:25:45Z</time>
      </trkpt>
      <trkpt lat="41.626805160" lon="2.461105130">
        <ele>415.30</ele>
        <time>2014-02-23T09:25:46Z</time>
      </trkpt>
      <trkpt lat="41.626805160" lon="2.461106810">
        <ele>415.30</ele>
        <time>2014-02-23T09:25:47Z</time>
      </trkpt>
      <trkpt lat="41.626806660" lon="2.461106810">
        <ele>415.40</ele>
        <time>2014-02-23T09:25:48Z</time>
      </trkpt>
      <trkpt lat="41.626806660" lon="2.461108490">
        <ele>415.40</ele>
        <time>2014-02-23T09:25:49Z</time>
      </trkpt>
      <trkpt lat="41.626808340" lon="2.461108490">
        <ele>415.50</ele>
        <time>2014-02-23T09:25:50Z</time>
      </trkpt>
      <trkpt lat="41.626810020" lon="2.461110160">
        <ele>415.80</ele>
        <time>2014-02-23T09:25:51Z</time>
      </trkpt>
      <trkpt lat="41.626810020" lon="2.461110160">
        <ele>416.10</ele>
        <time>2014-02-23T09:25:52Z</time>
      </trkpt>
      <trkpt lat="41.626811690" lon="2.461110160">
        <ele>416.40</ele>
        <time>2014-02-23T09:25:53Z</time>
      </trkpt>
      <trkpt lat="41.626813370" lon="2.461111670">
        <ele>416.10</ele>
        <time>2014-02-23T09:25:54Z</time>
      </trkpt>
      <trkpt lat="41.626815050" lon="2.461111670">
        <ele>415.90</ele>
        <time>2014-02-23T09:25:55Z</time>
      </trkpt>
      <trkpt lat="41.626816720" lon="2.461111670">
        <ele>415.80</ele>
        <time>2014-02-23T09:25:56Z</time>
      </trkpt>
      <trkpt lat="41.626818400" lon="2.461111670">
        <ele>415.80</ele>
        <time>2014-02-23T09:25:57Z</time>
      </trkpt>
      <trkpt lat="41.626820070" lon="2.461111670">
        <ele>415.90</ele>
        <time>2014-02-23T09:25:58Z</time>
      </trkpt>
      <trkpt lat="41.626821750" lon="2.461111670">
        <ele>416.10</ele>
        <time>2014-02-23T09:25:59Z</time>
      </trkpt>
      <trkpt lat="41.626821750" lon="2.461111670">
        <ele>416.20</ele>
        <time>2014-02-23T09:26:00Z</time>
      </trkpt>
      <trkpt lat="41.626823430" lon="2.461111670">
        <ele>416.10</ele>
        <time>2014-02-23T09:26:01Z</time>
      </trkpt>
      <trkpt lat="41.626825100" lon="2.461111670">
        <ele>416.10</ele>
        <time>2014-02-23T09:26:02Z</time>
      </trkpt>
      <trkpt lat="41.626826780" lon="2.461111670">
        <ele>416.00</ele>
        <time>2014-02-23T09:26:03Z</time>
      </trkpt>
      <trkpt lat="41.626828460" lon="2.461111670">
        <ele>416.00</ele>
        <time>2014-02-23T09:26:04Z</time>
      </trkpt>
      <trkpt lat="41.626830130" lon="2.461111670">
        <ele>416.20</ele>
        <time>2014-02-23T09:26:05Z</time>
      </trkpt>
      <trkpt lat="41.626831810" lon="2.461110160">
        <ele>416.40</ele>
        <time>2014-02-23T09:26:06Z</time>
      </trkpt>
      <trkpt lat="41.626831810" lon="2.461110160">
        <ele>416.50</ele>
        <time>2014-02-23T09:26:07Z</time>
      </trkpt>
      <trkpt lat="41.626833490" lon="2.461110160">
        <ele>416.20</ele>
        <time>2014-02-23T09:26:08Z</time>
      </trkpt>
      <trkpt lat="41.626835160" lon="2.461110160">
        <ele>416.00</ele>
        <time>2014-02-23T09:26:09Z</time>
      </trkpt>
      <trkpt lat="41.626836670" lon="2.461110160">
        <ele>415.80</ele>
        <time>2014-02-23T09:26:10Z</time>
      </trkpt>
      <trkpt lat="41.626838350" lon="2.461110160">
        <ele>415.60</ele>
        <time>2014-02-23T09:26:11Z</time>
      </trkpt>
      <trkpt lat="41.626838350" lon="2.461108490">
        <ele>415.50</ele>
        <time>2014-02-23T09:26:12Z</time>
      </trkpt>
      <trkpt lat="41.626840020" lon="2.461108490">
        <ele>415.60</ele>
        <time>2014-02-23T09:26:13Z</time>
      </trkpt>
      <trkpt lat="41.626841700" lon="2.461108490">
        <ele>415.70</ele>
        <time>2014-02-23T09:26:14Z</time>
      </trkpt>
      <trkpt lat="41.626843380" lon="2.461106810">
        <ele>415.50</ele>
        <time>2014-02-23T09:26:15Z</time>
      </trkpt>
      <trkpt lat="41.626843380" lon="2.461105130">
        <ele>415.40</ele>
        <time>2014-02-23T09:26:16Z</time>
      </trkpt>
      <trkpt lat="41.626845050" lon="2.461105130">
        <ele>415.20</ele>
        <time>2014-02-23T09:26:17Z</time>
      </trkpt>
      <trkpt lat="41.626846730" lon="2.461103460">
        <ele>415.10</ele>
        <time>2014-02-23T09:26:18Z</time>
      </trkpt>
      <trkpt lat="41.626848410" lon="2.461101780">
        <ele>415.00</ele>
        <time>2014-02-23T09:26:19Z</time>
      </trkpt>
      <trkpt lat="41.626848410" lon="2.461101780">
        <ele>414.90</ele>
        <time>2014-02-23T09:26:20Z</time>
      </trkpt>
      <trkpt lat="41.626850080" lon="2.461101780">
        <ele>414.90</ele>
        <time>2014-02-23T09:26:21Z</time>
      </trkpt>
      <trkpt lat="41.626851760" lon="2.461100100">
        <ele>414.90</ele>
        <time>2014-02-23T09:26:22Z</time>
      </trkpt>
      <trkpt lat="41.626853430" lon="2.461100100">
        <ele>414.90</ele>
        <time>2014-02-23T09:26:23Z</time>
      </trkpt>
      <trkpt lat="41.626855110" lon="2.461098430">
        <ele>415.10</ele>
        <time>2014-02-23T09:26:24Z</time>
      </trkpt>
      <trkpt lat="41.626856790" lon="2.461098430">
        <ele>415.20</ele>
        <time>2014-02-23T09:26:25Z</time>
      </trkpt>
      <trkpt lat="41.626858460" lon="2.461096750">
        <ele>415.30</ele>
        <time>2014-02-23T09:26:26Z</time>
      </trkpt>
      <trkpt lat="41.626860140" lon="2.461095070">
        <ele>415.20</ele>
        <time>2014-02-23T09:26:27Z</time>
      </trkpt>
      <trkpt lat="41.626861820" lon="2.461093400">
        <ele>415.10</ele>
        <time>2014-02-23T09:26:28Z</time>
      </trkpt>
      <trkpt lat="41.626863490" lon="2.461091720">
        <ele>415.20</ele>
        <time>2014-02-23T09:26:29Z</time>
      </trkpt>
      <trkpt lat="41.626865000" lon="2.461090050">
        <ele>415.20</ele>
        <time>2014-02-23T09:26:30Z</time>
      </trkpt>
      <trkpt lat="41.626866680" lon="2.461086690">
        <ele>415.00</ele>
        <time>2014-02-23T09:26:31Z</time>
      </trkpt>
      <trkpt lat="41.626868350" lon="2.461085020">
        <ele>414.80</ele>
        <time>2014-02-23T09:26:32Z</time>
      </trkpt>
      <trkpt lat="41.626870030" lon="2.461081660">
        <ele>414.70</ele>
        <time>2014-02-23T09:26:33Z</time>
      </trkpt>
      <trkpt lat="41.626871710" lon="2.461078480">
        <ele>415.00</ele>
        <time>2014-02-23T09:26:34Z</time>
      </trkpt>
      <trkpt lat="41.626873380" lon="2.461076800">
        <ele>415.20</ele>
        <time>2014-02-23T09:26:35Z</time>
      </trkpt>
      <trkpt lat="41.626873380" lon="2.461073450">
        <ele>415.20</ele>
        <time>2014-02-23T09:26:36Z</time>
      </trkpt>
      <trkpt lat="41.626875060" lon="2.461071770">
        <ele>415.30</ele>
        <time>2014-02-23T09:26:37Z</time>
      </trkpt>
      <trkpt lat="41.626875060" lon="2.461070100">
        <ele>415.30</ele>
        <time>2014-02-23T09:26:38Z</time>
      </trkpt>
      <trkpt lat="41.626876740" lon="2.461068420">
        <ele>415.30</ele>
        <time>2014-02-23T09:26:39Z</time>
      </trkpt>
      <trkpt lat="41.626878410" lon="2.461066740">
        <ele>415.40</ele>
        <time>2014-02-23T09:26:40Z</time>
      </trkpt>
      <trkpt lat="41.626878410" lon="2.461065070">
        <ele>414.90</ele>
        <time>2014-02-23T09:26:41Z</time>
      </trkpt>
      <trkpt lat="41.626878410" lon="2.461063390">
        <ele>414.60</ele>
        <time>2014-02-23T09:26:42Z</time>
      </trkpt>
      <trkpt lat="41.626878410" lon="2.461061710">
        <ele>414.70</ele>
        <time>2014-02-23T09:26:43Z</time>
      </trkpt>
      <trkpt lat="41.626878410" lon="2.461060040">
        <ele>414.80</ele>
        <time>2014-02-23T09:26:44Z</time>
      </trkpt>
      <trkpt lat="41.626876740" lon="2.461060040">
        <ele>414.80</ele>
        <time>2014-02-23T09:26:45Z</time>
      </trkpt>
      <trkpt lat="41.626876740" lon="2.461060040">
        <ele>414.80</ele>
        <time>2014-02-23T09:26:46Z</time>
      </trkpt>
      <trkpt lat="41.626875060" lon="2.461060040">
        <ele>414.80</ele>
        <time>2014-02-23T09:26:47Z</time>
      </trkpt>
      <trkpt lat="41.626875060" lon="2.461060040">
        <ele>414.60</ele>
        <time>2014-02-23T09:26:48Z</time>
      </trkpt>
      <trkpt lat="41.626873380" lon="2.461061710">
        <ele>414.40</ele>
        <time>2014-02-23T09:26:49Z</time>
      </trkpt>
      <trkpt lat="41.626871710" lon="2.461061710">
        <ele>414.30</ele>
        <time>2014-02-23T09:26:50Z</time>
      </trkpt>
      <trkpt lat="41.626870030" lon="2.461063390">
        <ele>414.30</ele>
        <time>2014-02-23T09:26:51Z</time>
      </trkpt>
      <trkpt lat="41.626868350" lon="2.461063390">
        <ele>414.20</ele>
        <time>2014-02-23T09:26:52Z</time>
      </trkpt>
      <trkpt lat="41.626866680" lon="2.461063390">
        <ele>414.50</ele>
        <time>2014-02-23T09:26:53Z</time>
      </trkpt>
      <trkpt lat="41.626865000" lon="2.461065070">
        <ele>414.60</ele>
        <time>2014-02-23T09:26:54Z</time>
      </trkpt>
      <trkpt lat="41.626861820" lon="2.461065070">
        <ele>414.80</ele>
        <time>2014-02-23T09:26:55Z</time>
      </trkpt>
      <trkpt lat="41.626860140" lon="2.461066740">
        <ele>414.90</ele>
        <time>2014-02-23T09:26:56Z</time>
      </trkpt>
      <trkpt lat="41.626858460" lon="2.461066740">
        <ele>415.00</ele>
        <time>2014-02-23T09:26:57Z</time>
      </trkpt>
      <trkpt lat="41.626855110" lon="2.461068420">
        <ele>415.00</ele>
        <time>2014-02-23T09:26:58Z</time>
      </trkpt>
      <trkpt lat="41.626853430" lon="2.461070100">
        <ele>415.00</ele>
        <time>2014-02-23T09:26:59Z</time>
      </trkpt>
      <trkpt lat="41.626850080" lon="2.461071770">
        <ele>415.20</ele>
        <time>2014-02-23T09:27:00Z</time>
      </trkpt>
      <trkpt lat="41.626848410" lon="2.461073450">
        <ele>415.40</ele>
        <time>2014-02-23T09:27:01Z</time>
      </trkpt>
      <trkpt lat="41.626845050" lon="2.461073450">
        <ele>415.30</ele>
        <time>2014-02-23T09:27:02Z</time>
      </trkpt>
      <trkpt lat="41.626843380" lon="2.461075130">
        <ele>415.20</ele>
        <time>2014-02-23T09:27:03Z</time>
      </trkpt>
      <trkpt lat="41.626840020" lon="2.461075130">
        <ele>415.10</ele>
        <time>2014-02-23T09:27:04Z</time>
      </trkpt>
      <trkpt lat="41.626838350" lon="2.461076800">
        <ele>415.00</ele>
        <time>2014-02-23T09:27:05Z</time>
      </trkpt>
      <trkpt lat="41.626836670" lon="2.461078480">
        <ele>414.90</ele>
        <time>2014-02-23T09:27:06Z</time>
      </trkpt>
      <trkpt lat="41.626833490" lon="2.461080150">
        <ele>414.90</ele>
        <time>2014-02-23T09:27:07Z</time>
      </trkpt>
      <trkpt lat="41.626831810" lon="2.461080150">
        <ele>415.00</ele>
        <time>2014-02-23T09:27:08Z</time>
      </trkpt>
      <trkpt lat="41.626830130" lon="2.461081660">
        <ele>414.90</ele>
        <time>2014-02-23T09:27:09Z</time>
      </trkpt>
      <trkpt lat="41.626826780" lon="2.461081660">
        <ele>414.80</ele>
        <time>2014-02-23T09:27:10Z</time>
      </trkpt>
      <trkpt lat="41.626825100" lon="2.461083340">
        <ele>414.80</ele>
        <time>2014-02-23T09:27:11Z</time>
      </trkpt>
      <trkpt lat="41.626823430" lon="2.461085020">
        <ele>414.90</ele>
        <time>2014-02-23T09:27:12Z</time>
      </trkpt>
      <trkpt lat="41.626820070" lon="2.461086690">
        <ele>415.00</ele>
        <time>2014-02-23T09:27:13Z</time>
      </trkpt>
      <trkpt lat="41.626818400" lon="2.461086690">
        <ele>414.90</ele>
        <time>2014-02-23T09:27:14Z</time>
      </trkpt>
      <trkpt lat="41.626816720" lon="2.461088370">
        <ele>414.80</ele>
        <time>2014-02-23T09:27:15Z</time>
      </trkpt>
      <trkpt lat="41.626813370" lon="2.461088370">
        <ele>414.70</ele>
        <time>2014-02-23T09:27:16Z</time>
      </trkpt>
      <trkpt lat="41.626811690" lon="2.461088370">
        <ele>414.80</ele>
        <time>2014-02-23T09:27:17Z</time>
      </trkpt>
      <trkpt lat="41.626810020" lon="2.461090050">
        <ele>414.90</ele>
        <time>2014-02-23T09:27:18Z</time>
      </trkpt>
      <trkpt lat="41.626806660" lon="2.461090050">
        <ele>414.90</ele>
        <time>2014-02-23T09:27:19Z</time>
      </trkpt>
      <trkpt lat="41.626805160" lon="2.461090050">
        <ele>414.90</ele>
        <time>2014-02-23T09:27:20Z</time>
      </trkpt>
      <trkpt lat="41.626803480" lon="2.461090050">
        <ele>415.10</ele>
        <time>2014-02-23T09:27:21Z</time>
      </trkpt>
      <trkpt lat="41.626801800" lon="2.461090050">
        <ele>415.30</ele>
        <time>2014-02-23T09:27:22Z</time>
      </trkpt>
      <trkpt lat="41.626798450" lon="2.461090050">
        <ele>415.50</ele>
        <time>2014-02-23T09:27:23Z</time>
      </trkpt>
      <trkpt lat="41.626796770" lon="2.461091720">
        <ele>415.20</ele>
        <time>2014-02-23T09:27:24Z</time>
      </trkpt>
      <trkpt lat="41.626795100" lon="2.461091720">
        <ele>415.00</ele>
        <time>2014-02-23T09:27:25Z</time>
      </trkpt>
      <trkpt lat="41.626791740" lon="2.461090050">
        <ele>415.20</ele>
        <time>2014-02-23T09:27:26Z</time>
      </trkpt>
      <trkpt lat="41.626790070" lon="2.461090050">
        <ele>415.30</ele>
        <time>2014-02-23T09:27:27Z</time>
      </trkpt>
      <trkpt lat="41.626788390" lon="2.461091720">
        <ele>415.30</ele>
        <time>2014-02-23T09:27:28Z</time>
      </trkpt>
      <trkpt lat="41.626786720" lon="2.461091720">
        <ele>415.20</ele>
        <time>2014-02-23T09:27:29Z</time>
      </trkpt>
      <trkpt lat="41.626785040" lon="2.461093400">
        <ele>415.20</ele>
        <time>2014-02-23T09:27:30Z</time>
      </trkpt>
      <trkpt lat="41.626783360" lon="2.461093400">
        <ele>415.40</ele>
        <time>2014-02-23T09:27:31Z</time>
      </trkpt>
      <trkpt lat="41.626783360" lon="2.461095070">
        <ele>415.60</ele>
        <time>2014-02-23T09:27:32Z</time>
      </trkpt>
      <trkpt lat="41.626781690" lon="2.461096750">
        <ele>415.20</ele>
        <time>2014-02-23T09:27:33Z</time>
      </trkpt>
      <trkpt lat="41.626781690" lon="2.461098430">
        <ele>415.00</ele>
        <time>2014-02-23T09:27:34Z</time>
      </trkpt>
      <trkpt lat="41.626780010" lon="2.461100100">
        <ele>414.80</ele>
        <time>2014-02-23T09:27:35Z</time>
      </trkpt>
      <trkpt lat="41.626780010" lon="2.461101780">
        <ele>415.00</ele>
        <time>2014-02-23T09:27:36Z</time>
      </trkpt>
      <trkpt lat="41.626778330" lon="2.461103460">
        <ele>415.10</ele>
        <time>2014-02-23T09:27:37Z</time>
      </trkpt>
      <trkpt lat="41.626778330" lon="2.461105130">
        <ele>415.40</ele>
        <time>2014-02-23T09:27:38Z</time>
      </trkpt>
      <trkpt lat="41.626778330" lon="2.461108490">
        <ele>415.60</ele>
        <time>2014-02-23T09:27:39Z</time>
      </trkpt>
      <trkpt lat="41.626778330" lon="2.461111670">
        <ele>415.50</ele>
        <time>2014-02-23T09:27:40Z</time>
      </trkpt>
      <trkpt lat="41.626778330" lon="2.461115020">
        <ele>415.40</ele>
        <time>2014-02-23T09:27:41Z</time>
      </trkpt>
      <trkpt lat="41.626778330" lon="2.461118380">
        <ele>415.40</ele>
        <time>2014-02-23T09:27:42Z</time>
      </trkpt>
      <trkpt lat="41.626778330" lon="2.461120050">
        <ele>415.50</ele>
        <time>2014-02-23T09:27:43Z</time>
      </trkpt>
      <trkpt lat="41.626778330" lon="2.461123410">
        <ele>415.60</ele>
        <time>2014-02-23T09:27:44Z</time>
      </trkpt>
      <trkpt lat="41.626778330" lon="2.461126760">
        <ele>415.70</ele>
        <time>2014-02-23T09:27:45Z</time>
      </trkpt>
      <trkpt lat="41.626780010" lon="2.461128430">
        <ele>415.80</ele>
        <time>2014-02-23T09:27:46Z</time>
      </trkpt>
      <trkpt lat="41.626780010" lon="2.461131790">
        <ele>415.50</ele>
        <time>2014-02-23T09:27:47Z</time>
      </trkpt>
      <trkpt lat="41.626780010" lon="2.461133460">
        <ele>415.30</ele>
        <time>2014-02-23T09:27:48Z</time>
      </trkpt>
      <trkpt lat="41.626780010" lon="2.461136820">
        <ele>415.10</ele>
        <time>2014-02-23T09:27:49Z</time>
      </trkpt>
      <trkpt lat="41.626780010" lon="2.461138490">
        <ele>415.30</ele>
        <time>2014-02-23T09:27:50Z</time>
      </trkpt>
      <trkpt lat="41.626781690" lon="2.461141680">
        <ele>415.40</ele>
        <time>2014-02-23T09:27:51Z</time>
      </trkpt>
      <trkpt lat="41.626781690" lon="2.461145030">
        <ele>415.20</ele>
        <time>2014-02-23T09:27:52Z</time>
      </trkpt>
      <trkpt lat="41.626781690" lon="2.461146710">
        <ele>415.10</ele>
        <time>2014-02-23T09:27:53Z</time>
      </trkpt>
      <trkpt lat="41.626781690" lon="2.461148380">
        <ele>414.90</ele>
        <time>2014-02-23T09:27:54Z</time>
      </trkpt>
      <trkpt lat="41.626781690" lon="2.461148380">
        <ele>415.00</ele>
        <time>2014-02-23T09:27:55Z</time>
      </trkpt>
      <trkpt lat="41.626781690" lon="2.461150060">
        <ele>415.10</ele>
        <time>2014-02-23T09:27:56Z</time>
      </trkpt>
      <trkpt lat="41.626781690" lon="2.461151740">
        <ele>415.00</ele>
        <time>2014-02-23T09:27:57Z</time>
      </trkpt>
      <trkpt lat="41.626781690" lon="2.461151740">
        <ele>414.80</ele>
        <time>2014-02-23T09:27:58Z</time>
      </trkpt>
      <trkpt lat="41.626781690" lon="2.461151740">
        <ele>415.30</ele>
        <time>2014-02-23T09:27:59Z</time>
      </trkpt>
      <trkpt lat="41.626781690" lon="2.461153410">
        <ele>415.60</ele>
        <time>2014-02-23T09:28:00Z</time>
      </trkpt>
      <trkpt lat="41.626781690" lon="2.461153410">
        <ele>415.80</ele>
        <time>2014-02-23T09:28:01Z</time>
      </trkpt>
      <trkpt lat="41.626781690" lon="2.461153410">
        <ele>415.70</ele>
        <time>2014-02-23T09:28:02Z</time>
      </trkpt>
      <trkpt lat="41.626781690" lon="2.461153410">
        <ele>415.70</ele>
        <time>2014-02-23T09:28:03Z</time>
      </trkpt>
      <trkpt lat="41.626781690" lon="2.461153410">
        <ele>415.60</ele>
        <time>2014-02-23T09:28:04Z</time>
      </trkpt>
      <trkpt lat="41.626781690" lon="2.461155090">
        <ele>415.60</ele>
        <time>2014-02-23T09:28:05Z</time>
      </trkpt>
      <trkpt lat="41.626781690" lon="2.461155090">
        <ele>415.70</ele>
        <time>2014-02-23T09:28:06Z</time>
      </trkpt>
      <trkpt lat="41.626781690" lon="2.461155090">
        <ele>415.80</ele>
        <time>2014-02-23T09:28:07Z</time>
      </trkpt>
      <trkpt lat="41.626781690" lon="2.461156770">
        <ele>415.90</ele>
        <time>2014-02-23T09:28:08Z</time>
      </trkpt>
      <trkpt lat="41.626781690" lon="2.461156770">
        <ele>415.80</ele>
        <time>2014-02-23T09:28:09Z</time>
      </trkpt>
      <trkpt lat="41.626781690" lon="2.461156770">
        <ele>415.80</ele>
        <time>2014-02-23T09:28:10Z</time>
      </trkpt>
      <trkpt lat="41.626781690" lon="2.461156770">
        <ele>415.70</ele>
        <time>2014-02-23T09:28:11Z</time>
      </trkpt>
      <trkpt lat="41.626781690" lon="2.461158440">
        <ele>415.60</ele>
        <time>2014-02-23T09:28:12Z</time>
      </trkpt>
      <trkpt lat="41.626781690" lon="2.461158440">
        <ele>415.50</ele>
        <time>2014-02-23T09:28:13Z</time>
      </trkpt>
      <trkpt lat="41.626781690" lon="2.461160120">
        <ele>415.30</ele>
        <time>2014-02-23T09:28:14Z</time>
      </trkpt>
      <trkpt lat="41.626781690" lon="2.461160120">
        <ele>415.20</ele>
        <time>2014-02-23T09:28:15Z</time>
      </trkpt>
      <trkpt lat="41.626781690" lon="2.461160120">
        <ele>415.70</ele>
        <time>2014-02-23T09:28:16Z</time>
      </trkpt>
      <trkpt lat="41.626781690" lon="2.461160120">
        <ele>416.00</ele>
        <time>2014-02-23T09:28:17Z</time>
      </trkpt>
      <trkpt lat="41.626781690" lon="2.461160120">
        <ele>415.90</ele>
        <time>2014-02-23T09:28:18Z</time>
      </trkpt>
      <trkpt lat="41.626781690" lon="2.461160120">
        <ele>415.90</ele>
        <time>2014-02-23T09:28:19Z</time>
      </trkpt>
      <trkpt lat="41.626781690" lon="2.461160120">
        <ele>415.80</ele>
        <time>2014-02-23T09:28:20Z</time>
      </trkpt>
      <trkpt lat="41.626781690" lon="2.461160120">
        <ele>415.60</ele>
        <time>2014-02-23T09:28:21Z</time>
      </trkpt>
      <trkpt lat="41.626783360" lon="2.461161790">
        <ele>415.50</ele>
        <time>2014-02-23T09:28:22Z</time>
      </trkpt>
      <trkpt lat="41.626783360" lon="2.461161790">
        <ele>415.70</ele>
        <time>2014-02-23T09:28:23Z</time>
      </trkpt>
      <trkpt lat="41.626783360" lon="2.461161790">
        <ele>415.80</ele>
        <time>2014-02-23T09:28:24Z</time>
      </trkpt>
      <trkpt lat="41.626783360" lon="2.461161790">
        <ele>415.20</ele>
        <time>2014-02-23T09:28:25Z</time>
      </trkpt>
      <trkpt lat="41.626785040" lon="2.461161790">
        <ele>414.80</ele>
        <time>2014-02-23T09:28:26Z</time>
      </trkpt>
      <trkpt lat="41.626785040" lon="2.461161790">
        <ele>414.50</ele>
        <time>2014-02-23T09:28:27Z</time>
      </trkpt>
      <trkpt lat="41.626785040" lon="2.461161790">
        <ele>414.80</ele>
        <time>2014-02-23T09:28:28Z</time>
      </trkpt>
      <trkpt lat="41.626785040" lon="2.461160120">
        <ele>415.00</ele>
        <time>2014-02-23T09:28:29Z</time>
      </trkpt>
      <trkpt lat="41.626785040" lon="2.461160120">
        <ele>415.20</ele>
        <time>2014-02-23T09:28:30Z</time>
      </trkpt>
      <trkpt lat="41.626785040" lon="2.461160120">
        <ele>415.30</ele>
        <time>2014-02-23T09:28:31Z</time>
      </trkpt>
      <trkpt lat="41.626786720" lon="2.461160120">
        <ele>415.40</ele>
        <time>2014-02-23T09:28:32Z</time>
      </trkpt>
      <trkpt lat="41.626786720" lon="2.461160120">
        <ele>415.40</ele>
        <time>2014-02-23T09:28:33Z</time>
      </trkpt>
      <trkpt lat="41.626788390" lon="2.461160120">
        <ele>415.30</ele>
        <time>2014-02-23T09:28:34Z</time>
      </trkpt>
      <trkpt lat="41.626788390" lon="2.461160120">
        <ele>415.40</ele>
        <time>2014-02-23T09:28:35Z</time>
      </trkpt>
      <trkpt lat="41.626790070" lon="2.461160120">
        <ele>415.40</ele>
        <time>2014-02-23T09:28:36Z</time>
      </trkpt>
      <trkpt lat="41.626790070" lon="2.461160120">
        <ele>415.20</ele>
        <time>2014-02-23T09:28:37Z</time>
      </trkpt>
      <trkpt lat="41.626791740" lon="2.461160120">
        <ele>415.10</ele>
        <time>2014-02-23T09:28:38Z</time>
      </trkpt>
      <trkpt lat="41.626791740" lon="2.461160120">
        <ele>415.00</ele>
        <time>2014-02-23T09:28:39Z</time>
      </trkpt>
      <trkpt lat="41.626793420" lon="2.461160120">
        <ele>415.30</ele>
        <time>2014-02-23T09:28:40Z</time>
      </trkpt>
      <trkpt lat="41.626793420" lon="2.461160120">
        <ele>415.50</ele>
        <time>2014-02-23T09:28:41Z</time>
      </trkpt>
      <trkpt lat="41.626795100" lon="2.461160120">
        <ele>415.20</ele>
        <time>2014-02-23T09:28:42Z</time>
      </trkpt>
      <trkpt lat="41.626796770" lon="2.461160120">
        <ele>415.00</ele>
        <time>2014-02-23T09:28:43Z</time>
      </trkpt>
      <trkpt lat="41.626798450" lon="2.461160120">
        <ele>415.30</ele>
        <time>2014-02-23T09:28:44Z</time>
      </trkpt>
      <trkpt lat="41.626798450" lon="2.461160120">
        <ele>415.50</ele>
        <time>2014-02-23T09:28:45Z</time>
      </trkpt>
      <trkpt lat="41.626800130" lon="2.461160120">
        <ele>415.60</ele>
        <time>2014-02-23T09:28:46Z</time>
      </trkpt>
      <trkpt lat="41.626801800" lon="2.461160120">
        <ele>416.00</ele>
        <time>2014-02-23T09:28:47Z</time>
      </trkpt>
      <trkpt lat="41.626803480" lon="2.461160120">
        <ele>416.30</ele>
        <time>2014-02-23T09:28:48Z</time>
      </trkpt>
      <trkpt lat="41.626805160" lon="2.461161790">
        <ele>416.50</ele>
        <time>2014-02-23T09:28:49Z</time>
      </trkpt>
      <trkpt lat="41.626806660" lon="2.461161790">
        <ele>416.70</ele>
        <time>2014-02-23T09:28:50Z</time>
      </trkpt>
      <trkpt lat="41.626808340" lon="2.461160120">
        <ele>416.90</ele>
        <time>2014-02-23T09:28:51Z</time>
      </trkpt>
      <trkpt lat="41.626810020" lon="2.461160120">
        <ele>416.50</ele>
        <time>2014-02-23T09:28:52Z</time>
      </trkpt>
      <trkpt lat="41.626810020" lon="2.461160120">
        <ele>416.20</ele>
        <time>2014-02-23T09:28:53Z</time>
      </trkpt>
      <trkpt lat="41.626811690" lon="2.461160120">
        <ele>415.80</ele>
        <time>2014-02-23T09:28:54Z</time>
      </trkpt>
      <trkpt lat="41.626813370" lon="2.461160120">
        <ele>415.40</ele>
        <time>2014-02-23T09:28:55Z</time>
      </trkpt>
      <trkpt lat="41.626813370" lon="2.461158440">
        <ele>415.60</ele>
        <time>2014-02-23T09:28:56Z</time>
      </trkpt>
      <trkpt lat="41.626815050" lon="2.461156770">
        <ele>415.60</ele>
        <time>2014-02-23T09:28:57Z</time>
      </trkpt>
      <trkpt lat="41.626815050" lon="2.461156770">
        <ele>415.70</ele>
        <time>2014-02-23T09:28:58Z</time>
      </trkpt>
      <trkpt lat="41.626816720" lon="2.461153410">
        <ele>415.70</ele>
        <time>2014-02-23T09:28:59Z</time>
      </trkpt>
      <trkpt lat="41.626816720" lon="2.461153410">
        <ele>415.70</ele>
        <time>2014-02-23T09:29:00Z</time>
      </trkpt>
      <trkpt lat="41.626818400" lon="2.461151740">
        <ele>415.70</ele>
        <time>2014-02-23T09:29:01Z</time>
      </trkpt>
      <trkpt lat="41.626820070" lon="2.461150060">
        <ele>415.70</ele>
        <time>2014-02-23T09:29:02Z</time>
      </trkpt>
      <trkpt lat="41.626821750" lon="2.461150060">
        <ele>415.10</ele>
        <time>2014-02-23T09:29:03Z</time>
      </trkpt>
      <trkpt lat="41.626823430" lon="2.461148380">
        <ele>414.70</ele>
        <time>2014-02-23T09:29:04Z</time>
      </trkpt>
      <trkpt lat="41.626823430" lon="2.461145030">
        <ele>414.30</ele>
        <time>2014-02-23T09:29:05Z</time>
      </trkpt>
      <trkpt lat="41.626825100" lon="2.461143350">
        <ele>414.50</ele>
        <time>2014-02-23T09:29:06Z</time>
      </trkpt>
      <trkpt lat="41.626826780" lon="2.461141680">
        <ele>414.50</ele>
        <time>2014-02-23T09:29:07Z</time>
      </trkpt>
      <trkpt lat="41.626828460" lon="2.461138490">
        <ele>414.60</ele>
        <time>2014-02-23T09:29:08Z</time>
      </trkpt>
      <trkpt lat="41.626830130" lon="2.461135140">
        <ele>414.70</ele>
        <time>2014-02-23T09:29:09Z</time>
      </trkpt>
      <trkpt lat="41.626831810" lon="2.461131790">
        <ele>415.00</ele>
        <time>2014-02-23T09:29:10Z</time>
      </trkpt>
      <trkpt lat="41.626833490" lon="2.461130110">
        <ele>415.20</ele>
        <time>2014-02-23T09:29:11Z</time>
      </trkpt>
      <trkpt lat="41.626835160" lon="2.461128430">
        <ele>415.30</ele>
        <time>2014-02-23T09:29:12Z</time>
      </trkpt>
      <trkpt lat="41.626836670" lon="2.461126760">
        <ele>415.10</ele>
        <time>2014-02-23T09:29:13Z</time>
      </trkpt>
      <trkpt lat="41.626838350" lon="2.461126760">
        <ele>414.90</ele>
        <time>2014-02-23T09:29:14Z</time>
      </trkpt>
      <trkpt lat="41.626840020" lon="2.461126760">
        <ele>415.10</ele>
        <time>2014-02-23T09:29:15Z</time>
      </trkpt>
      <trkpt lat="41.626840020" lon="2.461126760">
        <ele>415.30</ele>
        <time>2014-02-23T09:29:16Z</time>
      </trkpt>
      <trkpt lat="41.626841700" lon="2.461125080">
        <ele>415.50</ele>
        <time>2014-02-23T09:29:17Z</time>
      </trkpt>
      <trkpt lat="41.626841700" lon="2.461125080">
        <ele>415.50</ele>
        <time>2014-02-23T09:29:18Z</time>
      </trkpt>
      <trkpt lat="41.626841700" lon="2.461125080">
        <ele>415.50</ele>
        <time>2014-02-23T09:29:19Z</time>
      </trkpt>
      <trkpt lat="41.626843380" lon="2.461123410">
        <ele>415.80</ele>
        <time>2014-02-23T09:29:20Z</time>
      </trkpt>
      <trkpt lat="41.626843380" lon="2.461123410">
        <ele>415.90</ele>
        <time>2014-02-23T09:29:21Z</time>
      </trkpt>
      <trkpt lat="41.626843380" lon="2.461123410">
        <ele>415.70</ele>
        <time>2014-02-23T09:29:22Z</time>
      </trkpt>
      <trkpt lat="41.626845050" lon="2.461123410">
        <ele>415.50</ele>
        <time>2014-02-23T09:29:23Z</time>
      </trkpt>
      <trkpt lat="41.626845050" lon="2.461123410">
        <ele>415.30</ele>
        <time>2014-02-23T09:29:24Z</time>
      </trkpt>
      <trkpt lat="41.626845050" lon="2.461121730">
        <ele>415.20</ele>
        <time>2014-02-23T09:29:25Z</time>
      </trkpt>
      <trkpt lat="41.626845050" lon="2.461121730">
        <ele>415.10</ele>
        <time>2014-02-23T09:29:26Z</time>
      </trkpt>
      <trkpt lat="41.626845050" lon="2.461120050">
        <ele>415.50</ele>
        <time>2014-02-23T09:29:27Z</time>
      </trkpt>
      <trkpt lat="41.626845050" lon="2.461120050">
        <ele>415.70</ele>
        <time>2014-02-23T09:29:28Z</time>
      </trkpt>
      <trkpt lat="41.626845050" lon="2.461118380">
        <ele>415.40</ele>
        <time>2014-02-23T09:29:29Z</time>
      </trkpt>
      <trkpt lat="41.626845050" lon="2.461118380">
        <ele>415.20</ele>
        <time>2014-02-23T09:29:30Z</time>
      </trkpt>
      <trkpt lat="41.626845050" lon="2.461116700">
        <ele>415.10</ele>
        <time>2014-02-23T09:29:31Z</time>
      </trkpt>
      <trkpt lat="41.626845050" lon="2.461116700">
        <ele>414.80</ele>
        <time>2014-02-23T09:29:32Z</time>
      </trkpt>
      <trkpt lat="41.626845050" lon="2.461116700">
        <ele>414.70</ele>
        <time>2014-02-23T09:29:33Z</time>
      </trkpt>
      <trkpt lat="41.626845050" lon="2.461116700">
        <ele>414.40</ele>
        <time>2014-02-23T09:29:34Z</time>
      </trkpt>
      <trkpt lat="41.626845050" lon="2.461116700">
        <ele>414.20</ele>
        <time>2014-02-23T09:29:35Z</time>
      </trkpt>
      <trkpt lat="41.626845050" lon="2.461116700">
        <ele>414.10</ele>
        <time>2014-02-23T09:29:36Z</time>
      </trkpt>
      <trkpt lat="41.626845050" lon="2.461115020">
        <ele>414.50</ele>
        <time>2014-02-23T09:29:37Z</time>
      </trkpt>
      <trkpt lat="41.626845050" lon="2.461115020">
        <ele>414.70</ele>
        <time>2014-02-23T09:29:38Z</time>
      </trkpt>
      <trkpt lat="41.626845050" lon="2.461113350">
        <ele>414.80</ele>
        <time>2014-02-23T09:29:39Z</time>
      </trkpt>
      <trkpt lat="41.626845050" lon="2.461113350">
        <ele>414.80</ele>
        <time>2014-02-23T09:29:40Z</time>
      </trkpt>
      <trkpt lat="41.626845050" lon="2.461113350">
        <ele>414.70</ele>
        <time>2014-02-23T09:29:41Z</time>
      </trkpt>
      <trkpt lat="41.626845050" lon="2.461111670">
        <ele>414.60</ele>
        <time>2014-02-23T09:29:42Z</time>
      </trkpt>
      <trkpt lat="41.626843380" lon="2.461111670">
        <ele>414.60</ele>
        <time>2014-02-23T09:29:43Z</time>
      </trkpt>
      <trkpt lat="41.626843380" lon="2.461111670">
        <ele>415.00</ele>
        <time>2014-02-23T09:29:44Z</time>
      </trkpt>
      <trkpt lat="41.626843380" lon="2.461111670">
        <ele>415.20</ele>
        <time>2014-02-23T09:29:45Z</time>
      </trkpt>
      <trkpt lat="41.626843380" lon="2.461111670">
        <ele>415.30</ele>
        <time>2014-02-23T09:29:46Z</time>
      </trkpt>
      <trkpt lat="41.626843380" lon="2.461111670">
        <ele>415.40</ele>
        <time>2014-02-23T09:29:47Z</time>
      </trkpt>
      <trkpt lat="41.626843380" lon="2.461111670">
        <ele>415.50</ele>
        <time>2014-02-23T09:29:48Z</time>
      </trkpt>
      <trkpt lat="41.626843380" lon="2.461111670">
        <ele>415.60</ele>
        <time>2014-02-23T09:29:49Z</time>
      </trkpt>
      <trkpt lat="41.626843380" lon="2.461111670">
        <ele>415.70</ele>
        <time>2014-02-23T09:29:50Z</time>
      </trkpt>
      <trkpt lat="41.626845050" lon="2.461111670">
        <ele>415.70</ele>
        <time>2014-02-23T09:29:51Z</time>
      </trkpt>
      <trkpt lat="41.626845050" lon="2.461113350">
        <ele>415.80</ele>
        <time>2014-02-23T09:29:52Z</time>
      </trkpt>
      <trkpt lat="41.626845050" lon="2.461113350">
        <ele>415.70</ele>
        <time>2014-02-23T09:29:53Z</time>
      </trkpt>
      <trkpt lat="41.626845050" lon="2.461115020">
        <ele>415.60</ele>
        <time>2014-02-23T09:29:54Z</time>
      </trkpt>
      <trkpt lat="41.626845050" lon="2.461115020">
        <ele>415.60</ele>
        <time>2014-02-23T09:29:55Z</time>
      </trkpt>
      <trkpt lat="41.626845050" lon="2.461115020">
        <ele>415.50</ele>
        <time>2014-02-23T09:29:56Z</time>
      </trkpt>
      <trkpt lat="41.626846730" lon="2.461115020">
        <ele>415.50</ele>
        <time>2014-02-23T09:29:57Z</time>
      </trkpt>
      <trkpt lat="41.626845050" lon="2.461116700">
        <ele>415.60</ele>
        <time>2014-02-23T09:29:58Z</time>
      </trkpt>
      <trkpt lat="41.626846730" lon="2.461118380">
        <ele>415.70</ele>
        <time>2014-02-23T09:29:59Z</time>
      </trkpt>
      <trkpt lat="41.626846730" lon="2.461120050">
        <ele>415.30</ele>
        <time>2014-02-23T09:30:00Z</time>
      </trkpt>
      <trkpt lat="41.626850080" lon="2.461123410">
        <ele>415.00</ele>
        <time>2014-02-23T09:30:01Z</time>
      </trkpt>
      <trkpt lat="41.626848410" lon="2.461123410">
        <ele>414.80</ele>
        <time>2014-02-23T09:30:02Z</time>
      </trkpt>
      <trkpt lat="41.626845050" lon="2.461123410">
        <ele>415.10</ele>
        <time>2014-02-23T09:30:03Z</time>
      </trkpt>
      <trkpt lat="41.626838350" lon="2.461130110">
        <ele>415.40</ele>
        <time>2014-02-23T09:30:04Z</time>
      </trkpt>
      <trkpt lat="41.626835160" lon="2.461140000">
        <ele>415.50</ele>
        <time>2014-02-23T09:30:05Z</time>
      </trkpt>
      <trkpt lat="41.626835160" lon="2.461151740">
        <ele>415.60</ele>
        <time>2014-02-23T09:30:06Z</time>
      </trkpt>
      <trkpt lat="41.626835160" lon="2.461163470">
        <ele>415.70</ele>
        <time>2014-02-23T09:30:07Z</time>
      </trkpt>
      <trkpt lat="41.626835160" lon="2.461176710">
        <ele>415.80</ele>
        <time>2014-02-23T09:30:08Z</time>
      </trkpt>
      <trkpt lat="41.626835160" lon="2.461190130">
        <ele>415.90</ele>
        <time>2014-02-23T09:30:09Z</time>
      </trkpt>
      <trkpt lat="41.626836670" lon="2.461201690">
        <ele>416.00</ele>
        <time>2014-02-23T09:30:10Z</time>
      </trkpt>
      <trkpt lat="41.626836670" lon="2.461215100">
        <ele>416.10</ele>
        <time>2014-02-23T09:30:11Z</time>
      </trkpt>
      <trkpt lat="41.626838350" lon="2.461228350">
        <ele>416.50</ele>
        <time>2014-02-23T09:30:12Z</time>
      </trkpt>
      <trkpt lat="41.626840020" lon="2.461238410">
        <ele>416.80</ele>
        <time>2014-02-23T09:30:13Z</time>
      </trkpt>
      <trkpt lat="41.626841700" lon="2.461248460">
        <ele>417.10</ele>
        <time>2014-02-23T09:30:14Z</time>
      </trkpt>
      <trkpt lat="41.626843380" lon="2.461260030">
        <ele>417.00</ele>
        <time>2014-02-23T09:30:15Z</time>
      </trkpt>
      <trkpt lat="41.626843380" lon="2.461266740">
        <ele>417.00</ele>
        <time>2014-02-23T09:30:16Z</time>
      </trkpt>
      <trkpt lat="41.626843380" lon="2.461268410">
        <ele>417.10</ele>
        <time>2014-02-23T09:30:17Z</time>
      </trkpt>
      <trkpt lat="41.626841700" lon="2.461268410">
        <ele>417.20</ele>
        <time>2014-02-23T09:30:18Z</time>
      </trkpt>
      <trkpt lat="41.626840020" lon="2.461271770">
        <ele>417.60</ele>
        <time>2014-02-23T09:30:19Z</time>
      </trkpt>
      <trkpt lat="41.626833490" lon="2.461283330">
        <ele>417.80</ele>
        <time>2014-02-23T09:30:20Z</time>
      </trkpt>
      <trkpt lat="41.626826780" lon="2.461295070">
        <ele>418.00</ele>
        <time>2014-02-23T09:30:21Z</time>
      </trkpt>
      <trkpt lat="41.626818400" lon="2.461305130">
        <ele>417.90</ele>
        <time>2014-02-23T09:30:22Z</time>
      </trkpt>
      <trkpt lat="41.626808340" lon="2.461313340">
        <ele>417.80</ele>
        <time>2014-02-23T09:30:23Z</time>
      </trkpt>
      <trkpt lat="41.626795100" lon="2.461320050">
        <ele>417.70</ele>
        <time>2014-02-23T09:30:24Z</time>
      </trkpt>
      <trkpt lat="41.626776820" lon="2.461330100">
        <ele>417.60</ele>
        <time>2014-02-23T09:30:25Z</time>
      </trkpt>
      <trkpt lat="41.626756710" lon="2.461340160">
        <ele>417.40</ele>
        <time>2014-02-23T09:30:26Z</time>
      </trkpt>
      <trkpt lat="41.626736760" lon="2.461360110">
        <ele>417.20</ele>
        <time>2014-02-23T09:30:27Z</time>
      </trkpt>
      <trkpt lat="41.626718490" lon="2.461383410">
        <ele>417.10</ele>
        <time>2014-02-23T09:30:28Z</time>
      </trkpt>
      <trkpt lat="41.626698370" lon="2.461400010">
        <ele>416.40</ele>
        <time>2014-02-23T09:30:29Z</time>
      </trkpt>
      <trkpt lat="41.626678420" lon="2.461413420">
        <ele>415.90</ele>
        <time>2014-02-23T09:30:30Z</time>
      </trkpt>
      <trkpt lat="41.626656800" lon="2.461428340">
        <ele>415.60</ele>
        <time>2014-02-23T09:30:31Z</time>
      </trkpt>
      <trkpt lat="41.626635000" lon="2.461445100">
        <ele>415.40</ele>
        <time>2014-02-23T09:30:32Z</time>
      </trkpt>
      <trkpt lat="41.626611700" lon="2.461460020">
        <ele>415.30</ele>
        <time>2014-02-23T09:30:33Z</time>
      </trkpt>
      <trkpt lat="41.626586720" lon="2.461475110">
        <ele>415.10</ele>
        <time>2014-02-23T09:30:34Z</time>
      </trkpt>
      <trkpt lat="41.626563420" lon="2.461493380">
        <ele>414.90</ele>
        <time>2014-02-23T09:30:35Z</time>
      </trkpt>
      <trkpt lat="41.626541800" lon="2.461513330">
        <ele>414.60</ele>
        <time>2014-02-23T09:30:36Z</time>
      </trkpt>
      <trkpt lat="41.626515140" lon="2.461533450">
        <ele>414.40</ele>
        <time>2014-02-23T09:30:37Z</time>
      </trkpt>
      <trkpt lat="41.626490000" lon="2.461550040">
        <ele>414.10</ele>
        <time>2014-02-23T09:30:38Z</time>
      </trkpt>
      <trkpt lat="41.626463340" lon="2.461555070">
        <ele>413.80</ele>
        <time>2014-02-23T09:30:39Z</time>
      </trkpt>
      <trkpt lat="41.626433330" lon="2.461563460">
        <ele>413.70</ele>
        <time>2014-02-23T09:30:40Z</time>
      </trkpt>
      <trkpt lat="41.626408360" lon="2.461563460">
        <ele>413.50</ele>
        <time>2014-02-23T09:30:41Z</time>
      </trkpt>
      <trkpt lat="41.626381700" lon="2.461561780">
        <ele>413.40</ele>
        <time>2014-02-23T09:30:42Z</time>
      </trkpt>
      <trkpt lat="41.626355050" lon="2.461560100">
        <ele>412.90</ele>
        <time>2014-02-23T09:30:43Z</time>
      </trkpt>
      <trkpt lat="41.626330070" lon="2.461560100">
        <ele>412.50</ele>
        <time>2014-02-23T09:30:44Z</time>
      </trkpt>
      <trkpt lat="41.626308440" lon="2.461563460">
        <ele>413.20</ele>
        <time>2014-02-23T09:30:45Z</time>
      </trkpt>
      <trkpt lat="41.626285140" lon="2.461568480">
        <ele>413.80</ele>
        <time>2014-02-23T09:30:46Z</time>
      </trkpt>
      <trkpt lat="41.626265030" lon="2.461568480">
        <ele>414.20</ele>
        <time>2014-02-23T09:30:47Z</time>
      </trkpt>
      <trkpt lat="41.626245080" lon="2.461576700">
        <ele>414.20</ele>
        <time>2014-02-23T09:30:48Z</time>
      </trkpt>
      <trkpt lat="41.626225130" lon="2.461588430">
        <ele>414.30</ele>
        <time>2014-02-23T09:30:49Z</time>
      </trkpt>
      <trkpt lat="41.626205010" lon="2.461596820">
        <ele>414.50</ele>
        <time>2014-02-23T09:30:50Z</time>
      </trkpt>
      <trkpt lat="41.626183390" lon="2.461603350">
        <ele>414.70</ele>
        <time>2014-02-23T09:30:51Z</time>
      </trkpt>
      <trkpt lat="41.626163440" lon="2.461608380">
        <ele>414.80</ele>
        <time>2014-02-23T09:30:52Z</time>
      </trkpt>
      <trkpt lat="41.626141810" lon="2.461616760">
        <ele>414.80</ele>
        <time>2014-02-23T09:30:53Z</time>
      </trkpt>
      <trkpt lat="41.626121690" lon="2.461628330">
        <ele>414.80</ele>
        <time>2014-02-23T09:30:54Z</time>
      </trkpt>
      <trkpt lat="41.626101750" lon="2.461641740">
        <ele>414.80</ele>
        <time>2014-02-23T09:30:55Z</time>
      </trkpt>
      <trkpt lat="41.626086830" lon="2.461653480">
        <ele>414.80</ele>
        <time>2014-02-23T09:30:56Z</time>
      </trkpt>
      <trkpt lat="41.626066710" lon="2.461665040">
        <ele>414.40</ele>
        <time>2014-02-23T09:30:57Z</time>
      </trkpt>
      <trkpt lat="41.626043410" lon="2.461675100">
        <ele>414.20</ele>
        <time>2014-02-23T09:30:58Z</time>
      </trkpt>
      <trkpt lat="41.626023460" lon="2.461688350">
        <ele>414.00</ele>
        <time>2014-02-23T09:30:59Z</time>
      </trkpt>
      <trkpt lat="41.626003340" lon="2.461698400">
        <ele>413.70</ele>
        <time>2014-02-23T09:31:00Z</time>
      </trkpt>
      <trkpt lat="41.625983390" lon="2.461710140">
        <ele>413.60</ele>
        <time>2014-02-23T09:31:01Z</time>
      </trkpt>
      <trkpt lat="41.625965120" lon="2.461725060">
        <ele>413.30</ele>
        <time>2014-02-23T09:31:02Z</time>
      </trkpt>
      <trkpt lat="41.625948360" lon="2.461738470">
        <ele>413.10</ele>
        <time>2014-02-23T09:31:03Z</time>
      </trkpt>
      <trkpt lat="41.625928410" lon="2.461750040">
        <ele>412.30</ele>
        <time>2014-02-23T09:31:04Z</time>
      </trkpt>
      <trkpt lat="41.625901750" lon="2.461758420">
        <ele>411.60</ele>
        <time>2014-02-23T09:31:05Z</time>
      </trkpt>
      <trkpt lat="41.625873420" lon="2.461771660">
        <ele>411.20</ele>
        <time>2014-02-23T09:31:06Z</time>
      </trkpt>
      <trkpt lat="41.625846770" lon="2.461786750">
        <ele>410.50</ele>
        <time>2014-02-23T09:31:07Z</time>
      </trkpt>
      <trkpt lat="41.625825140" lon="2.461806700">
        <ele>410.00</ele>
        <time>2014-02-23T09:31:08Z</time>
      </trkpt>
      <trkpt lat="41.625798490" lon="2.461823460">
        <ele>409.70</ele>
        <time>2014-02-23T09:31:09Z</time>
      </trkpt>
      <trkpt lat="41.625768480" lon="2.461843410">
        <ele>409.40</ele>
        <time>2014-02-23T09:31:10Z</time>
      </trkpt>
      <trkpt lat="41.625741830" lon="2.461866710">
        <ele>409.20</ele>
        <time>2014-02-23T09:31:11Z</time>
      </trkpt>
      <trkpt lat="41.625718360" lon="2.461888340">
        <ele>409.20</ele>
        <time>2014-02-23T09:31:12Z</time>
      </trkpt>
      <trkpt lat="41.625696730" lon="2.461906780">
        <ele>409.30</ele>
        <time>2014-02-23T09:31:13Z</time>
      </trkpt>
      <trkpt lat="41.625670080" lon="2.461933430">
        <ele>409.00</ele>
        <time>2014-02-23T09:31:14Z</time>
      </trkpt>
      <trkpt lat="41.625641750" lon="2.461943490">
        <ele>408.70</ele>
        <time>2014-02-23T09:31:15Z</time>
      </trkpt>
      <trkpt lat="41.625613420" lon="2.461948350">
        <ele>408.20</ele>
        <time>2014-02-23T09:31:16Z</time>
      </trkpt>
      <trkpt lat="41.625586760" lon="2.461950030">
        <ele>407.80</ele>
        <time>2014-02-23T09:31:17Z</time>
      </trkpt>
      <trkpt lat="41.625558430" lon="2.461948350">
        <ele>407.50</ele>
        <time>2014-02-23T09:31:18Z</time>
      </trkpt>
      <trkpt lat="41.625535130" lon="2.461948350">
        <ele>407.40</ele>
        <time>2014-02-23T09:31:19Z</time>
      </trkpt>
      <trkpt lat="41.625513340" lon="2.461941810">
        <ele>407.30</ele>
        <time>2014-02-23T09:31:20Z</time>
      </trkpt>
      <trkpt lat="41.625495060" lon="2.461941810">
        <ele>406.90</ele>
        <time>2014-02-23T09:31:21Z</time>
      </trkpt>
      <trkpt lat="41.625480140" lon="2.461941810">
        <ele>406.60</ele>
        <time>2014-02-23T09:31:22Z</time>
      </trkpt>
      <trkpt lat="41.625468410" lon="2.461943490">
        <ele>406.10</ele>
        <time>2014-02-23T09:31:23Z</time>
      </trkpt>
      <trkpt lat="41.625455000" lon="2.461953380">
        <ele>405.80</ele>
        <time>2014-02-23T09:31:24Z</time>
      </trkpt>
      <trkpt lat="41.625445110" lon="2.461960090">
        <ele>405.50</ele>
        <time>2014-02-23T09:31:25Z</time>
      </trkpt>
      <trkpt lat="41.625428340" lon="2.461961760">
        <ele>405.40</ele>
        <time>2014-02-23T09:31:26Z</time>
      </trkpt>
      <trkpt lat="41.625410070" lon="2.461960090">
        <ele>405.40</ele>
        <time>2014-02-23T09:31:27Z</time>
      </trkpt>
      <trkpt lat="41.625393480" lon="2.461953380">
        <ele>404.80</ele>
        <time>2014-02-23T09:31:28Z</time>
      </trkpt>
      <trkpt lat="41.625375030" lon="2.461943490">
        <ele>404.30</ele>
        <time>2014-02-23T09:31:29Z</time>
      </trkpt>
      <trkpt lat="41.625356760" lon="2.461925050">
        <ele>403.90</ele>
        <time>2014-02-23T09:31:30Z</time>
      </trkpt>
      <trkpt lat="41.625335140" lon="2.461901750">
        <ele>403.70</ele>
        <time>2014-02-23T09:31:31Z</time>
      </trkpt>
      <trkpt lat="41.625311670" lon="2.461878450">
        <ele>403.60</ele>
        <time>2014-02-23T09:31:32Z</time>
      </trkpt>
      <trkpt lat="41.625288370" lon="2.461856820">
        <ele>403.40</ele>
        <time>2014-02-23T09:31:33Z</time>
      </trkpt>
      <trkpt lat="41.625265060" lon="2.461835030">
        <ele>403.20</ele>
        <time>2014-02-23T09:31:34Z</time>
      </trkpt>
      <trkpt lat="41.625250140" lon="2.461811730">
        <ele>402.70</ele>
        <time>2014-02-23T09:31:35Z</time>
      </trkpt>
      <trkpt lat="41.625243440" lon="2.461788430">
        <ele>402.40</ele>
        <time>2014-02-23T09:31:36Z</time>
      </trkpt>
      <trkpt lat="41.625238410" lon="2.461766800">
        <ele>402.10</ele>
        <time>2014-02-23T09:31:37Z</time>
      </trkpt>
      <trkpt lat="41.625235060" lon="2.461745010">
        <ele>402.30</ele>
        <time>2014-02-23T09:31:38Z</time>
      </trkpt>
      <trkpt lat="41.625233380" lon="2.461726740">
        <ele>402.50</ele>
        <time>2014-02-23T09:31:39Z</time>
      </trkpt>
      <trkpt lat="41.625230030" lon="2.461708460">
        <ele>402.50</ele>
        <time>2014-02-23T09:31:40Z</time>
      </trkpt>
      <trkpt lat="41.625230030" lon="2.461688350">
        <ele>402.50</ele>
        <time>2014-02-23T09:31:41Z</time>
      </trkpt>
      <trkpt lat="41.625230030" lon="2.461668400">
        <ele>402.90</ele>
        <time>2014-02-23T09:31:42Z</time>
      </trkpt>
      <trkpt lat="41.625233380" lon="2.461648450">
        <ele>403.20</ele>
        <time>2014-02-23T09:31:43Z</time>
      </trkpt>
      <trkpt lat="41.625233380" lon="2.461628330">
        <ele>403.50</ele>
        <time>2014-02-23T09:31:44Z</time>
      </trkpt>
      <trkpt lat="41.625228350" lon="2.461608380">
        <ele>403.60</ele>
        <time>2014-02-23T09:31:45Z</time>
      </trkpt>
      <trkpt lat="41.625223490" lon="2.461585080">
        <ele>403.60</ele>
        <time>2014-02-23T09:31:46Z</time>
      </trkpt>
      <trkpt lat="41.625223490" lon="2.461566810">
        <ele>403.60</ele>
        <time>2014-02-23T09:31:47Z</time>
      </trkpt>
      <trkpt lat="41.625221810" lon="2.461551720">
        <ele>403.60</ele>
        <time>2014-02-23T09:31:48Z</time>
      </trkpt>
      <trkpt lat="41.625221810" lon="2.461533450">
        <ele>403.60</ele>
        <time>2014-02-23T09:31:49Z</time>
      </trkpt>
      <trkpt lat="41.625220140" lon="2.461516680">
        <ele>404.00</ele>
        <time>2014-02-23T09:31:50Z</time>
      </trkpt>
      <trkpt lat="41.625218460" lon="2.461500090">
        <ele>404.40</ele>
        <time>2014-02-23T09:31:51Z</time>
      </trkpt>
      <trkpt lat="41.625216780" lon="2.461481820">
        <ele>404.40</ele>
        <time>2014-02-23T09:31:52Z</time>
      </trkpt>
      <trkpt lat="41.625213430" lon="2.461468400">
        <ele>404.40</ele>
        <time>2014-02-23T09:31:53Z</time>
      </trkpt>
      <trkpt lat="41.625208400" lon="2.461453480">
        <ele>404.80</ele>
        <time>2014-02-23T09:31:54Z</time>
      </trkpt>
      <trkpt lat="41.625203370" lon="2.461435040">
        <ele>405.00</ele>
        <time>2014-02-23T09:31:55Z</time>
      </trkpt>
      <trkpt lat="41.625200020" lon="2.461416770">
        <ele>405.20</ele>
        <time>2014-02-23T09:31:56Z</time>
      </trkpt>
      <trkpt lat="41.625195160" lon="2.461398330">
        <ele>405.50</ele>
        <time>2014-02-23T09:31:57Z</time>
      </trkpt>
      <trkpt lat="41.625191810" lon="2.461383410">
        <ele>405.60</ele>
        <time>2014-02-23T09:31:58Z</time>
      </trkpt>
      <trkpt lat="41.625191810" lon="2.461363460">
        <ele>405.90</ele>
        <time>2014-02-23T09:31:59Z</time>
      </trkpt>
      <trkpt lat="41.625190130" lon="2.461340160">
        <ele>406.20</ele>
        <time>2014-02-23T09:32:00Z</time>
      </trkpt>
      <trkpt lat="41.625190130" lon="2.461320050">
        <ele>406.40</ele>
        <time>2014-02-23T09:32:01Z</time>
      </trkpt>
      <trkpt lat="41.625190130" lon="2.461296740">
        <ele>406.60</ele>
        <time>2014-02-23T09:32:02Z</time>
      </trkpt>
      <trkpt lat="41.625193480" lon="2.461276790">
        <ele>406.80</ele>
        <time>2014-02-23T09:32:03Z</time>
      </trkpt>
      <trkpt lat="41.625195160" lon="2.461258350">
        <ele>407.40</ele>
        <time>2014-02-23T09:32:04Z</time>
      </trkpt>
      <trkpt lat="41.625195160" lon="2.461245110">
        <ele>407.90</ele>
        <time>2014-02-23T09:32:05Z</time>
      </trkpt>
      <trkpt lat="41.625196670" lon="2.461226670">
        <ele>408.00</ele>
        <time>2014-02-23T09:32:06Z</time>
      </trkpt>
      <trkpt lat="41.625196670" lon="2.461208400">
        <ele>408.10</ele>
        <time>2014-02-23T09:32:07Z</time>
      </trkpt>
      <trkpt lat="41.625195160" lon="2.461190130">
        <ele>408.20</ele>
        <time>2014-02-23T09:32:08Z</time>
      </trkpt>
      <trkpt lat="41.625193480" lon="2.461173360">
        <ele>408.70</ele>
        <time>2014-02-23T09:32:09Z</time>
      </trkpt>
      <trkpt lat="41.625190130" lon="2.461155090">
        <ele>409.10</ele>
        <time>2014-02-23T09:32:10Z</time>
      </trkpt>
      <trkpt lat="41.625186780" lon="2.461138490">
        <ele>409.20</ele>
        <time>2014-02-23T09:32:11Z</time>
      </trkpt>
      <trkpt lat="41.625185100" lon="2.461121730">
        <ele>409.40</ele>
        <time>2014-02-23T09:32:12Z</time>
      </trkpt>
      <trkpt lat="41.625186780" lon="2.461106810">
        <ele>409.80</ele>
        <time>2014-02-23T09:32:13Z</time>
      </trkpt>
      <trkpt lat="41.625186780" lon="2.461093400">
        <ele>410.10</ele>
        <time>2014-02-23T09:32:14Z</time>
      </trkpt>
      <trkpt lat="41.625185100" lon="2.461080150">
        <ele>410.40</ele>
        <time>2014-02-23T09:32:15Z</time>
      </trkpt>
      <trkpt lat="41.625181750" lon="2.461066740">
        <ele>410.40</ele>
        <time>2014-02-23T09:32:16Z</time>
      </trkpt>
      <trkpt lat="41.625180070" lon="2.461053330">
        <ele>410.50</ele>
        <time>2014-02-23T09:32:17Z</time>
      </trkpt>
      <trkpt lat="41.625178400" lon="2.461041770">
        <ele>410.90</ele>
        <time>2014-02-23T09:32:18Z</time>
      </trkpt>
      <trkpt lat="41.625178400" lon="2.461025000">
        <ele>411.20</ele>
        <time>2014-02-23T09:32:19Z</time>
      </trkpt>
      <trkpt lat="41.625178400" lon="2.461008410">
        <ele>411.60</ele>
        <time>2014-02-23T09:32:20Z</time>
      </trkpt>
      <trkpt lat="41.625175040" lon="2.460990130">
        <ele>411.90</ele>
        <time>2014-02-23T09:32:21Z</time>
      </trkpt>
      <trkpt lat="41.625171690" lon="2.460975050">
        <ele>412.10</ele>
        <time>2014-02-23T09:32:22Z</time>
      </trkpt>
      <trkpt lat="41.625168340" lon="2.460960130">
        <ele>412.30</ele>
        <time>2014-02-23T09:32:23Z</time>
      </trkpt>
      <trkpt lat="41.625166830" lon="2.460943360">
        <ele>412.50</ele>
        <time>2014-02-23T09:32:24Z</time>
      </trkpt>
      <trkpt lat="41.625163480" lon="2.460928440">
        <ele>412.70</ele>
        <time>2014-02-23T09:32:25Z</time>
      </trkpt>
      <trkpt lat="41.625160120" lon="2.460910000">
        <ele>412.80</ele>
        <time>2014-02-23T09:32:26Z</time>
      </trkpt>
      <trkpt lat="41.625160120" lon="2.460893410">
        <ele>412.90</ele>
        <time>2014-02-23T09:32:27Z</time>
      </trkpt>
      <trkpt lat="41.625158450" lon="2.460875130">
        <ele>413.30</ele>
        <time>2014-02-23T09:32:28Z</time>
      </trkpt>
      <trkpt lat="41.625150060" lon="2.460863400">
        <ele>413.60</ele>
        <time>2014-02-23T09:32:29Z</time>
      </trkpt>
      <trkpt lat="41.625138330" lon="2.460855020">
        <ele>413.50</ele>
        <time>2014-02-23T09:32:30Z</time>
      </trkpt>
      <trkpt lat="41.625128440" lon="2.460846800">
        <ele>413.40</ele>
        <time>2014-02-23T09:32:31Z</time>
      </trkpt>
      <trkpt lat="41.625121730" lon="2.460840100">
        <ele>413.10</ele>
        <time>2014-02-23T09:32:32Z</time>
      </trkpt>
      <trkpt lat="41.625111680" lon="2.460843450">
        <ele>413.00</ele>
        <time>2014-02-23T09:32:33Z</time>
      </trkpt>
      <trkpt lat="41.625105140" lon="2.460850160">
        <ele>412.80</ele>
        <time>2014-02-23T09:32:34Z</time>
      </trkpt>
      <trkpt lat="41.625095080" lon="2.460860050">
        <ele>413.10</ele>
        <time>2014-02-23T09:32:35Z</time>
      </trkpt>
      <trkpt lat="41.625086700" lon="2.460870100">
        <ele>413.30</ele>
        <time>2014-02-23T09:32:36Z</time>
      </trkpt>
      <trkpt lat="41.625080160" lon="2.460878490">
        <ele>413.60</ele>
        <time>2014-02-23T09:32:37Z</time>
      </trkpt>
      <trkpt lat="41.625073450" lon="2.460890050">
        <ele>413.90</ele>
        <time>2014-02-23T09:32:38Z</time>
      </trkpt>
      <trkpt lat="41.625070100" lon="2.460901790">
        <ele>414.30</ele>
        <time>2014-02-23T09:32:39Z</time>
      </trkpt>
      <trkpt lat="41.625065070" lon="2.460918380">
        <ele>414.60</ele>
        <time>2014-02-23T09:32:40Z</time>
      </trkpt>
      <trkpt lat="41.625058370" lon="2.460928440">
        <ele>414.80</ele>
        <time>2014-02-23T09:32:41Z</time>
      </trkpt>
      <trkpt lat="41.625051830" lon="2.460940010">
        <ele>414.90</ele>
        <time>2014-02-23T09:32:42Z</time>
      </trkpt>
      <trkpt lat="41.625046800" lon="2.460950070">
        <ele>415.00</ele>
        <time>2014-02-23T09:32:43Z</time>
      </trkpt>
      <trkpt lat="41.625041770" lon="2.460960130">
        <ele>415.30</ele>
        <time>2014-02-23T09:32:44Z</time>
      </trkpt>
      <trkpt lat="41.625038420" lon="2.460971690">
        <ele>415.50</ele>
        <time>2014-02-23T09:32:45Z</time>
      </trkpt>
      <trkpt lat="41.625033390" lon="2.460983430">
        <ele>415.50</ele>
        <time>2014-02-23T09:32:46Z</time>
      </trkpt>
      <trkpt lat="41.625026680" lon="2.460995160">
        <ele>415.50</ele>
        <time>2014-02-23T09:32:47Z</time>
      </trkpt>
      <trkpt lat="41.625023330" lon="2.461005050">
        <ele>415.50</ele>
        <time>2014-02-23T09:32:48Z</time>
      </trkpt>
      <trkpt lat="41.625018470" lon="2.461016790">
        <ele>415.70</ele>
        <time>2014-02-23T09:32:49Z</time>
      </trkpt>
      <trkpt lat="41.625015120" lon="2.461025000">
        <ele>415.90</ele>
        <time>2014-02-23T09:32:50Z</time>
      </trkpt>
      <trkpt lat="41.625010090" lon="2.461035060">
        <ele>416.00</ele>
        <time>2014-02-23T09:32:51Z</time>
      </trkpt>
      <trkpt lat="41.625005060" lon="2.461046800">
        <ele>416.00</ele>
        <time>2014-02-23T09:32:52Z</time>
      </trkpt>
      <trkpt lat="41.625001700" lon="2.461061710">
        <ele>416.00</ele>
        <time>2014-02-23T09:32:53Z</time>
      </trkpt>
      <trkpt lat="41.624995000" lon="2.461075130">
        <ele>416.10</ele>
        <time>2014-02-23T09:32:54Z</time>
      </trkpt>
      <trkpt lat="41.624988460" lon="2.461086690">
        <ele>416.20</ele>
        <time>2014-02-23T09:32:55Z</time>
      </trkpt>
      <trkpt lat="41.624981760" lon="2.461098430">
        <ele>416.40</ele>
        <time>2014-02-23T09:32:56Z</time>
      </trkpt>
      <trkpt lat="41.624973370" lon="2.461108490">
        <ele>416.50</ele>
        <time>2014-02-23T09:32:57Z</time>
      </trkpt>
      <trkpt lat="41.624965160" lon="2.461118380">
        <ele>416.90</ele>
        <time>2014-02-23T09:32:58Z</time>
      </trkpt>
      <trkpt lat="41.624956780" lon="2.461126760">
        <ele>417.30</ele>
        <time>2014-02-23T09:32:59Z</time>
      </trkpt>
      <trkpt lat="41.624948400" lon="2.461136820">
        <ele>417.50</ele>
        <time>2014-02-23T09:33:00Z</time>
      </trkpt>
      <trkpt lat="41.624941690" lon="2.461146710">
        <ele>418.10</ele>
        <time>2014-02-23T09:33:01Z</time>
      </trkpt>
      <trkpt lat="41.624935150" lon="2.461153410">
        <ele>418.60</ele>
        <time>2014-02-23T09:33:02Z</time>
      </trkpt>
      <trkpt lat="41.624926770" lon="2.461158440">
        <ele>418.50</ele>
        <time>2014-02-23T09:33:03Z</time>
      </trkpt>
      <trkpt lat="41.624918390" lon="2.461163470">
        <ele>418.40</ele>
        <time>2014-02-23T09:33:04Z</time>
      </trkpt>
      <trkpt lat="41.624910010" lon="2.461170010">
        <ele>418.40</ele>
        <time>2014-02-23T09:33:05Z</time>
      </trkpt>
      <trkpt lat="41.624901790" lon="2.461176710">
        <ele>418.40</ele>
        <time>2014-02-23T09:33:06Z</time>
      </trkpt>
      <trkpt lat="41.624891730" lon="2.461188450">
        <ele>418.40</ele>
        <time>2014-02-23T09:33:07Z</time>
      </trkpt>
      <trkpt lat="41.624883350" lon="2.461201690">
        <ele>418.80</ele>
        <time>2014-02-23T09:33:08Z</time>
      </trkpt>
      <trkpt lat="41.624873460" lon="2.461213430">
        <ele>419.00</ele>
        <time>2014-02-23T09:33:09Z</time>
      </trkpt>
      <trkpt lat="41.624866760" lon="2.461225160">
        <ele>419.10</ele>
        <time>2014-02-23T09:33:10Z</time>
      </trkpt>
      <trkpt lat="41.624858370" lon="2.461235050">
        <ele>419.20</ele>
        <time>2014-02-23T09:33:11Z</time>
      </trkpt>
      <trkpt lat="41.624850160" lon="2.461245110">
        <ele>419.30</ele>
        <time>2014-02-23T09:33:12Z</time>
      </trkpt>
      <trkpt lat="41.624841780" lon="2.461258350">
        <ele>419.80</ele>
        <time>2014-02-23T09:33:13Z</time>
      </trkpt>
      <trkpt lat="41.624835070" lon="2.461271770">
        <ele>420.20</ele>
        <time>2014-02-23T09:33:14Z</time>
      </trkpt>
      <trkpt lat="41.624826690" lon="2.461283330">
        <ele>420.60</ele>
        <time>2014-02-23T09:33:15Z</time>
      </trkpt>
      <trkpt lat="41.624820150" lon="2.461295070">
        <ele>420.80</ele>
        <time>2014-02-23T09:33:16Z</time>
      </trkpt>
      <trkpt lat="41.624810090" lon="2.461310150">
        <ele>420.90</ele>
        <time>2014-02-23T09:33:17Z</time>
      </trkpt>
      <trkpt lat="41.624803390" lon="2.461323400">
        <ele>420.90</ele>
        <time>2014-02-23T09:33:18Z</time>
      </trkpt>
      <trkpt lat="41.624796680" lon="2.461340160">
        <ele>421.00</ele>
        <time>2014-02-23T09:33:19Z</time>
      </trkpt>
      <trkpt lat="41.624793330" lon="2.461351730">
        <ele>421.40</ele>
        <time>2014-02-23T09:33:20Z</time>
      </trkpt>
      <trkpt lat="41.624786790" lon="2.461363460">
        <ele>421.70</ele>
        <time>2014-02-23T09:33:21Z</time>
      </trkpt>
      <trkpt lat="41.624780090" lon="2.461375030">
        <ele>421.90</ele>
        <time>2014-02-23T09:33:22Z</time>
      </trkpt>
      <trkpt lat="41.624773380" lon="2.461388440">
        <ele>422.00</ele>
        <time>2014-02-23T09:33:23Z</time>
      </trkpt>
      <trkpt lat="41.624765000" lon="2.461400010">
        <ele>422.10</ele>
        <time>2014-02-23T09:33:24Z</time>
      </trkpt>
      <trkpt lat="41.624755110" lon="2.461410070">
        <ele>422.20</ele>
        <time>2014-02-23T09:33:25Z</time>
      </trkpt>
      <trkpt lat="41.624746730" lon="2.461421800">
        <ele>422.30</ele>
        <time>2014-02-23T09:33:26Z</time>
      </trkpt>
      <trkpt lat="41.624740020" lon="2.461430020">
        <ele>422.40</ele>
        <time>2014-02-23T09:33:27Z</time>
      </trkpt>
      <trkpt lat="41.624735160" lon="2.461440070">
        <ele>422.50</ele>
        <time>2014-02-23T09:33:28Z</time>
      </trkpt>
      <trkpt lat="41.624726780" lon="2.461446780">
        <ele>423.20</ele>
        <time>2014-02-23T09:33:29Z</time>
      </trkpt>
      <trkpt lat="41.624716720" lon="2.461455160">
        <ele>423.70</ele>
        <time>2014-02-23T09:33:30Z</time>
      </trkpt>
      <trkpt lat="41.624706660" lon="2.461463380">
        <ele>424.20</ele>
        <time>2014-02-23T09:33:31Z</time>
      </trkpt>
      <trkpt lat="41.624695090" lon="2.461473430">
        <ele>424.40</ele>
        <time>2014-02-23T09:33:32Z</time>
      </trkpt>
      <trkpt lat="41.624685040" lon="2.461485000">
        <ele>424.70</ele>
        <time>2014-02-23T09:33:33Z</time>
      </trkpt>
      <trkpt lat="41.624676820" lon="2.461496740">
        <ele>424.70</ele>
        <time>2014-02-23T09:33:34Z</time>
      </trkpt>
      <trkpt lat="41.624668440" lon="2.461510150">
        <ele>424.70</ele>
        <time>2014-02-23T09:33:35Z</time>
      </trkpt>
      <trkpt lat="41.624660060" lon="2.461520040">
        <ele>424.90</ele>
        <time>2014-02-23T09:33:36Z</time>
      </trkpt>
      <trkpt lat="41.624651680" lon="2.461528420">
        <ele>425.10</ele>
        <time>2014-02-23T09:33:37Z</time>
      </trkpt>
      <trkpt lat="41.624650000" lon="2.461533450">
        <ele>425.20</ele>
        <time>2014-02-23T09:33:38Z</time>
      </trkpt>
      <trkpt lat="41.624648490" lon="2.461535120">
        <ele>424.90</ele>
        <time>2014-02-23T09:33:39Z</time>
      </trkpt>
      <trkpt lat="41.624646820" lon="2.461536800">
        <ele>424.70</ele>
        <time>2014-02-23T09:33:40Z</time>
      </trkpt>
      <trkpt lat="41.624646820" lon="2.461538480">
        <ele>424.60</ele>
        <time>2014-02-23T09:33:41Z</time>
      </trkpt>
      <trkpt lat="41.624645140" lon="2.461540150">
        <ele>424.50</ele>
        <time>2014-02-23T09:33:42Z</time>
      </trkpt>
      <trkpt lat="41.624643460" lon="2.461540150">
        <ele>424.50</ele>
        <time>2014-02-23T09:33:43Z</time>
      </trkpt>
      <trkpt lat="41.624641790" lon="2.461541660">
        <ele>424.50</ele>
        <time>2014-02-23T09:33:44Z</time>
      </trkpt>
      <trkpt lat="41.624640110" lon="2.461543340">
        <ele>424.50</ele>
        <time>2014-02-23T09:33:45Z</time>
      </trkpt>
      <trkpt lat="41.624638430" lon="2.461543340">
        <ele>424.50</ele>
        <time>2014-02-23T09:33:46Z</time>
      </trkpt>
      <trkpt lat="41.624638430" lon="2.461545020">
        <ele>424.40</ele>
        <time>2014-02-23T09:33:47Z</time>
      </trkpt>
      <trkpt lat="41.624636760" lon="2.461545020">
        <ele>424.30</ele>
        <time>2014-02-23T09:33:48Z</time>
      </trkpt>
      <trkpt lat="41.624635080" lon="2.461546690">
        <ele>424.30</ele>
        <time>2014-02-23T09:33:49Z</time>
      </trkpt>
      <trkpt lat="41.624635080" lon="2.461546690">
        <ele>424.20</ele>
        <time>2014-02-23T09:33:50Z</time>
      </trkpt>
      <trkpt lat="41.624635080" lon="2.461545020">
        <ele>424.50</ele>
        <time>2014-02-23T09:33:51Z</time>
      </trkpt>
      <trkpt lat="41.624633400" lon="2.461546690">
        <ele>424.60</ele>
        <time>2014-02-23T09:33:52Z</time>
      </trkpt>
      <trkpt lat="41.624631730" lon="2.461546690">
        <ele>424.40</ele>
        <time>2014-02-23T09:33:53Z</time>
      </trkpt>
      <trkpt lat="41.624631730" lon="2.461546690">
        <ele>424.20</ele>
        <time>2014-02-23T09:33:54Z</time>
      </trkpt>
      <trkpt lat="41.624630050" lon="2.461548370">
        <ele>424.20</ele>
        <time>2014-02-23T09:33:55Z</time>
      </trkpt>
      <trkpt lat="41.624628370" lon="2.461548370">
        <ele>424.10</ele>
        <time>2014-02-23T09:33:56Z</time>
      </trkpt>
      <trkpt lat="41.624628370" lon="2.461548370">
        <ele>424.10</ele>
        <time>2014-02-23T09:33:57Z</time>
      </trkpt>
      <trkpt lat="41.624626700" lon="2.461548370">
        <ele>424.00</ele>
        <time>2014-02-23T09:33:58Z</time>
      </trkpt>
      <trkpt lat="41.624625020" lon="2.461550040">
        <ele>423.90</ele>
        <time>2014-02-23T09:33:59Z</time>
      </trkpt>
      <trkpt lat="41.624625020" lon="2.461550040">
        <ele>423.90</ele>
        <time>2014-02-23T09:34:00Z</time>
      </trkpt>
      <trkpt lat="41.624623350" lon="2.461550040">
        <ele>424.00</ele>
        <time>2014-02-23T09:34:01Z</time>
      </trkpt>
      <trkpt lat="41.624621670" lon="2.461550040">
        <ele>424.30</ele>
        <time>2014-02-23T09:34:02Z</time>
      </trkpt>
      <trkpt lat="41.624621670" lon="2.461551720">
        <ele>424.50</ele>
        <time>2014-02-23T09:34:03Z</time>
      </trkpt>
      <trkpt lat="41.624620160" lon="2.461551720">
        <ele>424.60</ele>
        <time>2014-02-23T09:34:04Z</time>
      </trkpt>
      <trkpt lat="41.624618480" lon="2.461553400">
        <ele>424.80</ele>
        <time>2014-02-23T09:34:05Z</time>
      </trkpt>
      <trkpt lat="41.624616810" lon="2.461555070">
        <ele>424.90</ele>
        <time>2014-02-23T09:34:06Z</time>
      </trkpt>
      <trkpt lat="41.624615130" lon="2.461556750">
        <ele>425.00</ele>
        <time>2014-02-23T09:34:07Z</time>
      </trkpt>
      <trkpt lat="41.624615130" lon="2.461556750">
        <ele>425.20</ele>
        <time>2014-02-23T09:34:08Z</time>
      </trkpt>
      <trkpt lat="41.624613460" lon="2.461556750">
        <ele>425.20</ele>
        <time>2014-02-23T09:34:09Z</time>
      </trkpt>
      <trkpt lat="41.624611780" lon="2.461558430">
        <ele>424.80</ele>
        <time>2014-02-23T09:34:10Z</time>
      </trkpt>
      <trkpt lat="41.624610100" lon="2.461558430">
        <ele>424.50</ele>
        <time>2014-02-23T09:34:11Z</time>
      </trkpt>
      <trkpt lat="41.624610100" lon="2.461560100">
        <ele>424.40</ele>
        <time>2014-02-23T09:34:12Z</time>
      </trkpt>
      <trkpt lat="41.624608430" lon="2.461560100">
        <ele>424.40</ele>
        <time>2014-02-23T09:34:13Z</time>
      </trkpt>
      <trkpt lat="41.624605070" lon="2.461560100">
        <ele>424.60</ele>
        <time>2014-02-23T09:34:14Z</time>
      </trkpt>
      <trkpt lat="41.624595010" lon="2.461563460">
        <ele>424.80</ele>
        <time>2014-02-23T09:34:15Z</time>
      </trkpt>
      <trkpt lat="41.624585120" lon="2.461568480">
        <ele>424.90</ele>
        <time>2014-02-23T09:34:16Z</time>
      </trkpt>
      <trkpt lat="41.624575070" lon="2.461578380">
        <ele>424.80</ele>
        <time>2014-02-23T09:34:17Z</time>
      </trkpt>
      <trkpt lat="41.624561820" lon="2.461586760">
        <ele>424.70</ele>
        <time>2014-02-23T09:34:18Z</time>
      </trkpt>
      <trkpt lat="41.624550090" lon="2.461591790">
        <ele>424.70</ele>
        <time>2014-02-23T09:34:19Z</time>
      </trkpt>
      <trkpt lat="41.624536680" lon="2.461598490">
        <ele>424.70</ele>
        <time>2014-02-23T09:34:20Z</time>
      </trkpt>
      <trkpt lat="41.624521760" lon="2.461605030">
        <ele>424.30</ele>
        <time>2014-02-23T09:34:21Z</time>
      </trkpt>
      <trkpt lat="41.624508350" lon="2.461611740">
        <ele>424.00</ele>
        <time>2014-02-23T09:34:22Z</time>
      </trkpt>
      <trkpt lat="41.624495100" lon="2.461621790">
        <ele>423.80</ele>
        <time>2014-02-23T09:34:23Z</time>
      </trkpt>
      <trkpt lat="41.624478340" lon="2.461630010">
        <ele>423.80</ele>
        <time>2014-02-23T09:34:24Z</time>
      </trkpt>
      <trkpt lat="41.624465100" lon="2.461636710">
        <ele>423.90</ele>
        <time>2014-02-23T09:34:25Z</time>
      </trkpt>
      <trkpt lat="41.624450010" lon="2.461646770">
        <ele>423.90</ele>
        <time>2014-02-23T09:34:26Z</time>
      </trkpt>
      <trkpt lat="41.624433410" lon="2.461653480">
        <ele>423.90</ele>
        <time>2014-02-23T09:34:27Z</time>
      </trkpt>
      <trkpt lat="41.624418490" lon="2.461660020">
        <ele>423.90</ele>
        <time>2014-02-23T09:34:28Z</time>
      </trkpt>
      <trkpt lat="41.624401730" lon="2.461670070">
        <ele>424.00</ele>
        <time>2014-02-23T09:34:29Z</time>
      </trkpt>
      <trkpt lat="41.624386810" lon="2.461678460">
        <ele>424.20</ele>
        <time>2014-02-23T09:34:30Z</time>
      </trkpt>
      <trkpt lat="41.624370040" lon="2.461686670">
        <ele>424.60</ele>
        <time>2014-02-23T09:34:31Z</time>
      </trkpt>
      <trkpt lat="41.624355120" lon="2.461695050">
        <ele>424.80</ele>
        <time>2014-02-23T09:34:32Z</time>
      </trkpt>
      <trkpt lat="41.624338360" lon="2.461701760">
        <ele>425.10</ele>
        <time>2014-02-23T09:34:33Z</time>
      </trkpt>
      <trkpt lat="41.624320090" lon="2.461710140">
        <ele>425.20</ele>
        <time>2014-02-23T09:34:34Z</time>
      </trkpt>
      <trkpt lat="41.624305000" lon="2.461720030">
        <ele>425.30</ele>
        <time>2014-02-23T09:34:35Z</time>
      </trkpt>
      <trkpt lat="41.624291760" lon="2.461728410">
        <ele>425.40</ele>
        <time>2014-02-23T09:34:36Z</time>
      </trkpt>
      <trkpt lat="41.624276670" lon="2.461731760">
        <ele>425.50</ele>
        <time>2014-02-23T09:34:37Z</time>
      </trkpt>
      <trkpt lat="41.624261750" lon="2.461736790">
        <ele>425.50</ele>
        <time>2014-02-23T09:34:38Z</time>
      </trkpt>
      <trkpt lat="41.624245150" lon="2.461743330">
        <ele>425.50</ele>
        <time>2014-02-23T09:34:39Z</time>
      </trkpt>
      <trkpt lat="41.624223360" lon="2.461755070">
        <ele>425.40</ele>
        <time>2014-02-23T09:34:40Z</time>
      </trkpt>
      <trkpt lat="41.624206770" lon="2.461765120">
        <ele>425.30</ele>
        <time>2014-02-23T09:34:41Z</time>
      </trkpt>
      <trkpt lat="41.624190000" lon="2.461773340">
        <ele>425.20</ele>
        <time>2014-02-23T09:34:42Z</time>
      </trkpt>
      <trkpt lat="41.624173410" lon="2.461780040">
        <ele>425.60</ele>
        <time>2014-02-23T09:34:43Z</time>
      </trkpt>
      <trkpt lat="41.624156810" lon="2.461783400">
        <ele>425.90</ele>
        <time>2014-02-23T09:34:44Z</time>
      </trkpt>
      <trkpt lat="41.624140050" lon="2.461783400">
        <ele>426.20</ele>
        <time>2014-02-23T09:34:45Z</time>
      </trkpt>
      <trkpt lat="41.624125130" lon="2.461780040">
        <ele>426.50</ele>
        <time>2014-02-23T09:34:46Z</time>
      </trkpt>
      <trkpt lat="41.624108360" lon="2.461780040">
        <ele>426.60</ele>
        <time>2014-02-23T09:34:47Z</time>
      </trkpt>
      <trkpt lat="41.624093440" lon="2.461780040">
        <ele>426.70</ele>
        <time>2014-02-23T09:34:48Z</time>
      </trkpt>
      <trkpt lat="41.624078350" lon="2.461780040">
        <ele>426.80</ele>
        <time>2014-02-23T09:34:49Z</time>
      </trkpt>
      <trkpt lat="41.624065110" lon="2.461783400">
        <ele>427.10</ele>
        <time>2014-02-23T09:34:50Z</time>
      </trkpt>
      <trkpt lat="41.624050020" lon="2.461781720">
        <ele>427.40</ele>
        <time>2014-02-23T09:34:51Z</time>
      </trkpt>
      <trkpt lat="41.624036780" lon="2.461775010">
        <ele>427.90</ele>
        <time>2014-02-23T09:34:52Z</time>
      </trkpt>
      <trkpt lat="41.624021690" lon="2.461770150">
        <ele>428.30</ele>
        <time>2014-02-23T09:34:53Z</time>
      </trkpt>
      <trkpt lat="41.624008450" lon="2.461770150">
        <ele>428.60</ele>
        <time>2014-02-23T09:34:54Z</time>
      </trkpt>
      <trkpt lat="41.623996710" lon="2.461763450">
        <ele>429.00</ele>
        <time>2014-02-23T09:34:55Z</time>
      </trkpt>
      <trkpt lat="41.623985150" lon="2.461753390">
        <ele>429.40</ele>
        <time>2014-02-23T09:34:56Z</time>
      </trkpt>
      <trkpt lat="41.623975090" lon="2.461745010">
        <ele>429.60</ele>
        <time>2014-02-23T09:34:57Z</time>
      </trkpt>
      <trkpt lat="41.623970060" lon="2.461735120">
        <ele>429.70</ele>
        <time>2014-02-23T09:34:58Z</time>
      </trkpt>
      <trkpt lat="41.623963350" lon="2.461723380">
        <ele>429.70</ele>
        <time>2014-02-23T09:34:59Z</time>
      </trkpt>
      <trkpt lat="41.623958490" lon="2.461708460">
        <ele>429.70</ele>
        <time>2014-02-23T09:35:00Z</time>
      </trkpt>
      <trkpt lat="41.623953460" lon="2.461695050">
        <ele>429.70</ele>
        <time>2014-02-23T09:35:01Z</time>
      </trkpt>
      <trkpt lat="41.623948430" lon="2.461681810">
        <ele>429.80</ele>
        <time>2014-02-23T09:35:02Z</time>
      </trkpt>
      <trkpt lat="41.623943410" lon="2.461668400">
        <ele>429.90</ele>
        <time>2014-02-23T09:35:03Z</time>
      </trkpt>
      <trkpt lat="41.623938380" lon="2.461656660">
        <ele>430.00</ele>
        <time>2014-02-23T09:35:04Z</time>
      </trkpt>
      <trkpt lat="41.623933350" lon="2.461643420">
        <ele>430.10</ele>
        <time>2014-02-23T09:35:05Z</time>
      </trkpt>
      <trkpt lat="41.623931670" lon="2.461628330">
        <ele>430.60</ele>
        <time>2014-02-23T09:35:06Z</time>
      </trkpt>
      <trkpt lat="41.623928490" lon="2.461615090">
        <ele>431.10</ele>
        <time>2014-02-23T09:35:07Z</time>
      </trkpt>
      <trkpt lat="41.623926810" lon="2.461598490">
        <ele>431.40</ele>
        <time>2014-02-23T09:35:08Z</time>
      </trkpt>
      <trkpt lat="41.623925130" lon="2.461580050">
        <ele>431.50</ele>
        <time>2014-02-23T09:35:09Z</time>
      </trkpt>
      <trkpt lat="41.623921780" lon="2.461565130">
        <ele>431.50</ele>
        <time>2014-02-23T09:35:10Z</time>
      </trkpt>
      <trkpt lat="41.623916750" lon="2.461551720">
        <ele>431.90</ele>
        <time>2014-02-23T09:35:11Z</time>
      </trkpt>
      <trkpt lat="41.623913400" lon="2.461538480">
        <ele>432.10</ele>
        <time>2014-02-23T09:35:12Z</time>
      </trkpt>
      <trkpt lat="41.623905020" lon="2.461526740">
        <ele>432.30</ele>
        <time>2014-02-23T09:35:13Z</time>
      </trkpt>
      <trkpt lat="41.623898480" lon="2.461515010">
        <ele>432.70</ele>
        <time>2014-02-23T09:35:14Z</time>
      </trkpt>
      <trkpt lat="41.623890100" lon="2.461505120">
        <ele>432.90</ele>
        <time>2014-02-23T09:35:15Z</time>
      </trkpt>
      <trkpt lat="41.623878360" lon="2.461495060">
        <ele>433.10</ele>
        <time>2014-02-23T09:35:16Z</time>
      </trkpt>
      <trkpt lat="41.623866800" lon="2.461486680">
        <ele>433.20</ele>
        <time>2014-02-23T09:35:17Z</time>
      </trkpt>
      <trkpt lat="41.623855060" lon="2.461481820">
        <ele>433.20</ele>
        <time>2014-02-23T09:35:18Z</time>
      </trkpt>
      <trkpt lat="41.623843490" lon="2.461475110">
        <ele>433.20</ele>
        <time>2014-02-23T09:35:19Z</time>
      </trkpt>
      <trkpt lat="41.623831760" lon="2.461468400">
        <ele>433.20</ele>
        <time>2014-02-23T09:35:20Z</time>
      </trkpt>
      <trkpt lat="41.623818350" lon="2.461463380">
        <ele>433.40</ele>
        <time>2014-02-23T09:35:21Z</time>
      </trkpt>
      <trkpt lat="41.623805100" lon="2.461456670">
        <ele>433.60</ele>
        <time>2014-02-23T09:35:22Z</time>
      </trkpt>
      <trkpt lat="41.623791690" lon="2.461450130">
        <ele>433.70</ele>
        <time>2014-02-23T09:35:23Z</time>
      </trkpt>
      <trkpt lat="41.623776770" lon="2.461446780">
        <ele>433.80</ele>
        <time>2014-02-23T09:35:24Z</time>
      </trkpt>
      <trkpt lat="41.623760010" lon="2.461443430">
        <ele>434.00</ele>
        <time>2014-02-23T09:35:25Z</time>
      </trkpt>
      <trkpt lat="41.623743410" lon="2.461441750">
        <ele>434.10</ele>
        <time>2014-02-23T09:35:26Z</time>
      </trkpt>
      <trkpt lat="41.623728490" lon="2.461438400">
        <ele>434.20</ele>
        <time>2014-02-23T09:35:27Z</time>
      </trkpt>
      <trkpt lat="41.623713410" lon="2.461436720">
        <ele>434.60</ele>
        <time>2014-02-23T09:35:28Z</time>
      </trkpt>
      <trkpt lat="41.623698490" lon="2.461435040">
        <ele>434.90</ele>
        <time>2014-02-23T09:35:29Z</time>
      </trkpt>
      <trkpt lat="41.623681720" lon="2.461435040">
        <ele>434.90</ele>
        <time>2014-02-23T09:35:30Z</time>
      </trkpt>
      <trkpt lat="41.623668480" lon="2.461435040">
        <ele>434.90</ele>
        <time>2014-02-23T09:35:31Z</time>
      </trkpt>
      <trkpt lat="41.623655070" lon="2.461431690">
        <ele>434.90</ele>
        <time>2014-02-23T09:35:32Z</time>
      </trkpt>
      <trkpt lat="41.623641820" lon="2.461428340">
        <ele>435.00</ele>
        <time>2014-02-23T09:35:33Z</time>
      </trkpt>
      <trkpt lat="41.623626740" lon="2.461423480">
        <ele>435.00</ele>
        <time>2014-02-23T09:35:34Z</time>
      </trkpt>
      <trkpt lat="41.623613490" lon="2.461416770">
        <ele>435.40</ele>
        <time>2014-02-23T09:35:35Z</time>
      </trkpt>
      <trkpt lat="41.623600080" lon="2.461408390">
        <ele>435.70</ele>
        <time>2014-02-23T09:35:36Z</time>
      </trkpt>
      <trkpt lat="41.623586670" lon="2.461401680">
        <ele>435.80</ele>
        <time>2014-02-23T09:35:37Z</time>
      </trkpt>
      <trkpt lat="41.623578460" lon="2.461396820">
        <ele>435.80</ele>
        <time>2014-02-23T09:35:38Z</time>
      </trkpt>
      <trkpt lat="41.623566720" lon="2.461390120">
        <ele>435.90</ele>
        <time>2014-02-23T09:35:39Z</time>
      </trkpt>
      <trkpt lat="41.623553480" lon="2.461385090">
        <ele>435.60</ele>
        <time>2014-02-23T09:35:40Z</time>
      </trkpt>
      <trkpt lat="41.623540070" lon="2.461375030">
        <ele>435.30</ele>
        <time>2014-02-23T09:35:41Z</time>
      </trkpt>
      <trkpt lat="41.623526830" lon="2.461366820">
        <ele>435.70</ele>
        <time>2014-02-23T09:35:42Z</time>
      </trkpt>
      <trkpt lat="41.623515090" lon="2.461360110">
        <ele>435.90</ele>
        <time>2014-02-23T09:35:43Z</time>
      </trkpt>
      <trkpt lat="41.623500000" lon="2.461355080">
        <ele>436.40</ele>
        <time>2014-02-23T09:35:44Z</time>
      </trkpt>
      <trkpt lat="41.623486760" lon="2.461350050">
        <ele>436.70</ele>
        <time>2014-02-23T09:35:45Z</time>
      </trkpt>
      <trkpt lat="41.623473350" lon="2.461341670">
        <ele>436.90</ele>
        <time>2014-02-23T09:35:46Z</time>
      </trkpt>
      <trkpt lat="41.623461780" lon="2.461333460">
        <ele>437.20</ele>
        <time>2014-02-23T09:35:47Z</time>
      </trkpt>
      <trkpt lat="41.623446690" lon="2.461330100">
        <ele>437.40</ele>
        <time>2014-02-23T09:35:48Z</time>
      </trkpt>
      <trkpt lat="41.623433450" lon="2.461323400">
        <ele>437.30</ele>
        <time>2014-02-23T09:35:49Z</time>
      </trkpt>
      <trkpt lat="41.623418360" lon="2.461316690">
        <ele>437.20</ele>
        <time>2014-02-23T09:35:50Z</time>
      </trkpt>
      <trkpt lat="41.623405120" lon="2.461308480">
        <ele>437.10</ele>
        <time>2014-02-23T09:35:51Z</time>
      </trkpt>
      <trkpt lat="41.623393390" lon="2.461298420">
        <ele>437.00</ele>
        <time>2014-02-23T09:35:52Z</time>
      </trkpt>
      <trkpt lat="41.623376790" lon="2.461286690">
        <ele>436.80</ele>
        <time>2014-02-23T09:35:53Z</time>
      </trkpt>
      <trkpt lat="41.623361700" lon="2.461276790">
        <ele>437.20</ele>
        <time>2014-02-23T09:35:54Z</time>
      </trkpt>
      <trkpt lat="41.623346780" lon="2.461268410">
        <ele>437.40</ele>
        <time>2014-02-23T09:35:55Z</time>
      </trkpt>
      <trkpt lat="41.623333370" lon="2.461260030">
        <ele>437.20</ele>
        <time>2014-02-23T09:35:56Z</time>
      </trkpt>
      <trkpt lat="41.623320130" lon="2.461248460">
        <ele>437.10</ele>
        <time>2014-02-23T09:35:57Z</time>
      </trkpt>
      <trkpt lat="41.623305040" lon="2.461233380">
        <ele>437.00</ele>
        <time>2014-02-23T09:35:58Z</time>
      </trkpt>
      <trkpt lat="41.623293470" lon="2.461221810">
        <ele>437.30</ele>
        <time>2014-02-23T09:35:59Z</time>
      </trkpt>
      <trkpt lat="41.623283410" lon="2.461210070">
        <ele>437.50</ele>
        <time>2014-02-23T09:36:00Z</time>
      </trkpt>
      <trkpt lat="41.623273360" lon="2.461196660">
        <ele>437.90</ele>
        <time>2014-02-23T09:36:01Z</time>
      </trkpt>
      <trkpt lat="41.623263470" lon="2.461180070">
        <ele>438.10</ele>
        <time>2014-02-23T09:36:02Z</time>
      </trkpt>
      <trkpt lat="41.623258440" lon="2.461160120">
        <ele>438.20</ele>
        <time>2014-02-23T09:36:03Z</time>
      </trkpt>
      <trkpt lat="41.623253410" lon="2.461143350">
        <ele>438.30</ele>
        <time>2014-02-23T09:36:04Z</time>
      </trkpt>
      <trkpt lat="41.623245030" lon="2.461126760">
        <ele>438.40</ele>
        <time>2014-02-23T09:36:05Z</time>
      </trkpt>
      <trkpt lat="41.623235130" lon="2.461105130">
        <ele>438.50</ele>
        <time>2014-02-23T09:36:06Z</time>
      </trkpt>
      <trkpt lat="41.623228430" lon="2.461090050">
        <ele>438.60</ele>
        <time>2014-02-23T09:36:07Z</time>
      </trkpt>
      <trkpt lat="41.623223400" lon="2.461076800">
        <ele>438.50</ele>
        <time>2014-02-23T09:36:08Z</time>
      </trkpt>
      <trkpt lat="41.623220050" lon="2.461060040">
        <ele>438.50</ele>
        <time>2014-02-23T09:36:09Z</time>
      </trkpt>
      <trkpt lat="41.623216690" lon="2.461046800">
        <ele>438.40</ele>
        <time>2014-02-23T09:36:10Z</time>
      </trkpt>
      <trkpt lat="41.623213340" lon="2.461033380">
        <ele>438.40</ele>
        <time>2014-02-23T09:36:11Z</time>
      </trkpt>
      <trkpt lat="41.623206800" lon="2.461021820">
        <ele>438.30</ele>
        <time>2014-02-23T09:36:12Z</time>
      </trkpt>
      <trkpt lat="41.623201780" lon="2.461003380">
        <ele>439.10</ele>
        <time>2014-02-23T09:36:13Z</time>
      </trkpt>
      <trkpt lat="41.623195070" lon="2.460993490">
        <ele>439.60</ele>
        <time>2014-02-23T09:36:14Z</time>
      </trkpt>
      <trkpt lat="41.623188360" lon="2.460978400">
        <ele>439.50</ele>
        <time>2014-02-23T09:36:15Z</time>
      </trkpt>
      <trkpt lat="41.623181830" lon="2.460966660">
        <ele>439.40</ele>
        <time>2014-02-23T09:36:16Z</time>
      </trkpt>
      <trkpt lat="41.623171770" lon="2.460953420">
        <ele>439.30</ele>
        <time>2014-02-23T09:36:17Z</time>
      </trkpt>
      <trkpt lat="41.623163390" lon="2.460936820">
        <ele>439.80</ele>
        <time>2014-02-23T09:36:18Z</time>
      </trkpt>
      <trkpt lat="41.623151820" lon="2.460921740">
        <ele>440.20</ele>
        <time>2014-02-23T09:36:19Z</time>
      </trkpt>
      <trkpt lat="41.623140080" lon="2.460905140">
        <ele>440.50</ele>
        <time>2014-02-23T09:36:20Z</time>
      </trkpt>
      <trkpt lat="41.623128350" lon="2.460890050">
        <ele>440.70</ele>
        <time>2014-02-23T09:36:21Z</time>
      </trkpt>
      <trkpt lat="41.623116780" lon="2.460873460">
        <ele>440.50</ele>
        <time>2014-02-23T09:36:22Z</time>
      </trkpt>
      <trkpt lat="41.623106720" lon="2.460856690">
        <ele>440.40</ele>
        <time>2014-02-23T09:36:23Z</time>
      </trkpt>
      <trkpt lat="41.623096670" lon="2.460841770">
        <ele>440.30</ele>
        <time>2014-02-23T09:36:24Z</time>
      </trkpt>
      <trkpt lat="41.623083420" lon="2.460821820">
        <ele>440.60</ele>
        <time>2014-02-23T09:36:25Z</time>
      </trkpt>
      <trkpt lat="41.623073360" lon="2.460803380">
        <ele>440.90</ele>
        <time>2014-02-23T09:36:26Z</time>
      </trkpt>
      <trkpt lat="41.623061800" lon="2.460786790">
        <ele>441.00</ele>
        <time>2014-02-23T09:36:27Z</time>
      </trkpt>
      <trkpt lat="41.623051740" lon="2.460766670">
        <ele>441.10</ele>
        <time>2014-02-23T09:36:28Z</time>
      </trkpt>
      <trkpt lat="41.623041680" lon="2.460753430">
        <ele>441.10</ele>
        <time>2014-02-23T09:36:29Z</time>
      </trkpt>
      <trkpt lat="41.623030110" lon="2.460740020">
        <ele>441.50</ele>
        <time>2014-02-23T09:36:30Z</time>
      </trkpt>
      <trkpt lat="41.623018380" lon="2.460726770">
        <ele>441.70</ele>
        <time>2014-02-23T09:36:31Z</time>
      </trkpt>
      <trkpt lat="41.623003460" lon="2.460715040">
        <ele>441.90</ele>
        <time>2014-02-23T09:36:32Z</time>
      </trkpt>
      <trkpt lat="41.622991720" lon="2.460701800">
        <ele>442.10</ele>
        <time>2014-02-23T09:36:33Z</time>
      </trkpt>
      <trkpt lat="41.622975130" lon="2.460686710">
        <ele>442.00</ele>
        <time>2014-02-23T09:36:34Z</time>
      </trkpt>
      <trkpt lat="41.622960040" lon="2.460673470">
        <ele>441.80</ele>
        <time>2014-02-23T09:36:35Z</time>
      </trkpt>
      <trkpt lat="41.622943440" lon="2.460658380">
        <ele>441.70</ele>
        <time>2014-02-23T09:36:36Z</time>
      </trkpt>
      <trkpt lat="41.622931710" lon="2.460641780">
        <ele>441.80</ele>
        <time>2014-02-23T09:36:37Z</time>
      </trkpt>
      <trkpt lat="41.622920140" lon="2.460625020">
        <ele>441.90</ele>
        <time>2014-02-23T09:36:38Z</time>
      </trkpt>
      <trkpt lat="41.622905060" lon="2.460610100">
        <ele>442.50</ele>
        <time>2014-02-23T09:36:39Z</time>
      </trkpt>
      <trkpt lat="41.622890140" lon="2.460598360">
        <ele>442.90</ele>
        <time>2014-02-23T09:36:40Z</time>
      </trkpt>
      <trkpt lat="41.622873370" lon="2.460586800">
        <ele>443.30</ele>
        <time>2014-02-23T09:36:41Z</time>
      </trkpt>
      <trkpt lat="41.622858450" lon="2.460578410">
        <ele>443.70</ele>
        <time>2014-02-23T09:36:42Z</time>
      </trkpt>
      <trkpt lat="41.622836830" lon="2.460570030">
        <ele>444.00</ele>
        <time>2014-02-23T09:36:43Z</time>
      </trkpt>
      <trkpt lat="41.622818390" lon="2.460563490">
        <ele>444.30</ele>
        <time>2014-02-23T09:36:44Z</time>
      </trkpt>
      <trkpt lat="41.622801790" lon="2.460555110">
        <ele>444.50</ele>
        <time>2014-02-23T09:36:45Z</time>
      </trkpt>
      <trkpt lat="41.622783350" lon="2.460545050">
        <ele>444.60</ele>
        <time>2014-02-23T09:36:46Z</time>
      </trkpt>
      <trkpt lat="41.622765080" lon="2.460541700">
        <ele>444.70</ele>
        <time>2014-02-23T09:36:47Z</time>
      </trkpt>
      <trkpt lat="41.622746810" lon="2.460538350">
        <ele>444.80</ele>
        <time>2014-02-23T09:36:48Z</time>
      </trkpt>
      <trkpt lat="41.622730040" lon="2.460533490">
        <ele>445.00</ele>
        <time>2014-02-23T09:36:49Z</time>
      </trkpt>
      <trkpt lat="41.622715120" lon="2.460530130">
        <ele>445.10</ele>
        <time>2014-02-23T09:36:50Z</time>
      </trkpt>
      <trkpt lat="41.622700030" lon="2.460525110">
        <ele>445.50</ele>
        <time>2014-02-23T09:36:51Z</time>
      </trkpt>
      <trkpt lat="41.622683440" lon="2.460518400">
        <ele>445.80</ele>
        <time>2014-02-23T09:36:52Z</time>
      </trkpt>
      <trkpt lat="41.622666670" lon="2.460513370">
        <ele>445.90</ele>
        <time>2014-02-23T09:36:53Z</time>
      </trkpt>
      <trkpt lat="41.622650080" lon="2.460510020">
        <ele>446.00</ele>
        <time>2014-02-23T09:36:54Z</time>
      </trkpt>
      <trkpt lat="41.622633480" lon="2.460505160">
        <ele>446.10</ele>
        <time>2014-02-23T09:36:55Z</time>
      </trkpt>
      <trkpt lat="41.622618390" lon="2.460505160">
        <ele>446.30</ele>
        <time>2014-02-23T09:36:56Z</time>
      </trkpt>
      <trkpt lat="41.622605150" lon="2.460501800">
        <ele>446.50</ele>
        <time>2014-02-23T09:36:57Z</time>
      </trkpt>
      <trkpt lat="41.622591740" lon="2.460495100">
        <ele>446.60</ele>
        <time>2014-02-23T09:36:58Z</time>
      </trkpt>
      <trkpt lat="41.622576820" lon="2.460488390">
        <ele>446.60</ele>
        <time>2014-02-23T09:36:59Z</time>
      </trkpt>
      <trkpt lat="41.622563410" lon="2.460478330">
        <ele>446.70</ele>
        <time>2014-02-23T09:37:00Z</time>
      </trkpt>
      <trkpt lat="41.622546810" lon="2.460468440">
        <ele>446.70</ele>
        <time>2014-02-23T09:37:01Z</time>
      </trkpt>
      <trkpt lat="41.622530050" lon="2.460458390">
        <ele>446.70</ele>
        <time>2014-02-23T09:37:02Z</time>
      </trkpt>
      <trkpt lat="41.622515130" lon="2.460450000">
        <ele>446.60</ele>
        <time>2014-02-23T09:37:03Z</time>
      </trkpt>
      <trkpt lat="41.622501720" lon="2.460440110">
        <ele>446.50</ele>
        <time>2014-02-23T09:37:04Z</time>
      </trkpt>
      <trkpt lat="41.622490150" lon="2.460431730">
        <ele>446.30</ele>
        <time>2014-02-23T09:37:05Z</time>
      </trkpt>
      <trkpt lat="41.622476740" lon="2.460423350">
        <ele>446.20</ele>
        <time>2014-02-23T09:37:06Z</time>
      </trkpt>
      <trkpt lat="41.622463330" lon="2.460415130">
        <ele>446.10</ele>
        <time>2014-02-23T09:37:07Z</time>
      </trkpt>
      <trkpt lat="41.622451760" lon="2.460405080">
        <ele>446.30</ele>
        <time>2014-02-23T09:37:08Z</time>
      </trkpt>
      <trkpt lat="41.622436670" lon="2.460395020">
        <ele>446.40</ele>
        <time>2014-02-23T09:37:09Z</time>
      </trkpt>
      <trkpt lat="41.622421760" lon="2.460383450">
        <ele>446.50</ele>
        <time>2014-02-23T09:37:10Z</time>
      </trkpt>
      <trkpt lat="41.622408340" lon="2.460373390">
        <ele>446.50</ele>
        <time>2014-02-23T09:37:11Z</time>
      </trkpt>
      <trkpt lat="41.622393420" lon="2.460361830">
        <ele>446.90</ele>
        <time>2014-02-23T09:37:12Z</time>
      </trkpt>
      <trkpt lat="41.622380010" lon="2.460355120">
        <ele>447.10</ele>
        <time>2014-02-23T09:37:13Z</time>
      </trkpt>
      <trkpt lat="41.622365090" lon="2.460348410">
        <ele>447.30</ele>
        <time>2014-02-23T09:37:14Z</time>
      </trkpt>
      <trkpt lat="41.622350010" lon="2.460343390">
        <ele>447.60</ele>
        <time>2014-02-23T09:37:15Z</time>
      </trkpt>
      <trkpt lat="41.622335090" lon="2.460340030">
        <ele>447.90</ele>
        <time>2014-02-23T09:37:16Z</time>
      </trkpt>
      <trkpt lat="41.622320000" lon="2.460338360">
        <ele>448.10</ele>
        <time>2014-02-23T09:37:17Z</time>
      </trkpt>
      <trkpt lat="41.622306760" lon="2.460335000">
        <ele>448.30</ele>
        <time>2014-02-23T09:37:18Z</time>
      </trkpt>
      <trkpt lat="41.622293340" lon="2.460331820">
        <ele>448.30</ele>
        <time>2014-02-23T09:37:19Z</time>
      </trkpt>
      <trkpt lat="41.622280100" lon="2.460326790">
        <ele>448.20</ele>
        <time>2014-02-23T09:37:20Z</time>
      </trkpt>
      <trkpt lat="41.622260150" lon="2.460313380">
        <ele>448.20</ele>
        <time>2014-02-23T09:37:21Z</time>
      </trkpt>
      <trkpt lat="41.622240040" lon="2.460296780">
        <ele>448.50</ele>
        <time>2014-02-23T09:37:22Z</time>
      </trkpt>
      <trkpt lat="41.622225120" lon="2.460286720">
        <ele>448.80</ele>
        <time>2014-02-23T09:37:23Z</time>
      </trkpt>
      <trkpt lat="41.622213380" lon="2.460280020">
        <ele>449.10</ele>
        <time>2014-02-23T09:37:24Z</time>
      </trkpt>
      <trkpt lat="41.622201810" lon="2.460276670">
        <ele>449.30</ele>
        <time>2014-02-23T09:37:25Z</time>
      </trkpt>
      <trkpt lat="41.622186730" lon="2.460276670">
        <ele>449.50</ele>
        <time>2014-02-23T09:37:26Z</time>
      </trkpt>
      <trkpt lat="41.622170130" lon="2.460278340">
        <ele>449.70</ele>
        <time>2014-02-23T09:37:27Z</time>
      </trkpt>
      <trkpt lat="41.622155040" lon="2.460280020">
        <ele>449.90</ele>
        <time>2014-02-23T09:37:28Z</time>
      </trkpt>
      <trkpt lat="41.622138450" lon="2.460286720">
        <ele>449.90</ele>
        <time>2014-02-23T09:37:29Z</time>
      </trkpt>
      <trkpt lat="41.622121680" lon="2.460295110">
        <ele>449.90</ele>
        <time>2014-02-23T09:37:30Z</time>
      </trkpt>
      <trkpt lat="41.622105090" lon="2.460301810">
        <ele>449.60</ele>
        <time>2014-02-23T09:37:31Z</time>
      </trkpt>
      <trkpt lat="41.622090000" lon="2.460311700">
        <ele>449.40</ele>
        <time>2014-02-23T09:37:32Z</time>
      </trkpt>
      <trkpt lat="41.622075080" lon="2.460318410">
        <ele>449.20</ele>
        <time>2014-02-23T09:37:33Z</time>
      </trkpt>
      <trkpt lat="41.622061670" lon="2.460323440">
        <ele>449.30</ele>
        <time>2014-02-23T09:37:34Z</time>
      </trkpt>
      <trkpt lat="41.622045070" lon="2.460331820">
        <ele>449.40</ele>
        <time>2014-02-23T09:37:35Z</time>
      </trkpt>
      <trkpt lat="41.622030150" lon="2.460336680">
        <ele>449.70</ele>
        <time>2014-02-23T09:37:36Z</time>
      </trkpt>
      <trkpt lat="41.622013390" lon="2.460345060">
        <ele>449.90</ele>
        <time>2014-02-23T09:37:37Z</time>
      </trkpt>
      <trkpt lat="41.621998470" lon="2.460351770">
        <ele>449.80</ele>
        <time>2014-02-23T09:37:38Z</time>
      </trkpt>
      <trkpt lat="41.621983380" lon="2.460356800">
        <ele>449.80</ele>
        <time>2014-02-23T09:37:39Z</time>
      </trkpt>
      <trkpt lat="41.621970140" lon="2.460363330">
        <ele>449.70</ele>
        <time>2014-02-23T09:37:40Z</time>
      </trkpt>
      <trkpt lat="41.621956730" lon="2.460371720">
        <ele>450.20</ele>
        <time>2014-02-23T09:37:41Z</time>
      </trkpt>
      <trkpt lat="41.621941810" lon="2.460381770">
        <ele>450.60</ele>
        <time>2014-02-23T09:37:42Z</time>
      </trkpt>
      <trkpt lat="41.621928400" lon="2.460388480">
        <ele>451.10</ele>
        <time>2014-02-23T09:37:43Z</time>
      </trkpt>
      <trkpt lat="41.621915150" lon="2.460396690">
        <ele>451.50</ele>
        <time>2014-02-23T09:37:44Z</time>
      </trkpt>
      <trkpt lat="41.621900070" lon="2.460401720">
        <ele>451.80</ele>
        <time>2014-02-23T09:37:45Z</time>
      </trkpt>
      <trkpt lat="41.621888330" lon="2.460408430">
        <ele>452.30</ele>
        <time>2014-02-23T09:37:46Z</time>
      </trkpt>
      <trkpt lat="41.621873410" lon="2.460415130">
        <ele>452.70</ele>
        <time>2014-02-23T09:37:47Z</time>
      </trkpt>
      <trkpt lat="41.621860000" lon="2.460425030">
        <ele>452.60</ele>
        <time>2014-02-23T09:37:48Z</time>
      </trkpt>
      <trkpt lat="41.621846760" lon="2.460431730">
        <ele>452.50</ele>
        <time>2014-02-23T09:37:49Z</time>
      </trkpt>
      <trkpt lat="41.621833350" lon="2.460440110">
        <ele>453.00</ele>
        <time>2014-02-23T09:37:50Z</time>
      </trkpt>
      <trkpt lat="41.621818430" lon="2.460448490">
        <ele>453.40</ele>
        <time>2014-02-23T09:37:51Z</time>
      </trkpt>
      <trkpt lat="41.621805010" lon="2.460453360">
        <ele>453.70</ele>
        <time>2014-02-23T09:37:52Z</time>
      </trkpt>
      <trkpt lat="41.621790090" lon="2.460460060">
        <ele>453.70</ele>
        <time>2014-02-23T09:37:53Z</time>
      </trkpt>
      <trkpt lat="41.621773330" lon="2.460468440">
        <ele>453.70</ele>
        <time>2014-02-23T09:37:54Z</time>
      </trkpt>
      <trkpt lat="41.621756730" lon="2.460478330">
        <ele>453.60</ele>
        <time>2014-02-23T09:37:55Z</time>
      </trkpt>
      <trkpt lat="41.621745000" lon="2.460486720">
        <ele>453.60</ele>
        <time>2014-02-23T09:37:56Z</time>
      </trkpt>
      <trkpt lat="41.621733430" lon="2.460493420">
        <ele>453.80</ele>
        <time>2014-02-23T09:37:57Z</time>
      </trkpt>
      <trkpt lat="41.621721700" lon="2.460498450">
        <ele>453.90</ele>
        <time>2014-02-23T09:37:58Z</time>
      </trkpt>
      <trkpt lat="41.621710130" lon="2.460503480">
        <ele>454.00</ele>
        <time>2014-02-23T09:37:59Z</time>
      </trkpt>
      <trkpt lat="41.621698400" lon="2.460508340">
        <ele>454.20</ele>
        <time>2014-02-23T09:38:00Z</time>
      </trkpt>
      <trkpt lat="41.621685150" lon="2.460515050">
        <ele>454.40</ele>
        <time>2014-02-23T09:38:01Z</time>
      </trkpt>
      <trkpt lat="41.621670070" lon="2.460521750">
        <ele>454.70</ele>
        <time>2014-02-23T09:38:02Z</time>
      </trkpt>
      <trkpt lat="41.621656820" lon="2.460528460">
        <ele>455.00</ele>
        <time>2014-02-23T09:38:03Z</time>
      </trkpt>
      <trkpt lat="41.621643410" lon="2.460535000">
        <ele>455.10</ele>
        <time>2014-02-23T09:38:04Z</time>
      </trkpt>
      <trkpt lat="41.621631680" lon="2.460543380">
        <ele>455.10</ele>
        <time>2014-02-23T09:38:05Z</time>
      </trkpt>
      <trkpt lat="41.621618430" lon="2.460550080">
        <ele>455.20</ele>
        <time>2014-02-23T09:38:06Z</time>
      </trkpt>
      <trkpt lat="41.621605020" lon="2.460551760">
        <ele>455.10</ele>
        <time>2014-02-23T09:38:07Z</time>
      </trkpt>
      <trkpt lat="41.621591780" lon="2.460556790">
        <ele>455.00</ele>
        <time>2014-02-23T09:38:08Z</time>
      </trkpt>
      <trkpt lat="41.621578370" lon="2.460563490">
        <ele>455.20</ele>
        <time>2014-02-23T09:38:09Z</time>
      </trkpt>
      <trkpt lat="41.621565120" lon="2.460566680">
        <ele>455.30</ele>
        <time>2014-02-23T09:38:10Z</time>
      </trkpt>
      <trkpt lat="41.621551710" lon="2.460568360">
        <ele>455.30</ele>
        <time>2014-02-23T09:38:11Z</time>
      </trkpt>
      <trkpt lat="41.621538470" lon="2.460573390">
        <ele>455.50</ele>
        <time>2014-02-23T09:38:12Z</time>
      </trkpt>
      <trkpt lat="41.621523380" lon="2.460575060">
        <ele>455.60</ele>
        <time>2014-02-23T09:38:13Z</time>
      </trkpt>
      <trkpt lat="41.621508460" lon="2.460576740">
        <ele>456.00</ele>
        <time>2014-02-23T09:38:14Z</time>
      </trkpt>
      <trkpt lat="41.621491700" lon="2.460581770">
        <ele>456.30</ele>
        <time>2014-02-23T09:38:15Z</time>
      </trkpt>
      <trkpt lat="41.621476780" lon="2.460586800">
        <ele>456.60</ele>
        <time>2014-02-23T09:38:16Z</time>
      </trkpt>
      <trkpt lat="41.621461690" lon="2.460593330">
        <ele>456.80</ele>
        <time>2014-02-23T09:38:17Z</time>
      </trkpt>
      <trkpt lat="41.621448450" lon="2.460600040">
        <ele>456.90</ele>
        <time>2014-02-23T09:38:18Z</time>
      </trkpt>
      <trkpt lat="41.621435040" lon="2.460606750">
        <ele>457.00</ele>
        <time>2014-02-23T09:38:19Z</time>
      </trkpt>
      <trkpt lat="41.621423470" lon="2.460613450">
        <ele>457.00</ele>
        <time>2014-02-23T09:38:20Z</time>
      </trkpt>
      <trkpt lat="41.621408380" lon="2.460618480">
        <ele>457.30</ele>
        <time>2014-02-23T09:38:21Z</time>
      </trkpt>
      <trkpt lat="41.621393460" lon="2.460623340">
        <ele>457.50</ele>
        <time>2014-02-23T09:38:22Z</time>
      </trkpt>
      <trkpt lat="41.621378380" lon="2.460630050">
        <ele>457.80</ele>
        <time>2014-02-23T09:38:23Z</time>
      </trkpt>
      <trkpt lat="41.621361780" lon="2.460631720">
        <ele>458.00</ele>
        <time>2014-02-23T09:38:24Z</time>
      </trkpt>
      <trkpt lat="41.621348370" lon="2.460633400">
        <ele>458.20</ele>
        <time>2014-02-23T09:38:25Z</time>
      </trkpt>
      <trkpt lat="41.621335130" lon="2.460638430">
        <ele>458.40</ele>
        <time>2014-02-23T09:38:26Z</time>
      </trkpt>
      <trkpt lat="41.621321710" lon="2.460645130">
        <ele>458.50</ele>
        <time>2014-02-23T09:38:27Z</time>
      </trkpt>
      <trkpt lat="41.621310150" lon="2.460655020">
        <ele>459.00</ele>
        <time>2014-02-23T09:38:28Z</time>
      </trkpt>
      <trkpt lat="41.621298410" lon="2.460665080">
        <ele>459.30</ele>
        <time>2014-02-23T09:38:29Z</time>
      </trkpt>
      <trkpt lat="41.621285000" lon="2.460675140">
        <ele>459.60</ele>
        <time>2014-02-23T09:38:30Z</time>
      </trkpt>
      <trkpt lat="41.621273430" lon="2.460688380">
        <ele>459.60</ele>
        <time>2014-02-23T09:38:31Z</time>
      </trkpt>
      <trkpt lat="41.621263380" lon="2.460700120">
        <ele>459.70</ele>
        <time>2014-02-23T09:38:32Z</time>
      </trkpt>
      <trkpt lat="41.621253490" lon="2.460713360">
        <ele>459.80</ele>
        <time>2014-02-23T09:38:33Z</time>
      </trkpt>
      <trkpt lat="41.621243430" lon="2.460726770">
        <ele>459.80</ele>
        <time>2014-02-23T09:38:34Z</time>
      </trkpt>
      <trkpt lat="41.621233370" lon="2.460740020">
        <ele>460.00</ele>
        <time>2014-02-23T09:38:35Z</time>
      </trkpt>
      <trkpt lat="41.621221800" lon="2.460753430">
        <ele>460.10</ele>
        <time>2014-02-23T09:38:36Z</time>
      </trkpt>
      <trkpt lat="41.621210070" lon="2.460763490">
        <ele>460.20</ele>
        <time>2014-02-23T09:38:37Z</time>
      </trkpt>
      <trkpt lat="41.621203360" lon="2.460776730">
        <ele>460.70</ele>
        <time>2014-02-23T09:38:38Z</time>
      </trkpt>
      <trkpt lat="41.621195150" lon="2.460790140">
        <ele>461.20</ele>
        <time>2014-02-23T09:38:39Z</time>
      </trkpt>
      <trkpt lat="41.621186770" lon="2.460800030">
        <ele>461.20</ele>
        <time>2014-02-23T09:38:40Z</time>
      </trkpt>
      <trkpt lat="41.621178380" lon="2.460811770">
        <ele>461.20</ele>
        <time>2014-02-23T09:38:41Z</time>
      </trkpt>
      <trkpt lat="41.621168490" lon="2.460825010">
        <ele>461.40</ele>
        <time>2014-02-23T09:38:42Z</time>
      </trkpt>
      <trkpt lat="41.621158430" lon="2.460836740">
        <ele>461.60</ele>
        <time>2014-02-23T09:38:43Z</time>
      </trkpt>
      <trkpt lat="41.621150050" lon="2.460845130">
        <ele>461.80</ele>
        <time>2014-02-23T09:38:44Z</time>
      </trkpt>
      <trkpt lat="41.621141670" lon="2.460855020">
        <ele>462.30</ele>
        <time>2014-02-23T09:38:45Z</time>
      </trkpt>
      <trkpt lat="41.621130100" lon="2.460863400">
        <ele>462.60</ele>
        <time>2014-02-23T09:38:46Z</time>
      </trkpt>
      <trkpt lat="41.621116690" lon="2.460865080">
        <ele>462.60</ele>
        <time>2014-02-23T09:38:47Z</time>
      </trkpt>
      <trkpt lat="41.621105130" lon="2.460861720">
        <ele>462.60</ele>
        <time>2014-02-23T09:38:48Z</time>
      </trkpt>
      <trkpt lat="41.621091710" lon="2.460856690">
        <ele>462.50</ele>
        <time>2014-02-23T09:38:49Z</time>
      </trkpt>
      <trkpt lat="41.621081820" lon="2.460850160">
        <ele>462.80</ele>
        <time>2014-02-23T09:38:50Z</time>
      </trkpt>
      <trkpt lat="41.621076790" lon="2.460838420">
        <ele>463.00</ele>
        <time>2014-02-23T09:38:51Z</time>
      </trkpt>
      <trkpt lat="41.621076790" lon="2.460825010">
        <ele>463.30</ele>
        <time>2014-02-23T09:38:52Z</time>
      </trkpt>
      <trkpt lat="41.621076790" lon="2.460811770">
        <ele>463.50</ele>
        <time>2014-02-23T09:38:53Z</time>
      </trkpt>
      <trkpt lat="41.621080150" lon="2.460798360">
        <ele>464.10</ele>
        <time>2014-02-23T09:38:54Z</time>
      </trkpt>
      <trkpt lat="41.621085010" lon="2.460785110">
        <ele>464.60</ele>
        <time>2014-02-23T09:38:55Z</time>
      </trkpt>
      <trkpt lat="41.621091710" lon="2.460771700">
        <ele>465.00</ele>
        <time>2014-02-23T09:38:56Z</time>
      </trkpt>
      <trkpt lat="41.621098420" lon="2.460758460">
        <ele>465.10</ele>
        <time>2014-02-23T09:38:57Z</time>
      </trkpt>
      <trkpt lat="41.621105130" lon="2.460748400">
        <ele>465.20</ele>
        <time>2014-02-23T09:38:58Z</time>
      </trkpt>
      <trkpt lat="41.621111660" lon="2.460740020">
        <ele>465.20</ele>
        <time>2014-02-23T09:38:59Z</time>
      </trkpt>
      <trkpt lat="41.621118370" lon="2.460728450">
        <ele>465.10</ele>
        <time>2014-02-23T09:39:00Z</time>
      </trkpt>
      <trkpt lat="41.621125070" lon="2.460716720">
        <ele>465.10</ele>
        <time>2014-02-23T09:39:01Z</time>
      </trkpt>
      <trkpt lat="41.621133460" lon="2.460705150">
        <ele>465.20</ele>
        <time>2014-02-23T09:39:02Z</time>
      </trkpt>
      <trkpt lat="41.621138490" lon="2.460690060">
        <ele>465.30</ele>
        <time>2014-02-23T09:39:03Z</time>
      </trkpt>
      <trkpt lat="41.621143350" lon="2.460673470">
        <ele>465.30</ele>
        <time>2014-02-23T09:39:04Z</time>
      </trkpt>
      <trkpt lat="41.621150050" lon="2.460660050">
        <ele>465.30</ele>
        <time>2014-02-23T09:39:05Z</time>
      </trkpt>
      <trkpt lat="41.621156760" lon="2.460646810">
        <ele>465.40</ele>
        <time>2014-02-23T09:39:06Z</time>
      </trkpt>
      <trkpt lat="41.621163460" lon="2.460633400">
        <ele>465.50</ele>
        <time>2014-02-23T09:39:07Z</time>
      </trkpt>
      <trkpt lat="41.621170000" lon="2.460618480">
        <ele>465.50</ele>
        <time>2014-02-23T09:39:08Z</time>
      </trkpt>
      <trkpt lat="41.621176710" lon="2.460603390">
        <ele>465.50</ele>
        <time>2014-02-23T09:39:09Z</time>
      </trkpt>
      <trkpt lat="41.621183410" lon="2.460588470">
        <ele>465.40</ele>
        <time>2014-02-23T09:39:10Z</time>
      </trkpt>
      <trkpt lat="41.621188440" lon="2.460573390">
        <ele>465.80</ele>
        <time>2014-02-23T09:39:11Z</time>
      </trkpt>
      <trkpt lat="41.621193470" lon="2.460556790">
        <ele>466.10</ele>
        <time>2014-02-23T09:39:12Z</time>
      </trkpt>
      <trkpt lat="41.621198330" lon="2.460540030">
        <ele>466.30</ele>
        <time>2014-02-23T09:39:13Z</time>
      </trkpt>
      <trkpt lat="41.621205040" lon="2.460523430">
        <ele>466.50</ele>
        <time>2014-02-23T09:39:14Z</time>
      </trkpt>
      <trkpt lat="41.621213420" lon="2.460510020">
        <ele>466.60</ele>
        <time>2014-02-23T09:39:15Z</time>
      </trkpt>
      <trkpt lat="41.621221800" lon="2.460498450">
        <ele>466.50</ele>
        <time>2014-02-23T09:39:16Z</time>
      </trkpt>
      <trkpt lat="41.621228340" lon="2.460486720">
        <ele>466.40</ele>
        <time>2014-02-23T09:39:17Z</time>
      </trkpt>
      <trkpt lat="41.621233370" lon="2.460473470">
        <ele>466.60</ele>
        <time>2014-02-23T09:39:18Z</time>
      </trkpt>
      <trkpt lat="41.621240070" lon="2.460458390">
        <ele>466.70</ele>
        <time>2014-02-23T09:39:19Z</time>
      </trkpt>
      <trkpt lat="41.621246780" lon="2.460440110">
        <ele>467.00</ele>
        <time>2014-02-23T09:39:20Z</time>
      </trkpt>
      <trkpt lat="41.621253490" lon="2.460425030">
        <ele>467.20</ele>
        <time>2014-02-23T09:39:21Z</time>
      </trkpt>
      <trkpt lat="41.621260020" lon="2.460410110">
        <ele>467.30</ele>
        <time>2014-02-23T09:39:22Z</time>
      </trkpt>
      <trkpt lat="41.621265050" lon="2.460396690">
        <ele>467.70</ele>
        <time>2014-02-23T09:39:23Z</time>
      </trkpt>
      <trkpt lat="41.621273430" lon="2.460383450">
        <ele>467.90</ele>
        <time>2014-02-23T09:39:24Z</time>
      </trkpt>
      <trkpt lat="41.621280140" lon="2.460368360">
        <ele>467.80</ele>
        <time>2014-02-23T09:39:25Z</time>
      </trkpt>
      <trkpt lat="41.621286680" lon="2.460355120">
        <ele>467.80</ele>
        <time>2014-02-23T09:39:26Z</time>
      </trkpt>
      <trkpt lat="41.621291710" lon="2.460341710">
        <ele>467.70</ele>
        <time>2014-02-23T09:39:27Z</time>
      </trkpt>
      <trkpt lat="41.621296740" lon="2.460325110">
        <ele>468.10</ele>
        <time>2014-02-23T09:39:28Z</time>
      </trkpt>
      <trkpt lat="41.621301770" lon="2.460311700">
        <ele>468.40</ele>
        <time>2014-02-23T09:39:29Z</time>
      </trkpt>
      <trkpt lat="41.621308470" lon="2.460291750">
        <ele>468.40</ele>
        <time>2014-02-23T09:39:30Z</time>
      </trkpt>
      <trkpt lat="41.621315010" lon="2.460275160">
        <ele>468.40</ele>
        <time>2014-02-23T09:39:31Z</time>
      </trkpt>
      <trkpt lat="41.621320040" lon="2.460256720">
        <ele>468.50</ele>
        <time>2014-02-23T09:39:32Z</time>
      </trkpt>
      <trkpt lat="41.621325070" lon="2.460238440">
        <ele>468.60</ele>
        <time>2014-02-23T09:39:33Z</time>
      </trkpt>
      <trkpt lat="41.621330100" lon="2.460223360">
        <ele>468.60</ele>
        <time>2014-02-23T09:39:34Z</time>
      </trkpt>
      <trkpt lat="41.621336800" lon="2.460210110">
        <ele>468.90</ele>
        <time>2014-02-23T09:39:35Z</time>
      </trkpt>
      <trkpt lat="41.621343340" lon="2.460193350">
        <ele>469.20</ele>
        <time>2014-02-23T09:39:36Z</time>
      </trkpt>
      <trkpt lat="41.621346690" lon="2.460178430">
        <ele>469.30</ele>
        <time>2014-02-23T09:39:37Z</time>
      </trkpt>
      <trkpt lat="41.621350040" lon="2.460160160">
        <ele>469.30</ele>
        <time>2014-02-23T09:39:38Z</time>
      </trkpt>
      <trkpt lat="41.621353400" lon="2.460143390">
        <ele>469.80</ele>
        <time>2014-02-23T09:39:39Z</time>
      </trkpt>
      <trkpt lat="41.621356750" lon="2.460128470">
        <ele>470.20</ele>
        <time>2014-02-23T09:39:40Z</time>
      </trkpt>
      <trkpt lat="41.621360100" lon="2.460110030">
        <ele>470.50</ele>
        <time>2014-02-23T09:39:41Z</time>
      </trkpt>
      <trkpt lat="41.621363460" lon="2.460093440">
        <ele>470.70</ele>
        <time>2014-02-23T09:39:42Z</time>
      </trkpt>
      <trkpt lat="41.621366810" lon="2.460075000">
        <ele>470.90</ele>
        <time>2014-02-23T09:39:43Z</time>
      </trkpt>
      <trkpt lat="41.621368490" lon="2.460056720">
        <ele>470.70</ele>
        <time>2014-02-23T09:39:44Z</time>
      </trkpt>
      <trkpt lat="41.621368490" lon="2.460035100">
        <ele>470.60</ele>
        <time>2014-02-23T09:39:45Z</time>
      </trkpt>
      <trkpt lat="41.621368490" lon="2.460015150">
        <ele>470.50</ele>
        <time>2014-02-23T09:39:46Z</time>
      </trkpt>
      <trkpt lat="41.621368490" lon="2.459998390">
        <ele>470.40</ele>
        <time>2014-02-23T09:39:47Z</time>
      </trkpt>
      <trkpt lat="41.621373350" lon="2.459985140">
        <ele>470.40</ele>
        <time>2014-02-23T09:39:48Z</time>
      </trkpt>
      <trkpt lat="41.621375020" lon="2.459965030">
        <ele>471.10</ele>
        <time>2014-02-23T09:39:49Z</time>
      </trkpt>
      <trkpt lat="41.621376700" lon="2.459946750">
        <ele>471.60</ele>
        <time>2014-02-23T09:39:50Z</time>
      </trkpt>
      <trkpt lat="41.621380050" lon="2.459928480">
        <ele>471.70</ele>
        <time>2014-02-23T09:39:51Z</time>
      </trkpt>
      <trkpt lat="41.621381730" lon="2.459908360">
        <ele>471.90</ele>
        <time>2014-02-23T09:39:52Z</time>
      </trkpt>
      <trkpt lat="41.621381730" lon="2.459888420">
        <ele>472.00</ele>
        <time>2014-02-23T09:39:53Z</time>
      </trkpt>
      <trkpt lat="41.621381730" lon="2.459870140">
        <ele>472.40</ele>
        <time>2014-02-23T09:39:54Z</time>
      </trkpt>
      <trkpt lat="41.621381730" lon="2.459851700">
        <ele>472.80</ele>
        <time>2014-02-23T09:39:55Z</time>
      </trkpt>
      <trkpt lat="41.621383400" lon="2.459833430">
        <ele>473.10</ele>
        <time>2014-02-23T09:39:56Z</time>
      </trkpt>
      <trkpt lat="41.621383400" lon="2.459816670">
        <ele>473.40</ele>
        <time>2014-02-23T09:39:57Z</time>
      </trkpt>
      <trkpt lat="41.621383400" lon="2.459798390">
        <ele>473.60</ele>
        <time>2014-02-23T09:39:58Z</time>
      </trkpt>
      <trkpt lat="41.621385080" lon="2.459778450">
        <ele>473.80</ele>
        <time>2014-02-23T09:39:59Z</time>
      </trkpt>
      <trkpt lat="41.621386760" lon="2.459761680">
        <ele>473.90</ele>
        <time>2014-02-23T09:40:00Z</time>
      </trkpt>
      <trkpt lat="41.621390110" lon="2.459743410">
        <ele>474.10</ele>
        <time>2014-02-23T09:40:01Z</time>
      </trkpt>
      <trkpt lat="41.621390110" lon="2.459726810">
        <ele>474.30</ele>
        <time>2014-02-23T09:40:02Z</time>
      </trkpt>
      <trkpt lat="41.621390110" lon="2.459710050">
        <ele>474.80</ele>
        <time>2014-02-23T09:40:03Z</time>
      </trkpt>
      <trkpt lat="41.621391790" lon="2.459693450">
        <ele>475.20</ele>
        <time>2014-02-23T09:40:04Z</time>
      </trkpt>
      <trkpt lat="41.621391790" lon="2.459676690">
        <ele>475.40</ele>
        <time>2014-02-23T09:40:05Z</time>
      </trkpt>
      <trkpt lat="41.621393460" lon="2.459660090">
        <ele>475.00</ele>
        <time>2014-02-23T09:40:06Z</time>
      </trkpt>
      <trkpt lat="41.621393460" lon="2.459643330">
        <ele>474.70</ele>
        <time>2014-02-23T09:40:07Z</time>
      </trkpt>
      <trkpt lat="41.621395140" lon="2.459628410">
        <ele>474.80</ele>
        <time>2014-02-23T09:40:08Z</time>
      </trkpt>
      <trkpt lat="41.621393460" lon="2.459613490">
        <ele>474.90</ele>
        <time>2014-02-23T09:40:09Z</time>
      </trkpt>
      <trkpt lat="41.621391790" lon="2.459596730">
        <ele>475.10</ele>
        <time>2014-02-23T09:40:10Z</time>
      </trkpt>
      <trkpt lat="41.621391790" lon="2.459580130">
        <ele>475.40</ele>
        <time>2014-02-23T09:40:11Z</time>
      </trkpt>
      <trkpt lat="41.621395140" lon="2.459563370">
        <ele>475.50</ele>
        <time>2014-02-23T09:40:12Z</time>
      </trkpt>
      <trkpt lat="41.621395140" lon="2.459545090">
        <ele>475.70</ele>
        <time>2014-02-23T09:40:13Z</time>
      </trkpt>
      <trkpt lat="41.621395140" lon="2.459526820">
        <ele>475.90</ele>
        <time>2014-02-23T09:40:14Z</time>
      </trkpt>
      <trkpt lat="41.621395140" lon="2.459508380">
        <ele>476.40</ele>
        <time>2014-02-23T09:40:15Z</time>
      </trkpt>
      <trkpt lat="41.621393460" lon="2.459493460">
        <ele>476.70</ele>
        <time>2014-02-23T09:40:16Z</time>
      </trkpt>
      <trkpt lat="41.621390110" lon="2.459475020">
        <ele>477.20</ele>
        <time>2014-02-23T09:40:17Z</time>
      </trkpt>
      <trkpt lat="41.621388430" lon="2.459458420">
        <ele>477.50</ele>
        <time>2014-02-23T09:40:18Z</time>
      </trkpt>
      <trkpt lat="41.621386760" lon="2.459443340">
        <ele>477.80</ele>
        <time>2014-02-23T09:40:19Z</time>
      </trkpt>
      <trkpt lat="41.621385080" lon="2.459426740">
        <ele>477.80</ele>
        <time>2014-02-23T09:40:20Z</time>
      </trkpt>
      <trkpt lat="41.621381730" lon="2.459410140">
        <ele>477.90</ele>
        <time>2014-02-23T09:40:21Z</time>
      </trkpt>
      <trkpt lat="41.621378380" lon="2.459391700">
        <ele>477.60</ele>
        <time>2014-02-23T09:40:22Z</time>
      </trkpt>
      <trkpt lat="41.621375020" lon="2.459376780">
        <ele>477.50</ele>
        <time>2014-02-23T09:40:23Z</time>
      </trkpt>
      <trkpt lat="41.621373350" lon="2.459361700">
        <ele>477.40</ele>
        <time>2014-02-23T09:40:24Z</time>
      </trkpt>
      <trkpt lat="41.621370160" lon="2.459345100">
        <ele>477.40</ele>
        <time>2014-02-23T09:40:25Z</time>
      </trkpt>
      <trkpt lat="41.621368490" lon="2.459326830">
        <ele>477.50</ele>
        <time>2014-02-23T09:40:26Z</time>
      </trkpt>
      <trkpt lat="41.621363460" lon="2.459308390">
        <ele>477.70</ele>
        <time>2014-02-23T09:40:27Z</time>
      </trkpt>
      <trkpt lat="41.621360100" lon="2.459288440">
        <ele>477.80</ele>
        <time>2014-02-23T09:40:28Z</time>
      </trkpt>
      <trkpt lat="41.621358430" lon="2.459268490">
        <ele>478.10</ele>
        <time>2014-02-23T09:40:29Z</time>
      </trkpt>
      <trkpt lat="41.621355070" lon="2.459251730">
        <ele>478.40</ele>
        <time>2014-02-23T09:40:30Z</time>
      </trkpt>
      <trkpt lat="41.621351720" lon="2.459233450">
        <ele>478.60</ele>
        <time>2014-02-23T09:40:31Z</time>
      </trkpt>
      <trkpt lat="41.621346690" lon="2.459216690">
        <ele>478.20</ele>
        <time>2014-02-23T09:40:32Z</time>
      </trkpt>
      <trkpt lat="41.621343340" lon="2.459198420">
        <ele>477.90</ele>
        <time>2014-02-23T09:40:33Z</time>
      </trkpt>
      <trkpt lat="41.621341660" lon="2.459180150">
        <ele>478.50</ele>
        <time>2014-02-23T09:40:34Z</time>
      </trkpt>
      <trkpt lat="41.621336800" lon="2.459161700">
        <ele>478.90</ele>
        <time>2014-02-23T09:40:35Z</time>
      </trkpt>
      <trkpt lat="41.621333450" lon="2.459143430">
        <ele>479.30</ele>
        <time>2014-02-23T09:40:36Z</time>
      </trkpt>
      <trkpt lat="41.621331770" lon="2.459125160">
        <ele>479.60</ele>
        <time>2014-02-23T09:40:37Z</time>
      </trkpt>
      <trkpt lat="41.621331770" lon="2.459108400">
        <ele>479.90</ele>
        <time>2014-02-23T09:40:38Z</time>
      </trkpt>
      <trkpt lat="41.621330100" lon="2.459090120">
        <ele>480.00</ele>
        <time>2014-02-23T09:40:39Z</time>
      </trkpt>
      <trkpt lat="41.621328420" lon="2.459068330">
        <ele>480.10</ele>
        <time>2014-02-23T09:40:40Z</time>
      </trkpt>
      <trkpt lat="41.621326740" lon="2.459050060">
        <ele>480.50</ele>
        <time>2014-02-23T09:40:41Z</time>
      </trkpt>
      <trkpt lat="41.621325070" lon="2.459033460">
        <ele>480.70</ele>
        <time>2014-02-23T09:40:42Z</time>
      </trkpt>
      <trkpt lat="41.621321710" lon="2.459015020">
        <ele>480.90</ele>
        <time>2014-02-23T09:40:43Z</time>
      </trkpt>
      <trkpt lat="41.621318360" lon="2.458998430">
        <ele>481.00</ele>
        <time>2014-02-23T09:40:44Z</time>
      </trkpt>
      <trkpt lat="41.621320040" lon="2.458978480">
        <ele>481.00</ele>
        <time>2014-02-23T09:40:45Z</time>
      </trkpt>
      <trkpt lat="41.621316680" lon="2.458960040">
        <ele>481.30</ele>
        <time>2014-02-23T09:40:46Z</time>
      </trkpt>
      <trkpt lat="41.621315010" lon="2.458941760">
        <ele>481.40</ele>
        <time>2014-02-23T09:40:47Z</time>
      </trkpt>
      <trkpt lat="41.621311820" lon="2.458923490">
        <ele>482.00</ele>
        <time>2014-02-23T09:40:48Z</time>
      </trkpt>
      <trkpt lat="41.621313330" lon="2.458903370">
        <ele>482.50</ele>
        <time>2014-02-23T09:40:49Z</time>
      </trkpt>
      <trkpt lat="41.621316680" lon="2.458883430">
        <ele>482.90</ele>
        <time>2014-02-23T09:40:50Z</time>
      </trkpt>
      <trkpt lat="41.621318360" lon="2.458866660">
        <ele>482.80</ele>
        <time>2014-02-23T09:40:51Z</time>
      </trkpt>
      <trkpt lat="41.621321710" lon="2.458848390">
        <ele>482.80</ele>
        <time>2014-02-23T09:40:52Z</time>
      </trkpt>
      <trkpt lat="41.621323390" lon="2.458831790">
        <ele>483.00</ele>
        <time>2014-02-23T09:40:53Z</time>
      </trkpt>
      <trkpt lat="41.621328420" lon="2.458813350">
        <ele>483.20</ele>
        <time>2014-02-23T09:40:54Z</time>
      </trkpt>
      <trkpt lat="41.621333450" lon="2.458793400">
        <ele>483.30</ele>
        <time>2014-02-23T09:40:55Z</time>
      </trkpt>
      <trkpt lat="41.621336800" lon="2.458773460">
        <ele>483.50</ele>
        <time>2014-02-23T09:40:56Z</time>
      </trkpt>
      <trkpt lat="41.621343340" lon="2.458756690">
        <ele>483.60</ele>
        <time>2014-02-23T09:40:57Z</time>
      </trkpt>
      <trkpt lat="41.621348370" lon="2.458736740">
        <ele>484.10</ele>
        <time>2014-02-23T09:40:58Z</time>
      </trkpt>
      <trkpt lat="41.621351720" lon="2.458716790">
        <ele>484.50</ele>
        <time>2014-02-23T09:40:59Z</time>
      </trkpt>
      <trkpt lat="41.621353400" lon="2.458696680">
        <ele>484.50</ele>
        <time>2014-02-23T09:41:00Z</time>
      </trkpt>
      <trkpt lat="41.621356750" lon="2.458676730">
        <ele>484.50</ele>
        <time>2014-02-23T09:41:01Z</time>
      </trkpt>
      <trkpt lat="41.621358430" lon="2.458658460">
        <ele>484.50</ele>
        <time>2014-02-23T09:41:02Z</time>
      </trkpt>
      <trkpt lat="41.621360100" lon="2.458640020">
        <ele>484.50</ele>
        <time>2014-02-23T09:41:03Z</time>
      </trkpt>
      <trkpt lat="41.621360100" lon="2.458623420">
        <ele>484.60</ele>
        <time>2014-02-23T09:41:04Z</time>
      </trkpt>
      <trkpt lat="41.621361780" lon="2.458608330">
        <ele>484.80</ele>
        <time>2014-02-23T09:41:05Z</time>
      </trkpt>
      <trkpt lat="41.621361780" lon="2.458590060">
        <ele>484.90</ele>
        <time>2014-02-23T09:41:06Z</time>
      </trkpt>
      <trkpt lat="41.621361780" lon="2.458576820">
        <ele>485.10</ele>
        <time>2014-02-23T09:41:07Z</time>
      </trkpt>
      <trkpt lat="41.621361780" lon="2.458560050">
        <ele>485.30</ele>
        <time>2014-02-23T09:41:08Z</time>
      </trkpt>
      <trkpt lat="41.621361780" lon="2.458541780">
        <ele>485.40</ele>
        <time>2014-02-23T09:41:09Z</time>
      </trkpt>
      <trkpt lat="41.621361780" lon="2.458521660">
        <ele>485.10</ele>
        <time>2014-02-23T09:41:10Z</time>
      </trkpt>
      <trkpt lat="41.621363460" lon="2.458503390">
        <ele>484.80</ele>
        <time>2014-02-23T09:41:11Z</time>
      </trkpt>
      <trkpt lat="41.621363460" lon="2.458481770">
        <ele>484.90</ele>
        <time>2014-02-23T09:41:12Z</time>
      </trkpt>
      <trkpt lat="41.621363460" lon="2.458460140">
        <ele>484.90</ele>
        <time>2014-02-23T09:41:13Z</time>
      </trkpt>
      <trkpt lat="41.621366810" lon="2.458440020">
        <ele>485.70</ele>
        <time>2014-02-23T09:41:14Z</time>
      </trkpt>
      <trkpt lat="41.621370160" lon="2.458420070">
        <ele>486.30</ele>
        <time>2014-02-23T09:41:15Z</time>
      </trkpt>
      <trkpt lat="41.621375020" lon="2.458398450">
        <ele>486.70</ele>
        <time>2014-02-23T09:41:16Z</time>
      </trkpt>
      <trkpt lat="41.621380050" lon="2.458378330">
        <ele>486.70</ele>
        <time>2014-02-23T09:41:17Z</time>
      </trkpt>
      <trkpt lat="41.621386760" lon="2.458358380">
        <ele>486.60</ele>
        <time>2014-02-23T09:41:18Z</time>
      </trkpt>
      <trkpt lat="41.621388430" lon="2.458341790">
        <ele>486.70</ele>
        <time>2014-02-23T09:41:19Z</time>
      </trkpt>
      <trkpt lat="41.621393460" lon="2.458321670">
        <ele>486.80</ele>
        <time>2014-02-23T09:41:20Z</time>
      </trkpt>
      <trkpt lat="41.621398490" lon="2.458305070">
        <ele>486.80</ele>
        <time>2014-02-23T09:41:21Z</time>
      </trkpt>
      <trkpt lat="41.621406710" lon="2.458288480">
        <ele>486.80</ele>
        <time>2014-02-23T09:41:22Z</time>
      </trkpt>
      <trkpt lat="41.621415090" lon="2.458271710">
        <ele>486.80</ele>
        <time>2014-02-23T09:41:23Z</time>
      </trkpt>
      <trkpt lat="41.621423470" lon="2.458258470">
        <ele>487.10</ele>
        <time>2014-02-23T09:41:24Z</time>
      </trkpt>
      <trkpt lat="41.621435040" lon="2.458246740">
        <ele>487.30</ele>
        <time>2014-02-23T09:41:25Z</time>
      </trkpt>
      <trkpt lat="41.621448450" lon="2.458238350">
        <ele>487.50</ele>
        <time>2014-02-23T09:41:26Z</time>
      </trkpt>
      <trkpt lat="41.621461690" lon="2.458230140">
        <ele>487.60</ele>
        <time>2014-02-23T09:41:27Z</time>
      </trkpt>
      <trkpt lat="41.621476780" lon="2.458223430">
        <ele>487.70</ele>
        <time>2014-02-23T09:41:28Z</time>
      </trkpt>
      <trkpt lat="41.621488350" lon="2.458218410">
        <ele>487.50</ele>
        <time>2014-02-23T09:41:29Z</time>
      </trkpt>
      <trkpt lat="41.621501760" lon="2.458206670">
        <ele>487.40</ele>
        <time>2014-02-23T09:41:30Z</time>
      </trkpt>
      <trkpt lat="41.621518350" lon="2.458205160">
        <ele>487.70</ele>
        <time>2014-02-23T09:41:31Z</time>
      </trkpt>
      <trkpt lat="41.621533440" lon="2.458201810">
        <ele>488.00</ele>
        <time>2014-02-23T09:41:32Z</time>
      </trkpt>
      <trkpt lat="41.621548360" lon="2.458198460">
        <ele>487.90</ele>
        <time>2014-02-23T09:41:33Z</time>
      </trkpt>
      <trkpt lat="41.621561770" lon="2.458195100">
        <ele>487.70</ele>
        <time>2014-02-23T09:41:34Z</time>
      </trkpt>
      <trkpt lat="41.621576690" lon="2.458191750">
        <ele>487.60</ele>
        <time>2014-02-23T09:41:35Z</time>
      </trkpt>
      <trkpt lat="41.621590100" lon="2.458190070">
        <ele>487.80</ele>
        <time>2014-02-23T09:41:36Z</time>
      </trkpt>
      <trkpt lat="41.621603350" lon="2.458188400">
        <ele>487.90</ele>
        <time>2014-02-23T09:41:37Z</time>
      </trkpt>
      <trkpt lat="41.621618430" lon="2.458186720">
        <ele>488.30</ele>
        <time>2014-02-23T09:41:38Z</time>
      </trkpt>
      <trkpt lat="41.621631680" lon="2.458186720">
        <ele>488.70</ele>
        <time>2014-02-23T09:41:39Z</time>
      </trkpt>
      <trkpt lat="41.621646760" lon="2.458185050">
        <ele>488.90</ele>
        <time>2014-02-23T09:41:40Z</time>
      </trkpt>
      <trkpt lat="41.621660010" lon="2.458183370">
        <ele>489.10</ele>
        <time>2014-02-23T09:41:41Z</time>
      </trkpt>
      <trkpt lat="41.621675100" lon="2.458183370">
        <ele>489.30</ele>
        <time>2014-02-23T09:41:42Z</time>
      </trkpt>
      <trkpt lat="41.621690010" lon="2.458183370">
        <ele>489.60</ele>
        <time>2014-02-23T09:41:43Z</time>
      </trkpt>
      <trkpt lat="41.621703430" lon="2.458183370">
        <ele>489.80</ele>
        <time>2014-02-23T09:41:44Z</time>
      </trkpt>
      <trkpt lat="41.621720020" lon="2.458185050">
        <ele>489.50</ele>
        <time>2014-02-23T09:41:45Z</time>
      </trkpt>
      <trkpt lat="41.621735110" lon="2.458183370">
        <ele>489.40</ele>
        <time>2014-02-23T09:41:46Z</time>
      </trkpt>
      <trkpt lat="41.621750030" lon="2.458180020">
        <ele>489.20</ele>
        <time>2014-02-23T09:41:47Z</time>
      </trkpt>
      <trkpt lat="41.621763440" lon="2.458178340">
        <ele>489.20</ele>
        <time>2014-02-23T09:41:48Z</time>
      </trkpt>
      <trkpt lat="41.621778360" lon="2.458181690">
        <ele>489.10</ele>
        <time>2014-02-23T09:41:49Z</time>
      </trkpt>
      <trkpt lat="41.621793450" lon="2.458181690">
        <ele>489.40</ele>
        <time>2014-02-23T09:41:50Z</time>
      </trkpt>
      <trkpt lat="41.621808370" lon="2.458180020">
        <ele>489.60</ele>
        <time>2014-02-23T09:41:51Z</time>
      </trkpt>
      <trkpt lat="41.621821780" lon="2.458180020">
        <ele>490.00</ele>
        <time>2014-02-23T09:41:52Z</time>
      </trkpt>
      <trkpt lat="41.621836700" lon="2.458181690">
        <ele>490.20</ele>
        <time>2014-02-23T09:41:53Z</time>
      </trkpt>
      <trkpt lat="41.621851790" lon="2.458176660">
        <ele>490.40</ele>
        <time>2014-02-23T09:41:54Z</time>
      </trkpt>
      <trkpt lat="41.621866710" lon="2.458170130">
        <ele>490.10</ele>
        <time>2014-02-23T09:41:55Z</time>
      </trkpt>
      <trkpt lat="41.621880120" lon="2.458161740">
        <ele>490.00</ele>
        <time>2014-02-23T09:41:56Z</time>
      </trkpt>
      <trkpt lat="41.621893360" lon="2.458148330">
        <ele>490.50</ele>
        <time>2014-02-23T09:41:57Z</time>
      </trkpt>
      <trkpt lat="41.621901740" lon="2.458130060">
        <ele>491.00</ele>
        <time>2014-02-23T09:41:58Z</time>
      </trkpt>
      <trkpt lat="41.621911800" lon="2.458113460">
        <ele>491.20</ele>
        <time>2014-02-23T09:41:59Z</time>
      </trkpt>
      <trkpt lat="41.621916830" lon="2.458093350">
        <ele>491.40</ele>
        <time>2014-02-23T09:42:00Z</time>
      </trkpt>
      <trkpt lat="41.621923370" lon="2.458073400">
        <ele>491.60</ele>
        <time>2014-02-23T09:42:01Z</time>
      </trkpt>
      <trkpt lat="41.621928400" lon="2.458055130">
        <ele>491.70</ele>
        <time>2014-02-23T09:42:02Z</time>
      </trkpt>
      <trkpt lat="41.621933430" lon="2.458035010">
        <ele>491.70</ele>
        <time>2014-02-23T09:42:03Z</time>
      </trkpt>
      <trkpt lat="41.621935100" lon="2.458015060">
        <ele>492.00</ele>
        <time>2014-02-23T09:42:04Z</time>
      </trkpt>
      <trkpt lat="41.621936780" lon="2.457995110">
        <ele>492.30</ele>
        <time>2014-02-23T09:42:05Z</time>
      </trkpt>
      <trkpt lat="41.621935100" lon="2.457976670">
        <ele>492.40</ele>
        <time>2014-02-23T09:42:06Z</time>
      </trkpt>
      <trkpt lat="41.621933430" lon="2.457956720">
        <ele>492.70</ele>
        <time>2014-02-23T09:42:07Z</time>
      </trkpt>
      <trkpt lat="41.621930070" lon="2.457938450">
        <ele>492.80</ele>
        <time>2014-02-23T09:42:08Z</time>
      </trkpt>
      <trkpt lat="41.621925040" lon="2.457921690">
        <ele>492.90</ele>
        <time>2014-02-23T09:42:09Z</time>
      </trkpt>
      <trkpt lat="41.621916830" lon="2.457903410">
        <ele>493.00</ele>
        <time>2014-02-23T09:42:10Z</time>
      </trkpt>
      <trkpt lat="41.621910120" lon="2.457886820">
        <ele>493.10</ele>
        <time>2014-02-23T09:42:11Z</time>
      </trkpt>
      <trkpt lat="41.621903420" lon="2.457871730">
        <ele>493.20</ele>
        <time>2014-02-23T09:42:12Z</time>
      </trkpt>
      <trkpt lat="41.621896710" lon="2.457856810">
        <ele>493.20</ele>
        <time>2014-02-23T09:42:13Z</time>
      </trkpt>
      <trkpt lat="41.621886820" lon="2.457843400">
        <ele>493.30</ele>
        <time>2014-02-23T09:42:14Z</time>
      </trkpt>
      <trkpt lat="41.621876760" lon="2.457831660">
        <ele>493.30</ele>
        <time>2014-02-23T09:42:15Z</time>
      </trkpt>
      <trkpt lat="41.621870060" lon="2.457818420">
        <ele>493.60</ele>
        <time>2014-02-23T09:42:16Z</time>
      </trkpt>
      <trkpt lat="41.621863350" lon="2.457801830">
        <ele>493.70</ele>
        <time>2014-02-23T09:42:17Z</time>
      </trkpt>
      <trkpt lat="41.621860000" lon="2.457783380">
        <ele>494.30</ele>
        <time>2014-02-23T09:42:18Z</time>
      </trkpt>
      <trkpt lat="41.621856810" lon="2.457765110">
        <ele>494.70</ele>
        <time>2014-02-23T09:42:19Z</time>
      </trkpt>
      <trkpt lat="41.621851790" lon="2.457746670">
        <ele>495.00</ele>
        <time>2014-02-23T09:42:20Z</time>
      </trkpt>
      <trkpt lat="41.621848430" lon="2.457728400">
        <ele>495.20</ele>
        <time>2014-02-23T09:42:21Z</time>
      </trkpt>
      <trkpt lat="41.621848430" lon="2.457711800">
        <ele>495.30</ele>
        <time>2014-02-23T09:42:22Z</time>
      </trkpt>
      <trkpt lat="41.621846760" lon="2.457695040">
        <ele>495.30</ele>
        <time>2014-02-23T09:42:23Z</time>
      </trkpt>
      <trkpt lat="41.621843400" lon="2.457675090">
        <ele>495.20</ele>
        <time>2014-02-23T09:42:24Z</time>
      </trkpt>
      <trkpt lat="41.621841730" lon="2.457653470">
        <ele>495.20</ele>
        <time>2014-02-23T09:42:25Z</time>
      </trkpt>
      <trkpt lat="41.621840050" lon="2.457635030">
        <ele>495.60</ele>
        <time>2014-02-23T09:42:26Z</time>
      </trkpt>
      <trkpt lat="41.621836700" lon="2.457618430">
        <ele>495.80</ele>
        <time>2014-02-23T09:42:27Z</time>
      </trkpt>
      <trkpt lat="41.621831670" lon="2.457603340">
        <ele>496.40</ele>
        <time>2014-02-23T09:42:28Z</time>
      </trkpt>
      <trkpt lat="41.621826810" lon="2.457588420">
        <ele>496.80</ele>
        <time>2014-02-23T09:42:29Z</time>
      </trkpt>
      <trkpt lat="41.621823450" lon="2.457573330">
        <ele>496.80</ele>
        <time>2014-02-23T09:42:30Z</time>
      </trkpt>
      <trkpt lat="41.621820100" lon="2.457558410">
        <ele>496.80</ele>
        <time>2014-02-23T09:42:31Z</time>
      </trkpt>
      <trkpt lat="41.621815070" lon="2.457541820">
        <ele>496.80</ele>
        <time>2014-02-23T09:42:32Z</time>
      </trkpt>
      <trkpt lat="41.621811720" lon="2.457525050">
        <ele>497.00</ele>
        <time>2014-02-23T09:42:33Z</time>
      </trkpt>
      <trkpt lat="41.621806690" lon="2.457506780">
        <ele>497.10</ele>
        <time>2014-02-23T09:42:34Z</time>
      </trkpt>
      <trkpt lat="41.621805010" lon="2.457488340">
        <ele>497.40</ele>
        <time>2014-02-23T09:42:35Z</time>
      </trkpt>
      <trkpt lat="41.621800150" lon="2.457471750">
        <ele>497.70</ele>
        <time>2014-02-23T09:42:36Z</time>
      </trkpt>
      <trkpt lat="41.621798480" lon="2.457455150">
        <ele>497.90</ele>
        <time>2014-02-23T09:42:37Z</time>
      </trkpt>
      <trkpt lat="41.621793450" lon="2.457436710">
        <ele>497.90</ele>
        <time>2014-02-23T09:42:38Z</time>
      </trkpt>
      <trkpt lat="41.621790090" lon="2.457418440">
        <ele>497.90</ele>
        <time>2014-02-23T09:42:39Z</time>
      </trkpt>
      <trkpt lat="41.621786740" lon="2.457400000">
        <ele>498.10</ele>
        <time>2014-02-23T09:42:40Z</time>
      </trkpt>
      <trkpt lat="41.621783390" lon="2.457381720">
        <ele>498.20</ele>
        <time>2014-02-23T09:42:41Z</time>
      </trkpt>
      <trkpt lat="41.621780040" lon="2.457363450">
        <ele>498.40</ele>
        <time>2014-02-23T09:42:42Z</time>
      </trkpt>
      <trkpt lat="41.621778360" lon="2.457345010">
        <ele>498.50</ele>
        <time>2014-02-23T09:42:43Z</time>
      </trkpt>
      <trkpt lat="41.621775010" lon="2.457325060">
        <ele>498.70</ele>
        <time>2014-02-23T09:42:44Z</time>
      </trkpt>
      <trkpt lat="41.621770150" lon="2.457305110">
        <ele>498.70</ele>
        <time>2014-02-23T09:42:45Z</time>
      </trkpt>
      <trkpt lat="41.621765120" lon="2.457285000">
        <ele>498.70</ele>
        <time>2014-02-23T09:42:46Z</time>
      </trkpt>
      <trkpt lat="41.621763440" lon="2.457265050">
        <ele>498.60</ele>
        <time>2014-02-23T09:42:47Z</time>
      </trkpt>
      <trkpt lat="41.621760090" lon="2.457243420">
        <ele>498.50</ele>
        <time>2014-02-23T09:42:48Z</time>
      </trkpt>
      <trkpt lat="41.621755060" lon="2.457226830">
        <ele>498.90</ele>
        <time>2014-02-23T09:42:49Z</time>
      </trkpt>
      <trkpt lat="41.621750030" lon="2.457208390">
        <ele>499.30</ele>
        <time>2014-02-23T09:42:50Z</time>
      </trkpt>
      <trkpt lat="41.621745000" lon="2.457188440">
        <ele>499.50</ele>
        <time>2014-02-23T09:42:51Z</time>
      </trkpt>
      <trkpt lat="41.621740140" lon="2.457168490">
        <ele>499.40</ele>
        <time>2014-02-23T09:42:52Z</time>
      </trkpt>
      <trkpt lat="41.621735110" lon="2.457148370">
        <ele>499.30</ele>
        <time>2014-02-23T09:42:53Z</time>
      </trkpt>
      <trkpt lat="41.621733430" lon="2.457126750">
        <ele>500.00</ele>
        <time>2014-02-23T09:42:54Z</time>
      </trkpt>
      <trkpt lat="41.621730080" lon="2.457105120">
        <ele>500.50</ele>
        <time>2014-02-23T09:42:55Z</time>
      </trkpt>
      <trkpt lat="41.621726730" lon="2.457081820">
        <ele>500.30</ele>
        <time>2014-02-23T09:42:56Z</time>
      </trkpt>
      <trkpt lat="41.621723370" lon="2.457060030">
        <ele>500.10</ele>
        <time>2014-02-23T09:42:57Z</time>
      </trkpt>
      <trkpt lat="41.621720020" lon="2.457036720">
        <ele>499.90</ele>
        <time>2014-02-23T09:42:58Z</time>
      </trkpt>
      <trkpt lat="41.621715160" lon="2.457016780">
        <ele>500.60</ele>
        <time>2014-02-23T09:42:59Z</time>
      </trkpt>
      <trkpt lat="41.621711810" lon="2.456996830">
        <ele>501.10</ele>
        <time>2014-02-23T09:43:00Z</time>
      </trkpt>
      <trkpt lat="41.621708460" lon="2.456978390">
        <ele>500.90</ele>
        <time>2014-02-23T09:43:01Z</time>
      </trkpt>
      <trkpt lat="41.621706780" lon="2.456958440">
        <ele>500.70</ele>
        <time>2014-02-23T09:43:02Z</time>
      </trkpt>
      <trkpt lat="41.621703430" lon="2.456938490">
        <ele>500.60</ele>
        <time>2014-02-23T09:43:03Z</time>
      </trkpt>
      <trkpt lat="41.621700070" lon="2.456916700">
        <ele>500.90</ele>
        <time>2014-02-23T09:43:04Z</time>
      </trkpt>
      <trkpt lat="41.621700070" lon="2.456895070">
        <ele>501.20</ele>
        <time>2014-02-23T09:43:05Z</time>
      </trkpt>
      <trkpt lat="41.621698400" lon="2.456873450">
        <ele>502.00</ele>
        <time>2014-02-23T09:43:06Z</time>
      </trkpt>
      <trkpt lat="41.621698400" lon="2.456855010">
        <ele>502.60</ele>
        <time>2014-02-23T09:43:07Z</time>
      </trkpt>
      <trkpt lat="41.621698400" lon="2.456833380">
        <ele>502.60</ele>
        <time>2014-02-23T09:43:08Z</time>
      </trkpt>
      <trkpt lat="41.621698400" lon="2.456811750">
        <ele>502.60</ele>
        <time>2014-02-23T09:43:09Z</time>
      </trkpt>
      <trkpt lat="41.621698400" lon="2.456791810">
        <ele>502.70</ele>
        <time>2014-02-23T09:43:10Z</time>
      </trkpt>
      <trkpt lat="41.621700070" lon="2.456770010">
        <ele>502.90</ele>
        <time>2014-02-23T09:43:11Z</time>
      </trkpt>
      <trkpt lat="41.621700070" lon="2.456750060">
        <ele>503.00</ele>
        <time>2014-02-23T09:43:12Z</time>
      </trkpt>
      <trkpt lat="41.621703430" lon="2.456728440">
        <ele>502.90</ele>
        <time>2014-02-23T09:43:13Z</time>
      </trkpt>
      <trkpt lat="41.621705100" lon="2.456710000">
        <ele>502.90</ele>
        <time>2014-02-23T09:43:14Z</time>
      </trkpt>
      <trkpt lat="41.621708460" lon="2.456688370">
        <ele>503.20</ele>
        <time>2014-02-23T09:43:15Z</time>
      </trkpt>
      <trkpt lat="41.621711810" lon="2.456668420">
        <ele>503.40</ele>
        <time>2014-02-23T09:43:16Z</time>
      </trkpt>
      <trkpt lat="41.621715160" lon="2.456650150">
        <ele>503.50</ele>
        <time>2014-02-23T09:43:17Z</time>
      </trkpt>
      <trkpt lat="41.621720020" lon="2.456630030">
        <ele>503.60</ele>
        <time>2014-02-23T09:43:18Z</time>
      </trkpt>
      <trkpt lat="41.621725050" lon="2.456611760">
        <ele>503.60</ele>
        <time>2014-02-23T09:43:19Z</time>
      </trkpt>
      <trkpt lat="41.621730080" lon="2.456593490">
        <ele>503.90</ele>
        <time>2014-02-23T09:43:20Z</time>
      </trkpt>
      <trkpt lat="41.621735110" lon="2.456575050">
        <ele>504.20</ele>
        <time>2014-02-23T09:43:21Z</time>
      </trkpt>
      <trkpt lat="41.621736790" lon="2.456555100">
        <ele>504.30</ele>
        <time>2014-02-23T09:43:22Z</time>
      </trkpt>
      <trkpt lat="41.621741820" lon="2.456535150">
        <ele>504.60</ele>
        <time>2014-02-23T09:43:23Z</time>
      </trkpt>
      <trkpt lat="41.621746680" lon="2.456518390">
        <ele>504.70</ele>
        <time>2014-02-23T09:43:24Z</time>
      </trkpt>
      <trkpt lat="41.621753380" lon="2.456501790">
        <ele>505.00</ele>
        <time>2014-02-23T09:43:25Z</time>
      </trkpt>
      <trkpt lat="41.621760090" lon="2.456485030">
        <ele>505.30</ele>
        <time>2014-02-23T09:43:26Z</time>
      </trkpt>
      <trkpt lat="41.621765120" lon="2.456466760">
        <ele>505.30</ele>
        <time>2014-02-23T09:43:27Z</time>
      </trkpt>
      <trkpt lat="41.621770150" lon="2.456446810">
        <ele>505.30</ele>
        <time>2014-02-23T09:43:28Z</time>
      </trkpt>
      <trkpt lat="41.621773330" lon="2.456428370">
        <ele>505.30</ele>
        <time>2014-02-23T09:43:29Z</time>
      </trkpt>
      <trkpt lat="41.621776680" lon="2.456408420">
        <ele>505.90</ele>
        <time>2014-02-23T09:43:30Z</time>
      </trkpt>
      <trkpt lat="41.621781710" lon="2.456390140">
        <ele>506.30</ele>
        <time>2014-02-23T09:43:31Z</time>
      </trkpt>
      <trkpt lat="41.621786740" lon="2.456371700">
        <ele>506.20</ele>
        <time>2014-02-23T09:43:32Z</time>
      </trkpt>
      <trkpt lat="41.621790090" lon="2.456351760">
        <ele>506.10</ele>
        <time>2014-02-23T09:43:33Z</time>
      </trkpt>
      <trkpt lat="41.621793450" lon="2.456331810">
        <ele>506.90</ele>
        <time>2014-02-23T09:43:34Z</time>
      </trkpt>
      <trkpt lat="41.621800150" lon="2.456315040">
        <ele>507.50</ele>
        <time>2014-02-23T09:43:35Z</time>
      </trkpt>
      <trkpt lat="41.621803340" lon="2.456295090">
        <ele>507.90</ele>
        <time>2014-02-23T09:43:36Z</time>
      </trkpt>
      <trkpt lat="41.621808370" lon="2.456275150">
        <ele>508.10</ele>
        <time>2014-02-23T09:43:37Z</time>
      </trkpt>
      <trkpt lat="41.621815070" lon="2.456253350">
        <ele>508.30</ele>
        <time>2014-02-23T09:43:38Z</time>
      </trkpt>
      <trkpt lat="41.621818430" lon="2.456233400">
        <ele>508.20</ele>
        <time>2014-02-23T09:43:39Z</time>
      </trkpt>
      <trkpt lat="41.621821780" lon="2.456211780">
        <ele>508.10</ele>
        <time>2014-02-23T09:43:40Z</time>
      </trkpt>
      <trkpt lat="41.621821780" lon="2.456190150">
        <ele>508.00</ele>
        <time>2014-02-23T09:43:41Z</time>
      </trkpt>
      <trkpt lat="41.621821780" lon="2.456171710">
        <ele>508.40</ele>
        <time>2014-02-23T09:43:42Z</time>
      </trkpt>
      <trkpt lat="41.621823450" lon="2.456153440">
        <ele>508.60</ele>
        <time>2014-02-23T09:43:43Z</time>
      </trkpt>
      <trkpt lat="41.621823450" lon="2.456133490">
        <ele>509.10</ele>
        <time>2014-02-23T09:43:44Z</time>
      </trkpt>
      <trkpt lat="41.621825130" lon="2.456116730">
        <ele>509.40</ele>
        <time>2014-02-23T09:43:45Z</time>
      </trkpt>
      <trkpt lat="41.621828480" lon="2.456096780">
        <ele>509.40</ele>
        <time>2014-02-23T09:43:46Z</time>
      </trkpt>
      <trkpt lat="41.621830160" lon="2.456078340">
        <ele>509.40</ele>
        <time>2014-02-23T09:43:47Z</time>
      </trkpt>
      <trkpt lat="41.621831670" lon="2.456058390">
        <ele>509.40</ele>
        <time>2014-02-23T09:43:48Z</time>
      </trkpt>
      <trkpt lat="41.621833350" lon="2.456038440">
        <ele>509.60</ele>
        <time>2014-02-23T09:43:49Z</time>
      </trkpt>
      <trkpt lat="41.621835020" lon="2.456018490">
        <ele>509.80</ele>
        <time>2014-02-23T09:43:50Z</time>
      </trkpt>
      <trkpt lat="41.621835020" lon="2.455998370">
        <ele>509.90</ele>
        <time>2014-02-23T09:43:51Z</time>
      </trkpt>
      <trkpt lat="41.621836700" lon="2.455978430">
        <ele>510.00</ele>
        <time>2014-02-23T09:43:52Z</time>
      </trkpt>
      <trkpt lat="41.621836700" lon="2.455958480">
        <ele>510.10</ele>
        <time>2014-02-23T09:43:53Z</time>
      </trkpt>
      <trkpt lat="41.621840050" lon="2.455938360">
        <ele>510.10</ele>
        <time>2014-02-23T09:43:54Z</time>
      </trkpt>
      <trkpt lat="41.621843400" lon="2.455920090">
        <ele>510.20</ele>
        <time>2014-02-23T09:43:55Z</time>
      </trkpt>
      <trkpt lat="41.621845080" lon="2.455898460">
        <ele>510.50</ele>
        <time>2014-02-23T09:43:56Z</time>
      </trkpt>
      <trkpt lat="41.621846760" lon="2.455881700">
        <ele>510.70</ele>
        <time>2014-02-23T09:43:57Z</time>
      </trkpt>
      <trkpt lat="41.621848430" lon="2.455861750">
        <ele>511.00</ele>
        <time>2014-02-23T09:43:58Z</time>
      </trkpt>
      <trkpt lat="41.621848430" lon="2.455843480">
        <ele>511.20</ele>
        <time>2014-02-23T09:43:59Z</time>
      </trkpt>
      <trkpt lat="41.621850110" lon="2.455825040">
        <ele>511.30</ele>
        <time>2014-02-23T09:44:00Z</time>
      </trkpt>
      <trkpt lat="41.621851790" lon="2.455806760">
        <ele>511.90</ele>
        <time>2014-02-23T09:44:01Z</time>
      </trkpt>
      <trkpt lat="41.621850110" lon="2.455786820">
        <ele>512.40</ele>
        <time>2014-02-23T09:44:02Z</time>
      </trkpt>
      <trkpt lat="41.621850110" lon="2.455768380">
        <ele>512.70</ele>
        <time>2014-02-23T09:44:03Z</time>
      </trkpt>
      <trkpt lat="41.621848430" lon="2.455748430">
        <ele>512.90</ele>
        <time>2014-02-23T09:44:04Z</time>
      </trkpt>
      <trkpt lat="41.621850110" lon="2.455730150">
        <ele>512.90</ele>
        <time>2014-02-23T09:44:05Z</time>
      </trkpt>
      <trkpt lat="41.621853460" lon="2.455711710">
        <ele>512.90</ele>
        <time>2014-02-23T09:44:06Z</time>
      </trkpt>
      <trkpt lat="41.621858490" lon="2.455691760">
        <ele>512.90</ele>
        <time>2014-02-23T09:44:07Z</time>
      </trkpt>
      <trkpt lat="41.621865030" lon="2.455671820">
        <ele>512.40</ele>
        <time>2014-02-23T09:44:08Z</time>
      </trkpt>
      <trkpt lat="41.621873410" lon="2.455653380">
        <ele>512.10</ele>
        <time>2014-02-23T09:44:09Z</time>
      </trkpt>
      <trkpt lat="41.621885150" lon="2.455635100">
        <ele>512.60</ele>
        <time>2014-02-23T09:44:10Z</time>
      </trkpt>
      <trkpt lat="41.621896710" lon="2.455616660">
        <ele>513.10</ele>
        <time>2014-02-23T09:44:11Z</time>
      </trkpt>
      <trkpt lat="41.621910120" lon="2.455600070">
        <ele>513.30</ele>
        <time>2014-02-23T09:44:12Z</time>
      </trkpt>
      <trkpt lat="41.621923370" lon="2.455581790">
        <ele>513.50</ele>
        <time>2014-02-23T09:44:13Z</time>
      </trkpt>
      <trkpt lat="41.621935100" lon="2.455563350">
        <ele>513.60</ele>
        <time>2014-02-23T09:44:14Z</time>
      </trkpt>
      <trkpt lat="41.621948350" lon="2.455546760">
        <ele>513.20</ele>
        <time>2014-02-23T09:44:15Z</time>
      </trkpt>
      <trkpt lat="41.621958400" lon="2.455528490">
        <ele>512.80</ele>
        <time>2014-02-23T09:44:16Z</time>
      </trkpt>
      <trkpt lat="41.621970140" lon="2.455508370">
        <ele>513.30</ele>
        <time>2014-02-23T09:44:17Z</time>
      </trkpt>
      <trkpt lat="41.621981710" lon="2.455490100">
        <ele>513.60</ele>
        <time>2014-02-23T09:44:18Z</time>
      </trkpt>
      <trkpt lat="41.621991760" lon="2.455471820">
        <ele>513.90</ele>
        <time>2014-02-23T09:44:19Z</time>
      </trkpt>
      <trkpt lat="41.622003330" lon="2.455451710">
        <ele>514.00</ele>
        <time>2014-02-23T09:44:20Z</time>
      </trkpt>
      <trkpt lat="41.622015070" lon="2.455430080">
        <ele>514.20</ele>
        <time>2014-02-23T09:44:21Z</time>
      </trkpt>
      <trkpt lat="41.622028480" lon="2.455413490">
        <ele>513.90</ele>
        <time>2014-02-23T09:44:22Z</time>
      </trkpt>
      <trkpt lat="41.622040040" lon="2.455395050">
        <ele>513.70</ele>
        <time>2014-02-23T09:44:23Z</time>
      </trkpt>
      <trkpt lat="41.622055130" lon="2.455381800">
        <ele>514.10</ele>
        <time>2014-02-23T09:44:24Z</time>
      </trkpt>
      <trkpt lat="41.622066700" lon="2.455366710">
        <ele>514.40</ele>
        <time>2014-02-23T09:44:25Z</time>
      </trkpt>
      <trkpt lat="41.622081790" lon="2.455353470">
        <ele>514.60</ele>
        <time>2014-02-23T09:44:26Z</time>
      </trkpt>
      <trkpt lat="41.622096700" lon="2.455341740">
        <ele>514.20</ele>
        <time>2014-02-23T09:44:27Z</time>
      </trkpt>
      <trkpt lat="41.622113470" lon="2.455328490">
        <ele>513.90</ele>
        <time>2014-02-23T09:44:28Z</time>
      </trkpt>
      <trkpt lat="41.622128390" lon="2.455315080">
        <ele>513.90</ele>
        <time>2014-02-23T09:44:29Z</time>
      </trkpt>
      <trkpt lat="41.622143480" lon="2.455301670">
        <ele>513.80</ele>
        <time>2014-02-23T09:44:30Z</time>
      </trkpt>
      <trkpt lat="41.622156720" lon="2.455286750">
        <ele>514.20</ele>
        <time>2014-02-23T09:44:31Z</time>
      </trkpt>
      <trkpt lat="41.622176670" lon="2.455271660">
        <ele>514.50</ele>
        <time>2014-02-23T09:44:32Z</time>
      </trkpt>
      <trkpt lat="41.622201810" lon="2.455256740">
        <ele>514.80</ele>
        <time>2014-02-23T09:44:33Z</time>
      </trkpt>
      <trkpt lat="41.622231820" lon="2.455240150">
        <ele>514.60</ele>
        <time>2014-02-23T09:44:34Z</time>
      </trkpt>
      <trkpt lat="41.622266690" lon="2.455218350">
        <ele>514.40</ele>
        <time>2014-02-23T09:44:35Z</time>
      </trkpt>
      <trkpt lat="41.622301730" lon="2.455191700">
        <ele>513.90</ele>
        <time>2014-02-23T09:44:36Z</time>
      </trkpt>
      <trkpt lat="41.622330060" lon="2.455156660">
        <ele>513.40</ele>
        <time>2014-02-23T09:44:37Z</time>
      </trkpt>
      <trkpt lat="41.622358390" lon="2.455121800">
        <ele>513.10</ele>
        <time>2014-02-23T09:44:38Z</time>
      </trkpt>
      <trkpt lat="41.622385040" lon="2.455081730">
        <ele>512.80</ele>
        <time>2014-02-23T09:44:39Z</time>
      </trkpt>
      <trkpt lat="41.622415050" lon="2.455043340">
        <ele>512.60</ele>
        <time>2014-02-23T09:44:40Z</time>
      </trkpt>
      <trkpt lat="41.622443380" lon="2.455006800">
        <ele>512.40</ele>
        <time>2014-02-23T09:44:41Z</time>
      </trkpt>
      <trkpt lat="41.622470030" lon="2.454975110">
        <ele>512.10</ele>
        <time>2014-02-23T09:44:42Z</time>
      </trkpt>
      <trkpt lat="41.622495010" lon="2.454945100">
        <ele>512.20</ele>
        <time>2014-02-23T09:44:43Z</time>
      </trkpt>
      <trkpt lat="41.622523340" lon="2.454920130">
        <ele>512.20</ele>
        <time>2014-02-23T09:44:44Z</time>
      </trkpt>
      <trkpt lat="41.622548490" lon="2.454896830">
        <ele>512.30</ele>
        <time>2014-02-23T09:44:45Z</time>
      </trkpt>
      <trkpt lat="41.622566760" lon="2.454876710">
        <ele>511.70</ele>
        <time>2014-02-23T09:44:46Z</time>
      </trkpt>
      <trkpt lat="41.622578330" lon="2.454861790">
        <ele>511.30</ele>
        <time>2014-02-23T09:44:47Z</time>
      </trkpt>
      <trkpt lat="41.622583360" lon="2.454850050">
        <ele>510.90</ele>
        <time>2014-02-23T09:44:48Z</time>
      </trkpt>
      <trkpt lat="41.622586710" lon="2.454831780">
        <ele>510.60</ele>
        <time>2014-02-23T09:44:49Z</time>
      </trkpt>
      <trkpt lat="41.622585030" lon="2.454828430">
        <ele>510.20</ele>
        <time>2014-02-23T09:44:50Z</time>
      </trkpt>
      <trkpt lat="41.622586710" lon="2.454826750">
        <ele>509.90</ele>
        <time>2014-02-23T09:44:51Z</time>
      </trkpt>
      <trkpt lat="41.622588390" lon="2.454823400">
        <ele>509.70</ele>
        <time>2014-02-23T09:44:52Z</time>
      </trkpt>
      <trkpt lat="41.622588390" lon="2.454816690">
        <ele>509.50</ele>
        <time>2014-02-23T09:44:53Z</time>
      </trkpt>
      <trkpt lat="41.622586710" lon="2.454810160">
        <ele>509.40</ele>
        <time>2014-02-23T09:44:54Z</time>
      </trkpt>
      <trkpt lat="41.622581680" lon="2.454803450">
        <ele>509.20</ele>
        <time>2014-02-23T09:44:55Z</time>
      </trkpt>
      <trkpt lat="41.622578330" lon="2.454793390">
        <ele>509.00</ele>
        <time>2014-02-23T09:44:56Z</time>
      </trkpt>
      <trkpt lat="41.622576820" lon="2.454781830">
        <ele>508.90</ele>
        <time>2014-02-23T09:44:57Z</time>
      </trkpt>
      <trkpt lat="41.622571790" lon="2.454771770">
        <ele>509.10</ele>
        <time>2014-02-23T09:44:58Z</time>
      </trkpt>
      <trkpt lat="41.622568440" lon="2.454763390">
        <ele>509.30</ele>
        <time>2014-02-23T09:44:59Z</time>
      </trkpt>
      <trkpt lat="41.622560060" lon="2.454750140">
        <ele>509.40</ele>
        <time>2014-02-23T09:45:00Z</time>
      </trkpt>
      <trkpt lat="41.622550000" lon="2.454733380">
        <ele>509.50</ele>
        <time>2014-02-23T09:45:01Z</time>
      </trkpt>
      <trkpt lat="41.622538430" lon="2.454716780">
        <ele>509.50</ele>
        <time>2014-02-23T09:45:02Z</time>
      </trkpt>
      <trkpt lat="41.622526700" lon="2.454698340">
        <ele>509.50</ele>
        <time>2014-02-23T09:45:03Z</time>
      </trkpt>
      <trkpt lat="41.622515130" lon="2.454680070">
        <ele>509.40</ele>
        <time>2014-02-23T09:45:04Z</time>
      </trkpt>
      <trkpt lat="41.622503390" lon="2.454663470">
        <ele>509.40</ele>
        <time>2014-02-23T09:45:05Z</time>
      </trkpt>
      <trkpt lat="41.622491830" lon="2.454646710">
        <ele>509.40</ele>
        <time>2014-02-23T09:45:06Z</time>
      </trkpt>
      <trkpt lat="41.622476740" lon="2.454631790">
        <ele>509.30</ele>
        <time>2014-02-23T09:45:07Z</time>
      </trkpt>
      <trkpt lat="41.622460140" lon="2.454621730">
        <ele>509.20</ele>
        <time>2014-02-23T09:45:08Z</time>
      </trkpt>
      <trkpt lat="41.622443380" lon="2.454610000">
        <ele>509.10</ele>
        <time>2014-02-23T09:45:09Z</time>
      </trkpt>
      <trkpt lat="41.622426780" lon="2.454596750">
        <ele>509.10</ele>
        <time>2014-02-23T09:45:10Z</time>
      </trkpt>
      <trkpt lat="41.622410020" lon="2.454583340">
        <ele>509.00</ele>
        <time>2014-02-23T09:45:11Z</time>
      </trkpt>
      <trkpt lat="41.622393420" lon="2.454570100">
        <ele>508.90</ele>
        <time>2014-02-23T09:45:12Z</time>
      </trkpt>
      <trkpt lat="41.622375150" lon="2.454558360">
        <ele>508.80</ele>
        <time>2014-02-23T09:45:13Z</time>
      </trkpt>
      <trkpt lat="41.622356710" lon="2.454546800">
        <ele>509.00</ele>
        <time>2014-02-23T09:45:14Z</time>
      </trkpt>
      <trkpt lat="41.622338440" lon="2.454531710">
        <ele>509.10</ele>
        <time>2014-02-23T09:45:15Z</time>
      </trkpt>
      <trkpt lat="41.622321680" lon="2.454520140">
        <ele>509.10</ele>
        <time>2014-02-23T09:45:16Z</time>
      </trkpt>
      <trkpt lat="41.622305080" lon="2.454508410">
        <ele>509.10</ele>
        <time>2014-02-23T09:45:17Z</time>
      </trkpt>
      <trkpt lat="41.622290160" lon="2.454493490">
        <ele>509.10</ele>
        <time>2014-02-23T09:45:18Z</time>
      </trkpt>
      <trkpt lat="41.622275070" lon="2.454481750">
        <ele>509.40</ele>
        <time>2014-02-23T09:45:19Z</time>
      </trkpt>
      <trkpt lat="41.622261830" lon="2.454470020">
        <ele>509.60</ele>
        <time>2014-02-23T09:45:20Z</time>
      </trkpt>
      <trkpt lat="41.622248420" lon="2.454458450">
        <ele>510.00</ele>
        <time>2014-02-23T09:45:21Z</time>
      </trkpt>
      <trkpt lat="41.622231820" lon="2.454443360">
        <ele>510.30</ele>
        <time>2014-02-23T09:45:22Z</time>
      </trkpt>
      <trkpt lat="41.622216730" lon="2.454428440">
        <ele>510.60</ele>
        <time>2014-02-23T09:45:23Z</time>
      </trkpt>
      <trkpt lat="41.622201810" lon="2.454413360">
        <ele>510.40</ele>
        <time>2014-02-23T09:45:24Z</time>
      </trkpt>
      <trkpt lat="41.622183370" lon="2.454398440">
        <ele>510.30</ele>
        <time>2014-02-23T09:45:25Z</time>
      </trkpt>
      <trkpt lat="41.622165100" lon="2.454380000">
        <ele>510.20</ele>
        <time>2014-02-23T09:45:26Z</time>
      </trkpt>
      <trkpt lat="41.622143480" lon="2.454363400">
        <ele>510.10</ele>
        <time>2014-02-23T09:45:27Z</time>
      </trkpt>
      <trkpt lat="41.622120010" lon="2.454343450">
        <ele>509.70</ele>
        <time>2014-02-23T09:45:28Z</time>
      </trkpt>
      <trkpt lat="41.622100060" lon="2.454321830">
        <ele>509.40</ele>
        <time>2014-02-23T09:45:29Z</time>
      </trkpt>
      <trkpt lat="41.622080110" lon="2.454298360">
        <ele>509.20</ele>
        <time>2014-02-23T09:45:30Z</time>
      </trkpt>
      <trkpt lat="41.622060160" lon="2.454273380">
        <ele>509.00</ele>
        <time>2014-02-23T09:45:31Z</time>
      </trkpt>
      <trkpt lat="41.622041720" lon="2.454248400">
        <ele>508.80</ele>
        <time>2014-02-23T09:45:32Z</time>
      </trkpt>
      <trkpt lat="41.622025120" lon="2.454218390">
        <ele>508.60</ele>
        <time>2014-02-23T09:45:33Z</time>
      </trkpt>
      <trkpt lat="41.622006680" lon="2.454185030">
        <ele>508.40</ele>
        <time>2014-02-23T09:45:34Z</time>
      </trkpt>
      <trkpt lat="41.621986730" lon="2.454151670">
        <ele>508.10</ele>
        <time>2014-02-23T09:45:35Z</time>
      </trkpt>
      <trkpt lat="41.621965110" lon="2.454106750">
        <ele>507.80</ele>
        <time>2014-02-23T09:45:36Z</time>
      </trkpt>
      <trkpt lat="41.621941810" lon="2.454058470">
        <ele>507.70</ele>
        <time>2014-02-23T09:45:37Z</time>
      </trkpt>
      <trkpt lat="41.621916830" lon="2.454011700">
        <ele>507.20</ele>
        <time>2014-02-23T09:45:38Z</time>
      </trkpt>
      <trkpt lat="41.621895040" lon="2.453963420">
        <ele>506.80</ele>
        <time>2014-02-23T09:45:39Z</time>
      </trkpt>
      <trkpt lat="41.621875090" lon="2.453925030">
        <ele>506.50</ele>
        <time>2014-02-23T09:45:40Z</time>
      </trkpt>
      <trkpt lat="41.621860000" lon="2.453901730">
        <ele>506.30</ele>
        <time>2014-02-23T09:45:41Z</time>
      </trkpt>
      <trkpt lat="41.621840050" lon="2.453885130">
        <ele>506.10</ele>
        <time>2014-02-23T09:45:42Z</time>
      </trkpt>
      <trkpt lat="41.621818430" lon="2.453875070">
        <ele>505.80</ele>
        <time>2014-02-23T09:45:43Z</time>
      </trkpt>
      <trkpt lat="41.621798480" lon="2.453866690">
        <ele>505.70</ele>
        <time>2014-02-23T09:45:44Z</time>
      </trkpt>
      <trkpt lat="41.621781710" lon="2.453853450">
        <ele>505.50</ele>
        <time>2014-02-23T09:45:45Z</time>
      </trkpt>
      <trkpt lat="41.621768470" lon="2.453836680">
        <ele>505.40</ele>
        <time>2014-02-23T09:45:46Z</time>
      </trkpt>
      <trkpt lat="41.621755060" lon="2.453818410">
        <ele>504.80</ele>
        <time>2014-02-23T09:45:47Z</time>
      </trkpt>
      <trkpt lat="41.621745000" lon="2.453800140">
        <ele>504.30</ele>
        <time>2014-02-23T09:45:48Z</time>
      </trkpt>
      <trkpt lat="41.621733430" lon="2.453778340">
        <ele>504.00</ele>
        <time>2014-02-23T09:45:49Z</time>
      </trkpt>
      <trkpt lat="41.621721700" lon="2.453753370">
        <ele>504.00</ele>
        <time>2014-02-23T09:45:50Z</time>
      </trkpt>
      <trkpt lat="41.621708460" lon="2.453730060">
        <ele>504.00</ele>
        <time>2014-02-23T09:45:51Z</time>
      </trkpt>
      <trkpt lat="41.621691690" lon="2.453715140">
        <ele>503.60</ele>
        <time>2014-02-23T09:45:52Z</time>
      </trkpt>
      <trkpt lat="41.621676770" lon="2.453703410">
        <ele>503.30</ele>
        <time>2014-02-23T09:45:53Z</time>
      </trkpt>
      <trkpt lat="41.621661680" lon="2.453693350">
        <ele>502.90</ele>
        <time>2014-02-23T09:45:54Z</time>
      </trkpt>
      <trkpt lat="41.621651790" lon="2.453678430">
        <ele>502.60</ele>
        <time>2014-02-23T09:45:55Z</time>
      </trkpt>
      <trkpt lat="41.621646760" lon="2.453658480">
        <ele>502.40</ele>
        <time>2014-02-23T09:45:56Z</time>
      </trkpt>
      <trkpt lat="41.621638380" lon="2.453641720">
        <ele>502.10</ele>
        <time>2014-02-23T09:45:57Z</time>
      </trkpt>
      <trkpt lat="41.621625140" lon="2.453625120">
        <ele>501.90</ele>
        <time>2014-02-23T09:45:58Z</time>
      </trkpt>
      <trkpt lat="41.621605020" lon="2.453611710">
        <ele>501.80</ele>
        <time>2014-02-23T09:45:59Z</time>
      </trkpt>
      <trkpt lat="41.621585070" lon="2.453605010">
        <ele>501.70</ele>
        <time>2014-02-23T09:46:00Z</time>
      </trkpt>
      <trkpt lat="41.621565120" lon="2.453600140">
        <ele>501.60</ele>
        <time>2014-02-23T09:46:01Z</time>
      </trkpt>
      <trkpt lat="41.621548360" lon="2.453598470">
        <ele>500.90</ele>
        <time>2014-02-23T09:46:02Z</time>
      </trkpt>
      <trkpt lat="41.621530090" lon="2.453598470">
        <ele>500.30</ele>
        <time>2014-02-23T09:46:03Z</time>
      </trkpt>
      <trkpt lat="41.621511820" lon="2.453598470">
        <ele>499.60</ele>
        <time>2014-02-23T09:46:04Z</time>
      </trkpt>
      <trkpt lat="41.621488350" lon="2.453601820">
        <ele>499.10</ele>
        <time>2014-02-23T09:46:05Z</time>
      </trkpt>
      <trkpt lat="41.621470070" lon="2.453605010">
        <ele>498.20</ele>
        <time>2014-02-23T09:46:06Z</time>
      </trkpt>
      <trkpt lat="41.621451800" lon="2.453600140">
        <ele>497.60</ele>
        <time>2014-02-23T09:46:07Z</time>
      </trkpt>
      <trkpt lat="41.621433360" lon="2.453586730">
        <ele>497.10</ele>
        <time>2014-02-23T09:46:08Z</time>
      </trkpt>
      <trkpt lat="41.621416760" lon="2.453571810">
        <ele>496.50</ele>
        <time>2014-02-23T09:46:09Z</time>
      </trkpt>
      <trkpt lat="41.621400000" lon="2.453558400">
        <ele>496.00</ele>
        <time>2014-02-23T09:46:10Z</time>
      </trkpt>
      <trkpt lat="41.621376700" lon="2.453543480">
        <ele>495.20</ele>
        <time>2014-02-23T09:46:11Z</time>
      </trkpt>
      <trkpt lat="41.621353400" lon="2.453526720">
        <ele>494.60</ele>
        <time>2014-02-23T09:46:12Z</time>
      </trkpt>
      <trkpt lat="41.621331770" lon="2.453506770">
        <ele>494.20</ele>
        <time>2014-02-23T09:46:13Z</time>
      </trkpt>
      <trkpt lat="41.621308470" lon="2.453488330">
        <ele>493.50</ele>
        <time>2014-02-23T09:46:14Z</time>
      </trkpt>
      <trkpt lat="41.621288350" lon="2.453475090">
        <ele>493.00</ele>
        <time>2014-02-23T09:46:15Z</time>
      </trkpt>
      <trkpt lat="41.621268410" lon="2.453460000">
        <ele>492.30</ele>
        <time>2014-02-23T09:46:16Z</time>
      </trkpt>
      <trkpt lat="41.621250130" lon="2.453448430">
        <ele>491.80</ele>
        <time>2014-02-23T09:46:17Z</time>
      </trkpt>
      <trkpt lat="41.621236720" lon="2.453438370">
        <ele>491.00</ele>
        <time>2014-02-23T09:46:18Z</time>
      </trkpt>
      <trkpt lat="41.621225150" lon="2.453436700">
        <ele>490.30</ele>
        <time>2014-02-23T09:46:19Z</time>
      </trkpt>
      <trkpt lat="41.621215100" lon="2.453436700">
        <ele>489.90</ele>
        <time>2014-02-23T09:46:20Z</time>
      </trkpt>
      <trkpt lat="41.621208390" lon="2.453440050">
        <ele>489.70</ele>
        <time>2014-02-23T09:46:21Z</time>
      </trkpt>
      <trkpt lat="41.621201690" lon="2.453441730">
        <ele>489.60</ele>
        <time>2014-02-23T09:46:22Z</time>
      </trkpt>
      <trkpt lat="41.621191790" lon="2.453441730">
        <ele>489.40</ele>
        <time>2014-02-23T09:46:23Z</time>
      </trkpt>
      <trkpt lat="41.621173350" lon="2.453446760">
        <ele>489.30</ele>
        <time>2014-02-23T09:46:24Z</time>
      </trkpt>
      <trkpt lat="41.621158430" lon="2.453458490">
        <ele>488.70</ele>
        <time>2014-02-23T09:46:25Z</time>
      </trkpt>
      <trkpt lat="41.621138490" lon="2.453475090">
        <ele>488.30</ele>
        <time>2014-02-23T09:46:26Z</time>
      </trkpt>
      <trkpt lat="41.621110150" lon="2.453491680">
        <ele>488.00</ele>
        <time>2014-02-23T09:46:27Z</time>
      </trkpt>
      <trkpt lat="41.621083330" lon="2.453493360">
        <ele>487.70</ele>
        <time>2014-02-23T09:46:28Z</time>
      </trkpt>
      <trkpt lat="41.621058350" lon="2.453490010">
        <ele>487.40</ele>
        <time>2014-02-23T09:46:29Z</time>
      </trkpt>
      <trkpt lat="41.621035050" lon="2.453483470">
        <ele>487.20</ele>
        <time>2014-02-23T09:46:30Z</time>
      </trkpt>
      <trkpt lat="41.621011750" lon="2.453470060">
        <ele>487.00</ele>
        <time>2014-02-23T09:46:31Z</time>
      </trkpt>
      <trkpt lat="41.620993480" lon="2.453446760">
        <ele>486.90</ele>
        <time>2014-02-23T09:46:32Z</time>
      </trkpt>
      <trkpt lat="41.620981740" lon="2.453425130">
        <ele>486.80</ele>
        <time>2014-02-23T09:46:33Z</time>
      </trkpt>
      <trkpt lat="41.620975040" lon="2.453415070">
        <ele>486.70</ele>
        <time>2014-02-23T09:46:34Z</time>
      </trkpt>
      <trkpt lat="41.620973360" lon="2.453413400">
        <ele>486.40</ele>
        <time>2014-02-23T09:46:35Z</time>
      </trkpt>
      <trkpt lat="41.620971690" lon="2.453415070">
        <ele>486.20</ele>
        <time>2014-02-23T09:46:36Z</time>
      </trkpt>
      <trkpt lat="41.620970010" lon="2.453415070">
        <ele>486.10</ele>
        <time>2014-02-23T09:46:37Z</time>
      </trkpt>
      <trkpt lat="41.620968330" lon="2.453410040">
        <ele>485.90</ele>
        <time>2014-02-23T09:46:38Z</time>
      </trkpt>
      <trkpt lat="41.620965150" lon="2.453398480">
        <ele>485.80</ele>
        <time>2014-02-23T09:46:39Z</time>
      </trkpt>
      <trkpt lat="41.620963470" lon="2.453383390">
        <ele>486.00</ele>
        <time>2014-02-23T09:46:40Z</time>
      </trkpt>
      <trkpt lat="41.620963470" lon="2.453365120">
        <ele>486.10</ele>
        <time>2014-02-23T09:46:41Z</time>
      </trkpt>
      <trkpt lat="41.620961800" lon="2.453340140">
        <ele>486.20</ele>
        <time>2014-02-23T09:46:42Z</time>
      </trkpt>
      <trkpt lat="41.620963470" lon="2.453306780">
        <ele>486.20</ele>
        <time>2014-02-23T09:46:43Z</time>
      </trkpt>
      <trkpt lat="41.620963470" lon="2.453268390">
        <ele>485.60</ele>
        <time>2014-02-23T09:46:44Z</time>
      </trkpt>
      <trkpt lat="41.620965150" lon="2.453231680">
        <ele>485.10</ele>
        <time>2014-02-23T09:46:45Z</time>
      </trkpt>
      <trkpt lat="41.620966820" lon="2.453200160">
        <ele>484.80</ele>
        <time>2014-02-23T09:46:46Z</time>
      </trkpt>
      <trkpt lat="41.620966820" lon="2.453163450">
        <ele>484.70</ele>
        <time>2014-02-23T09:46:47Z</time>
      </trkpt>
      <trkpt lat="41.620970010" lon="2.453131760">
        <ele>484.70</ele>
        <time>2014-02-23T09:46:48Z</time>
      </trkpt>
      <trkpt lat="41.620970010" lon="2.453100080">
        <ele>484.40</ele>
        <time>2014-02-23T09:46:49Z</time>
      </trkpt>
      <trkpt lat="41.620968330" lon="2.453063370">
        <ele>484.30</ele>
        <time>2014-02-23T09:46:50Z</time>
      </trkpt>
      <trkpt lat="41.620973360" lon="2.453026820">
        <ele>483.70</ele>
        <time>2014-02-23T09:46:51Z</time>
      </trkpt>
      <trkpt lat="41.620975040" lon="2.452995140">
        <ele>483.30</ele>
        <time>2014-02-23T09:46:52Z</time>
      </trkpt>
      <trkpt lat="41.620976720" lon="2.452970160">
        <ele>483.10</ele>
        <time>2014-02-23T09:46:53Z</time>
      </trkpt>
      <trkpt lat="41.620978390" lon="2.452946690">
        <ele>482.60</ele>
        <time>2014-02-23T09:46:54Z</time>
      </trkpt>
      <trkpt lat="41.620978390" lon="2.452918360">
        <ele>482.30</ele>
        <time>2014-02-23T09:46:55Z</time>
      </trkpt>
      <trkpt lat="41.620980070" lon="2.452883490">
        <ele>482.30</ele>
        <time>2014-02-23T09:46:56Z</time>
      </trkpt>
      <trkpt lat="41.620985100" lon="2.452848460">
        <ele>482.30</ele>
        <time>2014-02-23T09:46:57Z</time>
      </trkpt>
      <trkpt lat="41.620990130" lon="2.452815100">
        <ele>482.30</ele>
        <time>2014-02-23T09:46:58Z</time>
      </trkpt>
      <trkpt lat="41.620991800" lon="2.452783410">
        <ele>481.80</ele>
        <time>2014-02-23T09:46:59Z</time>
      </trkpt>
      <trkpt lat="41.620998340" lon="2.452751730">
        <ele>481.50</ele>
        <time>2014-02-23T09:47:00Z</time>
      </trkpt>
      <trkpt lat="41.621008400" lon="2.452716690">
        <ele>481.30</ele>
        <time>2014-02-23T09:47:01Z</time>
      </trkpt>
      <trkpt lat="41.621016780" lon="2.452676790">
        <ele>481.10</ele>
        <time>2014-02-23T09:47:02Z</time>
      </trkpt>
      <trkpt lat="41.621023490" lon="2.452633380">
        <ele>480.40</ele>
        <time>2014-02-23T09:47:03Z</time>
      </trkpt>
      <trkpt lat="41.621026670" lon="2.452585100">
        <ele>479.90</ele>
        <time>2014-02-23T09:47:04Z</time>
      </trkpt>
      <trkpt lat="41.621035050" lon="2.452533460">
        <ele>479.60</ele>
        <time>2014-02-23T09:47:05Z</time>
      </trkpt>
      <trkpt lat="41.621045110" lon="2.452486690">
        <ele>479.50</ele>
        <time>2014-02-23T09:47:06Z</time>
      </trkpt>
      <trkpt lat="41.621058350" lon="2.452440090">
        <ele>479.50</ele>
        <time>2014-02-23T09:47:07Z</time>
      </trkpt>
      <trkpt lat="41.621065060" lon="2.452390130">
        <ele>479.20</ele>
        <time>2014-02-23T09:47:08Z</time>
      </trkpt>
      <trkpt lat="41.621068410" lon="2.452340010">
        <ele>479.10</ele>
        <time>2014-02-23T09:47:09Z</time>
      </trkpt>
      <trkpt lat="41.621063380" lon="2.452291730">
        <ele>478.80</ele>
        <time>2014-02-23T09:47:10Z</time>
      </trkpt>
      <trkpt lat="41.621050140" lon="2.452246800">
        <ele>478.60</ele>
        <time>2014-02-23T09:47:11Z</time>
      </trkpt>
      <trkpt lat="41.621030020" lon="2.452208410">
        <ele>478.50</ele>
        <time>2014-02-23T09:47:12Z</time>
      </trkpt>
      <trkpt lat="41.621013430" lon="2.452168350">
        <ele>478.20</ele>
        <time>2014-02-23T09:47:13Z</time>
      </trkpt>
      <trkpt lat="41.620998340" lon="2.452125100">
        <ele>478.00</ele>
        <time>2014-02-23T09:47:14Z</time>
      </trkpt>
      <trkpt lat="41.620990130" lon="2.452083360">
        <ele>477.50</ele>
        <time>2014-02-23T09:47:15Z</time>
      </trkpt>
      <trkpt lat="41.620986770" lon="2.452036750">
        <ele>477.20</ele>
        <time>2014-02-23T09:47:16Z</time>
      </trkpt>
      <trkpt lat="41.620983420" lon="2.451990150">
        <ele>476.90</ele>
        <time>2014-02-23T09:47:17Z</time>
      </trkpt>
      <trkpt lat="41.620980070" lon="2.451943380">
        <ele>476.70</ele>
        <time>2014-02-23T09:47:18Z</time>
      </trkpt>
      <trkpt lat="41.620976720" lon="2.451896770">
        <ele>476.60</ele>
        <time>2014-02-23T09:47:19Z</time>
      </trkpt>
      <trkpt lat="41.620971690" lon="2.451848490">
        <ele>476.30</ele>
        <time>2014-02-23T09:47:20Z</time>
      </trkpt>
      <trkpt lat="41.620968330" lon="2.451796690">
        <ele>476.00</ele>
        <time>2014-02-23T09:47:21Z</time>
      </trkpt>
      <trkpt lat="41.620961800" lon="2.451745060">
        <ele>475.80</ele>
        <time>2014-02-23T09:47:22Z</time>
      </trkpt>
      <trkpt lat="41.620958440" lon="2.451696780">
        <ele>475.70</ele>
        <time>2014-02-23T09:47:23Z</time>
      </trkpt>
      <trkpt lat="41.620956770" lon="2.451643470">
        <ele>475.60</ele>
        <time>2014-02-23T09:47:24Z</time>
      </trkpt>
      <trkpt lat="41.620958440" lon="2.451590000">
        <ele>475.40</ele>
        <time>2014-02-23T09:47:25Z</time>
      </trkpt>
      <trkpt lat="41.620961800" lon="2.451533330">
        <ele>475.20</ele>
        <time>2014-02-23T09:47:26Z</time>
      </trkpt>
      <trkpt lat="41.620966820" lon="2.451483380">
        <ele>474.90</ele>
        <time>2014-02-23T09:47:27Z</time>
      </trkpt>
      <trkpt lat="41.620970010" lon="2.451435100">
        <ele>474.70</ele>
        <time>2014-02-23T09:47:28Z</time>
      </trkpt>
      <trkpt lat="41.620971690" lon="2.451386820">
        <ele>474.10</ele>
        <time>2014-02-23T09:47:29Z</time>
      </trkpt>
      <trkpt lat="41.620975040" lon="2.451338370">
        <ele>473.70</ele>
        <time>2014-02-23T09:47:30Z</time>
      </trkpt>
      <trkpt lat="41.620976720" lon="2.451291770">
        <ele>473.40</ele>
        <time>2014-02-23T09:47:31Z</time>
      </trkpt>
      <trkpt lat="41.620983420" lon="2.451248350">
        <ele>473.40</ele>
        <time>2014-02-23T09:47:32Z</time>
      </trkpt>
      <trkpt lat="41.620988450" lon="2.451208450">
        <ele>473.40</ele>
        <time>2014-02-23T09:47:33Z</time>
      </trkpt>
      <trkpt lat="41.620991800" lon="2.451171740">
        <ele>473.30</ele>
        <time>2014-02-23T09:47:34Z</time>
      </trkpt>
      <trkpt lat="41.620996660" lon="2.451141730">
        <ele>473.10</ele>
        <time>2014-02-23T09:47:35Z</time>
      </trkpt>
      <trkpt lat="41.621001690" lon="2.451113400">
        <ele>473.00</ele>
        <time>2014-02-23T09:47:36Z</time>
      </trkpt>
      <trkpt lat="41.621008400" lon="2.451083390">
        <ele>472.90</ele>
        <time>2014-02-23T09:47:37Z</time>
      </trkpt>
      <trkpt lat="41.621016780" lon="2.451045010">
        <ele>472.90</ele>
        <time>2014-02-23T09:47:38Z</time>
      </trkpt>
      <trkpt lat="41.621026670" lon="2.451006780">
        <ele>472.50</ele>
        <time>2014-02-23T09:47:39Z</time>
      </trkpt>
      <trkpt lat="41.621036730" lon="2.450975100">
        <ele>472.20</ele>
        <time>2014-02-23T09:47:40Z</time>
      </trkpt>
      <trkpt lat="41.621046790" lon="2.450953470">
        <ele>471.90</ele>
        <time>2014-02-23T09:47:41Z</time>
      </trkpt>
      <trkpt lat="41.621058350" lon="2.450943420">
        <ele>471.60</ele>
        <time>2014-02-23T09:47:42Z</time>
      </trkpt>
      <trkpt lat="41.621068410" lon="2.450931680">
        <ele>471.40</ele>
        <time>2014-02-23T09:47:43Z</time>
      </trkpt>
      <trkpt lat="41.621078470" lon="2.450920110">
        <ele>470.80</ele>
        <time>2014-02-23T09:47:44Z</time>
      </trkpt>
      <trkpt lat="41.621088360" lon="2.450906700">
        <ele>470.30</ele>
        <time>2014-02-23T09:47:45Z</time>
      </trkpt>
      <trkpt lat="41.621095070" lon="2.450895140">
        <ele>470.80</ele>
        <time>2014-02-23T09:47:46Z</time>
      </trkpt>
      <trkpt lat="41.621101770" lon="2.450881730">
        <ele>471.10</ele>
        <time>2014-02-23T09:47:47Z</time>
      </trkpt>
      <trkpt lat="41.621108480" lon="2.450866810">
        <ele>470.60</ele>
        <time>2014-02-23T09:47:48Z</time>
      </trkpt>
      <trkpt lat="41.621113340" lon="2.450846690">
        <ele>470.20</ele>
        <time>2014-02-23T09:47:49Z</time>
      </trkpt>
      <trkpt lat="41.621115020" lon="2.450823390">
        <ele>469.80</ele>
        <time>2014-02-23T09:47:50Z</time>
      </trkpt>
      <trkpt lat="41.621110150" lon="2.450796730">
        <ele>469.90</ele>
        <time>2014-02-23T09:47:51Z</time>
      </trkpt>
      <trkpt lat="41.621096740" lon="2.450766730">
        <ele>470.00</ele>
        <time>2014-02-23T09:47:52Z</time>
      </trkpt>
      <trkpt lat="41.621076790" lon="2.450738400">
        <ele>469.50</ele>
        <time>2014-02-23T09:47:53Z</time>
      </trkpt>
      <trkpt lat="41.621053490" lon="2.450711740">
        <ele>469.00</ele>
        <time>2014-02-23T09:47:54Z</time>
      </trkpt>
      <trkpt lat="41.621031700" lon="2.450683410">
        <ele>468.70</ele>
        <time>2014-02-23T09:47:55Z</time>
      </trkpt>
      <trkpt lat="41.621016780" lon="2.450653400">
        <ele>468.40</ele>
        <time>2014-02-23T09:47:56Z</time>
      </trkpt>
      <trkpt lat="41.621010070" lon="2.450625070">
        <ele>468.20</ele>
        <time>2014-02-23T09:47:57Z</time>
      </trkpt>
      <trkpt lat="41.621006720" lon="2.450600090">
        <ele>468.10</ele>
        <time>2014-02-23T09:47:58Z</time>
      </trkpt>
      <trkpt lat="41.621013430" lon="2.450573440">
        <ele>468.00</ele>
        <time>2014-02-23T09:47:59Z</time>
      </trkpt>
      <trkpt lat="41.621026670" lon="2.450550140">
        <ele>468.20</ele>
        <time>2014-02-23T09:48:00Z</time>
      </trkpt>
      <trkpt lat="41.621043430" lon="2.450531700">
        <ele>468.30</ele>
        <time>2014-02-23T09:48:01Z</time>
      </trkpt>
      <trkpt lat="41.621061710" lon="2.450515100">
        <ele>468.40</ele>
        <time>2014-02-23T09:48:02Z</time>
      </trkpt>
      <trkpt lat="41.621076790" lon="2.450500010">
        <ele>468.40</ele>
        <time>2014-02-23T09:48:03Z</time>
      </trkpt>
      <trkpt lat="41.621088360" lon="2.450485090">
        <ele>468.30</ele>
        <time>2014-02-23T09:48:04Z</time>
      </trkpt>
      <trkpt lat="41.621101770" lon="2.450471680">
        <ele>468.80</ele>
        <time>2014-02-23T09:48:05Z</time>
      </trkpt>
      <trkpt lat="41.621115020" lon="2.450450060">
        <ele>469.10</ele>
        <time>2014-02-23T09:48:06Z</time>
      </trkpt>
      <trkpt lat="41.621130100" lon="2.450425080">
        <ele>469.00</ele>
        <time>2014-02-23T09:48:07Z</time>
      </trkpt>
      <trkpt lat="41.621145020" lon="2.450395070">
        <ele>469.00</ele>
        <time>2014-02-23T09:48:08Z</time>
      </trkpt>
      <trkpt lat="41.621160110" lon="2.450361710">
        <ele>469.00</ele>
        <time>2014-02-23T09:48:09Z</time>
      </trkpt>
      <trkpt lat="41.621173350" lon="2.450325000">
        <ele>468.80</ele>
        <time>2014-02-23T09:48:10Z</time>
      </trkpt>
      <trkpt lat="41.621186770" lon="2.450288450">
        <ele>468.60</ele>
        <time>2014-02-23T09:48:11Z</time>
      </trkpt>
      <trkpt lat="41.621196820" lon="2.450253420">
        <ele>468.10</ele>
        <time>2014-02-23T09:48:12Z</time>
      </trkpt>
      <trkpt lat="41.621208390" lon="2.450221730">
        <ele>467.70</ele>
        <time>2014-02-23T09:48:13Z</time>
      </trkpt>
      <trkpt lat="41.621216770" lon="2.450186700">
        <ele>467.90</ele>
        <time>2014-02-23T09:48:14Z</time>
      </trkpt>
      <trkpt lat="41.621225150" lon="2.450153340">
        <ele>468.00</ele>
        <time>2014-02-23T09:48:15Z</time>
      </trkpt>
      <trkpt lat="41.621238400" lon="2.450123330">
        <ele>468.10</ele>
        <time>2014-02-23T09:48:16Z</time>
      </trkpt>
      <trkpt lat="41.621248460" lon="2.450093490">
        <ele>467.80</ele>
        <time>2014-02-23T09:48:17Z</time>
      </trkpt>
      <trkpt lat="41.621258350" lon="2.450063480">
        <ele>467.60</ele>
        <time>2014-02-23T09:48:18Z</time>
      </trkpt>
      <trkpt lat="41.621270080" lon="2.450035150">
        <ele>467.70</ele>
        <time>2014-02-23T09:48:19Z</time>
      </trkpt>
      <trkpt lat="41.621280140" lon="2.450006820">
        <ele>467.70</ele>
        <time>2014-02-23T09:48:20Z</time>
      </trkpt>
      <trkpt lat="41.621290030" lon="2.449980000">
        <ele>467.70</ele>
        <time>2014-02-23T09:48:21Z</time>
      </trkpt>
      <trkpt lat="41.621300090" lon="2.449955020">
        <ele>467.70</ele>
        <time>2014-02-23T09:48:22Z</time>
      </trkpt>
      <trkpt lat="41.621311820" lon="2.449926690">
        <ele>467.60</ele>
        <time>2014-02-23T09:48:23Z</time>
      </trkpt>
      <trkpt lat="41.621318360" lon="2.449900040">
        <ele>467.40</ele>
        <time>2014-02-23T09:48:24Z</time>
      </trkpt>
      <trkpt lat="41.621326740" lon="2.449876740">
        <ele>467.30</ele>
        <time>2014-02-23T09:48:25Z</time>
      </trkpt>
      <trkpt lat="41.621333450" lon="2.449853430">
        <ele>467.20</ele>
        <time>2014-02-23T09:48:26Z</time>
      </trkpt>
      <trkpt lat="41.621340150" lon="2.449828460">
        <ele>467.10</ele>
        <time>2014-02-23T09:48:27Z</time>
      </trkpt>
      <trkpt lat="41.621345020" lon="2.449803480">
        <ele>467.10</ele>
        <time>2014-02-23T09:48:28Z</time>
      </trkpt>
      <trkpt lat="41.621355070" lon="2.449780010">
        <ele>467.00</ele>
        <time>2014-02-23T09:48:29Z</time>
      </trkpt>
      <trkpt lat="41.621365130" lon="2.449755030">
        <ele>467.00</ele>
        <time>2014-02-23T09:48:30Z</time>
      </trkpt>
      <trkpt lat="41.621373350" lon="2.449731730">
        <ele>466.40</ele>
        <time>2014-02-23T09:48:31Z</time>
      </trkpt>
      <trkpt lat="41.621385080" lon="2.449708430">
        <ele>466.00</ele>
        <time>2014-02-23T09:48:32Z</time>
      </trkpt>
      <trkpt lat="41.621395140" lon="2.449681770">
        <ele>466.40</ele>
        <time>2014-02-23T09:48:33Z</time>
      </trkpt>
      <trkpt lat="41.621410060" lon="2.449650090">
        <ele>466.70</ele>
        <time>2014-02-23T09:48:34Z</time>
      </trkpt>
      <trkpt lat="41.621421790" lon="2.449611700">
        <ele>466.90</ele>
        <time>2014-02-23T09:48:35Z</time>
      </trkpt>
      <trkpt lat="41.621435040" lon="2.449573480">
        <ele>466.30</ele>
        <time>2014-02-23T09:48:36Z</time>
      </trkpt>
      <trkpt lat="41.621445100" lon="2.449530060">
        <ele>465.90</ele>
        <time>2014-02-23T09:48:37Z</time>
      </trkpt>
      <trkpt lat="41.621451800" lon="2.449485130">
        <ele>466.30</ele>
        <time>2014-02-23T09:48:38Z</time>
      </trkpt>
      <trkpt lat="41.621461690" lon="2.449438360">
        <ele>466.60</ele>
        <time>2014-02-23T09:48:39Z</time>
      </trkpt>
      <trkpt lat="41.621471750" lon="2.449390080">
        <ele>466.80</ele>
        <time>2014-02-23T09:48:40Z</time>
      </trkpt>
      <trkpt lat="41.621483480" lon="2.449345160">
        <ele>466.40</ele>
        <time>2014-02-23T09:48:41Z</time>
      </trkpt>
      <trkpt lat="41.621491700" lon="2.449295030">
        <ele>466.10</ele>
        <time>2014-02-23T09:48:42Z</time>
      </trkpt>
      <trkpt lat="41.621495050" lon="2.449255130">
        <ele>465.60</ele>
        <time>2014-02-23T09:48:43Z</time>
      </trkpt>
      <trkpt lat="41.621495050" lon="2.449223450">
        <ele>465.20</ele>
        <time>2014-02-23T09:48:44Z</time>
      </trkpt>
      <trkpt lat="41.621485160" lon="2.449190090">
        <ele>465.30</ele>
        <time>2014-02-23T09:48:45Z</time>
      </trkpt>
      <trkpt lat="41.621468400" lon="2.449153380">
        <ele>465.40</ele>
        <time>2014-02-23T09:48:46Z</time>
      </trkpt>
      <trkpt lat="41.621456660" lon="2.449111800">
        <ele>465.50</ele>
        <time>2014-02-23T09:48:47Z</time>
      </trkpt>
      <trkpt lat="41.621446770" lon="2.449070060">
        <ele>465.00</ele>
        <time>2014-02-23T09:48:48Z</time>
      </trkpt>
      <trkpt lat="41.621441740" lon="2.449026810">
        <ele>464.60</ele>
        <time>2014-02-23T09:48:49Z</time>
      </trkpt>
      <trkpt lat="41.621443420" lon="2.448985070">
        <ele>464.80</ele>
        <time>2014-02-23T09:48:50Z</time>
      </trkpt>
      <trkpt lat="41.621448450" lon="2.448941820">
        <ele>464.90</ele>
        <time>2014-02-23T09:48:51Z</time>
      </trkpt>
      <trkpt lat="41.621455150" lon="2.448900080">
        <ele>464.70</ele>
        <time>2014-02-23T09:48:52Z</time>
      </trkpt>
      <trkpt lat="41.621460020" lon="2.448855150">
        <ele>464.60</ele>
        <time>2014-02-23T09:48:53Z</time>
      </trkpt>
      <trkpt lat="41.621466720" lon="2.448808380">
        <ele>464.50</ele>
        <time>2014-02-23T09:48:54Z</time>
      </trkpt>
      <trkpt lat="41.621471750" lon="2.448760100">
        <ele>464.30</ele>
        <time>2014-02-23T09:48:55Z</time>
      </trkpt>
      <trkpt lat="41.621480130" lon="2.448713500">
        <ele>464.10</ele>
        <time>2014-02-23T09:48:56Z</time>
      </trkpt>
      <trkpt lat="41.621488350" lon="2.448668400">
        <ele>464.00</ele>
        <time>2014-02-23T09:48:57Z</time>
      </trkpt>
      <trkpt lat="41.621498400" lon="2.448628330">
        <ele>464.00</ele>
        <time>2014-02-23T09:48:58Z</time>
      </trkpt>
      <trkpt lat="41.621508460" lon="2.448585080">
        <ele>463.90</ele>
        <time>2014-02-23T09:48:59Z</time>
      </trkpt>
      <trkpt lat="41.621518350" lon="2.448543340">
        <ele>464.10</ele>
        <time>2014-02-23T09:49:00Z</time>
      </trkpt>
      <trkpt lat="41.621530090" lon="2.448505120">
        <ele>464.20</ele>
        <time>2014-02-23T09:49:01Z</time>
      </trkpt>
      <trkpt lat="41.621541820" lon="2.448465060">
        <ele>464.60</ele>
        <time>2014-02-23T09:49:02Z</time>
      </trkpt>
      <trkpt lat="41.621548360" lon="2.448430020">
        <ele>464.90</ele>
        <time>2014-02-23T09:49:03Z</time>
      </trkpt>
      <trkpt lat="41.621555070" lon="2.448396830">
        <ele>464.60</ele>
        <time>2014-02-23T09:49:04Z</time>
      </trkpt>
      <trkpt lat="41.621560100" lon="2.448365140">
        <ele>464.40</ele>
        <time>2014-02-23T09:49:05Z</time>
      </trkpt>
      <trkpt lat="41.621563450" lon="2.448330110">
        <ele>464.30</ele>
        <time>2014-02-23T09:49:06Z</time>
      </trkpt>
      <trkpt lat="41.621566800" lon="2.448295070">
        <ele>464.50</ele>
        <time>2014-02-23T09:49:07Z</time>
      </trkpt>
      <trkpt lat="41.621570150" lon="2.448256680">
        <ele>464.60</ele>
        <time>2014-02-23T09:49:08Z</time>
      </trkpt>
      <trkpt lat="41.621571660" lon="2.448223490">
        <ele>464.80</ele>
        <time>2014-02-23T09:49:09Z</time>
      </trkpt>
      <trkpt lat="41.621576690" lon="2.448190130">
        <ele>465.00</ele>
        <time>2014-02-23T09:49:10Z</time>
      </trkpt>
      <trkpt lat="41.621581720" lon="2.448163470">
        <ele>465.10</ele>
        <time>2014-02-23T09:49:11Z</time>
      </trkpt>
      <trkpt lat="41.621590100" lon="2.448136820">
        <ele>465.20</ele>
        <time>2014-02-23T09:49:12Z</time>
      </trkpt>
      <trkpt lat="41.621593460" lon="2.448111670">
        <ele>465.30</ele>
        <time>2014-02-23T09:49:13Z</time>
      </trkpt>
      <trkpt lat="41.621593460" lon="2.448083340">
        <ele>465.40</ele>
        <time>2014-02-23T09:49:14Z</time>
      </trkpt>
      <trkpt lat="41.621595130" lon="2.448055010">
        <ele>465.40</ele>
        <time>2014-02-23T09:49:15Z</time>
      </trkpt>
      <trkpt lat="41.621598480" lon="2.448028360">
        <ele>465.50</ele>
        <time>2014-02-23T09:49:16Z</time>
      </trkpt>
      <trkpt lat="41.621601670" lon="2.448000030">
        <ele>465.60</ele>
        <time>2014-02-23T09:49:17Z</time>
      </trkpt>
      <trkpt lat="41.621603350" lon="2.447970020">
        <ele>465.70</ele>
        <time>2014-02-23T09:49:18Z</time>
      </trkpt>
      <trkpt lat="41.621606700" lon="2.447940010">
        <ele>466.00</ele>
        <time>2014-02-23T09:49:19Z</time>
      </trkpt>
      <trkpt lat="41.621605020" lon="2.447910010">
        <ele>466.20</ele>
        <time>2014-02-23T09:49:20Z</time>
      </trkpt>
      <trkpt lat="41.621603350" lon="2.447883350">
        <ele>466.10</ele>
        <time>2014-02-23T09:49:21Z</time>
      </trkpt>
      <trkpt lat="41.621600160" lon="2.447855020">
        <ele>466.10</ele>
        <time>2014-02-23T09:49:22Z</time>
      </trkpt>
      <trkpt lat="41.621595130" lon="2.447825010">
        <ele>466.40</ele>
        <time>2014-02-23T09:49:23Z</time>
      </trkpt>
      <trkpt lat="41.621593460" lon="2.447803390">
        <ele>466.60</ele>
        <time>2014-02-23T09:49:24Z</time>
      </trkpt>
      <trkpt lat="41.621591780" lon="2.447788470">
        <ele>466.70</ele>
        <time>2014-02-23T09:49:25Z</time>
      </trkpt>
      <trkpt lat="41.621588430" lon="2.447773380">
        <ele>466.70</ele>
        <time>2014-02-23T09:49:26Z</time>
      </trkpt>
      <trkpt lat="41.621583400" lon="2.447758460">
        <ele>466.70</ele>
        <time>2014-02-23T09:49:27Z</time>
      </trkpt>
      <trkpt lat="41.621573340" lon="2.447738340">
        <ele>467.30</ele>
        <time>2014-02-23T09:49:28Z</time>
      </trkpt>
      <trkpt lat="41.621563450" lon="2.447718400">
        <ele>467.70</ele>
        <time>2014-02-23T09:49:29Z</time>
      </trkpt>
      <trkpt lat="41.621551710" lon="2.447696770">
        <ele>468.10</ele>
        <time>2014-02-23T09:49:30Z</time>
      </trkpt>
      <trkpt lat="41.621543330" lon="2.447673470">
        <ele>468.40</ele>
        <time>2014-02-23T09:49:31Z</time>
      </trkpt>
      <trkpt lat="41.621535120" lon="2.447650000">
        <ele>468.70</ele>
        <time>2014-02-23T09:49:32Z</time>
      </trkpt>
      <trkpt lat="41.621525060" lon="2.447626700">
        <ele>468.30</ele>
        <time>2014-02-23T09:49:33Z</time>
      </trkpt>
      <trkpt lat="41.621513490" lon="2.447606750">
        <ele>468.00</ele>
        <time>2014-02-23T09:49:34Z</time>
      </trkpt>
      <trkpt lat="41.621503430" lon="2.447585120">
        <ele>468.20</ele>
        <time>2014-02-23T09:49:35Z</time>
      </trkpt>
      <trkpt lat="41.621495050" lon="2.447560150">
        <ele>468.40</ele>
        <time>2014-02-23T09:49:36Z</time>
      </trkpt>
      <trkpt lat="41.621483480" lon="2.447536680">
        <ele>468.50</ele>
        <time>2014-02-23T09:49:37Z</time>
      </trkpt>
      <trkpt lat="41.621478460" lon="2.447510020">
        <ele>468.50</ele>
        <time>2014-02-23T09:49:38Z</time>
      </trkpt>
      <trkpt lat="41.621475100" lon="2.447483370">
        <ele>468.50</ele>
        <time>2014-02-23T09:49:39Z</time>
      </trkpt>
      <trkpt lat="41.621470070" lon="2.447455040">
        <ele>468.70</ele>
        <time>2014-02-23T09:49:40Z</time>
      </trkpt>
      <trkpt lat="41.621468400" lon="2.447425030">
        <ele>468.80</ele>
        <time>2014-02-23T09:49:41Z</time>
      </trkpt>
      <trkpt lat="41.621466720" lon="2.447396700">
        <ele>469.20</ele>
        <time>2014-02-23T09:49:42Z</time>
      </trkpt>
      <trkpt lat="41.621466720" lon="2.447370040">
        <ele>469.50</ele>
        <time>2014-02-23T09:49:43Z</time>
      </trkpt>
      <trkpt lat="41.621468400" lon="2.447345070">
        <ele>469.70</ele>
        <time>2014-02-23T09:49:44Z</time>
      </trkpt>
      <trkpt lat="41.621466720" lon="2.447318410">
        <ele>469.50</ele>
        <time>2014-02-23T09:49:45Z</time>
      </trkpt>
      <trkpt lat="41.621465040" lon="2.447293430">
        <ele>469.40</ele>
        <time>2014-02-23T09:49:46Z</time>
      </trkpt>
      <trkpt lat="41.621461690" lon="2.447270130">
        <ele>469.60</ele>
        <time>2014-02-23T09:49:47Z</time>
      </trkpt>
      <trkpt lat="41.621456660" lon="2.447245150">
        <ele>469.70</ele>
        <time>2014-02-23T09:49:48Z</time>
      </trkpt>
      <trkpt lat="41.621451800" lon="2.447220010">
        <ele>469.70</ele>
        <time>2014-02-23T09:49:49Z</time>
      </trkpt>
      <trkpt lat="41.621445100" lon="2.447198380">
        <ele>469.70</ele>
        <time>2014-02-23T09:49:50Z</time>
      </trkpt>
      <trkpt lat="41.621438390" lon="2.447176760">
        <ele>469.70</ele>
        <time>2014-02-23T09:49:51Z</time>
      </trkpt>
      <trkpt lat="41.621428330" lon="2.447156810">
        <ele>469.90</ele>
        <time>2014-02-23T09:49:52Z</time>
      </trkpt>
      <trkpt lat="41.621416760" lon="2.447136690">
        <ele>470.10</ele>
        <time>2014-02-23T09:49:53Z</time>
      </trkpt>
      <trkpt lat="41.621403350" lon="2.447118420">
        <ele>470.40</ele>
        <time>2014-02-23T09:49:54Z</time>
      </trkpt>
      <trkpt lat="41.621391790" lon="2.447103330">
        <ele>470.70</ele>
        <time>2014-02-23T09:49:55Z</time>
      </trkpt>
      <trkpt lat="41.621380050" lon="2.447088410">
        <ele>470.90</ele>
        <time>2014-02-23T09:49:56Z</time>
      </trkpt>
      <trkpt lat="41.621371670" lon="2.447071820">
        <ele>471.00</ele>
        <time>2014-02-23T09:49:57Z</time>
      </trkpt>
      <trkpt lat="41.621363460" lon="2.447056730">
        <ele>471.10</ele>
        <time>2014-02-23T09:49:58Z</time>
      </trkpt>
      <trkpt lat="41.621351720" lon="2.447043480">
        <ele>471.60</ele>
        <time>2014-02-23T09:49:59Z</time>
      </trkpt>
      <trkpt lat="41.621340150" lon="2.447030070">
        <ele>472.00</ele>
        <time>2014-02-23T09:50:00Z</time>
      </trkpt>
      <trkpt lat="41.621328420" lon="2.447016660">
        <ele>472.20</ele>
        <time>2014-02-23T09:50:01Z</time>
      </trkpt>
      <trkpt lat="41.621315010" lon="2.447000070">
        <ele>472.40</ele>
        <time>2014-02-23T09:50:02Z</time>
      </trkpt>
      <trkpt lat="41.621300090" lon="2.446985150">
        <ele>472.50</ele>
        <time>2014-02-23T09:50:03Z</time>
      </trkpt>
      <trkpt lat="41.621283490" lon="2.446968380">
        <ele>472.60</ele>
        <time>2014-02-23T09:50:04Z</time>
      </trkpt>
      <trkpt lat="41.621268410" lon="2.446955140">
        <ele>472.70</ele>
        <time>2014-02-23T09:50:05Z</time>
      </trkpt>
      <trkpt lat="41.621255160" lon="2.446941730">
        <ele>472.60</ele>
        <time>2014-02-23T09:50:06Z</time>
      </trkpt>
      <trkpt lat="41.621241750" lon="2.446923460">
        <ele>472.50</ele>
        <time>2014-02-23T09:50:07Z</time>
      </trkpt>
      <trkpt lat="41.621226660" lon="2.446906690">
        <ele>472.80</ele>
        <time>2014-02-23T09:50:08Z</time>
      </trkpt>
      <trkpt lat="41.621211740" lon="2.446893450">
        <ele>473.10</ele>
        <time>2014-02-23T09:50:09Z</time>
      </trkpt>
      <trkpt lat="41.621195150" lon="2.446878360">
        <ele>473.20</ele>
        <time>2014-02-23T09:50:10Z</time>
      </trkpt>
      <trkpt lat="41.621180060" lon="2.446861770">
        <ele>473.30</ele>
        <time>2014-02-23T09:50:11Z</time>
      </trkpt>
      <trkpt lat="41.621166820" lon="2.446845000">
        <ele>473.30</ele>
        <time>2014-02-23T09:50:12Z</time>
      </trkpt>
      <trkpt lat="41.621151730" lon="2.446831760">
        <ele>473.70</ele>
        <time>2014-02-23T09:50:13Z</time>
      </trkpt>
      <trkpt lat="41.621136810" lon="2.446820020">
        <ele>473.90</ele>
        <time>2014-02-23T09:50:14Z</time>
      </trkpt>
      <trkpt lat="41.621123400" lon="2.446808460">
        <ele>474.10</ele>
        <time>2014-02-23T09:50:15Z</time>
      </trkpt>
      <trkpt lat="41.621106800" lon="2.446795050">
        <ele>474.10</ele>
        <time>2014-02-23T09:50:16Z</time>
      </trkpt>
      <trkpt lat="41.621090040" lon="2.446785150">
        <ele>474.20</ele>
        <time>2014-02-23T09:50:17Z</time>
      </trkpt>
      <trkpt lat="41.621075120" lon="2.446771740">
        <ele>473.80</ele>
        <time>2014-02-23T09:50:18Z</time>
      </trkpt>
      <trkpt lat="41.621061710" lon="2.446755150">
        <ele>473.60</ele>
        <time>2014-02-23T09:50:19Z</time>
      </trkpt>
      <trkpt lat="41.621045110" lon="2.446731680">
        <ele>473.60</ele>
        <time>2014-02-23T09:50:20Z</time>
      </trkpt>
      <trkpt lat="41.621020130" lon="2.446700160">
        <ele>473.50</ele>
        <time>2014-02-23T09:50:21Z</time>
      </trkpt>
      <trkpt lat="41.620995160" lon="2.446668480">
        <ele>473.50</ele>
        <time>2014-02-23T09:50:22Z</time>
      </trkpt>
      <trkpt lat="41.620971690" lon="2.446643330">
        <ele>473.00</ele>
        <time>2014-02-23T09:50:23Z</time>
      </trkpt>
      <trkpt lat="41.620946710" lon="2.446625060">
        <ele>472.60</ele>
        <time>2014-02-23T09:50:24Z</time>
      </trkpt>
      <trkpt lat="41.620920050" lon="2.446608460">
        <ele>472.70</ele>
        <time>2014-02-23T09:50:25Z</time>
      </trkpt>
      <trkpt lat="41.620891720" lon="2.446595050">
        <ele>472.70</ele>
        <time>2014-02-23T09:50:26Z</time>
      </trkpt>
      <trkpt lat="41.620858360" lon="2.446588350">
        <ele>472.40</ele>
        <time>2014-02-23T09:50:27Z</time>
      </trkpt>
      <trkpt lat="41.620825000" lon="2.446588350">
        <ele>472.20</ele>
        <time>2014-02-23T09:50:28Z</time>
      </trkpt>
      <trkpt lat="41.620793490" lon="2.446590020">
        <ele>472.00</ele>
        <time>2014-02-23T09:50:29Z</time>
      </trkpt>
      <trkpt lat="41.620763480" lon="2.446596730">
        <ele>471.70</ele>
        <time>2014-02-23T09:50:30Z</time>
      </trkpt>
      <trkpt lat="41.620733470" lon="2.446598410">
        <ele>471.50</ele>
        <time>2014-02-23T09:50:31Z</time>
      </trkpt>
      <trkpt lat="41.620703460" lon="2.446596730">
        <ele>470.60</ele>
        <time>2014-02-23T09:50:32Z</time>
      </trkpt>
      <trkpt lat="41.620673460" lon="2.446593380">
        <ele>469.90</ele>
        <time>2014-02-23T09:50:33Z</time>
      </trkpt>
      <trkpt lat="41.620641770" lon="2.446583490">
        <ele>469.40</ele>
        <time>2014-02-23T09:50:34Z</time>
      </trkpt>
      <trkpt lat="41.620610090" lon="2.446568400">
        <ele>469.40</ele>
        <time>2014-02-23T09:50:35Z</time>
      </trkpt>
      <trkpt lat="41.620578410" lon="2.446543420">
        <ele>469.30</ele>
        <time>2014-02-23T09:50:36Z</time>
      </trkpt>
      <trkpt lat="41.620551750" lon="2.446513410">
        <ele>469.20</ele>
        <time>2014-02-23T09:50:37Z</time>
      </trkpt>
      <trkpt lat="41.620526770" lon="2.446483410">
        <ele>469.20</ele>
        <time>2014-02-23T09:50:38Z</time>
      </trkpt>
      <trkpt lat="41.620506830" lon="2.446451720">
        <ele>468.80</ele>
        <time>2014-02-23T09:50:39Z</time>
      </trkpt>
      <trkpt lat="41.620485030" lon="2.446420040">
        <ele>468.50</ele>
        <time>2014-02-23T09:50:40Z</time>
      </trkpt>
      <trkpt lat="41.620458380" lon="2.446390030">
        <ele>468.20</ele>
        <time>2014-02-23T09:50:41Z</time>
      </trkpt>
      <trkpt lat="41.620431720" lon="2.446360020">
        <ele>468.30</ele>
        <time>2014-02-23T09:50:42Z</time>
      </trkpt>
      <trkpt lat="41.620408420" lon="2.446333370">
        <ele>468.30</ele>
        <time>2014-02-23T09:50:43Z</time>
      </trkpt>
      <trkpt lat="41.620383440" lon="2.446308390">
        <ele>468.40</ele>
        <time>2014-02-23T09:50:44Z</time>
      </trkpt>
      <trkpt lat="41.620355110" lon="2.446285090">
        <ele>468.40</ele>
        <time>2014-02-23T09:50:45Z</time>
      </trkpt>
      <trkpt lat="41.620328460" lon="2.446260110">
        <ele>467.90</ele>
        <time>2014-02-23T09:50:46Z</time>
      </trkpt>
      <trkpt lat="41.620303480" lon="2.446238490">
        <ele>467.50</ele>
        <time>2014-02-23T09:50:47Z</time>
      </trkpt>
      <trkpt lat="41.620278330" lon="2.446216690">
        <ele>467.10</ele>
        <time>2014-02-23T09:50:48Z</time>
      </trkpt>
      <trkpt lat="41.620253360" lon="2.446198420">
        <ele>466.80</ele>
        <time>2014-02-23T09:50:49Z</time>
      </trkpt>
      <trkpt lat="41.620230060" lon="2.446178470">
        <ele>466.60</ele>
        <time>2014-02-23T09:50:50Z</time>
      </trkpt>
      <trkpt lat="41.620205080" lon="2.446156680">
        <ele>466.30</ele>
        <time>2014-02-23T09:50:51Z</time>
      </trkpt>
      <trkpt lat="41.620178420" lon="2.446140080">
        <ele>466.10</ele>
        <time>2014-02-23T09:50:52Z</time>
      </trkpt>
      <trkpt lat="41.620151770" lon="2.446128350">
        <ele>466.00</ele>
        <time>2014-02-23T09:50:53Z</time>
      </trkpt>
      <trkpt lat="41.620125110" lon="2.446116780">
        <ele>466.10</ele>
        <time>2014-02-23T09:50:54Z</time>
      </trkpt>
      <trkpt lat="41.620096780" lon="2.446103370">
        <ele>466.20</ele>
        <time>2014-02-23T09:50:55Z</time>
      </trkpt>
      <trkpt lat="41.620071800" lon="2.446103370">
        <ele>466.20</ele>
        <time>2014-02-23T09:50:56Z</time>
      </trkpt>
      <trkpt lat="41.620053360" lon="2.446111750">
        <ele>466.20</ele>
        <time>2014-02-23T09:50:57Z</time>
      </trkpt>
      <trkpt lat="41.620038440" lon="2.446123490">
        <ele>466.10</ele>
        <time>2014-02-23T09:50:58Z</time>
      </trkpt>
      <trkpt lat="41.620026710" lon="2.446143440">
        <ele>466.00</ele>
        <time>2014-02-23T09:50:59Z</time>
      </trkpt>
      <trkpt lat="41.620018500" lon="2.446166740">
        <ele>466.00</ele>
        <time>2014-02-23T09:51:00Z</time>
      </trkpt>
      <trkpt lat="41.620003410" lon="2.446188360">
        <ele>465.80</ele>
        <time>2014-02-23T09:51:01Z</time>
      </trkpt>
      <trkpt lat="41.619986810" lon="2.446213340">
        <ele>465.70</ele>
        <time>2014-02-23T09:51:02Z</time>
      </trkpt>
      <trkpt lat="41.619966700" lon="2.446230100">
        <ele>465.70</ele>
        <time>2014-02-23T09:51:03Z</time>
      </trkpt>
      <trkpt lat="41.619943390" lon="2.446243350">
        <ele>465.60</ele>
        <time>2014-02-23T09:51:04Z</time>
      </trkpt>
      <trkpt lat="41.619915060" lon="2.446250050">
        <ele>465.60</ele>
        <time>2014-02-23T09:51:05Z</time>
      </trkpt>
      <trkpt lat="41.619885060" lon="2.446243350">
        <ele>465.20</ele>
        <time>2014-02-23T09:51:06Z</time>
      </trkpt>
      <trkpt lat="41.619853370" lon="2.446230100">
        <ele>464.90</ele>
        <time>2014-02-23T09:51:07Z</time>
      </trkpt>
      <trkpt lat="41.619826720" lon="2.446205130">
        <ele>464.40</ele>
        <time>2014-02-23T09:51:08Z</time>
      </trkpt>
      <trkpt lat="41.619801740" lon="2.446180150">
        <ele>464.10</ele>
        <time>2014-02-23T09:51:09Z</time>
      </trkpt>
      <trkpt lat="41.619780110" lon="2.446153490">
        <ele>463.50</ele>
        <time>2014-02-23T09:51:10Z</time>
      </trkpt>
      <trkpt lat="41.619765030" lon="2.446115110">
        <ele>463.10</ele>
        <time>2014-02-23T09:51:11Z</time>
      </trkpt>
      <trkpt lat="41.619761670" lon="2.446070010">
        <ele>462.80</ele>
        <time>2014-02-23T09:51:12Z</time>
      </trkpt>
      <trkpt lat="41.619765030" lon="2.446018380">
        <ele>462.80</ele>
        <time>2014-02-23T09:51:13Z</time>
      </trkpt>
      <trkpt lat="41.619763350" lon="2.445970100">
        <ele>462.80</ele>
        <time>2014-02-23T09:51:14Z</time>
      </trkpt>
      <trkpt lat="41.619760000" lon="2.445926680">
        <ele>462.20</ele>
        <time>2014-02-23T09:51:15Z</time>
      </trkpt>
      <trkpt lat="41.619750110" lon="2.445891810">
        <ele>461.80</ele>
        <time>2014-02-23T09:51:16Z</time>
      </trkpt>
      <trkpt lat="41.619733340" lon="2.445866670">
        <ele>461.40</ele>
        <time>2014-02-23T09:51:17Z</time>
      </trkpt>
      <trkpt lat="41.619711720" lon="2.445850070">
        <ele>461.00</ele>
        <time>2014-02-23T09:51:18Z</time>
      </trkpt>
      <trkpt lat="41.619693450" lon="2.445853420">
        <ele>460.80</ele>
        <time>2014-02-23T09:51:19Z</time>
      </trkpt>
      <trkpt lat="41.619670140" lon="2.445866670">
        <ele>460.70</ele>
        <time>2014-02-23T09:51:20Z</time>
      </trkpt>
      <trkpt lat="41.619648350" lon="2.445890130">
        <ele>460.70</ele>
        <time>2014-02-23T09:51:21Z</time>
      </trkpt>
      <trkpt lat="41.619628400" lon="2.445915110">
        <ele>460.40</ele>
        <time>2014-02-23T09:51:22Z</time>
      </trkpt>
      <trkpt lat="41.619606780" lon="2.445936740">
        <ele>460.20</ele>
        <time>2014-02-23T09:51:23Z</time>
      </trkpt>
      <trkpt lat="41.619580120" lon="2.445956690">
        <ele>459.90</ele>
        <time>2014-02-23T09:51:24Z</time>
      </trkpt>
      <trkpt lat="41.619551790" lon="2.445970100">
        <ele>459.60</ele>
        <time>2014-02-23T09:51:25Z</time>
      </trkpt>
      <trkpt lat="41.619523460" lon="2.445973450">
        <ele>459.40</ele>
        <time>2014-02-23T09:51:26Z</time>
      </trkpt>
      <trkpt lat="41.619491780" lon="2.445970100">
        <ele>458.70</ele>
        <time>2014-02-23T09:51:27Z</time>
      </trkpt>
      <trkpt lat="41.619463450" lon="2.445956690">
        <ele>458.20</ele>
        <time>2014-02-23T09:51:28Z</time>
      </trkpt>
      <trkpt lat="41.619440140" lon="2.445938410">
        <ele>458.00</ele>
        <time>2014-02-23T09:51:29Z</time>
      </trkpt>
      <trkpt lat="41.619423380" lon="2.445916790">
        <ele>457.80</ele>
        <time>2014-02-23T09:51:30Z</time>
      </trkpt>
      <trkpt lat="41.619413490" lon="2.445901700">
        <ele>457.70</ele>
        <time>2014-02-23T09:51:31Z</time>
      </trkpt>
      <trkpt lat="41.619406780" lon="2.445895000">
        <ele>457.10</ele>
        <time>2014-02-23T09:51:32Z</time>
      </trkpt>
      <trkpt lat="41.619403430" lon="2.445895000">
        <ele>456.70</ele>
        <time>2014-02-23T09:51:33Z</time>
      </trkpt>
      <trkpt lat="41.619403430" lon="2.445893490">
        <ele>456.50</ele>
        <time>2014-02-23T09:51:34Z</time>
      </trkpt>
      <trkpt lat="41.619403430" lon="2.445890130">
        <ele>456.30</ele>
        <time>2014-02-23T09:51:35Z</time>
      </trkpt>
      <trkpt lat="41.619401760" lon="2.445888460">
        <ele>456.30</ele>
        <time>2014-02-23T09:51:36Z</time>
      </trkpt>
      <trkpt lat="41.619403430" lon="2.445890130">
        <ele>456.20</ele>
        <time>2014-02-23T09:51:37Z</time>
      </trkpt>
      <trkpt lat="41.619405110" lon="2.445890130">
        <ele>456.20</ele>
        <time>2014-02-23T09:51:38Z</time>
      </trkpt>
      <trkpt lat="41.619406780" lon="2.445888460">
        <ele>456.60</ele>
        <time>2014-02-23T09:51:39Z</time>
      </trkpt>
      <trkpt lat="41.619405110" lon="2.445888460">
        <ele>456.90</ele>
        <time>2014-02-23T09:51:40Z</time>
      </trkpt>
      <trkpt lat="41.619405110" lon="2.445888460">
        <ele>456.30</ele>
        <time>2014-02-23T09:51:41Z</time>
      </trkpt>
      <trkpt lat="41.619405110" lon="2.445888460">
        <ele>455.90</ele>
        <time>2014-02-23T09:51:42Z</time>
      </trkpt>
      <trkpt lat="41.619403430" lon="2.445888460">
        <ele>456.00</ele>
        <time>2014-02-23T09:51:43Z</time>
      </trkpt>
      <trkpt lat="41.619403430" lon="2.445886780">
        <ele>456.20</ele>
        <time>2014-02-23T09:51:44Z</time>
      </trkpt>
      <trkpt lat="41.619403430" lon="2.445886780">
        <ele>456.20</ele>
        <time>2014-02-23T09:51:45Z</time>
      </trkpt>
      <trkpt lat="41.619403430" lon="2.445886780">
        <ele>456.40</ele>
        <time>2014-02-23T09:51:46Z</time>
      </trkpt>
      <trkpt lat="41.619401760" lon="2.445885110">
        <ele>456.50</ele>
        <time>2014-02-23T09:51:47Z</time>
      </trkpt>
      <trkpt lat="41.619401760" lon="2.445885110">
        <ele>456.50</ele>
        <time>2014-02-23T09:51:48Z</time>
      </trkpt>
      <trkpt lat="41.619401760" lon="2.445883430">
        <ele>456.50</ele>
        <time>2014-02-23T09:51:49Z</time>
      </trkpt>
      <trkpt lat="41.619401760" lon="2.445883430">
        <ele>456.50</ele>
        <time>2014-02-23T09:51:50Z</time>
      </trkpt>
      <trkpt lat="41.619401760" lon="2.445883430">
        <ele>456.30</ele>
        <time>2014-02-23T09:51:51Z</time>
      </trkpt>
      <trkpt lat="41.619400080" lon="2.445883430">
        <ele>456.20</ele>
        <time>2014-02-23T09:51:52Z</time>
      </trkpt>
      <trkpt lat="41.619400080" lon="2.445883430">
        <ele>456.20</ele>
        <time>2014-02-23T09:51:53Z</time>
      </trkpt>
      <trkpt lat="41.619400080" lon="2.445883430">
        <ele>456.20</ele>
        <time>2014-02-23T09:51:54Z</time>
      </trkpt>
      <trkpt lat="41.619400080" lon="2.445883430">
        <ele>456.00</ele>
        <time>2014-02-23T09:51:55Z</time>
      </trkpt>
      <trkpt lat="41.619398400" lon="2.445883430">
        <ele>455.80</ele>
        <time>2014-02-23T09:51:56Z</time>
      </trkpt>
      <trkpt lat="41.619398400" lon="2.445883430">
        <ele>455.70</ele>
        <time>2014-02-23T09:51:57Z</time>
      </trkpt>
      <trkpt lat="41.619398400" lon="2.445883430">
        <ele>455.70</ele>
        <time>2014-02-23T09:51:58Z</time>
      </trkpt>
      <trkpt lat="41.619396730" lon="2.445883430">
        <ele>455.80</ele>
        <time>2014-02-23T09:51:59Z</time>
      </trkpt>
      <trkpt lat="41.619396730" lon="2.445883430">
        <ele>456.00</ele>
        <time>2014-02-23T09:52:00Z</time>
      </trkpt>
      <trkpt lat="41.619395050" lon="2.445883430">
        <ele>456.10</ele>
        <time>2014-02-23T09:52:01Z</time>
      </trkpt>
      <trkpt lat="41.619393370" lon="2.445883430">
        <ele>456.40</ele>
        <time>2014-02-23T09:52:02Z</time>
      </trkpt>
      <trkpt lat="41.619393370" lon="2.445883430">
        <ele>456.60</ele>
        <time>2014-02-23T09:52:03Z</time>
      </trkpt>
      <trkpt lat="41.619391700" lon="2.445883430">
        <ele>456.80</ele>
        <time>2014-02-23T09:52:04Z</time>
      </trkpt>
      <trkpt lat="41.619391700" lon="2.445883430">
        <ele>456.50</ele>
        <time>2014-02-23T09:52:05Z</time>
      </trkpt>
      <trkpt lat="41.619390020" lon="2.445885110">
        <ele>456.30</ele>
        <time>2014-02-23T09:52:06Z</time>
      </trkpt>
      <trkpt lat="41.619390020" lon="2.445885110">
        <ele>456.10</ele>
        <time>2014-02-23T09:52:07Z</time>
      </trkpt>
      <trkpt lat="41.619388340" lon="2.445885110">
        <ele>456.00</ele>
        <time>2014-02-23T09:52:08Z</time>
      </trkpt>
      <trkpt lat="41.619388340" lon="2.445885110">
        <ele>456.00</ele>
        <time>2014-02-23T09:52:09Z</time>
      </trkpt>
      <trkpt lat="41.619386670" lon="2.445885110">
        <ele>455.90</ele>
        <time>2014-02-23T09:52:10Z</time>
      </trkpt>
      <trkpt lat="41.619386670" lon="2.445886780">
        <ele>455.90</ele>
        <time>2014-02-23T09:52:11Z</time>
      </trkpt>
      <trkpt lat="41.619385160" lon="2.445886780">
        <ele>456.00</ele>
        <time>2014-02-23T09:52:12Z</time>
      </trkpt>
      <trkpt lat="41.619385160" lon="2.445886780">
        <ele>456.10</ele>
        <time>2014-02-23T09:52:13Z</time>
      </trkpt>
      <trkpt lat="41.619383480" lon="2.445888460">
        <ele>455.90</ele>
        <time>2014-02-23T09:52:14Z</time>
      </trkpt>
      <trkpt lat="41.619383480" lon="2.445888460">
        <ele>455.70</ele>
        <time>2014-02-23T09:52:15Z</time>
      </trkpt>
      <trkpt lat="41.619381810" lon="2.445888460">
        <ele>455.50</ele>
        <time>2014-02-23T09:52:16Z</time>
      </trkpt>
      <trkpt lat="41.619381810" lon="2.445890130">
        <ele>455.50</ele>
        <time>2014-02-23T09:52:17Z</time>
      </trkpt>
      <trkpt lat="41.619381810" lon="2.445890130">
        <ele>455.40</ele>
        <time>2014-02-23T09:52:18Z</time>
      </trkpt>
      <trkpt lat="41.619380130" lon="2.445890130">
        <ele>455.70</ele>
        <time>2014-02-23T09:52:19Z</time>
      </trkpt>
      <trkpt lat="41.619380130" lon="2.445891810">
        <ele>455.90</ele>
        <time>2014-02-23T09:52:20Z</time>
      </trkpt>
      <trkpt lat="41.619380130" lon="2.445891810">
        <ele>456.20</ele>
        <time>2014-02-23T09:52:21Z</time>
      </trkpt>
      <trkpt lat="41.619378450" lon="2.445893490">
        <ele>456.40</ele>
        <time>2014-02-23T09:52:22Z</time>
      </trkpt>
      <trkpt lat="41.619378450" lon="2.445893490">
        <ele>456.60</ele>
        <time>2014-02-23T09:52:23Z</time>
      </trkpt>
      <trkpt lat="41.619378450" lon="2.445893490">
        <ele>456.30</ele>
        <time>2014-02-23T09:52:24Z</time>
      </trkpt>
      <trkpt lat="41.619376780" lon="2.445895000">
        <ele>456.20</ele>
        <time>2014-02-23T09:52:25Z</time>
      </trkpt>
      <trkpt lat="41.619376780" lon="2.445895000">
        <ele>456.30</ele>
        <time>2014-02-23T09:52:26Z</time>
      </trkpt>
      <trkpt lat="41.619376780" lon="2.445895000">
        <ele>456.40</ele>
        <time>2014-02-23T09:52:27Z</time>
      </trkpt>
      <trkpt lat="41.619376780" lon="2.445896670">
        <ele>456.60</ele>
        <time>2014-02-23T09:52:28Z</time>
      </trkpt>
      <trkpt lat="41.619375100" lon="2.445896670">
        <ele>456.80</ele>
        <time>2014-02-23T09:52:29Z</time>
      </trkpt>
      <trkpt lat="41.619375100" lon="2.445896670">
        <ele>456.90</ele>
        <time>2014-02-23T09:52:30Z</time>
      </trkpt>
      <trkpt lat="41.619375100" lon="2.445898350">
        <ele>456.90</ele>
        <time>2014-02-23T09:52:31Z</time>
      </trkpt>
      <trkpt lat="41.619373420" lon="2.445898350">
        <ele>456.90</ele>
        <time>2014-02-23T09:52:32Z</time>
      </trkpt>
      <trkpt lat="41.619373420" lon="2.445898350">
        <ele>456.50</ele>
        <time>2014-02-23T09:52:33Z</time>
      </trkpt>
      <trkpt lat="41.619373420" lon="2.445900030">
        <ele>456.30</ele>
        <time>2014-02-23T09:52:34Z</time>
      </trkpt>
      <trkpt lat="41.619373420" lon="2.445900030">
        <ele>456.10</ele>
        <time>2014-02-23T09:52:35Z</time>
      </trkpt>
      <trkpt lat="41.619371750" lon="2.445900030">
        <ele>456.00</ele>
        <time>2014-02-23T09:52:36Z</time>
      </trkpt>
      <trkpt lat="41.619371750" lon="2.445901700">
        <ele>455.90</ele>
        <time>2014-02-23T09:52:37Z</time>
      </trkpt>
      <trkpt lat="41.619371750" lon="2.445901700">
        <ele>455.80</ele>
        <time>2014-02-23T09:52:38Z</time>
      </trkpt>
      <trkpt lat="41.619365710" lon="2.445912600">
        <ele>456.00</ele>
        <time>2014-02-23T09:52:43Z</time>
      </trkpt>
      <trkpt lat="41.619381810" lon="2.445879410">
        <ele>456.00</ele>
        <time>2014-02-23T09:52:51Z</time>
      </trkpt>
      <trkpt lat="41.619381810" lon="2.445873370">
        <ele>456.20</ele>
        <time>2014-02-23T09:52:55Z</time>
      </trkpt>
      <trkpt lat="41.619378450" lon="2.445876720">
        <ele>456.20</ele>
        <time>2014-02-23T09:52:56Z</time>
      </trkpt>
      <trkpt lat="41.619375100" lon="2.445878400">
        <ele>456.10</ele>
        <time>2014-02-23T09:52:57Z</time>
      </trkpt>
      <trkpt lat="41.619371750" lon="2.445880080">
        <ele>456.10</ele>
        <time>2014-02-23T09:52:58Z</time>
      </trkpt>
      <trkpt lat="41.619368400" lon="2.445881750">
        <ele>456.40</ele>
        <time>2014-02-23T09:52:59Z</time>
      </trkpt>
      <trkpt lat="41.619365040" lon="2.445881750">
        <ele>456.60</ele>
        <time>2014-02-23T09:53:00Z</time>
      </trkpt>
      <trkpt lat="41.619365040" lon="2.445881750">
        <ele>456.80</ele>
        <time>2014-02-23T09:53:01Z</time>
      </trkpt>
      <trkpt lat="41.619368400" lon="2.445880080">
        <ele>457.00</ele>
        <time>2014-02-23T09:53:02Z</time>
      </trkpt>
      <trkpt lat="41.619370070" lon="2.445878400">
        <ele>457.00</ele>
        <time>2014-02-23T09:53:03Z</time>
      </trkpt>
      <trkpt lat="41.619371750" lon="2.445876720">
        <ele>456.90</ele>
        <time>2014-02-23T09:53:04Z</time>
      </trkpt>
      <trkpt lat="41.619373420" lon="2.445875050">
        <ele>456.70</ele>
        <time>2014-02-23T09:53:05Z</time>
      </trkpt>
      <trkpt lat="41.619375100" lon="2.445873370">
        <ele>456.90</ele>
        <time>2014-02-23T09:53:06Z</time>
      </trkpt>
      <trkpt lat="41.619376780" lon="2.445871690">
        <ele>457.00</ele>
        <time>2014-02-23T09:53:07Z</time>
      </trkpt>
      <trkpt lat="41.619376780" lon="2.445871690">
        <ele>457.10</ele>
        <time>2014-02-23T09:53:08Z</time>
      </trkpt>
      <trkpt lat="41.619378450" lon="2.445871690">
        <ele>456.90</ele>
        <time>2014-02-23T09:53:09Z</time>
      </trkpt>
      <trkpt lat="41.619378450" lon="2.445871690">
        <ele>456.80</ele>
        <time>2014-02-23T09:53:10Z</time>
      </trkpt>
      <trkpt lat="41.619375100" lon="2.445875050">
        <ele>456.50</ele>
        <time>2014-02-23T09:53:11Z</time>
      </trkpt>
      <trkpt lat="41.619376780" lon="2.445873370">
        <ele>456.30</ele>
        <time>2014-02-23T09:53:12Z</time>
      </trkpt>
      <trkpt lat="41.619376780" lon="2.445873370">
        <ele>456.20</ele>
        <time>2014-02-23T09:53:13Z</time>
      </trkpt>
      <trkpt lat="41.619373420" lon="2.445876720">
        <ele>456.40</ele>
        <time>2014-02-23T09:53:14Z</time>
      </trkpt>
      <trkpt lat="41.619371750" lon="2.445880080">
        <ele>456.60</ele>
        <time>2014-02-23T09:53:15Z</time>
      </trkpt>
      <trkpt lat="41.619370070" lon="2.445883430">
        <ele>456.50</ele>
        <time>2014-02-23T09:53:16Z</time>
      </trkpt>
      <trkpt lat="41.619368400" lon="2.445886780">
        <ele>456.40</ele>
        <time>2014-02-23T09:53:17Z</time>
      </trkpt>
      <trkpt lat="41.619365040" lon="2.445891810">
        <ele>456.70</ele>
        <time>2014-02-23T09:53:18Z</time>
      </trkpt>
      <trkpt lat="41.619361690" lon="2.445896670">
        <ele>457.00</ele>
        <time>2014-02-23T09:53:19Z</time>
      </trkpt>
      <trkpt lat="41.619363370" lon="2.445896670">
        <ele>457.10</ele>
        <time>2014-02-23T09:53:20Z</time>
      </trkpt>
      <trkpt lat="41.619363370" lon="2.445896670">
        <ele>457.00</ele>
        <time>2014-02-23T09:53:21Z</time>
      </trkpt>
      <trkpt lat="41.619363370" lon="2.445896670">
        <ele>456.90</ele>
        <time>2014-02-23T09:53:22Z</time>
      </trkpt>
      <trkpt lat="41.619363370" lon="2.445896670">
        <ele>456.90</ele>
        <time>2014-02-23T09:53:23Z</time>
      </trkpt>
      <trkpt lat="41.619363370" lon="2.445896670">
        <ele>456.80</ele>
        <time>2014-02-23T09:53:24Z</time>
      </trkpt>
      <trkpt lat="41.619363370" lon="2.445896670">
        <ele>456.80</ele>
        <time>2014-02-23T09:53:25Z</time>
      </trkpt>
      <trkpt lat="41.619363370" lon="2.445896670">
        <ele>456.90</ele>
        <time>2014-02-23T09:53:26Z</time>
      </trkpt>
      <trkpt lat="41.619363370" lon="2.445896670">
        <ele>457.00</ele>
        <time>2014-02-23T09:53:27Z</time>
      </trkpt>
      <trkpt lat="41.619363370" lon="2.445896670">
        <ele>457.00</ele>
        <time>2014-02-23T09:53:28Z</time>
      </trkpt>
      <trkpt lat="41.619363370" lon="2.445898350">
        <ele>457.00</ele>
        <time>2014-02-23T09:53:29Z</time>
      </trkpt>
      <trkpt lat="41.619363370" lon="2.445898350">
        <ele>456.60</ele>
        <time>2014-02-23T09:53:30Z</time>
      </trkpt>
      <trkpt lat="41.619361690" lon="2.445898350">
        <ele>456.30</ele>
        <time>2014-02-23T09:53:31Z</time>
      </trkpt>
      <trkpt lat="41.619361690" lon="2.445900030">
        <ele>456.50</ele>
        <time>2014-02-23T09:53:32Z</time>
      </trkpt>
      <trkpt lat="41.619361690" lon="2.445900030">
        <ele>456.70</ele>
        <time>2014-02-23T09:53:33Z</time>
      </trkpt>
      <trkpt lat="41.619361690" lon="2.445900030">
        <ele>456.80</ele>
        <time>2014-02-23T09:53:34Z</time>
      </trkpt>
      <trkpt lat="41.619361690" lon="2.445901700">
        <ele>456.80</ele>
        <time>2014-02-23T09:53:35Z</time>
      </trkpt>
      <trkpt lat="41.619360010" lon="2.445901700">
        <ele>456.80</ele>
        <time>2014-02-23T09:53:36Z</time>
      </trkpt>
      <trkpt lat="41.619360010" lon="2.445903380">
        <ele>456.70</ele>
        <time>2014-02-23T09:53:37Z</time>
      </trkpt>
      <trkpt lat="41.619358340" lon="2.445903380">
        <ele>456.70</ele>
        <time>2014-02-23T09:53:38Z</time>
      </trkpt>
      <trkpt lat="41.619358340" lon="2.445905050">
        <ele>456.70</ele>
        <time>2014-02-23T09:53:39Z</time>
      </trkpt>
      <trkpt lat="41.619356830" lon="2.445905050">
        <ele>456.70</ele>
        <time>2014-02-23T09:53:40Z</time>
      </trkpt>
      <trkpt lat="41.619356830" lon="2.445905050">
        <ele>456.70</ele>
        <time>2014-02-23T09:53:41Z</time>
      </trkpt>
      <trkpt lat="41.619355150" lon="2.445906730">
        <ele>456.60</ele>
        <time>2014-02-23T09:53:42Z</time>
      </trkpt>
      <trkpt lat="41.619353480" lon="2.445906730">
        <ele>456.50</ele>
        <time>2014-02-23T09:53:43Z</time>
      </trkpt>
      <trkpt lat="41.619353480" lon="2.445906730">
        <ele>456.60</ele>
        <time>2014-02-23T09:53:44Z</time>
      </trkpt>
      <trkpt lat="41.619353480" lon="2.445908410">
        <ele>456.70</ele>
        <time>2014-02-23T09:53:45Z</time>
      </trkpt>
      <trkpt lat="41.619351800" lon="2.445908410">
        <ele>456.80</ele>
        <time>2014-02-23T09:53:46Z</time>
      </trkpt>
      <trkpt lat="41.619351800" lon="2.445910080">
        <ele>456.90</ele>
        <time>2014-02-23T09:53:47Z</time>
      </trkpt>
      <trkpt lat="41.619350120" lon="2.445910080">
        <ele>457.00</ele>
        <time>2014-02-23T09:53:48Z</time>
      </trkpt>
      <trkpt lat="41.619350120" lon="2.445910080">
        <ele>457.00</ele>
        <time>2014-02-23T09:53:49Z</time>
      </trkpt>
      <trkpt lat="41.619348450" lon="2.445910080">
        <ele>457.00</ele>
        <time>2014-02-23T09:53:50Z</time>
      </trkpt>
      <trkpt lat="41.619348450" lon="2.445911760">
        <ele>457.00</ele>
        <time>2014-02-23T09:53:51Z</time>
      </trkpt>
      <trkpt lat="41.619346770" lon="2.445911760">
        <ele>457.00</ele>
        <time>2014-02-23T09:53:52Z</time>
      </trkpt>
      <trkpt lat="41.619346770" lon="2.445911760">
        <ele>457.10</ele>
        <time>2014-02-23T09:53:53Z</time>
      </trkpt>
      <trkpt lat="41.619346770" lon="2.445913440">
        <ele>457.10</ele>
        <time>2014-02-23T09:53:54Z</time>
      </trkpt>
      <trkpt lat="41.619346770" lon="2.445913440">
        <ele>457.20</ele>
        <time>2014-02-23T09:53:55Z</time>
      </trkpt>
      <trkpt lat="41.619346770" lon="2.445915110">
        <ele>457.20</ele>
        <time>2014-02-23T09:53:56Z</time>
      </trkpt>
      <trkpt lat="41.619346770" lon="2.445915110">
        <ele>457.20</ele>
        <time>2014-02-23T09:53:57Z</time>
      </trkpt>
      <trkpt lat="41.619346770" lon="2.445916790">
        <ele>457.20</ele>
        <time>2014-02-23T09:53:58Z</time>
      </trkpt>
      <trkpt lat="41.619346770" lon="2.445916790">
        <ele>456.90</ele>
        <time>2014-02-23T09:53:59Z</time>
      </trkpt>
      <trkpt lat="41.619346770" lon="2.445918470">
        <ele>456.70</ele>
        <time>2014-02-23T09:54:00Z</time>
      </trkpt>
      <trkpt lat="41.619346770" lon="2.445918470">
        <ele>456.70</ele>
        <time>2014-02-23T09:54:01Z</time>
      </trkpt>
      <trkpt lat="41.619346770" lon="2.445918470">
        <ele>456.80</ele>
        <time>2014-02-23T09:54:02Z</time>
      </trkpt>
      <trkpt lat="41.619346770" lon="2.445920140">
        <ele>456.50</ele>
        <time>2014-02-23T09:54:03Z</time>
      </trkpt>
      <trkpt lat="41.619346770" lon="2.445920140">
        <ele>456.40</ele>
        <time>2014-02-23T09:54:04Z</time>
      </trkpt>
      <trkpt lat="41.619348450" lon="2.445920140">
        <ele>456.20</ele>
        <time>2014-02-23T09:54:05Z</time>
      </trkpt>
      <trkpt lat="41.619348450" lon="2.445921820">
        <ele>456.40</ele>
        <time>2014-02-23T09:54:06Z</time>
      </trkpt>
      <trkpt lat="41.619348450" lon="2.445921820">
        <ele>456.50</ele>
        <time>2014-02-23T09:54:07Z</time>
      </trkpt>
      <trkpt lat="41.619348450" lon="2.445923490">
        <ele>456.40</ele>
        <time>2014-02-23T09:54:08Z</time>
      </trkpt>
      <trkpt lat="41.619348450" lon="2.445923490">
        <ele>456.40</ele>
        <time>2014-02-23T09:54:09Z</time>
      </trkpt>
      <trkpt lat="41.619348450" lon="2.445925000">
        <ele>456.40</ele>
        <time>2014-02-23T09:54:10Z</time>
      </trkpt>
      <trkpt lat="41.619348450" lon="2.445925000">
        <ele>456.30</ele>
        <time>2014-02-23T09:54:11Z</time>
      </trkpt>
      <trkpt lat="41.619348450" lon="2.445926680">
        <ele>456.30</ele>
        <time>2014-02-23T09:54:12Z</time>
      </trkpt>
      <trkpt lat="41.619348450" lon="2.445926680">
        <ele>456.50</ele>
        <time>2014-02-23T09:54:13Z</time>
      </trkpt>
      <trkpt lat="41.619350120" lon="2.445926680">
        <ele>456.60</ele>
        <time>2014-02-23T09:54:14Z</time>
      </trkpt>
      <trkpt lat="41.619350120" lon="2.445928360">
        <ele>456.60</ele>
        <time>2014-02-23T09:54:15Z</time>
      </trkpt>
      <trkpt lat="41.619350120" lon="2.445928360">
        <ele>456.70</ele>
        <time>2014-02-23T09:54:16Z</time>
      </trkpt>
      <trkpt lat="41.619350120" lon="2.445930030">
        <ele>456.70</ele>
        <time>2014-02-23T09:54:17Z</time>
      </trkpt>
      <trkpt lat="41.619350120" lon="2.445930030">
        <ele>456.40</ele>
        <time>2014-02-23T09:54:18Z</time>
      </trkpt>
      <trkpt lat="41.619350120" lon="2.445930030">
        <ele>456.20</ele>
        <time>2014-02-23T09:54:19Z</time>
      </trkpt>
      <trkpt lat="41.619350120" lon="2.445931710">
        <ele>456.10</ele>
        <time>2014-02-23T09:54:20Z</time>
      </trkpt>
      <trkpt lat="41.619350120" lon="2.445931710">
        <ele>455.90</ele>
        <time>2014-02-23T09:54:21Z</time>
      </trkpt>
      <trkpt lat="41.619350120" lon="2.445933390">
        <ele>456.10</ele>
        <time>2014-02-23T09:54:22Z</time>
      </trkpt>
      <trkpt lat="41.619348450" lon="2.445933390">
        <ele>456.30</ele>
        <time>2014-02-23T09:54:23Z</time>
      </trkpt>
      <trkpt lat="41.619348450" lon="2.445933390">
        <ele>456.40</ele>
        <time>2014-02-23T09:54:24Z</time>
      </trkpt>
      <trkpt lat="41.619348450" lon="2.445933390">
        <ele>456.40</ele>
        <time>2014-02-23T09:54:25Z</time>
      </trkpt>
      <trkpt lat="41.619348450" lon="2.445933390">
        <ele>456.30</ele>
        <time>2014-02-23T09:54:26Z</time>
      </trkpt>
      <trkpt lat="41.619348450" lon="2.445933390">
        <ele>456.40</ele>
        <time>2014-02-23T09:54:27Z</time>
      </trkpt>
      <trkpt lat="41.619346770" lon="2.445933390">
        <ele>456.40</ele>
        <time>2014-02-23T09:54:28Z</time>
      </trkpt>
      <trkpt lat="41.619346770" lon="2.445935060">
        <ele>456.50</ele>
        <time>2014-02-23T09:54:29Z</time>
      </trkpt>
      <trkpt lat="41.619346770" lon="2.445935060">
        <ele>456.30</ele>
        <time>2014-02-23T09:54:30Z</time>
      </trkpt>
      <trkpt lat="41.619346770" lon="2.445935060">
        <ele>456.10</ele>
        <time>2014-02-23T09:54:31Z</time>
      </trkpt>
      <trkpt lat="41.619346770" lon="2.445935060">
        <ele>456.20</ele>
        <time>2014-02-23T09:54:32Z</time>
      </trkpt>
      <trkpt lat="41.619346770" lon="2.445935060">
        <ele>456.20</ele>
        <time>2014-02-23T09:54:33Z</time>
      </trkpt>
      <trkpt lat="41.619345090" lon="2.445935060">
        <ele>456.70</ele>
        <time>2014-02-23T09:54:34Z</time>
      </trkpt>
      <trkpt lat="41.619345090" lon="2.445936740">
        <ele>457.00</ele>
        <time>2014-02-23T09:54:35Z</time>
      </trkpt>
      <trkpt lat="41.619346770" lon="2.445938410">
        <ele>457.30</ele>
        <time>2014-02-23T09:54:36Z</time>
      </trkpt>
      <trkpt lat="41.619346770" lon="2.445938410">
        <ele>456.90</ele>
        <time>2014-02-23T09:54:37Z</time>
      </trkpt>
      <trkpt lat="41.619346770" lon="2.445940090">
        <ele>456.60</ele>
        <time>2014-02-23T09:54:38Z</time>
      </trkpt>
      <trkpt lat="41.619348450" lon="2.445940090">
        <ele>456.40</ele>
        <time>2014-02-23T09:54:39Z</time>
      </trkpt>
      <trkpt lat="41.619348450" lon="2.445941770">
        <ele>456.30</ele>
        <time>2014-02-23T09:54:40Z</time>
      </trkpt>
      <trkpt lat="41.619346770" lon="2.445941770">
        <ele>456.30</ele>
        <time>2014-02-23T09:54:41Z</time>
      </trkpt>
      <trkpt lat="41.619346770" lon="2.445941770">
        <ele>456.30</ele>
        <time>2014-02-23T09:54:42Z</time>
      </trkpt>
      <trkpt lat="41.619346770" lon="2.445941770">
        <ele>456.30</ele>
        <time>2014-02-23T09:54:43Z</time>
      </trkpt>
      <trkpt lat="41.619346770" lon="2.445940090">
        <ele>456.40</ele>
        <time>2014-02-23T09:54:44Z</time>
      </trkpt>
      <trkpt lat="41.619346770" lon="2.445940090">
        <ele>456.40</ele>
        <time>2014-02-23T09:54:45Z</time>
      </trkpt>
      <trkpt lat="41.619346770" lon="2.445938410">
        <ele>456.60</ele>
        <time>2014-02-23T09:54:46Z</time>
      </trkpt>
      <trkpt lat="41.619346770" lon="2.445938410">
        <ele>456.70</ele>
        <time>2014-02-23T09:54:47Z</time>
      </trkpt>
      <trkpt lat="41.619346770" lon="2.445936740">
        <ele>456.60</ele>
        <time>2014-02-23T09:54:48Z</time>
      </trkpt>
      <trkpt lat="41.619346770" lon="2.445936740">
        <ele>456.60</ele>
        <time>2014-02-23T09:54:49Z</time>
      </trkpt>
      <trkpt lat="41.619346770" lon="2.445935060">
        <ele>456.60</ele>
        <time>2014-02-23T09:54:50Z</time>
      </trkpt>
      <trkpt lat="41.619345090" lon="2.445935060">
        <ele>456.30</ele>
        <time>2014-02-23T09:54:51Z</time>
      </trkpt>
      <trkpt lat="41.619345090" lon="2.445933390">
        <ele>456.10</ele>
        <time>2014-02-23T09:54:52Z</time>
      </trkpt>
      <trkpt lat="41.619345090" lon="2.445933390">
        <ele>456.40</ele>
        <time>2014-02-23T09:54:53Z</time>
      </trkpt>
      <trkpt lat="41.619345090" lon="2.445933390">
        <ele>456.60</ele>
        <time>2014-02-23T09:54:54Z</time>
      </trkpt>
      <trkpt lat="41.619345090" lon="2.445933390">
        <ele>456.70</ele>
        <time>2014-02-23T09:54:55Z</time>
      </trkpt>
      <trkpt lat="41.619345090" lon="2.445933390">
        <ele>456.50</ele>
        <time>2014-02-23T09:54:56Z</time>
      </trkpt>
      <trkpt lat="41.619345090" lon="2.445931710">
        <ele>456.40</ele>
        <time>2014-02-23T09:54:57Z</time>
      </trkpt>
      <trkpt lat="41.619345090" lon="2.445931710">
        <ele>456.50</ele>
        <time>2014-02-23T09:54:58Z</time>
      </trkpt>
      <trkpt lat="41.619345090" lon="2.445931710">
        <ele>456.60</ele>
        <time>2014-02-23T09:54:59Z</time>
      </trkpt>
      <trkpt lat="41.619345090" lon="2.445931710">
        <ele>456.20</ele>
        <time>2014-02-23T09:55:00Z</time>
      </trkpt>
      <trkpt lat="41.619343420" lon="2.445930030">
        <ele>455.90</ele>
        <time>2014-02-23T09:55:01Z</time>
      </trkpt>
      <trkpt lat="41.619343420" lon="2.445930030">
        <ele>455.70</ele>
        <time>2014-02-23T09:55:02Z</time>
      </trkpt>
      <trkpt lat="41.619343420" lon="2.445930030">
        <ele>455.60</ele>
        <time>2014-02-23T09:55:03Z</time>
      </trkpt>
      <trkpt lat="41.619343420" lon="2.445930030">
        <ele>455.60</ele>
        <time>2014-02-23T09:55:04Z</time>
      </trkpt>
      <trkpt lat="41.619341740" lon="2.445928360">
        <ele>455.90</ele>
        <time>2014-02-23T09:55:05Z</time>
      </trkpt>
      <trkpt lat="41.619341740" lon="2.445928360">
        <ele>456.10</ele>
        <time>2014-02-23T09:55:06Z</time>
      </trkpt>
      <trkpt lat="41.619340060" lon="2.445928360">
        <ele>456.20</ele>
        <time>2014-02-23T09:55:07Z</time>
      </trkpt>
      <trkpt lat="41.619340060" lon="2.445926680">
        <ele>456.30</ele>
        <time>2014-02-23T09:55:08Z</time>
      </trkpt>
      <trkpt lat="41.619340060" lon="2.445926680">
        <ele>456.40</ele>
        <time>2014-02-23T09:55:09Z</time>
      </trkpt>
      <trkpt lat="41.619340060" lon="2.445926680">
        <ele>456.50</ele>
        <time>2014-02-23T09:55:10Z</time>
      </trkpt>
      <trkpt lat="41.619340060" lon="2.445926680">
        <ele>456.60</ele>
        <time>2014-02-23T09:55:11Z</time>
      </trkpt>
      <trkpt lat="41.619340060" lon="2.445926680">
        <ele>456.40</ele>
        <time>2014-02-23T09:55:12Z</time>
      </trkpt>
      <trkpt lat="41.619340060" lon="2.445926680">
        <ele>456.30</ele>
        <time>2014-02-23T09:55:13Z</time>
      </trkpt>
      <trkpt lat="41.619340060" lon="2.445926680">
        <ele>456.20</ele>
        <time>2014-02-23T09:55:14Z</time>
      </trkpt>
      <trkpt lat="41.619340060" lon="2.445926680">
        <ele>456.10</ele>
        <time>2014-02-23T09:55:15Z</time>
      </trkpt>
      <trkpt lat="41.619340060" lon="2.445926680">
        <ele>456.10</ele>
        <time>2014-02-23T09:55:16Z</time>
      </trkpt>
      <trkpt lat="41.619340060" lon="2.445926680">
        <ele>456.30</ele>
        <time>2014-02-23T09:55:17Z</time>
      </trkpt>
      <trkpt lat="41.619338390" lon="2.445926680">
        <ele>456.50</ele>
        <time>2014-02-23T09:55:18Z</time>
      </trkpt>
      <trkpt lat="41.619338390" lon="2.445926680">
        <ele>456.50</ele>
        <time>2014-02-23T09:55:19Z</time>
      </trkpt>
      <trkpt lat="41.619338390" lon="2.445926680">
        <ele>456.50</ele>
        <time>2014-02-23T09:55:20Z</time>
      </trkpt>
      <trkpt lat="41.619338390" lon="2.445926680">
        <ele>456.50</ele>
        <time>2014-02-23T09:55:21Z</time>
      </trkpt>
      <trkpt lat="41.619338390" lon="2.445926680">
        <ele>456.70</ele>
        <time>2014-02-23T09:55:22Z</time>
      </trkpt>
      <trkpt lat="41.619336710" lon="2.445926680">
        <ele>456.90</ele>
        <time>2014-02-23T09:55:23Z</time>
      </trkpt>
      <trkpt lat="41.619336710" lon="2.445925000">
        <ele>456.80</ele>
        <time>2014-02-23T09:55:24Z</time>
      </trkpt>
      <trkpt lat="41.619336710" lon="2.445925000">
        <ele>456.70</ele>
        <time>2014-02-23T09:55:25Z</time>
      </trkpt>
      <trkpt lat="41.619336710" lon="2.445925000">
        <ele>457.00</ele>
        <time>2014-02-23T09:55:26Z</time>
      </trkpt>
      <trkpt lat="41.619336710" lon="2.445923490">
        <ele>457.20</ele>
        <time>2014-02-23T09:55:27Z</time>
      </trkpt>
      <trkpt lat="41.619336710" lon="2.445923490">
        <ele>457.40</ele>
        <time>2014-02-23T09:55:28Z</time>
      </trkpt>
      <trkpt lat="41.619335040" lon="2.445923490">
        <ele>457.10</ele>
        <time>2014-02-23T09:55:29Z</time>
      </trkpt>
      <trkpt lat="41.619335040" lon="2.445921820">
        <ele>456.90</ele>
        <time>2014-02-23T09:55:30Z</time>
      </trkpt>
      <trkpt lat="41.619335040" lon="2.445921820">
        <ele>456.60</ele>
        <time>2014-02-23T09:55:31Z</time>
      </trkpt>
      <trkpt lat="41.619335040" lon="2.445921820">
        <ele>456.40</ele>
        <time>2014-02-23T09:55:32Z</time>
      </trkpt>
      <trkpt lat="41.619335040" lon="2.445921820">
        <ele>456.30</ele>
        <time>2014-02-23T09:55:33Z</time>
      </trkpt>
      <trkpt lat="41.619336710" lon="2.445921820">
        <ele>456.20</ele>
        <time>2014-02-23T09:55:34Z</time>
      </trkpt>
      <trkpt lat="41.619336710" lon="2.445921820">
        <ele>456.20</ele>
        <time>2014-02-23T09:55:35Z</time>
      </trkpt>
      <trkpt lat="41.619336710" lon="2.445921820">
        <ele>456.20</ele>
        <time>2014-02-23T09:55:36Z</time>
      </trkpt>
      <trkpt lat="41.619336710" lon="2.445921820">
        <ele>456.30</ele>
        <time>2014-02-23T09:55:37Z</time>
      </trkpt>
      <trkpt lat="41.619336710" lon="2.445921820">
        <ele>456.50</ele>
        <time>2014-02-23T09:55:38Z</time>
      </trkpt>
      <trkpt lat="41.619336710" lon="2.445921820">
        <ele>456.70</ele>
        <time>2014-02-23T09:55:39Z</time>
      </trkpt>
      <trkpt lat="41.619335040" lon="2.445921820">
        <ele>456.80</ele>
        <time>2014-02-23T09:55:40Z</time>
      </trkpt>
      <trkpt lat="41.619335040" lon="2.445921820">
        <ele>457.30</ele>
        <time>2014-02-23T09:55:41Z</time>
      </trkpt>
      <trkpt lat="41.619333360" lon="2.445921820">
        <ele>457.60</ele>
        <time>2014-02-23T09:55:42Z</time>
      </trkpt>
      <trkpt lat="41.619331680" lon="2.445921820">
        <ele>457.50</ele>
        <time>2014-02-23T09:55:43Z</time>
      </trkpt>
      <trkpt lat="41.619331680" lon="2.445921820">
        <ele>457.50</ele>
        <time>2014-02-23T09:55:44Z</time>
      </trkpt>
      <trkpt lat="41.619330010" lon="2.445921820">
        <ele>457.40</ele>
        <time>2014-02-23T09:55:45Z</time>
      </trkpt>
      <trkpt lat="41.619328330" lon="2.445921820">
        <ele>457.30</ele>
        <time>2014-02-23T09:55:46Z</time>
      </trkpt>
      <trkpt lat="41.619326820" lon="2.445921820">
        <ele>457.20</ele>
        <time>2014-02-23T09:55:47Z</time>
      </trkpt>
      <trkpt lat="41.619326820" lon="2.445921820">
        <ele>456.60</ele>
        <time>2014-02-23T09:55:48Z</time>
      </trkpt>
      <trkpt lat="41.619328330" lon="2.445921820">
        <ele>456.10</ele>
        <time>2014-02-23T09:55:49Z</time>
      </trkpt>
      <trkpt lat="41.619330010" lon="2.445920140">
        <ele>456.20</ele>
        <time>2014-02-23T09:55:50Z</time>
      </trkpt>
      <trkpt lat="41.619331680" lon="2.445920140">
        <ele>456.20</ele>
        <time>2014-02-23T09:55:51Z</time>
      </trkpt>
      <trkpt lat="41.619333360" lon="2.445920140">
        <ele>456.20</ele>
        <time>2014-02-23T09:55:52Z</time>
      </trkpt>
      <trkpt lat="41.619333360" lon="2.445920140">
        <ele>456.40</ele>
        <time>2014-02-23T09:55:53Z</time>
      </trkpt>
      <trkpt lat="41.619335040" lon="2.445918470">
        <ele>456.50</ele>
        <time>2014-02-23T09:55:54Z</time>
      </trkpt>
      <trkpt lat="41.619336710" lon="2.445918470">
        <ele>456.40</ele>
        <time>2014-02-23T09:55:55Z</time>
      </trkpt>
      <trkpt lat="41.619336710" lon="2.445918470">
        <ele>456.30</ele>
        <time>2014-02-23T09:55:56Z</time>
      </trkpt>
      <trkpt lat="41.619338390" lon="2.445916790">
        <ele>456.60</ele>
        <time>2014-02-23T09:55:57Z</time>
      </trkpt>
      <trkpt lat="41.619340060" lon="2.445916790">
        <ele>456.70</ele>
        <time>2014-02-23T09:55:58Z</time>
      </trkpt>
      <trkpt lat="41.619340060" lon="2.445915110">
        <ele>456.90</ele>
        <time>2014-02-23T09:55:59Z</time>
      </trkpt>
      <trkpt lat="41.619341740" lon="2.445915110">
        <ele>456.70</ele>
        <time>2014-02-23T09:56:00Z</time>
      </trkpt>
      <trkpt lat="41.619341740" lon="2.445913440">
        <ele>456.60</ele>
        <time>2014-02-23T09:56:01Z</time>
      </trkpt>
      <trkpt lat="41.619341740" lon="2.445911760">
        <ele>456.60</ele>
        <time>2014-02-23T09:56:02Z</time>
      </trkpt>
      <trkpt lat="41.619341740" lon="2.445910080">
        <ele>456.60</ele>
        <time>2014-02-23T09:56:03Z</time>
      </trkpt>
      <trkpt lat="41.619341740" lon="2.445910080">
        <ele>456.50</ele>
        <time>2014-02-23T09:56:04Z</time>
      </trkpt>
      <trkpt lat="41.619341740" lon="2.445908410">
        <ele>456.40</ele>
        <time>2014-02-23T09:56:05Z</time>
      </trkpt>
      <trkpt lat="41.619341740" lon="2.445906730">
        <ele>456.40</ele>
        <time>2014-02-23T09:56:06Z</time>
      </trkpt>
      <trkpt lat="41.619341740" lon="2.445906730">
        <ele>456.50</ele>
        <time>2014-02-23T09:56:07Z</time>
      </trkpt>
      <trkpt lat="41.619341740" lon="2.445905050">
        <ele>456.60</ele>
        <time>2014-02-23T09:56:08Z</time>
      </trkpt>
      <trkpt lat="41.619341740" lon="2.445905050">
        <ele>456.30</ele>
        <time>2014-02-23T09:56:09Z</time>
      </trkpt>
      <trkpt lat="41.619341740" lon="2.445903380">
        <ele>456.00</ele>
        <time>2014-02-23T09:56:10Z</time>
      </trkpt>
      <trkpt lat="41.619343420" lon="2.445903380">
        <ele>455.80</ele>
        <time>2014-02-23T09:56:11Z</time>
      </trkpt>
      <trkpt lat="41.619343420" lon="2.445903380">
        <ele>456.10</ele>
        <time>2014-02-23T09:56:12Z</time>
      </trkpt>
      <trkpt lat="41.619343420" lon="2.445903380">
        <ele>456.20</ele>
        <time>2014-02-23T09:56:13Z</time>
      </trkpt>
      <trkpt lat="41.619345090" lon="2.445903380">
        <ele>456.40</ele>
        <time>2014-02-23T09:56:14Z</time>
      </trkpt>
      <trkpt lat="41.619345090" lon="2.445901700">
        <ele>456.50</ele>
        <time>2014-02-23T09:56:15Z</time>
      </trkpt>
      <trkpt lat="41.619345090" lon="2.445901700">
        <ele>456.90</ele>
        <time>2014-02-23T09:56:16Z</time>
      </trkpt>
      <trkpt lat="41.619345090" lon="2.445901700">
        <ele>457.10</ele>
        <time>2014-02-23T09:56:17Z</time>
      </trkpt>
      <trkpt lat="41.619346770" lon="2.445901700">
        <ele>457.30</ele>
        <time>2014-02-23T09:56:18Z</time>
      </trkpt>
      <trkpt lat="41.619346770" lon="2.445901700">
        <ele>457.00</ele>
        <time>2014-02-23T09:56:19Z</time>
      </trkpt>
      <trkpt lat="41.619348450" lon="2.445901700">
        <ele>456.80</ele>
        <time>2014-02-23T09:56:20Z</time>
      </trkpt>
      <trkpt lat="41.619348450" lon="2.445901700">
        <ele>456.70</ele>
        <time>2014-02-23T09:56:21Z</time>
      </trkpt>
      <trkpt lat="41.619350120" lon="2.445901700">
        <ele>456.60</ele>
        <time>2014-02-23T09:56:22Z</time>
      </trkpt>
      <trkpt lat="41.619350120" lon="2.445901700">
        <ele>456.30</ele>
        <time>2014-02-23T09:56:23Z</time>
      </trkpt>
      <trkpt lat="41.619351800" lon="2.445901700">
        <ele>456.10</ele>
        <time>2014-02-23T09:56:24Z</time>
      </trkpt>
      <trkpt lat="41.619351800" lon="2.445901700">
        <ele>455.90</ele>
        <time>2014-02-23T09:56:25Z</time>
      </trkpt>
      <trkpt lat="41.619353480" lon="2.445901700">
        <ele>456.10</ele>
        <time>2014-02-23T09:56:26Z</time>
      </trkpt>
      <trkpt lat="41.619353480" lon="2.445900030">
        <ele>456.20</ele>
        <time>2014-02-23T09:56:27Z</time>
      </trkpt>
      <trkpt lat="41.619353480" lon="2.445900030">
        <ele>456.40</ele>
        <time>2014-02-23T09:56:28Z</time>
      </trkpt>
      <trkpt lat="41.619353480" lon="2.445900030">
        <ele>456.50</ele>
        <time>2014-02-23T09:56:29Z</time>
      </trkpt>
      <trkpt lat="41.619353480" lon="2.445898350">
        <ele>456.60</ele>
        <time>2014-02-23T09:56:30Z</time>
      </trkpt>
      <trkpt lat="41.619355150" lon="2.445898350">
        <ele>456.50</ele>
        <time>2014-02-23T09:56:31Z</time>
      </trkpt>
      <trkpt lat="41.619355150" lon="2.445898350">
        <ele>456.30</ele>
        <time>2014-02-23T09:56:32Z</time>
      </trkpt>
      <trkpt lat="41.619356830" lon="2.445898350">
        <ele>456.30</ele>
        <time>2014-02-23T09:56:33Z</time>
      </trkpt>
      <trkpt lat="41.619356830" lon="2.445898350">
        <ele>456.30</ele>
        <time>2014-02-23T09:56:34Z</time>
      </trkpt>
      <trkpt lat="41.619356830" lon="2.445898350">
        <ele>456.20</ele>
        <time>2014-02-23T09:56:35Z</time>
      </trkpt>
      <trkpt lat="41.619358340" lon="2.445900030">
        <ele>456.10</ele>
        <time>2014-02-23T09:56:36Z</time>
      </trkpt>
      <trkpt lat="41.619358340" lon="2.445900030">
        <ele>456.10</ele>
        <time>2014-02-23T09:56:37Z</time>
      </trkpt>
      <trkpt lat="41.619358340" lon="2.445900030">
        <ele>456.40</ele>
        <time>2014-02-23T09:56:38Z</time>
      </trkpt>
      <trkpt lat="41.619360010" lon="2.445900030">
        <ele>456.70</ele>
        <time>2014-02-23T09:56:39Z</time>
      </trkpt>
      <trkpt lat="41.619360010" lon="2.445900030">
        <ele>456.50</ele>
        <time>2014-02-23T09:56:40Z</time>
      </trkpt>
      <trkpt lat="41.619360010" lon="2.445900030">
        <ele>456.30</ele>
        <time>2014-02-23T09:56:41Z</time>
      </trkpt>
      <trkpt lat="41.619361690" lon="2.445900030">
        <ele>456.60</ele>
        <time>2014-02-23T09:56:42Z</time>
      </trkpt>
      <trkpt lat="41.619361690" lon="2.445900030">
        <ele>456.90</ele>
        <time>2014-02-23T09:56:43Z</time>
      </trkpt>
      <trkpt lat="41.619361690" lon="2.445900030">
        <ele>457.00</ele>
        <time>2014-02-23T09:56:44Z</time>
      </trkpt>
      <trkpt lat="41.619363370" lon="2.445900030">
        <ele>457.00</ele>
        <time>2014-02-23T09:56:45Z</time>
      </trkpt>
      <trkpt lat="41.619363370" lon="2.445900030">
        <ele>457.00</ele>
        <time>2014-02-23T09:56:46Z</time>
      </trkpt>
      <trkpt lat="41.619365040" lon="2.445900030">
        <ele>457.20</ele>
        <time>2014-02-23T09:56:47Z</time>
      </trkpt>
      <trkpt lat="41.619365040" lon="2.445900030">
        <ele>457.40</ele>
        <time>2014-02-23T09:56:48Z</time>
      </trkpt>
      <trkpt lat="41.619365040" lon="2.445900030">
        <ele>457.50</ele>
        <time>2014-02-23T09:56:49Z</time>
      </trkpt>
      <trkpt lat="41.619366720" lon="2.445900030">
        <ele>457.30</ele>
        <time>2014-02-23T09:56:50Z</time>
      </trkpt>
      <trkpt lat="41.619366720" lon="2.445900030">
        <ele>457.00</ele>
        <time>2014-02-23T09:56:51Z</time>
      </trkpt>
      <trkpt lat="41.619366720" lon="2.445900030">
        <ele>457.40</ele>
        <time>2014-02-23T09:56:52Z</time>
      </trkpt>
      <trkpt lat="41.619368400" lon="2.445900030">
        <ele>457.60</ele>
        <time>2014-02-23T09:56:53Z</time>
      </trkpt>
      <trkpt lat="41.619368400" lon="2.445900030">
        <ele>457.40</ele>
        <time>2014-02-23T09:56:54Z</time>
      </trkpt>
      <trkpt lat="41.619370070" lon="2.445900030">
        <ele>457.20</ele>
        <time>2014-02-23T09:56:55Z</time>
      </trkpt>
      <trkpt lat="41.619370070" lon="2.445900030">
        <ele>457.00</ele>
        <time>2014-02-23T09:56:56Z</time>
      </trkpt>
      <trkpt lat="41.619370070" lon="2.445900030">
        <ele>456.90</ele>
        <time>2014-02-23T09:56:57Z</time>
      </trkpt>
      <trkpt lat="41.619371750" lon="2.445900030">
        <ele>456.90</ele>
        <time>2014-02-23T09:56:58Z</time>
      </trkpt>
      <trkpt lat="41.619371750" lon="2.445900030">
        <ele>456.90</ele>
        <time>2014-02-23T09:56:59Z</time>
      </trkpt>
      <trkpt lat="41.619371750" lon="2.445900030">
        <ele>456.90</ele>
        <time>2014-02-23T09:57:00Z</time>
      </trkpt>
      <trkpt lat="41.619373420" lon="2.445900030">
        <ele>457.00</ele>
        <time>2014-02-23T09:57:01Z</time>
      </trkpt>
      <trkpt lat="41.619373420" lon="2.445900030">
        <ele>457.10</ele>
        <time>2014-02-23T09:57:02Z</time>
      </trkpt>
      <trkpt lat="41.619373420" lon="2.445900030">
        <ele>457.10</ele>
        <time>2014-02-23T09:57:03Z</time>
      </trkpt>
      <trkpt lat="41.619375100" lon="2.445900030">
        <ele>456.90</ele>
        <time>2014-02-23T09:57:04Z</time>
      </trkpt>
      <trkpt lat="41.619375100" lon="2.445901700">
        <ele>456.70</ele>
        <time>2014-02-23T09:57:05Z</time>
      </trkpt>
      <trkpt lat="41.619375100" lon="2.445901700">
        <ele>456.80</ele>
        <time>2014-02-23T09:57:06Z</time>
      </trkpt>
      <trkpt lat="41.619375100" lon="2.445901700">
        <ele>456.90</ele>
        <time>2014-02-23T09:57:07Z</time>
      </trkpt>
      <trkpt lat="41.619376780" lon="2.445901700">
        <ele>457.00</ele>
        <time>2014-02-23T09:57:08Z</time>
      </trkpt>
      <trkpt lat="41.619376780" lon="2.445901700">
        <ele>457.00</ele>
        <time>2014-02-23T09:57:09Z</time>
      </trkpt>
      <trkpt lat="41.619376780" lon="2.445901700">
        <ele>457.10</ele>
        <time>2014-02-23T09:57:10Z</time>
      </trkpt>
      <trkpt lat="41.619376780" lon="2.445901700">
        <ele>456.80</ele>
        <time>2014-02-23T09:57:11Z</time>
      </trkpt>
      <trkpt lat="41.619378450" lon="2.445901700">
        <ele>456.60</ele>
        <time>2014-02-23T09:57:12Z</time>
      </trkpt>
      <trkpt lat="41.619378450" lon="2.445901700">
        <ele>456.70</ele>
        <time>2014-02-23T09:57:13Z</time>
      </trkpt>
      <trkpt lat="41.619378450" lon="2.445901700">
        <ele>456.90</ele>
        <time>2014-02-23T09:57:14Z</time>
      </trkpt>
      <trkpt lat="41.619378450" lon="2.445901700">
        <ele>457.00</ele>
        <time>2014-02-23T09:57:15Z</time>
      </trkpt>
      <trkpt lat="41.619380130" lon="2.445901700">
        <ele>456.80</ele>
        <time>2014-02-23T09:57:16Z</time>
      </trkpt>
      <trkpt lat="41.619380130" lon="2.445901700">
        <ele>456.70</ele>
        <time>2014-02-23T09:57:17Z</time>
      </trkpt>
      <trkpt lat="41.619380130" lon="2.445901700">
        <ele>457.30</ele>
        <time>2014-02-23T09:57:18Z</time>
      </trkpt>
      <trkpt lat="41.619380130" lon="2.445901700">
        <ele>457.70</ele>
        <time>2014-02-23T09:57:19Z</time>
      </trkpt>
      <trkpt lat="41.619381810" lon="2.445901700">
        <ele>457.70</ele>
        <time>2014-02-23T09:57:20Z</time>
      </trkpt>
      <trkpt lat="41.619381810" lon="2.445903380">
        <ele>457.80</ele>
        <time>2014-02-23T09:57:21Z</time>
      </trkpt>
      <trkpt lat="41.619381810" lon="2.445903380">
        <ele>457.80</ele>
        <time>2014-02-23T09:57:22Z</time>
      </trkpt>
      <trkpt lat="41.619381810" lon="2.445903380">
        <ele>457.60</ele>
        <time>2014-02-23T09:57:23Z</time>
      </trkpt>
      <trkpt lat="41.619381810" lon="2.445901700">
        <ele>457.40</ele>
        <time>2014-02-23T09:57:24Z</time>
      </trkpt>
      <trkpt lat="41.619381810" lon="2.445901700">
        <ele>457.60</ele>
        <time>2014-02-23T09:57:25Z</time>
      </trkpt>
      <trkpt lat="41.619381810" lon="2.445901700">
        <ele>457.70</ele>
        <time>2014-02-23T09:57:26Z</time>
      </trkpt>
      <trkpt lat="41.619381810" lon="2.445900030">
        <ele>457.80</ele>
        <time>2014-02-23T09:57:27Z</time>
      </trkpt>
      <trkpt lat="41.619381810" lon="2.445900030">
        <ele>457.50</ele>
        <time>2014-02-23T09:57:28Z</time>
      </trkpt>
      <trkpt lat="41.619381810" lon="2.445900030">
        <ele>457.30</ele>
        <time>2014-02-23T09:57:29Z</time>
      </trkpt>
      <trkpt lat="41.619381810" lon="2.445901700">
        <ele>457.10</ele>
        <time>2014-02-23T09:57:30Z</time>
      </trkpt>
      <trkpt lat="41.619381810" lon="2.445901700">
        <ele>457.00</ele>
        <time>2014-02-23T09:57:31Z</time>
      </trkpt>
      <trkpt lat="41.619383480" lon="2.445901700">
        <ele>457.10</ele>
        <time>2014-02-23T09:57:32Z</time>
      </trkpt>
      <trkpt lat="41.619383480" lon="2.445901700">
        <ele>457.10</ele>
        <time>2014-02-23T09:57:33Z</time>
      </trkpt>
      <trkpt lat="41.619383480" lon="2.445901700">
        <ele>457.20</ele>
        <time>2014-02-23T09:57:34Z</time>
      </trkpt>
      <trkpt lat="41.619383480" lon="2.445901700">
        <ele>457.20</ele>
        <time>2014-02-23T09:57:35Z</time>
      </trkpt>
      <trkpt lat="41.619383480" lon="2.445901700">
        <ele>457.20</ele>
        <time>2014-02-23T09:57:36Z</time>
      </trkpt>
      <trkpt lat="41.619383480" lon="2.445901700">
        <ele>457.10</ele>
        <time>2014-02-23T09:57:37Z</time>
      </trkpt>
      <trkpt lat="41.619385160" lon="2.445901700">
        <ele>457.00</ele>
        <time>2014-02-23T09:57:38Z</time>
      </trkpt>
      <trkpt lat="41.619385160" lon="2.445901700">
        <ele>456.90</ele>
        <time>2014-02-23T09:57:39Z</time>
      </trkpt>
      <trkpt lat="41.619385160" lon="2.445901700">
        <ele>456.80</ele>
        <time>2014-02-23T09:57:40Z</time>
      </trkpt>
      <trkpt lat="41.619385160" lon="2.445903380">
        <ele>456.80</ele>
        <time>2014-02-23T09:57:41Z</time>
      </trkpt>
      <trkpt lat="41.619385160" lon="2.445903380">
        <ele>457.00</ele>
        <time>2014-02-23T09:57:42Z</time>
      </trkpt>
      <trkpt lat="41.619385160" lon="2.445903380">
        <ele>457.20</ele>
        <time>2014-02-23T09:57:43Z</time>
      </trkpt>
      <trkpt lat="41.619385160" lon="2.445903380">
        <ele>457.20</ele>
        <time>2014-02-23T09:57:44Z</time>
      </trkpt>
      <trkpt lat="41.619385160" lon="2.445903380">
        <ele>457.20</ele>
        <time>2014-02-23T09:57:45Z</time>
      </trkpt>
      <trkpt lat="41.619386670" lon="2.445903380">
        <ele>457.20</ele>
        <time>2014-02-23T09:57:46Z</time>
      </trkpt>
      <trkpt lat="41.619386670" lon="2.445903380">
        <ele>457.10</ele>
        <time>2014-02-23T09:57:47Z</time>
      </trkpt>
      <trkpt lat="41.619386670" lon="2.445903380">
        <ele>457.10</ele>
        <time>2014-02-23T09:57:48Z</time>
      </trkpt>
      <trkpt lat="41.619386670" lon="2.445903380">
        <ele>457.10</ele>
        <time>2014-02-23T09:57:49Z</time>
      </trkpt>
      <trkpt lat="41.619386670" lon="2.445905050">
        <ele>457.10</ele>
        <time>2014-02-23T09:57:50Z</time>
      </trkpt>
      <trkpt lat="41.619386670" lon="2.445905050">
        <ele>457.60</ele>
        <time>2014-02-23T09:57:51Z</time>
      </trkpt>
      <trkpt lat="41.619386670" lon="2.445905050">
        <ele>458.00</ele>
        <time>2014-02-23T09:57:52Z</time>
      </trkpt>
      <trkpt lat="41.619386670" lon="2.445905050">
        <ele>458.20</ele>
        <time>2014-02-23T09:57:53Z</time>
      </trkpt>
      <trkpt lat="41.619386670" lon="2.445905050">
        <ele>458.40</ele>
        <time>2014-02-23T09:57:54Z</time>
      </trkpt>
      <trkpt lat="41.619386670" lon="2.445906730">
        <ele>458.50</ele>
        <time>2014-02-23T09:57:55Z</time>
      </trkpt>
      <trkpt lat="41.619388340" lon="2.445906730">
        <ele>458.30</ele>
        <time>2014-02-23T09:57:56Z</time>
      </trkpt>
      <trkpt lat="41.619388340" lon="2.445906730">
        <ele>458.20</ele>
        <time>2014-02-23T09:57:57Z</time>
      </trkpt>
      <trkpt lat="41.619388340" lon="2.445906730">
        <ele>457.80</ele>
        <time>2014-02-23T09:57:58Z</time>
      </trkpt>
      <trkpt lat="41.619388340" lon="2.445906730">
        <ele>457.60</ele>
        <time>2014-02-23T09:57:59Z</time>
      </trkpt>
      <trkpt lat="41.619388340" lon="2.445908410">
        <ele>457.40</ele>
        <time>2014-02-23T09:58:00Z</time>
      </trkpt>
      <trkpt lat="41.619388340" lon="2.445908410">
        <ele>457.10</ele>
        <time>2014-02-23T09:58:01Z</time>
      </trkpt>
      <trkpt lat="41.619388340" lon="2.445908410">
        <ele>456.80</ele>
        <time>2014-02-23T09:58:02Z</time>
      </trkpt>
      <trkpt lat="41.619388340" lon="2.445908410">
        <ele>456.90</ele>
        <time>2014-02-23T09:58:03Z</time>
      </trkpt>
      <trkpt lat="41.619390020" lon="2.445908410">
        <ele>457.00</ele>
        <time>2014-02-23T09:58:04Z</time>
      </trkpt>
      <trkpt lat="41.619390020" lon="2.445910080">
        <ele>457.00</ele>
        <time>2014-02-23T09:58:05Z</time>
      </trkpt>
      <trkpt lat="41.619390020" lon="2.445910080">
        <ele>456.80</ele>
        <time>2014-02-23T09:58:06Z</time>
      </trkpt>
      <trkpt lat="41.619390020" lon="2.445910080">
        <ele>456.60</ele>
        <time>2014-02-23T09:58:07Z</time>
      </trkpt>
      <trkpt lat="41.619390020" lon="2.445908410">
        <ele>456.90</ele>
        <time>2014-02-23T09:58:08Z</time>
      </trkpt>
      <trkpt lat="41.619388340" lon="2.445908410">
        <ele>457.10</ele>
        <time>2014-02-23T09:58:09Z</time>
      </trkpt>
      <trkpt lat="41.619388340" lon="2.445908410">
        <ele>457.00</ele>
        <time>2014-02-23T09:58:10Z</time>
      </trkpt>
      <trkpt lat="41.619388340" lon="2.445908410">
        <ele>456.90</ele>
        <time>2014-02-23T09:58:11Z</time>
      </trkpt>
      <trkpt lat="41.619388340" lon="2.445908410">
        <ele>456.80</ele>
        <time>2014-02-23T09:58:12Z</time>
      </trkpt>
      <trkpt lat="41.619388340" lon="2.445908410">
        <ele>457.20</ele>
        <time>2014-02-23T09:58:13Z</time>
      </trkpt>
      <trkpt lat="41.619388340" lon="2.445908410">
        <ele>457.40</ele>
        <time>2014-02-23T09:58:14Z</time>
      </trkpt>
      <trkpt lat="41.619388340" lon="2.445908410">
        <ele>457.40</ele>
        <time>2014-02-23T09:58:15Z</time>
      </trkpt>
      <trkpt lat="41.619388340" lon="2.445910080">
        <ele>457.50</ele>
        <time>2014-02-23T09:58:16Z</time>
      </trkpt>
      <trkpt lat="41.619390020" lon="2.445910080">
        <ele>457.40</ele>
        <time>2014-02-23T09:58:17Z</time>
      </trkpt>
      <trkpt lat="41.619390020" lon="2.445910080">
        <ele>457.40</ele>
        <time>2014-02-23T09:58:18Z</time>
      </trkpt>
      <trkpt lat="41.619390020" lon="2.445910080">
        <ele>457.30</ele>
        <time>2014-02-23T09:58:19Z</time>
      </trkpt>
      <trkpt lat="41.619390020" lon="2.445910080">
        <ele>457.30</ele>
        <time>2014-02-23T09:58:20Z</time>
      </trkpt>
      <trkpt lat="41.619390020" lon="2.445910080">
        <ele>457.20</ele>
        <time>2014-02-23T09:58:21Z</time>
      </trkpt>
      <trkpt lat="41.619390020" lon="2.445910080">
        <ele>457.10</ele>
        <time>2014-02-23T09:58:22Z</time>
      </trkpt>
      <trkpt lat="41.619390020" lon="2.445910080">
        <ele>457.10</ele>
        <time>2014-02-23T09:58:23Z</time>
      </trkpt>
      <trkpt lat="41.619390020" lon="2.445911760">
        <ele>457.00</ele>
        <time>2014-02-23T09:58:24Z</time>
      </trkpt>
      <trkpt lat="41.619390020" lon="2.445911760">
        <ele>457.10</ele>
        <time>2014-02-23T09:58:25Z</time>
      </trkpt>
      <trkpt lat="41.619390020" lon="2.445911760">
        <ele>457.10</ele>
        <time>2014-02-23T09:58:26Z</time>
      </trkpt>
      <trkpt lat="41.619390020" lon="2.445911760">
        <ele>456.90</ele>
        <time>2014-02-23T09:58:27Z</time>
      </trkpt>
      <trkpt lat="41.619390020" lon="2.445911760">
        <ele>456.80</ele>
        <time>2014-02-23T09:58:28Z</time>
      </trkpt>
      <trkpt lat="41.619391700" lon="2.445913440">
        <ele>456.90</ele>
        <time>2014-02-23T09:58:29Z</time>
      </trkpt>
      <trkpt lat="41.619390020" lon="2.445911760">
        <ele>457.00</ele>
        <time>2014-02-23T09:58:30Z</time>
      </trkpt>
      <trkpt lat="41.619391700" lon="2.445913440">
        <ele>457.10</ele>
        <time>2014-02-23T09:58:31Z</time>
      </trkpt>
      <trkpt lat="41.619391700" lon="2.445913440">
        <ele>457.30</ele>
        <time>2014-02-23T09:58:32Z</time>
      </trkpt>
      <trkpt lat="41.619391700" lon="2.445913440">
        <ele>457.40</ele>
        <time>2014-02-23T09:58:33Z</time>
      </trkpt>
      <trkpt lat="41.619390020" lon="2.445911760">
        <ele>457.10</ele>
        <time>2014-02-23T09:58:34Z</time>
      </trkpt>
      <trkpt lat="41.619390020" lon="2.445911760">
        <ele>456.80</ele>
        <time>2014-02-23T09:58:35Z</time>
      </trkpt>
      <trkpt lat="41.619390020" lon="2.445911760">
        <ele>457.10</ele>
        <time>2014-02-23T09:58:36Z</time>
      </trkpt>
      <trkpt lat="41.619390020" lon="2.445911760">
        <ele>457.30</ele>
        <time>2014-02-23T09:58:37Z</time>
      </trkpt>
      <trkpt lat="41.619390020" lon="2.445911760">
        <ele>457.40</ele>
        <time>2014-02-23T09:58:38Z</time>
      </trkpt>
      <trkpt lat="41.619390020" lon="2.445911760">
        <ele>457.30</ele>
        <time>2014-02-23T09:58:39Z</time>
      </trkpt>
      <trkpt lat="41.619390020" lon="2.445910080">
        <ele>457.30</ele>
        <time>2014-02-23T09:58:40Z</time>
      </trkpt>
      <trkpt lat="41.619390020" lon="2.445910080">
        <ele>457.20</ele>
        <time>2014-02-23T09:58:41Z</time>
      </trkpt>
      <trkpt lat="41.619390020" lon="2.445910080">
        <ele>457.20</ele>
        <time>2014-02-23T09:58:42Z</time>
      </trkpt>
      <trkpt lat="41.619390020" lon="2.445910080">
        <ele>457.20</ele>
        <time>2014-02-23T09:58:43Z</time>
      </trkpt>
      <trkpt lat="41.619390020" lon="2.445910080">
        <ele>457.40</ele>
        <time>2014-02-23T09:58:44Z</time>
      </trkpt>
      <trkpt lat="41.619390020" lon="2.445910080">
        <ele>457.60</ele>
        <time>2014-02-23T09:58:45Z</time>
      </trkpt>
      <trkpt lat="41.619390020" lon="2.445908410">
        <ele>457.70</ele>
        <time>2014-02-23T09:58:46Z</time>
      </trkpt>
      <trkpt lat="41.619390020" lon="2.445908410">
        <ele>457.70</ele>
        <time>2014-02-23T09:58:47Z</time>
      </trkpt>
      <trkpt lat="41.619390020" lon="2.445908410">
        <ele>457.70</ele>
        <time>2014-02-23T09:58:48Z</time>
      </trkpt>
      <trkpt lat="41.619390020" lon="2.445908410">
        <ele>457.70</ele>
        <time>2014-02-23T09:58:49Z</time>
      </trkpt>
      <trkpt lat="41.619390020" lon="2.445908410">
        <ele>457.80</ele>
        <time>2014-02-23T09:58:50Z</time>
      </trkpt>
      <trkpt lat="41.619390020" lon="2.445908410">
        <ele>457.50</ele>
        <time>2014-02-23T09:58:51Z</time>
      </trkpt>
      <trkpt lat="41.619390020" lon="2.445908410">
        <ele>457.30</ele>
        <time>2014-02-23T09:58:52Z</time>
      </trkpt>
      <trkpt lat="41.619390020" lon="2.445908410">
        <ele>457.70</ele>
        <time>2014-02-23T09:58:53Z</time>
      </trkpt>
      <trkpt lat="41.619390020" lon="2.445908410">
        <ele>457.90</ele>
        <time>2014-02-23T09:58:54Z</time>
      </trkpt>
      <trkpt lat="41.619390020" lon="2.445908410">
        <ele>457.80</ele>
        <time>2014-02-23T09:58:55Z</time>
      </trkpt>
      <trkpt lat="41.619390020" lon="2.445908410">
        <ele>457.60</ele>
        <time>2014-02-23T09:58:56Z</time>
      </trkpt>
      <trkpt lat="41.619390020" lon="2.445908410">
        <ele>457.50</ele>
        <time>2014-02-23T09:58:57Z</time>
      </trkpt>
      <trkpt lat="41.619390020" lon="2.445908410">
        <ele>457.30</ele>
        <time>2014-02-23T09:58:58Z</time>
      </trkpt>
      <trkpt lat="41.619390020" lon="2.445908410">
        <ele>457.20</ele>
        <time>2014-02-23T09:58:59Z</time>
      </trkpt>
      <trkpt lat="41.619390020" lon="2.445908410">
        <ele>457.30</ele>
        <time>2014-02-23T09:59:00Z</time>
      </trkpt>
      <trkpt lat="41.619390020" lon="2.445908410">
        <ele>457.30</ele>
        <time>2014-02-23T09:59:01Z</time>
      </trkpt>
      <trkpt lat="41.619391700" lon="2.445908410">
        <ele>457.30</ele>
        <time>2014-02-23T09:59:02Z</time>
      </trkpt>
      <trkpt lat="41.619391700" lon="2.445908410">
        <ele>457.20</ele>
        <time>2014-02-23T09:59:03Z</time>
      </trkpt>
      <trkpt lat="41.619391700" lon="2.445908410">
        <ele>457.20</ele>
        <time>2014-02-23T09:59:04Z</time>
      </trkpt>
      <trkpt lat="41.619391700" lon="2.445908410">
        <ele>456.80</ele>
        <time>2014-02-23T09:59:05Z</time>
      </trkpt>
      <trkpt lat="41.619391700" lon="2.445910080">
        <ele>456.60</ele>
        <time>2014-02-23T09:59:06Z</time>
      </trkpt>
      <trkpt lat="41.619391700" lon="2.445910080">
        <ele>456.70</ele>
        <time>2014-02-23T09:59:07Z</time>
      </trkpt>
      <trkpt lat="41.619391700" lon="2.445910080">
        <ele>456.80</ele>
        <time>2014-02-23T09:59:08Z</time>
      </trkpt>
      <trkpt lat="41.619391700" lon="2.445910080">
        <ele>456.80</ele>
        <time>2014-02-23T09:59:09Z</time>
      </trkpt>
      <trkpt lat="41.619391700" lon="2.445910080">
        <ele>456.90</ele>
        <time>2014-02-23T09:59:10Z</time>
      </trkpt>
      <trkpt lat="41.619391700" lon="2.445910080">
        <ele>457.00</ele>
        <time>2014-02-23T09:59:11Z</time>
      </trkpt>
      <trkpt lat="41.619391700" lon="2.445910080">
        <ele>456.60</ele>
        <time>2014-02-23T09:59:12Z</time>
      </trkpt>
      <trkpt lat="41.619391700" lon="2.445910080">
        <ele>456.30</ele>
        <time>2014-02-23T09:59:13Z</time>
      </trkpt>
      <trkpt lat="41.619391700" lon="2.445911760">
        <ele>456.60</ele>
        <time>2014-02-23T09:59:14Z</time>
      </trkpt>
      <trkpt lat="41.619391700" lon="2.445911760">
        <ele>456.80</ele>
        <time>2014-02-23T09:59:15Z</time>
      </trkpt>
      <trkpt lat="41.619391700" lon="2.445911760">
        <ele>457.00</ele>
        <time>2014-02-23T09:59:16Z</time>
      </trkpt>
      <trkpt lat="41.619391700" lon="2.445911760">
        <ele>456.80</ele>
        <time>2014-02-23T09:59:17Z</time>
      </trkpt>
      <trkpt lat="41.619391700" lon="2.445911760">
        <ele>456.60</ele>
        <time>2014-02-23T09:59:18Z</time>
      </trkpt>
      <trkpt lat="41.619391700" lon="2.445911760">
        <ele>456.70</ele>
        <time>2014-02-23T09:59:19Z</time>
      </trkpt>
      <trkpt lat="41.619391700" lon="2.445911760">
        <ele>456.80</ele>
        <time>2014-02-23T09:59:20Z</time>
      </trkpt>
      <trkpt lat="41.619391700" lon="2.445913440">
        <ele>456.80</ele>
        <time>2014-02-23T09:59:21Z</time>
      </trkpt>
      <trkpt lat="41.619393370" lon="2.445913440">
        <ele>456.80</ele>
        <time>2014-02-23T09:59:22Z</time>
      </trkpt>
      <trkpt lat="41.619393370" lon="2.445913440">
        <ele>456.70</ele>
        <time>2014-02-23T09:59:23Z</time>
      </trkpt>
      <trkpt lat="41.619393370" lon="2.445913440">
        <ele>456.70</ele>
        <time>2014-02-23T09:59:24Z</time>
      </trkpt>
      <trkpt lat="41.619393370" lon="2.445913440">
        <ele>456.70</ele>
        <time>2014-02-23T09:59:25Z</time>
      </trkpt>
      <trkpt lat="41.619393370" lon="2.445913440">
        <ele>456.60</ele>
        <time>2014-02-23T09:59:26Z</time>
      </trkpt>
      <trkpt lat="41.619393370" lon="2.445915110">
        <ele>456.40</ele>
        <time>2014-02-23T09:59:27Z</time>
      </trkpt>
      <trkpt lat="41.619393370" lon="2.445915110">
        <ele>456.30</ele>
        <time>2014-02-23T09:59:28Z</time>
      </trkpt>
      <trkpt lat="41.619393370" lon="2.445915110">
        <ele>456.40</ele>
        <time>2014-02-23T09:59:29Z</time>
      </trkpt>
      <trkpt lat="41.619393370" lon="2.445915110">
        <ele>456.50</ele>
        <time>2014-02-23T09:59:30Z</time>
      </trkpt>
      <trkpt lat="41.619393370" lon="2.445915110">
        <ele>457.10</ele>
        <time>2014-02-23T09:59:31Z</time>
      </trkpt>
      <trkpt lat="41.619393370" lon="2.445916790">
        <ele>457.50</ele>
        <time>2014-02-23T09:59:32Z</time>
      </trkpt>
      <trkpt lat="41.619395050" lon="2.445916790">
        <ele>457.70</ele>
        <time>2014-02-23T09:59:33Z</time>
      </trkpt>
      <trkpt lat="41.619395050" lon="2.445916790">
        <ele>457.90</ele>
        <time>2014-02-23T09:59:34Z</time>
      </trkpt>
      <trkpt lat="41.619395050" lon="2.445916790">
        <ele>458.00</ele>
        <time>2014-02-23T09:59:35Z</time>
      </trkpt>
      <trkpt lat="41.619395050" lon="2.445916790">
        <ele>457.70</ele>
        <time>2014-02-23T09:59:36Z</time>
      </trkpt>
      <trkpt lat="41.619395050" lon="2.445918470">
        <ele>457.50</ele>
        <time>2014-02-23T09:59:37Z</time>
      </trkpt>
      <trkpt lat="41.619395050" lon="2.445918470">
        <ele>457.20</ele>
        <time>2014-02-23T09:59:38Z</time>
      </trkpt>
      <trkpt lat="41.619395050" lon="2.445918470">
        <ele>457.00</ele>
        <time>2014-02-23T09:59:39Z</time>
      </trkpt>
      <trkpt lat="41.619395050" lon="2.445918470">
        <ele>457.40</ele>
        <time>2014-02-23T09:59:40Z</time>
      </trkpt>
      <trkpt lat="41.619395050" lon="2.445918470">
        <ele>457.60</ele>
        <time>2014-02-23T09:59:41Z</time>
      </trkpt>
      <trkpt lat="41.619395050" lon="2.445918470">
        <ele>457.80</ele>
        <time>2014-02-23T09:59:42Z</time>
      </trkpt>
      <trkpt lat="41.619395050" lon="2.445918470">
        <ele>457.80</ele>
        <time>2014-02-23T09:59:43Z</time>
      </trkpt>
      <trkpt lat="41.619395050" lon="2.445918470">
        <ele>457.80</ele>
        <time>2014-02-23T09:59:44Z</time>
      </trkpt>
      <trkpt lat="41.619393370" lon="2.445918470">
        <ele>457.60</ele>
        <time>2014-02-23T09:59:45Z</time>
      </trkpt>
      <trkpt lat="41.619393370" lon="2.445918470">
        <ele>457.40</ele>
        <time>2014-02-23T09:59:46Z</time>
      </trkpt>
      <trkpt lat="41.619393370" lon="2.445918470">
        <ele>457.30</ele>
        <time>2014-02-23T09:59:47Z</time>
      </trkpt>
      <trkpt lat="41.619393370" lon="2.445918470">
        <ele>457.20</ele>
        <time>2014-02-23T09:59:48Z</time>
      </trkpt>
      <trkpt lat="41.619393370" lon="2.445918470">
        <ele>457.00</ele>
        <time>2014-02-23T09:59:49Z</time>
      </trkpt>
      <trkpt lat="41.619393370" lon="2.445918470">
        <ele>457.30</ele>
        <time>2014-02-23T09:59:50Z</time>
      </trkpt>
      <trkpt lat="41.619393370" lon="2.445918470">
        <ele>457.40</ele>
        <time>2014-02-23T09:59:51Z</time>
      </trkpt>
      <trkpt lat="41.619391700" lon="2.445918470">
        <ele>457.20</ele>
        <time>2014-02-23T09:59:52Z</time>
      </trkpt>
      <trkpt lat="41.619391700" lon="2.445918470">
        <ele>457.10</ele>
        <time>2014-02-23T09:59:53Z</time>
      </trkpt>
      <trkpt lat="41.619393370" lon="2.445918470">
        <ele>457.00</ele>
        <time>2014-02-23T09:59:54Z</time>
      </trkpt>
      <trkpt lat="41.619395050" lon="2.445921820">
        <ele>456.70</ele>
        <time>2014-02-23T09:59:55Z</time>
      </trkpt>
      <trkpt lat="41.619396730" lon="2.445923490">
        <ele>456.50</ele>
        <time>2014-02-23T09:59:56Z</time>
      </trkpt>
      <trkpt lat="41.619398400" lon="2.445926680">
        <ele>457.00</ele>
        <time>2014-02-23T09:59:57Z</time>
      </trkpt>
      <trkpt lat="41.619398400" lon="2.445928360">
        <ele>457.40</ele>
        <time>2014-02-23T09:59:58Z</time>
      </trkpt>
      <trkpt lat="41.619400080" lon="2.445931710">
        <ele>457.60</ele>
        <time>2014-02-23T09:59:59Z</time>
      </trkpt>
      <trkpt lat="41.619401760" lon="2.445933390">
        <ele>457.30</ele>
        <time>2014-02-23T10:00:00Z</time>
      </trkpt>
      <trkpt lat="41.619403430" lon="2.445936740">
        <ele>457.00</ele>
        <time>2014-02-23T10:00:01Z</time>
      </trkpt>
      <trkpt lat="41.619405110" lon="2.445938410">
        <ele>457.30</ele>
        <time>2014-02-23T10:00:02Z</time>
      </trkpt>
      <trkpt lat="41.619406780" lon="2.445940090">
        <ele>457.50</ele>
        <time>2014-02-23T10:00:03Z</time>
      </trkpt>
      <trkpt lat="41.619408460" lon="2.445941770">
        <ele>457.50</ele>
        <time>2014-02-23T10:00:04Z</time>
      </trkpt>
      <trkpt lat="41.619408460" lon="2.445943440">
        <ele>457.60</ele>
        <time>2014-02-23T10:00:05Z</time>
      </trkpt>
      <trkpt lat="41.619408460" lon="2.445945120">
        <ele>457.60</ele>
        <time>2014-02-23T10:00:06Z</time>
      </trkpt>
      <trkpt lat="41.619410140" lon="2.445946800">
        <ele>457.40</ele>
        <time>2014-02-23T10:00:07Z</time>
      </trkpt>
      <trkpt lat="41.619411810" lon="2.445948470">
        <ele>457.30</ele>
        <time>2014-02-23T10:00:08Z</time>
      </trkpt>
      <trkpt lat="41.619413490" lon="2.445951830">
        <ele>457.20</ele>
        <time>2014-02-23T10:00:09Z</time>
      </trkpt>
      <trkpt lat="41.619415000" lon="2.445953330">
        <ele>457.10</ele>
        <time>2014-02-23T10:00:10Z</time>
      </trkpt>
      <trkpt lat="41.619415000" lon="2.445956690">
        <ele>456.90</ele>
        <time>2014-02-23T10:00:11Z</time>
      </trkpt>
      <trkpt lat="41.619416680" lon="2.445958360">
        <ele>456.80</ele>
        <time>2014-02-23T10:00:12Z</time>
      </trkpt>
      <trkpt lat="41.619418350" lon="2.445961720">
        <ele>456.70</ele>
        <time>2014-02-23T10:00:13Z</time>
      </trkpt>
      <trkpt lat="41.619420030" lon="2.445963390">
        <ele>456.80</ele>
        <time>2014-02-23T10:00:14Z</time>
      </trkpt>
      <trkpt lat="41.619421700" lon="2.445965070">
        <ele>456.90</ele>
        <time>2014-02-23T10:00:15Z</time>
      </trkpt>
      <trkpt lat="41.619421700" lon="2.445966750">
        <ele>456.90</ele>
        <time>2014-02-23T10:00:16Z</time>
      </trkpt>
      <trkpt lat="41.619423380" lon="2.445968420">
        <ele>456.90</ele>
        <time>2014-02-23T10:00:17Z</time>
      </trkpt>
      <trkpt lat="41.619423380" lon="2.445971770">
        <ele>456.90</ele>
        <time>2014-02-23T10:00:18Z</time>
      </trkpt>
      <trkpt lat="41.619423380" lon="2.445971770">
        <ele>457.30</ele>
        <time>2014-02-23T10:00:19Z</time>
      </trkpt>
      <trkpt lat="41.619425060" lon="2.445973450">
        <ele>457.50</ele>
        <time>2014-02-23T10:00:20Z</time>
      </trkpt>
      <trkpt lat="41.619425060" lon="2.445975130">
        <ele>457.40</ele>
        <time>2014-02-23T10:00:21Z</time>
      </trkpt>
      <trkpt lat="41.619425060" lon="2.445975130">
        <ele>457.30</ele>
        <time>2014-02-23T10:00:22Z</time>
      </trkpt>
      <trkpt lat="41.619423380" lon="2.445976800">
        <ele>457.10</ele>
        <time>2014-02-23T10:00:23Z</time>
      </trkpt>
      <trkpt lat="41.619423380" lon="2.445976800">
        <ele>457.00</ele>
        <time>2014-02-23T10:00:24Z</time>
      </trkpt>
      <trkpt lat="41.619421700" lon="2.445976800">
        <ele>456.90</ele>
        <time>2014-02-23T10:00:25Z</time>
      </trkpt>
      <trkpt lat="41.619421700" lon="2.445975130">
        <ele>456.90</ele>
        <time>2014-02-23T10:00:26Z</time>
      </trkpt>
      <trkpt lat="41.619420030" lon="2.445975130">
        <ele>456.90</ele>
        <time>2014-02-23T10:00:27Z</time>
      </trkpt>
      <trkpt lat="41.619418350" lon="2.445973450">
        <ele>457.00</ele>
        <time>2014-02-23T10:00:28Z</time>
      </trkpt>
      <trkpt lat="41.619416680" lon="2.445973450">
        <ele>457.10</ele>
        <time>2014-02-23T10:00:29Z</time>
      </trkpt>
      <trkpt lat="41.619416680" lon="2.445971770">
        <ele>457.10</ele>
        <time>2014-02-23T10:00:30Z</time>
      </trkpt>
      <trkpt lat="41.619415000" lon="2.445971770">
        <ele>457.10</ele>
        <time>2014-02-23T10:00:31Z</time>
      </trkpt>
      <trkpt lat="41.619413490" lon="2.445970100">
        <ele>457.10</ele>
        <time>2014-02-23T10:00:32Z</time>
      </trkpt>
      <trkpt lat="41.619411810" lon="2.445970100">
        <ele>456.90</ele>
        <time>2014-02-23T10:00:33Z</time>
      </trkpt>
      <trkpt lat="41.619411810" lon="2.445968420">
        <ele>456.70</ele>
        <time>2014-02-23T10:00:34Z</time>
      </trkpt>
      <trkpt lat="41.619411810" lon="2.445968420">
        <ele>457.10</ele>
        <time>2014-02-23T10:00:35Z</time>
      </trkpt>
      <trkpt lat="41.619411810" lon="2.445970100">
        <ele>457.30</ele>
        <time>2014-02-23T10:00:36Z</time>
      </trkpt>
      <trkpt lat="41.619410140" lon="2.445970100">
        <ele>457.50</ele>
        <time>2014-02-23T10:00:37Z</time>
      </trkpt>
      <trkpt lat="41.619410140" lon="2.445970100">
        <ele>457.40</ele>
        <time>2014-02-23T10:00:38Z</time>
      </trkpt>
      <trkpt lat="41.619410140" lon="2.445970100">
        <ele>457.40</ele>
        <time>2014-02-23T10:00:39Z</time>
      </trkpt>
      <trkpt lat="41.619408460" lon="2.445970100">
        <ele>456.80</ele>
        <time>2014-02-23T10:00:40Z</time>
      </trkpt>
      <trkpt lat="41.619408460" lon="2.445970100">
        <ele>456.40</ele>
        <time>2014-02-23T10:00:41Z</time>
      </trkpt>
      <trkpt lat="41.619408460" lon="2.445971770">
        <ele>456.60</ele>
        <time>2014-02-23T10:00:42Z</time>
      </trkpt>
      <trkpt lat="41.619406780" lon="2.445970100">
        <ele>456.70</ele>
        <time>2014-02-23T10:00:43Z</time>
      </trkpt>
      <trkpt lat="41.619406780" lon="2.445970100">
        <ele>456.80</ele>
        <time>2014-02-23T10:00:44Z</time>
      </trkpt>
      <trkpt lat="41.619405110" lon="2.445970100">
        <ele>457.10</ele>
        <time>2014-02-23T10:00:45Z</time>
      </trkpt>
      <trkpt lat="41.619405110" lon="2.445970100">
        <ele>457.30</ele>
        <time>2014-02-23T10:00:46Z</time>
      </trkpt>
      <trkpt lat="41.619403430" lon="2.445970100">
        <ele>457.50</ele>
        <time>2014-02-23T10:00:47Z</time>
      </trkpt>
      <trkpt lat="41.619403430" lon="2.445970100">
        <ele>457.60</ele>
        <time>2014-02-23T10:00:48Z</time>
      </trkpt>
      <trkpt lat="41.619401760" lon="2.445968420">
        <ele>457.60</ele>
        <time>2014-02-23T10:00:49Z</time>
      </trkpt>
      <trkpt lat="41.619401760" lon="2.445968420">
        <ele>457.60</ele>
        <time>2014-02-23T10:00:50Z</time>
      </trkpt>
      <trkpt lat="41.619400080" lon="2.445968420">
        <ele>457.70</ele>
        <time>2014-02-23T10:00:51Z</time>
      </trkpt>
      <trkpt lat="41.619400080" lon="2.445970100">
        <ele>457.50</ele>
        <time>2014-02-23T10:00:52Z</time>
      </trkpt>
      <trkpt lat="41.619400080" lon="2.445970100">
        <ele>457.40</ele>
        <time>2014-02-23T10:00:53Z</time>
      </trkpt>
      <trkpt lat="41.619400080" lon="2.445971770">
        <ele>457.50</ele>
        <time>2014-02-23T10:00:54Z</time>
      </trkpt>
      <trkpt lat="41.619400080" lon="2.445971770">
        <ele>457.60</ele>
        <time>2014-02-23T10:00:55Z</time>
      </trkpt>
      <trkpt lat="41.619398400" lon="2.445971770">
        <ele>457.70</ele>
        <time>2014-02-23T10:00:56Z</time>
      </trkpt>
      <trkpt lat="41.619398400" lon="2.445973450">
        <ele>457.60</ele>
        <time>2014-02-23T10:00:57Z</time>
      </trkpt>
      <trkpt lat="41.619398400" lon="2.445973450">
        <ele>457.50</ele>
        <time>2014-02-23T10:00:58Z</time>
      </trkpt>
      <trkpt lat="41.619396730" lon="2.445973450">
        <ele>457.40</ele>
        <time>2014-02-23T10:00:59Z</time>
      </trkpt>
      <trkpt lat="41.619396730" lon="2.445975130">
        <ele>457.40</ele>
        <time>2014-02-23T10:01:00Z</time>
      </trkpt>
      <trkpt lat="41.619395050" lon="2.445975130">
        <ele>457.50</ele>
        <time>2014-02-23T10:01:01Z</time>
      </trkpt>
      <trkpt lat="41.619395050" lon="2.445975130">
        <ele>457.70</ele>
        <time>2014-02-23T10:01:02Z</time>
      </trkpt>
      <trkpt lat="41.619395050" lon="2.445975130">
        <ele>457.80</ele>
        <time>2014-02-23T10:01:03Z</time>
      </trkpt>
      <trkpt lat="41.619395050" lon="2.445973450">
        <ele>457.40</ele>
        <time>2014-02-23T10:01:04Z</time>
      </trkpt>
      <trkpt lat="41.619396730" lon="2.445973450">
        <ele>457.10</ele>
        <time>2014-02-23T10:01:05Z</time>
      </trkpt>
      <trkpt lat="41.619396730" lon="2.445973450">
        <ele>457.00</ele>
        <time>2014-02-23T10:01:06Z</time>
      </trkpt>
      <trkpt lat="41.619396730" lon="2.445973450">
        <ele>457.00</ele>
        <time>2014-02-23T10:01:07Z</time>
      </trkpt>
      <trkpt lat="41.619396730" lon="2.445973450">
        <ele>457.30</ele>
        <time>2014-02-23T10:01:08Z</time>
      </trkpt>
      <trkpt lat="41.619396730" lon="2.445973450">
        <ele>457.60</ele>
        <time>2014-02-23T10:01:09Z</time>
      </trkpt>
      <trkpt lat="41.619396730" lon="2.445973450">
        <ele>457.80</ele>
        <time>2014-02-23T10:01:10Z</time>
      </trkpt>
      <trkpt lat="41.619395050" lon="2.445971770">
        <ele>457.80</ele>
        <time>2014-02-23T10:01:11Z</time>
      </trkpt>
      <trkpt lat="41.619395050" lon="2.445970100">
        <ele>457.90</ele>
        <time>2014-02-23T10:01:12Z</time>
      </trkpt>
      <trkpt lat="41.619393370" lon="2.445970100">
        <ele>457.80</ele>
        <time>2014-02-23T10:01:13Z</time>
      </trkpt>
      <trkpt lat="41.619391700" lon="2.445968420">
        <ele>457.70</ele>
        <time>2014-02-23T10:01:14Z</time>
      </trkpt>
      <trkpt lat="41.619390020" lon="2.445966750">
        <ele>457.80</ele>
        <time>2014-02-23T10:01:15Z</time>
      </trkpt>
      <trkpt lat="41.619388340" lon="2.445965070">
        <ele>457.80</ele>
        <time>2014-02-23T10:01:16Z</time>
      </trkpt>
      <trkpt lat="41.619388340" lon="2.445963390">
        <ele>457.80</ele>
        <time>2014-02-23T10:01:17Z</time>
      </trkpt>
      <trkpt lat="41.619386670" lon="2.445961720">
        <ele>457.20</ele>
        <time>2014-02-23T10:01:18Z</time>
      </trkpt>
      <trkpt lat="41.619385160" lon="2.445960040">
        <ele>456.80</ele>
        <time>2014-02-23T10:01:19Z</time>
      </trkpt>
      <trkpt lat="41.619385160" lon="2.445958360">
        <ele>456.80</ele>
        <time>2014-02-23T10:01:20Z</time>
      </trkpt>
      <trkpt lat="41.619383480" lon="2.445956690">
        <ele>456.80</ele>
        <time>2014-02-23T10:01:21Z</time>
      </trkpt>
      <trkpt lat="41.619381810" lon="2.445956690">
        <ele>456.80</ele>
        <time>2014-02-23T10:01:22Z</time>
      </trkpt>
      <trkpt lat="41.619381810" lon="2.445955010">
        <ele>456.80</ele>
        <time>2014-02-23T10:01:23Z</time>
      </trkpt>
      <trkpt lat="41.619380130" lon="2.445953330">
        <ele>456.80</ele>
        <time>2014-02-23T10:01:24Z</time>
      </trkpt>
      <trkpt lat="41.619378450" lon="2.445951830">
        <ele>457.10</ele>
        <time>2014-02-23T10:01:25Z</time>
      </trkpt>
      <trkpt lat="41.619378450" lon="2.445950150">
        <ele>457.30</ele>
        <time>2014-02-23T10:01:26Z</time>
      </trkpt>
      <trkpt lat="41.619376780" lon="2.445950150">
        <ele>457.40</ele>
        <time>2014-02-23T10:01:27Z</time>
      </trkpt>
      <trkpt lat="41.619376780" lon="2.445948470">
        <ele>457.40</ele>
        <time>2014-02-23T10:01:28Z</time>
      </trkpt>
      <trkpt lat="41.619375100" lon="2.445946800">
        <ele>457.50</ele>
        <time>2014-02-23T10:01:29Z</time>
      </trkpt>
      <trkpt lat="41.619375100" lon="2.445946800">
        <ele>457.20</ele>
        <time>2014-02-23T10:01:30Z</time>
      </trkpt>
      <trkpt lat="41.619373420" lon="2.445945120">
        <ele>457.10</ele>
        <time>2014-02-23T10:01:31Z</time>
      </trkpt>
      <trkpt lat="41.619373420" lon="2.445945120">
        <ele>457.20</ele>
        <time>2014-02-23T10:01:32Z</time>
      </trkpt>
      <trkpt lat="41.619373420" lon="2.445943440">
        <ele>457.30</ele>
        <time>2014-02-23T10:01:33Z</time>
      </trkpt>
      <trkpt lat="41.619371750" lon="2.445943440">
        <ele>457.30</ele>
        <time>2014-02-23T10:01:34Z</time>
      </trkpt>
      <trkpt lat="41.619371750" lon="2.445941770">
        <ele>457.20</ele>
        <time>2014-02-23T10:01:35Z</time>
      </trkpt>
      <trkpt lat="41.619371750" lon="2.445941770">
        <ele>457.10</ele>
        <time>2014-02-23T10:01:36Z</time>
      </trkpt>
      <trkpt lat="41.619370070" lon="2.445941770">
        <ele>457.40</ele>
        <time>2014-02-23T10:01:37Z</time>
      </trkpt>
      <trkpt lat="41.619370070" lon="2.445940090">
        <ele>457.60</ele>
        <time>2014-02-23T10:01:38Z</time>
      </trkpt>
      <trkpt lat="41.619370070" lon="2.445940090">
        <ele>457.60</ele>
        <time>2014-02-23T10:01:39Z</time>
      </trkpt>
      <trkpt lat="41.619368400" lon="2.445940090">
        <ele>457.50</ele>
        <time>2014-02-23T10:01:40Z</time>
      </trkpt>
      <trkpt lat="41.619368400" lon="2.445938410">
        <ele>457.50</ele>
        <time>2014-02-23T10:01:41Z</time>
      </trkpt>
      <trkpt lat="41.619368400" lon="2.445938410">
        <ele>457.30</ele>
        <time>2014-02-23T10:01:42Z</time>
      </trkpt>
      <trkpt lat="41.619366720" lon="2.445936740">
        <ele>457.20</ele>
        <time>2014-02-23T10:01:43Z</time>
      </trkpt>
      <trkpt lat="41.619365040" lon="2.445935060">
        <ele>457.30</ele>
        <time>2014-02-23T10:01:44Z</time>
      </trkpt>
      <trkpt lat="41.619365040" lon="2.445935060">
        <ele>457.30</ele>
        <time>2014-02-23T10:01:45Z</time>
      </trkpt>
      <trkpt lat="41.619365040" lon="2.445933390">
        <ele>457.30</ele>
        <time>2014-02-23T10:01:46Z</time>
      </trkpt>
      <trkpt lat="41.619363370" lon="2.445933390">
        <ele>457.30</ele>
        <time>2014-02-23T10:01:47Z</time>
      </trkpt>
      <trkpt lat="41.619363370" lon="2.445933390">
        <ele>457.30</ele>
        <time>2014-02-23T10:01:48Z</time>
      </trkpt>
      <trkpt lat="41.619363370" lon="2.445931710">
        <ele>457.10</ele>
        <time>2014-02-23T10:01:49Z</time>
      </trkpt>
      <trkpt lat="41.619363370" lon="2.445931710">
        <ele>456.90</ele>
        <time>2014-02-23T10:01:50Z</time>
      </trkpt>
      <trkpt lat="41.619361690" lon="2.445931710">
        <ele>457.10</ele>
        <time>2014-02-23T10:01:51Z</time>
      </trkpt>
      <trkpt lat="41.619361690" lon="2.445930030">
        <ele>457.20</ele>
        <time>2014-02-23T10:01:52Z</time>
      </trkpt>
      <trkpt lat="41.619360010" lon="2.445930030">
        <ele>457.10</ele>
        <time>2014-02-23T10:01:53Z</time>
      </trkpt>
      <trkpt lat="41.619360010" lon="2.445930030">
        <ele>457.10</ele>
        <time>2014-02-23T10:01:54Z</time>
      </trkpt>
      <trkpt lat="41.619360010" lon="2.445928360">
        <ele>457.10</ele>
        <time>2014-02-23T10:01:55Z</time>
      </trkpt>
      <trkpt lat="41.619360010" lon="2.445928360">
        <ele>456.90</ele>
        <time>2014-02-23T10:01:56Z</time>
      </trkpt>
      <trkpt lat="41.619358340" lon="2.445928360">
        <ele>456.80</ele>
        <time>2014-02-23T10:01:57Z</time>
      </trkpt>
      <trkpt lat="41.619358340" lon="2.445926680">
        <ele>456.80</ele>
        <time>2014-02-23T10:01:58Z</time>
      </trkpt>
      <trkpt lat="41.619356830" lon="2.445926680">
        <ele>456.80</ele>
        <time>2014-02-23T10:01:59Z</time>
      </trkpt>
      <trkpt lat="41.619355150" lon="2.445925000">
        <ele>456.80</ele>
        <time>2014-02-23T10:02:00Z</time>
      </trkpt>
      <trkpt lat="41.619355150" lon="2.445923490">
        <ele>456.90</ele>
        <time>2014-02-23T10:02:01Z</time>
      </trkpt>
      <trkpt lat="41.619353480" lon="2.445923490">
        <ele>456.90</ele>
        <time>2014-02-23T10:02:02Z</time>
      </trkpt>
      <trkpt lat="41.619353480" lon="2.445921820">
        <ele>456.90</ele>
        <time>2014-02-23T10:02:03Z</time>
      </trkpt>
      <trkpt lat="41.619351800" lon="2.445921820">
        <ele>456.90</ele>
        <time>2014-02-23T10:02:04Z</time>
      </trkpt>
      <trkpt lat="41.619351800" lon="2.445920140">
        <ele>456.90</ele>
        <time>2014-02-23T10:02:05Z</time>
      </trkpt>
      <trkpt lat="41.619350120" lon="2.445920140">
        <ele>457.00</ele>
        <time>2014-02-23T10:02:06Z</time>
      </trkpt>
      <trkpt lat="41.619350120" lon="2.445920140">
        <ele>457.00</ele>
        <time>2014-02-23T10:02:07Z</time>
      </trkpt>
      <trkpt lat="41.619348450" lon="2.445918470">
        <ele>457.10</ele>
        <time>2014-02-23T10:02:08Z</time>
      </trkpt>
      <trkpt lat="41.619348450" lon="2.445918470">
        <ele>457.10</ele>
        <time>2014-02-23T10:02:09Z</time>
      </trkpt>
      <trkpt lat="41.619348450" lon="2.445918470">
        <ele>457.40</ele>
        <time>2014-02-23T10:02:10Z</time>
      </trkpt>
      <trkpt lat="41.619346770" lon="2.445916790">
        <ele>457.50</ele>
        <time>2014-02-23T10:02:11Z</time>
      </trkpt>
      <trkpt lat="41.619346770" lon="2.445916790">
        <ele>457.70</ele>
        <time>2014-02-23T10:02:12Z</time>
      </trkpt>
      <trkpt lat="41.619345090" lon="2.445915110">
        <ele>457.30</ele>
        <time>2014-02-23T10:02:13Z</time>
      </trkpt>
      <trkpt lat="41.619345090" lon="2.445915110">
        <ele>457.00</ele>
        <time>2014-02-23T10:02:14Z</time>
      </trkpt>
      <trkpt lat="41.619343420" lon="2.445913440">
        <ele>457.50</ele>
        <time>2014-02-23T10:02:15Z</time>
      </trkpt>
      <trkpt lat="41.619341740" lon="2.445911760">
        <ele>457.90</ele>
        <time>2014-02-23T10:02:16Z</time>
      </trkpt>
      <trkpt lat="41.619341740" lon="2.445911760">
        <ele>457.40</ele>
        <time>2014-02-23T10:02:17Z</time>
      </trkpt>
      <trkpt lat="41.619341740" lon="2.445913440">
        <ele>457.00</ele>
        <time>2014-02-23T10:02:18Z</time>
      </trkpt>
      <trkpt lat="41.619340060" lon="2.445913440">
        <ele>456.80</ele>
        <time>2014-02-23T10:02:19Z</time>
      </trkpt>
      <trkpt lat="41.619340060" lon="2.445913440">
        <ele>456.80</ele>
        <time>2014-02-23T10:02:20Z</time>
      </trkpt>
      <trkpt lat="41.619340060" lon="2.445913440">
        <ele>456.70</ele>
        <time>2014-02-23T10:02:21Z</time>
      </trkpt>
      <trkpt lat="41.619341740" lon="2.445915110">
        <ele>456.80</ele>
        <time>2014-02-23T10:02:22Z</time>
      </trkpt>
      <trkpt lat="41.619343420" lon="2.445918470">
        <ele>456.80</ele>
        <time>2014-02-23T10:02:23Z</time>
      </trkpt>
      <trkpt lat="41.619345090" lon="2.445920140">
        <ele>457.10</ele>
        <time>2014-02-23T10:02:24Z</time>
      </trkpt>
      <trkpt lat="41.619346770" lon="2.445921820">
        <ele>457.30</ele>
        <time>2014-02-23T10:02:25Z</time>
      </trkpt>
      <trkpt lat="41.619348450" lon="2.445923490">
        <ele>457.50</ele>
        <time>2014-02-23T10:02:26Z</time>
      </trkpt>
      <trkpt lat="41.619348450" lon="2.445926680">
        <ele>457.40</ele>
        <time>2014-02-23T10:02:27Z</time>
      </trkpt>
      <trkpt lat="41.619350120" lon="2.445926680">
        <ele>457.30</ele>
        <time>2014-02-23T10:02:28Z</time>
      </trkpt>
      <trkpt lat="41.619350120" lon="2.445928360">
        <ele>457.40</ele>
        <time>2014-02-23T10:02:29Z</time>
      </trkpt>
      <trkpt lat="41.619351800" lon="2.445930030">
        <ele>457.50</ele>
        <time>2014-02-23T10:02:30Z</time>
      </trkpt>
      <trkpt lat="41.619351800" lon="2.445931710">
        <ele>457.50</ele>
        <time>2014-02-23T10:02:31Z</time>
      </trkpt>
      <trkpt lat="41.619351800" lon="2.445931710">
        <ele>457.50</ele>
        <time>2014-02-23T10:02:32Z</time>
      </trkpt>
      <trkpt lat="41.619353480" lon="2.445935060">
        <ele>457.50</ele>
        <time>2014-02-23T10:02:33Z</time>
      </trkpt>
      <trkpt lat="41.619356830" lon="2.445936740">
        <ele>457.40</ele>
        <time>2014-02-23T10:02:34Z</time>
      </trkpt>
      <trkpt lat="41.619358340" lon="2.445938410">
        <ele>457.30</ele>
        <time>2014-02-23T10:02:35Z</time>
      </trkpt>
      <trkpt lat="41.619360010" lon="2.445941770">
        <ele>457.10</ele>
        <time>2014-02-23T10:02:36Z</time>
      </trkpt>
      <trkpt lat="41.619361690" lon="2.445943440">
        <ele>457.00</ele>
        <time>2014-02-23T10:02:37Z</time>
      </trkpt>
      <trkpt lat="41.619363370" lon="2.445945120">
        <ele>456.90</ele>
        <time>2014-02-23T10:02:38Z</time>
      </trkpt>
      <trkpt lat="41.619363370" lon="2.445945120">
        <ele>456.90</ele>
        <time>2014-02-23T10:02:39Z</time>
      </trkpt>
      <trkpt lat="41.619363370" lon="2.445945120">
        <ele>456.80</ele>
        <time>2014-02-23T10:02:40Z</time>
      </trkpt>
      <trkpt lat="41.619363370" lon="2.445945120">
        <ele>457.10</ele>
        <time>2014-02-23T10:02:41Z</time>
      </trkpt>
      <trkpt lat="41.619361690" lon="2.445945120">
        <ele>457.20</ele>
        <time>2014-02-23T10:02:42Z</time>
      </trkpt>
      <trkpt lat="41.619361690" lon="2.445943440">
        <ele>457.30</ele>
        <time>2014-02-23T10:02:43Z</time>
      </trkpt>
      <trkpt lat="41.619361690" lon="2.445943440">
        <ele>457.30</ele>
        <time>2014-02-23T10:02:44Z</time>
      </trkpt>
      <trkpt lat="41.619361690" lon="2.445943440">
        <ele>457.30</ele>
        <time>2014-02-23T10:02:45Z</time>
      </trkpt>
      <trkpt lat="41.619361690" lon="2.445943440">
        <ele>457.20</ele>
        <time>2014-02-23T10:02:46Z</time>
      </trkpt>
      <trkpt lat="41.619361690" lon="2.445943440">
        <ele>457.10</ele>
        <time>2014-02-23T10:02:47Z</time>
      </trkpt>
      <trkpt lat="41.619363370" lon="2.445943440">
        <ele>457.00</ele>
        <time>2014-02-23T10:02:48Z</time>
      </trkpt>
      <trkpt lat="41.619363370" lon="2.445945120">
        <ele>457.00</ele>
        <time>2014-02-23T10:02:49Z</time>
      </trkpt>
      <trkpt lat="41.619365040" lon="2.445943440">
        <ele>457.40</ele>
        <time>2014-02-23T10:02:50Z</time>
      </trkpt>
      <trkpt lat="41.619366720" lon="2.445943440">
        <ele>457.60</ele>
        <time>2014-02-23T10:02:51Z</time>
      </trkpt>
      <trkpt lat="41.619368400" lon="2.445943440">
        <ele>457.80</ele>
        <time>2014-02-23T10:02:52Z</time>
      </trkpt>
      <trkpt lat="41.619368400" lon="2.445941770">
        <ele>457.60</ele>
        <time>2014-02-23T10:02:53Z</time>
      </trkpt>
      <trkpt lat="41.619370070" lon="2.445941770">
        <ele>457.50</ele>
        <time>2014-02-23T10:02:54Z</time>
      </trkpt>
      <trkpt lat="41.619370070" lon="2.445941770">
        <ele>457.50</ele>
        <time>2014-02-23T10:02:55Z</time>
      </trkpt>
      <trkpt lat="41.619371750" lon="2.445941770">
        <ele>457.60</ele>
        <time>2014-02-23T10:02:56Z</time>
      </trkpt>
      <trkpt lat="41.619371750" lon="2.445941770">
        <ele>457.60</ele>
        <time>2014-02-23T10:02:57Z</time>
      </trkpt>
      <trkpt lat="41.619373420" lon="2.445940090">
        <ele>457.20</ele>
        <time>2014-02-23T10:02:58Z</time>
      </trkpt>
      <trkpt lat="41.619375100" lon="2.445940090">
        <ele>456.90</ele>
        <time>2014-02-23T10:02:59Z</time>
      </trkpt>
      <trkpt lat="41.619376780" lon="2.445940090">
        <ele>457.20</ele>
        <time>2014-02-23T10:03:00Z</time>
      </trkpt>
      <trkpt lat="41.619376780" lon="2.445940090">
        <ele>457.30</ele>
        <time>2014-02-23T10:03:01Z</time>
      </trkpt>
      <trkpt lat="41.619376780" lon="2.445941770">
        <ele>457.30</ele>
        <time>2014-02-23T10:03:02Z</time>
      </trkpt>
      <trkpt lat="41.619376780" lon="2.445941770">
        <ele>457.30</ele>
        <time>2014-02-23T10:03:03Z</time>
      </trkpt>
      <trkpt lat="41.619376780" lon="2.445941770">
        <ele>457.20</ele>
        <time>2014-02-23T10:03:04Z</time>
      </trkpt>
      <trkpt lat="41.619376780" lon="2.445943440">
        <ele>457.00</ele>
        <time>2014-02-23T10:03:05Z</time>
      </trkpt>
      <trkpt lat="41.619378450" lon="2.445943440">
        <ele>456.80</ele>
        <time>2014-02-23T10:03:06Z</time>
      </trkpt>
      <trkpt lat="41.619378450" lon="2.445943440">
        <ele>456.80</ele>
        <time>2014-02-23T10:03:07Z</time>
      </trkpt>
      <trkpt lat="41.619380130" lon="2.445943440">
        <ele>456.70</ele>
        <time>2014-02-23T10:03:08Z</time>
      </trkpt>
      <trkpt lat="41.619380130" lon="2.445941770">
        <ele>457.20</ele>
        <time>2014-02-23T10:03:09Z</time>
      </trkpt>
      <trkpt lat="41.619381810" lon="2.445941770">
        <ele>457.50</ele>
        <time>2014-02-23T10:03:10Z</time>
      </trkpt>
      <trkpt lat="41.619381810" lon="2.445941770">
        <ele>457.70</ele>
        <time>2014-02-23T10:03:11Z</time>
      </trkpt>
      <trkpt lat="41.619383480" lon="2.445941770">
        <ele>457.70</ele>
        <time>2014-02-23T10:03:12Z</time>
      </trkpt>
      <trkpt lat="41.619383480" lon="2.445941770">
        <ele>457.60</ele>
        <time>2014-02-23T10:03:13Z</time>
      </trkpt>
      <trkpt lat="41.619383480" lon="2.445941770">
        <ele>457.50</ele>
        <time>2014-02-23T10:03:14Z</time>
      </trkpt>
      <trkpt lat="41.619383480" lon="2.445941770">
        <ele>457.30</ele>
        <time>2014-02-23T10:03:15Z</time>
      </trkpt>
      <trkpt lat="41.619383480" lon="2.445941770">
        <ele>457.70</ele>
        <time>2014-02-23T10:03:16Z</time>
      </trkpt>
      <trkpt lat="41.619380130" lon="2.445943440">
        <ele>458.00</ele>
        <time>2014-02-23T10:03:17Z</time>
      </trkpt>
      <trkpt lat="41.619376780" lon="2.445946800">
        <ele>458.20</ele>
        <time>2014-02-23T10:03:18Z</time>
      </trkpt>
      <trkpt lat="41.619373420" lon="2.445951830">
        <ele>458.10</ele>
        <time>2014-02-23T10:03:19Z</time>
      </trkpt>
      <trkpt lat="41.619373420" lon="2.445955010">
        <ele>458.00</ele>
        <time>2014-02-23T10:03:20Z</time>
      </trkpt>
      <trkpt lat="41.619371750" lon="2.445955010">
        <ele>457.60</ele>
        <time>2014-02-23T10:03:21Z</time>
      </trkpt>
      <trkpt lat="41.619373420" lon="2.445956690">
        <ele>457.30</ele>
        <time>2014-02-23T10:03:22Z</time>
      </trkpt>
      <trkpt lat="41.619373420" lon="2.445958360">
        <ele>457.00</ele>
        <time>2014-02-23T10:03:23Z</time>
      </trkpt>
      <trkpt lat="41.619373420" lon="2.445960040">
        <ele>457.10</ele>
        <time>2014-02-23T10:03:24Z</time>
      </trkpt>
      <trkpt lat="41.619373420" lon="2.445961720">
        <ele>457.10</ele>
        <time>2014-02-23T10:03:25Z</time>
      </trkpt>
      <trkpt lat="41.619373420" lon="2.445963390">
        <ele>456.80</ele>
        <time>2014-02-23T10:03:26Z</time>
      </trkpt>
      <trkpt lat="41.619373420" lon="2.445963390">
        <ele>456.60</ele>
        <time>2014-02-23T10:03:27Z</time>
      </trkpt>
      <trkpt lat="41.619373420" lon="2.445963390">
        <ele>457.00</ele>
        <time>2014-02-23T10:03:28Z</time>
      </trkpt>
      <trkpt lat="41.619373420" lon="2.445963390">
        <ele>457.20</ele>
        <time>2014-02-23T10:03:29Z</time>
      </trkpt>
      <trkpt lat="41.619373420" lon="2.445961720">
        <ele>457.40</ele>
        <time>2014-02-23T10:03:30Z</time>
      </trkpt>
      <trkpt lat="41.619373420" lon="2.445960040">
        <ele>457.00</ele>
        <time>2014-02-23T10:03:31Z</time>
      </trkpt>
      <trkpt lat="41.619375100" lon="2.445958360">
        <ele>456.70</ele>
        <time>2014-02-23T10:03:32Z</time>
      </trkpt>
      <trkpt lat="41.619375100" lon="2.445956690">
        <ele>456.90</ele>
        <time>2014-02-23T10:03:33Z</time>
      </trkpt>
      <trkpt lat="41.619375100" lon="2.445955010">
        <ele>457.10</ele>
        <time>2014-02-23T10:03:34Z</time>
      </trkpt>
      <trkpt lat="41.619375100" lon="2.445955010">
        <ele>457.10</ele>
        <time>2014-02-23T10:03:35Z</time>
      </trkpt>
      <trkpt lat="41.619375100" lon="2.445956690">
        <ele>457.00</ele>
        <time>2014-02-23T10:03:36Z</time>
      </trkpt>
      <trkpt lat="41.619375100" lon="2.445958360">
        <ele>457.00</ele>
        <time>2014-02-23T10:03:37Z</time>
      </trkpt>
      <trkpt lat="41.619376780" lon="2.445960040">
        <ele>456.90</ele>
        <time>2014-02-23T10:03:38Z</time>
      </trkpt>
      <trkpt lat="41.619376780" lon="2.445963390">
        <ele>456.80</ele>
        <time>2014-02-23T10:03:39Z</time>
      </trkpt>
      <trkpt lat="41.619378450" lon="2.445965070">
        <ele>457.20</ele>
        <time>2014-02-23T10:03:40Z</time>
      </trkpt>
      <trkpt lat="41.619378450" lon="2.445965070">
        <ele>457.40</ele>
        <time>2014-02-23T10:03:41Z</time>
      </trkpt>
      <trkpt lat="41.619378450" lon="2.445966750">
        <ele>457.60</ele>
        <time>2014-02-23T10:03:42Z</time>
      </trkpt>
      <trkpt lat="41.619375100" lon="2.445970100">
        <ele>457.90</ele>
        <time>2014-02-23T10:03:43Z</time>
      </trkpt>
      <trkpt lat="41.619373420" lon="2.445971770">
        <ele>458.10</ele>
        <time>2014-02-23T10:03:44Z</time>
      </trkpt>
      <trkpt lat="41.619371750" lon="2.445973450">
        <ele>457.90</ele>
        <time>2014-02-23T10:03:45Z</time>
      </trkpt>
      <trkpt lat="41.619371750" lon="2.445973450">
        <ele>457.80</ele>
        <time>2014-02-23T10:03:46Z</time>
      </trkpt>
      <trkpt lat="41.619371750" lon="2.445975130">
        <ele>457.90</ele>
        <time>2014-02-23T10:03:47Z</time>
      </trkpt>
      <trkpt lat="41.619371750" lon="2.445975130">
        <ele>457.90</ele>
        <time>2014-02-23T10:03:48Z</time>
      </trkpt>
      <trkpt lat="41.619370070" lon="2.445975130">
        <ele>457.90</ele>
        <time>2014-02-23T10:03:49Z</time>
      </trkpt>
      <trkpt lat="41.619371750" lon="2.445975130">
        <ele>457.70</ele>
        <time>2014-02-23T10:03:50Z</time>
      </trkpt>
      <trkpt lat="41.619371750" lon="2.445975130">
        <ele>457.60</ele>
        <time>2014-02-23T10:03:51Z</time>
      </trkpt>
      <trkpt lat="41.619375100" lon="2.445975130">
        <ele>457.30</ele>
        <time>2014-02-23T10:03:52Z</time>
      </trkpt>
      <trkpt lat="41.619376780" lon="2.445976800">
        <ele>457.00</ele>
        <time>2014-02-23T10:03:53Z</time>
      </trkpt>
      <trkpt lat="41.619378450" lon="2.445976800">
        <ele>457.20</ele>
        <time>2014-02-23T10:03:54Z</time>
      </trkpt>
      <trkpt lat="41.619380130" lon="2.445975130">
        <ele>457.30</ele>
        <time>2014-02-23T10:03:55Z</time>
      </trkpt>
      <trkpt lat="41.619381810" lon="2.445975130">
        <ele>457.50</ele>
        <time>2014-02-23T10:03:56Z</time>
      </trkpt>
      <trkpt lat="41.619383480" lon="2.445975130">
        <ele>457.20</ele>
        <time>2014-02-23T10:03:57Z</time>
      </trkpt>
      <trkpt lat="41.619385160" lon="2.445975130">
        <ele>457.00</ele>
        <time>2014-02-23T10:03:58Z</time>
      </trkpt>
      <trkpt lat="41.619386670" lon="2.445973450">
        <ele>457.10</ele>
        <time>2014-02-23T10:03:59Z</time>
      </trkpt>
      <trkpt lat="41.619390020" lon="2.445971770">
        <ele>457.20</ele>
        <time>2014-02-23T10:04:00Z</time>
      </trkpt>
      <trkpt lat="41.619391700" lon="2.445970100">
        <ele>457.20</ele>
        <time>2014-02-23T10:04:01Z</time>
      </trkpt>
      <trkpt lat="41.619395050" lon="2.445968420">
        <ele>457.10</ele>
        <time>2014-02-23T10:04:02Z</time>
      </trkpt>
      <trkpt lat="41.619396730" lon="2.445968420">
        <ele>457.00</ele>
        <time>2014-02-23T10:04:03Z</time>
      </trkpt>
      <trkpt lat="41.619400080" lon="2.445966750">
        <ele>457.20</ele>
        <time>2014-02-23T10:04:04Z</time>
      </trkpt>
      <trkpt lat="41.619401760" lon="2.445965070">
        <ele>457.30</ele>
        <time>2014-02-23T10:04:05Z</time>
      </trkpt>
      <trkpt lat="41.619403430" lon="2.445963390">
        <ele>457.00</ele>
        <time>2014-02-23T10:04:06Z</time>
      </trkpt>
      <trkpt lat="41.619405110" lon="2.445963390">
        <ele>456.80</ele>
        <time>2014-02-23T10:04:07Z</time>
      </trkpt>
      <trkpt lat="41.619406780" lon="2.445961720">
        <ele>456.60</ele>
        <time>2014-02-23T10:04:08Z</time>
      </trkpt>
      <trkpt lat="41.619408460" lon="2.445961720">
        <ele>456.80</ele>
        <time>2014-02-23T10:04:09Z</time>
      </trkpt>
      <trkpt lat="41.619410140" lon="2.445961720">
        <ele>456.90</ele>
        <time>2014-02-23T10:04:10Z</time>
      </trkpt>
      <trkpt lat="41.619411810" lon="2.445960040">
        <ele>457.40</ele>
        <time>2014-02-23T10:04:11Z</time>
      </trkpt>
      <trkpt lat="41.619413490" lon="2.445960040">
        <ele>457.80</ele>
        <time>2014-02-23T10:04:12Z</time>
      </trkpt>
      <trkpt lat="41.619415000" lon="2.445960040">
        <ele>457.90</ele>
        <time>2014-02-23T10:04:13Z</time>
      </trkpt>
      <trkpt lat="41.619416680" lon="2.445960040">
        <ele>457.90</ele>
        <time>2014-02-23T10:04:14Z</time>
      </trkpt>
      <trkpt lat="41.619416680" lon="2.445960040">
        <ele>458.00</ele>
        <time>2014-02-23T10:04:15Z</time>
      </trkpt>
      <trkpt lat="41.619418350" lon="2.445958360">
        <ele>458.20</ele>
        <time>2014-02-23T10:04:16Z</time>
      </trkpt>
      <trkpt lat="41.619420030" lon="2.445958360">
        <ele>458.30</ele>
        <time>2014-02-23T10:04:17Z</time>
      </trkpt>
      <trkpt lat="41.619420030" lon="2.445958360">
        <ele>457.60</ele>
        <time>2014-02-23T10:04:18Z</time>
      </trkpt>
      <trkpt lat="41.619420030" lon="2.445956690">
        <ele>457.10</ele>
        <time>2014-02-23T10:04:19Z</time>
      </trkpt>
      <trkpt lat="41.619420030" lon="2.445956690">
        <ele>456.70</ele>
        <time>2014-02-23T10:04:20Z</time>
      </trkpt>
      <trkpt lat="41.619420030" lon="2.445956690">
        <ele>457.10</ele>
        <time>2014-02-23T10:04:21Z</time>
      </trkpt>
      <trkpt lat="41.619420030" lon="2.445955010">
        <ele>457.30</ele>
        <time>2014-02-23T10:04:22Z</time>
      </trkpt>
      <trkpt lat="41.619420030" lon="2.445955010">
        <ele>457.40</ele>
        <time>2014-02-23T10:04:23Z</time>
      </trkpt>
      <trkpt lat="41.619420030" lon="2.445955010">
        <ele>457.40</ele>
        <time>2014-02-23T10:04:24Z</time>
      </trkpt>
      <trkpt lat="41.619420030" lon="2.445955010">
        <ele>457.80</ele>
        <time>2014-02-23T10:04:25Z</time>
      </trkpt>
      <trkpt lat="41.619421700" lon="2.445955010">
        <ele>458.20</ele>
        <time>2014-02-23T10:04:26Z</time>
      </trkpt>
      <trkpt lat="41.619421700" lon="2.445955010">
        <ele>458.40</ele>
        <time>2014-02-23T10:04:27Z</time>
      </trkpt>
      <trkpt lat="41.619421700" lon="2.445955010">
        <ele>458.20</ele>
        <time>2014-02-23T10:04:28Z</time>
      </trkpt>
      <trkpt lat="41.619421700" lon="2.445955010">
        <ele>458.10</ele>
        <time>2014-02-23T10:04:29Z</time>
      </trkpt>
      <trkpt lat="41.619421700" lon="2.445955010">
        <ele>457.90</ele>
        <time>2014-02-23T10:04:30Z</time>
      </trkpt>
      <trkpt lat="41.619423380" lon="2.445955010">
        <ele>457.80</ele>
        <time>2014-02-23T10:04:31Z</time>
      </trkpt>
      <trkpt lat="41.619423380" lon="2.445955010">
        <ele>457.70</ele>
        <time>2014-02-23T10:04:32Z</time>
      </trkpt>
      <trkpt lat="41.619423380" lon="2.445955010">
        <ele>457.70</ele>
        <time>2014-02-23T10:04:33Z</time>
      </trkpt>
      <trkpt lat="41.619425060" lon="2.445956690">
        <ele>457.70</ele>
        <time>2014-02-23T10:04:34Z</time>
      </trkpt>
      <trkpt lat="41.619425060" lon="2.445956690">
        <ele>457.80</ele>
        <time>2014-02-23T10:04:35Z</time>
      </trkpt>
      <trkpt lat="41.619425060" lon="2.445956690">
        <ele>458.00</ele>
        <time>2014-02-23T10:04:36Z</time>
      </trkpt>
      <trkpt lat="41.619426730" lon="2.445956690">
        <ele>457.70</ele>
        <time>2014-02-23T10:04:37Z</time>
      </trkpt>
      <trkpt lat="41.619425060" lon="2.445958360">
        <ele>457.50</ele>
        <time>2014-02-23T10:04:38Z</time>
      </trkpt>
      <trkpt lat="41.619425060" lon="2.445958360">
        <ele>457.40</ele>
        <time>2014-02-23T10:04:39Z</time>
      </trkpt>
      <trkpt lat="41.619425060" lon="2.445958360">
        <ele>457.30</ele>
        <time>2014-02-23T10:04:40Z</time>
      </trkpt>
      <trkpt lat="41.619418350" lon="2.445958360">
        <ele>457.20</ele>
        <time>2014-02-23T10:04:41Z</time>
      </trkpt>
      <trkpt lat="41.619406780" lon="2.445963390">
        <ele>457.30</ele>
        <time>2014-02-23T10:04:42Z</time>
      </trkpt>
      <trkpt lat="41.619393370" lon="2.445970100">
        <ele>457.30</ele>
        <time>2014-02-23T10:04:43Z</time>
      </trkpt>
      <trkpt lat="41.619380130" lon="2.445971770">
        <ele>457.20</ele>
        <time>2014-02-23T10:04:44Z</time>
      </trkpt>
      <trkpt lat="41.619363370" lon="2.445968420">
        <ele>457.10</ele>
        <time>2014-02-23T10:04:45Z</time>
      </trkpt>
      <trkpt lat="41.619346770" lon="2.445963390">
        <ele>457.00</ele>
        <time>2014-02-23T10:04:46Z</time>
      </trkpt>
      <trkpt lat="41.619328330" lon="2.445955010">
        <ele>457.00</ele>
        <time>2014-02-23T10:04:47Z</time>
      </trkpt>
      <trkpt lat="41.619306700" lon="2.445950150">
        <ele>456.90</ele>
        <time>2014-02-23T10:04:48Z</time>
      </trkpt>
      <trkpt lat="41.619285080" lon="2.445943440">
        <ele>457.50</ele>
        <time>2014-02-23T10:04:49Z</time>
      </trkpt>
      <trkpt lat="41.619263450" lon="2.445936740">
        <ele>457.90</ele>
        <time>2014-02-23T10:04:50Z</time>
      </trkpt>
      <trkpt lat="41.619238480" lon="2.445928360">
        <ele>458.30</ele>
        <time>2014-02-23T10:04:51Z</time>
      </trkpt>
      <trkpt lat="41.619211820" lon="2.445921820">
        <ele>458.20</ele>
        <time>2014-02-23T10:04:52Z</time>
      </trkpt>
      <trkpt lat="41.619183490" lon="2.445915110">
        <ele>458.10</ele>
        <time>2014-02-23T10:04:53Z</time>
      </trkpt>
      <trkpt lat="41.619153480" lon="2.445908410">
        <ele>457.60</ele>
        <time>2014-02-23T10:04:54Z</time>
      </trkpt>
      <trkpt lat="41.619121800" lon="2.445901700">
        <ele>457.10</ele>
        <time>2014-02-23T10:04:55Z</time>
      </trkpt>
      <trkpt lat="41.619093470" lon="2.445893490">
        <ele>457.10</ele>
        <time>2014-02-23T10:04:56Z</time>
      </trkpt>
      <trkpt lat="41.619063460" lon="2.445881750">
        <ele>457.00</ele>
        <time>2014-02-23T10:04:57Z</time>
      </trkpt>
      <trkpt lat="41.619031780" lon="2.445871690">
        <ele>456.90</ele>
        <time>2014-02-23T10:04:58Z</time>
      </trkpt>
      <trkpt lat="41.619000090" lon="2.445861800">
        <ele>456.90</ele>
        <time>2014-02-23T10:04:59Z</time>
      </trkpt>
      <trkpt lat="41.618968410" lon="2.445850070">
        <ele>456.90</ele>
        <time>2014-02-23T10:05:00Z</time>
      </trkpt>
      <trkpt lat="41.618936730" lon="2.445835150">
        <ele>456.70</ele>
        <time>2014-02-23T10:05:01Z</time>
      </trkpt>
      <trkpt lat="41.618908400" lon="2.445816710">
        <ele>456.70</ele>
        <time>2014-02-23T10:05:02Z</time>
      </trkpt>
      <trkpt lat="41.618881740" lon="2.445796760">
        <ele>456.30</ele>
        <time>2014-02-23T10:05:03Z</time>
      </trkpt>
      <trkpt lat="41.618856760" lon="2.445775140">
        <ele>456.10</ele>
        <time>2014-02-23T10:05:04Z</time>
      </trkpt>
      <trkpt lat="41.618831790" lon="2.445753340">
        <ele>455.90</ele>
        <time>2014-02-23T10:05:05Z</time>
      </trkpt>
      <trkpt lat="41.618808480" lon="2.445730040">
        <ele>456.00</ele>
        <time>2014-02-23T10:05:06Z</time>
      </trkpt>
      <trkpt lat="41.618793400" lon="2.445703390">
        <ele>456.00</ele>
        <time>2014-02-23T10:05:07Z</time>
      </trkpt>
      <trkpt lat="41.618785010" lon="2.445673380">
        <ele>455.90</ele>
        <time>2014-02-23T10:05:08Z</time>
      </trkpt>
      <trkpt lat="41.618780150" lon="2.445643370">
        <ele>455.80</ele>
        <time>2014-02-23T10:05:09Z</time>
      </trkpt>
      <trkpt lat="41.618780150" lon="2.445618390">
        <ele>456.10</ele>
        <time>2014-02-23T10:05:10Z</time>
      </trkpt>
      <trkpt lat="41.618783340" lon="2.445591740">
        <ele>456.20</ele>
        <time>2014-02-23T10:05:11Z</time>
      </trkpt>
      <trkpt lat="41.618786690" lon="2.445565080">
        <ele>456.30</ele>
        <time>2014-02-23T10:05:12Z</time>
      </trkpt>
      <trkpt lat="41.618788370" lon="2.445538430">
        <ele>456.30</ele>
        <time>2014-02-23T10:05:13Z</time>
      </trkpt>
      <trkpt lat="41.618790040" lon="2.445511780">
        <ele>456.20</ele>
        <time>2014-02-23T10:05:14Z</time>
      </trkpt>
      <trkpt lat="41.618791720" lon="2.445486800">
        <ele>456.40</ele>
        <time>2014-02-23T10:05:15Z</time>
      </trkpt>
      <trkpt lat="41.618796750" lon="2.445460140">
        <ele>456.40</ele>
        <time>2014-02-23T10:05:16Z</time>
      </trkpt>
      <trkpt lat="41.618803460" lon="2.445433490">
        <ele>456.50</ele>
        <time>2014-02-23T10:05:17Z</time>
      </trkpt>
      <trkpt lat="41.618810160" lon="2.445408340">
        <ele>456.70</ele>
        <time>2014-02-23T10:05:18Z</time>
      </trkpt>
      <trkpt lat="41.618816700" lon="2.445383360">
        <ele>456.90</ele>
        <time>2014-02-23T10:05:19Z</time>
      </trkpt>
      <trkpt lat="41.618821730" lon="2.445360060">
        <ele>457.00</ele>
        <time>2014-02-23T10:05:20Z</time>
      </trkpt>
      <trkpt lat="41.618825080" lon="2.445341790">
        <ele>457.10</ele>
        <time>2014-02-23T10:05:21Z</time>
      </trkpt>
      <trkpt lat="41.618828430" lon="2.445323350">
        <ele>457.40</ele>
        <time>2014-02-23T10:05:22Z</time>
      </trkpt>
      <trkpt lat="41.618828430" lon="2.445303400">
        <ele>457.60</ele>
        <time>2014-02-23T10:05:23Z</time>
      </trkpt>
      <trkpt lat="41.618828430" lon="2.445283450">
        <ele>457.80</ele>
        <time>2014-02-23T10:05:24Z</time>
      </trkpt>
      <trkpt lat="41.618826760" lon="2.445261830">
        <ele>457.80</ele>
        <time>2014-02-23T10:05:25Z</time>
      </trkpt>
      <trkpt lat="41.618823400" lon="2.445240030">
        <ele>457.90</ele>
        <time>2014-02-23T10:05:26Z</time>
      </trkpt>
      <trkpt lat="41.618820050" lon="2.445221760">
        <ele>457.90</ele>
        <time>2014-02-23T10:05:27Z</time>
      </trkpt>
      <trkpt lat="41.618820050" lon="2.445203490">
        <ele>457.90</ele>
        <time>2014-02-23T10:05:28Z</time>
      </trkpt>
      <trkpt lat="41.618813350" lon="2.445188400">
        <ele>457.80</ele>
        <time>2014-02-23T10:05:29Z</time>
      </trkpt>
      <trkpt lat="41.618806810" lon="2.445171810">
        <ele>457.70</ele>
        <time>2014-02-23T10:05:30Z</time>
      </trkpt>
      <trkpt lat="41.618801780" lon="2.445158390">
        <ele>457.60</ele>
        <time>2014-02-23T10:05:31Z</time>
      </trkpt>
      <trkpt lat="41.618796750" lon="2.445140120">
        <ele>457.30</ele>
        <time>2014-02-23T10:05:32Z</time>
      </trkpt>
      <trkpt lat="41.618793400" lon="2.445121680">
        <ele>457.10</ele>
        <time>2014-02-23T10:05:33Z</time>
      </trkpt>
      <trkpt lat="41.618790040" lon="2.445103410">
        <ele>457.50</ele>
        <time>2014-02-23T10:05:34Z</time>
      </trkpt>
      <trkpt lat="41.618790040" lon="2.445085140">
        <ele>457.80</ele>
        <time>2014-02-23T10:05:35Z</time>
      </trkpt>
      <trkpt lat="41.618790040" lon="2.445065020">
        <ele>458.00</ele>
        <time>2014-02-23T10:05:36Z</time>
      </trkpt>
      <trkpt lat="41.618788370" lon="2.445043390">
        <ele>458.10</ele>
        <time>2014-02-23T10:05:37Z</time>
      </trkpt>
      <trkpt lat="41.618788370" lon="2.445021770">
        <ele>458.20</ele>
        <time>2014-02-23T10:05:38Z</time>
      </trkpt>
      <trkpt lat="41.618788370" lon="2.444998470">
        <ele>458.60</ele>
        <time>2014-02-23T10:05:39Z</time>
      </trkpt>
      <trkpt lat="41.618781660" lon="2.444976670">
        <ele>458.90</ele>
        <time>2014-02-23T10:05:40Z</time>
      </trkpt>
      <trkpt lat="41.618775120" lon="2.444956730">
        <ele>458.90</ele>
        <time>2014-02-23T10:05:41Z</time>
      </trkpt>
      <trkpt lat="41.618768420" lon="2.444933420">
        <ele>458.90</ele>
        <time>2014-02-23T10:05:42Z</time>
      </trkpt>
      <trkpt lat="41.618765070" lon="2.444910120">
        <ele>458.90</ele>
        <time>2014-02-23T10:05:43Z</time>
      </trkpt>
      <trkpt lat="41.618761710" lon="2.444886820">
        <ele>459.10</ele>
        <time>2014-02-23T10:05:44Z</time>
      </trkpt>
      <trkpt lat="41.618755010" lon="2.444865030">
        <ele>459.20</ele>
        <time>2014-02-23T10:05:45Z</time>
      </trkpt>
      <trkpt lat="41.618748470" lon="2.444843400">
        <ele>459.40</ele>
        <time>2014-02-23T10:05:46Z</time>
      </trkpt>
      <trkpt lat="41.618743440" lon="2.444821780">
        <ele>459.50</ele>
        <time>2014-02-23T10:05:47Z</time>
      </trkpt>
      <trkpt lat="41.618738410" lon="2.444800150">
        <ele>459.70</ele>
        <time>2014-02-23T10:05:48Z</time>
      </trkpt>
      <trkpt lat="41.618736740" lon="2.444780040">
        <ele>459.90</ele>
        <time>2014-02-23T10:05:49Z</time>
      </trkpt>
      <trkpt lat="41.618733380" lon="2.444758410">
        <ele>460.00</ele>
        <time>2014-02-23T10:05:50Z</time>
      </trkpt>
      <trkpt lat="41.618726680" lon="2.444740140">
        <ele>460.40</ele>
        <time>2014-02-23T10:05:51Z</time>
      </trkpt>
      <trkpt lat="41.618723490" lon="2.444721700">
        <ele>460.70</ele>
        <time>2014-02-23T10:05:52Z</time>
      </trkpt>
      <trkpt lat="41.618718460" lon="2.444703420">
        <ele>461.00</ele>
        <time>2014-02-23T10:05:53Z</time>
      </trkpt>
      <trkpt lat="41.618715110" lon="2.444685150">
        <ele>461.30</ele>
        <time>2014-02-23T10:05:54Z</time>
      </trkpt>
      <trkpt lat="41.618713430" lon="2.444666710">
        <ele>461.60</ele>
        <time>2014-02-23T10:05:55Z</time>
      </trkpt>
      <trkpt lat="41.618711760" lon="2.444650120">
        <ele>461.90</ele>
        <time>2014-02-23T10:05:56Z</time>
      </trkpt>
      <trkpt lat="41.618706730" lon="2.444633350">
        <ele>462.00</ele>
        <time>2014-02-23T10:05:57Z</time>
      </trkpt>
      <trkpt lat="41.618700020" lon="2.444616760">
        <ele>462.20</ele>
        <time>2014-02-23T10:05:58Z</time>
      </trkpt>
      <trkpt lat="41.618695160" lon="2.444600160">
        <ele>462.40</ele>
        <time>2014-02-23T10:05:59Z</time>
      </trkpt>
      <trkpt lat="41.618688460" lon="2.444583400">
        <ele>462.30</ele>
        <time>2014-02-23T10:06:00Z</time>
      </trkpt>
      <trkpt lat="41.618683430" lon="2.444566800">
        <ele>462.20</ele>
        <time>2014-02-23T10:06:01Z</time>
      </trkpt>
      <trkpt lat="41.618678400" lon="2.444550040">
        <ele>462.10</ele>
        <time>2014-02-23T10:06:02Z</time>
      </trkpt>
      <trkpt lat="41.618671690" lon="2.444535120">
        <ele>462.50</ele>
        <time>2014-02-23T10:06:03Z</time>
      </trkpt>
      <trkpt lat="41.618665150" lon="2.444518350">
        <ele>462.80</ele>
        <time>2014-02-23T10:06:04Z</time>
      </trkpt>
      <trkpt lat="41.618658450" lon="2.444501760">
        <ele>463.30</ele>
        <time>2014-02-23T10:06:05Z</time>
      </trkpt>
      <trkpt lat="41.618650070" lon="2.444483480">
        <ele>463.70</ele>
        <time>2014-02-23T10:06:06Z</time>
      </trkpt>
      <trkpt lat="41.618641680" lon="2.444466720">
        <ele>463.60</ele>
        <time>2014-02-23T10:06:07Z</time>
      </trkpt>
      <trkpt lat="41.618631790" lon="2.444451800">
        <ele>463.50</ele>
        <time>2014-02-23T10:06:08Z</time>
      </trkpt>
      <trkpt lat="41.618620060" lon="2.444438390">
        <ele>463.50</ele>
        <time>2014-02-23T10:06:09Z</time>
      </trkpt>
      <trkpt lat="41.618606820" lon="2.444425150">
        <ele>463.70</ele>
        <time>2014-02-23T10:06:10Z</time>
      </trkpt>
      <trkpt lat="41.618593400" lon="2.444416760">
        <ele>463.90</ele>
        <time>2014-02-23T10:06:11Z</time>
      </trkpt>
      <trkpt lat="41.618580160" lon="2.444408380">
        <ele>463.90</ele>
        <time>2014-02-23T10:06:12Z</time>
      </trkpt>
      <trkpt lat="41.618566750" lon="2.444403350">
        <ele>463.80</ele>
        <time>2014-02-23T10:06:13Z</time>
      </trkpt>
      <trkpt lat="41.618555020" lon="2.444403350">
        <ele>463.80</ele>
        <time>2014-02-23T10:06:14Z</time>
      </trkpt>
      <trkpt lat="41.618543450" lon="2.444408380">
        <ele>464.30</ele>
        <time>2014-02-23T10:06:15Z</time>
      </trkpt>
      <trkpt lat="41.618535070" lon="2.444415090">
        <ele>464.60</ele>
        <time>2014-02-23T10:06:16Z</time>
      </trkpt>
      <trkpt lat="41.618530040" lon="2.444426820">
        <ele>464.60</ele>
        <time>2014-02-23T10:06:17Z</time>
      </trkpt>
      <trkpt lat="41.618526680" lon="2.444441740">
        <ele>464.50</ele>
        <time>2014-02-23T10:06:18Z</time>
      </trkpt>
      <trkpt lat="41.618523330" lon="2.444455150">
        <ele>464.70</ele>
        <time>2014-02-23T10:06:19Z</time>
      </trkpt>
      <trkpt lat="41.618520150" lon="2.444468400">
        <ele>464.80</ele>
        <time>2014-02-23T10:06:20Z</time>
      </trkpt>
      <trkpt lat="41.618515120" lon="2.444481810">
        <ele>464.80</ele>
        <time>2014-02-23T10:06:21Z</time>
      </trkpt>
      <trkpt lat="41.618510090" lon="2.444495050">
        <ele>464.90</ele>
        <time>2014-02-23T10:06:22Z</time>
      </trkpt>
      <trkpt lat="41.618505060" lon="2.444508460">
        <ele>465.00</ele>
        <time>2014-02-23T10:06:23Z</time>
      </trkpt>
      <trkpt lat="41.618498350" lon="2.444520030">
        <ele>464.90</ele>
        <time>2014-02-23T10:06:24Z</time>
      </trkpt>
      <trkpt lat="41.618490140" lon="2.444533440">
        <ele>464.70</ele>
        <time>2014-02-23T10:06:25Z</time>
      </trkpt>
      <trkpt lat="41.618481760" lon="2.444548360">
        <ele>465.20</ele>
        <time>2014-02-23T10:06:26Z</time>
      </trkpt>
      <trkpt lat="41.618475050" lon="2.444561770">
        <ele>465.50</ele>
        <time>2014-02-23T10:06:27Z</time>
      </trkpt>
      <trkpt lat="41.618470020" lon="2.444573340">
        <ele>465.70</ele>
        <time>2014-02-23T10:06:28Z</time>
      </trkpt>
      <trkpt lat="41.618465160" lon="2.444586750">
        <ele>466.00</ele>
        <time>2014-02-23T10:06:29Z</time>
      </trkpt>
      <trkpt lat="41.618465160" lon="2.444600160">
        <ele>466.10</ele>
        <time>2014-02-23T10:06:30Z</time>
      </trkpt>
      <trkpt lat="41.618466670" lon="2.444616760">
        <ele>466.20</ele>
        <time>2014-02-23T10:06:31Z</time>
      </trkpt>
      <trkpt lat="41.618465160" lon="2.444633350">
        <ele>466.30</ele>
        <time>2014-02-23T10:06:32Z</time>
      </trkpt>
      <trkpt lat="41.618461810" lon="2.444651790">
        <ele>466.50</ele>
        <time>2014-02-23T10:06:33Z</time>
      </trkpt>
      <trkpt lat="41.618460130" lon="2.444670060">
        <ele>466.70</ele>
        <time>2014-02-23T10:06:34Z</time>
      </trkpt>
      <trkpt lat="41.618456780" lon="2.444688340">
        <ele>466.90</ele>
        <time>2014-02-23T10:06:35Z</time>
      </trkpt>
      <trkpt lat="41.618453430" lon="2.444708450">
        <ele>466.80</ele>
        <time>2014-02-23T10:06:36Z</time>
      </trkpt>
      <trkpt lat="41.618450070" lon="2.444730080">
        <ele>466.70</ele>
        <time>2014-02-23T10:06:37Z</time>
      </trkpt>
      <trkpt lat="41.618446720" lon="2.444750030">
        <ele>466.60</ele>
        <time>2014-02-23T10:06:38Z</time>
      </trkpt>
      <trkpt lat="41.618445040" lon="2.444765120">
        <ele>466.50</ele>
        <time>2014-02-23T10:06:39Z</time>
      </trkpt>
      <trkpt lat="41.618443370" lon="2.444780040">
        <ele>466.40</ele>
        <time>2014-02-23T10:06:40Z</time>
      </trkpt>
      <trkpt lat="41.618441690" lon="2.444795120">
        <ele>466.80</ele>
        <time>2014-02-23T10:06:41Z</time>
      </trkpt>
      <trkpt lat="41.618441690" lon="2.444811720">
        <ele>467.00</ele>
        <time>2014-02-23T10:06:42Z</time>
      </trkpt>
      <trkpt lat="41.618441690" lon="2.444828480">
        <ele>467.30</ele>
        <time>2014-02-23T10:06:43Z</time>
      </trkpt>
      <trkpt lat="41.618441690" lon="2.444845080">
        <ele>467.50</ele>
        <time>2014-02-23T10:06:44Z</time>
      </trkpt>
      <trkpt lat="41.618440020" lon="2.444863350">
        <ele>467.40</ele>
        <time>2014-02-23T10:06:45Z</time>
      </trkpt>
      <trkpt lat="41.618440020" lon="2.444881790">
        <ele>467.30</ele>
        <time>2014-02-23T10:06:46Z</time>
      </trkpt>
      <trkpt lat="41.618440020" lon="2.444901740">
        <ele>467.20</ele>
        <time>2014-02-23T10:06:47Z</time>
      </trkpt>
      <trkpt lat="41.618440020" lon="2.444920010">
        <ele>467.60</ele>
        <time>2014-02-23T10:06:48Z</time>
      </trkpt>
      <trkpt lat="41.618436660" lon="2.444940130">
        <ele>467.80</ele>
        <time>2014-02-23T10:06:49Z</time>
      </trkpt>
      <trkpt lat="41.618435150" lon="2.444958400">
        <ele>468.20</ele>
        <time>2014-02-23T10:06:50Z</time>
      </trkpt>
      <trkpt lat="41.618431800" lon="2.444978350">
        <ele>468.40</ele>
        <time>2014-02-23T10:06:51Z</time>
      </trkpt>
      <trkpt lat="41.618428450" lon="2.444995120">
        <ele>468.80</ele>
        <time>2014-02-23T10:06:52Z</time>
      </trkpt>
      <trkpt lat="41.618425100" lon="2.445011710">
        <ele>469.20</ele>
        <time>2014-02-23T10:06:53Z</time>
      </trkpt>
      <trkpt lat="41.618420070" lon="2.445028480">
        <ele>469.40</ele>
        <time>2014-02-23T10:06:54Z</time>
      </trkpt>
      <trkpt lat="41.618418390" lon="2.445043390">
        <ele>469.60</ele>
        <time>2014-02-23T10:06:55Z</time>
      </trkpt>
      <trkpt lat="41.618416710" lon="2.445061670">
        <ele>469.70</ele>
        <time>2014-02-23T10:06:56Z</time>
      </trkpt>
      <trkpt lat="41.618415040" lon="2.445080110">
        <ele>469.60</ele>
        <time>2014-02-23T10:06:57Z</time>
      </trkpt>
      <trkpt lat="41.618413360" lon="2.445096700">
        <ele>469.60</ele>
        <time>2014-02-23T10:06:58Z</time>
      </trkpt>
      <trkpt lat="41.618410010" lon="2.445113470">
        <ele>469.50</ele>
        <time>2014-02-23T10:06:59Z</time>
      </trkpt>
      <trkpt lat="41.618405150" lon="2.445131740">
        <ele>469.50</ele>
        <time>2014-02-23T10:07:00Z</time>
      </trkpt>
      <trkpt lat="41.618401790" lon="2.445150010">
        <ele>469.50</ele>
        <time>2014-02-23T10:07:01Z</time>
      </trkpt>
      <trkpt lat="41.618398440" lon="2.445168450">
        <ele>469.80</ele>
        <time>2014-02-23T10:07:02Z</time>
      </trkpt>
      <trkpt lat="41.618396770" lon="2.445186730">
        <ele>470.10</ele>
        <time>2014-02-23T10:07:03Z</time>
      </trkpt>
      <trkpt lat="41.618395090" lon="2.445206670">
        <ele>470.20</ele>
        <time>2014-02-23T10:07:04Z</time>
      </trkpt>
      <trkpt lat="41.618391740" lon="2.445223440">
        <ele>470.20</ele>
        <time>2014-02-23T10:07:05Z</time>
      </trkpt>
      <trkpt lat="41.618388380" lon="2.445243390">
        <ele>470.20</ele>
        <time>2014-02-23T10:07:06Z</time>
      </trkpt>
      <trkpt lat="41.618385030" lon="2.445260150">
        <ele>470.30</ele>
        <time>2014-02-23T10:07:07Z</time>
      </trkpt>
      <trkpt lat="41.618385030" lon="2.445275070">
        <ele>470.40</ele>
        <time>2014-02-23T10:07:08Z</time>
      </trkpt>
      <trkpt lat="41.618380000" lon="2.445293340">
        <ele>470.50</ele>
        <time>2014-02-23T10:07:09Z</time>
      </trkpt>
      <trkpt lat="41.618376820" lon="2.445313460">
        <ele>470.50</ele>
        <time>2014-02-23T10:07:10Z</time>
      </trkpt>
      <trkpt lat="41.618373460" lon="2.445333410">
        <ele>470.60</ele>
        <time>2014-02-23T10:07:11Z</time>
      </trkpt>
      <trkpt lat="41.618368430" lon="2.445351680">
        <ele>471.10</ele>
        <time>2014-02-23T10:07:12Z</time>
      </trkpt>
      <trkpt lat="41.618361730" lon="2.445370120">
        <ele>471.50</ele>
        <time>2014-02-23T10:07:13Z</time>
      </trkpt>
      <trkpt lat="41.618355020" lon="2.445390070">
        <ele>471.50</ele>
        <time>2014-02-23T10:07:14Z</time>
      </trkpt>
      <trkpt lat="41.618350160" lon="2.445408340">
        <ele>471.60</ele>
        <time>2014-02-23T10:07:15Z</time>
      </trkpt>
      <trkpt lat="41.618346810" lon="2.445426780">
        <ele>471.80</ele>
        <time>2014-02-23T10:07:16Z</time>
      </trkpt>
      <trkpt lat="41.618343460" lon="2.445445060">
        <ele>471.90</ele>
        <time>2014-02-23T10:07:17Z</time>
      </trkpt>
      <trkpt lat="41.618340100" lon="2.445465000">
        <ele>472.10</ele>
        <time>2014-02-23T10:07:18Z</time>
      </trkpt>
      <trkpt lat="41.618335070" lon="2.445481770">
        <ele>472.20</ele>
        <time>2014-02-23T10:07:19Z</time>
      </trkpt>
      <trkpt lat="41.618328370" lon="2.445496690">
        <ele>472.40</ele>
        <time>2014-02-23T10:07:20Z</time>
      </trkpt>
      <trkpt lat="41.618320150" lon="2.445513450">
        <ele>472.40</ele>
        <time>2014-02-23T10:07:21Z</time>
      </trkpt>
      <trkpt lat="41.618313450" lon="2.445531720">
        <ele>472.40</ele>
        <time>2014-02-23T10:07:22Z</time>
      </trkpt>
      <trkpt lat="41.618305070" lon="2.445550000">
        <ele>472.60</ele>
        <time>2014-02-23T10:07:23Z</time>
      </trkpt>
      <trkpt lat="41.618296690" lon="2.445568440">
        <ele>472.70</ele>
        <time>2014-02-23T10:07:24Z</time>
      </trkpt>
      <trkpt lat="41.618288470" lon="2.445585030">
        <ele>472.80</ele>
        <time>2014-02-23T10:07:25Z</time>
      </trkpt>
      <trkpt lat="41.618280090" lon="2.445603470">
        <ele>473.00</ele>
        <time>2014-02-23T10:07:26Z</time>
      </trkpt>
      <trkpt lat="41.618271710" lon="2.445620070">
        <ele>473.20</ele>
        <time>2014-02-23T10:07:27Z</time>
      </trkpt>
      <trkpt lat="41.618263490" lon="2.445638340">
        <ele>473.10</ele>
        <time>2014-02-23T10:07:28Z</time>
      </trkpt>
      <trkpt lat="41.618258460" lon="2.445653430">
        <ele>473.10</ele>
        <time>2014-02-23T10:07:29Z</time>
      </trkpt>
      <trkpt lat="41.618253430" lon="2.445671700">
        <ele>473.50</ele>
        <time>2014-02-23T10:07:30Z</time>
      </trkpt>
      <trkpt lat="41.618243380" lon="2.445691820">
        <ele>473.70</ele>
        <time>2014-02-23T10:07:31Z</time>
      </trkpt>
      <trkpt lat="41.618233490" lon="2.445711770">
        <ele>473.90</ele>
        <time>2014-02-23T10:07:32Z</time>
      </trkpt>
      <trkpt lat="41.618221750" lon="2.445730040">
        <ele>474.10</ele>
        <time>2014-02-23T10:07:33Z</time>
      </trkpt>
      <trkpt lat="41.618211690" lon="2.445748480">
        <ele>474.30</ele>
        <time>2014-02-23T10:07:34Z</time>
      </trkpt>
      <trkpt lat="41.618201800" lon="2.445765080">
        <ele>474.40</ele>
        <time>2014-02-23T10:07:35Z</time>
      </trkpt>
      <trkpt lat="41.618190070" lon="2.445781670">
        <ele>474.40</ele>
        <time>2014-02-23T10:07:36Z</time>
      </trkpt>
      <trkpt lat="41.618178330" lon="2.445798440">
        <ele>474.50</ele>
        <time>2014-02-23T10:07:37Z</time>
      </trkpt>
      <trkpt lat="41.618168440" lon="2.445815030">
        <ele>474.60</ele>
        <time>2014-02-23T10:07:38Z</time>
      </trkpt>
      <trkpt lat="41.618158380" lon="2.445831800">
        <ele>474.70</ele>
        <time>2014-02-23T10:07:39Z</time>
      </trkpt>
      <trkpt lat="41.618148490" lon="2.445846720">
        <ele>474.90</ele>
        <time>2014-02-23T10:07:40Z</time>
      </trkpt>
      <trkpt lat="41.618130050" lon="2.445891810">
        <ele>475.10</ele>
        <time>2014-02-23T10:07:41Z</time>
      </trkpt>
      <trkpt lat="41.618120160" lon="2.445906730">
        <ele>475.20</ele>
        <time>2014-02-23T10:07:42Z</time>
      </trkpt>
      <trkpt lat="41.618110100" lon="2.445921820">
        <ele>475.20</ele>
        <time>2014-02-23T10:07:43Z</time>
      </trkpt>
      <trkpt lat="41.618098370" lon="2.445933390">
        <ele>475.30</ele>
        <time>2014-02-23T10:07:44Z</time>
      </trkpt>
      <trkpt lat="41.618086800" lon="2.445945120">
        <ele>475.80</ele>
        <time>2014-02-23T10:07:45Z</time>
      </trkpt>
      <trkpt lat="41.618071720" lon="2.445955010">
        <ele>476.10</ele>
        <time>2014-02-23T10:07:46Z</time>
      </trkpt>
      <trkpt lat="41.618060150" lon="2.445968420">
        <ele>476.40</ele>
        <time>2014-02-23T10:07:47Z</time>
      </trkpt>
      <trkpt lat="41.618046740" lon="2.445981670">
        <ele>476.60</ele>
        <time>2014-02-23T10:07:48Z</time>
      </trkpt>
      <trkpt lat="41.618033490" lon="2.445995080">
        <ele>476.90</ele>
        <time>2014-02-23T10:07:49Z</time>
      </trkpt>
      <trkpt lat="41.618020080" lon="2.446008490">
        <ele>477.10</ele>
        <time>2014-02-23T10:07:50Z</time>
      </trkpt>
      <trkpt lat="41.618006670" lon="2.446018380">
        <ele>477.20</ele>
        <time>2014-02-23T10:07:51Z</time>
      </trkpt>
      <trkpt lat="41.617991750" lon="2.446031790">
        <ele>477.10</ele>
        <time>2014-02-23T10:07:52Z</time>
      </trkpt>
      <trkpt lat="41.617976660" lon="2.446046710">
        <ele>476.90</ele>
        <time>2014-02-23T10:07:53Z</time>
      </trkpt>
      <trkpt lat="41.617963420" lon="2.446063470">
        <ele>477.20</ele>
        <time>2014-02-23T10:07:54Z</time>
      </trkpt>
      <trkpt lat="41.617946820" lon="2.446081750">
        <ele>477.30</ele>
        <time>2014-02-23T10:07:55Z</time>
      </trkpt>
      <trkpt lat="41.617933410" lon="2.446101690">
        <ele>477.50</ele>
        <time>2014-02-23T10:07:56Z</time>
      </trkpt>
      <trkpt lat="41.617923360" lon="2.446121810">
        <ele>477.40</ele>
        <time>2014-02-23T10:07:57Z</time>
      </trkpt>
      <trkpt lat="41.617911790" lon="2.446143440">
        <ele>477.40</ele>
        <time>2014-02-23T10:07:58Z</time>
      </trkpt>
      <trkpt lat="41.617901730" lon="2.446161710">
        <ele>477.70</ele>
        <time>2014-02-23T10:07:59Z</time>
      </trkpt>
      <trkpt lat="41.617893350" lon="2.446180150">
        <ele>477.90</ele>
        <time>2014-02-23T10:08:00Z</time>
      </trkpt>
      <trkpt lat="41.617886810" lon="2.446200100">
        <ele>478.50</ele>
        <time>2014-02-23T10:08:01Z</time>
      </trkpt>
      <trkpt lat="41.617881780" lon="2.446218370">
        <ele>478.90</ele>
        <time>2014-02-23T10:08:02Z</time>
      </trkpt>
      <trkpt lat="41.617880100" lon="2.446238490">
        <ele>479.20</ele>
        <time>2014-02-23T10:08:03Z</time>
      </trkpt>
      <trkpt lat="41.617876750" lon="2.446258440">
        <ele>479.10</ele>
        <time>2014-02-23T10:08:04Z</time>
      </trkpt>
      <trkpt lat="41.617866690" lon="2.446278380">
        <ele>479.10</ele>
        <time>2014-02-23T10:08:05Z</time>
      </trkpt>
      <trkpt lat="41.617855130" lon="2.446293470">
        <ele>479.10</ele>
        <time>2014-02-23T10:08:06Z</time>
      </trkpt>
      <trkpt lat="41.617841720" lon="2.446310070">
        <ele>479.20</ele>
        <time>2014-02-23T10:08:07Z</time>
      </trkpt>
      <trkpt lat="41.617828470" lon="2.446326660">
        <ele>478.90</ele>
        <time>2014-02-23T10:08:08Z</time>
      </trkpt>
      <trkpt lat="41.617815060" lon="2.446341750">
        <ele>478.70</ele>
        <time>2014-02-23T10:08:09Z</time>
      </trkpt>
      <trkpt lat="41.617800140" lon="2.446358350">
        <ele>478.60</ele>
        <time>2014-02-23T10:08:10Z</time>
      </trkpt>
      <trkpt lat="41.617785050" lon="2.446375110">
        <ele>478.80</ele>
        <time>2014-02-23T10:08:11Z</time>
      </trkpt>
      <trkpt lat="41.617770130" lon="2.446390030">
        <ele>479.00</ele>
        <time>2014-02-23T10:08:12Z</time>
      </trkpt>
      <trkpt lat="41.617756720" lon="2.446405120">
        <ele>479.50</ele>
        <time>2014-02-23T10:08:13Z</time>
      </trkpt>
      <trkpt lat="41.617741800" lon="2.446423390">
        <ele>479.90</ele>
        <time>2014-02-23T10:08:14Z</time>
      </trkpt>
      <trkpt lat="41.617726720" lon="2.446440160">
        <ele>480.10</ele>
        <time>2014-02-23T10:08:15Z</time>
      </trkpt>
      <trkpt lat="41.617711800" lon="2.446461780">
        <ele>480.50</ele>
        <time>2014-02-23T10:08:16Z</time>
      </trkpt>
      <trkpt lat="41.617696710" lon="2.446485080">
        <ele>480.80</ele>
        <time>2014-02-23T10:08:17Z</time>
      </trkpt>
      <trkpt lat="41.617683470" lon="2.446505030">
        <ele>480.90</ele>
        <time>2014-02-23T10:08:18Z</time>
      </trkpt>
      <trkpt lat="41.617671730" lon="2.446525150">
        <ele>481.10</ele>
        <time>2014-02-23T10:08:19Z</time>
      </trkpt>
      <trkpt lat="41.617663350" lon="2.446548450">
        <ele>481.50</ele>
        <time>2014-02-23T10:08:20Z</time>
      </trkpt>
      <trkpt lat="41.617656810" lon="2.446571750">
        <ele>481.80</ele>
        <time>2014-02-23T10:08:21Z</time>
      </trkpt>
      <trkpt lat="41.617651780" lon="2.446596730">
        <ele>482.10</ele>
        <time>2014-02-23T10:08:22Z</time>
      </trkpt>
      <trkpt lat="41.617643400" lon="2.446621710">
        <ele>482.00</ele>
        <time>2014-02-23T10:08:23Z</time>
      </trkpt>
      <trkpt lat="41.617636690" lon="2.446646690">
        <ele>482.00</ele>
        <time>2014-02-23T10:08:24Z</time>
      </trkpt>
      <trkpt lat="41.617628480" lon="2.446668480">
        <ele>481.90</ele>
        <time>2014-02-23T10:08:25Z</time>
      </trkpt>
      <trkpt lat="41.617620100" lon="2.446690100">
        <ele>481.80</ele>
        <time>2014-02-23T10:08:26Z</time>
      </trkpt>
      <trkpt lat="41.617610040" lon="2.446710050">
        <ele>482.20</ele>
        <time>2014-02-23T10:08:27Z</time>
      </trkpt>
      <trkpt lat="41.617598470" lon="2.446735030">
        <ele>482.40</ele>
        <time>2014-02-23T10:08:28Z</time>
      </trkpt>
      <trkpt lat="41.617588410" lon="2.446761690">
        <ele>482.60</ele>
        <time>2014-02-23T10:08:29Z</time>
      </trkpt>
      <trkpt lat="41.617576680" lon="2.446788340">
        <ele>482.60</ele>
        <time>2014-02-23T10:08:30Z</time>
      </trkpt>
      <trkpt lat="41.617563440" lon="2.446815160">
        <ele>482.60</ele>
        <time>2014-02-23T10:08:31Z</time>
      </trkpt>
      <trkpt lat="41.617550030" lon="2.446841820">
        <ele>482.60</ele>
        <time>2014-02-23T10:08:32Z</time>
      </trkpt>
      <trkpt lat="41.617535110" lon="2.446865120">
        <ele>482.50</ele>
        <time>2014-02-23T10:08:33Z</time>
      </trkpt>
      <trkpt lat="41.617521690" lon="2.446888420">
        <ele>482.40</ele>
        <time>2014-02-23T10:08:34Z</time>
      </trkpt>
      <trkpt lat="41.617508450" lon="2.446911720">
        <ele>482.60</ele>
        <time>2014-02-23T10:08:35Z</time>
      </trkpt>
      <trkpt lat="41.617495040" lon="2.446936700">
        <ele>482.70</ele>
        <time>2014-02-23T10:08:36Z</time>
      </trkpt>
      <trkpt lat="41.617483470" lon="2.446961680">
        <ele>483.00</ele>
        <time>2014-02-23T10:08:37Z</time>
      </trkpt>
      <trkpt lat="41.617475090" lon="2.446988330">
        <ele>483.20</ele>
        <time>2014-02-23T10:08:38Z</time>
      </trkpt>
      <trkpt lat="41.617465030" lon="2.447016660">
        <ele>482.80</ele>
        <time>2014-02-23T10:08:39Z</time>
      </trkpt>
      <trkpt lat="41.617456820" lon="2.447051700">
        <ele>482.60</ele>
        <time>2014-02-23T10:08:40Z</time>
      </trkpt>
      <trkpt lat="41.617453470" lon="2.447090090">
        <ele>482.40</ele>
        <time>2014-02-23T10:08:41Z</time>
      </trkpt>
      <trkpt lat="41.617450110" lon="2.447126800">
        <ele>482.60</ele>
        <time>2014-02-23T10:08:42Z</time>
      </trkpt>
      <trkpt lat="41.617450110" lon="2.447166700">
        <ele>482.80</ele>
        <time>2014-02-23T10:08:43Z</time>
      </trkpt>
      <trkpt lat="41.617448440" lon="2.447205090">
        <ele>483.10</ele>
        <time>2014-02-23T10:08:44Z</time>
      </trkpt>
      <trkpt lat="41.617446760" lon="2.447240120">
        <ele>483.30</ele>
        <time>2014-02-23T10:08:45Z</time>
      </trkpt>
      <trkpt lat="41.617445080" lon="2.447276670">
        <ele>483.10</ele>
        <time>2014-02-23T10:08:46Z</time>
      </trkpt>
      <trkpt lat="41.617441730" lon="2.447310030">
        <ele>483.00</ele>
        <time>2014-02-23T10:08:47Z</time>
      </trkpt>
      <trkpt lat="41.617441730" lon="2.447338360">
        <ele>482.90</ele>
        <time>2014-02-23T10:08:48Z</time>
      </trkpt>
      <trkpt lat="41.617445080" lon="2.447363340">
        <ele>482.90</ele>
        <time>2014-02-23T10:08:49Z</time>
      </trkpt>
      <trkpt lat="41.617448440" lon="2.447388480">
        <ele>482.90</ele>
        <time>2014-02-23T10:08:50Z</time>
      </trkpt>
      <trkpt lat="41.617455140" lon="2.447413460">
        <ele>483.10</ele>
        <time>2014-02-23T10:08:51Z</time>
      </trkpt>
      <trkpt lat="41.617458490" lon="2.447440120">
        <ele>483.30</ele>
        <time>2014-02-23T10:08:52Z</time>
      </trkpt>
      <trkpt lat="41.617461680" lon="2.447466770">
        <ele>483.30</ele>
        <time>2014-02-23T10:08:53Z</time>
      </trkpt>
      <trkpt lat="41.617465030" lon="2.447491750">
        <ele>483.30</ele>
        <time>2014-02-23T10:08:54Z</time>
      </trkpt>
      <trkpt lat="41.617468390" lon="2.447516730">
        <ele>483.30</ele>
        <time>2014-02-23T10:08:55Z</time>
      </trkpt>
      <trkpt lat="41.617466710" lon="2.447541700">
        <ele>483.50</ele>
        <time>2014-02-23T10:08:56Z</time>
      </trkpt>
      <trkpt lat="41.617463360" lon="2.447566680">
        <ele>483.70</ele>
        <time>2014-02-23T10:08:57Z</time>
      </trkpt>
      <trkpt lat="41.617458490" lon="2.447588480">
        <ele>484.30</ele>
        <time>2014-02-23T10:08:58Z</time>
      </trkpt>
      <trkpt lat="41.617453470" lon="2.447610100">
        <ele>484.80</ele>
        <time>2014-02-23T10:08:59Z</time>
      </trkpt>
      <trkpt lat="41.617445080" lon="2.447633400">
        <ele>485.20</ele>
        <time>2014-02-23T10:09:00Z</time>
      </trkpt>
      <trkpt lat="41.617433350" lon="2.447656700">
        <ele>485.30</ele>
        <time>2014-02-23T10:09:01Z</time>
      </trkpt>
      <trkpt lat="41.617423460" lon="2.447678330">
        <ele>485.40</ele>
        <time>2014-02-23T10:09:02Z</time>
      </trkpt>
      <trkpt lat="41.617416750" lon="2.447701800">
        <ele>485.80</ele>
        <time>2014-02-23T10:09:03Z</time>
      </trkpt>
      <trkpt lat="41.617410050" lon="2.447718400">
        <ele>486.10</ele>
        <time>2014-02-23T10:09:04Z</time>
      </trkpt>
      <trkpt lat="41.617403340" lon="2.447735160">
        <ele>486.40</ele>
        <time>2014-02-23T10:09:05Z</time>
      </trkpt>
      <trkpt lat="41.617400160" lon="2.447753430">
        <ele>486.60</ele>
        <time>2014-02-23T10:09:06Z</time>
      </trkpt>
      <trkpt lat="41.617398480" lon="2.447770030">
        <ele>486.80</ele>
        <time>2014-02-23T10:09:07Z</time>
      </trkpt>
      <trkpt lat="41.617393450" lon="2.447786790">
        <ele>487.10</ele>
        <time>2014-02-23T10:09:08Z</time>
      </trkpt>
      <trkpt lat="41.617391780" lon="2.447798360">
        <ele>487.40</ele>
        <time>2014-02-23T10:09:09Z</time>
      </trkpt>
      <trkpt lat="41.617386750" lon="2.447813450">
        <ele>487.30</ele>
        <time>2014-02-23T10:09:10Z</time>
      </trkpt>
      <trkpt lat="41.617385070" lon="2.447830040">
        <ele>487.30</ele>
        <time>2014-02-23T10:09:11Z</time>
      </trkpt>
      <trkpt lat="41.617383390" lon="2.447848480">
        <ele>487.30</ele>
        <time>2014-02-23T10:09:12Z</time>
      </trkpt>
      <trkpt lat="41.617378360" lon="2.447861730">
        <ele>487.80</ele>
        <time>2014-02-23T10:09:13Z</time>
      </trkpt>
      <trkpt lat="41.617376690" lon="2.447878490">
        <ele>488.20</ele>
        <time>2014-02-23T10:09:14Z</time>
      </trkpt>
      <trkpt lat="41.617371830" lon="2.447896760">
        <ele>488.80</ele>
        <time>2014-02-23T10:09:15Z</time>
      </trkpt>
      <trkpt lat="41.617366800" lon="2.447915030">
        <ele>489.20</ele>
        <time>2014-02-23T10:09:16Z</time>
      </trkpt>
      <trkpt lat="41.617363440" lon="2.447930120">
        <ele>489.30</ele>
        <time>2014-02-23T10:09:17Z</time>
      </trkpt>
      <trkpt lat="41.617356740" lon="2.447948390">
        <ele>489.50</ele>
        <time>2014-02-23T10:09:18Z</time>
      </trkpt>
      <trkpt lat="41.617355060" lon="2.447958450">
        <ele>489.50</ele>
        <time>2014-02-23T10:09:19Z</time>
      </trkpt>
      <trkpt lat="41.617350030" lon="2.447975050">
        <ele>489.60</ele>
        <time>2014-02-23T10:09:20Z</time>
      </trkpt>
      <trkpt lat="41.617343500" lon="2.447991810">
        <ele>489.70</ele>
        <time>2014-02-23T10:09:21Z</time>
      </trkpt>
      <trkpt lat="41.617336790" lon="2.448008410">
        <ele>489.80</ele>
        <time>2014-02-23T10:09:22Z</time>
      </trkpt>
      <trkpt lat="41.617333440" lon="2.448025010">
        <ele>489.90</ele>
        <time>2014-02-23T10:09:23Z</time>
      </trkpt>
      <trkpt lat="41.617328410" lon="2.448041770">
        <ele>490.50</ele>
        <time>2014-02-23T10:09:24Z</time>
      </trkpt>
      <trkpt lat="41.617325060" lon="2.448056690">
        <ele>490.80</ele>
        <time>2014-02-23T10:09:25Z</time>
      </trkpt>
      <trkpt lat="41.617323380" lon="2.448071780">
        <ele>491.10</ele>
        <time>2014-02-23T10:09:26Z</time>
      </trkpt>
      <trkpt lat="41.617321700" lon="2.448086700">
        <ele>491.60</ele>
        <time>2014-02-23T10:09:27Z</time>
      </trkpt>
      <trkpt lat="41.617320030" lon="2.448105140">
        <ele>491.90</ele>
        <time>2014-02-23T10:09:28Z</time>
      </trkpt>
      <trkpt lat="41.617320030" lon="2.448123410">
        <ele>492.20</ele>
        <time>2014-02-23T10:09:29Z</time>
      </trkpt>
      <trkpt lat="41.617318350" lon="2.448143360">
        <ele>492.30</ele>
        <time>2014-02-23T10:09:30Z</time>
      </trkpt>
      <trkpt lat="41.617316670" lon="2.448161800">
        <ele>492.50</ele>
        <time>2014-02-23T10:09:31Z</time>
      </trkpt>
      <trkpt lat="41.617318350" lon="2.448181750">
        <ele>492.70</ele>
        <time>2014-02-23T10:09:32Z</time>
      </trkpt>
      <trkpt lat="41.617318350" lon="2.448203370">
        <ele>492.90</ele>
        <time>2014-02-23T10:09:33Z</time>
      </trkpt>
      <trkpt lat="41.617315000" lon="2.448223490">
        <ele>493.00</ele>
        <time>2014-02-23T10:09:34Z</time>
      </trkpt>
      <trkpt lat="41.617313490" lon="2.448241760">
        <ele>493.00</ele>
        <time>2014-02-23T10:09:35Z</time>
      </trkpt>
      <trkpt lat="41.617311810" lon="2.448258360">
        <ele>493.20</ele>
        <time>2014-02-23T10:09:36Z</time>
      </trkpt>
      <trkpt lat="41.617310140" lon="2.448278470">
        <ele>493.30</ele>
        <time>2014-02-23T10:09:37Z</time>
      </trkpt>
      <trkpt lat="41.617308460" lon="2.448295070">
        <ele>493.40</ele>
        <time>2014-02-23T10:09:38Z</time>
      </trkpt>
      <trkpt lat="41.617305110" lon="2.448315020">
        <ele>493.80</ele>
        <time>2014-02-23T10:09:39Z</time>
      </trkpt>
      <trkpt lat="41.617305110" lon="2.448330110">
        <ele>494.00</ele>
        <time>2014-02-23T10:09:40Z</time>
      </trkpt>
      <trkpt lat="41.617303430" lon="2.448346700">
        <ele>494.50</ele>
        <time>2014-02-23T10:09:41Z</time>
      </trkpt>
      <trkpt lat="41.617303430" lon="2.448361790">
        <ele>494.80</ele>
        <time>2014-02-23T10:09:42Z</time>
      </trkpt>
      <trkpt lat="41.617305110" lon="2.448376710">
        <ele>495.40</ele>
        <time>2014-02-23T10:09:43Z</time>
      </trkpt>
      <trkpt lat="41.617303430" lon="2.448396830">
        <ele>495.90</ele>
        <time>2014-02-23T10:09:44Z</time>
      </trkpt>
      <trkpt lat="41.617298400" lon="2.448415100">
        <ele>496.20</ele>
        <time>2014-02-23T10:09:45Z</time>
      </trkpt>
      <trkpt lat="41.617296720" lon="2.448435050">
        <ele>496.40</ele>
        <time>2014-02-23T10:09:46Z</time>
      </trkpt>
      <trkpt lat="41.617295050" lon="2.448455000">
        <ele>496.50</ele>
        <time>2014-02-23T10:09:47Z</time>
      </trkpt>
      <trkpt lat="41.617295050" lon="2.448475110">
        <ele>496.30</ele>
        <time>2014-02-23T10:09:48Z</time>
      </trkpt>
      <trkpt lat="41.617295050" lon="2.448495060">
        <ele>496.20</ele>
        <time>2014-02-23T10:09:49Z</time>
      </trkpt>
      <trkpt lat="41.617295050" lon="2.448510150">
        <ele>496.20</ele>
        <time>2014-02-23T10:09:50Z</time>
      </trkpt>
      <trkpt lat="41.617295050" lon="2.448526750">
        <ele>496.30</ele>
        <time>2014-02-23T10:09:51Z</time>
      </trkpt>
      <trkpt lat="41.617293370" lon="2.448545020">
        <ele>496.30</ele>
        <time>2014-02-23T10:09:52Z</time>
      </trkpt>
      <trkpt lat="41.617290020" lon="2.448568490">
        <ele>496.50</ele>
        <time>2014-02-23T10:09:53Z</time>
      </trkpt>
      <trkpt lat="41.617285160" lon="2.448590110">
        <ele>496.70</ele>
        <time>2014-02-23T10:09:54Z</time>
      </trkpt>
      <trkpt lat="41.617281800" lon="2.448613420">
        <ele>496.50</ele>
        <time>2014-02-23T10:09:55Z</time>
      </trkpt>
      <trkpt lat="41.617276780" lon="2.448635040">
        <ele>496.40</ele>
        <time>2014-02-23T10:09:56Z</time>
      </trkpt>
      <trkpt lat="41.617275100" lon="2.448653480">
        <ele>496.30</ele>
        <time>2014-02-23T10:09:57Z</time>
      </trkpt>
      <trkpt lat="41.617271750" lon="2.448675110">
        <ele>496.60</ele>
        <time>2014-02-23T10:09:58Z</time>
      </trkpt>
      <trkpt lat="41.617270070" lon="2.448695050">
        <ele>496.90</ele>
        <time>2014-02-23T10:09:59Z</time>
      </trkpt>
      <trkpt lat="41.617266720" lon="2.448713500">
        <ele>496.80</ele>
        <time>2014-02-23T10:10:00Z</time>
      </trkpt>
      <trkpt lat="41.617258340" lon="2.448730090">
        <ele>496.70</ele>
        <time>2014-02-23T10:10:01Z</time>
      </trkpt>
      <trkpt lat="41.617251800" lon="2.448748360">
        <ele>497.00</ele>
        <time>2014-02-23T10:10:02Z</time>
      </trkpt>
      <trkpt lat="41.617245090" lon="2.448765130">
        <ele>497.30</ele>
        <time>2014-02-23T10:10:03Z</time>
      </trkpt>
      <trkpt lat="41.617238390" lon="2.448775020">
        <ele>497.50</ele>
        <time>2014-02-23T10:10:04Z</time>
      </trkpt>
      <trkpt lat="41.617228500" lon="2.448790110">
        <ele>497.70</ele>
        <time>2014-02-23T10:10:05Z</time>
      </trkpt>
      <trkpt lat="41.617220110" lon="2.448803350">
        <ele>497.80</ele>
        <time>2014-02-23T10:10:06Z</time>
      </trkpt>
      <trkpt lat="41.617211730" lon="2.448816760">
        <ele>498.00</ele>
        <time>2014-02-23T10:10:07Z</time>
      </trkpt>
      <trkpt lat="41.617201670" lon="2.448831680">
        <ele>498.20</ele>
        <time>2014-02-23T10:10:08Z</time>
      </trkpt>
      <trkpt lat="41.617186750" lon="2.448848440">
        <ele>498.30</ele>
        <time>2014-02-23T10:10:09Z</time>
      </trkpt>
      <trkpt lat="41.617175020" lon="2.448866720">
        <ele>498.40</ele>
        <time>2014-02-23T10:10:10Z</time>
      </trkpt>
      <trkpt lat="41.617163450" lon="2.448881800">
        <ele>498.50</ele>
        <time>2014-02-23T10:10:11Z</time>
      </trkpt>
      <trkpt lat="41.617151720" lon="2.448900080">
        <ele>498.60</ele>
        <time>2014-02-23T10:10:12Z</time>
      </trkpt>
      <trkpt lat="41.617140150" lon="2.448918350">
        <ele>498.70</ele>
        <time>2014-02-23T10:10:13Z</time>
      </trkpt>
      <trkpt lat="41.617130090" lon="2.448936790">
        <ele>499.20</ele>
        <time>2014-02-23T10:10:14Z</time>
      </trkpt>
      <trkpt lat="41.617121710" lon="2.448958410">
        <ele>499.50</ele>
        <time>2014-02-23T10:10:15Z</time>
      </trkpt>
      <trkpt lat="41.617113500" lon="2.448985070">
        <ele>499.80</ele>
        <time>2014-02-23T10:10:16Z</time>
      </trkpt>
      <trkpt lat="41.617105110" lon="2.449008370">
        <ele>499.80</ele>
        <time>2014-02-23T10:10:17Z</time>
      </trkpt>
      <trkpt lat="41.617098410" lon="2.449031670">
        <ele>499.80</ele>
        <time>2014-02-23T10:10:18Z</time>
      </trkpt>
      <trkpt lat="41.617095060" lon="2.449050110">
        <ele>500.00</ele>
        <time>2014-02-23T10:10:19Z</time>
      </trkpt>
      <trkpt lat="41.617086670" lon="2.449066710">
        <ele>500.20</ele>
        <time>2014-02-23T10:10:20Z</time>
      </trkpt>
      <trkpt lat="41.617080140" lon="2.449086830">
        <ele>500.20</ele>
        <time>2014-02-23T10:10:21Z</time>
      </trkpt>
      <trkpt lat="41.617075110" lon="2.449108450">
        <ele>500.20</ele>
        <time>2014-02-23T10:10:22Z</time>
      </trkpt>
      <trkpt lat="41.617070080" lon="2.449131750">
        <ele>500.20</ele>
        <time>2014-02-23T10:10:23Z</time>
      </trkpt>
      <trkpt lat="41.617068400" lon="2.449150020">
        <ele>500.30</ele>
        <time>2014-02-23T10:10:24Z</time>
      </trkpt>
      <trkpt lat="41.617061700" lon="2.449170140">
        <ele>500.40</ele>
        <time>2014-02-23T10:10:25Z</time>
      </trkpt>
      <trkpt lat="41.617058340" lon="2.449191770">
        <ele>500.40</ele>
        <time>2014-02-23T10:10:26Z</time>
      </trkpt>
      <trkpt lat="41.617053480" lon="2.449215070">
        <ele>500.50</ele>
        <time>2014-02-23T10:10:27Z</time>
      </trkpt>
      <trkpt lat="41.617050130" lon="2.449235020">
        <ele>500.60</ele>
        <time>2014-02-23T10:10:28Z</time>
      </trkpt>
      <trkpt lat="41.617045100" lon="2.449253460">
        <ele>500.70</ele>
        <time>2014-02-23T10:10:29Z</time>
      </trkpt>
      <trkpt lat="41.617041750" lon="2.449271730">
        <ele>500.80</ele>
        <time>2014-02-23T10:10:30Z</time>
      </trkpt>
      <trkpt lat="41.617036720" lon="2.449290000">
        <ele>501.10</ele>
        <time>2014-02-23T10:10:31Z</time>
      </trkpt>
      <trkpt lat="41.617031690" lon="2.449306770">
        <ele>501.20</ele>
        <time>2014-02-23T10:10:32Z</time>
      </trkpt>
      <trkpt lat="41.617023470" lon="2.449325040">
        <ele>501.40</ele>
        <time>2014-02-23T10:10:33Z</time>
      </trkpt>
      <trkpt lat="41.617016770" lon="2.449346660">
        <ele>501.60</ele>
        <time>2014-02-23T10:10:34Z</time>
      </trkpt>
      <trkpt lat="41.617010060" lon="2.449370130">
        <ele>501.70</ele>
        <time>2014-02-23T10:10:35Z</time>
      </trkpt>
      <trkpt lat="41.617003360" lon="2.449386730">
        <ele>501.80</ele>
        <time>2014-02-23T10:10:36Z</time>
      </trkpt>
      <trkpt lat="41.617000000" lon="2.449406680">
        <ele>501.90</ele>
        <time>2014-02-23T10:10:37Z</time>
      </trkpt>
      <trkpt lat="41.616995140" lon="2.449426800">
        <ele>502.10</ele>
        <time>2014-02-23T10:10:38Z</time>
      </trkpt>
      <trkpt lat="41.616986760" lon="2.449445070">
        <ele>502.30</ele>
        <time>2014-02-23T10:10:39Z</time>
      </trkpt>
      <trkpt lat="41.616978380" lon="2.449465020">
        <ele>502.10</ele>
        <time>2014-02-23T10:10:40Z</time>
      </trkpt>
      <trkpt lat="41.616971670" lon="2.449481780">
        <ele>501.90</ele>
        <time>2014-02-23T10:10:41Z</time>
      </trkpt>
      <trkpt lat="41.616965140" lon="2.449498380">
        <ele>501.80</ele>
        <time>2014-02-23T10:10:42Z</time>
      </trkpt>
      <trkpt lat="41.616955080" lon="2.449511790">
        <ele>502.20</ele>
        <time>2014-02-23T10:10:43Z</time>
      </trkpt>
      <trkpt lat="41.616946700" lon="2.449530060">
        <ele>502.40</ele>
        <time>2014-02-23T10:10:44Z</time>
      </trkpt>
      <trkpt lat="41.616936810" lon="2.449548330">
        <ele>502.90</ele>
        <time>2014-02-23T10:10:45Z</time>
      </trkpt>
      <trkpt lat="41.616926750" lon="2.449568450">
        <ele>503.20</ele>
        <time>2014-02-23T10:10:46Z</time>
      </trkpt>
      <trkpt lat="41.616915010" lon="2.449588400">
        <ele>503.50</ele>
        <time>2014-02-23T10:10:47Z</time>
      </trkpt>
      <trkpt lat="41.616901770" lon="2.449608350">
        <ele>503.60</ele>
        <time>2014-02-23T10:10:48Z</time>
      </trkpt>
      <trkpt lat="41.616890030" lon="2.449625110">
        <ele>503.80</ele>
        <time>2014-02-23T10:10:49Z</time>
      </trkpt>
      <trkpt lat="41.616876790" lon="2.449643380">
        <ele>504.30</ele>
        <time>2014-02-23T10:10:50Z</time>
      </trkpt>
      <trkpt lat="41.616863380" lon="2.449658470">
        <ele>504.70</ele>
        <time>2014-02-23T10:10:51Z</time>
      </trkpt>
      <trkpt lat="41.616850140" lon="2.449671710">
        <ele>504.90</ele>
        <time>2014-02-23T10:10:52Z</time>
      </trkpt>
      <trkpt lat="41.616836730" lon="2.449685130">
        <ele>505.00</ele>
        <time>2014-02-23T10:10:53Z</time>
      </trkpt>
      <trkpt lat="41.616821810" lon="2.449698370">
        <ele>505.20</ele>
        <time>2014-02-23T10:10:54Z</time>
      </trkpt>
      <trkpt lat="41.616805040" lon="2.449710100">
        <ele>505.20</ele>
        <time>2014-02-23T10:10:55Z</time>
      </trkpt>
      <trkpt lat="41.616790120" lon="2.449723350">
        <ele>505.20</ele>
        <time>2014-02-23T10:10:56Z</time>
      </trkpt>
      <trkpt lat="41.616776710" lon="2.449736760">
        <ele>505.30</ele>
        <time>2014-02-23T10:10:57Z</time>
      </trkpt>
      <trkpt lat="41.616761790" lon="2.449746820">
        <ele>505.50</ele>
        <time>2014-02-23T10:10:58Z</time>
      </trkpt>
      <trkpt lat="41.616746700" lon="2.449758380">
        <ele>505.50</ele>
        <time>2014-02-23T10:10:59Z</time>
      </trkpt>
      <trkpt lat="41.616731780" lon="2.449770120">
        <ele>505.50</ele>
        <time>2014-02-23T10:11:00Z</time>
      </trkpt>
      <trkpt lat="41.616718370" lon="2.449783360">
        <ele>505.60</ele>
        <time>2014-02-23T10:11:01Z</time>
      </trkpt>
      <trkpt lat="41.616705130" lon="2.449801800">
        <ele>505.80</ele>
        <time>2014-02-23T10:11:02Z</time>
      </trkpt>
      <trkpt lat="41.616691720" lon="2.449816720">
        <ele>505.90</ele>
        <time>2014-02-23T10:11:03Z</time>
      </trkpt>
      <trkpt lat="41.616683340" lon="2.449835160">
        <ele>506.10</ele>
        <time>2014-02-23T10:11:04Z</time>
      </trkpt>
      <trkpt lat="41.616676800" lon="2.449853430">
        <ele>506.20</ele>
        <time>2014-02-23T10:11:05Z</time>
      </trkpt>
      <trkpt lat="41.616671770" lon="2.449873380">
        <ele>506.60</ele>
        <time>2014-02-23T10:11:06Z</time>
      </trkpt>
      <trkpt lat="41.616665060" lon="2.449893330">
        <ele>506.80</ele>
        <time>2014-02-23T10:11:07Z</time>
      </trkpt>
      <trkpt lat="41.616661710" lon="2.449910100">
        <ele>507.00</ele>
        <time>2014-02-23T10:11:08Z</time>
      </trkpt>
      <trkpt lat="41.616660030" lon="2.449930040">
        <ele>507.50</ele>
        <time>2014-02-23T10:11:09Z</time>
      </trkpt>
      <trkpt lat="41.616655010" lon="2.449951670">
        <ele>507.80</ele>
        <time>2014-02-23T10:11:10Z</time>
      </trkpt>
      <trkpt lat="41.616651820" lon="2.449973460">
        <ele>508.30</ele>
        <time>2014-02-23T10:11:11Z</time>
      </trkpt>
      <trkpt lat="41.616648470" lon="2.449998440">
        <ele>508.70</ele>
        <time>2014-02-23T10:11:12Z</time>
      </trkpt>
      <trkpt lat="41.616648470" lon="2.450021740">
        <ele>509.00</ele>
        <time>2014-02-23T10:11:13Z</time>
      </trkpt>
      <trkpt lat="41.616650140" lon="2.450046720">
        <ele>508.70</ele>
        <time>2014-02-23T10:11:14Z</time>
      </trkpt>
      <trkpt lat="41.616651820" lon="2.450071700">
        <ele>508.50</ele>
        <time>2014-02-23T10:11:15Z</time>
      </trkpt>
      <trkpt lat="41.616655010" lon="2.450093490">
        <ele>509.10</ele>
        <time>2014-02-23T10:11:16Z</time>
      </trkpt>
      <trkpt lat="41.616661710" lon="2.450115120">
        <ele>509.60</ele>
        <time>2014-02-23T10:11:17Z</time>
      </trkpt>
      <trkpt lat="41.616666740" lon="2.450135070">
        <ele>510.20</ele>
        <time>2014-02-23T10:11:18Z</time>
      </trkpt>
      <trkpt lat="41.616670090" lon="2.450153340">
        <ele>510.70</ele>
        <time>2014-02-23T10:11:19Z</time>
      </trkpt>
      <trkpt lat="41.616675120" lon="2.450168430">
        <ele>511.10</ele>
        <time>2014-02-23T10:11:20Z</time>
      </trkpt>
      <trkpt lat="41.616680150" lon="2.450185020">
        <ele>511.40</ele>
        <time>2014-02-23T10:11:21Z</time>
      </trkpt>
      <trkpt lat="41.616685010" lon="2.450205140">
        <ele>511.60</ele>
        <time>2014-02-23T10:11:22Z</time>
      </trkpt>
      <trkpt lat="41.616688370" lon="2.450228440">
        <ele>511.40</ele>
        <time>2014-02-23T10:11:23Z</time>
      </trkpt>
      <trkpt lat="41.616686690" lon="2.450250070">
        <ele>511.30</ele>
        <time>2014-02-23T10:11:24Z</time>
      </trkpt>
      <trkpt lat="41.616685010" lon="2.450273370">
        <ele>511.20</ele>
        <time>2014-02-23T10:11:25Z</time>
      </trkpt>
      <trkpt lat="41.616683340" lon="2.450296670">
        <ele>511.70</ele>
        <time>2014-02-23T10:11:26Z</time>
      </trkpt>
      <trkpt lat="41.616680150" lon="2.450316790">
        <ele>512.00</ele>
        <time>2014-02-23T10:11:27Z</time>
      </trkpt>
      <trkpt lat="41.616675120" lon="2.450333380">
        <ele>512.40</ele>
        <time>2014-02-23T10:11:28Z</time>
      </trkpt>
      <trkpt lat="41.616668420" lon="2.450353330">
        <ele>512.60</ele>
        <time>2014-02-23T10:11:29Z</time>
      </trkpt>
      <trkpt lat="41.616660030" lon="2.450375120">
        <ele>512.60</ele>
        <time>2014-02-23T10:11:30Z</time>
      </trkpt>
      <trkpt lat="41.616651820" lon="2.450395070">
        <ele>512.60</ele>
        <time>2014-02-23T10:11:31Z</time>
      </trkpt>
      <trkpt lat="41.616640090" lon="2.450413350">
        <ele>512.70</ele>
        <time>2014-02-23T10:11:32Z</time>
      </trkpt>
      <trkpt lat="41.616628350" lon="2.450430110">
        <ele>512.90</ele>
        <time>2014-02-23T10:11:33Z</time>
      </trkpt>
      <trkpt lat="41.616620140" lon="2.450450060">
        <ele>513.00</ele>
        <time>2014-02-23T10:11:34Z</time>
      </trkpt>
      <trkpt lat="41.616608400" lon="2.450468330">
        <ele>512.80</ele>
        <time>2014-02-23T10:11:35Z</time>
      </trkpt>
      <trkpt lat="41.616600020" lon="2.450483420">
        <ele>512.70</ele>
        <time>2014-02-23T10:11:36Z</time>
      </trkpt>
      <trkpt lat="41.616590130" lon="2.450496830">
        <ele>512.60</ele>
        <time>2014-02-23T10:11:37Z</time>
      </trkpt>
      <trkpt lat="41.616578400" lon="2.450510070">
        <ele>512.60</ele>
        <time>2014-02-23T10:11:38Z</time>
      </trkpt>
      <trkpt lat="41.616568340" lon="2.450523480">
        <ele>512.50</ele>
        <time>2014-02-23T10:11:39Z</time>
      </trkpt>
      <trkpt lat="41.616558450" lon="2.450536730">
        <ele>513.00</ele>
        <time>2014-02-23T10:11:40Z</time>
      </trkpt>
      <trkpt lat="41.616545040" lon="2.450550140">
        <ele>513.40</ele>
        <time>2014-02-23T10:11:41Z</time>
      </trkpt>
      <trkpt lat="41.616536820" lon="2.450565060">
        <ele>513.90</ele>
        <time>2014-02-23T10:11:42Z</time>
      </trkpt>
      <trkpt lat="41.616526760" lon="2.450586680">
        <ele>514.30</ele>
        <time>2014-02-23T10:11:43Z</time>
      </trkpt>
      <trkpt lat="41.616516700" lon="2.450606800">
        <ele>514.00</ele>
        <time>2014-02-23T10:11:44Z</time>
      </trkpt>
      <trkpt lat="41.616506810" lon="2.450628420">
        <ele>513.70</ele>
        <time>2014-02-23T10:11:45Z</time>
      </trkpt>
      <trkpt lat="41.616493400" lon="2.450646700">
        <ele>513.60</ele>
        <time>2014-02-23T10:11:46Z</time>
      </trkpt>
      <trkpt lat="41.616481670" lon="2.450666810">
        <ele>513.80</ele>
        <time>2014-02-23T10:11:47Z</time>
      </trkpt>
      <trkpt lat="41.616471780" lon="2.450683410">
        <ele>514.00</ele>
        <time>2014-02-23T10:11:48Z</time>
      </trkpt>
      <trkpt lat="41.616460040" lon="2.450701680">
        <ele>514.20</ele>
        <time>2014-02-23T10:11:49Z</time>
      </trkpt>
      <trkpt lat="41.616450150" lon="2.450723480">
        <ele>514.30</ele>
        <time>2014-02-23T10:11:50Z</time>
      </trkpt>
      <trkpt lat="41.616443450" lon="2.450748450">
        <ele>514.40</ele>
        <time>2014-02-23T10:11:51Z</time>
      </trkpt>
      <trkpt lat="41.616440090" lon="2.450773430">
        <ele>515.00</ele>
        <time>2014-02-23T10:11:52Z</time>
      </trkpt>
      <trkpt lat="41.616436740" lon="2.450800090">
        <ele>515.50</ele>
        <time>2014-02-23T10:11:53Z</time>
      </trkpt>
      <trkpt lat="41.616433390" lon="2.450828420">
        <ele>515.30</ele>
        <time>2014-02-23T10:11:54Z</time>
      </trkpt>
      <trkpt lat="41.616426680" lon="2.450853390">
        <ele>515.20</ele>
        <time>2014-02-23T10:11:55Z</time>
      </trkpt>
      <trkpt lat="41.616418470" lon="2.450876700">
        <ele>515.60</ele>
        <time>2014-02-23T10:11:56Z</time>
      </trkpt>
      <trkpt lat="41.616413440" lon="2.450898490">
        <ele>515.90</ele>
        <time>2014-02-23T10:11:57Z</time>
      </trkpt>
      <trkpt lat="41.616411760" lon="2.450916760">
        <ele>516.10</ele>
        <time>2014-02-23T10:11:58Z</time>
      </trkpt>
      <trkpt lat="41.616413440" lon="2.450938390">
        <ele>516.30</ele>
        <time>2014-02-23T10:11:59Z</time>
      </trkpt>
      <trkpt lat="41.616411760" lon="2.450961690">
        <ele>516.40</ele>
        <time>2014-02-23T10:12:00Z</time>
      </trkpt>
      <trkpt lat="41.616408410" lon="2.450986670">
        <ele>516.70</ele>
        <time>2014-02-23T10:12:01Z</time>
      </trkpt>
      <trkpt lat="41.616403380" lon="2.451006780">
        <ele>516.90</ele>
        <time>2014-02-23T10:12:02Z</time>
      </trkpt>
      <trkpt lat="41.616398350" lon="2.451028410">
        <ele>516.90</ele>
        <time>2014-02-23T10:12:03Z</time>
      </trkpt>
      <trkpt lat="41.616393490" lon="2.451046680">
        <ele>516.90</ele>
        <time>2014-02-23T10:12:04Z</time>
      </trkpt>
      <trkpt lat="41.616386780" lon="2.451065120">
        <ele>516.90</ele>
        <time>2014-02-23T10:12:05Z</time>
      </trkpt>
      <trkpt lat="41.616383430" lon="2.451080040">
        <ele>517.10</ele>
        <time>2014-02-23T10:12:06Z</time>
      </trkpt>
      <trkpt lat="41.616383430" lon="2.451096810">
        <ele>517.20</ele>
        <time>2014-02-23T10:12:07Z</time>
      </trkpt>
      <trkpt lat="41.616381760" lon="2.451115080">
        <ele>517.00</ele>
        <time>2014-02-23T10:12:08Z</time>
      </trkpt>
      <trkpt lat="41.616381760" lon="2.451131670">
        <ele>516.80</ele>
        <time>2014-02-23T10:12:09Z</time>
      </trkpt>
      <trkpt lat="41.616375050" lon="2.451153470">
        <ele>516.60</ele>
        <time>2014-02-23T10:12:10Z</time>
      </trkpt>
      <trkpt lat="41.616370020" lon="2.451178450">
        <ele>516.90</ele>
        <time>2014-02-23T10:12:11Z</time>
      </trkpt>
      <trkpt lat="41.616363480" lon="2.451203420">
        <ele>517.00</ele>
        <time>2014-02-23T10:12:12Z</time>
      </trkpt>
      <trkpt lat="41.616356780" lon="2.451225050">
        <ele>517.60</ele>
        <time>2014-02-23T10:12:13Z</time>
      </trkpt>
      <trkpt lat="41.616351750" lon="2.451245000">
        <ele>517.90</ele>
        <time>2014-02-23T10:12:14Z</time>
      </trkpt>
      <trkpt lat="41.616348400" lon="2.451266790">
        <ele>518.00</ele>
        <time>2014-02-23T10:12:15Z</time>
      </trkpt>
      <trkpt lat="41.616341690" lon="2.451286740">
        <ele>518.00</ele>
        <time>2014-02-23T10:12:16Z</time>
      </trkpt>
      <trkpt lat="41.616333480" lon="2.451308360">
        <ele>518.10</ele>
        <time>2014-02-23T10:12:17Z</time>
      </trkpt>
      <trkpt lat="41.616326770" lon="2.451325130">
        <ele>518.30</ele>
        <time>2014-02-23T10:12:18Z</time>
      </trkpt>
      <trkpt lat="41.616318390" lon="2.451345080">
        <ele>518.50</ele>
        <time>2014-02-23T10:12:19Z</time>
      </trkpt>
      <trkpt lat="41.616311680" lon="2.451365030">
        <ele>518.80</ele>
        <time>2014-02-23T10:12:20Z</time>
      </trkpt>
      <trkpt lat="41.616305150" lon="2.451388500">
        <ele>519.10</ele>
        <time>2014-02-23T10:12:21Z</time>
      </trkpt>
      <trkpt lat="41.616298440" lon="2.451411800">
        <ele>519.50</ele>
        <time>2014-02-23T10:12:22Z</time>
      </trkpt>
      <trkpt lat="41.616290060" lon="2.451436780">
        <ele>519.80</ele>
        <time>2014-02-23T10:12:23Z</time>
      </trkpt>
      <trkpt lat="41.616278490" lon="2.451461750">
        <ele>520.00</ele>
        <time>2014-02-23T10:12:24Z</time>
      </trkpt>
      <trkpt lat="41.616265080" lon="2.451481700">
        <ele>519.90</ele>
        <time>2014-02-23T10:12:25Z</time>
      </trkpt>
      <trkpt lat="41.616251670" lon="2.451501820">
        <ele>519.90</ele>
        <time>2014-02-23T10:12:26Z</time>
      </trkpt>
      <trkpt lat="41.616238430" lon="2.451520090">
        <ele>520.60</ele>
        <time>2014-02-23T10:12:27Z</time>
      </trkpt>
      <trkpt lat="41.616226690" lon="2.451538360">
        <ele>521.10</ele>
        <time>2014-02-23T10:12:28Z</time>
      </trkpt>
      <trkpt lat="41.616213450" lon="2.451556800">
        <ele>521.50</ele>
        <time>2014-02-23T10:12:29Z</time>
      </trkpt>
      <trkpt lat="41.616200040" lon="2.451575080">
        <ele>521.90</ele>
        <time>2014-02-23T10:12:30Z</time>
      </trkpt>
      <trkpt lat="41.616188470" lon="2.451593350">
        <ele>522.30</ele>
        <time>2014-02-23T10:12:31Z</time>
      </trkpt>
      <trkpt lat="41.616175060" lon="2.451613470">
        <ele>523.00</ele>
        <time>2014-02-23T10:12:32Z</time>
      </trkpt>
      <trkpt lat="41.616160140" lon="2.451628390">
        <ele>523.60</ele>
        <time>2014-02-23T10:12:33Z</time>
      </trkpt>
      <trkpt lat="41.616146730" lon="2.451641800">
        <ele>524.00</ele>
        <time>2014-02-23T10:12:34Z</time>
      </trkpt>
      <trkpt lat="41.616135160" lon="2.451655040">
        <ele>524.20</ele>
        <time>2014-02-23T10:12:35Z</time>
      </trkpt>
      <trkpt lat="41.616121750" lon="2.451671800">
        <ele>524.40</ele>
        <time>2014-02-23T10:12:36Z</time>
      </trkpt>
      <trkpt lat="41.616108340" lon="2.451685050">
        <ele>524.80</ele>
        <time>2014-02-23T10:12:37Z</time>
      </trkpt>
      <trkpt lat="41.616095090" lon="2.451701810">
        <ele>525.00</ele>
        <time>2014-02-23T10:12:38Z</time>
      </trkpt>
      <trkpt lat="41.616086710" lon="2.451718410">
        <ele>525.50</ele>
        <time>2014-02-23T10:12:39Z</time>
      </trkpt>
      <trkpt lat="41.616078330" lon="2.451731820">
        <ele>525.80</ele>
        <time>2014-02-23T10:12:40Z</time>
      </trkpt>
      <trkpt lat="41.616063410" lon="2.451740030">
        <ele>526.40</ele>
        <time>2014-02-23T10:12:41Z</time>
      </trkpt>
      <trkpt lat="41.616048490" lon="2.451746740">
        <ele>526.80</ele>
        <time>2014-02-23T10:12:42Z</time>
      </trkpt>
      <trkpt lat="41.616036760" lon="2.451751770">
        <ele>527.10</ele>
        <time>2014-02-23T10:12:43Z</time>
      </trkpt>
      <trkpt lat="41.616021670" lon="2.451761830">
        <ele>527.40</ele>
        <time>2014-02-23T10:12:44Z</time>
      </trkpt>
      <trkpt lat="41.616008430" lon="2.451770040">
        <ele>527.70</ele>
        <time>2014-02-23T10:12:45Z</time>
      </trkpt>
      <trkpt lat="41.615993340" lon="2.451776750">
        <ele>527.80</ele>
        <time>2014-02-23T10:12:46Z</time>
      </trkpt>
      <trkpt lat="41.615978420" lon="2.451786800">
        <ele>527.90</ele>
        <time>2014-02-23T10:12:47Z</time>
      </trkpt>
      <trkpt lat="41.615961820" lon="2.451796690">
        <ele>527.90</ele>
        <time>2014-02-23T10:12:48Z</time>
      </trkpt>
      <trkpt lat="41.615946730" lon="2.451801720">
        <ele>528.00</ele>
        <time>2014-02-23T10:12:49Z</time>
      </trkpt>
      <trkpt lat="41.615930140" lon="2.451810110">
        <ele>528.00</ele>
        <time>2014-02-23T10:12:50Z</time>
      </trkpt>
      <trkpt lat="41.615915050" lon="2.451818490">
        <ele>527.70</ele>
        <time>2014-02-23T10:12:51Z</time>
      </trkpt>
      <trkpt lat="41.615900130" lon="2.451830050">
        <ele>527.50</ele>
        <time>2014-02-23T10:12:52Z</time>
      </trkpt>
      <trkpt lat="41.615885040" lon="2.451841790">
        <ele>527.70</ele>
        <time>2014-02-23T10:12:53Z</time>
      </trkpt>
      <trkpt lat="41.615871800" lon="2.451855030">
        <ele>527.90</ele>
        <time>2014-02-23T10:12:54Z</time>
      </trkpt>
      <trkpt lat="41.615856710" lon="2.451866770">
        <ele>528.00</ele>
        <time>2014-02-23T10:12:55Z</time>
      </trkpt>
      <trkpt lat="41.615841790" lon="2.451876830">
        <ele>528.10</ele>
        <time>2014-02-23T10:12:56Z</time>
      </trkpt>
      <trkpt lat="41.615828380" lon="2.451888390">
        <ele>528.20</ele>
        <time>2014-02-23T10:12:57Z</time>
      </trkpt>
      <trkpt lat="41.615813460" lon="2.451900130">
        <ele>528.40</ele>
        <time>2014-02-23T10:12:58Z</time>
      </trkpt>
      <trkpt lat="41.615806760" lon="2.451910020">
        <ele>528.60</ele>
        <time>2014-02-23T10:12:59Z</time>
      </trkpt>
      <trkpt lat="41.615800050" lon="2.451920080">
        <ele>528.90</ele>
        <time>2014-02-23T10:13:00Z</time>
      </trkpt>
      <trkpt lat="41.615786810" lon="2.451931810">
        <ele>529.10</ele>
        <time>2014-02-23T10:13:01Z</time>
      </trkpt>
      <trkpt lat="41.615775070" lon="2.451945050">
        <ele>529.30</ele>
        <time>2014-02-23T10:13:02Z</time>
      </trkpt>
      <trkpt lat="41.615763340" lon="2.451955110">
        <ele>529.60</ele>
        <time>2014-02-23T10:13:03Z</time>
      </trkpt>
      <trkpt lat="41.615751770" lon="2.451965000">
        <ele>529.90</ele>
        <time>2014-02-23T10:13:04Z</time>
      </trkpt>
      <trkpt lat="41.615738360" lon="2.451978410">
        <ele>530.50</ele>
        <time>2014-02-23T10:13:05Z</time>
      </trkpt>
      <trkpt lat="41.615725120" lon="2.451990150">
        <ele>530.90</ele>
        <time>2014-02-23T10:13:06Z</time>
      </trkpt>
      <trkpt lat="41.615711710" lon="2.452001720">
        <ele>531.30</ele>
        <time>2014-02-23T10:13:07Z</time>
      </trkpt>
      <trkpt lat="41.615701820" lon="2.452016800">
        <ele>531.20</ele>
        <time>2014-02-23T10:13:08Z</time>
      </trkpt>
      <trkpt lat="41.615691760" lon="2.452038430">
        <ele>531.10</ele>
        <time>2014-02-23T10:13:09Z</time>
      </trkpt>
      <trkpt lat="41.615681700" lon="2.452061730">
        <ele>531.20</ele>
        <time>2014-02-23T10:13:10Z</time>
      </trkpt>
      <trkpt lat="41.615676670" lon="2.452086710">
        <ele>531.30</ele>
        <time>2014-02-23T10:13:11Z</time>
      </trkpt>
      <trkpt lat="41.615673480" lon="2.452111690">
        <ele>531.50</ele>
        <time>2014-02-23T10:13:12Z</time>
      </trkpt>
      <trkpt lat="41.615670130" lon="2.452136660">
        <ele>531.70</ele>
        <time>2014-02-23T10:13:13Z</time>
      </trkpt>
      <trkpt lat="41.615670130" lon="2.452163490">
        <ele>531.80</ele>
        <time>2014-02-23T10:13:14Z</time>
      </trkpt>
      <trkpt lat="41.615666780" lon="2.452190140">
        <ele>531.90</ele>
        <time>2014-02-23T10:13:15Z</time>
      </trkpt>
      <trkpt lat="41.615663430" lon="2.452216800">
        <ele>531.90</ele>
        <time>2014-02-23T10:13:16Z</time>
      </trkpt>
      <trkpt lat="41.615660070" lon="2.452246800">
        <ele>531.70</ele>
        <time>2014-02-23T10:13:17Z</time>
      </trkpt>
      <trkpt lat="41.615656720" lon="2.452276810">
        <ele>531.50</ele>
        <time>2014-02-23T10:13:18Z</time>
      </trkpt>
      <trkpt lat="41.615656720" lon="2.452305140">
        <ele>531.30</ele>
        <time>2014-02-23T10:13:19Z</time>
      </trkpt>
      <trkpt lat="41.615660070" lon="2.452335150">
        <ele>531.10</ele>
        <time>2014-02-23T10:13:20Z</time>
      </trkpt>
      <trkpt lat="41.615661750" lon="2.452361800">
        <ele>531.00</ele>
        <time>2014-02-23T10:13:21Z</time>
      </trkpt>
      <trkpt lat="41.615666780" lon="2.452386780">
        <ele>531.30</ele>
        <time>2014-02-23T10:13:22Z</time>
      </trkpt>
      <trkpt lat="41.615673480" lon="2.452413430">
        <ele>531.60</ele>
        <time>2014-02-23T10:13:23Z</time>
      </trkpt>
      <trkpt lat="41.615680020" lon="2.452438410">
        <ele>531.90</ele>
        <time>2014-02-23T10:13:24Z</time>
      </trkpt>
      <trkpt lat="41.615686730" lon="2.452463390">
        <ele>532.20</ele>
        <time>2014-02-23T10:13:25Z</time>
      </trkpt>
      <trkpt lat="41.615696790" lon="2.452490050">
        <ele>532.40</ele>
        <time>2014-02-23T10:13:26Z</time>
      </trkpt>
      <trkpt lat="41.615705000" lon="2.452518380">
        <ele>532.70</ele>
        <time>2014-02-23T10:13:27Z</time>
      </trkpt>
      <trkpt lat="41.615713380" lon="2.452546710">
        <ele>533.00</ele>
        <time>2014-02-23T10:13:28Z</time>
      </trkpt>
      <trkpt lat="41.615723440" lon="2.452571690">
        <ele>532.90</ele>
        <time>2014-02-23T10:13:29Z</time>
      </trkpt>
      <trkpt lat="41.615735010" lon="2.452595150">
        <ele>532.90</ele>
        <time>2014-02-23T10:13:30Z</time>
      </trkpt>
      <trkpt lat="41.615746740" lon="2.452620130">
        <ele>533.10</ele>
        <time>2014-02-23T10:13:31Z</time>
      </trkpt>
      <trkpt lat="41.615758480" lon="2.452646790">
        <ele>533.30</ele>
        <time>2014-02-23T10:13:32Z</time>
      </trkpt>
      <trkpt lat="41.615770040" lon="2.452670090">
        <ele>533.40</ele>
        <time>2014-02-23T10:13:33Z</time>
      </trkpt>
      <trkpt lat="41.615785130" lon="2.452698420">
        <ele>533.40</ele>
        <time>2014-02-23T10:13:34Z</time>
      </trkpt>
      <trkpt lat="41.615801730" lon="2.452726750">
        <ele>533.40</ele>
        <time>2014-02-23T10:13:35Z</time>
      </trkpt>
      <trkpt lat="41.615816820" lon="2.452751730">
        <ele>533.40</ele>
        <time>2014-02-23T10:13:36Z</time>
      </trkpt>
      <trkpt lat="41.615836760" lon="2.452773350">
        <ele>533.40</ele>
        <time>2014-02-23T10:13:37Z</time>
      </trkpt>
      <trkpt lat="41.615860070" lon="2.452798330">
        <ele>533.00</ele>
        <time>2014-02-23T10:13:38Z</time>
      </trkpt>
      <trkpt lat="41.615881690" lon="2.452821800">
        <ele>532.60</ele>
        <time>2014-02-23T10:13:39Z</time>
      </trkpt>
      <trkpt lat="41.615903480" lon="2.452845100">
        <ele>532.40</ele>
        <time>2014-02-23T10:13:40Z</time>
      </trkpt>
      <trkpt lat="41.615926790" lon="2.452866730">
        <ele>532.50</ele>
        <time>2014-02-23T10:13:41Z</time>
      </trkpt>
      <trkpt lat="41.615950090" lon="2.452886680">
        <ele>532.60</ele>
        <time>2014-02-23T10:13:42Z</time>
      </trkpt>
      <trkpt lat="41.615975070" lon="2.452910150">
        <ele>532.40</ele>
        <time>2014-02-23T10:13:43Z</time>
      </trkpt>
      <trkpt lat="41.615998370" lon="2.452933450">
        <ele>532.20</ele>
        <time>2014-02-23T10:13:44Z</time>
      </trkpt>
      <trkpt lat="41.616023350" lon="2.452955070">
        <ele>532.20</ele>
        <time>2014-02-23T10:13:45Z</time>
      </trkpt>
      <trkpt lat="41.616048490" lon="2.452980050">
        <ele>532.20</ele>
        <time>2014-02-23T10:13:46Z</time>
      </trkpt>
      <trkpt lat="41.616073470" lon="2.453001680">
        <ele>532.20</ele>
        <time>2014-02-23T10:13:47Z</time>
      </trkpt>
      <trkpt lat="41.616095090" lon="2.453021790">
        <ele>532.30</ele>
        <time>2014-02-23T10:13:48Z</time>
      </trkpt>
      <trkpt lat="41.616116720" lon="2.453040070">
        <ele>532.40</ele>
        <time>2014-02-23T10:13:49Z</time>
      </trkpt>
      <trkpt lat="41.616138350" lon="2.453056660">
        <ele>532.70</ele>
        <time>2014-02-23T10:13:50Z</time>
      </trkpt>
      <trkpt lat="41.616163490" lon="2.453073430">
        <ele>532.90</ele>
        <time>2014-02-23T10:13:51Z</time>
      </trkpt>
      <trkpt lat="41.616190150" lon="2.453090020">
        <ele>533.00</ele>
        <time>2014-02-23T10:13:52Z</time>
      </trkpt>
      <trkpt lat="41.616216800" lon="2.453106790">
        <ele>533.00</ele>
        <time>2014-02-23T10:13:53Z</time>
      </trkpt>
      <trkpt lat="41.616243450" lon="2.453121710">
        <ele>532.90</ele>
        <time>2014-02-23T10:13:54Z</time>
      </trkpt>
      <trkpt lat="41.616268430" lon="2.453138470">
        <ele>532.70</ele>
        <time>2014-02-23T10:13:55Z</time>
      </trkpt>
      <trkpt lat="41.616293410" lon="2.453155070">
        <ele>532.60</ele>
        <time>2014-02-23T10:13:56Z</time>
      </trkpt>
      <trkpt lat="41.616321740" lon="2.453165120">
        <ele>532.50</ele>
        <time>2014-02-23T10:13:57Z</time>
      </trkpt>
      <trkpt lat="41.616346720" lon="2.453178370">
        <ele>532.50</ele>
        <time>2014-02-23T10:13:58Z</time>
      </trkpt>
      <trkpt lat="41.616371700" lon="2.453195130">
        <ele>532.40</ele>
        <time>2014-02-23T10:13:59Z</time>
      </trkpt>
      <trkpt lat="41.616393490" lon="2.453218430">
        <ele>532.30</ele>
        <time>2014-02-23T10:14:00Z</time>
      </trkpt>
      <trkpt lat="41.616420140" lon="2.453246760">
        <ele>532.20</ele>
        <time>2014-02-23T10:14:01Z</time>
      </trkpt>
      <trkpt lat="41.616446800" lon="2.453280120">
        <ele>532.40</ele>
        <time>2014-02-23T10:14:02Z</time>
      </trkpt>
      <trkpt lat="41.616476810" lon="2.453318350">
        <ele>532.60</ele>
        <time>2014-02-23T10:14:03Z</time>
      </trkpt>
      <trkpt lat="41.616501780" lon="2.453360090">
        <ele>532.20</ele>
        <time>2014-02-23T10:14:04Z</time>
      </trkpt>
      <trkpt lat="41.616528440" lon="2.453401830">
        <ele>531.90</ele>
        <time>2014-02-23T10:14:05Z</time>
      </trkpt>
      <trkpt lat="41.616553420" lon="2.453438370">
        <ele>531.70</ele>
        <time>2014-02-23T10:14:06Z</time>
      </trkpt>
      <trkpt lat="41.616578400" lon="2.453473410">
        <ele>531.20</ele>
        <time>2014-02-23T10:14:07Z</time>
      </trkpt>
      <trkpt lat="41.616603370" lon="2.453513480">
        <ele>530.70</ele>
        <time>2014-02-23T10:14:08Z</time>
      </trkpt>
      <trkpt lat="41.616626670" lon="2.453555050">
        <ele>530.20</ele>
        <time>2014-02-23T10:14:09Z</time>
      </trkpt>
      <trkpt lat="41.616650140" lon="2.453605010">
        <ele>529.80</ele>
        <time>2014-02-23T10:14:10Z</time>
      </trkpt>
      <trkpt lat="41.616675120" lon="2.453661670">
        <ele>529.50</ele>
        <time>2014-02-23T10:14:11Z</time>
      </trkpt>
      <trkpt lat="41.616706810" lon="2.453715140">
        <ele>529.20</ele>
        <time>2014-02-23T10:14:12Z</time>
      </trkpt>
      <trkpt lat="41.616745030" lon="2.453766780">
        <ele>528.90</ele>
        <time>2014-02-23T10:14:13Z</time>
      </trkpt>
      <trkpt lat="41.616788450" lon="2.453806670">
        <ele>528.50</ele>
        <time>2014-02-23T10:14:14Z</time>
      </trkpt>
      <trkpt lat="41.616838400" lon="2.453843390">
        <ele>528.30</ele>
        <time>2014-02-23T10:14:15Z</time>
      </trkpt>
      <trkpt lat="41.616890030" lon="2.453871720">
        <ele>528.10</ele>
        <time>2014-02-23T10:14:16Z</time>
      </trkpt>
      <trkpt lat="41.616943340" lon="2.453898370">
        <ele>528.00</ele>
        <time>2014-02-23T10:14:17Z</time>
      </trkpt>
      <trkpt lat="41.616995140" lon="2.453923350">
        <ele>527.80</ele>
        <time>2014-02-23T10:14:18Z</time>
      </trkpt>
      <trkpt lat="41.617048450" lon="2.453950010">
        <ele>527.30</ele>
        <time>2014-02-23T10:14:19Z</time>
      </trkpt>
      <trkpt lat="41.617098410" lon="2.453978340">
        <ele>526.80</ele>
        <time>2014-02-23T10:14:20Z</time>
      </trkpt>
      <trkpt lat="41.617138470" lon="2.454015050">
        <ele>526.70</ele>
        <time>2014-02-23T10:14:21Z</time>
      </trkpt>
      <trkpt lat="41.617175020" lon="2.454050090">
        <ele>526.50</ele>
        <time>2014-02-23T10:14:22Z</time>
      </trkpt>
      <trkpt lat="41.617210060" lon="2.454085120">
        <ele>526.40</ele>
        <time>2014-02-23T10:14:23Z</time>
      </trkpt>
      <trkpt lat="41.617241740" lon="2.454121670">
        <ele>526.40</ele>
        <time>2014-02-23T10:14:24Z</time>
      </trkpt>
      <trkpt lat="41.617268390" lon="2.454163410">
        <ele>526.30</ele>
        <time>2014-02-23T10:14:25Z</time>
      </trkpt>
      <trkpt lat="41.617293370" lon="2.454206830">
        <ele>526.20</ele>
        <time>2014-02-23T10:14:26Z</time>
      </trkpt>
      <trkpt lat="41.617316670" lon="2.454251750">
        <ele>526.10</ele>
        <time>2014-02-23T10:14:27Z</time>
      </trkpt>
      <trkpt lat="41.617335110" lon="2.454301710">
        <ele>526.30</ele>
        <time>2014-02-23T10:14:28Z</time>
      </trkpt>
      <trkpt lat="41.617353390" lon="2.454348480">
        <ele>526.50</ele>
        <time>2014-02-23T10:14:29Z</time>
      </trkpt>
      <trkpt lat="41.617375010" lon="2.454393410">
        <ele>526.60</ele>
        <time>2014-02-23T10:14:30Z</time>
      </trkpt>
      <trkpt lat="41.617396800" lon="2.454435150">
        <ele>527.10</ele>
        <time>2014-02-23T10:14:31Z</time>
      </trkpt>
      <trkpt lat="41.617418430" lon="2.454476720">
        <ele>527.50</ele>
        <time>2014-02-23T10:14:32Z</time>
      </trkpt>
      <trkpt lat="41.617438380" lon="2.454520140">
        <ele>527.40</ele>
        <time>2014-02-23T10:14:33Z</time>
      </trkpt>
      <trkpt lat="41.617458490" lon="2.454560040">
        <ele>527.30</ele>
        <time>2014-02-23T10:14:34Z</time>
      </trkpt>
      <trkpt lat="41.617480120" lon="2.454598430">
        <ele>527.20</ele>
        <time>2014-02-23T10:14:35Z</time>
      </trkpt>
      <trkpt lat="41.617498390" lon="2.454631790">
        <ele>527.00</ele>
        <time>2014-02-23T10:14:36Z</time>
      </trkpt>
      <trkpt lat="41.617518340" lon="2.454663470">
        <ele>526.90</ele>
        <time>2014-02-23T10:14:37Z</time>
      </trkpt>
      <trkpt lat="41.617538460" lon="2.454695160">
        <ele>527.40</ele>
        <time>2014-02-23T10:14:38Z</time>
      </trkpt>
      <trkpt lat="41.617558410" lon="2.454728350">
        <ele>527.70</ele>
        <time>2014-02-23T10:14:39Z</time>
      </trkpt>
      <trkpt lat="41.617578360" lon="2.454761710">
        <ele>528.20</ele>
        <time>2014-02-23T10:14:40Z</time>
      </trkpt>
      <trkpt lat="41.617595120" lon="2.454800100">
        <ele>528.60</ele>
        <time>2014-02-23T10:14:41Z</time>
      </trkpt>
      <trkpt lat="41.617611720" lon="2.454840000">
        <ele>528.40</ele>
        <time>2014-02-23T10:14:42Z</time>
      </trkpt>
      <trkpt lat="41.617628480" lon="2.454881740">
        <ele>528.30</ele>
        <time>2014-02-23T10:14:43Z</time>
      </trkpt>
      <trkpt lat="41.617643400" lon="2.454923480">
        <ele>528.20</ele>
        <time>2014-02-23T10:14:44Z</time>
      </trkpt>
      <trkpt lat="41.617660000" lon="2.454963380">
        <ele>528.40</ele>
        <time>2014-02-23T10:14:45Z</time>
      </trkpt>
      <trkpt lat="41.617676760" lon="2.454998410">
        <ele>528.50</ele>
        <time>2014-02-23T10:14:46Z</time>
      </trkpt>
      <trkpt lat="41.617695030" lon="2.455033450">
        <ele>528.50</ele>
        <time>2014-02-23T10:14:47Z</time>
      </trkpt>
      <trkpt lat="41.617711800" lon="2.455073350">
        <ele>528.60</ele>
        <time>2014-02-23T10:14:48Z</time>
      </trkpt>
      <trkpt lat="41.617723360" lon="2.455116770">
        <ele>528.60</ele>
        <time>2014-02-23T10:14:49Z</time>
      </trkpt>
      <trkpt lat="41.617731750" lon="2.455158340">
        <ele>528.30</ele>
        <time>2014-02-23T10:14:50Z</time>
      </trkpt>
      <trkpt lat="41.617738450" lon="2.455200080">
        <ele>528.10</ele>
        <time>2014-02-23T10:14:51Z</time>
      </trkpt>
      <trkpt lat="41.617748340" lon="2.455241820">
        <ele>528.10</ele>
        <time>2014-02-23T10:14:52Z</time>
      </trkpt>
      <trkpt lat="41.617758400" lon="2.455281720">
        <ele>528.00</ele>
        <time>2014-02-23T10:14:53Z</time>
      </trkpt>
      <trkpt lat="41.617768460" lon="2.455321790">
        <ele>528.30</ele>
        <time>2014-02-23T10:14:54Z</time>
      </trkpt>
      <trkpt lat="41.617776670" lon="2.455361690">
        <ele>528.50</ele>
        <time>2014-02-23T10:14:55Z</time>
      </trkpt>
      <trkpt lat="41.617785050" lon="2.455398400">
        <ele>528.60</ele>
        <time>2014-02-23T10:14:56Z</time>
      </trkpt>
      <trkpt lat="41.617793440" lon="2.455433430">
        <ele>528.50</ele>
        <time>2014-02-23T10:14:57Z</time>
      </trkpt>
      <trkpt lat="41.617796790" lon="2.455468470">
        <ele>528.50</ele>
        <time>2014-02-23T10:14:58Z</time>
      </trkpt>
      <trkpt lat="41.617805000" lon="2.455500150">
        <ele>528.40</ele>
        <time>2014-02-23T10:14:59Z</time>
      </trkpt>
      <trkpt lat="41.617811710" lon="2.455538380">
        <ele>528.30</ele>
        <time>2014-02-23T10:15:00Z</time>
      </trkpt>
      <trkpt lat="41.617813380" lon="2.455578440">
        <ele>528.50</ele>
        <time>2014-02-23T10:15:01Z</time>
      </trkpt>
      <trkpt lat="41.617816740" lon="2.455618340">
        <ele>528.70</ele>
        <time>2014-02-23T10:15:02Z</time>
      </trkpt>
      <trkpt lat="41.617823440" lon="2.455658400">
        <ele>528.80</ele>
        <time>2014-02-23T10:15:03Z</time>
      </trkpt>
      <trkpt lat="41.617831820" lon="2.455696790">
        <ele>528.70</ele>
        <time>2014-02-23T10:15:04Z</time>
      </trkpt>
      <trkpt lat="41.617841720" lon="2.455731660">
        <ele>528.60</ele>
        <time>2014-02-23T10:15:05Z</time>
      </trkpt>
      <trkpt lat="41.617851770" lon="2.455771730">
        <ele>528.10</ele>
        <time>2014-02-23T10:15:06Z</time>
      </trkpt>
      <trkpt lat="41.617863340" lon="2.455811790">
        <ele>527.80</ele>
        <time>2014-02-23T10:15:07Z</time>
      </trkpt>
      <trkpt lat="41.617875080" lon="2.455843480">
        <ele>527.50</ele>
        <time>2014-02-23T10:15:08Z</time>
      </trkpt>
      <trkpt lat="41.617883460" lon="2.455876670">
        <ele>527.40</ele>
        <time>2014-02-23T10:15:09Z</time>
      </trkpt>
      <trkpt lat="41.617886810" lon="2.455913380">
        <ele>527.30</ele>
        <time>2014-02-23T10:15:10Z</time>
      </trkpt>
      <trkpt lat="41.617888490" lon="2.455941710">
        <ele>527.40</ele>
        <time>2014-02-23T10:15:11Z</time>
      </trkpt>
      <trkpt lat="41.617890000" lon="2.455970040">
        <ele>527.40</ele>
        <time>2014-02-23T10:15:12Z</time>
      </trkpt>
      <trkpt lat="41.617895020" lon="2.456000050">
        <ele>528.00</ele>
        <time>2014-02-23T10:15:13Z</time>
      </trkpt>
      <trkpt lat="41.617898380" lon="2.456030060">
        <ele>528.40</ele>
        <time>2014-02-23T10:15:14Z</time>
      </trkpt>
      <trkpt lat="41.617901730" lon="2.456058390">
        <ele>528.70</ele>
        <time>2014-02-23T10:15:15Z</time>
      </trkpt>
      <trkpt lat="41.617901730" lon="2.456086720">
        <ele>528.40</ele>
        <time>2014-02-23T10:15:16Z</time>
      </trkpt>
      <trkpt lat="41.617906760" lon="2.456116730">
        <ele>528.20</ele>
        <time>2014-02-23T10:15:17Z</time>
      </trkpt>
      <trkpt lat="41.617915140" lon="2.456146730">
        <ele>527.90</ele>
        <time>2014-02-23T10:15:18Z</time>
      </trkpt>
      <trkpt lat="41.617928380" lon="2.456171710">
        <ele>527.70</ele>
        <time>2014-02-23T10:15:19Z</time>
      </trkpt>
      <trkpt lat="41.617940120" lon="2.456195010">
        <ele>528.10</ele>
        <time>2014-02-23T10:15:20Z</time>
      </trkpt>
      <trkpt lat="41.617951690" lon="2.456218480">
        <ele>528.50</ele>
        <time>2014-02-23T10:15:21Z</time>
      </trkpt>
      <trkpt lat="41.617965100" lon="2.456240110">
        <ele>528.80</ele>
        <time>2014-02-23T10:15:22Z</time>
      </trkpt>
      <trkpt lat="41.617973480" lon="2.456261730">
        <ele>528.20</ele>
        <time>2014-02-23T10:15:23Z</time>
      </trkpt>
      <trkpt lat="41.617981690" lon="2.456285040">
        <ele>527.70</ele>
        <time>2014-02-23T10:15:24Z</time>
      </trkpt>
      <trkpt lat="41.617991750" lon="2.456311690">
        <ele>527.30</ele>
        <time>2014-02-23T10:15:25Z</time>
      </trkpt>
      <trkpt lat="41.617998460" lon="2.456335160">
        <ele>526.90</ele>
        <time>2014-02-23T10:15:26Z</time>
      </trkpt>
      <trkpt lat="41.618006670" lon="2.456360140">
        <ele>526.60</ele>
        <time>2014-02-23T10:15:27Z</time>
      </trkpt>
      <trkpt lat="41.618018410" lon="2.456385120">
        <ele>526.30</ele>
        <time>2014-02-23T10:15:28Z</time>
      </trkpt>
      <trkpt lat="41.618030140" lon="2.456405060">
        <ele>526.10</ele>
        <time>2014-02-23T10:15:29Z</time>
      </trkpt>
      <trkpt lat="41.618040030" lon="2.456425010">
        <ele>526.30</ele>
        <time>2014-02-23T10:15:30Z</time>
      </trkpt>
      <trkpt lat="41.618043380" lon="2.456446810">
        <ele>526.40</ele>
        <time>2014-02-23T10:15:31Z</time>
      </trkpt>
      <trkpt lat="41.618048410" lon="2.456463400">
        <ele>526.30</ele>
        <time>2014-02-23T10:15:32Z</time>
      </trkpt>
      <trkpt lat="41.618058470" lon="2.456478490">
        <ele>526.30</ele>
        <time>2014-02-23T10:15:33Z</time>
      </trkpt>
      <trkpt lat="41.618068360" lon="2.456495090">
        <ele>526.20</ele>
        <time>2014-02-23T10:15:34Z</time>
      </trkpt>
      <trkpt lat="41.618078420" lon="2.456511680">
        <ele>526.50</ele>
        <time>2014-02-23T10:15:35Z</time>
      </trkpt>
      <trkpt lat="41.618086800" lon="2.456533480">
        <ele>526.70</ele>
        <time>2014-02-23T10:15:36Z</time>
      </trkpt>
      <trkpt lat="41.618098370" lon="2.456553420">
        <ele>527.00</ele>
        <time>2014-02-23T10:15:37Z</time>
      </trkpt>
      <trkpt lat="41.618111780" lon="2.456576730">
        <ele>527.20</ele>
        <time>2014-02-23T10:15:38Z</time>
      </trkpt>
      <trkpt lat="41.618120160" lon="2.456603380">
        <ele>527.20</ele>
        <time>2014-02-23T10:15:39Z</time>
      </trkpt>
      <trkpt lat="41.618121670" lon="2.456628360">
        <ele>527.10</ele>
        <time>2014-02-23T10:15:40Z</time>
      </trkpt>
      <trkpt lat="41.618123350" lon="2.456651830">
        <ele>527.10</ele>
        <time>2014-02-23T10:15:41Z</time>
      </trkpt>
      <trkpt lat="41.618130050" lon="2.456670100">
        <ele>527.10</ele>
        <time>2014-02-23T10:15:42Z</time>
      </trkpt>
      <trkpt lat="41.618136760" lon="2.456696750">
        <ele>527.10</ele>
        <time>2014-02-23T10:15:43Z</time>
      </trkpt>
      <trkpt lat="41.618141790" lon="2.456726760">
        <ele>526.30</ele>
        <time>2014-02-23T10:15:44Z</time>
      </trkpt>
      <trkpt lat="41.618150000" lon="2.456753420">
        <ele>525.80</ele>
        <time>2014-02-23T10:15:45Z</time>
      </trkpt>
      <trkpt lat="41.618160060" lon="2.456778390">
        <ele>525.30</ele>
        <time>2014-02-23T10:15:46Z</time>
      </trkpt>
      <trkpt lat="41.618171790" lon="2.456805050">
        <ele>525.40</ele>
        <time>2014-02-23T10:15:47Z</time>
      </trkpt>
      <trkpt lat="41.618183360" lon="2.456835060">
        <ele>525.50</ele>
        <time>2014-02-23T10:15:48Z</time>
      </trkpt>
      <trkpt lat="41.618191740" lon="2.456860030">
        <ele>525.30</ele>
        <time>2014-02-23T10:15:49Z</time>
      </trkpt>
      <trkpt lat="41.618196770" lon="2.456888370">
        <ele>525.20</ele>
        <time>2014-02-23T10:15:50Z</time>
      </trkpt>
      <trkpt lat="41.618201800" lon="2.456918370">
        <ele>525.40</ele>
        <time>2014-02-23T10:15:51Z</time>
      </trkpt>
      <trkpt lat="41.618203480" lon="2.456946700">
        <ele>525.50</ele>
        <time>2014-02-23T10:15:52Z</time>
      </trkpt>
      <trkpt lat="41.618205150" lon="2.456976710">
        <ele>525.60</ele>
        <time>2014-02-23T10:15:53Z</time>
      </trkpt>
      <trkpt lat="41.618206660" lon="2.457006720">
        <ele>525.90</ele>
        <time>2014-02-23T10:15:54Z</time>
      </trkpt>
      <trkpt lat="41.618203480" lon="2.457036720">
        <ele>526.20</ele>
        <time>2014-02-23T10:15:55Z</time>
      </trkpt>
      <trkpt lat="41.618203480" lon="2.457065060">
        <ele>526.60</ele>
        <time>2014-02-23T10:15:56Z</time>
      </trkpt>
      <trkpt lat="41.618205150" lon="2.457093390">
        <ele>526.90</ele>
        <time>2014-02-23T10:15:57Z</time>
      </trkpt>
      <trkpt lat="41.618210020" lon="2.457121720">
        <ele>526.90</ele>
        <time>2014-02-23T10:15:58Z</time>
      </trkpt>
      <trkpt lat="41.618215050" lon="2.457150050">
        <ele>527.00</ele>
        <time>2014-02-23T10:15:59Z</time>
      </trkpt>
      <trkpt lat="41.618216720" lon="2.457181730">
        <ele>527.00</ele>
        <time>2014-02-23T10:16:00Z</time>
      </trkpt>
      <trkpt lat="41.618216720" lon="2.457218440">
        <ele>527.30</ele>
        <time>2014-02-23T10:16:01Z</time>
      </trkpt>
      <trkpt lat="41.618221750" lon="2.457255160">
        <ele>527.50</ele>
        <time>2014-02-23T10:16:02Z</time>
      </trkpt>
      <trkpt lat="41.618226780" lon="2.457286670">
        <ele>527.10</ele>
        <time>2014-02-23T10:16:03Z</time>
      </trkpt>
      <trkpt lat="41.618228460" lon="2.457315000">
        <ele>526.90</ele>
        <time>2014-02-23T10:16:04Z</time>
      </trkpt>
      <trkpt lat="41.618233490" lon="2.457341830">
        <ele>526.70</ele>
        <time>2014-02-23T10:16:05Z</time>
      </trkpt>
      <trkpt lat="41.618241700" lon="2.457363450">
        <ele>526.60</ele>
        <time>2014-02-23T10:16:06Z</time>
      </trkpt>
      <trkpt lat="41.618253430" lon="2.457391780">
        <ele>526.50</ele>
        <time>2014-02-23T10:16:07Z</time>
      </trkpt>
      <trkpt lat="41.618265000" lon="2.457426820">
        <ele>526.10</ele>
        <time>2014-02-23T10:16:08Z</time>
      </trkpt>
      <trkpt lat="41.618273380" lon="2.457461690">
        <ele>525.80</ele>
        <time>2014-02-23T10:16:09Z</time>
      </trkpt>
      <trkpt lat="41.618280090" lon="2.457491690">
        <ele>525.30</ele>
        <time>2014-02-23T10:16:10Z</time>
      </trkpt>
      <trkpt lat="41.618286790" lon="2.457531760">
        <ele>524.90</ele>
        <time>2014-02-23T10:16:11Z</time>
      </trkpt>
      <trkpt lat="41.618290150" lon="2.457568470">
        <ele>524.60</ele>
        <time>2014-02-23T10:16:12Z</time>
      </trkpt>
      <trkpt lat="41.618300040" lon="2.457600160">
        <ele>524.00</ele>
        <time>2014-02-23T10:16:13Z</time>
      </trkpt>
      <trkpt lat="41.618305070" lon="2.457626810">
        <ele>523.50</ele>
        <time>2014-02-23T10:16:14Z</time>
      </trkpt>
      <trkpt lat="41.618308420" lon="2.457655140">
        <ele>522.80</ele>
        <time>2014-02-23T10:16:15Z</time>
      </trkpt>
      <trkpt lat="41.618310100" lon="2.457676770">
        <ele>522.30</ele>
        <time>2014-02-23T10:16:16Z</time>
      </trkpt>
      <trkpt lat="41.618306740" lon="2.457693360">
        <ele>521.60</ele>
        <time>2014-02-23T10:16:17Z</time>
      </trkpt>
      <trkpt lat="41.618295010" lon="2.457720020">
        <ele>521.10</ele>
        <time>2014-02-23T10:16:18Z</time>
      </trkpt>
      <trkpt lat="41.618286790" lon="2.457743490">
        <ele>520.70</ele>
        <time>2014-02-23T10:16:19Z</time>
      </trkpt>
      <trkpt lat="41.618281770" lon="2.457771820">
        <ele>520.70</ele>
        <time>2014-02-23T10:16:20Z</time>
      </trkpt>
      <trkpt lat="41.618270030" lon="2.457796800">
        <ele>520.70</ele>
        <time>2014-02-23T10:16:21Z</time>
      </trkpt>
      <trkpt lat="41.618255110" lon="2.457821770">
        <ele>520.30</ele>
        <time>2014-02-23T10:16:22Z</time>
      </trkpt>
      <trkpt lat="41.618245050" lon="2.457851780">
        <ele>520.10</ele>
        <time>2014-02-23T10:16:23Z</time>
      </trkpt>
      <trkpt lat="41.618243380" lon="2.457890000">
        <ele>519.60</ele>
        <time>2014-02-23T10:16:24Z</time>
      </trkpt>
      <trkpt lat="41.618243380" lon="2.457936770">
        <ele>519.20</ele>
        <time>2014-02-23T10:16:25Z</time>
      </trkpt>
      <trkpt lat="41.618236670" lon="2.457991760">
        <ele>518.90</ele>
        <time>2014-02-23T10:16:26Z</time>
      </trkpt>
      <trkpt lat="41.618218400" lon="2.458050100">
        <ele>518.60</ele>
        <time>2014-02-23T10:16:27Z</time>
      </trkpt>
      <trkpt lat="41.618188390" lon="2.458105080">
        <ele>518.30</ele>
        <time>2014-02-23T10:16:28Z</time>
      </trkpt>
      <trkpt lat="41.618161740" lon="2.458161740">
        <ele>517.80</ele>
        <time>2014-02-23T10:16:29Z</time>
      </trkpt>
      <trkpt lat="41.618140110" lon="2.458220080">
        <ele>517.30</ele>
        <time>2014-02-23T10:16:30Z</time>
      </trkpt>
      <trkpt lat="41.618131730" lon="2.458280100">
        <ele>517.00</ele>
        <time>2014-02-23T10:16:31Z</time>
      </trkpt>
      <trkpt lat="41.618130050" lon="2.458338430">
        <ele>516.80</ele>
        <time>2014-02-23T10:16:32Z</time>
      </trkpt>
      <trkpt lat="41.618135080" lon="2.458396770">
        <ele>516.70</ele>
        <time>2014-02-23T10:16:33Z</time>
      </trkpt>
      <trkpt lat="41.618145140" lon="2.458460140">
        <ele>516.10</ele>
        <time>2014-02-23T10:16:34Z</time>
      </trkpt>
      <trkpt lat="41.618158380" lon="2.458523340">
        <ele>515.70</ele>
        <time>2014-02-23T10:16:35Z</time>
      </trkpt>
      <trkpt lat="41.618175150" lon="2.458596760">
        <ele>515.30</ele>
        <time>2014-02-23T10:16:36Z</time>
      </trkpt>
      <trkpt lat="41.618191740" lon="2.458678400">
        <ele>514.90</ele>
        <time>2014-02-23T10:16:37Z</time>
      </trkpt>
      <trkpt lat="41.618211690" lon="2.458768430">
        <ele>514.70</ele>
        <time>2014-02-23T10:16:38Z</time>
      </trkpt>
      <trkpt lat="41.618236670" lon="2.458861800">
        <ele>514.10</ele>
        <time>2014-02-23T10:16:39Z</time>
      </trkpt>
      <trkpt lat="41.618265000" lon="2.458958360">
        <ele>513.70</ele>
        <time>2014-02-23T10:16:40Z</time>
      </trkpt>
      <trkpt lat="41.618296690" lon="2.459048380">
        <ele>513.10</ele>
        <time>2014-02-23T10:16:41Z</time>
      </trkpt>
      <trkpt lat="41.618320150" lon="2.459136730">
        <ele>512.60</ele>
        <time>2014-02-23T10:16:42Z</time>
      </trkpt>
      <trkpt lat="41.618333400" lon="2.459215010">
        <ele>512.30</ele>
        <time>2014-02-23T10:16:43Z</time>
      </trkpt>
      <trkpt lat="41.618336750" lon="2.459276700">
        <ele>511.60</ele>
        <time>2014-02-23T10:16:44Z</time>
      </trkpt>
      <trkpt lat="41.618325020" lon="2.459320120">
        <ele>511.10</ele>
        <time>2014-02-23T10:16:45Z</time>
      </trkpt>
      <trkpt lat="41.618305070" lon="2.459345100">
        <ele>510.90</ele>
        <time>2014-02-23T10:16:46Z</time>
      </trkpt>
      <trkpt lat="41.618281770" lon="2.459373430">
        <ele>510.70</ele>
        <time>2014-02-23T10:16:47Z</time>
      </trkpt>
      <trkpt lat="41.618261820" lon="2.459413330">
        <ele>509.90</ele>
        <time>2014-02-23T10:16:48Z</time>
      </trkpt>
      <trkpt lat="41.618255110" lon="2.459455070">
        <ele>509.20</ele>
        <time>2014-02-23T10:16:49Z</time>
      </trkpt>
      <trkpt lat="41.618250080" lon="2.459495140">
        <ele>508.60</ele>
        <time>2014-02-23T10:16:50Z</time>
      </trkpt>
      <trkpt lat="41.618248410" lon="2.459533360">
        <ele>508.20</ele>
        <time>2014-02-23T10:16:51Z</time>
      </trkpt>
      <trkpt lat="41.618248410" lon="2.459568390">
        <ele>507.90</ele>
        <time>2014-02-23T10:16:52Z</time>
      </trkpt>
      <trkpt lat="41.618246730" lon="2.459605110">
        <ele>507.40</ele>
        <time>2014-02-23T10:16:53Z</time>
      </trkpt>
      <trkpt lat="41.618240020" lon="2.459638470">
        <ele>507.10</ele>
        <time>2014-02-23T10:16:54Z</time>
      </trkpt>
      <trkpt lat="41.618230130" lon="2.459673340">
        <ele>507.30</ele>
        <time>2014-02-23T10:16:55Z</time>
      </trkpt>
      <trkpt lat="41.618220070" lon="2.459708370">
        <ele>507.40</ele>
        <time>2014-02-23T10:16:56Z</time>
      </trkpt>
      <trkpt lat="41.618211690" lon="2.459745090">
        <ele>507.50</ele>
        <time>2014-02-23T10:16:57Z</time>
      </trkpt>
      <trkpt lat="41.618201800" lon="2.459780120">
        <ele>507.40</ele>
        <time>2014-02-23T10:16:58Z</time>
      </trkpt>
      <trkpt lat="41.618193420" lon="2.459820020">
        <ele>507.20</ele>
        <time>2014-02-23T10:16:59Z</time>
      </trkpt>
      <trkpt lat="41.618186710" lon="2.459860090">
        <ele>507.00</ele>
        <time>2014-02-23T10:17:00Z</time>
      </trkpt>
      <trkpt lat="41.618173470" lon="2.459901830">
        <ele>506.80</ele>
        <time>2014-02-23T10:17:01Z</time>
      </trkpt>
      <trkpt lat="41.618156710" lon="2.459943400">
        <ele>506.90</ele>
        <time>2014-02-23T10:17:02Z</time>
      </trkpt>
      <trkpt lat="41.618145140" lon="2.459988500">
        <ele>506.90</ele>
        <time>2014-02-23T10:17:03Z</time>
      </trkpt>
      <trkpt lat="41.618135080" lon="2.460038450">
        <ele>507.00</ele>
        <time>2014-02-23T10:17:04Z</time>
      </trkpt>
      <trkpt lat="41.618130050" lon="2.460085060">
        <ele>506.50</ele>
        <time>2014-02-23T10:17:05Z</time>
      </trkpt>
      <trkpt lat="41.618128380" lon="2.460128470">
        <ele>506.20</ele>
        <time>2014-02-23T10:17:06Z</time>
      </trkpt>
      <trkpt lat="41.618125020" lon="2.460170050">
        <ele>506.20</ele>
        <time>2014-02-23T10:17:07Z</time>
      </trkpt>
      <trkpt lat="41.618121670" lon="2.460215140">
        <ele>506.10</ele>
        <time>2014-02-23T10:17:08Z</time>
      </trkpt>
      <trkpt lat="41.618113460" lon="2.460260070">
        <ele>506.10</ele>
        <time>2014-02-23T10:17:09Z</time>
      </trkpt>
      <trkpt lat="41.618100050" lon="2.460306670">
        <ele>505.90</ele>
        <time>2014-02-23T10:17:10Z</time>
      </trkpt>
      <trkpt lat="41.618085130" lon="2.460355120">
        <ele>505.80</ele>
        <time>2014-02-23T10:17:11Z</time>
      </trkpt>
      <trkpt lat="41.618065010" lon="2.460403400">
        <ele>505.70</ele>
        <time>2014-02-23T10:17:12Z</time>
      </trkpt>
      <trkpt lat="41.618046740" lon="2.460455030">
        <ele>505.60</ele>
        <time>2014-02-23T10:17:13Z</time>
      </trkpt>
      <trkpt lat="41.618028460" lon="2.460508340">
        <ele>505.40</ele>
        <time>2014-02-23T10:17:14Z</time>
      </trkpt>
      <trkpt lat="41.618015050" lon="2.460565000">
        <ele>505.20</ele>
        <time>2014-02-23T10:17:15Z</time>
      </trkpt>
      <trkpt lat="41.618011700" lon="2.460608420">
        <ele>505.10</ele>
        <time>2014-02-23T10:17:16Z</time>
      </trkpt>
      <trkpt lat="41.618015050" lon="2.460648490">
        <ele>505.00</ele>
        <time>2014-02-23T10:17:17Z</time>
      </trkpt>
      <trkpt lat="41.618021760" lon="2.460685030">
        <ele>504.90</ele>
        <time>2014-02-23T10:17:18Z</time>
      </trkpt>
      <trkpt lat="41.618028460" lon="2.460713360">
        <ele>504.60</ele>
        <time>2014-02-23T10:17:19Z</time>
      </trkpt>
      <trkpt lat="41.618033490" lon="2.460736660">
        <ele>504.40</ele>
        <time>2014-02-23T10:17:20Z</time>
      </trkpt>
      <trkpt lat="41.618038360" lon="2.460761810">
        <ele>504.20</ele>
        <time>2014-02-23T10:17:21Z</time>
      </trkpt>
      <trkpt lat="41.618038360" lon="2.460793490">
        <ele>504.30</ele>
        <time>2014-02-23T10:17:22Z</time>
      </trkpt>
      <trkpt lat="41.618036680" lon="2.460830040">
        <ele>504.40</ele>
        <time>2014-02-23T10:17:23Z</time>
      </trkpt>
      <trkpt lat="41.618025110" lon="2.460863400">
        <ele>504.50</ele>
        <time>2014-02-23T10:17:24Z</time>
      </trkpt>
      <trkpt lat="41.618011700" lon="2.460893410">
        <ele>504.60</ele>
        <time>2014-02-23T10:17:25Z</time>
      </trkpt>
      <trkpt lat="41.618011700" lon="2.460926770">
        <ele>504.50</ele>
        <time>2014-02-23T10:17:26Z</time>
      </trkpt>
      <trkpt lat="41.618013380" lon="2.460956770">
        <ele>504.50</ele>
        <time>2014-02-23T10:17:27Z</time>
      </trkpt>
      <trkpt lat="41.618013380" lon="2.460981750">
        <ele>504.40</ele>
        <time>2014-02-23T10:17:28Z</time>
      </trkpt>
      <trkpt lat="41.618015050" lon="2.461010080">
        <ele>504.00</ele>
        <time>2014-02-23T10:17:29Z</time>
      </trkpt>
      <trkpt lat="41.618020080" lon="2.461043440">
        <ele>503.70</ele>
        <time>2014-02-23T10:17:30Z</time>
      </trkpt>
      <trkpt lat="41.618023440" lon="2.461076800">
        <ele>503.70</ele>
        <time>2014-02-23T10:17:31Z</time>
      </trkpt>
      <trkpt lat="41.618025110" lon="2.461103460">
        <ele>503.70</ele>
        <time>2014-02-23T10:17:32Z</time>
      </trkpt>
      <trkpt lat="41.618030140" lon="2.461126760">
        <ele>503.90</ele>
        <time>2014-02-23T10:17:33Z</time>
      </trkpt>
      <trkpt lat="41.618033490" lon="2.461146710">
        <ele>504.00</ele>
        <time>2014-02-23T10:17:34Z</time>
      </trkpt>
      <trkpt lat="41.618040030" lon="2.461166820">
        <ele>504.10</ele>
        <time>2014-02-23T10:17:35Z</time>
      </trkpt>
      <trkpt lat="41.618048410" lon="2.461188450">
        <ele>504.10</ele>
        <time>2014-02-23T10:17:36Z</time>
      </trkpt>
      <trkpt lat="41.618053440" lon="2.461211750">
        <ele>504.10</ele>
        <time>2014-02-23T10:17:37Z</time>
      </trkpt>
      <trkpt lat="41.618053440" lon="2.461240080">
        <ele>503.80</ele>
        <time>2014-02-23T10:17:38Z</time>
      </trkpt>
      <trkpt lat="41.618056800" lon="2.461266740">
        <ele>503.50</ele>
        <time>2014-02-23T10:17:39Z</time>
      </trkpt>
      <trkpt lat="41.618058470" lon="2.461296740">
        <ele>503.50</ele>
        <time>2014-02-23T10:17:40Z</time>
      </trkpt>
      <trkpt lat="41.618056800" lon="2.461333460">
        <ele>503.50</ele>
        <time>2014-02-23T10:17:41Z</time>
      </trkpt>
      <trkpt lat="41.618058470" lon="2.461388440">
        <ele>503.50</ele>
        <time>2014-02-23T10:17:42Z</time>
      </trkpt>
      <trkpt lat="41.618073390" lon="2.461448460">
        <ele>503.10</ele>
        <time>2014-02-23T10:17:43Z</time>
      </trkpt>
      <trkpt lat="41.618093340" lon="2.461511820">
        <ele>502.80</ele>
        <time>2014-02-23T10:17:44Z</time>
      </trkpt>
      <trkpt lat="41.618115130" lon="2.461578380">
        <ele>502.00</ele>
        <time>2014-02-23T10:17:45Z</time>
      </trkpt>
      <trkpt lat="41.618138430" lon="2.461648450">
        <ele>501.40</ele>
        <time>2014-02-23T10:17:46Z</time>
      </trkpt>
      <trkpt lat="41.618160060" lon="2.461723380">
        <ele>501.00</ele>
        <time>2014-02-23T10:17:47Z</time>
      </trkpt>
      <trkpt lat="41.618185040" lon="2.461798480">
        <ele>500.40</ele>
        <time>2014-02-23T10:17:48Z</time>
      </trkpt>
      <trkpt lat="41.618215050" lon="2.461873420">
        <ele>499.90</ele>
        <time>2014-02-23T10:17:49Z</time>
      </trkpt>
      <trkpt lat="41.618246730" lon="2.461938460">
        <ele>499.40</ele>
        <time>2014-02-23T10:17:50Z</time>
      </trkpt>
      <trkpt lat="41.618280090" lon="2.461991770">
        <ele>499.10</ele>
        <time>2014-02-23T10:17:51Z</time>
      </trkpt>
      <trkpt lat="41.618311770" lon="2.462036700">
        <ele>498.90</ele>
        <time>2014-02-23T10:17:52Z</time>
      </trkpt>
      <trkpt lat="41.618340100" lon="2.462073410">
        <ele>498.70</ele>
        <time>2014-02-23T10:17:53Z</time>
      </trkpt>
      <trkpt lat="41.618358380" lon="2.462111800">
        <ele>498.60</ele>
        <time>2014-02-23T10:17:54Z</time>
      </trkpt>
      <trkpt lat="41.618380000" lon="2.462153370">
        <ele>497.90</ele>
        <time>2014-02-23T10:17:55Z</time>
      </trkpt>
      <trkpt lat="41.618410010" lon="2.462190090">
        <ele>497.40</ele>
        <time>2014-02-23T10:17:56Z</time>
      </trkpt>
      <trkpt lat="41.618441690" lon="2.462223450">
        <ele>497.30</ele>
        <time>2014-02-23T10:17:57Z</time>
      </trkpt>
      <trkpt lat="41.618471700" lon="2.462256810">
        <ele>497.30</ele>
        <time>2014-02-23T10:17:58Z</time>
      </trkpt>
      <trkpt lat="41.618500030" lon="2.462291680">
        <ele>497.00</ele>
        <time>2014-02-23T10:17:59Z</time>
      </trkpt>
      <trkpt lat="41.618523330" lon="2.462333420">
        <ele>496.80</ele>
        <time>2014-02-23T10:18:00Z</time>
      </trkpt>
      <trkpt lat="41.618541770" lon="2.462385050">
        <ele>496.60</ele>
        <time>2014-02-23T10:18:01Z</time>
      </trkpt>
      <trkpt lat="41.618558370" lon="2.462443390">
        <ele>496.40</ele>
        <time>2014-02-23T10:18:02Z</time>
      </trkpt>
      <trkpt lat="41.618580160" lon="2.462503400">
        <ele>496.20</ele>
        <time>2014-02-23T10:18:03Z</time>
      </trkpt>
      <trkpt lat="41.618601790" lon="2.462566770">
        <ele>496.20</ele>
        <time>2014-02-23T10:18:04Z</time>
      </trkpt>
      <trkpt lat="41.618621740" lon="2.462631810">
        <ele>496.10</ele>
        <time>2014-02-23T10:18:05Z</time>
      </trkpt>
      <trkpt lat="41.618635150" lon="2.462700040">
        <ele>496.10</ele>
        <time>2014-02-23T10:18:06Z</time>
      </trkpt>
      <trkpt lat="41.618641680" lon="2.462770110">
        <ele>495.70</ele>
        <time>2014-02-23T10:18:07Z</time>
      </trkpt>
      <trkpt lat="41.618636820" lon="2.462843370">
        <ele>495.40</ele>
        <time>2014-02-23T10:18:08Z</time>
      </trkpt>
      <trkpt lat="41.618626760" lon="2.462911770">
        <ele>495.20</ele>
        <time>2014-02-23T10:18:09Z</time>
      </trkpt>
      <trkpt lat="41.618611680" lon="2.462978490">
        <ele>495.00</ele>
        <time>2014-02-23T10:18:10Z</time>
      </trkpt>
      <trkpt lat="41.618595080" lon="2.463040010">
        <ele>494.70</ele>
        <time>2014-02-23T10:18:11Z</time>
      </trkpt>
      <trkpt lat="41.618578480" lon="2.463101700">
        <ele>494.60</ele>
        <time>2014-02-23T10:18:12Z</time>
      </trkpt>
      <trkpt lat="41.618561720" lon="2.463158360">
        <ele>494.40</ele>
        <time>2014-02-23T10:18:13Z</time>
      </trkpt>
      <trkpt lat="41.618546800" lon="2.463213350">
        <ele>494.30</ele>
        <time>2014-02-23T10:18:14Z</time>
      </trkpt>
      <trkpt lat="41.618535070" lon="2.463265150">
        <ele>494.20</ele>
        <time>2014-02-23T10:18:15Z</time>
      </trkpt>
      <trkpt lat="41.618528360" lon="2.463313430">
        <ele>494.00</ele>
        <time>2014-02-23T10:18:16Z</time>
      </trkpt>
      <trkpt lat="41.618523330" lon="2.463356680">
        <ele>493.80</ele>
        <time>2014-02-23T10:18:17Z</time>
      </trkpt>
      <trkpt lat="41.618521820" lon="2.463398420">
        <ele>493.90</ele>
        <time>2014-02-23T10:18:18Z</time>
      </trkpt>
      <trkpt lat="41.618525010" lon="2.463438490">
        <ele>494.00</ele>
        <time>2014-02-23T10:18:19Z</time>
      </trkpt>
      <trkpt lat="41.618531710" lon="2.463476710">
        <ele>494.00</ele>
        <time>2014-02-23T10:18:20Z</time>
      </trkpt>
      <trkpt lat="41.618545120" lon="2.463513420">
        <ele>494.10</ele>
        <time>2014-02-23T10:18:21Z</time>
      </trkpt>
      <trkpt lat="41.618558370" lon="2.463546780">
        <ele>494.20</ele>
        <time>2014-02-23T10:18:22Z</time>
      </trkpt>
      <trkpt lat="41.618570100" lon="2.463578470">
        <ele>494.70</ele>
        <time>2014-02-23T10:18:23Z</time>
      </trkpt>
      <trkpt lat="41.618580160" lon="2.463610150">
        <ele>495.10</ele>
        <time>2014-02-23T10:18:24Z</time>
      </trkpt>
      <trkpt lat="41.618593400" lon="2.463641660">
        <ele>495.40</ele>
        <time>2014-02-23T10:18:25Z</time>
      </trkpt>
      <trkpt lat="41.618606820" lon="2.463675020">
        <ele>495.60</ele>
        <time>2014-02-23T10:18:26Z</time>
      </trkpt>
      <trkpt lat="41.618620060" lon="2.463710060">
        <ele>495.70</ele>
        <time>2014-02-23T10:18:27Z</time>
      </trkpt>
      <trkpt lat="41.618630120" lon="2.463740070">
        <ele>496.10</ele>
        <time>2014-02-23T10:18:28Z</time>
      </trkpt>
      <trkpt lat="41.618638330" lon="2.463770080">
        <ele>496.40</ele>
        <time>2014-02-23T10:18:29Z</time>
      </trkpt>
      <trkpt lat="41.618641680" lon="2.463800080">
        <ele>496.90</ele>
        <time>2014-02-23T10:18:30Z</time>
      </trkpt>
      <trkpt lat="41.618648390" lon="2.463826740">
        <ele>497.20</ele>
        <time>2014-02-23T10:18:31Z</time>
      </trkpt>
      <trkpt lat="41.618650070" lon="2.463856740">
        <ele>497.40</ele>
        <time>2014-02-23T10:18:32Z</time>
      </trkpt>
      <trkpt lat="41.618651740" lon="2.463888430">
        <ele>497.50</ele>
        <time>2014-02-23T10:18:33Z</time>
      </trkpt>
      <trkpt lat="41.618651740" lon="2.463923460">
        <ele>497.50</ele>
        <time>2014-02-23T10:18:34Z</time>
      </trkpt>
      <trkpt lat="41.618646710" lon="2.463960010">
        <ele>498.10</ele>
        <time>2014-02-23T10:18:35Z</time>
      </trkpt>
      <trkpt lat="41.618645040" lon="2.463996720">
        <ele>498.60</ele>
        <time>2014-02-23T10:18:36Z</time>
      </trkpt>
      <trkpt lat="41.618643360" lon="2.464033430">
        <ele>498.80</ele>
        <time>2014-02-23T10:18:37Z</time>
      </trkpt>
      <trkpt lat="41.618643360" lon="2.464070150">
        <ele>498.90</ele>
        <time>2014-02-23T10:18:38Z</time>
      </trkpt>
      <trkpt lat="41.618645040" lon="2.464106690">
        <ele>499.00</ele>
        <time>2014-02-23T10:18:39Z</time>
      </trkpt>
      <trkpt lat="41.618648390" lon="2.464145080">
        <ele>499.00</ele>
        <time>2014-02-23T10:18:40Z</time>
      </trkpt>
      <trkpt lat="41.618653420" lon="2.464186820">
        <ele>499.10</ele>
        <time>2014-02-23T10:18:41Z</time>
      </trkpt>
      <trkpt lat="41.618660120" lon="2.464228400">
        <ele>499.10</ele>
        <time>2014-02-23T10:18:42Z</time>
      </trkpt>
      <trkpt lat="41.618666660" lon="2.464271820">
        <ele>499.00</ele>
        <time>2014-02-23T10:18:43Z</time>
      </trkpt>
      <trkpt lat="41.618668340" lon="2.464311710">
        <ele>499.00</ele>
        <time>2014-02-23T10:18:44Z</time>
      </trkpt>
      <trkpt lat="41.618671690" lon="2.464346750">
        <ele>498.30</ele>
        <time>2014-02-23T10:18:45Z</time>
      </trkpt>
      <trkpt lat="41.618678400" lon="2.464381790">
        <ele>497.80</ele>
        <time>2014-02-23T10:18:46Z</time>
      </trkpt>
      <trkpt lat="41.618685100" lon="2.464418330">
        <ele>498.40</ele>
        <time>2014-02-23T10:18:47Z</time>
      </trkpt>
      <trkpt lat="41.618691810" lon="2.464455040">
        <ele>498.90</ele>
        <time>2014-02-23T10:18:48Z</time>
      </trkpt>
      <trkpt lat="41.618700020" lon="2.464490080">
        <ele>498.90</ele>
        <time>2014-02-23T10:18:49Z</time>
      </trkpt>
      <trkpt lat="41.618708400" lon="2.464523440">
        <ele>498.90</ele>
        <time>2014-02-23T10:18:50Z</time>
      </trkpt>
      <trkpt lat="41.618716790" lon="2.464556800">
        <ele>499.00</ele>
        <time>2014-02-23T10:18:51Z</time>
      </trkpt>
      <trkpt lat="41.618726680" lon="2.464590160">
        <ele>499.10</ele>
        <time>2014-02-23T10:18:52Z</time>
      </trkpt>
      <trkpt lat="41.618736740" lon="2.464620000">
        <ele>499.30</ele>
        <time>2014-02-23T10:18:53Z</time>
      </trkpt>
      <trkpt lat="41.618746790" lon="2.464651680">
        <ele>499.40</ele>
        <time>2014-02-23T10:18:54Z</time>
      </trkpt>
      <trkpt lat="41.618758360" lon="2.464683370">
        <ele>499.50</ele>
        <time>2014-02-23T10:18:55Z</time>
      </trkpt>
      <trkpt lat="41.618768420" lon="2.464711700">
        <ele>499.70</ele>
        <time>2014-02-23T10:18:56Z</time>
      </trkpt>
      <trkpt lat="41.618776800" lon="2.464741710">
        <ele>499.90</ele>
        <time>2014-02-23T10:18:57Z</time>
      </trkpt>
      <trkpt lat="41.618786690" lon="2.464768360">
        <ele>500.00</ele>
        <time>2014-02-23T10:18:58Z</time>
      </trkpt>
      <trkpt lat="41.618796750" lon="2.464796690">
        <ele>500.00</ele>
        <time>2014-02-23T10:18:59Z</time>
      </trkpt>
      <trkpt lat="41.618805130" lon="2.464826700">
        <ele>500.00</ele>
        <time>2014-02-23T10:19:00Z</time>
      </trkpt>
      <trkpt lat="41.618815020" lon="2.464858380">
        <ele>500.00</ele>
        <time>2014-02-23T10:19:01Z</time>
      </trkpt>
      <trkpt lat="41.618823400" lon="2.464896770">
        <ele>500.10</ele>
        <time>2014-02-23T10:19:02Z</time>
      </trkpt>
      <trkpt lat="41.618836820" lon="2.464935160">
        <ele>500.10</ele>
        <time>2014-02-23T10:19:03Z</time>
      </trkpt>
      <trkpt lat="41.618850060" lon="2.464975060">
        <ele>500.20</ele>
        <time>2014-02-23T10:19:04Z</time>
      </trkpt>
      <trkpt lat="41.618860120" lon="2.465005060">
        <ele>500.20</ele>
        <time>2014-02-23T10:19:05Z</time>
      </trkpt>
      <trkpt lat="41.618868330" lon="2.465030040">
        <ele>500.00</ele>
        <time>2014-02-23T10:19:06Z</time>
      </trkpt>
      <trkpt lat="41.618880070" lon="2.465056700">
        <ele>499.80</ele>
        <time>2014-02-23T10:19:07Z</time>
      </trkpt>
      <trkpt lat="41.618895150" lon="2.465088380">
        <ele>499.90</ele>
        <time>2014-02-23T10:19:08Z</time>
      </trkpt>
      <trkpt lat="41.618910070" lon="2.465125090">
        <ele>499.90</ele>
        <time>2014-02-23T10:19:09Z</time>
      </trkpt>
      <trkpt lat="41.618923480" lon="2.465161810">
        <ele>499.90</ele>
        <time>2014-02-23T10:19:10Z</time>
      </trkpt>
      <trkpt lat="41.618936730" lon="2.465196680">
        <ele>499.50</ele>
        <time>2014-02-23T10:19:11Z</time>
      </trkpt>
      <trkpt lat="41.618948460" lon="2.465228360">
        <ele>499.30</ele>
        <time>2014-02-23T10:19:12Z</time>
      </trkpt>
      <trkpt lat="41.618958350" lon="2.465258370">
        <ele>499.20</ele>
        <time>2014-02-23T10:19:13Z</time>
      </trkpt>
      <trkpt lat="41.618971760" lon="2.465286700">
        <ele>499.20</ele>
        <time>2014-02-23T10:19:14Z</time>
      </trkpt>
      <trkpt lat="41.618983330" lon="2.465316700">
        <ele>499.30</ele>
        <time>2014-02-23T10:19:15Z</time>
      </trkpt>
      <trkpt lat="41.618995070" lon="2.465346710">
        <ele>499.50</ele>
        <time>2014-02-23T10:19:16Z</time>
      </trkpt>
      <trkpt lat="41.619005120" lon="2.465375040">
        <ele>499.60</ele>
        <time>2014-02-23T10:19:17Z</time>
      </trkpt>
      <trkpt lat="41.619013340" lon="2.465403370">
        <ele>499.70</ele>
        <time>2014-02-23T10:19:18Z</time>
      </trkpt>
      <trkpt lat="41.619021720" lon="2.465431700">
        <ele>499.70</ele>
        <time>2014-02-23T10:19:19Z</time>
      </trkpt>
      <trkpt lat="41.619026750" lon="2.465456680">
        <ele>499.90</ele>
        <time>2014-02-23T10:19:20Z</time>
      </trkpt>
      <trkpt lat="41.619031780" lon="2.465485010">
        <ele>500.00</ele>
        <time>2014-02-23T10:19:21Z</time>
      </trkpt>
      <trkpt lat="41.619036810" lon="2.465510160">
        <ele>499.90</ele>
        <time>2014-02-23T10:19:22Z</time>
      </trkpt>
      <trkpt lat="41.619040160" lon="2.465540000">
        <ele>499.90</ele>
        <time>2014-02-23T10:19:23Z</time>
      </trkpt>
      <trkpt lat="41.619041670" lon="2.465573360">
        <ele>499.90</ele>
        <time>2014-02-23T10:19:24Z</time>
      </trkpt>
      <trkpt lat="41.619041670" lon="2.465606720">
        <ele>500.30</ele>
        <time>2014-02-23T10:19:25Z</time>
      </trkpt>
      <trkpt lat="41.619043350" lon="2.465636730">
        <ele>500.60</ele>
        <time>2014-02-23T10:19:26Z</time>
      </trkpt>
      <trkpt lat="41.619043350" lon="2.465666730">
        <ele>500.70</ele>
        <time>2014-02-23T10:19:27Z</time>
      </trkpt>
      <trkpt lat="41.619036810" lon="2.465700090">
        <ele>500.80</ele>
        <time>2014-02-23T10:19:28Z</time>
      </trkpt>
      <trkpt lat="41.619028430" lon="2.465731780">
        <ele>500.90</ele>
        <time>2014-02-23T10:19:29Z</time>
      </trkpt>
      <trkpt lat="41.619015010" lon="2.465765140">
        <ele>501.20</ele>
        <time>2014-02-23T10:19:30Z</time>
      </trkpt>
      <trkpt lat="41.619001770" lon="2.465795140">
        <ele>501.40</ele>
        <time>2014-02-23T10:19:31Z</time>
      </trkpt>
      <trkpt lat="41.618990040" lon="2.465826830">
        <ele>501.80</ele>
        <time>2014-02-23T10:19:32Z</time>
      </trkpt>
      <trkpt lat="41.618978470" lon="2.465856670">
        <ele>502.10</ele>
        <time>2014-02-23T10:19:33Z</time>
      </trkpt>
      <trkpt lat="41.618968410" lon="2.465893380">
        <ele>501.90</ele>
        <time>2014-02-23T10:19:34Z</time>
      </trkpt>
      <trkpt lat="41.618965060" lon="2.465935120">
        <ele>501.80</ele>
        <time>2014-02-23T10:19:35Z</time>
      </trkpt>
      <trkpt lat="41.618963380" lon="2.465988430">
        <ele>501.70</ele>
        <time>2014-02-23T10:19:36Z</time>
      </trkpt>
      <trkpt lat="41.618965060" lon="2.466041740">
        <ele>501.60</ele>
        <time>2014-02-23T10:19:37Z</time>
      </trkpt>
      <trkpt lat="41.618975120" lon="2.466086670">
        <ele>501.50</ele>
        <time>2014-02-23T10:19:38Z</time>
      </trkpt>
      <trkpt lat="41.618986680" lon="2.466133440">
        <ele>500.60</ele>
        <time>2014-02-23T10:19:39Z</time>
      </trkpt>
      <trkpt lat="41.619003450" lon="2.466175010">
        <ele>500.00</ele>
        <time>2014-02-23T10:19:40Z</time>
      </trkpt>
      <trkpt lat="41.619021720" lon="2.466220110">
        <ele>499.60</ele>
        <time>2014-02-23T10:19:41Z</time>
      </trkpt>
      <trkpt lat="41.619036810" lon="2.466265030">
        <ele>499.70</ele>
        <time>2014-02-23T10:19:42Z</time>
      </trkpt>
      <trkpt lat="41.619048370" lon="2.466308450">
        <ele>499.90</ele>
        <time>2014-02-23T10:19:43Z</time>
      </trkpt>
      <trkpt lat="41.619061790" lon="2.466350030">
        <ele>499.80</ele>
        <time>2014-02-23T10:19:44Z</time>
      </trkpt>
      <trkpt lat="41.619076710" lon="2.466390090">
        <ele>499.80</ele>
        <time>2014-02-23T10:19:45Z</time>
      </trkpt>
      <trkpt lat="41.619086760" lon="2.466431660">
        <ele>499.70</ele>
        <time>2014-02-23T10:19:46Z</time>
      </trkpt>
      <trkpt lat="41.619096820" lon="2.466476760">
        <ele>499.70</ele>
        <time>2014-02-23T10:19:47Z</time>
      </trkpt>
      <trkpt lat="41.619101680" lon="2.466521690">
        <ele>499.70</ele>
        <time>2014-02-23T10:19:48Z</time>
      </trkpt>
      <trkpt lat="41.619108390" lon="2.466565100">
        <ele>500.10</ele>
        <time>2014-02-23T10:19:49Z</time>
      </trkpt>
      <trkpt lat="41.619116770" lon="2.466605000">
        <ele>500.40</ele>
        <time>2014-02-23T10:19:50Z</time>
      </trkpt>
      <trkpt lat="41.619121800" lon="2.466645070">
        <ele>500.10</ele>
        <time>2014-02-23T10:19:51Z</time>
      </trkpt>
      <trkpt lat="41.619125150" lon="2.466681780">
        <ele>500.00</ele>
        <time>2014-02-23T10:19:52Z</time>
      </trkpt>
      <trkpt lat="41.619131690" lon="2.466715140">
        <ele>499.90</ele>
        <time>2014-02-23T10:19:53Z</time>
      </trkpt>
      <trkpt lat="41.619136720" lon="2.466746820">
        <ele>499.80</ele>
        <time>2014-02-23T10:19:54Z</time>
      </trkpt>
      <trkpt lat="41.619140070" lon="2.466781690">
        <ele>499.80</ele>
        <time>2014-02-23T10:19:55Z</time>
      </trkpt>
      <trkpt lat="41.619145100" lon="2.466813380">
        <ele>500.40</ele>
        <time>2014-02-23T10:19:56Z</time>
      </trkpt>
      <trkpt lat="41.619150130" lon="2.466846740">
        <ele>500.90</ele>
        <time>2014-02-23T10:19:57Z</time>
      </trkpt>
      <trkpt lat="41.619155160" lon="2.466881770">
        <ele>501.10</ele>
        <time>2014-02-23T10:19:58Z</time>
      </trkpt>
      <trkpt lat="41.619161700" lon="2.466921670">
        <ele>501.20</ele>
        <time>2014-02-23T10:19:59Z</time>
      </trkpt>
      <trkpt lat="41.619166730" lon="2.466958380">
        <ele>501.30</ele>
        <time>2014-02-23T10:20:00Z</time>
      </trkpt>
      <trkpt lat="41.619170080" lon="2.467003480">
        <ele>501.80</ele>
        <time>2014-02-23T10:20:01Z</time>
      </trkpt>
      <trkpt lat="41.619171760" lon="2.467048410">
        <ele>502.20</ele>
        <time>2014-02-23T10:20:02Z</time>
      </trkpt>
      <trkpt lat="41.619173430" lon="2.467093330">
        <ele>501.90</ele>
        <time>2014-02-23T10:20:03Z</time>
      </trkpt>
      <trkpt lat="41.619173430" lon="2.467136750">
        <ele>501.70</ele>
        <time>2014-02-23T10:20:04Z</time>
      </trkpt>
      <trkpt lat="41.619168400" lon="2.467178490">
        <ele>501.40</ele>
        <time>2014-02-23T10:20:05Z</time>
      </trkpt>
      <trkpt lat="41.619165050" lon="2.467225100">
        <ele>501.20</ele>
        <time>2014-02-23T10:20:06Z</time>
      </trkpt>
      <trkpt lat="41.619168400" lon="2.467275050">
        <ele>501.10</ele>
        <time>2014-02-23T10:20:07Z</time>
      </trkpt>
      <trkpt lat="41.619173430" lon="2.467333390">
        <ele>500.50</ele>
        <time>2014-02-23T10:20:08Z</time>
      </trkpt>
      <trkpt lat="41.619185000" lon="2.467396760">
        <ele>500.00</ele>
        <time>2014-02-23T10:20:09Z</time>
      </trkpt>
      <trkpt lat="41.619196730" lon="2.467460120">
        <ele>499.30</ele>
        <time>2014-02-23T10:20:10Z</time>
      </trkpt>
      <trkpt lat="41.619208470" lon="2.467518460">
        <ele>498.80</ele>
        <time>2014-02-23T10:20:11Z</time>
      </trkpt>
      <trkpt lat="41.619213330" lon="2.467571770">
        <ele>498.40</ele>
        <time>2014-02-23T10:20:12Z</time>
      </trkpt>
      <trkpt lat="41.619213330" lon="2.467628430">
        <ele>498.10</ele>
        <time>2014-02-23T10:20:13Z</time>
      </trkpt>
      <trkpt lat="41.619206790" lon="2.467685090">
        <ele>497.90</ele>
        <time>2014-02-23T10:20:14Z</time>
      </trkpt>
      <trkpt lat="41.619200090" lon="2.467738400">
        <ele>497.70</ele>
        <time>2014-02-23T10:20:15Z</time>
      </trkpt>
      <trkpt lat="41.619198410" lon="2.467795070">
        <ele>497.60</ele>
        <time>2014-02-23T10:20:16Z</time>
      </trkpt>
      <trkpt lat="41.619200090" lon="2.467845020">
        <ele>497.30</ele>
        <time>2014-02-23T10:20:17Z</time>
      </trkpt>
      <trkpt lat="41.619200090" lon="2.467895150">
        <ele>497.10</ele>
        <time>2014-02-23T10:20:18Z</time>
      </trkpt>
      <trkpt lat="41.619201760" lon="2.467943420">
        <ele>497.10</ele>
        <time>2014-02-23T10:20:19Z</time>
      </trkpt>
      <trkpt lat="41.619206790" lon="2.467988350">
        <ele>497.10</ele>
        <time>2014-02-23T10:20:20Z</time>
      </trkpt>
      <trkpt lat="41.619211820" lon="2.468030090">
        <ele>497.10</ele>
        <time>2014-02-23T10:20:21Z</time>
      </trkpt>
      <trkpt lat="41.619218360" lon="2.468068480">
        <ele>497.30</ele>
        <time>2014-02-23T10:20:22Z</time>
      </trkpt>
      <trkpt lat="41.619225060" lon="2.468108380">
        <ele>497.40</ele>
        <time>2014-02-23T10:20:23Z</time>
      </trkpt>
      <trkpt lat="41.619228420" lon="2.468153480">
        <ele>497.60</ele>
        <time>2014-02-23T10:20:24Z</time>
      </trkpt>
      <trkpt lat="41.619231770" lon="2.468198400">
        <ele>497.80</ele>
        <time>2014-02-23T10:20:25Z</time>
      </trkpt>
      <trkpt lat="41.619240150" lon="2.468241820">
        <ele>497.90</ele>
        <time>2014-02-23T10:20:26Z</time>
      </trkpt>
      <trkpt lat="41.619253400" lon="2.468285070">
        <ele>497.70</ele>
        <time>2014-02-23T10:20:27Z</time>
      </trkpt>
      <trkpt lat="41.619271670" lon="2.468336700">
        <ele>497.60</ele>
        <time>2014-02-23T10:20:28Z</time>
      </trkpt>
      <trkpt lat="41.619280050" lon="2.468376770">
        <ele>497.70</ele>
        <time>2014-02-23T10:20:29Z</time>
      </trkpt>
      <trkpt lat="41.619281730" lon="2.468406780">
        <ele>497.80</ele>
        <time>2014-02-23T10:20:30Z</time>
      </trkpt>
      <trkpt lat="41.619281730" lon="2.468443490">
        <ele>498.30</ele>
        <time>2014-02-23T10:20:31Z</time>
      </trkpt>
      <trkpt lat="41.619281730" lon="2.468483390">
        <ele>498.70</ele>
        <time>2014-02-23T10:20:32Z</time>
      </trkpt>
      <trkpt lat="41.619280050" lon="2.468523450">
        <ele>499.00</ele>
        <time>2014-02-23T10:20:33Z</time>
      </trkpt>
      <trkpt lat="41.619278370" lon="2.468566700">
        <ele>499.10</ele>
        <time>2014-02-23T10:20:34Z</time>
      </trkpt>
      <trkpt lat="41.619278370" lon="2.468606770">
        <ele>499.20</ele>
        <time>2014-02-23T10:20:35Z</time>
      </trkpt>
      <trkpt lat="41.619281730" lon="2.468645160">
        <ele>499.40</ele>
        <time>2014-02-23T10:20:36Z</time>
      </trkpt>
      <trkpt lat="41.619286760" lon="2.468680030">
        <ele>499.60</ele>
        <time>2014-02-23T10:20:37Z</time>
      </trkpt>
      <trkpt lat="41.619291780" lon="2.468713390">
        <ele>499.30</ele>
        <time>2014-02-23T10:20:38Z</time>
      </trkpt>
      <trkpt lat="41.619293460" lon="2.468748420">
        <ele>499.10</ele>
        <time>2014-02-23T10:20:39Z</time>
      </trkpt>
      <trkpt lat="41.619295140" lon="2.468778430">
        <ele>499.00</ele>
        <time>2014-02-23T10:20:40Z</time>
      </trkpt>
      <trkpt lat="41.619290110" lon="2.468805080">
        <ele>499.50</ele>
        <time>2014-02-23T10:20:41Z</time>
      </trkpt>
      <trkpt lat="41.619280050" lon="2.468830060">
        <ele>499.90</ele>
        <time>2014-02-23T10:20:42Z</time>
      </trkpt>
      <trkpt lat="41.619270160" lon="2.468860070">
        <ele>500.10</ele>
        <time>2014-02-23T10:20:43Z</time>
      </trkpt>
      <trkpt lat="41.619256750" lon="2.468886720">
        <ele>500.30</ele>
        <time>2014-02-23T10:20:44Z</time>
      </trkpt>
      <trkpt lat="41.619243340" lon="2.468915060">
        <ele>500.40</ele>
        <time>2014-02-23T10:20:45Z</time>
      </trkpt>
      <trkpt lat="41.619230090" lon="2.468941710">
        <ele>500.60</ele>
        <time>2014-02-23T10:20:46Z</time>
      </trkpt>
      <trkpt lat="41.619218360" lon="2.468970040">
        <ele>500.70</ele>
        <time>2014-02-23T10:20:47Z</time>
      </trkpt>
      <trkpt lat="41.619206790" lon="2.469001720">
        <ele>500.70</ele>
        <time>2014-02-23T10:20:48Z</time>
      </trkpt>
      <trkpt lat="41.619200090" lon="2.469033410">
        <ele>500.70</ele>
        <time>2014-02-23T10:20:49Z</time>
      </trkpt>
      <trkpt lat="41.619191700" lon="2.469065090">
        <ele>500.70</ele>
        <time>2014-02-23T10:20:50Z</time>
      </trkpt>
      <trkpt lat="41.619186680" lon="2.469098450">
        <ele>500.70</ele>
        <time>2014-02-23T10:20:51Z</time>
      </trkpt>
      <trkpt lat="41.619181810" lon="2.469131810">
        <ele>500.70</ele>
        <time>2014-02-23T10:20:52Z</time>
      </trkpt>
      <trkpt lat="41.619180140" lon="2.469166680">
        <ele>500.50</ele>
        <time>2014-02-23T10:20:53Z</time>
      </trkpt>
      <trkpt lat="41.619175110" lon="2.469200040">
        <ele>500.40</ele>
        <time>2014-02-23T10:20:54Z</time>
      </trkpt>
      <trkpt lat="41.619171760" lon="2.469233400">
        <ele>500.80</ele>
        <time>2014-02-23T10:20:55Z</time>
      </trkpt>
      <trkpt lat="41.619168400" lon="2.469265080">
        <ele>501.10</ele>
        <time>2014-02-23T10:20:56Z</time>
      </trkpt>
      <trkpt lat="41.619168400" lon="2.469295090">
        <ele>501.20</ele>
        <time>2014-02-23T10:20:57Z</time>
      </trkpt>
      <trkpt lat="41.619168400" lon="2.469328450">
        <ele>501.40</ele>
        <time>2014-02-23T10:20:58Z</time>
      </trkpt>
      <trkpt lat="41.619168400" lon="2.469363490">
        <ele>501.50</ele>
        <time>2014-02-23T10:20:59Z</time>
      </trkpt>
      <trkpt lat="41.619165050" lon="2.469395000">
        <ele>501.50</ele>
        <time>2014-02-23T10:21:00Z</time>
      </trkpt>
      <trkpt lat="41.619165050" lon="2.469428360">
        <ele>501.50</ele>
        <time>2014-02-23T10:21:01Z</time>
      </trkpt>
      <trkpt lat="41.619165050" lon="2.469460050">
        <ele>501.60</ele>
        <time>2014-02-23T10:21:02Z</time>
      </trkpt>
      <trkpt lat="41.619166730" lon="2.469491730">
        <ele>501.80</ele>
        <time>2014-02-23T10:21:03Z</time>
      </trkpt>
      <trkpt lat="41.619171760" lon="2.469518380">
        <ele>501.80</ele>
        <time>2014-02-23T10:21:04Z</time>
      </trkpt>
      <trkpt lat="41.619170080" lon="2.469546720">
        <ele>502.20</ele>
        <time>2014-02-23T10:21:05Z</time>
      </trkpt>
      <trkpt lat="41.619170080" lon="2.469575050">
        <ele>502.50</ele>
        <time>2014-02-23T10:21:06Z</time>
      </trkpt>
      <trkpt lat="41.619171760" lon="2.469605050">
        <ele>502.60</ele>
        <time>2014-02-23T10:21:07Z</time>
      </trkpt>
      <trkpt lat="41.619175110" lon="2.469636740">
        <ele>502.70</ele>
        <time>2014-02-23T10:21:08Z</time>
      </trkpt>
      <trkpt lat="41.619178460" lon="2.469668420">
        <ele>502.70</ele>
        <time>2014-02-23T10:21:09Z</time>
      </trkpt>
      <trkpt lat="41.619180140" lon="2.469698430">
        <ele>502.70</ele>
        <time>2014-02-23T10:21:10Z</time>
      </trkpt>
      <trkpt lat="41.619186680" lon="2.469728440">
        <ele>502.70</ele>
        <time>2014-02-23T10:21:11Z</time>
      </trkpt>
      <trkpt lat="41.619193380" lon="2.469753410">
        <ele>502.50</ele>
        <time>2014-02-23T10:21:12Z</time>
      </trkpt>
      <trkpt lat="41.619193380" lon="2.469781740">
        <ele>502.30</ele>
        <time>2014-02-23T10:21:13Z</time>
      </trkpt>
      <trkpt lat="41.619188350" lon="2.469813430">
        <ele>502.70</ele>
        <time>2014-02-23T10:21:14Z</time>
      </trkpt>
      <trkpt lat="41.619185000" lon="2.469843430">
        <ele>503.00</ele>
        <time>2014-02-23T10:21:15Z</time>
      </trkpt>
      <trkpt lat="41.619183490" lon="2.469873440">
        <ele>503.30</ele>
        <time>2014-02-23T10:21:16Z</time>
      </trkpt>
      <trkpt lat="41.619183490" lon="2.469903450">
        <ele>503.60</ele>
        <time>2014-02-23T10:21:17Z</time>
      </trkpt>
      <trkpt lat="41.619180140" lon="2.469935130">
        <ele>503.80</ele>
        <time>2014-02-23T10:21:18Z</time>
      </trkpt>
      <trkpt lat="41.619176790" lon="2.469966820">
        <ele>503.80</ele>
        <time>2014-02-23T10:21:19Z</time>
      </trkpt>
      <trkpt lat="41.619173430" lon="2.469995150">
        <ele>503.90</ele>
        <time>2014-02-23T10:21:20Z</time>
      </trkpt>
      <trkpt lat="41.619170080" lon="2.470025150">
        <ele>504.30</ele>
        <time>2014-02-23T10:21:21Z</time>
      </trkpt>
      <trkpt lat="41.619165050" lon="2.470055160">
        <ele>504.50</ele>
        <time>2014-02-23T10:21:22Z</time>
      </trkpt>
      <trkpt lat="41.619163370" lon="2.470088350">
        <ele>504.80</ele>
        <time>2014-02-23T10:21:23Z</time>
      </trkpt>
      <trkpt lat="41.619161700" lon="2.470120040">
        <ele>504.90</ele>
        <time>2014-02-23T10:21:24Z</time>
      </trkpt>
      <trkpt lat="41.619160020" lon="2.470151720">
        <ele>505.10</ele>
        <time>2014-02-23T10:21:25Z</time>
      </trkpt>
      <trkpt lat="41.619160020" lon="2.470183400">
        <ele>505.40</ele>
        <time>2014-02-23T10:21:26Z</time>
      </trkpt>
      <trkpt lat="41.619163370" lon="2.470215090">
        <ele>505.60</ele>
        <time>2014-02-23T10:21:27Z</time>
      </trkpt>
      <trkpt lat="41.619166730" lon="2.470250120">
        <ele>505.70</ele>
        <time>2014-02-23T10:21:28Z</time>
      </trkpt>
      <trkpt lat="41.619173430" lon="2.470286670">
        <ele>505.80</ele>
        <time>2014-02-23T10:21:29Z</time>
      </trkpt>
      <trkpt lat="41.619185000" lon="2.470323380">
        <ele>505.90</ele>
        <time>2014-02-23T10:21:30Z</time>
      </trkpt>
      <trkpt lat="41.619196730" lon="2.470360100">
        <ele>505.70</ele>
        <time>2014-02-23T10:21:31Z</time>
      </trkpt>
      <trkpt lat="41.619211820" lon="2.470395130">
        <ele>505.50</ele>
        <time>2014-02-23T10:21:32Z</time>
      </trkpt>
      <trkpt lat="41.619230090" lon="2.470426820">
        <ele>505.30</ele>
        <time>2014-02-23T10:21:33Z</time>
      </trkpt>
      <trkpt lat="41.619256750" lon="2.470453470">
        <ele>505.20</ele>
        <time>2014-02-23T10:21:34Z</time>
      </trkpt>
      <trkpt lat="41.619283400" lon="2.470481800">
        <ele>504.80</ele>
        <time>2014-02-23T10:21:35Z</time>
      </trkpt>
      <trkpt lat="41.619313410" lon="2.470503430">
        <ele>504.40</ele>
        <time>2014-02-23T10:21:36Z</time>
      </trkpt>
      <trkpt lat="41.619345090" lon="2.470521700">
        <ele>504.20</ele>
        <time>2014-02-23T10:21:37Z</time>
      </trkpt>
      <trkpt lat="41.619373420" lon="2.470541810">
        <ele>503.80</ele>
        <time>2014-02-23T10:21:38Z</time>
      </trkpt>
      <trkpt lat="41.619393370" lon="2.470563440">
        <ele>503.60</ele>
        <time>2014-02-23T10:21:39Z</time>
      </trkpt>
      <trkpt lat="41.619406780" lon="2.470590090">
        <ele>503.20</ele>
        <time>2014-02-23T10:21:40Z</time>
      </trkpt>
      <trkpt lat="41.619411810" lon="2.470615070">
        <ele>502.90</ele>
        <time>2014-02-23T10:21:41Z</time>
      </trkpt>
      <trkpt lat="41.619411810" lon="2.470648430">
        <ele>502.70</ele>
        <time>2014-02-23T10:21:42Z</time>
      </trkpt>
      <trkpt lat="41.619410140" lon="2.470693360">
        <ele>502.60</ele>
        <time>2014-02-23T10:21:43Z</time>
      </trkpt>
      <trkpt lat="41.619405110" lon="2.470741810">
        <ele>502.50</ele>
        <time>2014-02-23T10:21:44Z</time>
      </trkpt>
      <trkpt lat="41.619398400" lon="2.470793440">
        <ele>502.40</ele>
        <time>2014-02-23T10:21:45Z</time>
      </trkpt>
      <trkpt lat="41.619395050" lon="2.470840040">
        <ele>502.30</ele>
        <time>2014-02-23T10:21:46Z</time>
      </trkpt>
      <trkpt lat="41.619391700" lon="2.470885140">
        <ele>501.60</ele>
        <time>2014-02-23T10:21:47Z</time>
      </trkpt>
      <trkpt lat="41.619390020" lon="2.470931740">
        <ele>501.20</ele>
        <time>2014-02-23T10:21:48Z</time>
      </trkpt>
      <trkpt lat="41.619388340" lon="2.470980020">
        <ele>500.80</ele>
        <time>2014-02-23T10:21:49Z</time>
      </trkpt>
      <trkpt lat="41.619381810" lon="2.471030140">
        <ele>500.80</ele>
        <time>2014-02-23T10:21:50Z</time>
      </trkpt>
      <trkpt lat="41.619378450" lon="2.471076750">
        <ele>500.80</ele>
        <time>2014-02-23T10:21:51Z</time>
      </trkpt>
      <trkpt lat="41.619380130" lon="2.471116810">
        <ele>501.00</ele>
        <time>2014-02-23T10:21:52Z</time>
      </trkpt>
      <trkpt lat="41.619373420" lon="2.471155030">
        <ele>501.10</ele>
        <time>2014-02-23T10:21:53Z</time>
      </trkpt>
      <trkpt lat="41.619366720" lon="2.471191750">
        <ele>501.60</ele>
        <time>2014-02-23T10:21:54Z</time>
      </trkpt>
      <trkpt lat="41.619365040" lon="2.471223430">
        <ele>502.00</ele>
        <time>2014-02-23T10:21:55Z</time>
      </trkpt>
      <trkpt lat="41.619361690" lon="2.471255110">
        <ele>502.30</ele>
        <time>2014-02-23T10:21:56Z</time>
      </trkpt>
      <trkpt lat="41.619360010" lon="2.471283450">
        <ele>502.40</ele>
        <time>2014-02-23T10:21:57Z</time>
      </trkpt>
      <trkpt lat="41.619355150" lon="2.471315130">
        <ele>502.40</ele>
        <time>2014-02-23T10:21:58Z</time>
      </trkpt>
      <trkpt lat="41.619346770" lon="2.471346810">
        <ele>502.70</ele>
        <time>2014-02-23T10:21:59Z</time>
      </trkpt>
      <trkpt lat="41.619336710" lon="2.471378330">
        <ele>502.90</ele>
        <time>2014-02-23T10:22:00Z</time>
      </trkpt>
      <trkpt lat="41.619325140" lon="2.471410010">
        <ele>503.10</ele>
        <time>2014-02-23T10:22:01Z</time>
      </trkpt>
      <trkpt lat="41.619310060" lon="2.471441700">
        <ele>503.20</ele>
        <time>2014-02-23T10:22:02Z</time>
      </trkpt>
      <trkpt lat="41.619295140" lon="2.471471700">
        <ele>503.20</ele>
        <time>2014-02-23T10:22:03Z</time>
      </trkpt>
      <trkpt lat="41.619278370" lon="2.471500030">
        <ele>503.30</ele>
        <time>2014-02-23T10:22:04Z</time>
      </trkpt>
      <trkpt lat="41.619261780" lon="2.471525010">
        <ele>503.30</ele>
        <time>2014-02-23T10:22:05Z</time>
      </trkpt>
      <trkpt lat="41.619245010" lon="2.471551670">
        <ele>503.10</ele>
        <time>2014-02-23T10:22:06Z</time>
      </trkpt>
      <trkpt lat="41.619230090" lon="2.471578490">
        <ele>503.00</ele>
        <time>2014-02-23T10:22:07Z</time>
      </trkpt>
      <trkpt lat="41.619213330" lon="2.471605140">
        <ele>502.90</ele>
        <time>2014-02-23T10:22:08Z</time>
      </trkpt>
      <trkpt lat="41.619196730" lon="2.471626770">
        <ele>503.00</ele>
        <time>2014-02-23T10:22:09Z</time>
      </trkpt>
      <trkpt lat="41.619180140" lon="2.471651750">
        <ele>503.10</ele>
        <time>2014-02-23T10:22:10Z</time>
      </trkpt>
      <trkpt lat="41.619161700" lon="2.471675050">
        <ele>503.50</ele>
        <time>2014-02-23T10:22:11Z</time>
      </trkpt>
      <trkpt lat="41.619146780" lon="2.471701700">
        <ele>503.90</ele>
        <time>2014-02-23T10:22:12Z</time>
      </trkpt>
      <trkpt lat="41.619131690" lon="2.471730030">
        <ele>504.20</ele>
        <time>2014-02-23T10:22:13Z</time>
      </trkpt>
      <trkpt lat="41.619116770" lon="2.471758360">
        <ele>504.40</ele>
        <time>2014-02-23T10:22:14Z</time>
      </trkpt>
      <trkpt lat="41.619101680" lon="2.471786700">
        <ele>504.60</ele>
        <time>2014-02-23T10:22:15Z</time>
      </trkpt>
      <trkpt lat="41.619095150" lon="2.471816700">
        <ele>504.40</ele>
        <time>2014-02-23T10:22:16Z</time>
      </trkpt>
      <trkpt lat="41.619091790" lon="2.471846710">
        <ele>504.30</ele>
        <time>2014-02-23T10:22:17Z</time>
      </trkpt>
      <trkpt lat="41.619093470" lon="2.471876720">
        <ele>504.90</ele>
        <time>2014-02-23T10:22:18Z</time>
      </trkpt>
      <trkpt lat="41.619096820" lon="2.471906720">
        <ele>505.30</ele>
        <time>2014-02-23T10:22:19Z</time>
      </trkpt>
      <trkpt lat="41.619105040" lon="2.471938410">
        <ele>505.70</ele>
        <time>2014-02-23T10:22:20Z</time>
      </trkpt>
      <trkpt lat="41.619115090" lon="2.471966740">
        <ele>505.70</ele>
        <time>2014-02-23T10:22:21Z</time>
      </trkpt>
      <trkpt lat="41.619128340" lon="2.471996750">
        <ele>505.80</ele>
        <time>2014-02-23T10:22:22Z</time>
      </trkpt>
      <trkpt lat="41.619143430" lon="2.472028430">
        <ele>506.10</ele>
        <time>2014-02-23T10:22:23Z</time>
      </trkpt>
      <trkpt lat="41.619160020" lon="2.472061790">
        <ele>506.30</ele>
        <time>2014-02-23T10:22:24Z</time>
      </trkpt>
      <trkpt lat="41.619173430" lon="2.472095150">
        <ele>506.50</ele>
        <time>2014-02-23T10:22:25Z</time>
      </trkpt>
      <trkpt lat="41.619185000" lon="2.472130020">
        <ele>506.70</ele>
        <time>2014-02-23T10:22:26Z</time>
      </trkpt>
      <trkpt lat="41.619195060" lon="2.472165050">
        <ele>506.80</ele>
        <time>2014-02-23T10:22:27Z</time>
      </trkpt>
      <trkpt lat="41.619205120" lon="2.472201770">
        <ele>506.70</ele>
        <time>2014-02-23T10:22:28Z</time>
      </trkpt>
      <trkpt lat="41.619216680" lon="2.472243340">
        <ele>506.70</ele>
        <time>2014-02-23T10:22:29Z</time>
      </trkpt>
      <trkpt lat="41.619226740" lon="2.472285080">
        <ele>506.70</ele>
        <time>2014-02-23T10:22:30Z</time>
      </trkpt>
      <trkpt lat="41.619240150" lon="2.472330010">
        <ele>506.80</ele>
        <time>2014-02-23T10:22:31Z</time>
      </trkpt>
      <trkpt lat="41.619255070" lon="2.472376780">
        <ele>506.60</ele>
        <time>2014-02-23T10:22:32Z</time>
      </trkpt>
      <trkpt lat="41.619268480" lon="2.472425060">
        <ele>506.50</ele>
        <time>2014-02-23T10:22:33Z</time>
      </trkpt>
      <trkpt lat="41.619281730" lon="2.472475020">
        <ele>506.40</ele>
        <time>2014-02-23T10:22:34Z</time>
      </trkpt>
      <trkpt lat="41.619293460" lon="2.472521790">
        <ele>506.00</ele>
        <time>2014-02-23T10:22:35Z</time>
      </trkpt>
      <trkpt lat="41.619298490" lon="2.472568390">
        <ele>505.70</ele>
        <time>2014-02-23T10:22:36Z</time>
      </trkpt>
      <trkpt lat="41.619298490" lon="2.472613490">
        <ele>505.60</ele>
        <time>2014-02-23T10:22:37Z</time>
      </trkpt>
      <trkpt lat="41.619300000" lon="2.472655060">
        <ele>505.60</ele>
        <time>2014-02-23T10:22:38Z</time>
      </trkpt>
      <trkpt lat="41.619298490" lon="2.472691770">
        <ele>505.50</ele>
        <time>2014-02-23T10:22:39Z</time>
      </trkpt>
      <trkpt lat="41.619295140" lon="2.472730160">
        <ele>505.40</ele>
        <time>2014-02-23T10:22:40Z</time>
      </trkpt>
      <trkpt lat="41.619293460" lon="2.472771740">
        <ele>505.30</ele>
        <time>2014-02-23T10:22:41Z</time>
      </trkpt>
      <trkpt lat="41.619293460" lon="2.472811800">
        <ele>505.30</ele>
        <time>2014-02-23T10:22:42Z</time>
      </trkpt>
      <trkpt lat="41.619296810" lon="2.472853380">
        <ele>505.20</ele>
        <time>2014-02-23T10:22:43Z</time>
      </trkpt>
      <trkpt lat="41.619301680" lon="2.472893440">
        <ele>505.70</ele>
        <time>2014-02-23T10:22:44Z</time>
      </trkpt>
      <trkpt lat="41.619311730" lon="2.472928480">
        <ele>506.10</ele>
        <time>2014-02-23T10:22:45Z</time>
      </trkpt>
      <trkpt lat="41.619323470" lon="2.472960160">
        <ele>506.40</ele>
        <time>2014-02-23T10:22:46Z</time>
      </trkpt>
      <trkpt lat="41.619336710" lon="2.472990000">
        <ele>506.40</ele>
        <time>2014-02-23T10:22:47Z</time>
      </trkpt>
      <trkpt lat="41.619350120" lon="2.473020010">
        <ele>506.50</ele>
        <time>2014-02-23T10:22:48Z</time>
      </trkpt>
      <trkpt lat="41.619365040" lon="2.473051690">
        <ele>506.50</ele>
        <time>2014-02-23T10:22:49Z</time>
      </trkpt>
      <trkpt lat="41.619378450" lon="2.473083380">
        <ele>506.60</ele>
        <time>2014-02-23T10:22:50Z</time>
      </trkpt>
      <trkpt lat="41.619395050" lon="2.473113380">
        <ele>506.60</ele>
        <time>2014-02-23T10:22:51Z</time>
      </trkpt>
      <trkpt lat="41.619415000" lon="2.473145070">
        <ele>506.70</ele>
        <time>2014-02-23T10:22:52Z</time>
      </trkpt>
      <trkpt lat="41.619438470" lon="2.473181780">
        <ele>506.70</ele>
        <time>2014-02-23T10:22:53Z</time>
      </trkpt>
      <trkpt lat="41.619463450" lon="2.473215140">
        <ele>506.70</ele>
        <time>2014-02-23T10:22:54Z</time>
      </trkpt>
      <trkpt lat="41.619491780" lon="2.473250010">
        <ele>506.70</ele>
        <time>2014-02-23T10:22:55Z</time>
      </trkpt>
      <trkpt lat="41.619528490" lon="2.473285040">
        <ele>506.50</ele>
        <time>2014-02-23T10:22:56Z</time>
      </trkpt>
      <trkpt lat="41.619573420" lon="2.473323430">
        <ele>506.30</ele>
        <time>2014-02-23T10:22:57Z</time>
      </trkpt>
      <trkpt lat="41.619625050" lon="2.473356790">
        <ele>506.10</ele>
        <time>2014-02-23T10:22:58Z</time>
      </trkpt>
      <trkpt lat="41.619676680" lon="2.473388480">
        <ele>505.80</ele>
        <time>2014-02-23T10:22:59Z</time>
      </trkpt>
      <trkpt lat="41.619723450" lon="2.473426700">
        <ele>505.50</ele>
        <time>2014-02-23T10:23:00Z</time>
      </trkpt>
      <trkpt lat="41.619758490" lon="2.473481680">
        <ele>505.50</ele>
        <time>2014-02-23T10:23:01Z</time>
      </trkpt>
      <trkpt lat="41.619780110" lon="2.473543370">
        <ele>505.50</ele>
        <time>2014-02-23T10:23:02Z</time>
      </trkpt>
      <trkpt lat="41.619795030" lon="2.473601710">
        <ele>505.30</ele>
        <time>2014-02-23T10:23:03Z</time>
      </trkpt>
      <trkpt lat="41.619811800" lon="2.473653350">
        <ele>505.20</ele>
        <time>2014-02-23T10:23:04Z</time>
      </trkpt>
      <trkpt lat="41.619833420" lon="2.473701790">
        <ele>505.10</ele>
        <time>2014-02-23T10:23:05Z</time>
      </trkpt>
      <trkpt lat="41.619856730" lon="2.473743370">
        <ele>505.00</ele>
        <time>2014-02-23T10:23:06Z</time>
      </trkpt>
      <trkpt lat="41.619881700" lon="2.473775050">
        <ele>504.90</ele>
        <time>2014-02-23T10:23:07Z</time>
      </trkpt>
      <trkpt lat="41.619906680" lon="2.473801700">
        <ele>505.30</ele>
        <time>2014-02-23T10:23:08Z</time>
      </trkpt>
      <trkpt lat="41.619935010" lon="2.473815120">
        <ele>505.60</ele>
        <time>2014-02-23T10:23:09Z</time>
      </trkpt>
      <trkpt lat="41.619965020" lon="2.473820140">
        <ele>505.50</ele>
        <time>2014-02-23T10:23:10Z</time>
      </trkpt>
      <trkpt lat="41.619991670" lon="2.473821820">
        <ele>505.50</ele>
        <time>2014-02-23T10:23:11Z</time>
      </trkpt>
      <trkpt lat="41.620018500" lon="2.473825010">
        <ele>505.40</ele>
        <time>2014-02-23T10:23:12Z</time>
      </trkpt>
      <trkpt lat="41.620045150" lon="2.473833390">
        <ele>505.60</ele>
        <time>2014-02-23T10:23:13Z</time>
      </trkpt>
      <trkpt lat="41.620075160" lon="2.473838420">
        <ele>505.70</ele>
        <time>2014-02-23T10:23:14Z</time>
      </trkpt>
      <trkpt lat="41.620101810" lon="2.473843450">
        <ele>506.20</ele>
        <time>2014-02-23T10:23:15Z</time>
      </trkpt>
      <trkpt lat="41.620128470" lon="2.473850150">
        <ele>506.60</ele>
        <time>2014-02-23T10:23:16Z</time>
      </trkpt>
      <trkpt lat="41.620153440" lon="2.473856690">
        <ele>506.90</ele>
        <time>2014-02-23T10:23:17Z</time>
      </trkpt>
      <trkpt lat="41.620175070" lon="2.473861720">
        <ele>507.20</ele>
        <time>2014-02-23T10:23:18Z</time>
      </trkpt>
      <trkpt lat="41.620200050" lon="2.473868420">
        <ele>507.40</ele>
        <time>2014-02-23T10:23:19Z</time>
      </trkpt>
      <trkpt lat="41.620225030" lon="2.473876810">
        <ele>507.70</ele>
        <time>2014-02-23T10:23:20Z</time>
      </trkpt>
      <trkpt lat="41.620253360" lon="2.473888370">
        <ele>507.90</ele>
        <time>2014-02-23T10:23:21Z</time>
      </trkpt>
      <trkpt lat="41.620280010" lon="2.473903460">
        <ele>507.90</ele>
        <time>2014-02-23T10:23:22Z</time>
      </trkpt>
      <trkpt lat="41.620301800" lon="2.473926760">
        <ele>508.00</ele>
        <time>2014-02-23T10:23:23Z</time>
      </trkpt>
      <trkpt lat="41.620311690" lon="2.473966830">
        <ele>508.00</ele>
        <time>2014-02-23T10:23:24Z</time>
      </trkpt>
      <trkpt lat="41.620306670" lon="2.474016780">
        <ele>508.00</ele>
        <time>2014-02-23T10:23:25Z</time>
      </trkpt>
      <trkpt lat="41.620295100" lon="2.474063390">
        <ele>508.10</ele>
        <time>2014-02-23T10:23:26Z</time>
      </trkpt>
      <trkpt lat="41.620275150" lon="2.474105130">
        <ele>507.60</ele>
        <time>2014-02-23T10:23:27Z</time>
      </trkpt>
      <trkpt lat="41.620248500" lon="2.474143350">
        <ele>507.20</ele>
        <time>2014-02-23T10:23:28Z</time>
      </trkpt>
      <trkpt lat="41.620218490" lon="2.474176710">
        <ele>507.30</ele>
        <time>2014-02-23T10:23:29Z</time>
      </trkpt>
      <trkpt lat="41.620188480" lon="2.474213420">
        <ele>507.40</ele>
        <time>2014-02-23T10:23:30Z</time>
      </trkpt>
      <trkpt lat="41.620158470" lon="2.474250140">
        <ele>507.50</ele>
        <time>2014-02-23T10:23:31Z</time>
      </trkpt>
      <trkpt lat="41.620131820" lon="2.474286680">
        <ele>507.70</ele>
        <time>2014-02-23T10:23:32Z</time>
      </trkpt>
      <trkpt lat="41.620105000" lon="2.474326750">
        <ele>507.90</ele>
        <time>2014-02-23T10:23:33Z</time>
      </trkpt>
      <trkpt lat="41.620086720" lon="2.474375030">
        <ele>507.80</ele>
        <time>2014-02-23T10:23:34Z</time>
      </trkpt>
      <trkpt lat="41.620073480" lon="2.474428340">
        <ele>507.70</ele>
        <time>2014-02-23T10:23:35Z</time>
      </trkpt>
      <trkpt lat="41.620066780" lon="2.474485000">
        <ele>508.00</ele>
        <time>2014-02-23T10:23:36Z</time>
      </trkpt>
      <trkpt lat="41.620063420" lon="2.474543340">
        <ele>508.20</ele>
        <time>2014-02-23T10:23:37Z</time>
      </trkpt>
      <trkpt lat="41.620060070" lon="2.474598490">
        <ele>508.40</ele>
        <time>2014-02-23T10:23:38Z</time>
      </trkpt>
      <trkpt lat="41.620058390" lon="2.474651800">
        <ele>508.10</ele>
        <time>2014-02-23T10:23:39Z</time>
      </trkpt>
      <trkpt lat="41.620058390" lon="2.474696720">
        <ele>507.80</ele>
        <time>2014-02-23T10:23:40Z</time>
      </trkpt>
      <trkpt lat="41.620055040" lon="2.474743500">
        <ele>507.90</ele>
        <time>2014-02-23T10:23:41Z</time>
      </trkpt>
      <trkpt lat="41.620048340" lon="2.474791780">
        <ele>508.00</ele>
        <time>2014-02-23T10:23:42Z</time>
      </trkpt>
      <trkpt lat="41.620031740" lon="2.474833350">
        <ele>508.10</ele>
        <time>2014-02-23T10:23:43Z</time>
      </trkpt>
      <trkpt lat="41.620011790" lon="2.474871740">
        <ele>508.20</ele>
        <time>2014-02-23T10:23:44Z</time>
      </trkpt>
      <trkpt lat="41.619991670" lon="2.474905100">
        <ele>508.30</ele>
        <time>2014-02-23T10:23:45Z</time>
      </trkpt>
      <trkpt lat="41.619978430" lon="2.474941810">
        <ele>508.90</ele>
        <time>2014-02-23T10:23:46Z</time>
      </trkpt>
      <trkpt lat="41.619968370" lon="2.474981710">
        <ele>509.40</ele>
        <time>2014-02-23T10:23:47Z</time>
      </trkpt>
      <trkpt lat="41.619963340" lon="2.475023450">
        <ele>509.50</ele>
        <time>2014-02-23T10:23:48Z</time>
      </trkpt>
      <trkpt lat="41.619963340" lon="2.475066700">
        <ele>509.70</ele>
        <time>2014-02-23T10:23:49Z</time>
      </trkpt>
      <trkpt lat="41.619965020" lon="2.475108440">
        <ele>509.80</ele>
        <time>2014-02-23T10:23:50Z</time>
      </trkpt>
      <trkpt lat="41.619968370" lon="2.475151690">
        <ele>510.10</ele>
        <time>2014-02-23T10:23:51Z</time>
      </trkpt>
      <trkpt lat="41.619971720" lon="2.475193440">
        <ele>510.40</ele>
        <time>2014-02-23T10:23:52Z</time>
      </trkpt>
      <trkpt lat="41.619970050" lon="2.475233330">
        <ele>510.50</ele>
        <time>2014-02-23T10:23:53Z</time>
      </trkpt>
      <trkpt lat="41.619970050" lon="2.475275080">
        <ele>510.60</ele>
        <time>2014-02-23T10:23:54Z</time>
      </trkpt>
      <trkpt lat="41.619970050" lon="2.475315140">
        <ele>510.50</ele>
        <time>2014-02-23T10:23:55Z</time>
      </trkpt>
      <trkpt lat="41.619968370" lon="2.475356720">
        <ele>510.50</ele>
        <time>2014-02-23T10:23:56Z</time>
      </trkpt>
      <trkpt lat="41.619966700" lon="2.475396780">
        <ele>510.40</ele>
        <time>2014-02-23T10:23:57Z</time>
      </trkpt>
      <trkpt lat="41.619963340" lon="2.475436680">
        <ele>510.80</ele>
        <time>2014-02-23T10:23:58Z</time>
      </trkpt>
      <trkpt lat="41.619958480" lon="2.475475070">
        <ele>511.10</ele>
        <time>2014-02-23T10:23:59Z</time>
      </trkpt>
      <trkpt lat="41.619950100" lon="2.475510100">
        <ele>511.70</ele>
        <time>2014-02-23T10:24:00Z</time>
      </trkpt>
      <trkpt lat="41.619940040" lon="2.475545140">
        <ele>512.20</ele>
        <time>2014-02-23T10:24:01Z</time>
      </trkpt>
      <trkpt lat="41.619923450" lon="2.475583360">
        <ele>512.60</ele>
        <time>2014-02-23T10:24:02Z</time>
      </trkpt>
      <trkpt lat="41.619898470" lon="2.475623430">
        <ele>512.50</ele>
        <time>2014-02-23T10:24:03Z</time>
      </trkpt>
      <trkpt lat="41.619863430" lon="2.475660140">
        <ele>512.50</ele>
        <time>2014-02-23T10:24:04Z</time>
      </trkpt>
      <trkpt lat="41.619818340" lon="2.475691820">
        <ele>512.00</ele>
        <time>2014-02-23T10:24:05Z</time>
      </trkpt>
      <trkpt lat="41.619773410" lon="2.475716800">
        <ele>511.60</ele>
        <time>2014-02-23T10:24:06Z</time>
      </trkpt>
      <trkpt lat="41.619728480" lon="2.475733400">
        <ele>511.30</ele>
        <time>2014-02-23T10:24:07Z</time>
      </trkpt>
      <trkpt lat="41.619686740" lon="2.475740100">
        <ele>511.10</ele>
        <time>2014-02-23T10:24:08Z</time>
      </trkpt>
      <trkpt lat="41.619648350" lon="2.475731720">
        <ele>510.90</ele>
        <time>2014-02-23T10:24:09Z</time>
      </trkpt>
      <trkpt lat="41.619613480" lon="2.475721660">
        <ele>510.30</ele>
        <time>2014-02-23T10:24:10Z</time>
      </trkpt>
      <trkpt lat="41.619581800" lon="2.475720150">
        <ele>509.80</ele>
        <time>2014-02-23T10:24:11Z</time>
      </trkpt>
      <trkpt lat="41.619555140" lon="2.475726690">
        <ele>509.30</ele>
        <time>2014-02-23T10:24:12Z</time>
      </trkpt>
      <trkpt lat="41.619533350" lon="2.475750160">
        <ele>508.90</ele>
        <time>2014-02-23T10:24:13Z</time>
      </trkpt>
      <trkpt lat="41.619526810" lon="2.475786710">
        <ele>508.20</ele>
        <time>2014-02-23T10:24:14Z</time>
      </trkpt>
      <trkpt lat="41.619538380" lon="2.475823420">
        <ele>507.70</ele>
        <time>2014-02-23T10:24:15Z</time>
      </trkpt>
      <trkpt lat="41.619561680" lon="2.475853430">
        <ele>507.30</ele>
        <time>2014-02-23T10:24:16Z</time>
      </trkpt>
      <trkpt lat="41.619593370" lon="2.475871700">
        <ele>506.90</ele>
        <time>2014-02-23T10:24:17Z</time>
      </trkpt>
      <trkpt lat="41.619628400" lon="2.475893490">
        <ele>506.50</ele>
        <time>2014-02-23T10:24:18Z</time>
      </trkpt>
      <trkpt lat="41.619663440" lon="2.475921820">
        <ele>506.30</ele>
        <time>2014-02-23T10:24:19Z</time>
      </trkpt>
      <trkpt lat="41.619703340" lon="2.475943450">
        <ele>506.10</ele>
        <time>2014-02-23T10:24:20Z</time>
      </trkpt>
      <trkpt lat="41.619746750" lon="2.475960040">
        <ele>506.00</ele>
        <time>2014-02-23T10:24:21Z</time>
      </trkpt>
      <trkpt lat="41.619785140" lon="2.475975130">
        <ele>505.60</ele>
        <time>2014-02-23T10:24:22Z</time>
      </trkpt>
      <trkpt lat="41.619828390" lon="2.475991730">
        <ele>505.40</ele>
        <time>2014-02-23T10:24:23Z</time>
      </trkpt>
      <trkpt lat="41.619873490" lon="2.476015030">
        <ele>504.80</ele>
        <time>2014-02-23T10:24:24Z</time>
      </trkpt>
      <trkpt lat="41.619911710" lon="2.476050070">
        <ele>504.30</ele>
        <time>2014-02-23T10:24:25Z</time>
      </trkpt>
      <trkpt lat="41.619950100" lon="2.476096670">
        <ele>504.00</ele>
        <time>2014-02-23T10:24:26Z</time>
      </trkpt>
      <trkpt lat="41.619988490" lon="2.476148470">
        <ele>503.70</ele>
        <time>2014-02-23T10:24:27Z</time>
      </trkpt>
      <trkpt lat="41.620023360" lon="2.476208480">
        <ele>503.50</ele>
        <time>2014-02-23T10:24:28Z</time>
      </trkpt>
      <trkpt lat="41.620053360" lon="2.476270010">
        <ele>503.10</ele>
        <time>2014-02-23T10:24:29Z</time>
      </trkpt>
      <trkpt lat="41.620073480" lon="2.476333370">
        <ele>502.80</ele>
        <time>2014-02-23T10:24:30Z</time>
      </trkpt>
      <trkpt lat="41.620070130" lon="2.476400090">
        <ele>502.60</ele>
        <time>2014-02-23T10:24:31Z</time>
      </trkpt>
      <trkpt lat="41.620046830" lon="2.476465140">
        <ele>502.40</ele>
        <time>2014-02-23T10:24:32Z</time>
      </trkpt>
      <trkpt lat="41.620020000" lon="2.476528340">
        <ele>501.70</ele>
        <time>2014-02-23T10:24:33Z</time>
      </trkpt>
      <trkpt lat="41.619996700" lon="2.476596730">
        <ele>501.20</ele>
        <time>2014-02-23T10:24:34Z</time>
      </trkpt>
      <trkpt lat="41.619986810" lon="2.476673340">
        <ele>500.90</ele>
        <time>2014-02-23T10:24:35Z</time>
      </trkpt>
      <trkpt lat="41.619990000" lon="2.476751800">
        <ele>500.60</ele>
        <time>2014-02-23T10:24:36Z</time>
      </trkpt>
      <trkpt lat="41.620003410" lon="2.476823380">
        <ele>500.50</ele>
        <time>2014-02-23T10:24:37Z</time>
      </trkpt>
      <trkpt lat="41.620026710" lon="2.476886750">
        <ele>500.20</ele>
        <time>2014-02-23T10:24:38Z</time>
      </trkpt>
      <trkpt lat="41.620055040" lon="2.476933350">
        <ele>500.00</ele>
        <time>2014-02-23T10:24:39Z</time>
      </trkpt>
      <trkpt lat="41.620083370" lon="2.476968390">
        <ele>499.90</ele>
        <time>2014-02-23T10:24:40Z</time>
      </trkpt>
      <trkpt lat="41.620120080" lon="2.476995040">
        <ele>499.70</ele>
        <time>2014-02-23T10:24:41Z</time>
      </trkpt>
      <trkpt lat="41.620151770" lon="2.477023370">
        <ele>499.60</ele>
        <time>2014-02-23T10:24:42Z</time>
      </trkpt>
      <trkpt lat="41.620178420" lon="2.477056730">
        <ele>499.90</ele>
        <time>2014-02-23T10:24:43Z</time>
      </trkpt>
      <trkpt lat="41.620208430" lon="2.477090090">
        <ele>500.10</ele>
        <time>2014-02-23T10:24:44Z</time>
      </trkpt>
      <trkpt lat="41.620233410" lon="2.477126810">
        <ele>500.20</ele>
        <time>2014-02-23T10:24:45Z</time>
      </trkpt>
      <trkpt lat="41.620258390" lon="2.477166700">
        <ele>500.40</ele>
        <time>2014-02-23T10:24:46Z</time>
      </trkpt>
      <trkpt lat="41.620283360" lon="2.477211800">
        <ele>500.50</ele>
        <time>2014-02-23T10:24:47Z</time>
      </trkpt>
      <trkpt lat="41.620315050" lon="2.477256730">
        <ele>500.30</ele>
        <time>2014-02-23T10:24:48Z</time>
      </trkpt>
      <trkpt lat="41.620345050" lon="2.477311710">
        <ele>500.20</ele>
        <time>2014-02-23T10:24:49Z</time>
      </trkpt>
      <trkpt lat="41.620361820" lon="2.477373400">
        <ele>499.90</ele>
        <time>2014-02-23T10:24:50Z</time>
      </trkpt>
      <trkpt lat="41.620358470" lon="2.477435090">
        <ele>499.70</ele>
        <time>2014-02-23T10:24:51Z</time>
      </trkpt>
      <trkpt lat="41.620340030" lon="2.477496780">
        <ele>499.50</ele>
        <time>2014-02-23T10:24:52Z</time>
      </trkpt>
      <trkpt lat="41.620316720" lon="2.477555120">
        <ele>499.30</ele>
        <time>2014-02-23T10:24:53Z</time>
      </trkpt>
      <trkpt lat="41.620293420" lon="2.477611780">
        <ele>499.20</ele>
        <time>2014-02-23T10:24:54Z</time>
      </trkpt>
      <trkpt lat="41.620273470" lon="2.477675150">
        <ele>499.20</ele>
        <time>2014-02-23T10:24:55Z</time>
      </trkpt>
      <trkpt lat="41.620256710" lon="2.477741700">
        <ele>499.20</ele>
        <time>2014-02-23T10:24:56Z</time>
      </trkpt>
      <trkpt lat="41.620243470" lon="2.477810100">
        <ele>498.70</ele>
        <time>2014-02-23T10:24:57Z</time>
      </trkpt>
      <trkpt lat="41.620230060" lon="2.477880000">
        <ele>498.40</ele>
        <time>2014-02-23T10:24:58Z</time>
      </trkpt>
      <trkpt lat="41.620221670" lon="2.477953430">
        <ele>498.10</ele>
        <time>2014-02-23T10:24:59Z</time>
      </trkpt>
      <trkpt lat="41.620215140" lon="2.478028360">
        <ele>497.60</ele>
        <time>2014-02-23T10:25:00Z</time>
      </trkpt>
      <trkpt lat="41.620208430" lon="2.478103470">
        <ele>497.30</ele>
        <time>2014-02-23T10:25:01Z</time>
      </trkpt>
      <trkpt lat="41.620198370" lon="2.478176720">
        <ele>497.50</ele>
        <time>2014-02-23T10:25:02Z</time>
      </trkpt>
      <trkpt lat="41.620185130" lon="2.478243440">
        <ele>497.60</ele>
        <time>2014-02-23T10:25:03Z</time>
      </trkpt>
      <trkpt lat="41.620170040" lon="2.478303460">
        <ele>497.10</ele>
        <time>2014-02-23T10:25:04Z</time>
      </trkpt>
      <trkpt lat="41.620156800" lon="2.478351740">
        <ele>496.80</ele>
        <time>2014-02-23T10:25:05Z</time>
      </trkpt>
      <trkpt lat="41.620145060" lon="2.478395160">
        <ele>496.60</ele>
        <time>2014-02-23T10:25:06Z</time>
      </trkpt>
      <trkpt lat="41.620131820" lon="2.478433380">
        <ele>496.50</ele>
        <time>2014-02-23T10:25:07Z</time>
      </trkpt>
      <trkpt lat="41.620128470" lon="2.478470090">
        <ele>496.50</ele>
        <time>2014-02-23T10:25:08Z</time>
      </trkpt>
      <trkpt lat="41.620131820" lon="2.478510150">
        <ele>496.70</ele>
        <time>2014-02-23T10:25:09Z</time>
      </trkpt>
      <trkpt lat="41.620145060" lon="2.478550050">
        <ele>496.90</ele>
        <time>2014-02-23T10:25:10Z</time>
      </trkpt>
      <trkpt lat="41.620163340" lon="2.478596820">
        <ele>497.00</ele>
        <time>2014-02-23T10:25:11Z</time>
      </trkpt>
      <trkpt lat="41.620181780" lon="2.478641750">
        <ele>497.10</ele>
        <time>2014-02-23T10:25:12Z</time>
      </trkpt>
      <trkpt lat="41.620203400" lon="2.478686680">
        <ele>497.10</ele>
        <time>2014-02-23T10:25:13Z</time>
      </trkpt>
      <trkpt lat="41.620221670" lon="2.478731770">
        <ele>497.10</ele>
        <time>2014-02-23T10:25:14Z</time>
      </trkpt>
      <trkpt lat="41.620241790" lon="2.478776700">
        <ele>497.00</ele>
        <time>2014-02-23T10:25:15Z</time>
      </trkpt>
      <trkpt lat="41.620265090" lon="2.478816770">
        <ele>497.50</ele>
        <time>2014-02-23T10:25:16Z</time>
      </trkpt>
      <trkpt lat="41.620291750" lon="2.478858340">
        <ele>497.80</ele>
        <time>2014-02-23T10:25:17Z</time>
      </trkpt>
      <trkpt lat="41.620316720" lon="2.478903430">
        <ele>498.00</ele>
        <time>2014-02-23T10:25:18Z</time>
      </trkpt>
      <trkpt lat="41.620340030" lon="2.478953390">
        <ele>497.40</ele>
        <time>2014-02-23T10:25:19Z</time>
      </trkpt>
      <trkpt lat="41.620350080" lon="2.479006700">
        <ele>496.80</ele>
        <time>2014-02-23T10:25:20Z</time>
      </trkpt>
      <trkpt lat="41.620350080" lon="2.479061680">
        <ele>496.90</ele>
        <time>2014-02-23T10:25:21Z</time>
      </trkpt>
      <trkpt lat="41.620345050" lon="2.479115160">
        <ele>496.90</ele>
        <time>2014-02-23T10:25:22Z</time>
      </trkpt>
      <trkpt lat="41.620335000" lon="2.479166790">
        <ele>496.80</ele>
        <time>2014-02-23T10:25:23Z</time>
      </trkpt>
      <trkpt lat="41.620321750" lon="2.479211720">
        <ele>496.70</ele>
        <time>2014-02-23T10:25:24Z</time>
      </trkpt>
      <trkpt lat="41.620300130" lon="2.479251790">
        <ele>496.70</ele>
        <time>2014-02-23T10:25:25Z</time>
      </trkpt>
      <trkpt lat="41.620275150" lon="2.479285150">
        <ele>496.80</ele>
        <time>2014-02-23T10:25:26Z</time>
      </trkpt>
      <trkpt lat="41.620248500" lon="2.479313480">
        <ele>497.00</ele>
        <time>2014-02-23T10:25:27Z</time>
      </trkpt>
      <trkpt lat="41.620226700" lon="2.479340130">
        <ele>497.50</ele>
        <time>2014-02-23T10:25:28Z</time>
      </trkpt>
      <trkpt lat="41.620206750" lon="2.479373490">
        <ele>497.90</ele>
        <time>2014-02-23T10:25:29Z</time>
      </trkpt>
      <trkpt lat="41.620196700" lon="2.479413390">
        <ele>498.20</ele>
        <time>2014-02-23T10:25:30Z</time>
      </trkpt>
      <trkpt lat="41.620198370" lon="2.479456810">
        <ele>498.50</ele>
        <time>2014-02-23T10:25:31Z</time>
      </trkpt>
      <trkpt lat="41.620210110" lon="2.479498380">
        <ele>498.70</ele>
        <time>2014-02-23T10:25:32Z</time>
      </trkpt>
      <trkpt lat="41.620230060" lon="2.479531740">
        <ele>498.70</ele>
        <time>2014-02-23T10:25:33Z</time>
      </trkpt>
      <trkpt lat="41.620256710" lon="2.479555040">
        <ele>498.70</ele>
        <time>2014-02-23T10:25:34Z</time>
      </trkpt>
      <trkpt lat="41.620285040" lon="2.479576670">
        <ele>499.30</ele>
        <time>2014-02-23T10:25:35Z</time>
      </trkpt>
      <trkpt lat="41.620311690" lon="2.479600140">
        <ele>499.80</ele>
        <time>2014-02-23T10:25:36Z</time>
      </trkpt>
      <trkpt lat="41.620333490" lon="2.479620090">
        <ele>500.20</ele>
        <time>2014-02-23T10:25:37Z</time>
      </trkpt>
      <trkpt lat="41.620355110" lon="2.479638360">
        <ele>500.60</ele>
        <time>2014-02-23T10:25:38Z</time>
      </trkpt>
      <trkpt lat="41.620376740" lon="2.479658480">
        <ele>501.00</ele>
        <time>2014-02-23T10:25:39Z</time>
      </trkpt>
      <trkpt lat="41.620400040" lon="2.479676750">
        <ele>501.50</ele>
        <time>2014-02-23T10:25:40Z</time>
      </trkpt>
      <trkpt lat="41.620421670" lon="2.479695020">
        <ele>501.90</ele>
        <time>2014-02-23T10:25:41Z</time>
      </trkpt>
      <trkpt lat="41.620443460" lon="2.479715140">
        <ele>502.20</ele>
        <time>2014-02-23T10:25:42Z</time>
      </trkpt>
      <trkpt lat="41.620465080" lon="2.479736760">
        <ele>502.50</ele>
        <time>2014-02-23T10:25:43Z</time>
      </trkpt>
      <trkpt lat="41.620481680" lon="2.479761740">
        <ele>502.70</ele>
        <time>2014-02-23T10:25:44Z</time>
      </trkpt>
      <trkpt lat="41.620498440" lon="2.479788400">
        <ele>502.50</ele>
        <time>2014-02-23T10:25:45Z</time>
      </trkpt>
      <trkpt lat="41.620515040" lon="2.479813370">
        <ele>502.40</ele>
        <time>2014-02-23T10:25:46Z</time>
      </trkpt>
      <trkpt lat="41.620533480" lon="2.479841700">
        <ele>502.70</ele>
        <time>2014-02-23T10:25:47Z</time>
      </trkpt>
      <trkpt lat="41.620548400" lon="2.479870030">
        <ele>503.00</ele>
        <time>2014-02-23T10:25:48Z</time>
      </trkpt>
      <trkpt lat="41.620563490" lon="2.479901720">
        <ele>503.10</ele>
        <time>2014-02-23T10:25:49Z</time>
      </trkpt>
      <trkpt lat="41.620578410" lon="2.479935080">
        <ele>503.30</ele>
        <time>2014-02-23T10:25:50Z</time>
      </trkpt>
      <trkpt lat="41.620591820" lon="2.479971790">
        <ele>503.40</ele>
        <time>2014-02-23T10:25:51Z</time>
      </trkpt>
      <trkpt lat="41.620605060" lon="2.480008340">
        <ele>503.70</ele>
        <time>2014-02-23T10:25:52Z</time>
      </trkpt>
      <trkpt lat="41.620616800" lon="2.480048400">
        <ele>503.90</ele>
        <time>2014-02-23T10:25:53Z</time>
      </trkpt>
      <trkpt lat="41.620633390" lon="2.480088470">
        <ele>504.20</ele>
        <time>2014-02-23T10:25:54Z</time>
      </trkpt>
      <trkpt lat="41.620651660" lon="2.480128370">
        <ele>504.50</ele>
        <time>2014-02-23T10:25:55Z</time>
      </trkpt>
      <trkpt lat="41.620671780" lon="2.480166750">
        <ele>504.60</ele>
        <time>2014-02-23T10:25:56Z</time>
      </trkpt>
      <trkpt lat="41.620693410" lon="2.480203470">
        <ele>504.20</ele>
        <time>2014-02-23T10:25:57Z</time>
      </trkpt>
      <trkpt lat="41.620718380" lon="2.480236830">
        <ele>503.90</ele>
        <time>2014-02-23T10:25:58Z</time>
      </trkpt>
      <trkpt lat="41.620745040" lon="2.480270020">
        <ele>503.90</ele>
        <time>2014-02-23T10:25:59Z</time>
      </trkpt>
      <trkpt lat="41.620776720" lon="2.480296670">
        <ele>504.00</ele>
        <time>2014-02-23T10:26:00Z</time>
      </trkpt>
      <trkpt lat="41.620808410" lon="2.480321820">
        <ele>503.90</ele>
        <time>2014-02-23T10:26:01Z</time>
      </trkpt>
      <trkpt lat="41.620846800" lon="2.480341770">
        <ele>503.90</ele>
        <time>2014-02-23T10:26:02Z</time>
      </trkpt>
      <trkpt lat="41.620885020" lon="2.480358360">
        <ele>503.80</ele>
        <time>2014-02-23T10:26:03Z</time>
      </trkpt>
      <trkpt lat="41.620923410" lon="2.480365070">
        <ele>503.90</ele>
        <time>2014-02-23T10:26:04Z</time>
      </trkpt>
      <trkpt lat="41.620961800" lon="2.480360040">
        <ele>504.00</ele>
        <time>2014-02-23T10:26:05Z</time>
      </trkpt>
      <trkpt lat="41.621001690" lon="2.480356690">
        <ele>503.60</ele>
        <time>2014-02-23T10:26:06Z</time>
      </trkpt>
      <trkpt lat="41.621045110" lon="2.480361720">
        <ele>503.30</ele>
        <time>2014-02-23T10:26:07Z</time>
      </trkpt>
      <trkpt lat="41.621088360" lon="2.480383340">
        <ele>503.70</ele>
        <time>2014-02-23T10:26:08Z</time>
      </trkpt>
      <trkpt lat="41.621130100" lon="2.480415030">
        <ele>504.00</ele>
        <time>2014-02-23T10:26:09Z</time>
      </trkpt>
      <trkpt lat="41.621170000" lon="2.480453420">
        <ele>504.20</ele>
        <time>2014-02-23T10:26:10Z</time>
      </trkpt>
      <trkpt lat="41.621210070" lon="2.480483420">
        <ele>503.40</ele>
        <time>2014-02-23T10:26:11Z</time>
      </trkpt>
      <trkpt lat="41.621258350" lon="2.480501700">
        <ele>502.90</ele>
        <time>2014-02-23T10:26:12Z</time>
      </trkpt>
      <trkpt lat="41.621313330" lon="2.480513430">
        <ele>502.90</ele>
        <time>2014-02-23T10:26:13Z</time>
      </trkpt>
      <trkpt lat="41.621370160" lon="2.480516780">
        <ele>502.80</ele>
        <time>2014-02-23T10:26:14Z</time>
      </trkpt>
      <trkpt lat="41.621433360" lon="2.480520140">
        <ele>502.80</ele>
        <time>2014-02-23T10:26:15Z</time>
      </trkpt>
      <trkpt lat="41.621493380" lon="2.480526670">
        <ele>501.80</ele>
        <time>2014-02-23T10:26:16Z</time>
      </trkpt>
      <trkpt lat="41.621566800" lon="2.480541760">
        <ele>501.00</ele>
        <time>2014-02-23T10:26:17Z</time>
      </trkpt>
      <trkpt lat="41.621625140" lon="2.480573440">
        <ele>500.30</ele>
        <time>2014-02-23T10:26:18Z</time>
      </trkpt>
      <trkpt lat="41.621673420" lon="2.480598420">
        <ele>499.80</ele>
        <time>2014-02-23T10:26:19Z</time>
      </trkpt>
      <trkpt lat="41.621726730" lon="2.480603450">
        <ele>498.90</ele>
        <time>2014-02-23T10:26:20Z</time>
      </trkpt>
      <trkpt lat="41.621766790" lon="2.480598420">
        <ele>498.20</ele>
        <time>2014-02-23T10:26:21Z</time>
      </trkpt>
      <trkpt lat="41.621811720" lon="2.480596750">
        <ele>497.70</ele>
        <time>2014-02-23T10:26:22Z</time>
      </trkpt>
      <trkpt lat="41.621843400" lon="2.480616690">
        <ele>497.30</ele>
        <time>2014-02-23T10:26:23Z</time>
      </trkpt>
      <trkpt lat="41.621865030" lon="2.480645030">
        <ele>497.10</ele>
        <time>2014-02-23T10:26:24Z</time>
      </trkpt>
      <trkpt lat="41.621875090" lon="2.480676710">
        <ele>497.30</ele>
        <time>2014-02-23T10:26:25Z</time>
      </trkpt>
      <trkpt lat="41.621865030" lon="2.480710070">
        <ele>497.50</ele>
        <time>2014-02-23T10:26:26Z</time>
      </trkpt>
      <trkpt lat="41.621848430" lon="2.480741750">
        <ele>497.30</ele>
        <time>2014-02-23T10:26:27Z</time>
      </trkpt>
      <trkpt lat="41.621833350" lon="2.480781820">
        <ele>497.10</ele>
        <time>2014-02-23T10:26:28Z</time>
      </trkpt>
      <trkpt lat="41.621821780" lon="2.480835130">
        <ele>497.00</ele>
        <time>2014-02-23T10:26:29Z</time>
      </trkpt>
      <trkpt lat="41.621828480" lon="2.480885080">
        <ele>496.90</ele>
        <time>2014-02-23T10:26:30Z</time>
      </trkpt>
      <trkpt lat="41.621846760" lon="2.480930010">
        <ele>496.70</ele>
        <time>2014-02-23T10:26:31Z</time>
      </trkpt>
      <trkpt lat="41.621865030" lon="2.480971750">
        <ele>496.70</ele>
        <time>2014-02-23T10:26:32Z</time>
      </trkpt>
      <trkpt lat="41.621876760" lon="2.481015000">
        <ele>496.70</ele>
        <time>2014-02-23T10:26:33Z</time>
      </trkpt>
      <trkpt lat="41.621876760" lon="2.481056740">
        <ele>496.70</ele>
        <time>2014-02-23T10:26:34Z</time>
      </trkpt>
      <trkpt lat="41.621866710" lon="2.481095130">
        <ele>496.70</ele>
        <time>2014-02-23T10:26:35Z</time>
      </trkpt>
      <trkpt lat="41.621851790" lon="2.481128490">
        <ele>496.70</ele>
        <time>2014-02-23T10:26:36Z</time>
      </trkpt>
      <trkpt lat="41.621835020" lon="2.481160010">
        <ele>496.80</ele>
        <time>2014-02-23T10:26:37Z</time>
      </trkpt>
      <trkpt lat="41.621813400" lon="2.481191690">
        <ele>496.90</ele>
        <time>2014-02-23T10:26:38Z</time>
      </trkpt>
      <trkpt lat="41.621790090" lon="2.481223380">
        <ele>497.10</ele>
        <time>2014-02-23T10:26:39Z</time>
      </trkpt>
      <trkpt lat="41.621763440" lon="2.481250030">
        <ele>497.20</ele>
        <time>2014-02-23T10:26:40Z</time>
      </trkpt>
      <trkpt lat="41.621740140" lon="2.481271820">
        <ele>497.30</ele>
        <time>2014-02-23T10:26:41Z</time>
      </trkpt>
      <trkpt lat="41.621715160" lon="2.481290100">
        <ele>497.60</ele>
        <time>2014-02-23T10:26:42Z</time>
      </trkpt>
      <trkpt lat="41.621690010" lon="2.481313400">
        <ele>497.80</ele>
        <time>2014-02-23T10:26:43Z</time>
      </trkpt>
      <trkpt lat="41.621675100" lon="2.481348440">
        <ele>498.20</ele>
        <time>2014-02-23T10:26:44Z</time>
      </trkpt>
      <trkpt lat="41.621666710" lon="2.481391690">
        <ele>498.50</ele>
        <time>2014-02-23T10:26:45Z</time>
      </trkpt>
      <trkpt lat="41.621666710" lon="2.481436780">
        <ele>498.70</ele>
        <time>2014-02-23T10:26:46Z</time>
      </trkpt>
      <trkpt lat="41.621678450" lon="2.481478350">
        <ele>498.80</ele>
        <time>2014-02-23T10:26:47Z</time>
      </trkpt>
      <trkpt lat="41.621693370" lon="2.481516740">
        <ele>498.90</ele>
        <time>2014-02-23T10:26:48Z</time>
      </trkpt>
      <trkpt lat="41.621710130" lon="2.481551780">
        <ele>499.00</ele>
        <time>2014-02-23T10:26:49Z</time>
      </trkpt>
      <trkpt lat="41.621731760" lon="2.481580110">
        <ele>499.10</ele>
        <time>2014-02-23T10:26:50Z</time>
      </trkpt>
      <trkpt lat="41.621753380" lon="2.481606770">
        <ele>499.60</ele>
        <time>2014-02-23T10:26:51Z</time>
      </trkpt>
      <trkpt lat="41.621775010" lon="2.481635100">
        <ele>500.00</ele>
        <time>2014-02-23T10:26:52Z</time>
      </trkpt>
      <trkpt lat="41.621793450" lon="2.481666780">
        <ele>500.40</ele>
        <time>2014-02-23T10:26:53Z</time>
      </trkpt>
      <trkpt lat="41.621810040" lon="2.481698460">
        <ele>500.60</ele>
        <time>2014-02-23T10:26:54Z</time>
      </trkpt>
      <trkpt lat="41.621826810" lon="2.481728470">
        <ele>500.80</ele>
        <time>2014-02-23T10:26:55Z</time>
      </trkpt>
      <trkpt lat="41.621843400" lon="2.481760150">
        <ele>501.30</ele>
        <time>2014-02-23T10:26:56Z</time>
      </trkpt>
      <trkpt lat="41.621861680" lon="2.481793350">
        <ele>501.60</ele>
        <time>2014-02-23T10:26:57Z</time>
      </trkpt>
      <trkpt lat="41.621878440" lon="2.481825030">
        <ele>501.50</ele>
        <time>2014-02-23T10:26:58Z</time>
      </trkpt>
      <trkpt lat="41.621896710" lon="2.481851680">
        <ele>501.40</ele>
        <time>2014-02-23T10:26:59Z</time>
      </trkpt>
      <trkpt lat="41.621916830" lon="2.481873480">
        <ele>501.40</ele>
        <time>2014-02-23T10:27:00Z</time>
      </trkpt>
      <trkpt lat="41.621940130" lon="2.481896780">
        <ele>501.90</ele>
        <time>2014-02-23T10:27:01Z</time>
      </trkpt>
      <trkpt lat="41.621963430" lon="2.481921760">
        <ele>502.20</ele>
        <time>2014-02-23T10:27:02Z</time>
      </trkpt>
      <trkpt lat="41.621985060" lon="2.481951760">
        <ele>502.30</ele>
        <time>2014-02-23T10:27:03Z</time>
      </trkpt>
      <trkpt lat="41.622008360" lon="2.481985120">
        <ele>502.40</ele>
        <time>2014-02-23T10:27:04Z</time>
      </trkpt>
      <trkpt lat="41.622030150" lon="2.482025020">
        <ele>502.50</ele>
        <time>2014-02-23T10:27:05Z</time>
      </trkpt>
      <trkpt lat="41.622048430" lon="2.482066760">
        <ele>502.60</ele>
        <time>2014-02-23T10:27:06Z</time>
      </trkpt>
      <trkpt lat="41.622065020" lon="2.482108340">
        <ele>502.60</ele>
        <time>2014-02-23T10:27:07Z</time>
      </trkpt>
      <trkpt lat="41.622071730" lon="2.482153430">
        <ele>502.60</ele>
        <time>2014-02-23T10:27:08Z</time>
      </trkpt>
      <trkpt lat="41.622066700" lon="2.482205070">
        <ele>502.50</ele>
        <time>2014-02-23T10:27:09Z</time>
      </trkpt>
      <trkpt lat="41.622058480" lon="2.482253350">
        <ele>502.20</ele>
        <time>2014-02-23T10:27:10Z</time>
      </trkpt>
      <trkpt lat="41.622051780" lon="2.482308330">
        <ele>502.00</ele>
        <time>2014-02-23T10:27:11Z</time>
      </trkpt>
      <trkpt lat="41.622050100" lon="2.482368350">
        <ele>501.90</ele>
        <time>2014-02-23T10:27:12Z</time>
      </trkpt>
      <trkpt lat="41.622061670" lon="2.482428360">
        <ele>501.80</ele>
        <time>2014-02-23T10:27:13Z</time>
      </trkpt>
      <trkpt lat="41.622083460" lon="2.482490050">
        <ele>501.70</ele>
        <time>2014-02-23T10:27:14Z</time>
      </trkpt>
      <trkpt lat="41.622110120" lon="2.482545040">
        <ele>501.50</ele>
        <time>2014-02-23T10:27:15Z</time>
      </trkpt>
      <trkpt lat="41.622138450" lon="2.482595160">
        <ele>501.40</ele>
        <time>2014-02-23T10:27:16Z</time>
      </trkpt>
      <trkpt lat="41.622161750" lon="2.482641760">
        <ele>501.00</ele>
        <time>2014-02-23T10:27:17Z</time>
      </trkpt>
      <trkpt lat="41.622183370" lon="2.482691720">
        <ele>500.80</ele>
        <time>2014-02-23T10:27:18Z</time>
      </trkpt>
      <trkpt lat="41.622201810" lon="2.482741670">
        <ele>500.60</ele>
        <time>2014-02-23T10:27:19Z</time>
      </trkpt>
      <trkpt lat="41.622220090" lon="2.482788450">
        <ele>500.50</ele>
        <time>2014-02-23T10:27:20Z</time>
      </trkpt>
      <trkpt lat="41.622235010" lon="2.482836730">
        <ele>500.50</ele>
        <time>2014-02-23T10:27:21Z</time>
      </trkpt>
      <trkpt lat="41.622246740" lon="2.482881820">
        <ele>500.70</ele>
        <time>2014-02-23T10:27:22Z</time>
      </trkpt>
      <trkpt lat="41.622258480" lon="2.482928420">
        <ele>500.80</ele>
        <time>2014-02-23T10:27:23Z</time>
      </trkpt>
      <trkpt lat="41.622270040" lon="2.482973350">
        <ele>501.00</ele>
        <time>2014-02-23T10:27:24Z</time>
      </trkpt>
      <trkpt lat="41.622280100" lon="2.483015090">
        <ele>501.10</ele>
        <time>2014-02-23T10:27:25Z</time>
      </trkpt>
      <trkpt lat="41.622291670" lon="2.483056670">
        <ele>501.20</ele>
        <time>2014-02-23T10:27:26Z</time>
      </trkpt>
      <trkpt lat="41.622311780" lon="2.483093380">
        <ele>501.70</ele>
        <time>2014-02-23T10:27:27Z</time>
      </trkpt>
      <trkpt lat="41.622333410" lon="2.483125060">
        <ele>502.00</ele>
        <time>2014-02-23T10:27:28Z</time>
      </trkpt>
      <trkpt lat="41.622358390" lon="2.483148360">
        <ele>501.90</ele>
        <time>2014-02-23T10:27:29Z</time>
      </trkpt>
      <trkpt lat="41.622385040" lon="2.483166810">
        <ele>501.90</ele>
        <time>2014-02-23T10:27:30Z</time>
      </trkpt>
      <trkpt lat="41.622411700" lon="2.483186750">
        <ele>502.20</ele>
        <time>2014-02-23T10:27:31Z</time>
      </trkpt>
      <trkpt lat="41.622438350" lon="2.483206700">
        <ele>502.50</ele>
        <time>2014-02-23T10:27:32Z</time>
      </trkpt>
      <trkpt lat="41.622465010" lon="2.483225140">
        <ele>502.70</ele>
        <time>2014-02-23T10:27:33Z</time>
      </trkpt>
      <trkpt lat="41.622490150" lon="2.483245090">
        <ele>503.00</ele>
        <time>2014-02-23T10:27:34Z</time>
      </trkpt>
      <trkpt lat="41.622515130" lon="2.483265040">
        <ele>503.20</ele>
        <time>2014-02-23T10:27:35Z</time>
      </trkpt>
      <trkpt lat="41.622541780" lon="2.483286670">
        <ele>503.60</ele>
        <time>2014-02-23T10:27:36Z</time>
      </trkpt>
      <trkpt lat="41.622568440" lon="2.483303430">
        <ele>503.90</ele>
        <time>2014-02-23T10:27:37Z</time>
      </trkpt>
      <trkpt lat="41.622598450" lon="2.483315000">
        <ele>504.20</ele>
        <time>2014-02-23T10:27:38Z</time>
      </trkpt>
      <trkpt lat="41.622625100" lon="2.483323380">
        <ele>504.50</ele>
        <time>2014-02-23T10:27:39Z</time>
      </trkpt>
      <trkpt lat="41.622646730" lon="2.483333440">
        <ele>504.80</ele>
        <time>2014-02-23T10:27:40Z</time>
      </trkpt>
      <trkpt lat="41.622675060" lon="2.483340140">
        <ele>505.20</ele>
        <time>2014-02-23T10:27:41Z</time>
      </trkpt>
      <trkpt lat="41.622708420" lon="2.483341820">
        <ele>505.50</ele>
        <time>2014-02-23T10:27:42Z</time>
      </trkpt>
      <trkpt lat="41.622743450" lon="2.483346680">
        <ele>505.70</ele>
        <time>2014-02-23T10:27:43Z</time>
      </trkpt>
      <trkpt lat="41.622781670" lon="2.483360090">
        <ele>505.90</ele>
        <time>2014-02-23T10:27:44Z</time>
      </trkpt>
      <trkpt lat="41.622816710" lon="2.483376690">
        <ele>506.00</ele>
        <time>2014-02-23T10:27:45Z</time>
      </trkpt>
      <trkpt lat="41.622853420" lon="2.483388420">
        <ele>505.80</ele>
        <time>2014-02-23T10:27:46Z</time>
      </trkpt>
      <trkpt lat="41.622893490" lon="2.483388420">
        <ele>505.70</ele>
        <time>2014-02-23T10:27:47Z</time>
      </trkpt>
      <trkpt lat="41.622935060" lon="2.483371830">
        <ele>505.80</ele>
        <time>2014-02-23T10:27:48Z</time>
      </trkpt>
      <trkpt lat="41.622975130" lon="2.483355060">
        <ele>505.80</ele>
        <time>2014-02-23T10:27:49Z</time>
      </trkpt>
      <trkpt lat="41.623021730" lon="2.483338470">
        <ele>505.20</ele>
        <time>2014-02-23T10:27:50Z</time>
      </trkpt>
      <trkpt lat="41.623075040" lon="2.483336790">
        <ele>504.80</ele>
        <time>2014-02-23T10:27:51Z</time>
      </trkpt>
      <trkpt lat="41.623120140" lon="2.483355060">
        <ele>504.50</ele>
        <time>2014-02-23T10:27:52Z</time>
      </trkpt>
      <trkpt lat="41.623161710" lon="2.483378360">
        <ele>504.10</ele>
        <time>2014-02-23T10:27:53Z</time>
      </trkpt>
      <trkpt lat="41.623198420" lon="2.483421780">
        <ele>503.80</ele>
        <time>2014-02-23T10:27:54Z</time>
      </trkpt>
      <trkpt lat="41.623220050" lon="2.483468390">
        <ele>503.80</ele>
        <time>2014-02-23T10:27:55Z</time>
      </trkpt>
      <trkpt lat="41.623223400" lon="2.483511800">
        <ele>503.90</ele>
        <time>2014-02-23T10:27:56Z</time>
      </trkpt>
      <trkpt lat="41.623215020" lon="2.483565110">
        <ele>503.90</ele>
        <time>2014-02-23T10:27:57Z</time>
      </trkpt>
      <trkpt lat="41.623201780" lon="2.483618420">
        <ele>503.80</ele>
        <time>2014-02-23T10:27:58Z</time>
      </trkpt>
      <trkpt lat="41.623190040" lon="2.483675080">
        <ele>503.80</ele>
        <time>2014-02-23T10:27:59Z</time>
      </trkpt>
      <trkpt lat="41.623183330" lon="2.483733420">
        <ele>503.20</ele>
        <time>2014-02-23T10:28:00Z</time>
      </trkpt>
      <trkpt lat="41.623173440" lon="2.483796790">
        <ele>502.80</ele>
        <time>2014-02-23T10:28:01Z</time>
      </trkpt>
      <trkpt lat="41.623163390" lon="2.483861660">
        <ele>502.60</ele>
        <time>2014-02-23T10:28:02Z</time>
      </trkpt>
      <trkpt lat="41.623153500" lon="2.483936770">
        <ele>502.40</ele>
        <time>2014-02-23T10:28:03Z</time>
      </trkpt>
      <trkpt lat="41.623156680" lon="2.483995100">
        <ele>502.20</ele>
        <time>2014-02-23T10:28:04Z</time>
      </trkpt>
      <trkpt lat="41.623175120" lon="2.484046740">
        <ele>501.60</ele>
        <time>2014-02-23T10:28:05Z</time>
      </trkpt>
      <trkpt lat="41.623201780" lon="2.484090160">
        <ele>501.20</ele>
        <time>2014-02-23T10:28:06Z</time>
      </trkpt>
      <trkpt lat="41.623228430" lon="2.484118490">
        <ele>500.90</ele>
        <time>2014-02-23T10:28:07Z</time>
      </trkpt>
      <trkpt lat="41.623260110" lon="2.484143460">
        <ele>500.70</ele>
        <time>2014-02-23T10:28:08Z</time>
      </trkpt>
      <trkpt lat="41.623296830" lon="2.484160060">
        <ele>500.50</ele>
        <time>2014-02-23T10:28:09Z</time>
      </trkpt>
      <trkpt lat="41.623328340" lon="2.484176820">
        <ele>500.40</ele>
        <time>2014-02-23T10:28:10Z</time>
      </trkpt>
      <trkpt lat="41.623353490" lon="2.484191740">
        <ele>500.30</ele>
        <time>2014-02-23T10:28:11Z</time>
      </trkpt>
      <trkpt lat="41.623381820" lon="2.484203480">
        <ele>500.00</ele>
        <time>2014-02-23T10:28:12Z</time>
      </trkpt>
      <trkpt lat="41.623406800" lon="2.484215050">
        <ele>499.80</ele>
        <time>2014-02-23T10:28:13Z</time>
      </trkpt>
      <trkpt lat="41.623438480" lon="2.484221750">
        <ele>499.40</ele>
        <time>2014-02-23T10:28:14Z</time>
      </trkpt>
      <trkpt lat="41.623465130" lon="2.484228460">
        <ele>499.20</ele>
        <time>2014-02-23T10:28:15Z</time>
      </trkpt>
      <trkpt lat="41.623493470" lon="2.484235160">
        <ele>499.00</ele>
        <time>2014-02-23T10:28:16Z</time>
      </trkpt>
      <trkpt lat="41.623523470" lon="2.484240020">
        <ele>499.30</ele>
        <time>2014-02-23T10:28:17Z</time>
      </trkpt>
      <trkpt lat="41.623555160" lon="2.484241700">
        <ele>499.60</ele>
        <time>2014-02-23T10:28:18Z</time>
      </trkpt>
      <trkpt lat="41.623586670" lon="2.484246730">
        <ele>500.20</ele>
        <time>2014-02-23T10:28:19Z</time>
      </trkpt>
      <trkpt lat="41.623616680" lon="2.484255110">
        <ele>500.70</ele>
        <time>2014-02-23T10:28:20Z</time>
      </trkpt>
      <trkpt lat="41.623646690" lon="2.484265000">
        <ele>500.40</ele>
        <time>2014-02-23T10:28:21Z</time>
      </trkpt>
      <trkpt lat="41.623680050" lon="2.484273380">
        <ele>500.10</ele>
        <time>2014-02-23T10:28:22Z</time>
      </trkpt>
      <trkpt lat="41.623710050" lon="2.484283440">
        <ele>499.90</ele>
        <time>2014-02-23T10:28:23Z</time>
      </trkpt>
      <trkpt lat="41.623740060" lon="2.484295010">
        <ele>499.80</ele>
        <time>2014-02-23T10:28:24Z</time>
      </trkpt>
      <trkpt lat="41.623770070" lon="2.484305070">
        <ele>499.70</ele>
        <time>2014-02-23T10:28:25Z</time>
      </trkpt>
      <trkpt lat="41.623800080" lon="2.484315130">
        <ele>499.80</ele>
        <time>2014-02-23T10:28:26Z</time>
      </trkpt>
      <trkpt lat="41.623831760" lon="2.484326690">
        <ele>499.90</ele>
        <time>2014-02-23T10:28:27Z</time>
      </trkpt>
      <trkpt lat="41.623860090" lon="2.484345130">
        <ele>500.40</ele>
        <time>2014-02-23T10:28:28Z</time>
      </trkpt>
      <trkpt lat="41.623890100" lon="2.484363410">
        <ele>500.80</ele>
        <time>2014-02-23T10:28:29Z</time>
      </trkpt>
      <trkpt lat="41.623915070" lon="2.484386710">
        <ele>501.10</ele>
        <time>2014-02-23T10:28:30Z</time>
      </trkpt>
      <trkpt lat="41.623938380" lon="2.484418390">
        <ele>501.20</ele>
        <time>2014-02-23T10:28:31Z</time>
      </trkpt>
      <trkpt lat="41.623960000" lon="2.484451750">
        <ele>501.30</ele>
        <time>2014-02-23T10:28:32Z</time>
      </trkpt>
      <trkpt lat="41.623978440" lon="2.484486790">
        <ele>501.90</ele>
        <time>2014-02-23T10:28:33Z</time>
      </trkpt>
      <trkpt lat="41.623993360" lon="2.484523330">
        <ele>502.30</ele>
        <time>2014-02-23T10:28:34Z</time>
      </trkpt>
      <trkpt lat="41.623998390" lon="2.484556690">
        <ele>502.60</ele>
        <time>2014-02-23T10:28:35Z</time>
      </trkpt>
      <trkpt lat="41.624001740" lon="2.484590050">
        <ele>502.70</ele>
        <time>2014-02-23T10:28:36Z</time>
      </trkpt>
      <trkpt lat="41.624003420" lon="2.484623410">
        <ele>502.70</ele>
        <time>2014-02-23T10:28:37Z</time>
      </trkpt>
      <trkpt lat="41.624001740" lon="2.484655100">
        <ele>502.30</ele>
        <time>2014-02-23T10:28:38Z</time>
      </trkpt>
      <trkpt lat="41.624001740" lon="2.484688460">
        <ele>502.00</ele>
        <time>2014-02-23T10:28:39Z</time>
      </trkpt>
      <trkpt lat="41.624006770" lon="2.484716790">
        <ele>502.00</ele>
        <time>2014-02-23T10:28:40Z</time>
      </trkpt>
      <trkpt lat="41.624010130" lon="2.484746790">
        <ele>501.90</ele>
        <time>2014-02-23T10:28:41Z</time>
      </trkpt>
      <trkpt lat="41.624011800" lon="2.484780150">
        <ele>501.90</ele>
        <time>2014-02-23T10:28:42Z</time>
      </trkpt>
      <trkpt lat="41.624003420" lon="2.484813350">
        <ele>502.30</ele>
        <time>2014-02-23T10:28:43Z</time>
      </trkpt>
      <trkpt lat="41.623991690" lon="2.484845030">
        <ele>502.60</ele>
        <time>2014-02-23T10:28:44Z</time>
      </trkpt>
      <trkpt lat="41.623973410" lon="2.484868330">
        <ele>502.80</ele>
        <time>2014-02-23T10:28:45Z</time>
      </trkpt>
      <trkpt lat="41.623956820" lon="2.484890120">
        <ele>502.90</ele>
        <time>2014-02-23T10:28:46Z</time>
      </trkpt>
      <trkpt lat="41.623938380" lon="2.484910070">
        <ele>503.20</ele>
        <time>2014-02-23T10:28:47Z</time>
      </trkpt>
      <trkpt lat="41.623920100" lon="2.484928350">
        <ele>503.50</ele>
        <time>2014-02-23T10:28:48Z</time>
      </trkpt>
      <trkpt lat="41.623900160" lon="2.484948460">
        <ele>503.70</ele>
        <time>2014-02-23T10:28:49Z</time>
      </trkpt>
      <trkpt lat="41.623881720" lon="2.484971760">
        <ele>504.00</ele>
        <time>2014-02-23T10:28:50Z</time>
      </trkpt>
      <trkpt lat="41.623870150" lon="2.485000090">
        <ele>504.20</ele>
        <time>2014-02-23T10:28:51Z</time>
      </trkpt>
      <trkpt lat="41.623860090" lon="2.485035130">
        <ele>504.40</ele>
        <time>2014-02-23T10:28:52Z</time>
      </trkpt>
      <trkpt lat="41.623853380" lon="2.485071680">
        <ele>504.60</ele>
        <time>2014-02-23T10:28:53Z</time>
      </trkpt>
      <trkpt lat="41.623860090" lon="2.485108390">
        <ele>504.70</ele>
        <time>2014-02-23T10:28:54Z</time>
      </trkpt>
      <trkpt lat="41.623875010" lon="2.485141750">
        <ele>504.80</ele>
        <time>2014-02-23T10:28:55Z</time>
      </trkpt>
      <trkpt lat="41.623891770" lon="2.485171760">
        <ele>504.90</ele>
        <time>2014-02-23T10:28:56Z</time>
      </trkpt>
      <trkpt lat="41.623906690" lon="2.485203440">
        <ele>505.10</ele>
        <time>2014-02-23T10:28:57Z</time>
      </trkpt>
      <trkpt lat="41.623923460" lon="2.485233450">
        <ele>505.20</ele>
        <time>2014-02-23T10:28:58Z</time>
      </trkpt>
      <trkpt lat="41.623940050" lon="2.485263450">
        <ele>505.30</ele>
        <time>2014-02-23T10:28:59Z</time>
      </trkpt>
      <trkpt lat="41.623956820" lon="2.485291790">
        <ele>505.30</ele>
        <time>2014-02-23T10:29:00Z</time>
      </trkpt>
      <trkpt lat="41.623973410" lon="2.485323470">
        <ele>505.40</ele>
        <time>2014-02-23T10:29:01Z</time>
      </trkpt>
      <trkpt lat="41.623988330" lon="2.485353480">
        <ele>506.20</ele>
        <time>2014-02-23T10:29:02Z</time>
      </trkpt>
      <trkpt lat="41.624001740" lon="2.485385160">
        <ele>506.80</ele>
        <time>2014-02-23T10:29:03Z</time>
      </trkpt>
      <trkpt lat="41.624018340" lon="2.485413490">
        <ele>506.90</ele>
        <time>2014-02-23T10:29:04Z</time>
      </trkpt>
      <trkpt lat="41.624031750" lon="2.485445010">
        <ele>507.00</ele>
        <time>2014-02-23T10:29:05Z</time>
      </trkpt>
      <trkpt lat="41.624043490" lon="2.485478370">
        <ele>507.50</ele>
        <time>2014-02-23T10:29:06Z</time>
      </trkpt>
      <trkpt lat="41.624056730" lon="2.485506700">
        <ele>507.90</ele>
        <time>2014-02-23T10:29:07Z</time>
      </trkpt>
      <trkpt lat="41.624070140" lon="2.485533350">
        <ele>508.20</ele>
        <time>2014-02-23T10:29:08Z</time>
      </trkpt>
      <trkpt lat="41.624083380" lon="2.485560010">
        <ele>508.20</ele>
        <time>2014-02-23T10:29:09Z</time>
      </trkpt>
      <trkpt lat="41.624096790" lon="2.485583480">
        <ele>508.30</ele>
        <time>2014-02-23T10:29:10Z</time>
      </trkpt>
      <trkpt lat="41.624110040" lon="2.485605100">
        <ele>508.60</ele>
        <time>2014-02-23T10:29:11Z</time>
      </trkpt>
      <trkpt lat="41.624123450" lon="2.485626730">
        <ele>508.80</ele>
        <time>2014-02-23T10:29:12Z</time>
      </trkpt>
      <trkpt lat="41.624136690" lon="2.485646670">
        <ele>509.30</ele>
        <time>2014-02-23T10:29:13Z</time>
      </trkpt>
      <trkpt lat="41.624150100" lon="2.485670140">
        <ele>509.70</ele>
        <time>2014-02-23T10:29:14Z</time>
      </trkpt>
      <trkpt lat="41.624163350" lon="2.485690090">
        <ele>509.90</ele>
        <time>2014-02-23T10:29:15Z</time>
      </trkpt>
      <trkpt lat="41.624180110" lon="2.485706690">
        <ele>510.20</ele>
        <time>2014-02-23T10:29:16Z</time>
      </trkpt>
      <trkpt lat="41.624193350" lon="2.485725130">
        <ele>510.40</ele>
        <time>2014-02-23T10:29:17Z</time>
      </trkpt>
      <trkpt lat="41.624210120" lon="2.485741730">
        <ele>510.70</ele>
        <time>2014-02-23T10:29:18Z</time>
      </trkpt>
      <trkpt lat="41.624223360" lon="2.485766700">
        <ele>510.90</ele>
        <time>2014-02-23T10:29:19Z</time>
      </trkpt>
      <trkpt lat="41.624235100" lon="2.485790010">
        <ele>511.10</ele>
        <time>2014-02-23T10:29:20Z</time>
      </trkpt>
      <trkpt lat="41.624243480" lon="2.485815150">
        <ele>511.10</ele>
        <time>2014-02-23T10:29:21Z</time>
      </trkpt>
      <trkpt lat="41.624250020" lon="2.485840130">
        <ele>511.10</ele>
        <time>2014-02-23T10:29:22Z</time>
      </trkpt>
      <trkpt lat="41.624253370" lon="2.485863430">
        <ele>511.20</ele>
        <time>2014-02-23T10:29:23Z</time>
      </trkpt>
      <trkpt lat="41.624256720" lon="2.485881700">
        <ele>511.30</ele>
        <time>2014-02-23T10:29:24Z</time>
      </trkpt>
      <trkpt lat="41.624255040" lon="2.485903330">
        <ele>512.00</ele>
        <time>2014-02-23T10:29:25Z</time>
      </trkpt>
      <trkpt lat="41.624248340" lon="2.485930150">
        <ele>512.50</ele>
        <time>2014-02-23T10:29:26Z</time>
      </trkpt>
      <trkpt lat="41.624238450" lon="2.485951780">
        <ele>512.80</ele>
        <time>2014-02-23T10:29:27Z</time>
      </trkpt>
      <trkpt lat="41.624226710" lon="2.485968370">
        <ele>513.30</ele>
        <time>2014-02-23T10:29:28Z</time>
      </trkpt>
      <trkpt lat="41.624215150" lon="2.485983460">
        <ele>513.60</ele>
        <time>2014-02-23T10:29:29Z</time>
      </trkpt>
      <trkpt lat="41.624203410" lon="2.485996700">
        <ele>514.00</ele>
        <time>2014-02-23T10:29:30Z</time>
      </trkpt>
      <trkpt lat="41.624191680" lon="2.486006760">
        <ele>514.20</ele>
        <time>2014-02-23T10:29:31Z</time>
      </trkpt>
      <trkpt lat="41.624176760" lon="2.486015140">
        <ele>514.30</ele>
        <time>2014-02-23T10:29:32Z</time>
      </trkpt>
      <trkpt lat="41.624160160" lon="2.486021680">
        <ele>514.40</ele>
        <time>2014-02-23T10:29:33Z</time>
      </trkpt>
      <trkpt lat="41.624140050" lon="2.486028390">
        <ele>514.40</ele>
        <time>2014-02-23T10:29:34Z</time>
      </trkpt>
      <trkpt lat="41.624120100" lon="2.486036770">
        <ele>514.50</ele>
        <time>2014-02-23T10:29:35Z</time>
      </trkpt>
      <trkpt lat="41.624103330" lon="2.486041800">
        <ele>514.50</ele>
        <time>2014-02-23T10:29:36Z</time>
      </trkpt>
      <trkpt lat="41.624085060" lon="2.486045150">
        <ele>514.70</ele>
        <time>2014-02-23T10:29:37Z</time>
      </trkpt>
      <trkpt lat="41.624066790" lon="2.486048340">
        <ele>514.70</ele>
        <time>2014-02-23T10:29:38Z</time>
      </trkpt>
      <trkpt lat="41.624050020" lon="2.486055040">
        <ele>514.80</ele>
        <time>2014-02-23T10:29:39Z</time>
      </trkpt>
      <trkpt lat="41.624033430" lon="2.486061750">
        <ele>515.20</ele>
        <time>2014-02-23T10:29:40Z</time>
      </trkpt>
      <trkpt lat="41.624015150" lon="2.486066780">
        <ele>515.40</ele>
        <time>2014-02-23T10:29:41Z</time>
      </trkpt>
      <trkpt lat="41.623998390" lon="2.486075160">
        <ele>515.80</ele>
        <time>2014-02-23T10:29:42Z</time>
      </trkpt>
      <trkpt lat="41.623983470" lon="2.486085050">
        <ele>516.10</ele>
        <time>2014-02-23T10:29:43Z</time>
      </trkpt>
      <trkpt lat="41.623966710" lon="2.486088400">
        <ele>516.10</ele>
        <time>2014-02-23T10:29:44Z</time>
      </trkpt>
      <trkpt lat="41.623948430" lon="2.486093430">
        <ele>516.10</ele>
        <time>2014-02-23T10:29:45Z</time>
      </trkpt>
      <trkpt lat="41.623931670" lon="2.486101810">
        <ele>516.00</ele>
        <time>2014-02-23T10:29:46Z</time>
      </trkpt>
      <trkpt lat="41.623918430" lon="2.486110030">
        <ele>516.40</ele>
        <time>2014-02-23T10:29:47Z</time>
      </trkpt>
      <trkpt lat="41.623903340" lon="2.486120080">
        <ele>516.70</ele>
        <time>2014-02-23T10:29:48Z</time>
      </trkpt>
      <trkpt lat="41.623885070" lon="2.486130140">
        <ele>516.70</ele>
        <time>2014-02-23T10:29:49Z</time>
      </trkpt>
      <trkpt lat="41.623866800" lon="2.486140030">
        <ele>516.70</ele>
        <time>2014-02-23T10:29:50Z</time>
      </trkpt>
      <trkpt lat="41.623848360" lon="2.486146740">
        <ele>517.10</ele>
        <time>2014-02-23T10:29:51Z</time>
      </trkpt>
      <trkpt lat="41.623831760" lon="2.486155120">
        <ele>517.40</ele>
        <time>2014-02-23T10:29:52Z</time>
      </trkpt>
      <trkpt lat="41.623813490" lon="2.486161830">
        <ele>517.60</ele>
        <time>2014-02-23T10:29:53Z</time>
      </trkpt>
      <trkpt lat="41.623798400" lon="2.486168360">
        <ele>517.80</ele>
        <time>2014-02-23T10:29:54Z</time>
      </trkpt>
      <trkpt lat="41.623781800" lon="2.486176750">
        <ele>518.00</ele>
        <time>2014-02-23T10:29:55Z</time>
      </trkpt>
      <trkpt lat="41.623763360" lon="2.486185130">
        <ele>518.10</ele>
        <time>2014-02-23T10:29:56Z</time>
      </trkpt>
      <trkpt lat="41.623746770" lon="2.486193340">
        <ele>518.20</ele>
        <time>2014-02-23T10:29:57Z</time>
      </trkpt>
      <trkpt lat="41.623726820" lon="2.486200050">
        <ele>518.20</ele>
        <time>2014-02-23T10:29:58Z</time>
      </trkpt>
      <trkpt lat="41.623710050" lon="2.486206750">
        <ele>518.50</ele>
        <time>2014-02-23T10:29:59Z</time>
      </trkpt>
      <trkpt lat="41.623693460" lon="2.486218490">
        <ele>518.70</ele>
        <time>2014-02-23T10:30:00Z</time>
      </trkpt>
      <trkpt lat="41.623678370" lon="2.486226700">
        <ele>519.00</ele>
        <time>2014-02-23T10:30:01Z</time>
      </trkpt>
      <trkpt lat="41.623661770" lon="2.486235080">
        <ele>519.30</ele>
        <time>2014-02-23T10:30:02Z</time>
      </trkpt>
      <trkpt lat="41.623645010" lon="2.486243470">
        <ele>519.20</ele>
        <time>2014-02-23T10:30:03Z</time>
      </trkpt>
      <trkpt lat="41.623628410" lon="2.486260060">
        <ele>519.20</ele>
        <time>2014-02-23T10:30:04Z</time>
      </trkpt>
      <trkpt lat="41.623611820" lon="2.486280010">
        <ele>519.20</ele>
        <time>2014-02-23T10:30:05Z</time>
      </trkpt>
      <trkpt lat="41.623598410" lon="2.486300130">
        <ele>519.50</ele>
        <time>2014-02-23T10:30:06Z</time>
      </trkpt>
      <trkpt lat="41.623583490" lon="2.486318400">
        <ele>519.80</ele>
        <time>2014-02-23T10:30:07Z</time>
      </trkpt>
      <trkpt lat="41.623568400" lon="2.486340030">
        <ele>520.30</ele>
        <time>2014-02-23T10:30:08Z</time>
      </trkpt>
      <trkpt lat="41.623555160" lon="2.486360140">
        <ele>520.70</ele>
        <time>2014-02-23T10:30:09Z</time>
      </trkpt>
      <trkpt lat="41.623540070" lon="2.486380090">
        <ele>520.70</ele>
        <time>2014-02-23T10:30:10Z</time>
      </trkpt>
      <trkpt lat="41.623528330" lon="2.486398360">
        <ele>520.70</ele>
        <time>2014-02-23T10:30:11Z</time>
      </trkpt>
      <trkpt lat="41.623518440" lon="2.486418480">
        <ele>520.70</ele>
        <time>2014-02-23T10:30:12Z</time>
      </trkpt>
      <trkpt lat="41.623508390" lon="2.486436750">
        <ele>521.40</ele>
        <time>2014-02-23T10:30:13Z</time>
      </trkpt>
      <trkpt lat="41.623491790" lon="2.486451670">
        <ele>521.90</ele>
        <time>2014-02-23T10:30:14Z</time>
      </trkpt>
      <trkpt lat="41.623478380" lon="2.486465080">
        <ele>521.80</ele>
        <time>2014-02-23T10:30:15Z</time>
      </trkpt>
      <trkpt lat="41.623460110" lon="2.486478500">
        <ele>521.70</ele>
        <time>2014-02-23T10:30:16Z</time>
      </trkpt>
      <trkpt lat="41.623441670" lon="2.486490060">
        <ele>521.70</ele>
        <time>2014-02-23T10:30:17Z</time>
      </trkpt>
      <trkpt lat="41.623423390" lon="2.486500120">
        <ele>521.70</ele>
        <time>2014-02-23T10:30:18Z</time>
      </trkpt>
      <trkpt lat="41.623403440" lon="2.486511690">
        <ele>521.70</ele>
        <time>2014-02-23T10:30:19Z</time>
      </trkpt>
      <trkpt lat="41.623385000" lon="2.486523420">
        <ele>522.10</ele>
        <time>2014-02-23T10:30:20Z</time>
      </trkpt>
      <trkpt lat="41.623365050" lon="2.486533480">
        <ele>522.40</ele>
        <time>2014-02-23T10:30:21Z</time>
      </trkpt>
      <trkpt lat="41.623346780" lon="2.486541690">
        <ele>522.40</ele>
        <time>2014-02-23T10:30:22Z</time>
      </trkpt>
      <trkpt lat="41.623328340" lon="2.486551750">
        <ele>522.40</ele>
        <time>2014-02-23T10:30:23Z</time>
      </trkpt>
      <trkpt lat="41.623311750" lon="2.486561810">
        <ele>522.40</ele>
        <time>2014-02-23T10:30:24Z</time>
      </trkpt>
      <trkpt lat="41.623296830" lon="2.486573380">
        <ele>522.80</ele>
        <time>2014-02-23T10:30:25Z</time>
      </trkpt>
      <trkpt lat="41.623281740" lon="2.486583440">
        <ele>523.20</ele>
        <time>2014-02-23T10:30:26Z</time>
      </trkpt>
      <trkpt lat="41.623266820" lon="2.486593490">
        <ele>523.50</ele>
        <time>2014-02-23T10:30:27Z</time>
      </trkpt>
      <trkpt lat="41.623248380" lon="2.486600030">
        <ele>523.70</ele>
        <time>2014-02-23T10:30:28Z</time>
      </trkpt>
      <trkpt lat="41.623225080" lon="2.486605060">
        <ele>523.90</ele>
        <time>2014-02-23T10:30:29Z</time>
      </trkpt>
      <trkpt lat="41.623205130" lon="2.486610090">
        <ele>524.10</ele>
        <time>2014-02-23T10:30:30Z</time>
      </trkpt>
      <trkpt lat="41.623185010" lon="2.486620150">
        <ele>524.20</ele>
        <time>2014-02-23T10:30:31Z</time>
      </trkpt>
      <trkpt lat="41.623165060" lon="2.486631720">
        <ele>524.40</ele>
        <time>2014-02-23T10:30:32Z</time>
      </trkpt>
      <trkpt lat="41.623148470" lon="2.486643450">
        <ele>524.50</ele>
        <time>2014-02-23T10:30:33Z</time>
      </trkpt>
      <trkpt lat="41.623131700" lon="2.486651670">
        <ele>525.00</ele>
        <time>2014-02-23T10:30:34Z</time>
      </trkpt>
      <trkpt lat="41.623113430" lon="2.486660050">
        <ele>525.40</ele>
        <time>2014-02-23T10:30:35Z</time>
      </trkpt>
      <trkpt lat="41.623096670" lon="2.486666750">
        <ele>525.70</ele>
        <time>2014-02-23T10:30:36Z</time>
      </trkpt>
      <trkpt lat="41.623078390" lon="2.486673460">
        <ele>525.70</ele>
        <time>2014-02-23T10:30:37Z</time>
      </trkpt>
      <trkpt lat="41.623060120" lon="2.486681670">
        <ele>525.70</ele>
        <time>2014-02-23T10:30:38Z</time>
      </trkpt>
      <trkpt lat="41.623040000" lon="2.486695080">
        <ele>525.70</ele>
        <time>2014-02-23T10:30:39Z</time>
      </trkpt>
      <trkpt lat="41.623021730" lon="2.486701790">
        <ele>525.80</ele>
        <time>2014-02-23T10:30:40Z</time>
      </trkpt>
      <trkpt lat="41.623001780" lon="2.486708490">
        <ele>526.00</ele>
        <time>2014-02-23T10:30:41Z</time>
      </trkpt>
      <trkpt lat="41.622985020" lon="2.486718390">
        <ele>526.20</ele>
        <time>2014-02-23T10:30:42Z</time>
      </trkpt>
      <trkpt lat="41.622970100" lon="2.486731800">
        <ele>526.30</ele>
        <time>2014-02-23T10:30:43Z</time>
      </trkpt>
      <trkpt lat="41.622958360" lon="2.486751750">
        <ele>526.30</ele>
        <time>2014-02-23T10:30:44Z</time>
      </trkpt>
      <trkpt lat="41.622946800" lon="2.486773370">
        <ele>526.20</ele>
        <time>2014-02-23T10:30:45Z</time>
      </trkpt>
      <trkpt lat="41.622940090" lon="2.486791810">
        <ele>526.50</ele>
        <time>2014-02-23T10:30:46Z</time>
      </trkpt>
      <trkpt lat="41.622931710" lon="2.486810080">
        <ele>526.60</ele>
        <time>2014-02-23T10:30:47Z</time>
      </trkpt>
      <trkpt lat="41.622923500" lon="2.486826680">
        <ele>527.10</ele>
        <time>2014-02-23T10:30:48Z</time>
      </trkpt>
      <trkpt lat="41.622915110" lon="2.486845120">
        <ele>527.50</ele>
        <time>2014-02-23T10:30:49Z</time>
      </trkpt>
      <trkpt lat="41.622905060" lon="2.486861720">
        <ele>527.70</ele>
        <time>2014-02-23T10:30:50Z</time>
      </trkpt>
      <trkpt lat="41.622891810" lon="2.486883340">
        <ele>528.10</ele>
        <time>2014-02-23T10:30:51Z</time>
      </trkpt>
      <trkpt lat="41.622880080" lon="2.486915020">
        <ele>528.30</ele>
        <time>2014-02-23T10:30:52Z</time>
      </trkpt>
      <trkpt lat="41.622865160" lon="2.486953410">
        <ele>528.10</ele>
        <time>2014-02-23T10:30:53Z</time>
      </trkpt>
      <trkpt lat="41.622848390" lon="2.486996660">
        <ele>527.90</ele>
        <time>2014-02-23T10:30:54Z</time>
      </trkpt>
      <trkpt lat="41.622838340" lon="2.487038410">
        <ele>527.60</ele>
        <time>2014-02-23T10:30:55Z</time>
      </trkpt>
      <trkpt lat="41.622823420" lon="2.487083330">
        <ele>527.40</ele>
        <time>2014-02-23T10:30:56Z</time>
      </trkpt>
      <trkpt lat="41.622806820" lon="2.487125080">
        <ele>527.20</ele>
        <time>2014-02-23T10:30:57Z</time>
      </trkpt>
      <trkpt lat="41.622788380" lon="2.487165140">
        <ele>526.70</ele>
        <time>2014-02-23T10:30:58Z</time>
      </trkpt>
      <trkpt lat="41.622773460" lon="2.487205040">
        <ele>526.30</ele>
        <time>2014-02-23T10:30:59Z</time>
      </trkpt>
      <trkpt lat="41.622755020" lon="2.487246780">
        <ele>526.10</ele>
        <time>2014-02-23T10:31:00Z</time>
      </trkpt>
      <trkpt lat="41.622735070" lon="2.487288350">
        <ele>526.00</ele>
        <time>2014-02-23T10:31:01Z</time>
      </trkpt>
      <trkpt lat="41.622710090" lon="2.487331770">
        <ele>525.90</ele>
        <time>2014-02-23T10:31:02Z</time>
      </trkpt>
      <trkpt lat="41.622686790" lon="2.487371670">
        <ele>525.30</ele>
        <time>2014-02-23T10:31:03Z</time>
      </trkpt>
      <trkpt lat="41.622660140" lon="2.487410060">
        <ele>524.80</ele>
        <time>2014-02-23T10:31:04Z</time>
      </trkpt>
      <trkpt lat="41.622635160" lon="2.487450130">
        <ele>524.20</ele>
        <time>2014-02-23T10:31:05Z</time>
      </trkpt>
      <trkpt lat="41.622611690" lon="2.487493380">
        <ele>523.70</ele>
        <time>2014-02-23T10:31:06Z</time>
      </trkpt>
      <trkpt lat="41.622585030" lon="2.487535120">
        <ele>522.90</ele>
        <time>2014-02-23T10:31:07Z</time>
      </trkpt>
      <trkpt lat="41.622555030" lon="2.487575020">
        <ele>522.40</ele>
        <time>2014-02-23T10:31:08Z</time>
      </trkpt>
      <trkpt lat="41.622528370" lon="2.487603350">
        <ele>522.00</ele>
        <time>2014-02-23T10:31:09Z</time>
      </trkpt>
      <trkpt lat="41.622498370" lon="2.487623460">
        <ele>521.30</ele>
        <time>2014-02-23T10:31:10Z</time>
      </trkpt>
      <trkpt lat="41.622466680" lon="2.487643410">
        <ele>520.90</ele>
        <time>2014-02-23T10:31:11Z</time>
      </trkpt>
      <trkpt lat="41.622435000" lon="2.487658330">
        <ele>520.70</ele>
        <time>2014-02-23T10:31:12Z</time>
      </trkpt>
      <trkpt lat="41.622406670" lon="2.487671740">
        <ele>520.60</ele>
        <time>2014-02-23T10:31:13Z</time>
      </trkpt>
      <trkpt lat="41.622383370" lon="2.487686660">
        <ele>520.50</ele>
        <time>2014-02-23T10:31:14Z</time>
      </trkpt>
      <trkpt lat="41.622361740" lon="2.487708460">
        <ele>520.00</ele>
        <time>2014-02-23T10:31:15Z</time>
      </trkpt>
      <trkpt lat="41.622348330" lon="2.487736790">
        <ele>519.60</ele>
        <time>2014-02-23T10:31:16Z</time>
      </trkpt>
      <trkpt lat="41.622343470" lon="2.487766790">
        <ele>519.90</ele>
        <time>2014-02-23T10:31:17Z</time>
      </trkpt>
      <trkpt lat="41.622346820" lon="2.487795120">
        <ele>520.20</ele>
        <time>2014-02-23T10:31:18Z</time>
      </trkpt>
      <trkpt lat="41.622353360" lon="2.487818430">
        <ele>520.70</ele>
        <time>2014-02-23T10:31:19Z</time>
      </trkpt>
      <trkpt lat="41.622363420" lon="2.487838380">
        <ele>521.10</ele>
        <time>2014-02-23T10:31:20Z</time>
      </trkpt>
      <trkpt lat="41.622376830" lon="2.487855140">
        <ele>521.30</ele>
        <time>2014-02-23T10:31:21Z</time>
      </trkpt>
      <trkpt lat="41.622390070" lon="2.487870060">
        <ele>521.40</ele>
        <time>2014-02-23T10:31:22Z</time>
      </trkpt>
      <trkpt lat="41.622403480" lon="2.487890010">
        <ele>521.40</ele>
        <time>2014-02-23T10:31:23Z</time>
      </trkpt>
      <trkpt lat="41.622416730" lon="2.487905090">
        <ele>521.60</ele>
        <time>2014-02-23T10:31:24Z</time>
      </trkpt>
      <trkpt lat="41.622428460" lon="2.487921690">
        <ele>521.70</ele>
        <time>2014-02-23T10:31:25Z</time>
      </trkpt>
      <trkpt lat="41.622445060" lon="2.487938450">
        <ele>521.90</ele>
        <time>2014-02-23T10:31:26Z</time>
      </trkpt>
      <trkpt lat="41.622451760" lon="2.487953370">
        <ele>522.00</ele>
        <time>2014-02-23T10:31:27Z</time>
      </trkpt>
      <trkpt lat="41.622451760" lon="2.487960080">
        <ele>522.10</ele>
        <time>2014-02-23T10:31:28Z</time>
      </trkpt>
      <trkpt lat="41.622450090" lon="2.487953370">
        <ele>522.00</ele>
        <time>2014-02-23T10:31:29Z</time>
      </trkpt>
      <trkpt lat="41.622450090" lon="2.487955050">
        <ele>522.00</ele>
        <time>2014-02-23T10:31:30Z</time>
      </trkpt>
      <trkpt lat="41.622453440" lon="2.487960080">
        <ele>522.10</ele>
        <time>2014-02-23T10:31:31Z</time>
      </trkpt>
      <trkpt lat="41.622458470" lon="2.487968460">
        <ele>522.10</ele>
        <time>2014-02-23T10:31:32Z</time>
      </trkpt>
      <trkpt lat="41.622465010" lon="2.487980030">
        <ele>522.40</ele>
        <time>2014-02-23T10:31:33Z</time>
      </trkpt>
      <trkpt lat="41.622473390" lon="2.487995120">
        <ele>522.50</ele>
        <time>2014-02-23T10:31:34Z</time>
      </trkpt>
      <trkpt lat="41.622485120" lon="2.488011710">
        <ele>522.70</ele>
        <time>2014-02-23T10:31:35Z</time>
      </trkpt>
      <trkpt lat="41.622493340" lon="2.488028480">
        <ele>523.00</ele>
        <time>2014-02-23T10:31:36Z</time>
      </trkpt>
      <trkpt lat="41.622506750" lon="2.488045070">
        <ele>523.30</ele>
        <time>2014-02-23T10:31:37Z</time>
      </trkpt>
      <trkpt lat="41.622518480" lon="2.488060160">
        <ele>523.70</ele>
        <time>2014-02-23T10:31:38Z</time>
      </trkpt>
      <trkpt lat="41.622531730" lon="2.488076760">
        <ele>524.00</ele>
        <time>2014-02-23T10:31:39Z</time>
      </trkpt>
      <trkpt lat="41.622540110" lon="2.488088490">
        <ele>524.20</ele>
        <time>2014-02-23T10:31:40Z</time>
      </trkpt>
      <trkpt lat="41.622551670" lon="2.488103410">
        <ele>524.40</ele>
        <time>2014-02-23T10:31:41Z</time>
      </trkpt>
      <trkpt lat="41.622561730" lon="2.488118330">
        <ele>524.60</ele>
        <time>2014-02-23T10:31:42Z</time>
      </trkpt>
      <trkpt lat="41.622571790" lon="2.488133420">
        <ele>524.80</ele>
        <time>2014-02-23T10:31:43Z</time>
      </trkpt>
      <trkpt lat="41.622583360" lon="2.488151690">
        <ele>525.00</ele>
        <time>2014-02-23T10:31:44Z</time>
      </trkpt>
      <trkpt lat="41.622595090" lon="2.488173480">
        <ele>524.90</ele>
        <time>2014-02-23T10:31:45Z</time>
      </trkpt>
      <trkpt lat="41.622608340" lon="2.488193430">
        <ele>524.80</ele>
        <time>2014-02-23T10:31:46Z</time>
      </trkpt>
      <trkpt lat="41.622620070" lon="2.488213380">
        <ele>524.70</ele>
        <time>2014-02-23T10:31:47Z</time>
      </trkpt>
      <trkpt lat="41.622631810" lon="2.488228470">
        <ele>525.00</ele>
        <time>2014-02-23T10:31:48Z</time>
      </trkpt>
      <trkpt lat="41.622643370" lon="2.488243390">
        <ele>525.20</ele>
        <time>2014-02-23T10:31:49Z</time>
      </trkpt>
      <trkpt lat="41.622650080" lon="2.488263340">
        <ele>525.60</ele>
        <time>2014-02-23T10:31:50Z</time>
      </trkpt>
      <trkpt lat="41.622658460" lon="2.488281780">
        <ele>525.90</ele>
        <time>2014-02-23T10:31:51Z</time>
      </trkpt>
      <trkpt lat="41.622668350" lon="2.488300050">
        <ele>526.10</ele>
        <time>2014-02-23T10:31:52Z</time>
      </trkpt>
      <trkpt lat="41.622678410" lon="2.488315140">
        <ele>526.20</ele>
        <time>2014-02-23T10:31:53Z</time>
      </trkpt>
      <trkpt lat="41.622688470" lon="2.488333410">
        <ele>526.30</ele>
        <time>2014-02-23T10:31:54Z</time>
      </trkpt>
      <trkpt lat="41.622696680" lon="2.488348330">
        <ele>526.90</ele>
        <time>2014-02-23T10:31:55Z</time>
      </trkpt>
      <trkpt lat="41.622703390" lon="2.488363420">
        <ele>527.30</ele>
        <time>2014-02-23T10:31:56Z</time>
      </trkpt>
      <trkpt lat="41.622711770" lon="2.488378340">
        <ele>527.70</ele>
        <time>2014-02-23T10:31:57Z</time>
      </trkpt>
      <trkpt lat="41.622720150" lon="2.488390070">
        <ele>527.90</ele>
        <time>2014-02-23T10:31:58Z</time>
      </trkpt>
      <trkpt lat="41.622731720" lon="2.488401810">
        <ele>528.20</ele>
        <time>2014-02-23T10:31:59Z</time>
      </trkpt>
      <trkpt lat="41.622743450" lon="2.488410020">
        <ele>528.10</ele>
        <time>2014-02-23T10:32:00Z</time>
      </trkpt>
      <trkpt lat="41.622755020" lon="2.488415050">
        <ele>528.10</ele>
        <time>2014-02-23T10:32:01Z</time>
      </trkpt>
      <trkpt lat="41.622766750" lon="2.488421760">
        <ele>528.40</ele>
        <time>2014-02-23T10:32:02Z</time>
      </trkpt>
      <trkpt lat="41.622776810" lon="2.488423430">
        <ele>528.60</ele>
        <time>2014-02-23T10:32:03Z</time>
      </trkpt>
      <trkpt lat="41.622791730" lon="2.488418400">
        <ele>529.00</ele>
        <time>2014-02-23T10:32:04Z</time>
      </trkpt>
      <trkpt lat="41.622801790" lon="2.488413370">
        <ele>529.30</ele>
        <time>2014-02-23T10:32:05Z</time>
      </trkpt>
      <trkpt lat="41.622811680" lon="2.488413370">
        <ele>529.50</ele>
        <time>2014-02-23T10:32:06Z</time>
      </trkpt>
      <trkpt lat="41.622821740" lon="2.488418400">
        <ele>529.70</ele>
        <time>2014-02-23T10:32:07Z</time>
      </trkpt>
      <trkpt lat="41.622828450" lon="2.488421760">
        <ele>529.80</ele>
        <time>2014-02-23T10:32:08Z</time>
      </trkpt>
      <trkpt lat="41.622836830" lon="2.488428460">
        <ele>529.70</ele>
        <time>2014-02-23T10:32:09Z</time>
      </trkpt>
      <trkpt lat="41.622846720" lon="2.488433490">
        <ele>529.70</ele>
        <time>2014-02-23T10:32:10Z</time>
      </trkpt>
      <trkpt lat="41.622858450" lon="2.488438350">
        <ele>529.70</ele>
        <time>2014-02-23T10:32:11Z</time>
      </trkpt>
      <trkpt lat="41.622868340" lon="2.488443380">
        <ele>530.10</ele>
        <time>2014-02-23T10:32:12Z</time>
      </trkpt>
      <trkpt lat="41.622878400" lon="2.488448410">
        <ele>530.50</ele>
        <time>2014-02-23T10:32:13Z</time>
      </trkpt>
      <trkpt lat="41.622888460" lon="2.488456790">
        <ele>531.10</ele>
        <time>2014-02-23T10:32:14Z</time>
      </trkpt>
      <trkpt lat="41.622895000" lon="2.488461820">
        <ele>531.60</ele>
        <time>2014-02-23T10:32:15Z</time>
      </trkpt>
      <trkpt lat="41.622905060" lon="2.488470040">
        <ele>531.40</ele>
        <time>2014-02-23T10:32:16Z</time>
      </trkpt>
      <trkpt lat="41.622916790" lon="2.488476740">
        <ele>531.40</ele>
        <time>2014-02-23T10:32:17Z</time>
      </trkpt>
      <trkpt lat="41.622928360" lon="2.488481770">
        <ele>531.30</ele>
        <time>2014-02-23T10:32:18Z</time>
      </trkpt>
      <trkpt lat="41.622938420" lon="2.488486800">
        <ele>531.60</ele>
        <time>2014-02-23T10:32:19Z</time>
      </trkpt>
      <trkpt lat="41.622948470" lon="2.488493340">
        <ele>531.80</ele>
        <time>2014-02-23T10:32:20Z</time>
      </trkpt>
      <trkpt lat="41.622955010" lon="2.488498370">
        <ele>531.80</ele>
        <time>2014-02-23T10:32:21Z</time>
      </trkpt>
      <trkpt lat="41.622965070" lon="2.488505070">
        <ele>531.90</ele>
        <time>2014-02-23T10:32:22Z</time>
      </trkpt>
      <trkpt lat="41.622973450" lon="2.488508420">
        <ele>532.50</ele>
        <time>2014-02-23T10:32:23Z</time>
      </trkpt>
      <trkpt lat="41.622981670" lon="2.488513450">
        <ele>532.90</ele>
        <time>2014-02-23T10:32:24Z</time>
      </trkpt>
      <trkpt lat="41.622988370" lon="2.488518480">
        <ele>533.20</ele>
        <time>2014-02-23T10:32:25Z</time>
      </trkpt>
      <trkpt lat="41.622996750" lon="2.488525020">
        <ele>533.30</ele>
        <time>2014-02-23T10:32:26Z</time>
      </trkpt>
      <trkpt lat="41.623003460" lon="2.488530050">
        <ele>533.40</ele>
        <time>2014-02-23T10:32:27Z</time>
      </trkpt>
      <trkpt lat="41.623011670" lon="2.488536760">
        <ele>533.80</ele>
        <time>2014-02-23T10:32:28Z</time>
      </trkpt>
      <trkpt lat="41.623021730" lon="2.488541780">
        <ele>534.10</ele>
        <time>2014-02-23T10:32:29Z</time>
      </trkpt>
      <trkpt lat="41.623033470" lon="2.488546810">
        <ele>534.40</ele>
        <time>2014-02-23T10:32:30Z</time>
      </trkpt>
      <trkpt lat="41.623046710" lon="2.488548490">
        <ele>534.70</ele>
        <time>2014-02-23T10:32:31Z</time>
      </trkpt>
      <trkpt lat="41.623060120" lon="2.488548490">
        <ele>534.90</ele>
        <time>2014-02-23T10:32:32Z</time>
      </trkpt>
      <trkpt lat="41.623070010" lon="2.488551670">
        <ele>535.00</ele>
        <time>2014-02-23T10:32:33Z</time>
      </trkpt>
      <trkpt lat="41.623080070" lon="2.488555030">
        <ele>535.00</ele>
        <time>2014-02-23T10:32:34Z</time>
      </trkpt>
      <trkpt lat="41.623091800" lon="2.488555030">
        <ele>535.30</ele>
        <time>2014-02-23T10:32:35Z</time>
      </trkpt>
      <trkpt lat="41.623101700" lon="2.488553350">
        <ele>535.50</ele>
        <time>2014-02-23T10:32:36Z</time>
      </trkpt>
      <trkpt lat="41.623113430" lon="2.488548490">
        <ele>535.70</ele>
        <time>2014-02-23T10:32:37Z</time>
      </trkpt>
      <trkpt lat="41.623121810" lon="2.488548490">
        <ele>535.80</ele>
        <time>2014-02-23T10:32:38Z</time>
      </trkpt>
      <trkpt lat="41.623125000" lon="2.488548490">
        <ele>535.80</ele>
        <time>2014-02-23T10:32:39Z</time>
      </trkpt>
      <trkpt lat="41.623126670" lon="2.488550000">
        <ele>535.90</ele>
        <time>2014-02-23T10:32:40Z</time>
      </trkpt>
      <trkpt lat="41.623133380" lon="2.488553350">
        <ele>535.90</ele>
        <time>2014-02-23T10:32:41Z</time>
      </trkpt>
      <trkpt lat="41.623143440" lon="2.488553350">
        <ele>536.10</ele>
        <time>2014-02-23T10:32:42Z</time>
      </trkpt>
      <trkpt lat="41.623155000" lon="2.488550000">
        <ele>536.30</ele>
        <time>2014-02-23T10:32:43Z</time>
      </trkpt>
      <trkpt lat="41.623165060" lon="2.488543460">
        <ele>536.40</ele>
        <time>2014-02-23T10:32:44Z</time>
      </trkpt>
      <trkpt lat="41.623180150" lon="2.488533400">
        <ele>536.80</ele>
        <time>2014-02-23T10:32:45Z</time>
      </trkpt>
      <trkpt lat="41.623193390" lon="2.488528370">
        <ele>537.10</ele>
        <time>2014-02-23T10:32:46Z</time>
      </trkpt>
      <trkpt lat="41.623215020" lon="2.488515130">
        <ele>536.70</ele>
        <time>2014-02-23T10:32:47Z</time>
      </trkpt>
      <trkpt lat="41.623238490" lon="2.488496690">
        <ele>536.50</ele>
        <time>2014-02-23T10:32:48Z</time>
      </trkpt>
      <trkpt lat="41.623260110" lon="2.488478420">
        <ele>536.30</ele>
        <time>2014-02-23T10:32:49Z</time>
      </trkpt>
      <trkpt lat="41.623283410" lon="2.488461820">
        <ele>536.10</ele>
        <time>2014-02-23T10:32:50Z</time>
      </trkpt>
      <trkpt lat="41.623300010" lon="2.488443380">
        <ele>535.90</ele>
        <time>2014-02-23T10:32:51Z</time>
      </trkpt>
      <trkpt lat="41.623320130" lon="2.488430140">
        <ele>535.50</ele>
        <time>2014-02-23T10:32:52Z</time>
      </trkpt>
      <trkpt lat="41.623340080" lon="2.488418400">
        <ele>535.30</ele>
        <time>2014-02-23T10:32:53Z</time>
      </trkpt>
      <trkpt lat="41.623361700" lon="2.488403480">
        <ele>534.90</ele>
        <time>2014-02-23T10:32:54Z</time>
      </trkpt>
      <trkpt lat="41.623378470" lon="2.488390070">
        <ele>534.60</ele>
        <time>2014-02-23T10:32:55Z</time>
      </trkpt>
      <trkpt lat="41.623386680" lon="2.488376830">
        <ele>534.40</ele>
        <time>2014-02-23T10:32:56Z</time>
      </trkpt>
      <trkpt lat="41.623405120" lon="2.488356710">
        <ele>534.30</ele>
        <time>2014-02-23T10:32:57Z</time>
      </trkpt>
      <trkpt lat="41.623423390" lon="2.488335090">
        <ele>534.20</ele>
        <time>2014-02-23T10:32:58Z</time>
      </trkpt>
      <trkpt lat="41.623441670" lon="2.488325030">
        <ele>533.60</ele>
        <time>2014-02-23T10:32:59Z</time>
      </trkpt>
      <trkpt lat="41.623458430" lon="2.488315140">
        <ele>533.10</ele>
        <time>2014-02-23T10:33:00Z</time>
      </trkpt>
      <trkpt lat="41.623471670" lon="2.488305080">
        <ele>532.50</ele>
        <time>2014-02-23T10:33:01Z</time>
      </trkpt>
      <trkpt lat="41.623493470" lon="2.488293340">
        <ele>532.10</ele>
        <time>2014-02-23T10:33:02Z</time>
      </trkpt>
      <trkpt lat="41.623516770" lon="2.488276750">
        <ele>531.80</ele>
        <time>2014-02-23T10:33:03Z</time>
      </trkpt>
      <trkpt lat="41.623535040" lon="2.488265010">
        <ele>531.20</ele>
        <time>2014-02-23T10:33:04Z</time>
      </trkpt>
      <trkpt lat="41.623560020" lon="2.488253450">
        <ele>530.80</ele>
        <time>2014-02-23T10:33:05Z</time>
      </trkpt>
      <trkpt lat="41.623575100" lon="2.488250090">
        <ele>530.30</ele>
        <time>2014-02-23T10:33:06Z</time>
      </trkpt>
      <trkpt lat="41.623596730" lon="2.488246740">
        <ele>529.90</ele>
        <time>2014-02-23T10:33:07Z</time>
      </trkpt>
      <trkpt lat="41.623621710" lon="2.488240040">
        <ele>529.30</ele>
        <time>2014-02-23T10:33:08Z</time>
      </trkpt>
      <trkpt lat="41.623646690" lon="2.488231820">
        <ele>528.90</ele>
        <time>2014-02-23T10:33:09Z</time>
      </trkpt>
      <trkpt lat="41.623666800" lon="2.488221760">
        <ele>528.60</ele>
        <time>2014-02-23T10:33:10Z</time>
      </trkpt>
      <trkpt lat="41.623685080" lon="2.488213380">
        <ele>528.50</ele>
        <time>2014-02-23T10:33:11Z</time>
      </trkpt>
      <trkpt lat="41.623698490" lon="2.488206680">
        <ele>528.40</ele>
        <time>2014-02-23T10:33:12Z</time>
      </trkpt>
      <trkpt lat="41.623715080" lon="2.488198460">
        <ele>528.20</ele>
        <time>2014-02-23T10:33:13Z</time>
      </trkpt>
      <trkpt lat="41.623735030" lon="2.488193430">
        <ele>528.10</ele>
        <time>2014-02-23T10:33:14Z</time>
      </trkpt>
      <trkpt lat="41.623753470" lon="2.488188400">
        <ele>528.10</ele>
        <time>2014-02-23T10:33:15Z</time>
      </trkpt>
      <trkpt lat="41.623766720" lon="2.488185050">
        <ele>527.50</ele>
        <time>2014-02-23T10:33:16Z</time>
      </trkpt>
      <trkpt lat="41.623781800" lon="2.488186730">
        <ele>527.00</ele>
        <time>2014-02-23T10:33:17Z</time>
      </trkpt>
      <trkpt lat="41.623800080" lon="2.488191760">
        <ele>526.80</ele>
        <time>2014-02-23T10:33:18Z</time>
      </trkpt>
      <trkpt lat="41.623820020" lon="2.488193430">
        <ele>526.60</ele>
        <time>2014-02-23T10:33:19Z</time>
      </trkpt>
      <trkpt lat="41.623840140" lon="2.488195110">
        <ele>526.20</ele>
        <time>2014-02-23T10:33:20Z</time>
      </trkpt>
      <trkpt lat="41.623860090" lon="2.488186730">
        <ele>526.00</ele>
        <time>2014-02-23T10:33:21Z</time>
      </trkpt>
      <trkpt lat="41.623878360" lon="2.488178350">
        <ele>525.80</ele>
        <time>2014-02-23T10:33:22Z</time>
      </trkpt>
      <trkpt lat="41.623900160" lon="2.488173480">
        <ele>525.70</ele>
        <time>2014-02-23T10:33:23Z</time>
      </trkpt>
      <trkpt lat="41.623918430" lon="2.488173480">
        <ele>525.70</ele>
        <time>2014-02-23T10:33:24Z</time>
      </trkpt>
      <trkpt lat="41.623935020" lon="2.488175160">
        <ele>525.10</ele>
        <time>2014-02-23T10:33:25Z</time>
      </trkpt>
      <trkpt lat="41.623955140" lon="2.488178350">
        <ele>524.60</ele>
        <time>2014-02-23T10:33:26Z</time>
      </trkpt>
      <trkpt lat="41.623983470" lon="2.488176670">
        <ele>524.80</ele>
        <time>2014-02-23T10:33:27Z</time>
      </trkpt>
      <trkpt lat="41.624010130" lon="2.488170130">
        <ele>524.90</ele>
        <time>2014-02-23T10:33:28Z</time>
      </trkpt>
      <trkpt lat="41.624038460" lon="2.488163430">
        <ele>525.00</ele>
        <time>2014-02-23T10:33:29Z</time>
      </trkpt>
      <trkpt lat="41.624063430" lon="2.488160070">
        <ele>524.60</ele>
        <time>2014-02-23T10:33:30Z</time>
      </trkpt>
      <trkpt lat="41.624095120" lon="2.488156720">
        <ele>524.40</ele>
        <time>2014-02-23T10:33:31Z</time>
      </trkpt>
      <trkpt lat="41.624131660" lon="2.488166780">
        <ele>524.00</ele>
        <time>2014-02-23T10:33:32Z</time>
      </trkpt>
      <trkpt lat="41.624165020" lon="2.488178350">
        <ele>523.70</ele>
        <time>2014-02-23T10:33:33Z</time>
      </trkpt>
      <trkpt lat="41.624203410" lon="2.488183370">
        <ele>523.40</ele>
        <time>2014-02-23T10:33:34Z</time>
      </trkpt>
      <trkpt lat="41.624243480" lon="2.488183370">
        <ele>522.50</ele>
        <time>2014-02-23T10:33:35Z</time>
      </trkpt>
      <trkpt lat="41.624278350" lon="2.488181700">
        <ele>521.80</ele>
        <time>2014-02-23T10:33:36Z</time>
      </trkpt>
      <trkpt lat="41.624320090" lon="2.488175160">
        <ele>521.80</ele>
        <time>2014-02-23T10:33:37Z</time>
      </trkpt>
      <trkpt lat="41.624360150" lon="2.488166780">
        <ele>521.80</ele>
        <time>2014-02-23T10:33:38Z</time>
      </trkpt>
      <trkpt lat="41.624396700" lon="2.488158400">
        <ele>521.70</ele>
        <time>2014-02-23T10:33:39Z</time>
      </trkpt>
      <trkpt lat="41.624423350" lon="2.488153370">
        <ele>521.60</ele>
        <time>2014-02-23T10:33:40Z</time>
      </trkpt>
      <trkpt lat="41.624448330" lon="2.488141800">
        <ele>521.50</ele>
        <time>2014-02-23T10:33:41Z</time>
      </trkpt>
      <trkpt lat="41.624481690" lon="2.488126710">
        <ele>521.70</ele>
        <time>2014-02-23T10:33:42Z</time>
      </trkpt>
      <trkpt lat="41.624520080" lon="2.488105090">
        <ele>521.70</ele>
        <time>2014-02-23T10:33:43Z</time>
      </trkpt>
      <trkpt lat="41.624560150" lon="2.488090000">
        <ele>521.50</ele>
        <time>2014-02-23T10:33:44Z</time>
      </trkpt>
      <trkpt lat="41.624596690" lon="2.488075080">
        <ele>521.30</ele>
        <time>2014-02-23T10:33:45Z</time>
      </trkpt>
      <trkpt lat="41.624635080" lon="2.488060160">
        <ele>521.90</ele>
        <time>2014-02-23T10:33:46Z</time>
      </trkpt>
      <trkpt lat="41.624673470" lon="2.488045070">
        <ele>522.40</ele>
        <time>2014-02-23T10:33:47Z</time>
      </trkpt>
      <trkpt lat="41.624710010" lon="2.488033340">
        <ele>522.70</ele>
        <time>2014-02-23T10:33:48Z</time>
      </trkpt>
      <trkpt lat="41.624740020" lon="2.488035010">
        <ele>522.60</ele>
        <time>2014-02-23T10:33:49Z</time>
      </trkpt>
      <trkpt lat="41.624768350" lon="2.488043400">
        <ele>522.50</ele>
        <time>2014-02-23T10:33:50Z</time>
      </trkpt>
      <trkpt lat="41.624798360" lon="2.488053450">
        <ele>522.30</ele>
        <time>2014-02-23T10:33:51Z</time>
      </trkpt>
      <trkpt lat="41.624825010" lon="2.488075080">
        <ele>522.10</ele>
        <time>2014-02-23T10:33:52Z</time>
      </trkpt>
      <trkpt lat="41.624850160" lon="2.488105090">
        <ele>522.00</ele>
        <time>2014-02-23T10:33:53Z</time>
      </trkpt>
      <trkpt lat="41.624870110" lon="2.488128390">
        <ele>521.70</ele>
        <time>2014-02-23T10:33:54Z</time>
      </trkpt>
      <trkpt lat="41.624888380" lon="2.488161750">
        <ele>521.50</ele>
        <time>2014-02-23T10:33:55Z</time>
      </trkpt>
      <trkpt lat="41.624901790" lon="2.488190080">
        <ele>521.00</ele>
        <time>2014-02-23T10:33:56Z</time>
      </trkpt>
      <trkpt lat="41.624911680" lon="2.488216730">
        <ele>520.70</ele>
        <time>2014-02-23T10:33:57Z</time>
      </trkpt>
      <trkpt lat="41.624923420" lon="2.488248420">
        <ele>520.70</ele>
        <time>2014-02-23T10:33:58Z</time>
      </trkpt>
      <trkpt lat="41.624945040" lon="2.488283450">
        <ele>520.70</ele>
        <time>2014-02-23T10:33:59Z</time>
      </trkpt>
      <trkpt lat="41.624965160" lon="2.488323350">
        <ele>520.70</ele>
        <time>2014-02-23T10:34:00Z</time>
      </trkpt>
      <trkpt lat="41.624976730" lon="2.488363420">
        <ele>520.60</ele>
        <time>2014-02-23T10:34:01Z</time>
      </trkpt>
      <trkpt lat="41.624983430" lon="2.488400130">
        <ele>520.50</ele>
        <time>2014-02-23T10:34:02Z</time>
      </trkpt>
      <trkpt lat="41.624995000" lon="2.488431810">
        <ele>520.30</ele>
        <time>2014-02-23T10:34:03Z</time>
      </trkpt>
      <trkpt lat="41.625001700" lon="2.488465010">
        <ele>520.20</ele>
        <time>2014-02-23T10:34:04Z</time>
      </trkpt>
      <trkpt lat="41.625001700" lon="2.488498370">
        <ele>520.00</ele>
        <time>2014-02-23T10:34:05Z</time>
      </trkpt>
      <trkpt lat="41.625001700" lon="2.488535080">
        <ele>519.80</ele>
        <time>2014-02-23T10:34:06Z</time>
      </trkpt>
      <trkpt lat="41.625005060" lon="2.488570120">
        <ele>519.60</ele>
        <time>2014-02-23T10:34:07Z</time>
      </trkpt>
      <trkpt lat="41.625010090" lon="2.488613370">
        <ele>519.50</ele>
        <time>2014-02-23T10:34:08Z</time>
      </trkpt>
      <trkpt lat="41.625021820" lon="2.488655110">
        <ele>519.50</ele>
        <time>2014-02-23T10:34:09Z</time>
      </trkpt>
      <trkpt lat="41.625030040" lon="2.488705060">
        <ele>519.60</ele>
        <time>2014-02-23T10:34:10Z</time>
      </trkpt>
      <trkpt lat="41.625041770" lon="2.488750160">
        <ele>519.60</ele>
        <time>2014-02-23T10:34:11Z</time>
      </trkpt>
      <trkpt lat="41.625043450" lon="2.488800110">
        <ele>519.70</ele>
        <time>2014-02-23T10:34:12Z</time>
      </trkpt>
      <trkpt lat="41.625041770" lon="2.488860130">
        <ele>519.60</ele>
        <time>2014-02-23T10:34:13Z</time>
      </trkpt>
      <trkpt lat="41.625045120" lon="2.488913440">
        <ele>519.60</ele>
        <time>2014-02-23T10:34:14Z</time>
      </trkpt>
      <trkpt lat="41.625043450" lon="2.488961720">
        <ele>519.20</ele>
        <time>2014-02-23T10:34:15Z</time>
      </trkpt>
      <trkpt lat="41.625041770" lon="2.489013350">
        <ele>518.90</ele>
        <time>2014-02-23T10:34:16Z</time>
      </trkpt>
      <trkpt lat="41.625040090" lon="2.489058440">
        <ele>518.80</ele>
        <time>2014-02-23T10:34:17Z</time>
      </trkpt>
      <trkpt lat="41.625046800" lon="2.489106720">
        <ele>518.70</ele>
        <time>2014-02-23T10:34:18Z</time>
      </trkpt>
      <trkpt lat="41.625041770" lon="2.489150140">
        <ele>518.70</ele>
        <time>2014-02-23T10:34:19Z</time>
      </trkpt>
      <trkpt lat="41.625038420" lon="2.489195070">
        <ele>518.30</ele>
        <time>2014-02-23T10:34:20Z</time>
      </trkpt>
      <trkpt lat="41.625038420" lon="2.489238490">
        <ele>518.10</ele>
        <time>2014-02-23T10:34:21Z</time>
      </trkpt>
      <trkpt lat="41.625035060" lon="2.489278390">
        <ele>518.20</ele>
        <time>2014-02-23T10:34:22Z</time>
      </trkpt>
      <trkpt lat="41.625021820" lon="2.489318450">
        <ele>518.20</ele>
        <time>2014-02-23T10:34:23Z</time>
      </trkpt>
      <trkpt lat="41.625020150" lon="2.489351810">
        <ele>518.50</ele>
        <time>2014-02-23T10:34:24Z</time>
      </trkpt>
      <trkpt lat="41.625020150" lon="2.489390030">
        <ele>518.70</ele>
        <time>2014-02-23T10:34:25Z</time>
      </trkpt>
      <trkpt lat="41.625013440" lon="2.489436800">
        <ele>518.80</ele>
        <time>2014-02-23T10:34:26Z</time>
      </trkpt>
      <trkpt lat="41.625008410" lon="2.489476700">
        <ele>518.60</ele>
        <time>2014-02-23T10:34:27Z</time>
      </trkpt>
      <trkpt lat="41.625003380" lon="2.489513410">
        <ele>518.40</ele>
        <time>2014-02-23T10:34:28Z</time>
      </trkpt>
      <trkpt lat="41.624995000" lon="2.489558340">
        <ele>518.10</ele>
        <time>2014-02-23T10:34:29Z</time>
      </trkpt>
      <trkpt lat="41.624983430" lon="2.489601760">
        <ele>518.00</ele>
        <time>2014-02-23T10:34:30Z</time>
      </trkpt>
      <trkpt lat="41.624976730" lon="2.489635120">
        <ele>517.80</ele>
        <time>2014-02-23T10:34:31Z</time>
      </trkpt>
      <trkpt lat="41.624966670" lon="2.489670160">
        <ele>518.00</ele>
        <time>2014-02-23T10:34:32Z</time>
      </trkpt>
      <trkpt lat="41.624956780" lon="2.489705020">
        <ele>518.10</ele>
        <time>2014-02-23T10:34:33Z</time>
      </trkpt>
      <trkpt lat="41.624945040" lon="2.489736710">
        <ele>518.00</ele>
        <time>2014-02-23T10:34:34Z</time>
      </trkpt>
      <trkpt lat="41.624931800" lon="2.489768390">
        <ele>518.00</ele>
        <time>2014-02-23T10:34:35Z</time>
      </trkpt>
      <trkpt lat="41.624915040" lon="2.489800080">
        <ele>518.30</ele>
        <time>2014-02-23T10:34:36Z</time>
      </trkpt>
      <trkpt lat="41.624896760" lon="2.489835110">
        <ele>518.50</ele>
        <time>2014-02-23T10:34:37Z</time>
      </trkpt>
      <trkpt lat="41.624875140" lon="2.489868470">
        <ele>518.70</ele>
        <time>2014-02-23T10:34:38Z</time>
      </trkpt>
      <trkpt lat="41.624851670" lon="2.489900160">
        <ele>518.60</ele>
        <time>2014-02-23T10:34:39Z</time>
      </trkpt>
      <trkpt lat="41.624828370" lon="2.489931670">
        <ele>518.60</ele>
        <time>2014-02-23T10:34:40Z</time>
      </trkpt>
      <trkpt lat="41.624808420" lon="2.489963360">
        <ele>518.40</ele>
        <time>2014-02-23T10:34:41Z</time>
      </trkpt>
      <trkpt lat="41.624791820" lon="2.489991690">
        <ele>518.30</ele>
        <time>2014-02-23T10:34:42Z</time>
      </trkpt>
      <trkpt lat="41.624776730" lon="2.490018340">
        <ele>518.50</ele>
        <time>2014-02-23T10:34:43Z</time>
      </trkpt>
      <trkpt lat="41.624763490" lon="2.490036780">
        <ele>518.60</ele>
        <time>2014-02-23T10:34:44Z</time>
      </trkpt>
      <trkpt lat="41.624751760" lon="2.490055050">
        <ele>518.70</ele>
        <time>2014-02-23T10:34:45Z</time>
      </trkpt>
      <trkpt lat="41.624740020" lon="2.490076680">
        <ele>518.90</ele>
        <time>2014-02-23T10:34:46Z</time>
      </trkpt>
      <trkpt lat="41.624726780" lon="2.490101820">
        <ele>519.00</ele>
        <time>2014-02-23T10:34:47Z</time>
      </trkpt>
      <trkpt lat="41.624711690" lon="2.490130160">
        <ele>519.20</ele>
        <time>2014-02-23T10:34:48Z</time>
      </trkpt>
      <trkpt lat="41.624696770" lon="2.490158490">
        <ele>519.40</ele>
        <time>2014-02-23T10:34:49Z</time>
      </trkpt>
      <trkpt lat="41.624683360" lon="2.490186820">
        <ele>519.50</ele>
        <time>2014-02-23T10:34:50Z</time>
      </trkpt>
      <trkpt lat="41.624670120" lon="2.490215150">
        <ele>519.30</ele>
        <time>2014-02-23T10:34:51Z</time>
      </trkpt>
      <trkpt lat="41.624658380" lon="2.490250020">
        <ele>519.10</ele>
        <time>2014-02-23T10:34:52Z</time>
      </trkpt>
      <trkpt lat="41.624646820" lon="2.490285050">
        <ele>518.70</ele>
        <time>2014-02-23T10:34:53Z</time>
      </trkpt>
      <trkpt lat="41.624638430" lon="2.490316740">
        <ele>518.40</ele>
        <time>2014-02-23T10:34:54Z</time>
      </trkpt>
      <trkpt lat="41.624625020" lon="2.490350100">
        <ele>518.60</ele>
        <time>2014-02-23T10:34:55Z</time>
      </trkpt>
      <trkpt lat="41.624611780" lon="2.490386810">
        <ele>518.80</ele>
        <time>2014-02-23T10:34:56Z</time>
      </trkpt>
      <trkpt lat="41.624593340" lon="2.490423350">
        <ele>518.90</ele>
        <time>2014-02-23T10:34:57Z</time>
      </trkpt>
      <trkpt lat="41.624575070" lon="2.490456710">
        <ele>518.70</ele>
        <time>2014-02-23T10:34:58Z</time>
      </trkpt>
      <trkpt lat="41.624556790" lon="2.490486720">
        <ele>518.50</ele>
        <time>2014-02-23T10:34:59Z</time>
      </trkpt>
      <trkpt lat="41.624540030" lon="2.490518400">
        <ele>518.60</ele>
        <time>2014-02-23T10:35:00Z</time>
      </trkpt>
      <trkpt lat="41.624523430" lon="2.490546740">
        <ele>518.70</ele>
        <time>2014-02-23T10:35:01Z</time>
      </trkpt>
      <trkpt lat="41.624510020" lon="2.490575070">
        <ele>519.10</ele>
        <time>2014-02-23T10:35:02Z</time>
      </trkpt>
      <trkpt lat="41.624500130" lon="2.490598370">
        <ele>519.30</ele>
        <time>2014-02-23T10:35:03Z</time>
      </trkpt>
      <trkpt lat="41.624493430" lon="2.490623350">
        <ele>519.60</ele>
        <time>2014-02-23T10:35:04Z</time>
      </trkpt>
      <trkpt lat="41.624488400" lon="2.490646820">
        <ele>519.10</ele>
        <time>2014-02-23T10:35:05Z</time>
      </trkpt>
      <trkpt lat="41.624483370" lon="2.490678330">
        <ele>518.70</ele>
        <time>2014-02-23T10:35:06Z</time>
      </trkpt>
      <trkpt lat="41.624476660" lon="2.490713370">
        <ele>518.70</ele>
        <time>2014-02-23T10:35:07Z</time>
      </trkpt>
      <trkpt lat="41.624470120" lon="2.490750080">
        <ele>518.70</ele>
        <time>2014-02-23T10:35:08Z</time>
      </trkpt>
      <trkpt lat="41.624460070" lon="2.490788470">
        <ele>518.70</ele>
        <time>2014-02-23T10:35:09Z</time>
      </trkpt>
      <trkpt lat="41.624450010" lon="2.490836750">
        <ele>518.40</ele>
        <time>2014-02-23T10:35:10Z</time>
      </trkpt>
      <trkpt lat="41.624438440" lon="2.490891730">
        <ele>518.20</ele>
        <time>2014-02-23T10:35:11Z</time>
      </trkpt>
      <trkpt lat="41.624425030" lon="2.490948400">
        <ele>517.90</ele>
        <time>2014-02-23T10:35:12Z</time>
      </trkpt>
      <trkpt lat="41.624413460" lon="2.491010090">
        <ele>517.70</ele>
        <time>2014-02-23T10:35:13Z</time>
      </trkpt>
      <trkpt lat="41.624403400" lon="2.491083350">
        <ele>517.70</ele>
        <time>2014-02-23T10:35:14Z</time>
      </trkpt>
      <trkpt lat="41.624395020" lon="2.491158450">
        <ele>517.70</ele>
        <time>2014-02-23T10:35:15Z</time>
      </trkpt>
      <trkpt lat="41.624388480" lon="2.491233380">
        <ele>517.60</ele>
        <time>2014-02-23T10:35:16Z</time>
      </trkpt>
      <trkpt lat="41.624385130" lon="2.491315020">
        <ele>517.30</ele>
        <time>2014-02-23T10:35:17Z</time>
      </trkpt>
      <trkpt lat="41.624383460" lon="2.491395150">
        <ele>517.10</ele>
        <time>2014-02-23T10:35:18Z</time>
      </trkpt>
      <trkpt lat="41.624378430" lon="2.491475120">
        <ele>516.70</ele>
        <time>2014-02-23T10:35:19Z</time>
      </trkpt>
      <trkpt lat="41.624376750" lon="2.491548370">
        <ele>516.40</ele>
        <time>2014-02-23T10:35:20Z</time>
      </trkpt>
      <trkpt lat="41.624368370" lon="2.491618450">
        <ele>516.70</ele>
        <time>2014-02-23T10:35:21Z</time>
      </trkpt>
      <trkpt lat="41.624358480" lon="2.491683490">
        <ele>516.90</ele>
        <time>2014-02-23T10:35:22Z</time>
      </trkpt>
      <trkpt lat="41.624350100" lon="2.491741830">
        <ele>517.10</ele>
        <time>2014-02-23T10:35:23Z</time>
      </trkpt>
      <trkpt lat="41.624341710" lon="2.491788430">
        <ele>516.80</ele>
        <time>2014-02-23T10:35:24Z</time>
      </trkpt>
      <trkpt lat="41.624336680" lon="2.491826820">
        <ele>516.60</ele>
        <time>2014-02-23T10:35:25Z</time>
      </trkpt>
      <trkpt lat="41.624330150" lon="2.491866720">
        <ele>516.30</ele>
        <time>2014-02-23T10:35:26Z</time>
      </trkpt>
      <trkpt lat="41.624325120" lon="2.491906780">
        <ele>516.10</ele>
        <time>2014-02-23T10:35:27Z</time>
      </trkpt>
      <trkpt lat="41.624313380" lon="2.491951710">
        <ele>516.00</ele>
        <time>2014-02-23T10:35:28Z</time>
      </trkpt>
      <trkpt lat="41.624305000" lon="2.491998480">
        <ele>515.60</ele>
        <time>2014-02-23T10:35:29Z</time>
      </trkpt>
      <trkpt lat="41.624293430" lon="2.492048440">
        <ele>515.30</ele>
        <time>2014-02-23T10:35:30Z</time>
      </trkpt>
      <trkpt lat="41.624281700" lon="2.492100070">
        <ele>515.20</ele>
        <time>2014-02-23T10:35:31Z</time>
      </trkpt>
      <trkpt lat="41.624273490" lon="2.492153380">
        <ele>515.10</ele>
        <time>2014-02-23T10:35:32Z</time>
      </trkpt>
      <trkpt lat="41.624261750" lon="2.492206690">
        <ele>515.20</ele>
        <time>2014-02-23T10:35:33Z</time>
      </trkpt>
      <trkpt lat="41.624245150" lon="2.492256810">
        <ele>515.30</ele>
        <time>2014-02-23T10:35:34Z</time>
      </trkpt>
      <trkpt lat="41.624225040" lon="2.492306770">
        <ele>515.40</ele>
        <time>2014-02-23T10:35:35Z</time>
      </trkpt>
      <trkpt lat="41.624205090" lon="2.492353370">
        <ele>515.10</ele>
        <time>2014-02-23T10:35:36Z</time>
      </trkpt>
      <trkpt lat="41.624185140" lon="2.492398470">
        <ele>514.90</ele>
        <time>2014-02-23T10:35:37Z</time>
      </trkpt>
      <trkpt lat="41.624163350" lon="2.492441720">
        <ele>514.60</ele>
        <time>2014-02-23T10:35:38Z</time>
      </trkpt>
      <trkpt lat="41.624145070" lon="2.492481780">
        <ele>514.40</ele>
        <time>2014-02-23T10:35:39Z</time>
      </trkpt>
      <trkpt lat="41.624126800" lon="2.492523360">
        <ele>514.10</ele>
        <time>2014-02-23T10:35:40Z</time>
      </trkpt>
      <trkpt lat="41.624113390" lon="2.492563420">
        <ele>513.90</ele>
        <time>2014-02-23T10:35:41Z</time>
      </trkpt>
      <trkpt lat="41.624101820" lon="2.492605000">
        <ele>513.70</ele>
        <time>2014-02-23T10:35:42Z</time>
      </trkpt>
      <trkpt lat="41.624095120" lon="2.492650090">
        <ele>513.70</ele>
        <time>2014-02-23T10:35:43Z</time>
      </trkpt>
      <trkpt lat="41.624090090" lon="2.492696690">
        <ele>513.80</ele>
        <time>2014-02-23T10:35:44Z</time>
      </trkpt>
      <trkpt lat="41.624090090" lon="2.492741790">
        <ele>514.10</ele>
        <time>2014-02-23T10:35:45Z</time>
      </trkpt>
      <trkpt lat="41.624090090" lon="2.492788390">
        <ele>514.30</ele>
        <time>2014-02-23T10:35:46Z</time>
      </trkpt>
      <trkpt lat="41.624093440" lon="2.492835000">
        <ele>514.50</ele>
        <time>2014-02-23T10:35:47Z</time>
      </trkpt>
      <trkpt lat="41.624098470" lon="2.492881770">
        <ele>514.40</ele>
        <time>2014-02-23T10:35:48Z</time>
      </trkpt>
      <trkpt lat="41.624101820" lon="2.492926690">
        <ele>514.40</ele>
        <time>2014-02-23T10:35:49Z</time>
      </trkpt>
      <trkpt lat="41.624103330" lon="2.492970110">
        <ele>514.30</ele>
        <time>2014-02-23T10:35:50Z</time>
      </trkpt>
      <trkpt lat="41.624105010" lon="2.493011690">
        <ele>514.20</ele>
        <time>2014-02-23T10:35:51Z</time>
      </trkpt>
      <trkpt lat="41.624105010" lon="2.493053430">
        <ele>514.60</ele>
        <time>2014-02-23T10:35:52Z</time>
      </trkpt>
      <trkpt lat="41.624105010" lon="2.493096680">
        <ele>514.90</ele>
        <time>2014-02-23T10:35:53Z</time>
      </trkpt>
      <trkpt lat="41.624105010" lon="2.493140100">
        <ele>515.20</ele>
        <time>2014-02-23T10:35:54Z</time>
      </trkpt>
      <trkpt lat="41.624106690" lon="2.493185020">
        <ele>514.90</ele>
        <time>2014-02-23T10:35:55Z</time>
      </trkpt>
      <trkpt lat="41.624106690" lon="2.493235150">
        <ele>514.70</ele>
        <time>2014-02-23T10:35:56Z</time>
      </trkpt>
      <trkpt lat="41.624106690" lon="2.493286780">
        <ele>514.50</ele>
        <time>2014-02-23T10:35:57Z</time>
      </trkpt>
      <trkpt lat="41.624108360" lon="2.493341770">
        <ele>514.40</ele>
        <time>2014-02-23T10:35:58Z</time>
      </trkpt>
      <trkpt lat="41.624113390" lon="2.493396750">
        <ele>514.90</ele>
        <time>2014-02-23T10:35:59Z</time>
      </trkpt>
      <trkpt lat="41.624116740" lon="2.493455090">
        <ele>515.30</ele>
        <time>2014-02-23T10:36:00Z</time>
      </trkpt>
      <trkpt lat="41.624121770" lon="2.493510070">
        <ele>515.60</ele>
        <time>2014-02-23T10:36:01Z</time>
      </trkpt>
      <trkpt lat="41.624126800" lon="2.493563380">
        <ele>515.40</ele>
        <time>2014-02-23T10:36:02Z</time>
      </trkpt>
      <trkpt lat="41.624135020" lon="2.493613340">
        <ele>515.30</ele>
        <time>2014-02-23T10:36:03Z</time>
      </trkpt>
      <trkpt lat="41.624140050" lon="2.493661790">
        <ele>515.00</ele>
        <time>2014-02-23T10:36:04Z</time>
      </trkpt>
      <trkpt lat="41.624143400" lon="2.493711740">
        <ele>514.80</ele>
        <time>2014-02-23T10:36:05Z</time>
      </trkpt>
      <trkpt lat="41.624148430" lon="2.493760020">
        <ele>514.80</ele>
        <time>2014-02-23T10:36:06Z</time>
      </trkpt>
      <trkpt lat="41.624153460" lon="2.493808470">
        <ele>514.80</ele>
        <time>2014-02-23T10:36:07Z</time>
      </trkpt>
      <trkpt lat="41.624158490" lon="2.493856750">
        <ele>514.80</ele>
        <time>2014-02-23T10:36:08Z</time>
      </trkpt>
      <trkpt lat="41.624165020" lon="2.493903350">
        <ele>514.90</ele>
        <time>2014-02-23T10:36:09Z</time>
      </trkpt>
      <trkpt lat="41.624173410" lon="2.493948450">
        <ele>515.00</ele>
        <time>2014-02-23T10:36:10Z</time>
      </trkpt>
      <trkpt lat="41.624181790" lon="2.493995050">
        <ele>514.90</ele>
        <time>2014-02-23T10:36:11Z</time>
      </trkpt>
      <trkpt lat="41.624191680" lon="2.494040150">
        <ele>514.90</ele>
        <time>2014-02-23T10:36:12Z</time>
      </trkpt>
      <trkpt lat="41.624203410" lon="2.494085070">
        <ele>514.90</ele>
        <time>2014-02-23T10:36:13Z</time>
      </trkpt>
      <trkpt lat="41.624220010" lon="2.494126810">
        <ele>514.60</ele>
        <time>2014-02-23T10:36:14Z</time>
      </trkpt>
      <trkpt lat="41.624240130" lon="2.494170060">
        <ele>514.50</ele>
        <time>2014-02-23T10:36:15Z</time>
      </trkpt>
      <trkpt lat="41.624255040" lon="2.494215160">
        <ele>514.70</ele>
        <time>2014-02-23T10:36:16Z</time>
      </trkpt>
      <trkpt lat="41.624270130" lon="2.494265120">
        <ele>514.90</ele>
        <time>2014-02-23T10:36:17Z</time>
      </trkpt>
      <trkpt lat="41.624280020" lon="2.494315070">
        <ele>514.90</ele>
        <time>2014-02-23T10:36:18Z</time>
      </trkpt>
      <trkpt lat="41.624281700" lon="2.494366700">
        <ele>514.90</ele>
        <time>2014-02-23T10:36:19Z</time>
      </trkpt>
      <trkpt lat="41.624271810" lon="2.494411800">
        <ele>514.90</ele>
        <time>2014-02-23T10:36:20Z</time>
      </trkpt>
      <trkpt lat="41.624263430" lon="2.494451700">
        <ele>515.20</ele>
        <time>2014-02-23T10:36:21Z</time>
      </trkpt>
      <trkpt lat="41.624255040" lon="2.494488410">
        <ele>515.40</ele>
        <time>2014-02-23T10:36:22Z</time>
      </trkpt>
      <trkpt lat="41.624246660" lon="2.494523450">
        <ele>515.20</ele>
        <time>2014-02-23T10:36:23Z</time>
      </trkpt>
      <trkpt lat="41.624236770" lon="2.494563340">
        <ele>515.10</ele>
        <time>2014-02-23T10:36:24Z</time>
      </trkpt>
      <trkpt lat="41.624236770" lon="2.494600060">
        <ele>515.00</ele>
        <time>2014-02-23T10:36:25Z</time>
      </trkpt>
      <trkpt lat="41.624235100" lon="2.494643470">
        <ele>515.50</ele>
        <time>2014-02-23T10:36:26Z</time>
      </trkpt>
      <trkpt lat="41.624233420" lon="2.494688400">
        <ele>515.90</ele>
        <time>2014-02-23T10:36:27Z</time>
      </trkpt>
      <trkpt lat="41.624231740" lon="2.494731820">
        <ele>515.70</ele>
        <time>2014-02-23T10:36:28Z</time>
      </trkpt>
      <trkpt lat="41.624233420" lon="2.494773390">
        <ele>515.50</ele>
        <time>2014-02-23T10:36:29Z</time>
      </trkpt>
      <trkpt lat="41.624235100" lon="2.494818490">
        <ele>515.60</ele>
        <time>2014-02-23T10:36:30Z</time>
      </trkpt>
      <trkpt lat="41.624236770" lon="2.494866770">
        <ele>515.70</ele>
        <time>2014-02-23T10:36:31Z</time>
      </trkpt>
      <trkpt lat="41.624240130" lon="2.494913370">
        <ele>515.80</ele>
        <time>2014-02-23T10:36:32Z</time>
      </trkpt>
      <trkpt lat="41.624246660" lon="2.494955110">
        <ele>515.80</ele>
        <time>2014-02-23T10:36:33Z</time>
      </trkpt>
      <trkpt lat="41.624253370" lon="2.494996690">
        <ele>515.70</ele>
        <time>2014-02-23T10:36:34Z</time>
      </trkpt>
      <trkpt lat="41.624258400" lon="2.495040110">
        <ele>515.30</ele>
        <time>2014-02-23T10:36:35Z</time>
      </trkpt>
      <trkpt lat="41.624265100" lon="2.495081680">
        <ele>515.00</ele>
        <time>2014-02-23T10:36:36Z</time>
      </trkpt>
      <trkpt lat="41.624268460" lon="2.495125100">
        <ele>515.50</ele>
        <time>2014-02-23T10:36:37Z</time>
      </trkpt>
      <trkpt lat="41.624271810" lon="2.495166670">
        <ele>515.80</ele>
        <time>2014-02-23T10:36:38Z</time>
      </trkpt>
      <trkpt lat="41.624275160" lon="2.495208410">
        <ele>516.10</ele>
        <time>2014-02-23T10:36:39Z</time>
      </trkpt>
      <trkpt lat="41.624276670" lon="2.495251670">
        <ele>516.10</ele>
        <time>2014-02-23T10:36:40Z</time>
      </trkpt>
      <trkpt lat="41.624280020" lon="2.495290050">
        <ele>516.10</ele>
        <time>2014-02-23T10:36:41Z</time>
      </trkpt>
      <trkpt lat="41.624280020" lon="2.495328440">
        <ele>516.50</ele>
        <time>2014-02-23T10:36:42Z</time>
      </trkpt>
      <trkpt lat="41.624278350" lon="2.495368340">
        <ele>516.70</ele>
        <time>2014-02-23T10:36:43Z</time>
      </trkpt>
      <trkpt lat="41.624278350" lon="2.495406730">
        <ele>516.70</ele>
        <time>2014-02-23T10:36:44Z</time>
      </trkpt>
      <trkpt lat="41.624278350" lon="2.495445120">
        <ele>516.70</ele>
        <time>2014-02-23T10:36:45Z</time>
      </trkpt>
      <trkpt lat="41.624276670" lon="2.495483340">
        <ele>516.70</ele>
        <time>2014-02-23T10:36:46Z</time>
      </trkpt>
      <trkpt lat="41.624276670" lon="2.495520050">
        <ele>516.90</ele>
        <time>2014-02-23T10:36:47Z</time>
      </trkpt>
      <trkpt lat="41.624273490" lon="2.495560120">
        <ele>517.00</ele>
        <time>2014-02-23T10:36:48Z</time>
      </trkpt>
      <trkpt lat="41.624273490" lon="2.495598340">
        <ele>517.30</ele>
        <time>2014-02-23T10:36:49Z</time>
      </trkpt>
      <trkpt lat="41.624273490" lon="2.495640080">
        <ele>517.50</ele>
        <time>2014-02-23T10:36:50Z</time>
      </trkpt>
      <trkpt lat="41.624270130" lon="2.495681820">
        <ele>517.70</ele>
        <time>2014-02-23T10:36:51Z</time>
      </trkpt>
      <trkpt lat="41.624268460" lon="2.495721720">
        <ele>517.90</ele>
        <time>2014-02-23T10:36:52Z</time>
      </trkpt>
      <trkpt lat="41.624265100" lon="2.495763460">
        <ele>518.10</ele>
        <time>2014-02-23T10:36:53Z</time>
      </trkpt>
      <trkpt lat="41.624258400" lon="2.495805040">
        <ele>518.30</ele>
        <time>2014-02-23T10:36:54Z</time>
      </trkpt>
      <trkpt lat="41.624250020" lon="2.495846780">
        <ele>518.50</ele>
        <time>2014-02-23T10:36:55Z</time>
      </trkpt>
      <trkpt lat="41.624241800" lon="2.495885000">
        <ele>518.60</ele>
        <time>2014-02-23T10:36:56Z</time>
      </trkpt>
      <trkpt lat="41.624230070" lon="2.495920040">
        <ele>518.70</ele>
        <time>2014-02-23T10:36:57Z</time>
      </trkpt>
      <trkpt lat="41.624218330" lon="2.495953400">
        <ele>518.80</ele>
        <time>2014-02-23T10:36:58Z</time>
      </trkpt>
      <trkpt lat="41.624205090" lon="2.495985080">
        <ele>518.90</ele>
        <time>2014-02-23T10:36:59Z</time>
      </trkpt>
      <trkpt lat="41.624191680" lon="2.496015090">
        <ele>518.90</ele>
        <time>2014-02-23T10:37:00Z</time>
      </trkpt>
      <trkpt lat="41.624178430" lon="2.496045100">
        <ele>518.60</ele>
        <time>2014-02-23T10:37:01Z</time>
      </trkpt>
      <trkpt lat="41.624161670" lon="2.496075100">
        <ele>518.30</ele>
        <time>2014-02-23T10:37:02Z</time>
      </trkpt>
      <trkpt lat="41.624145070" lon="2.496103430">
        <ele>518.40</ele>
        <time>2014-02-23T10:37:03Z</time>
      </trkpt>
      <trkpt lat="41.624126800" lon="2.496128410">
        <ele>518.40</ele>
        <time>2014-02-23T10:37:04Z</time>
      </trkpt>
      <trkpt lat="41.624105010" lon="2.496155070">
        <ele>518.40</ele>
        <time>2014-02-23T10:37:05Z</time>
      </trkpt>
      <trkpt lat="41.624088410" lon="2.496175020">
        <ele>518.80</ele>
        <time>2014-02-23T10:37:06Z</time>
      </trkpt>
      <trkpt lat="41.624066790" lon="2.496198490">
        <ele>519.10</ele>
        <time>2014-02-23T10:37:07Z</time>
      </trkpt>
      <trkpt lat="41.624048350" lon="2.496216760">
        <ele>519.10</ele>
        <time>2014-02-23T10:37:08Z</time>
      </trkpt>
      <trkpt lat="41.624028400" lon="2.496230000">
        <ele>519.10</ele>
        <time>2014-02-23T10:37:09Z</time>
      </trkpt>
      <trkpt lat="41.624006770" lon="2.496245090">
        <ele>519.10</ele>
        <time>2014-02-23T10:37:10Z</time>
      </trkpt>
      <trkpt lat="41.623985150" lon="2.496260010">
        <ele>519.50</ele>
        <time>2014-02-23T10:37:11Z</time>
      </trkpt>
      <trkpt lat="41.623961680" lon="2.496275100">
        <ele>519.80</ele>
        <time>2014-02-23T10:37:12Z</time>
      </trkpt>
      <trkpt lat="41.623940050" lon="2.496285150">
        <ele>519.80</ele>
        <time>2014-02-23T10:37:13Z</time>
      </trkpt>
      <trkpt lat="41.623916750" lon="2.496295040">
        <ele>519.90</ele>
        <time>2014-02-23T10:37:14Z</time>
      </trkpt>
      <trkpt lat="41.623893450" lon="2.496303430">
        <ele>520.20</ele>
        <time>2014-02-23T10:37:15Z</time>
      </trkpt>
      <trkpt lat="41.623870150" lon="2.496308460">
        <ele>520.40</ele>
        <time>2014-02-23T10:37:16Z</time>
      </trkpt>
      <trkpt lat="41.623846680" lon="2.496311810">
        <ele>520.60</ele>
        <time>2014-02-23T10:37:17Z</time>
      </trkpt>
      <trkpt lat="41.623820020" lon="2.496313480">
        <ele>521.30</ele>
        <time>2014-02-23T10:37:18Z</time>
      </trkpt>
      <trkpt lat="41.623793370" lon="2.496313480">
        <ele>521.80</ele>
        <time>2014-02-23T10:37:19Z</time>
      </trkpt>
      <trkpt lat="41.623765040" lon="2.496313480">
        <ele>521.80</ele>
        <time>2014-02-23T10:37:20Z</time>
      </trkpt>
      <trkpt lat="41.623736710" lon="2.496310130">
        <ele>521.70</ele>
        <time>2014-02-23T10:37:21Z</time>
      </trkpt>
      <trkpt lat="41.623708380" lon="2.496308460">
        <ele>521.80</ele>
        <time>2014-02-23T10:37:22Z</time>
      </trkpt>
      <trkpt lat="41.623685080" lon="2.496301750">
        <ele>521.90</ele>
        <time>2014-02-23T10:37:23Z</time>
      </trkpt>
      <trkpt lat="41.623660100" lon="2.496295040">
        <ele>522.00</ele>
        <time>2014-02-23T10:37:24Z</time>
      </trkpt>
      <trkpt lat="41.623636800" lon="2.496288340">
        <ele>522.20</ele>
        <time>2014-02-23T10:37:25Z</time>
      </trkpt>
      <trkpt lat="41.623610140" lon="2.496280120">
        <ele>522.30</ele>
        <time>2014-02-23T10:37:26Z</time>
      </trkpt>
      <trkpt lat="41.623581810" lon="2.496261680">
        <ele>522.00</ele>
        <time>2014-02-23T10:37:27Z</time>
      </trkpt>
      <trkpt lat="41.623553480" lon="2.496241740">
        <ele>521.90</ele>
        <time>2014-02-23T10:37:28Z</time>
      </trkpt>
      <trkpt lat="41.623526830" lon="2.496216760">
        <ele>521.80</ele>
        <time>2014-02-23T10:37:29Z</time>
      </trkpt>
      <trkpt lat="41.623503360" lon="2.496188430">
        <ele>522.00</ele>
        <time>2014-02-23T10:37:30Z</time>
      </trkpt>
      <trkpt lat="41.623481730" lon="2.496158420">
        <ele>522.10</ele>
        <time>2014-02-23T10:37:31Z</time>
      </trkpt>
      <trkpt lat="41.623460110" lon="2.496126740">
        <ele>521.90</ele>
        <time>2014-02-23T10:37:32Z</time>
      </trkpt>
      <trkpt lat="41.623436800" lon="2.496090020">
        <ele>521.80</ele>
        <time>2014-02-23T10:37:33Z</time>
      </trkpt>
      <trkpt lat="41.623413330" lon="2.496051800">
        <ele>521.20</ele>
        <time>2014-02-23T10:37:34Z</time>
      </trkpt>
      <trkpt lat="41.623391710" lon="2.496010060">
        <ele>520.80</ele>
        <time>2014-02-23T10:37:35Z</time>
      </trkpt>
      <trkpt lat="41.623371760" lon="2.495968490">
        <ele>520.50</ele>
        <time>2014-02-23T10:37:36Z</time>
      </trkpt>
      <trkpt lat="41.623351810" lon="2.495925070">
        <ele>520.50</ele>
        <time>2014-02-23T10:37:37Z</time>
      </trkpt>
      <trkpt lat="41.623330020" lon="2.495880140">
        <ele>520.40</ele>
        <time>2014-02-23T10:37:38Z</time>
      </trkpt>
      <trkpt lat="41.623301690" lon="2.495836720">
        <ele>520.60</ele>
        <time>2014-02-23T10:37:39Z</time>
      </trkpt>
      <trkpt lat="41.623268490" lon="2.495798330">
        <ele>520.70</ele>
        <time>2014-02-23T10:37:40Z</time>
      </trkpt>
      <trkpt lat="41.623230110" lon="2.495763460">
        <ele>521.10</ele>
        <time>2014-02-23T10:37:41Z</time>
      </trkpt>
      <trkpt lat="41.623190040" lon="2.495728430">
        <ele>521.40</ele>
        <time>2014-02-23T10:37:42Z</time>
      </trkpt>
      <trkpt lat="41.623155000" lon="2.495688360">
        <ele>521.60</ele>
        <time>2014-02-23T10:37:43Z</time>
      </trkpt>
      <trkpt lat="41.623130030" lon="2.495638410">
        <ele>521.20</ele>
        <time>2014-02-23T10:37:44Z</time>
      </trkpt>
      <trkpt lat="41.623128350" lon="2.495586770">
        <ele>520.90</ele>
        <time>2014-02-23T10:37:45Z</time>
      </trkpt>
      <trkpt lat="41.623140080" lon="2.495540000">
        <ele>520.50</ele>
        <time>2014-02-23T10:37:46Z</time>
      </trkpt>
      <trkpt lat="41.623160030" lon="2.495495080">
        <ele>520.30</ele>
        <time>2014-02-23T10:37:47Z</time>
      </trkpt>
      <trkpt lat="41.623180150" lon="2.495453330">
        <ele>520.10</ele>
        <time>2014-02-23T10:37:48Z</time>
      </trkpt>
      <trkpt lat="41.623196750" lon="2.495408410">
        <ele>520.00</ele>
        <time>2014-02-23T10:37:49Z</time>
      </trkpt>
      <trkpt lat="41.623211670" lon="2.495358450">
        <ele>519.80</ele>
        <time>2014-02-23T10:37:50Z</time>
      </trkpt>
      <trkpt lat="41.623220050" lon="2.495306820">
        <ele>519.60</ele>
        <time>2014-02-23T10:37:51Z</time>
      </trkpt>
      <trkpt lat="41.623225080" lon="2.495253340">
        <ele>519.50</ele>
        <time>2014-02-23T10:37:52Z</time>
      </trkpt>
      <trkpt lat="41.623225080" lon="2.495196680">
        <ele>519.10</ele>
        <time>2014-02-23T10:37:53Z</time>
      </trkpt>
      <trkpt lat="41.623220050" lon="2.495140020">
        <ele>518.90</ele>
        <time>2014-02-23T10:37:54Z</time>
      </trkpt>
      <trkpt lat="41.623211670" lon="2.495081680">
        <ele>518.70</ele>
        <time>2014-02-23T10:37:55Z</time>
      </trkpt>
      <trkpt lat="41.623200100" lon="2.495026700">
        <ele>518.80</ele>
        <time>2014-02-23T10:37:56Z</time>
      </trkpt>
      <trkpt lat="41.623188360" lon="2.494970030">
        <ele>518.90</ele>
        <time>2014-02-23T10:37:57Z</time>
      </trkpt>
      <trkpt lat="41.623176800" lon="2.494916720">
        <ele>518.70</ele>
        <time>2014-02-23T10:37:58Z</time>
      </trkpt>
      <trkpt lat="41.623163390" lon="2.494861740">
        <ele>518.50</ele>
        <time>2014-02-23T10:37:59Z</time>
      </trkpt>
      <trkpt lat="41.623150140" lon="2.494808430">
        <ele>518.40</ele>
        <time>2014-02-23T10:38:00Z</time>
      </trkpt>
      <trkpt lat="41.623140080" lon="2.494755120">
        <ele>518.40</ele>
        <time>2014-02-23T10:38:01Z</time>
      </trkpt>
      <trkpt lat="41.623125000" lon="2.494705000">
        <ele>518.30</ele>
        <time>2014-02-23T10:38:02Z</time>
      </trkpt>
      <trkpt lat="41.623113430" lon="2.494655040">
        <ele>518.60</ele>
        <time>2014-02-23T10:38:03Z</time>
      </trkpt>
      <trkpt lat="41.623098340" lon="2.494603410">
        <ele>518.70</ele>
        <time>2014-02-23T10:38:04Z</time>
      </trkpt>
      <trkpt lat="41.623080070" lon="2.494555130">
        <ele>518.60</ele>
        <time>2014-02-23T10:38:05Z</time>
      </trkpt>
      <trkpt lat="41.623058440" lon="2.494506680">
        <ele>518.60</ele>
        <time>2014-02-23T10:38:06Z</time>
      </trkpt>
      <trkpt lat="41.623035140" lon="2.494458400">
        <ele>518.60</ele>
        <time>2014-02-23T10:38:07Z</time>
      </trkpt>
      <trkpt lat="41.623010000" lon="2.494410120">
        <ele>518.40</ele>
        <time>2014-02-23T10:38:08Z</time>
      </trkpt>
      <trkpt lat="41.622981670" lon="2.494365030">
        <ele>518.30</ele>
        <time>2014-02-23T10:38:09Z</time>
      </trkpt>
      <trkpt lat="41.622951830" lon="2.494321780">
        <ele>518.10</ele>
        <time>2014-02-23T10:38:10Z</time>
      </trkpt>
      <trkpt lat="41.622921820" lon="2.494283390">
        <ele>517.90</ele>
        <time>2014-02-23T10:38:11Z</time>
      </trkpt>
      <trkpt lat="41.622886780" lon="2.494246680">
        <ele>518.00</ele>
        <time>2014-02-23T10:38:12Z</time>
      </trkpt>
      <trkpt lat="41.622851750" lon="2.494211810">
        <ele>518.20</ele>
        <time>2014-02-23T10:38:13Z</time>
      </trkpt>
      <trkpt lat="41.622820060" lon="2.494178450">
        <ele>518.30</ele>
        <time>2014-02-23T10:38:14Z</time>
      </trkpt>
      <trkpt lat="41.622786700" lon="2.494148440">
        <ele>517.90</ele>
        <time>2014-02-23T10:38:15Z</time>
      </trkpt>
      <trkpt lat="41.622751670" lon="2.494125140">
        <ele>517.50</ele>
        <time>2014-02-23T10:38:16Z</time>
      </trkpt>
      <trkpt lat="41.622716800" lon="2.494100160">
        <ele>517.40</ele>
        <time>2014-02-23T10:38:17Z</time>
      </trkpt>
      <trkpt lat="41.622681760" lon="2.494076690">
        <ele>517.20</ele>
        <time>2014-02-23T10:38:18Z</time>
      </trkpt>
      <trkpt lat="41.622645050" lon="2.494055060">
        <ele>517.60</ele>
        <time>2014-02-23T10:38:19Z</time>
      </trkpt>
      <trkpt lat="41.622610010" lon="2.494040150">
        <ele>517.90</ele>
        <time>2014-02-23T10:38:20Z</time>
      </trkpt>
      <trkpt lat="41.622575140" lon="2.494033440">
        <ele>518.10</ele>
        <time>2014-02-23T10:38:21Z</time>
      </trkpt>
      <trkpt lat="41.622540110" lon="2.494028410">
        <ele>518.20</ele>
        <time>2014-02-23T10:38:22Z</time>
      </trkpt>
      <trkpt lat="41.622505070" lon="2.494025060">
        <ele>518.20</ele>
        <time>2014-02-23T10:38:23Z</time>
      </trkpt>
      <trkpt lat="41.622466680" lon="2.494025060">
        <ele>518.40</ele>
        <time>2014-02-23T10:38:24Z</time>
      </trkpt>
      <trkpt lat="41.622425110" lon="2.494025060">
        <ele>518.50</ele>
        <time>2014-02-23T10:38:25Z</time>
      </trkpt>
      <trkpt lat="41.622383370" lon="2.494018350">
        <ele>518.40</ele>
        <time>2014-02-23T10:38:26Z</time>
      </trkpt>
      <trkpt lat="41.622341790" lon="2.494008460">
        <ele>518.30</ele>
        <time>2014-02-23T10:38:27Z</time>
      </trkpt>
      <trkpt lat="41.622301730" lon="2.493991700">
        <ele>518.30</ele>
        <time>2014-02-23T10:38:28Z</time>
      </trkpt>
      <trkpt lat="41.622265010" lon="2.493966720">
        <ele>518.50</ele>
        <time>2014-02-23T10:38:29Z</time>
      </trkpt>
      <trkpt lat="41.622231820" lon="2.493938390">
        <ele>518.70</ele>
        <time>2014-02-23T10:38:30Z</time>
      </trkpt>
      <trkpt lat="41.622201810" lon="2.493900000">
        <ele>518.70</ele>
        <time>2014-02-23T10:38:31Z</time>
      </trkpt>
      <trkpt lat="41.622176670" lon="2.493858430">
        <ele>518.80</ele>
        <time>2014-02-23T10:38:32Z</time>
      </trkpt>
      <trkpt lat="41.622153370" lon="2.493815010">
        <ele>518.80</ele>
        <time>2014-02-23T10:38:33Z</time>
      </trkpt>
      <trkpt lat="41.622135090" lon="2.493770080">
        <ele>518.40</ele>
        <time>2014-02-23T10:38:34Z</time>
      </trkpt>
      <trkpt lat="41.622115150" lon="2.493726660">
        <ele>518.10</ele>
        <time>2014-02-23T10:38:35Z</time>
      </trkpt>
      <trkpt lat="41.622091680" lon="2.493688440">
        <ele>518.50</ele>
        <time>2014-02-23T10:38:36Z</time>
      </trkpt>
      <trkpt lat="41.622068370" lon="2.493655080">
        <ele>518.70</ele>
        <time>2014-02-23T10:38:37Z</time>
      </trkpt>
      <trkpt lat="41.622040040" lon="2.493628430">
        <ele>518.70</ele>
        <time>2014-02-23T10:38:38Z</time>
      </trkpt>
      <trkpt lat="41.622010040" lon="2.493608480">
        <ele>518.70</ele>
        <time>2014-02-23T10:38:39Z</time>
      </trkpt>
      <trkpt lat="41.621981710" lon="2.493596740">
        <ele>518.80</ele>
        <time>2014-02-23T10:38:40Z</time>
      </trkpt>
      <trkpt lat="41.621950020" lon="2.493595070">
        <ele>519.10</ele>
        <time>2014-02-23T10:38:41Z</time>
      </trkpt>
      <trkpt lat="41.621920010" lon="2.493603450">
        <ele>519.30</ele>
        <time>2014-02-23T10:38:42Z</time>
      </trkpt>
      <trkpt lat="41.621893360" lon="2.493616690">
        <ele>519.40</ele>
        <time>2014-02-23T10:38:43Z</time>
      </trkpt>
      <trkpt lat="41.621866710" lon="2.493631780">
        <ele>519.40</ele>
        <time>2014-02-23T10:38:44Z</time>
      </trkpt>
      <trkpt lat="41.621840050" lon="2.493648380">
        <ele>519.30</ele>
        <time>2014-02-23T10:38:45Z</time>
      </trkpt>
      <trkpt lat="41.621813400" lon="2.493665140">
        <ele>519.10</ele>
        <time>2014-02-23T10:38:46Z</time>
      </trkpt>
      <trkpt lat="41.621788420" lon="2.493685090">
        <ele>519.00</ele>
        <time>2014-02-23T10:38:47Z</time>
      </trkpt>
      <trkpt lat="41.621763440" lon="2.493706710">
        <ele>519.50</ele>
        <time>2014-02-23T10:38:48Z</time>
      </trkpt>
      <trkpt lat="41.621738460" lon="2.493730010">
        <ele>519.90</ele>
        <time>2014-02-23T10:38:49Z</time>
      </trkpt>
      <trkpt lat="41.621716670" lon="2.493753480">
        <ele>520.10</ele>
        <time>2014-02-23T10:38:50Z</time>
      </trkpt>
      <trkpt lat="41.621693370" lon="2.493773430">
        <ele>520.40</ele>
        <time>2014-02-23T10:38:51Z</time>
      </trkpt>
      <trkpt lat="41.621668390" lon="2.493796730">
        <ele>520.50</ele>
        <time>2014-02-23T10:38:52Z</time>
      </trkpt>
      <trkpt lat="41.621645090" lon="2.493816680">
        <ele>520.30</ele>
        <time>2014-02-23T10:38:53Z</time>
      </trkpt>
      <trkpt lat="41.621620110" lon="2.493835120">
        <ele>520.20</ele>
        <time>2014-02-23T10:38:54Z</time>
      </trkpt>
      <trkpt lat="41.621595130" lon="2.493851720">
        <ele>520.00</ele>
        <time>2014-02-23T10:38:55Z</time>
      </trkpt>
      <trkpt lat="41.621570150" lon="2.493866810">
        <ele>519.90</ele>
        <time>2014-02-23T10:38:56Z</time>
      </trkpt>
      <trkpt lat="41.621545010" lon="2.493885080">
        <ele>519.90</ele>
        <time>2014-02-23T10:38:57Z</time>
      </trkpt>
      <trkpt lat="41.621520030" lon="2.493901680">
        <ele>519.90</ele>
        <time>2014-02-23T10:38:58Z</time>
      </trkpt>
      <trkpt lat="41.621498400" lon="2.493926820">
        <ele>519.90</ele>
        <time>2014-02-23T10:38:59Z</time>
      </trkpt>
      <trkpt lat="41.621478460" lon="2.493958340">
        <ele>520.50</ele>
        <time>2014-02-23T10:39:00Z</time>
      </trkpt>
      <trkpt lat="41.621460020" lon="2.493995050">
        <ele>520.90</ele>
        <time>2014-02-23T10:39:01Z</time>
      </trkpt>
      <trkpt lat="41.621448450" lon="2.494038470">
        <ele>521.00</ele>
        <time>2014-02-23T10:39:02Z</time>
      </trkpt>
      <trkpt lat="41.621443420" lon="2.494083400">
        <ele>521.20</ele>
        <time>2014-02-23T10:39:03Z</time>
      </trkpt>
      <trkpt lat="41.621441740" lon="2.494133350">
        <ele>520.80</ele>
        <time>2014-02-23T10:39:04Z</time>
      </trkpt>
      <trkpt lat="41.621443420" lon="2.494185150">
        <ele>520.50</ele>
        <time>2014-02-23T10:39:05Z</time>
      </trkpt>
      <trkpt lat="41.621443420" lon="2.494235110">
        <ele>520.30</ele>
        <time>2014-02-23T10:39:06Z</time>
      </trkpt>
      <trkpt lat="41.621443420" lon="2.494286740">
        <ele>520.50</ele>
        <time>2014-02-23T10:39:07Z</time>
      </trkpt>
      <trkpt lat="41.621446770" lon="2.494328480">
        <ele>520.50</ele>
        <time>2014-02-23T10:39:08Z</time>
      </trkpt>
      <trkpt lat="41.621450120" lon="2.494370060">
        <ele>520.50</ele>
        <time>2014-02-23T10:39:09Z</time>
      </trkpt>
      <trkpt lat="41.621453480" lon="2.494411800">
        <ele>520.50</ele>
        <time>2014-02-23T10:39:10Z</time>
      </trkpt>
      <trkpt lat="41.621458340" lon="2.494451700">
        <ele>520.50</ele>
        <time>2014-02-23T10:39:11Z</time>
      </trkpt>
      <trkpt lat="41.621463370" lon="2.494491760">
        <ele>520.60</ele>
        <time>2014-02-23T10:39:12Z</time>
      </trkpt>
      <trkpt lat="41.621470070" lon="2.494533340">
        <ele>520.80</ele>
        <time>2014-02-23T10:39:13Z</time>
      </trkpt>
      <trkpt lat="41.621471750" lon="2.494576750">
        <ele>520.40</ele>
        <time>2014-02-23T10:39:14Z</time>
      </trkpt>
      <trkpt lat="41.621456660" lon="2.494616820">
        <ele>520.20</ele>
        <time>2014-02-23T10:39:15Z</time>
      </trkpt>
      <trkpt lat="41.621436710" lon="2.494655040">
        <ele>519.90</ele>
        <time>2014-02-23T10:39:16Z</time>
      </trkpt>
      <trkpt lat="41.621415090" lon="2.494685050">
        <ele>519.80</ele>
        <time>2014-02-23T10:39:17Z</time>
      </trkpt>
      <trkpt lat="41.621391790" lon="2.494708350">
        <ele>519.60</ele>
        <time>2014-02-23T10:39:18Z</time>
      </trkpt>
      <trkpt lat="41.621370160" lon="2.494735000">
        <ele>519.40</ele>
        <time>2014-02-23T10:39:19Z</time>
      </trkpt>
      <trkpt lat="41.621346690" lon="2.494760150">
        <ele>519.30</ele>
        <time>2014-02-23T10:39:20Z</time>
      </trkpt>
      <trkpt lat="41.621325070" lon="2.494786810">
        <ele>519.50</ele>
        <time>2014-02-23T10:39:21Z</time>
      </trkpt>
      <trkpt lat="41.621305120" lon="2.494818490">
        <ele>519.60</ele>
        <time>2014-02-23T10:39:22Z</time>
      </trkpt>
      <trkpt lat="41.621291710" lon="2.494856710">
        <ele>519.50</ele>
        <time>2014-02-23T10:39:23Z</time>
      </trkpt>
      <trkpt lat="41.621283490" lon="2.494898450">
        <ele>519.40</ele>
        <time>2014-02-23T10:39:24Z</time>
      </trkpt>
      <trkpt lat="41.621273430" lon="2.494950080">
        <ele>519.40</ele>
        <time>2014-02-23T10:39:25Z</time>
      </trkpt>
      <trkpt lat="41.621263380" lon="2.495005070">
        <ele>519.20</ele>
        <time>2014-02-23T10:39:26Z</time>
      </trkpt>
      <trkpt lat="41.621246780" lon="2.495066760">
        <ele>519.10</ele>
        <time>2014-02-23T10:39:27Z</time>
      </trkpt>
      <trkpt lat="41.621221800" lon="2.495116720">
        <ele>519.00</ele>
        <time>2014-02-23T10:39:28Z</time>
      </trkpt>
      <trkpt lat="41.621180060" lon="2.495153430">
        <ele>518.90</ele>
        <time>2014-02-23T10:39:29Z</time>
      </trkpt>
      <trkpt lat="41.621133460" lon="2.495165000">
        <ele>518.90</ele>
        <time>2014-02-23T10:39:30Z</time>
      </trkpt>
      <trkpt lat="41.621085010" lon="2.495161810">
        <ele>519.00</ele>
        <time>2014-02-23T10:39:31Z</time>
      </trkpt>
      <trkpt lat="41.621038410" lon="2.495143370">
        <ele>519.10</ele>
        <time>2014-02-23T10:39:32Z</time>
      </trkpt>
      <trkpt lat="41.620998340" lon="2.495116720">
        <ele>519.00</ele>
        <time>2014-02-23T10:39:33Z</time>
      </trkpt>
      <trkpt lat="41.620958440" lon="2.495088390">
        <ele>518.90</ele>
        <time>2014-02-23T10:39:34Z</time>
      </trkpt>
      <trkpt lat="41.620911670" lon="2.495060060">
        <ele>518.50</ele>
        <time>2014-02-23T10:39:35Z</time>
      </trkpt>
      <trkpt lat="41.620861720" lon="2.495023340">
        <ele>518.10</ele>
        <time>2014-02-23T10:39:36Z</time>
      </trkpt>
      <trkpt lat="41.620813440" lon="2.494985120">
        <ele>517.90</ele>
        <time>2014-02-23T10:39:37Z</time>
      </trkpt>
      <trkpt lat="41.620765160" lon="2.494945060">
        <ele>517.40</ele>
        <time>2014-02-23T10:39:38Z</time>
      </trkpt>
      <trkpt lat="41.620720060" lon="2.494906670">
        <ele>517.00</ele>
        <time>2014-02-23T10:39:39Z</time>
      </trkpt>
      <trkpt lat="41.620673460" lon="2.494868440">
        <ele>516.30</ele>
        <time>2014-02-23T10:39:40Z</time>
      </trkpt>
      <trkpt lat="41.620626690" lon="2.494831730">
        <ele>515.80</ele>
        <time>2014-02-23T10:39:41Z</time>
      </trkpt>
      <trkpt lat="41.620583440" lon="2.494790160">
        <ele>515.50</ele>
        <time>2014-02-23T10:39:42Z</time>
      </trkpt>
      <trkpt lat="41.620536670" lon="2.494760150">
        <ele>515.30</ele>
        <time>2014-02-23T10:39:43Z</time>
      </trkpt>
      <trkpt lat="41.620488390" lon="2.494745060">
        <ele>515.10</ele>
        <time>2014-02-23T10:39:44Z</time>
      </trkpt>
      <trkpt lat="41.620441780" lon="2.494751770">
        <ele>514.50</ele>
        <time>2014-02-23T10:39:45Z</time>
      </trkpt>
      <trkpt lat="41.620395010" lon="2.494790160">
        <ele>514.00</ele>
        <time>2014-02-23T10:39:46Z</time>
      </trkpt>
      <trkpt lat="41.620361820" lon="2.494838440">
        <ele>513.40</ele>
        <time>2014-02-23T10:39:47Z</time>
      </trkpt>
      <trkpt lat="41.620326780" lon="2.494898450">
        <ele>512.90</ele>
        <time>2014-02-23T10:39:48Z</time>
      </trkpt>
      <trkpt lat="41.620286720" lon="2.494948410">
        <ele>512.50</ele>
        <time>2014-02-23T10:39:49Z</time>
      </trkpt>
      <trkpt lat="41.620243470" lon="2.494993340">
        <ele>511.60</ele>
        <time>2014-02-23T10:39:50Z</time>
      </trkpt>
      <trkpt lat="41.620195020" lon="2.495033400">
        <ele>510.80</ele>
        <time>2014-02-23T10:39:51Z</time>
      </trkpt>
      <trkpt lat="41.620143390" lon="2.495073470">
        <ele>510.30</ele>
        <time>2014-02-23T10:39:52Z</time>
      </trkpt>
      <trkpt lat="41.620095110" lon="2.495113360">
        <ele>509.90</ele>
        <time>2014-02-23T10:39:53Z</time>
      </trkpt>
      <trkpt lat="41.620050010" lon="2.495153430">
        <ele>508.90</ele>
        <time>2014-02-23T10:39:54Z</time>
      </trkpt>
      <trkpt lat="41.620011790" lon="2.495191820">
        <ele>508.20</ele>
        <time>2014-02-23T10:39:55Z</time>
      </trkpt>
      <trkpt lat="41.619978430" lon="2.495226690">
        <ele>507.60</ele>
        <time>2014-02-23T10:39:56Z</time>
      </trkpt>
      <trkpt lat="41.619941720" lon="2.495260050">
        <ele>507.40</ele>
        <time>2014-02-23T10:39:57Z</time>
      </trkpt>
      <trkpt lat="41.619900140" lon="2.495275130">
        <ele>507.20</ele>
        <time>2014-02-23T10:39:58Z</time>
      </trkpt>
      <trkpt lat="41.619853370" lon="2.495271780">
        <ele>506.80</ele>
        <time>2014-02-23T10:39:59Z</time>
      </trkpt>
      <trkpt lat="41.619811800" lon="2.495248480">
        <ele>506.50</ele>
        <time>2014-02-23T10:40:00Z</time>
      </trkpt>
      <trkpt lat="41.619770060" lon="2.495218470">
        <ele>506.00</ele>
        <time>2014-02-23T10:40:01Z</time>
      </trkpt>
      <trkpt lat="41.619725130" lon="2.495193500">
        <ele>505.60</ele>
        <time>2014-02-23T10:40:02Z</time>
      </trkpt>
      <trkpt lat="41.619678360" lon="2.495170030">
        <ele>505.30</ele>
        <time>2014-02-23T10:40:03Z</time>
      </trkpt>
      <trkpt lat="41.619630080" lon="2.495145050">
        <ele>505.10</ele>
        <time>2014-02-23T10:40:04Z</time>
      </trkpt>
      <trkpt lat="41.619583480" lon="2.495118390">
        <ele>505.00</ele>
        <time>2014-02-23T10:40:05Z</time>
      </trkpt>
      <trkpt lat="41.619533350" lon="2.495090060">
        <ele>505.10</ele>
        <time>2014-02-23T10:40:06Z</time>
      </trkpt>
      <trkpt lat="41.619486750" lon="2.495060060">
        <ele>505.20</ele>
        <time>2014-02-23T10:40:07Z</time>
      </trkpt>
      <trkpt lat="41.619436790" lon="2.495035080">
        <ele>505.30</ele>
        <time>2014-02-23T10:40:08Z</time>
      </trkpt>
      <trkpt lat="41.619385160" lon="2.495018480">
        <ele>505.10</ele>
        <time>2014-02-23T10:40:09Z</time>
      </trkpt>
      <trkpt lat="41.619331680" lon="2.495001720">
        <ele>504.90</ele>
        <time>2014-02-23T10:40:10Z</time>
      </trkpt>
      <trkpt lat="41.619280050" lon="2.494990150">
        <ele>504.40</ele>
        <time>2014-02-23T10:40:11Z</time>
      </trkpt>
      <trkpt lat="41.619225060" lon="2.494981770">
        <ele>504.00</ele>
        <time>2014-02-23T10:40:12Z</time>
      </trkpt>
      <trkpt lat="41.619175110" lon="2.494981770">
        <ele>504.00</ele>
        <time>2014-02-23T10:40:13Z</time>
      </trkpt>
      <trkpt lat="41.619125150" lon="2.494998360">
        <ele>504.00</ele>
        <time>2014-02-23T10:40:14Z</time>
      </trkpt>
      <trkpt lat="41.619076710" lon="2.495023340">
        <ele>504.00</ele>
        <time>2014-02-23T10:40:15Z</time>
      </trkpt>
      <trkpt lat="41.619030100" lon="2.495060060">
        <ele>503.50</ele>
        <time>2014-02-23T10:40:16Z</time>
      </trkpt>
      <trkpt lat="41.618986680" lon="2.495105150">
        <ele>503.10</ele>
        <time>2014-02-23T10:40:17Z</time>
      </trkpt>
      <trkpt lat="41.618951810" lon="2.495150080">
        <ele>502.70</ele>
        <time>2014-02-23T10:40:18Z</time>
      </trkpt>
      <trkpt lat="41.618913430" lon="2.495198360">
        <ele>502.50</ele>
        <time>2014-02-23T10:40:19Z</time>
      </trkpt>
      <trkpt lat="41.618878390" lon="2.495243450">
        <ele>502.30</ele>
        <time>2014-02-23T10:40:20Z</time>
      </trkpt>
      <trkpt lat="41.618845030" lon="2.495285030">
        <ele>502.10</ele>
        <time>2014-02-23T10:40:21Z</time>
      </trkpt>
      <trkpt lat="41.618813350" lon="2.495321740">
        <ele>501.90</ele>
        <time>2014-02-23T10:40:22Z</time>
      </trkpt>
      <trkpt lat="41.618788370" lon="2.495351750">
        <ele>501.70</ele>
        <time>2014-02-23T10:40:23Z</time>
      </trkpt>
      <trkpt lat="41.618760040" lon="2.495386780">
        <ele>501.60</ele>
        <time>2014-02-23T10:40:24Z</time>
      </trkpt>
      <trkpt lat="41.618728350" lon="2.495420140">
        <ele>501.10</ele>
        <time>2014-02-23T10:40:25Z</time>
      </trkpt>
      <trkpt lat="41.618693480" lon="2.495453330">
        <ele>500.60</ele>
        <time>2014-02-23T10:40:26Z</time>
      </trkpt>
      <trkpt lat="41.618655100" lon="2.495488370">
        <ele>500.30</ele>
        <time>2014-02-23T10:40:27Z</time>
      </trkpt>
      <trkpt lat="41.618611680" lon="2.495528440">
        <ele>500.20</ele>
        <time>2014-02-23T10:40:28Z</time>
      </trkpt>
      <trkpt lat="41.618566750" lon="2.495566830">
        <ele>500.10</ele>
        <time>2014-02-23T10:40:29Z</time>
      </trkpt>
      <trkpt lat="41.618513440" lon="2.495595160">
        <ele>499.60</ele>
        <time>2014-02-23T10:40:30Z</time>
      </trkpt>
      <trkpt lat="41.618460130" lon="2.495616780">
        <ele>499.30</ele>
        <time>2014-02-23T10:40:31Z</time>
      </trkpt>
      <trkpt lat="41.618401790" lon="2.495628350">
        <ele>499.10</ele>
        <time>2014-02-23T10:40:32Z</time>
      </trkpt>
      <trkpt lat="41.618340100" lon="2.495630020">
        <ele>498.90</ele>
        <time>2014-02-23T10:40:33Z</time>
      </trkpt>
      <trkpt lat="41.618278410" lon="2.495626670">
        <ele>498.80</ele>
        <time>2014-02-23T10:40:34Z</time>
      </trkpt>
      <trkpt lat="41.618208340" lon="2.495615100">
        <ele>498.40</ele>
        <time>2014-02-23T10:40:35Z</time>
      </trkpt>
      <trkpt lat="41.618145140" lon="2.495598340">
        <ele>498.10</ele>
        <time>2014-02-23T10:40:36Z</time>
      </trkpt>
      <trkpt lat="41.618090160" lon="2.495580070">
        <ele>497.50</ele>
        <time>2014-02-23T10:40:37Z</time>
      </trkpt>
      <trkpt lat="41.618025110" lon="2.495575040">
        <ele>497.10</ele>
        <time>2014-02-23T10:40:38Z</time>
      </trkpt>
      <trkpt lat="41.617968450" lon="2.495563470">
        <ele>496.30</ele>
        <time>2014-02-23T10:40:39Z</time>
      </trkpt>
      <trkpt lat="41.617906760" lon="2.495551740">
        <ele>495.60</ele>
        <time>2014-02-23T10:40:40Z</time>
      </trkpt>
      <trkpt lat="41.617843390" lon="2.495543360">
        <ele>495.10</ele>
        <time>2014-02-23T10:40:41Z</time>
      </trkpt>
      <trkpt lat="41.617775000" lon="2.495541680">
        <ele>494.20</ele>
        <time>2014-02-23T10:40:42Z</time>
      </trkpt>
      <trkpt lat="41.617700060" lon="2.495548380">
        <ele>493.50</ele>
        <time>2014-02-23T10:40:43Z</time>
      </trkpt>
      <trkpt lat="41.617623450" lon="2.495556770">
        <ele>493.00</ele>
        <time>2014-02-23T10:40:44Z</time>
      </trkpt>
      <trkpt lat="41.617550030" lon="2.495565150">
        <ele>492.70</ele>
        <time>2014-02-23T10:40:45Z</time>
      </trkpt>
      <trkpt lat="41.617480120" lon="2.495573360">
        <ele>492.40</ele>
        <time>2014-02-23T10:40:46Z</time>
      </trkpt>
      <trkpt lat="41.617411720" lon="2.495585100">
        <ele>491.80</ele>
        <time>2014-02-23T10:40:47Z</time>
      </trkpt>
      <trkpt lat="41.617341820" lon="2.495590130">
        <ele>491.40</ele>
        <time>2014-02-23T10:40:48Z</time>
      </trkpt>
      <trkpt lat="41.617270070" lon="2.495580070">
        <ele>490.80</ele>
        <time>2014-02-23T10:40:49Z</time>
      </trkpt>
      <trkpt lat="41.617200000" lon="2.495566830">
        <ele>490.30</ele>
        <time>2014-02-23T10:40:50Z</time>
      </trkpt>
      <trkpt lat="41.617135120" lon="2.495546710">
        <ele>489.80</ele>
        <time>2014-02-23T10:40:51Z</time>
      </trkpt>
      <trkpt lat="41.617073430" lon="2.495526760">
        <ele>489.40</ele>
        <time>2014-02-23T10:40:52Z</time>
      </trkpt>
      <trkpt lat="41.617011740" lon="2.495508490">
        <ele>489.10</ele>
        <time>2014-02-23T10:40:53Z</time>
      </trkpt>
      <trkpt lat="41.616950050" lon="2.495491720">
        <ele>488.70</ele>
        <time>2014-02-23T10:40:54Z</time>
      </trkpt>
      <trkpt lat="41.616893390" lon="2.495471770">
        <ele>488.30</ele>
        <time>2014-02-23T10:40:55Z</time>
      </trkpt>
      <trkpt lat="41.616841750" lon="2.495455010">
        <ele>488.10</ele>
        <time>2014-02-23T10:40:56Z</time>
      </trkpt>
      <trkpt lat="41.616791800" lon="2.495438410">
        <ele>487.90</ele>
        <time>2014-02-23T10:40:57Z</time>
      </trkpt>
      <trkpt lat="41.616743350" lon="2.495420140">
        <ele>487.80</ele>
        <time>2014-02-23T10:40:58Z</time>
      </trkpt>
      <trkpt lat="41.616695070" lon="2.495406730">
        <ele>487.70</ele>
        <time>2014-02-23T10:40:59Z</time>
      </trkpt>
      <trkpt lat="41.616648470" lon="2.495403380">
        <ele>487.60</ele>
        <time>2014-02-23T10:41:00Z</time>
      </trkpt>
      <trkpt lat="41.616610080" lon="2.495400030">
        <ele>487.50</ele>
        <time>2014-02-23T10:41:01Z</time>
      </trkpt>
      <trkpt lat="41.616585100" lon="2.495398350">
        <ele>487.50</ele>
        <time>2014-02-23T10:41:02Z</time>
      </trkpt>
      <trkpt lat="41.616566830" lon="2.495401700">
        <ele>487.20</ele>
        <time>2014-02-23T10:41:03Z</time>
      </trkpt>
      <trkpt lat="41.616548390" lon="2.495410080">
        <ele>487.00</ele>
        <time>2014-02-23T10:41:04Z</time>
      </trkpt>
      <trkpt lat="41.616525090" lon="2.495418470">
        <ele>486.90</ele>
        <time>2014-02-23T10:41:05Z</time>
      </trkpt>
      <trkpt lat="41.616496760" lon="2.495435060">
        <ele>486.80</ele>
        <time>2014-02-23T10:41:06Z</time>
      </trkpt>
      <trkpt lat="41.616468420" lon="2.495461720">
        <ele>486.70</ele>
        <time>2014-02-23T10:41:07Z</time>
      </trkpt>
      <trkpt lat="41.616440090" lon="2.495503460">
        <ele>486.60</ele>
        <time>2014-02-23T10:41:08Z</time>
      </trkpt>
      <trkpt lat="41.616421820" lon="2.495556770">
        <ele>486.60</ele>
        <time>2014-02-23T10:41:09Z</time>
      </trkpt>
      <trkpt lat="41.616410090" lon="2.495620130">
        <ele>486.60</ele>
        <time>2014-02-23T10:41:10Z</time>
      </trkpt>
      <trkpt lat="41.616401700" lon="2.495693390">
        <ele>486.70</ele>
        <time>2014-02-23T10:41:11Z</time>
      </trkpt>
      <trkpt lat="41.616398350" lon="2.495776710">
        <ele>486.70</ele>
        <time>2014-02-23T10:41:12Z</time>
      </trkpt>
      <trkpt lat="41.616396680" lon="2.495860020">
        <ele>485.70</ele>
        <time>2014-02-23T10:41:13Z</time>
      </trkpt>
      <trkpt lat="41.616393490" lon="2.495943340">
        <ele>485.00</ele>
        <time>2014-02-23T10:41:14Z</time>
      </trkpt>
      <trkpt lat="41.616388460" lon="2.496025150">
        <ele>484.20</ele>
        <time>2014-02-23T10:41:15Z</time>
      </trkpt>
      <trkpt lat="41.616373370" lon="2.496105110">
        <ele>483.70</ele>
        <time>2014-02-23T10:41:16Z</time>
      </trkpt>
      <trkpt lat="41.616358450" lon="2.496185070">
        <ele>482.50</ele>
        <time>2014-02-23T10:41:17Z</time>
      </trkpt>
      <trkpt lat="41.616341690" lon="2.496265040">
        <ele>481.60</ele>
        <time>2014-02-23T10:41:18Z</time>
      </trkpt>
      <trkpt lat="41.616321740" lon="2.496341820">
        <ele>481.00</ele>
        <time>2014-02-23T10:41:19Z</time>
      </trkpt>
      <trkpt lat="41.616301790" lon="2.496413400">
        <ele>480.50</ele>
        <time>2014-02-23T10:41:20Z</time>
      </trkpt>
      <trkpt lat="41.616276810" lon="2.496476760">
        <ele>480.20</ele>
        <time>2014-02-23T10:41:21Z</time>
      </trkpt>
      <trkpt lat="41.616241780" lon="2.496536780">
        <ele>479.30</ele>
        <time>2014-02-23T10:41:22Z</time>
      </trkpt>
      <trkpt lat="41.616200040" lon="2.496595120">
        <ele>478.60</ele>
        <time>2014-02-23T10:41:23Z</time>
      </trkpt>
      <trkpt lat="41.616155110" lon="2.496650100">
        <ele>478.10</ele>
        <time>2014-02-23T10:41:24Z</time>
      </trkpt>
      <trkpt lat="41.616106830" lon="2.496698380">
        <ele>477.30</ele>
        <time>2014-02-23T10:41:25Z</time>
      </trkpt>
      <trkpt lat="41.616056710" lon="2.496736770">
        <ele>476.70</ele>
        <time>2014-02-23T10:41:26Z</time>
      </trkpt>
      <trkpt lat="41.616008430" lon="2.496760070">
        <ele>476.20</ele>
        <time>2014-02-23T10:41:27Z</time>
      </trkpt>
      <trkpt lat="41.615963330" lon="2.496768450">
        <ele>475.80</ele>
        <time>2014-02-23T10:41:28Z</time>
      </trkpt>
      <trkpt lat="41.615923430" lon="2.496761750">
        <ele>474.90</ele>
        <time>2014-02-23T10:41:29Z</time>
      </trkpt>
      <trkpt lat="41.615880010" lon="2.496743480">
        <ele>474.20</ele>
        <time>2014-02-23T10:41:30Z</time>
      </trkpt>
      <trkpt lat="41.615838440" lon="2.496710120">
        <ele>473.70</ele>
        <time>2014-02-23T10:41:31Z</time>
      </trkpt>
      <trkpt lat="41.615798380" lon="2.496663350">
        <ele>473.20</ele>
        <time>2014-02-23T10:41:32Z</time>
      </trkpt>
      <trkpt lat="41.615763340" lon="2.496613390">
        <ele>472.80</ele>
        <time>2014-02-23T10:41:33Z</time>
      </trkpt>
      <trkpt lat="41.615731820" lon="2.496563430">
        <ele>472.30</ele>
        <time>2014-02-23T10:41:34Z</time>
      </trkpt>
      <trkpt lat="41.615700140" lon="2.496508450">
        <ele>471.90</ele>
        <time>2014-02-23T10:41:35Z</time>
      </trkpt>
      <trkpt lat="41.615663430" lon="2.496450110">
        <ele>470.90</ele>
        <time>2014-02-23T10:41:36Z</time>
      </trkpt>
      <trkpt lat="41.615625040" lon="2.496378360">
        <ele>470.10</ele>
        <time>2014-02-23T10:41:37Z</time>
      </trkpt>
      <trkpt lat="41.615593350" lon="2.496296720">
        <ele>469.50</ele>
        <time>2014-02-23T10:41:38Z</time>
      </trkpt>
      <trkpt lat="41.615568380" lon="2.496215080">
        <ele>469.00</ele>
        <time>2014-02-23T10:41:39Z</time>
      </trkpt>
      <trkpt lat="41.615540040" lon="2.496135120">
        <ele>468.70</ele>
        <time>2014-02-23T10:41:40Z</time>
      </trkpt>
      <trkpt lat="41.615518420" lon="2.496051800">
        <ele>467.80</ele>
        <time>2014-02-23T10:41:41Z</time>
      </trkpt>
      <trkpt lat="41.615493440" lon="2.495973350">
        <ele>467.10</ele>
        <time>2014-02-23T10:41:42Z</time>
      </trkpt>
      <trkpt lat="41.615461760" lon="2.495901770">
        <ele>466.30</ele>
        <time>2014-02-23T10:41:43Z</time>
      </trkpt>
      <trkpt lat="41.615425050" lon="2.495831690">
        <ele>465.70</ele>
        <time>2014-02-23T10:41:44Z</time>
      </trkpt>
      <trkpt lat="41.615385150" lon="2.495770000">
        <ele>465.20</ele>
        <time>2014-02-23T10:41:45Z</time>
      </trkpt>
      <trkpt lat="41.615345080" lon="2.495711660">
        <ele>464.20</ele>
        <time>2014-02-23T10:41:46Z</time>
      </trkpt>
      <trkpt lat="41.615305020" lon="2.495655000">
        <ele>463.40</ele>
        <time>2014-02-23T10:41:47Z</time>
      </trkpt>
      <trkpt lat="41.615266790" lon="2.495601690">
        <ele>462.30</ele>
        <time>2014-02-23T10:41:48Z</time>
      </trkpt>
      <trkpt lat="41.615228410" lon="2.495543360">
        <ele>461.50</ele>
        <time>2014-02-23T10:41:49Z</time>
      </trkpt>
      <trkpt lat="41.615190020" lon="2.495483340">
        <ele>460.90</ele>
        <time>2014-02-23T10:41:50Z</time>
      </trkpt>
      <trkpt lat="41.615146770" lon="2.495436740">
        <ele>460.10</ele>
        <time>2014-02-23T10:41:51Z</time>
      </trkpt>
      <trkpt lat="41.615098490" lon="2.495413440">
        <ele>459.50</ele>
        <time>2014-02-23T10:41:52Z</time>
      </trkpt>
      <trkpt lat="41.615045010" lon="2.495413440">
        <ele>458.60</ele>
        <time>2014-02-23T10:41:53Z</time>
      </trkpt>
      <trkpt lat="41.614991700" lon="2.495426680">
        <ele>457.90</ele>
        <time>2014-02-23T10:41:54Z</time>
      </trkpt>
      <trkpt lat="41.614936720" lon="2.495446800">
        <ele>457.40</ele>
        <time>2014-02-23T10:41:55Z</time>
      </trkpt>
      <trkpt lat="41.614880050" lon="2.495470100">
        <ele>456.90</ele>
        <time>2014-02-23T10:41:56Z</time>
      </trkpt>
      <trkpt lat="41.614821720" lon="2.495496750">
        <ele>456.60</ele>
        <time>2014-02-23T10:41:57Z</time>
      </trkpt>
      <trkpt lat="41.614758350" lon="2.495531790">
        <ele>456.00</ele>
        <time>2014-02-23T10:41:58Z</time>
      </trkpt>
      <trkpt lat="41.614696830" lon="2.495561800">
        <ele>455.50</ele>
        <time>2014-02-23T10:41:59Z</time>
      </trkpt>
      <trkpt lat="41.614633460" lon="2.495588450">
        <ele>454.50</ele>
        <time>2014-02-23T10:42:00Z</time>
      </trkpt>
      <trkpt lat="41.614563390" lon="2.495603370">
        <ele>453.70</ele>
        <time>2014-02-23T10:42:01Z</time>
      </trkpt>
      <trkpt lat="41.614490130" lon="2.495611750">
        <ele>452.60</ele>
        <time>2014-02-23T10:42:02Z</time>
      </trkpt>
      <trkpt lat="41.614411670" lon="2.495613430">
        <ele>451.70</ele>
        <time>2014-02-23T10:42:03Z</time>
      </trkpt>
      <trkpt lat="41.614328360" lon="2.495621810">
        <ele>451.10</ele>
        <time>2014-02-23T10:42:04Z</time>
      </trkpt>
      <trkpt lat="41.614245040" lon="2.495638410">
        <ele>450.00</ele>
        <time>2014-02-23T10:42:05Z</time>
      </trkpt>
      <trkpt lat="41.614156700" lon="2.495663380">
        <ele>449.20</ele>
        <time>2014-02-23T10:42:06Z</time>
      </trkpt>
      <trkpt lat="41.614073380" lon="2.495690040">
        <ele>448.40</ele>
        <time>2014-02-23T10:42:07Z</time>
      </trkpt>
      <trkpt lat="41.613991740" lon="2.495711660">
        <ele>447.90</ele>
        <time>2014-02-23T10:42:08Z</time>
      </trkpt>
      <trkpt lat="41.613915130" lon="2.495735130">
        <ele>447.40</ele>
        <time>2014-02-23T10:42:09Z</time>
      </trkpt>
      <trkpt lat="41.613840030" lon="2.495766820">
        <ele>447.00</ele>
        <time>2014-02-23T10:42:10Z</time>
      </trkpt>
      <trkpt lat="41.613763420" lon="2.495801690">
        <ele>446.60</ele>
        <time>2014-02-23T10:42:11Z</time>
      </trkpt>
      <trkpt lat="41.613685130" lon="2.495833370">
        <ele>446.00</ele>
        <time>2014-02-23T10:42:12Z</time>
      </trkpt>
      <trkpt lat="41.613605000" lon="2.495863380">
        <ele>445.40</ele>
        <time>2014-02-23T10:42:13Z</time>
      </trkpt>
      <trkpt lat="41.613525040" lon="2.495890030">
        <ele>445.00</ele>
        <time>2014-02-23T10:42:14Z</time>
      </trkpt>
      <trkpt lat="41.613448420" lon="2.495908470">
        <ele>444.60</ele>
        <time>2014-02-23T10:42:15Z</time>
      </trkpt>
      <trkpt lat="41.613370140" lon="2.495911820">
        <ele>444.30</ele>
        <time>2014-02-23T10:42:16Z</time>
      </trkpt>
      <trkpt lat="41.613293360" lon="2.495906800">
        <ele>443.60</ele>
        <time>2014-02-23T10:42:17Z</time>
      </trkpt>
      <trkpt lat="41.613216750" lon="2.495886680">
        <ele>443.00</ele>
        <time>2014-02-23T10:42:18Z</time>
      </trkpt>
      <trkpt lat="41.613141810" lon="2.495861700">
        <ele>442.60</ele>
        <time>2014-02-23T10:42:19Z</time>
      </trkpt>
      <trkpt lat="41.613070070" lon="2.495838400">
        <ele>442.30</ele>
        <time>2014-02-23T10:42:20Z</time>
      </trkpt>
      <trkpt lat="41.613003350" lon="2.495823480">
        <ele>442.10</ele>
        <time>2014-02-23T10:42:21Z</time>
      </trkpt>
      <trkpt lat="41.612936790" lon="2.495810070">
        <ele>441.50</ele>
        <time>2014-02-23T10:42:22Z</time>
      </trkpt>
      <trkpt lat="41.612875100" lon="2.495800010">
        <ele>441.00</ele>
        <time>2014-02-23T10:42:23Z</time>
      </trkpt>
      <trkpt lat="41.612816760" lon="2.495791800">
        <ele>440.00</ele>
        <time>2014-02-23T10:42:24Z</time>
      </trkpt>
      <trkpt lat="41.612766810" lon="2.495785090">
        <ele>439.30</ele>
        <time>2014-02-23T10:42:25Z</time>
      </trkpt>
      <trkpt lat="41.612721710" lon="2.495775030">
        <ele>438.80</ele>
        <time>2014-02-23T10:42:26Z</time>
      </trkpt>
      <trkpt lat="41.612680140" lon="2.495770000">
        <ele>438.30</ele>
        <time>2014-02-23T10:42:27Z</time>
      </trkpt>
      <trkpt lat="41.612650130" lon="2.495775030">
        <ele>438.00</ele>
        <time>2014-02-23T10:42:28Z</time>
      </trkpt>
      <trkpt lat="41.612628340" lon="2.495788440">
        <ele>437.60</ele>
        <time>2014-02-23T10:42:29Z</time>
      </trkpt>
      <trkpt lat="41.612616770" lon="2.495798330">
        <ele>437.20</ele>
        <time>2014-02-23T10:42:30Z</time>
      </trkpt>
      <trkpt lat="41.612613420" lon="2.495803360">
        <ele>437.20</ele>
        <time>2014-02-23T10:42:31Z</time>
      </trkpt>
      <trkpt lat="41.612610070" lon="2.495805040">
        <ele>437.10</ele>
        <time>2014-02-23T10:42:32Z</time>
      </trkpt>
      <trkpt lat="41.612606710" lon="2.495808390">
        <ele>437.00</ele>
        <time>2014-02-23T10:42:33Z</time>
      </trkpt>
      <trkpt lat="41.612605040" lon="2.495810070">
        <ele>436.90</ele>
        <time>2014-02-23T10:42:34Z</time>
      </trkpt>
      <trkpt lat="41.612601680" lon="2.495811740">
        <ele>436.90</ele>
        <time>2014-02-23T10:42:35Z</time>
      </trkpt>
      <trkpt lat="41.612600010" lon="2.495813420">
        <ele>436.90</ele>
        <time>2014-02-23T10:42:36Z</time>
      </trkpt>
      <trkpt lat="41.612598330" lon="2.495813420">
        <ele>436.80</ele>
        <time>2014-02-23T10:42:37Z</time>
      </trkpt>
      <trkpt lat="41.612595150" lon="2.495815100">
        <ele>436.90</ele>
        <time>2014-02-23T10:42:38Z</time>
      </trkpt>
      <trkpt lat="41.612595150" lon="2.495816770">
        <ele>437.00</ele>
        <time>2014-02-23T10:42:39Z</time>
      </trkpt>
      <trkpt lat="41.612593470" lon="2.495818450">
        <ele>436.70</ele>
        <time>2014-02-23T10:42:40Z</time>
      </trkpt>
      <trkpt lat="41.612593470" lon="2.495820130">
        <ele>436.50</ele>
        <time>2014-02-23T10:42:41Z</time>
      </trkpt>
      <trkpt lat="41.612591790" lon="2.495820130">
        <ele>436.30</ele>
        <time>2014-02-23T10:42:42Z</time>
      </trkpt>
      <trkpt lat="41.612591790" lon="2.495821800">
        <ele>436.10</ele>
        <time>2014-02-23T10:42:43Z</time>
      </trkpt>
      <trkpt lat="41.612591790" lon="2.495823480">
        <ele>435.90</ele>
        <time>2014-02-23T10:42:44Z</time>
      </trkpt>
      <trkpt lat="41.612591790" lon="2.495825160">
        <ele>435.70</ele>
        <time>2014-02-23T10:42:45Z</time>
      </trkpt>
      <trkpt lat="41.612591790" lon="2.495825160">
        <ele>435.60</ele>
        <time>2014-02-23T10:42:46Z</time>
      </trkpt>
      <trkpt lat="41.612591790" lon="2.495825160">
        <ele>435.50</ele>
        <time>2014-02-23T10:42:47Z</time>
      </trkpt>
      <trkpt lat="41.612591790" lon="2.495826660">
        <ele>435.50</ele>
        <time>2014-02-23T10:42:48Z</time>
      </trkpt>
      <trkpt lat="41.612591790" lon="2.495826660">
        <ele>435.50</ele>
        <time>2014-02-23T10:42:49Z</time>
      </trkpt>
      <trkpt lat="41.612591790" lon="2.495828340">
        <ele>435.60</ele>
        <time>2014-02-23T10:42:50Z</time>
      </trkpt>
      <trkpt lat="41.612591790" lon="2.495828340">
        <ele>435.70</ele>
        <time>2014-02-23T10:42:51Z</time>
      </trkpt>
      <trkpt lat="41.612591790" lon="2.495830020">
        <ele>436.20</ele>
        <time>2014-02-23T10:42:52Z</time>
      </trkpt>
      <trkpt lat="41.612591790" lon="2.495830020">
        <ele>436.50</ele>
        <time>2014-02-23T10:42:53Z</time>
      </trkpt>
      <trkpt lat="41.612591790" lon="2.495831690">
        <ele>436.70</ele>
        <time>2014-02-23T10:42:54Z</time>
      </trkpt>
      <trkpt lat="41.612593470" lon="2.495833370">
        <ele>436.30</ele>
        <time>2014-02-23T10:42:55Z</time>
      </trkpt>
      <trkpt lat="41.612593470" lon="2.495835050">
        <ele>435.90</ele>
        <time>2014-02-23T10:42:56Z</time>
      </trkpt>
      <trkpt lat="41.612593470" lon="2.495836720">
        <ele>435.90</ele>
        <time>2014-02-23T10:42:57Z</time>
      </trkpt>
      <trkpt lat="41.612591790" lon="2.495836720">
        <ele>435.90</ele>
        <time>2014-02-23T10:42:58Z</time>
      </trkpt>
      <trkpt lat="41.612591790" lon="2.495838400">
        <ele>436.00</ele>
        <time>2014-02-23T10:42:59Z</time>
      </trkpt>
      <trkpt lat="41.612591790" lon="2.495840080">
        <ele>436.00</ele>
        <time>2014-02-23T10:43:00Z</time>
      </trkpt>
      <trkpt lat="41.612591790" lon="2.495841750">
        <ele>436.00</ele>
        <time>2014-02-23T10:43:01Z</time>
      </trkpt>
      <trkpt lat="41.612591790" lon="2.495843430">
        <ele>436.10</ele>
        <time>2014-02-23T10:43:02Z</time>
      </trkpt>
      <trkpt lat="41.612593470" lon="2.495843430">
        <ele>436.10</ele>
        <time>2014-02-23T10:43:03Z</time>
      </trkpt>
      <trkpt lat="41.612593470" lon="2.495845100">
        <ele>436.20</ele>
        <time>2014-02-23T10:43:04Z</time>
      </trkpt>
      <trkpt lat="41.612591790" lon="2.495845100">
        <ele>436.30</ele>
        <time>2014-02-23T10:43:05Z</time>
      </trkpt>
      <trkpt lat="41.612593470" lon="2.495846780">
        <ele>436.40</ele>
        <time>2014-02-23T10:43:06Z</time>
      </trkpt>
      <trkpt lat="41.612593470" lon="2.495846780">
        <ele>436.20</ele>
        <time>2014-02-23T10:43:07Z</time>
      </trkpt>
      <trkpt lat="41.612593470" lon="2.495846780">
        <ele>436.20</ele>
        <time>2014-02-23T10:43:08Z</time>
      </trkpt>
      <trkpt lat="41.612593470" lon="2.495848460">
        <ele>435.70</ele>
        <time>2014-02-23T10:43:09Z</time>
      </trkpt>
      <trkpt lat="41.612593470" lon="2.495848460">
        <ele>435.40</ele>
        <time>2014-02-23T10:43:10Z</time>
      </trkpt>
      <trkpt lat="41.612593470" lon="2.495848460">
        <ele>435.60</ele>
        <time>2014-02-23T10:43:11Z</time>
      </trkpt>
      <trkpt lat="41.612593470" lon="2.495848460">
        <ele>435.70</ele>
        <time>2014-02-23T10:43:12Z</time>
      </trkpt>
      <trkpt lat="41.612593470" lon="2.495850130">
        <ele>435.80</ele>
        <time>2014-02-23T10:43:13Z</time>
      </trkpt>
      <trkpt lat="41.612591790" lon="2.495850130">
        <ele>435.70</ele>
        <time>2014-02-23T10:43:14Z</time>
      </trkpt>
      <trkpt lat="41.612591790" lon="2.495850130">
        <ele>435.70</ele>
        <time>2014-02-23T10:43:15Z</time>
      </trkpt>
      <trkpt lat="41.612591790" lon="2.495848460">
        <ele>435.90</ele>
        <time>2014-02-23T10:43:16Z</time>
      </trkpt>
      <trkpt lat="41.612593470" lon="2.495848460">
        <ele>436.00</ele>
        <time>2014-02-23T10:43:17Z</time>
      </trkpt>
      <trkpt lat="41.612596820" lon="2.495846780">
        <ele>436.10</ele>
        <time>2014-02-23T10:43:18Z</time>
      </trkpt>
      <trkpt lat="41.612598330" lon="2.495846780">
        <ele>436.10</ele>
        <time>2014-02-23T10:43:19Z</time>
      </trkpt>
      <trkpt lat="41.612598330" lon="2.495846780">
        <ele>436.20</ele>
        <time>2014-02-23T10:43:20Z</time>
      </trkpt>
      <trkpt lat="41.612598330" lon="2.495848460">
        <ele>436.00</ele>
        <time>2014-02-23T10:43:21Z</time>
      </trkpt>
      <trkpt lat="41.612598330" lon="2.495850130">
        <ele>435.90</ele>
        <time>2014-02-23T10:43:22Z</time>
      </trkpt>
      <trkpt lat="41.612598330" lon="2.495850130">
        <ele>436.00</ele>
        <time>2014-02-23T10:43:23Z</time>
      </trkpt>
      <trkpt lat="41.612598330" lon="2.495850130">
        <ele>436.00</ele>
        <time>2014-02-23T10:43:24Z</time>
      </trkpt>
      <trkpt lat="41.612598330" lon="2.495851810">
        <ele>436.00</ele>
        <time>2014-02-23T10:43:25Z</time>
      </trkpt>
      <trkpt lat="41.612598330" lon="2.495851810">
        <ele>436.10</ele>
        <time>2014-02-23T10:43:26Z</time>
      </trkpt>
      <trkpt lat="41.612598330" lon="2.495853490">
        <ele>436.10</ele>
        <time>2014-02-23T10:43:27Z</time>
      </trkpt>
      <trkpt lat="41.612598330" lon="2.495855160">
        <ele>436.20</ele>
        <time>2014-02-23T10:43:28Z</time>
      </trkpt>
      <trkpt lat="41.612598330" lon="2.495856670">
        <ele>436.40</ele>
        <time>2014-02-23T10:43:29Z</time>
      </trkpt>
      <trkpt lat="41.612596820" lon="2.495858350">
        <ele>436.40</ele>
        <time>2014-02-23T10:43:30Z</time>
      </trkpt>
      <trkpt lat="41.612596820" lon="2.495860020">
        <ele>436.40</ele>
        <time>2014-02-23T10:43:31Z</time>
      </trkpt>
      <trkpt lat="41.612596820" lon="2.495861700">
        <ele>436.40</ele>
        <time>2014-02-23T10:43:32Z</time>
      </trkpt>
      <trkpt lat="41.612595150" lon="2.495863380">
        <ele>436.50</ele>
        <time>2014-02-23T10:43:33Z</time>
      </trkpt>
      <trkpt lat="41.612595150" lon="2.495865050">
        <ele>436.60</ele>
        <time>2014-02-23T10:43:34Z</time>
      </trkpt>
      <trkpt lat="41.612595150" lon="2.495866730">
        <ele>436.40</ele>
        <time>2014-02-23T10:43:35Z</time>
      </trkpt>
      <trkpt lat="41.612593470" lon="2.495870080">
        <ele>436.30</ele>
        <time>2014-02-23T10:43:36Z</time>
      </trkpt>
      <trkpt lat="41.612593470" lon="2.495871760">
        <ele>436.70</ele>
        <time>2014-02-23T10:43:37Z</time>
      </trkpt>
      <trkpt lat="41.612591790" lon="2.495875110">
        <ele>437.00</ele>
        <time>2014-02-23T10:43:38Z</time>
      </trkpt>
      <trkpt lat="41.612590120" lon="2.495876790">
        <ele>437.20</ele>
        <time>2014-02-23T10:43:39Z</time>
      </trkpt>
      <trkpt lat="41.612590120" lon="2.495880140">
        <ele>437.00</ele>
        <time>2014-02-23T10:43:40Z</time>
      </trkpt>
      <trkpt lat="41.612588440" lon="2.495881820">
        <ele>436.80</ele>
        <time>2014-02-23T10:43:41Z</time>
      </trkpt>
      <trkpt lat="41.612588440" lon="2.495883490">
        <ele>436.60</ele>
        <time>2014-02-23T10:43:42Z</time>
      </trkpt>
      <trkpt lat="41.612586770" lon="2.495886680">
        <ele>436.50</ele>
        <time>2014-02-23T10:43:43Z</time>
      </trkpt>
      <trkpt lat="41.612585090" lon="2.495888350">
        <ele>436.40</ele>
        <time>2014-02-23T10:43:44Z</time>
      </trkpt>
      <trkpt lat="41.612585090" lon="2.495890030">
        <ele>436.00</ele>
        <time>2014-02-23T10:43:45Z</time>
      </trkpt>
      <trkpt lat="41.612585090" lon="2.495891710">
        <ele>435.80</ele>
        <time>2014-02-23T10:43:46Z</time>
      </trkpt>
      <trkpt lat="41.612583410" lon="2.495895060">
        <ele>436.20</ele>
        <time>2014-02-23T10:43:47Z</time>
      </trkpt>
      <trkpt lat="41.612583410" lon="2.495896740">
        <ele>436.50</ele>
        <time>2014-02-23T10:43:48Z</time>
      </trkpt>
      <trkpt lat="41.612583410" lon="2.495898410">
        <ele>436.50</ele>
        <time>2014-02-23T10:43:49Z</time>
      </trkpt>
      <trkpt lat="41.612583410" lon="2.495898410">
        <ele>436.50</ele>
        <time>2014-02-23T10:43:50Z</time>
      </trkpt>
      <trkpt lat="41.612581740" lon="2.495898410">
        <ele>436.60</ele>
        <time>2014-02-23T10:43:51Z</time>
      </trkpt>
      <trkpt lat="41.612583410" lon="2.495901770">
        <ele>436.80</ele>
        <time>2014-02-23T10:43:52Z</time>
      </trkpt>
      <trkpt lat="41.612583410" lon="2.495905120">
        <ele>437.00</ele>
        <time>2014-02-23T10:43:53Z</time>
      </trkpt>
      <trkpt lat="41.612583410" lon="2.495906800">
        <ele>436.80</ele>
        <time>2014-02-23T10:43:54Z</time>
      </trkpt>
      <trkpt lat="41.612583410" lon="2.495908470">
        <ele>436.70</ele>
        <time>2014-02-23T10:43:55Z</time>
      </trkpt>
      <trkpt lat="41.612583410" lon="2.495910150">
        <ele>436.50</ele>
        <time>2014-02-23T10:43:56Z</time>
      </trkpt>
      <trkpt lat="41.612583410" lon="2.495911820">
        <ele>436.30</ele>
        <time>2014-02-23T10:43:57Z</time>
      </trkpt>
      <trkpt lat="41.612583410" lon="2.495911820">
        <ele>436.20</ele>
        <time>2014-02-23T10:43:58Z</time>
      </trkpt>
      <trkpt lat="41.612583410" lon="2.495913330">
        <ele>436.10</ele>
        <time>2014-02-23T10:43:59Z</time>
      </trkpt>
      <trkpt lat="41.612583410" lon="2.495915010">
        <ele>436.10</ele>
        <time>2014-02-23T10:44:00Z</time>
      </trkpt>
      <trkpt lat="41.612583410" lon="2.495916690">
        <ele>436.40</ele>
        <time>2014-02-23T10:44:01Z</time>
      </trkpt>
      <trkpt lat="41.612585090" lon="2.495916690">
        <ele>436.60</ele>
        <time>2014-02-23T10:44:02Z</time>
      </trkpt>
      <trkpt lat="41.612585090" lon="2.495918360">
        <ele>436.70</ele>
        <time>2014-02-23T10:44:03Z</time>
      </trkpt>
      <trkpt lat="41.612585090" lon="2.495920040">
        <ele>436.80</ele>
        <time>2014-02-23T10:44:04Z</time>
      </trkpt>
      <trkpt lat="41.612585090" lon="2.495920040">
        <ele>436.90</ele>
        <time>2014-02-23T10:44:05Z</time>
      </trkpt>
      <trkpt lat="41.612585090" lon="2.495921710">
        <ele>436.80</ele>
        <time>2014-02-23T10:44:06Z</time>
      </trkpt>
      <trkpt lat="41.612585090" lon="2.495923390">
        <ele>436.80</ele>
        <time>2014-02-23T10:44:07Z</time>
      </trkpt>
      <trkpt lat="41.612585090" lon="2.495923390">
        <ele>436.90</ele>
        <time>2014-02-23T10:44:08Z</time>
      </trkpt>
      <trkpt lat="41.612585090" lon="2.495925070">
        <ele>437.00</ele>
        <time>2014-02-23T10:44:09Z</time>
      </trkpt>
      <trkpt lat="41.612585090" lon="2.495926740">
        <ele>437.10</ele>
        <time>2014-02-23T10:44:10Z</time>
      </trkpt>
      <trkpt lat="41.612586770" lon="2.495928420">
        <ele>437.00</ele>
        <time>2014-02-23T10:44:11Z</time>
      </trkpt>
      <trkpt lat="41.612586770" lon="2.495930100">
        <ele>437.00</ele>
        <time>2014-02-23T10:44:12Z</time>
      </trkpt>
      <trkpt lat="41.612586770" lon="2.495931770">
        <ele>436.60</ele>
        <time>2014-02-23T10:44:13Z</time>
      </trkpt>
      <trkpt lat="41.612586770" lon="2.495931770">
        <ele>436.20</ele>
        <time>2014-02-23T10:44:14Z</time>
      </trkpt>
      <trkpt lat="41.612586770" lon="2.495933450">
        <ele>436.10</ele>
        <time>2014-02-23T10:44:15Z</time>
      </trkpt>
      <trkpt lat="41.612586770" lon="2.495935130">
        <ele>436.00</ele>
        <time>2014-02-23T10:44:16Z</time>
      </trkpt>
      <trkpt lat="41.612586770" lon="2.495936800">
        <ele>435.90</ele>
        <time>2014-02-23T10:44:17Z</time>
      </trkpt>
      <trkpt lat="41.612586770" lon="2.495936800">
        <ele>436.00</ele>
        <time>2014-02-23T10:44:18Z</time>
      </trkpt>
      <trkpt lat="41.612586770" lon="2.495938480">
        <ele>436.10</ele>
        <time>2014-02-23T10:44:19Z</time>
      </trkpt>
      <trkpt lat="41.612586770" lon="2.495938480">
        <ele>436.40</ele>
        <time>2014-02-23T10:44:20Z</time>
      </trkpt>
      <trkpt lat="41.612586770" lon="2.495938480">
        <ele>436.60</ele>
        <time>2014-02-23T10:44:21Z</time>
      </trkpt>
      <trkpt lat="41.612588440" lon="2.495940160">
        <ele>436.80</ele>
        <time>2014-02-23T10:44:22Z</time>
      </trkpt>
      <trkpt lat="41.612588440" lon="2.495940160">
        <ele>436.60</ele>
        <time>2014-02-23T10:44:23Z</time>
      </trkpt>
      <trkpt lat="41.612590120" lon="2.495940160">
        <ele>436.40</ele>
        <time>2014-02-23T10:44:24Z</time>
      </trkpt>
      <trkpt lat="41.612590120" lon="2.495940160">
        <ele>435.90</ele>
        <time>2014-02-23T10:44:25Z</time>
      </trkpt>
      <trkpt lat="41.612590120" lon="2.495940160">
        <ele>435.40</ele>
        <time>2014-02-23T10:44:26Z</time>
      </trkpt>
      <trkpt lat="41.612591790" lon="2.495940160">
        <ele>435.70</ele>
        <time>2014-02-23T10:44:27Z</time>
      </trkpt>
      <trkpt lat="41.612591790" lon="2.495938480">
        <ele>435.90</ele>
        <time>2014-02-23T10:44:28Z</time>
      </trkpt>
      <trkpt lat="41.612593470" lon="2.495938480">
        <ele>436.10</ele>
        <time>2014-02-23T10:44:29Z</time>
      </trkpt>
      <trkpt lat="41.612593470" lon="2.495938480">
        <ele>436.30</ele>
        <time>2014-02-23T10:44:30Z</time>
      </trkpt>
      <trkpt lat="41.612595150" lon="2.495938480">
        <ele>436.40</ele>
        <time>2014-02-23T10:44:31Z</time>
      </trkpt>
      <trkpt lat="41.612595150" lon="2.495938480">
        <ele>436.30</ele>
        <time>2014-02-23T10:44:32Z</time>
      </trkpt>
      <trkpt lat="41.612595150" lon="2.495938480">
        <ele>436.30</ele>
        <time>2014-02-23T10:44:33Z</time>
      </trkpt>
      <trkpt lat="41.612596820" lon="2.495938480">
        <ele>436.40</ele>
        <time>2014-02-23T10:44:34Z</time>
      </trkpt>
      <trkpt lat="41.612596820" lon="2.495938480">
        <ele>436.50</ele>
        <time>2014-02-23T10:44:35Z</time>
      </trkpt>
      <trkpt lat="41.612596820" lon="2.495938480">
        <ele>436.50</ele>
        <time>2014-02-23T10:44:36Z</time>
      </trkpt>
      <trkpt lat="41.612598330" lon="2.495938480">
        <ele>436.90</ele>
        <time>2014-02-23T10:44:37Z</time>
      </trkpt>
      <trkpt lat="41.612598330" lon="2.495936800">
        <ele>437.10</ele>
        <time>2014-02-23T10:44:38Z</time>
      </trkpt>
      <trkpt lat="41.612600010" lon="2.495936800">
        <ele>436.70</ele>
        <time>2014-02-23T10:44:39Z</time>
      </trkpt>
      <trkpt lat="41.612600010" lon="2.495935130">
        <ele>436.50</ele>
        <time>2014-02-23T10:44:40Z</time>
      </trkpt>
      <trkpt lat="41.612600010" lon="2.495935130">
        <ele>436.40</ele>
        <time>2014-02-23T10:44:41Z</time>
      </trkpt>
      <trkpt lat="41.612601680" lon="2.495935130">
        <ele>436.40</ele>
        <time>2014-02-23T10:44:42Z</time>
      </trkpt>
      <trkpt lat="41.612601680" lon="2.495933450">
        <ele>436.30</ele>
        <time>2014-02-23T10:44:43Z</time>
      </trkpt>
      <trkpt lat="41.612603360" lon="2.495933450">
        <ele>436.00</ele>
        <time>2014-02-23T10:44:44Z</time>
      </trkpt>
      <trkpt lat="41.612605040" lon="2.495933450">
        <ele>435.80</ele>
        <time>2014-02-23T10:44:45Z</time>
      </trkpt>
      <trkpt lat="41.612606710" lon="2.495931770">
        <ele>436.10</ele>
        <time>2014-02-23T10:44:46Z</time>
      </trkpt>
      <trkpt lat="41.612606710" lon="2.495931770">
        <ele>436.40</ele>
        <time>2014-02-23T10:44:47Z</time>
      </trkpt>
      <trkpt lat="41.612608390" lon="2.495931770">
        <ele>436.60</ele>
        <time>2014-02-23T10:44:48Z</time>
      </trkpt>
      <trkpt lat="41.612611740" lon="2.495931770">
        <ele>436.50</ele>
        <time>2014-02-23T10:44:49Z</time>
      </trkpt>
      <trkpt lat="41.612615100" lon="2.495933450">
        <ele>436.50</ele>
        <time>2014-02-23T10:44:50Z</time>
      </trkpt>
      <trkpt lat="41.612616770" lon="2.495933450">
        <ele>436.30</ele>
        <time>2014-02-23T10:44:51Z</time>
      </trkpt>
      <trkpt lat="41.612618450" lon="2.495931770">
        <ele>436.10</ele>
        <time>2014-02-23T10:44:52Z</time>
      </trkpt>
      <trkpt lat="41.612618450" lon="2.495930100">
        <ele>435.90</ele>
        <time>2014-02-23T10:44:53Z</time>
      </trkpt>
      <trkpt lat="41.612618450" lon="2.495928420">
        <ele>435.80</ele>
        <time>2014-02-23T10:44:54Z</time>
      </trkpt>
      <trkpt lat="41.612618450" lon="2.495926740">
        <ele>435.70</ele>
        <time>2014-02-23T10:44:55Z</time>
      </trkpt>
      <trkpt lat="41.612618450" lon="2.495925070">
        <ele>435.60</ele>
        <time>2014-02-23T10:44:56Z</time>
      </trkpt>
      <trkpt lat="41.612618450" lon="2.495923390">
        <ele>435.50</ele>
        <time>2014-02-23T10:44:57Z</time>
      </trkpt>
      <trkpt lat="41.612618450" lon="2.495920040">
        <ele>435.60</ele>
        <time>2014-02-23T10:44:58Z</time>
      </trkpt>
      <trkpt lat="41.612618450" lon="2.495918360">
        <ele>435.60</ele>
        <time>2014-02-23T10:44:59Z</time>
      </trkpt>
      <trkpt lat="41.612618450" lon="2.495916690">
        <ele>435.60</ele>
        <time>2014-02-23T10:45:00Z</time>
      </trkpt>
      <trkpt lat="41.612618450" lon="2.495915010">
        <ele>435.60</ele>
        <time>2014-02-23T10:45:01Z</time>
      </trkpt>
      <trkpt lat="41.612618450" lon="2.495915010">
        <ele>435.60</ele>
        <time>2014-02-23T10:45:02Z</time>
      </trkpt>
      <trkpt lat="41.612620130" lon="2.495911820">
        <ele>436.00</ele>
        <time>2014-02-23T10:45:03Z</time>
      </trkpt>
      <trkpt lat="41.612620130" lon="2.495911820">
        <ele>436.20</ele>
        <time>2014-02-23T10:45:04Z</time>
      </trkpt>
      <trkpt lat="41.612620130" lon="2.495910150">
        <ele>436.20</ele>
        <time>2014-02-23T10:45:05Z</time>
      </trkpt>
      <trkpt lat="41.612618450" lon="2.495908470">
        <ele>436.30</ele>
        <time>2014-02-23T10:45:06Z</time>
      </trkpt>
      <trkpt lat="41.612618450" lon="2.495906800">
        <ele>436.30</ele>
        <time>2014-02-23T10:45:07Z</time>
      </trkpt>
      <trkpt lat="41.612618450" lon="2.495905120">
        <ele>436.10</ele>
        <time>2014-02-23T10:45:08Z</time>
      </trkpt>
      <trkpt lat="41.612618450" lon="2.495903440">
        <ele>435.90</ele>
        <time>2014-02-23T10:45:09Z</time>
      </trkpt>
      <trkpt lat="41.612618450" lon="2.495901770">
        <ele>435.80</ele>
        <time>2014-02-23T10:45:10Z</time>
      </trkpt>
      <trkpt lat="41.612618450" lon="2.495901770">
        <ele>435.70</ele>
        <time>2014-02-23T10:45:11Z</time>
      </trkpt>
      <trkpt lat="41.612616770" lon="2.495900090">
        <ele>436.00</ele>
        <time>2014-02-23T10:45:12Z</time>
      </trkpt>
      <trkpt lat="41.612616770" lon="2.495898410">
        <ele>436.10</ele>
        <time>2014-02-23T10:45:13Z</time>
      </trkpt>
      <trkpt lat="41.612616770" lon="2.495896740">
        <ele>436.30</ele>
        <time>2014-02-23T10:45:14Z</time>
      </trkpt>
      <trkpt lat="41.612616770" lon="2.495895060">
        <ele>436.30</ele>
        <time>2014-02-23T10:45:15Z</time>
      </trkpt>
      <trkpt lat="41.612616770" lon="2.495893380">
        <ele>436.30</ele>
        <time>2014-02-23T10:45:16Z</time>
      </trkpt>
      <trkpt lat="41.612616770" lon="2.495891710">
        <ele>436.10</ele>
        <time>2014-02-23T10:45:17Z</time>
      </trkpt>
      <trkpt lat="41.612616770" lon="2.495891710">
        <ele>435.90</ele>
        <time>2014-02-23T10:45:18Z</time>
      </trkpt>
      <trkpt lat="41.612616770" lon="2.495890030">
        <ele>435.80</ele>
        <time>2014-02-23T10:45:19Z</time>
      </trkpt>
      <trkpt lat="41.612616770" lon="2.495890030">
        <ele>436.30</ele>
        <time>2014-02-23T10:45:20Z</time>
      </trkpt>
      <trkpt lat="41.612616770" lon="2.495888350">
        <ele>436.60</ele>
        <time>2014-02-23T10:45:21Z</time>
      </trkpt>
      <trkpt lat="41.612616770" lon="2.495890030">
        <ele>436.60</ele>
        <time>2014-02-23T10:45:22Z</time>
      </trkpt>
      <trkpt lat="41.612618450" lon="2.495893380">
        <ele>436.70</ele>
        <time>2014-02-23T10:45:23Z</time>
      </trkpt>
      <trkpt lat="41.612618450" lon="2.495893380">
        <ele>436.60</ele>
        <time>2014-02-23T10:45:24Z</time>
      </trkpt>
      <trkpt lat="41.612618450" lon="2.495891710">
        <ele>436.60</ele>
        <time>2014-02-23T10:45:25Z</time>
      </trkpt>
      <trkpt lat="41.612618450" lon="2.495891710">
        <ele>436.60</ele>
        <time>2014-02-23T10:45:26Z</time>
      </trkpt>
      <trkpt lat="41.612618450" lon="2.495896740">
        <ele>436.10</ele>
        <time>2014-02-23T10:45:27Z</time>
      </trkpt>
      <trkpt lat="41.612620130" lon="2.495906800">
        <ele>435.60</ele>
        <time>2014-02-23T10:45:28Z</time>
      </trkpt>
      <trkpt lat="41.612618450" lon="2.495925070">
        <ele>435.90</ele>
        <time>2014-02-23T10:45:29Z</time>
      </trkpt>
      <trkpt lat="41.612616770" lon="2.495950050">
        <ele>436.00</ele>
        <time>2014-02-23T10:45:30Z</time>
      </trkpt>
      <trkpt lat="41.612611740" lon="2.495983410">
        <ele>435.80</ele>
        <time>2014-02-23T10:45:31Z</time>
      </trkpt>
      <trkpt lat="41.612610070" lon="2.496020120">
        <ele>435.60</ele>
        <time>2014-02-23T10:45:32Z</time>
      </trkpt>
      <trkpt lat="41.612611740" lon="2.496060020">
        <ele>435.50</ele>
        <time>2014-02-23T10:45:33Z</time>
      </trkpt>
      <trkpt lat="41.612615100" lon="2.496100080">
        <ele>435.10</ele>
        <time>2014-02-23T10:45:34Z</time>
      </trkpt>
      <trkpt lat="41.612623480" lon="2.496140150">
        <ele>434.80</ele>
        <time>2014-02-23T10:45:35Z</time>
      </trkpt>
      <trkpt lat="41.612628340" lon="2.496180050">
        <ele>434.20</ele>
        <time>2014-02-23T10:45:36Z</time>
      </trkpt>
      <trkpt lat="41.612635040" lon="2.496213410">
        <ele>433.80</ele>
        <time>2014-02-23T10:45:37Z</time>
      </trkpt>
      <trkpt lat="41.612643430" lon="2.496240060">
        <ele>433.70</ele>
        <time>2014-02-23T10:45:38Z</time>
      </trkpt>
      <trkpt lat="41.612655160" lon="2.496266710">
        <ele>433.60</ele>
        <time>2014-02-23T10:45:39Z</time>
      </trkpt>
      <trkpt lat="41.612670080" lon="2.496300070">
        <ele>433.60</ele>
        <time>2014-02-23T10:45:40Z</time>
      </trkpt>
      <trkpt lat="41.612681820" lon="2.496336790">
        <ele>433.40</ele>
        <time>2014-02-23T10:45:41Z</time>
      </trkpt>
      <trkpt lat="41.612695060" lon="2.496375010">
        <ele>433.30</ele>
        <time>2014-02-23T10:45:42Z</time>
      </trkpt>
      <trkpt lat="41.612713330" lon="2.496415070">
        <ele>432.70</ele>
        <time>2014-02-23T10:45:43Z</time>
      </trkpt>
      <trkpt lat="41.612728420" lon="2.496455140">
        <ele>432.20</ele>
        <time>2014-02-23T10:45:44Z</time>
      </trkpt>
      <trkpt lat="41.612740150" lon="2.496496710">
        <ele>431.80</ele>
        <time>2014-02-23T10:45:45Z</time>
      </trkpt>
      <trkpt lat="41.612748370" lon="2.496538460">
        <ele>431.70</ele>
        <time>2014-02-23T10:45:46Z</time>
      </trkpt>
      <trkpt lat="41.612758430" lon="2.496581710">
        <ele>431.60</ele>
        <time>2014-02-23T10:45:47Z</time>
      </trkpt>
      <trkpt lat="41.612766810" lon="2.496626800">
        <ele>431.20</ele>
        <time>2014-02-23T10:45:48Z</time>
      </trkpt>
      <trkpt lat="41.612773350" lon="2.496670050">
        <ele>430.80</ele>
        <time>2014-02-23T10:45:49Z</time>
      </trkpt>
      <trkpt lat="41.612785080" lon="2.496711790">
        <ele>430.50</ele>
        <time>2014-02-23T10:45:50Z</time>
      </trkpt>
      <trkpt lat="41.612793460" lon="2.496753370">
        <ele>430.20</ele>
        <time>2014-02-23T10:45:51Z</time>
      </trkpt>
      <trkpt lat="41.612803350" lon="2.496795110">
        <ele>430.00</ele>
        <time>2014-02-23T10:45:52Z</time>
      </trkpt>
      <trkpt lat="41.612818440" lon="2.496833330">
        <ele>430.00</ele>
        <time>2014-02-23T10:45:53Z</time>
      </trkpt>
      <trkpt lat="41.612836710" lon="2.496873400">
        <ele>430.10</ele>
        <time>2014-02-23T10:45:54Z</time>
      </trkpt>
      <trkpt lat="41.612856660" lon="2.496916810">
        <ele>429.20</ele>
        <time>2014-02-23T10:45:55Z</time>
      </trkpt>
      <trkpt lat="41.612878460" lon="2.496966770">
        <ele>428.50</ele>
        <time>2014-02-23T10:45:56Z</time>
      </trkpt>
      <trkpt lat="41.612896730" lon="2.497016730">
        <ele>428.10</ele>
        <time>2014-02-23T10:45:57Z</time>
      </trkpt>
      <trkpt lat="41.612920030" lon="2.497065010">
        <ele>427.80</ele>
        <time>2014-02-23T10:45:58Z</time>
      </trkpt>
      <trkpt lat="41.612940150" lon="2.497115130">
        <ele>427.60</ele>
        <time>2014-02-23T10:45:59Z</time>
      </trkpt>
      <trkpt lat="41.612956740" lon="2.497165090">
        <ele>427.40</ele>
        <time>2014-02-23T10:46:00Z</time>
      </trkpt>
      <trkpt lat="41.612976690" lon="2.497213370">
        <ele>427.20</ele>
        <time>2014-02-23T10:46:01Z</time>
      </trkpt>
      <trkpt lat="41.613000160" lon="2.497256780">
        <ele>426.80</ele>
        <time>2014-02-23T10:46:02Z</time>
      </trkpt>
      <trkpt lat="41.613025140" lon="2.497291820">
        <ele>426.50</ele>
        <time>2014-02-23T10:46:03Z</time>
      </trkpt>
      <trkpt lat="41.613053470" lon="2.497316800">
        <ele>426.30</ele>
        <time>2014-02-23T10:46:04Z</time>
      </trkpt>
      <trkpt lat="41.613081800" lon="2.497338420">
        <ele>425.60</ele>
        <time>2014-02-23T10:46:05Z</time>
      </trkpt>
      <trkpt lat="41.613116670" lon="2.497351670">
        <ele>425.10</ele>
        <time>2014-02-23T10:46:06Z</time>
      </trkpt>
      <trkpt lat="41.613155060" lon="2.497353340">
        <ele>424.50</ele>
        <time>2014-02-23T10:46:07Z</time>
      </trkpt>
      <trkpt lat="41.613193450" lon="2.497345130">
        <ele>424.00</ele>
        <time>2014-02-23T10:46:08Z</time>
      </trkpt>
      <trkpt lat="41.613231670" lon="2.497331720">
        <ele>423.40</ele>
        <time>2014-02-23T10:46:09Z</time>
      </trkpt>
      <trkpt lat="41.613266710" lon="2.497315120">
        <ele>423.00</ele>
        <time>2014-02-23T10:46:10Z</time>
      </trkpt>
      <trkpt lat="41.613296710" lon="2.497301710">
        <ele>422.70</ele>
        <time>2014-02-23T10:46:11Z</time>
      </trkpt>
      <trkpt lat="41.613325040" lon="2.497291820">
        <ele>422.00</ele>
        <time>2014-02-23T10:46:12Z</time>
      </trkpt>
      <trkpt lat="41.613348340" lon="2.497291820">
        <ele>421.40</ele>
        <time>2014-02-23T10:46:13Z</time>
      </trkpt>
      <trkpt lat="41.613361760" lon="2.497296680">
        <ele>420.90</ele>
        <time>2014-02-23T10:46:14Z</time>
      </trkpt>
      <trkpt lat="41.613373490" lon="2.497301710">
        <ele>420.50</ele>
        <time>2014-02-23T10:46:15Z</time>
      </trkpt>
      <trkpt lat="41.613386730" lon="2.497308420">
        <ele>421.00</ele>
        <time>2014-02-23T10:46:16Z</time>
      </trkpt>
      <trkpt lat="41.613401820" lon="2.497313450">
        <ele>421.30</ele>
        <time>2014-02-23T10:46:17Z</time>
      </trkpt>
      <trkpt lat="41.613418420" lon="2.497318480">
        <ele>421.60</ele>
        <time>2014-02-23T10:46:18Z</time>
      </trkpt>
      <trkpt lat="41.613435010" lon="2.497323340">
        <ele>421.20</ele>
        <time>2014-02-23T10:46:19Z</time>
      </trkpt>
      <trkpt lat="41.613448420" lon="2.497335070">
        <ele>421.00</ele>
        <time>2014-02-23T10:46:20Z</time>
      </trkpt>
      <trkpt lat="41.613455130" lon="2.497340100">
        <ele>420.70</ele>
        <time>2014-02-23T10:46:21Z</time>
      </trkpt>
      <trkpt lat="41.613458480" lon="2.497340100">
        <ele>420.40</ele>
        <time>2014-02-23T10:46:22Z</time>
      </trkpt>
      <trkpt lat="41.613460160" lon="2.497341780">
        <ele>420.20</ele>
        <time>2014-02-23T10:46:23Z</time>
      </trkpt>
      <trkpt lat="41.613461670" lon="2.497343450">
        <ele>420.20</ele>
        <time>2014-02-23T10:46:24Z</time>
      </trkpt>
      <trkpt lat="41.613463340" lon="2.497345130">
        <ele>420.20</ele>
        <time>2014-02-23T10:46:25Z</time>
      </trkpt>
      <trkpt lat="41.613466700" lon="2.497346810">
        <ele>420.50</ele>
        <time>2014-02-23T10:46:26Z</time>
      </trkpt>
      <trkpt lat="41.613468370" lon="2.497348480">
        <ele>420.70</ele>
        <time>2014-02-23T10:46:27Z</time>
      </trkpt>
      <trkpt lat="41.613470050" lon="2.497350160">
        <ele>420.50</ele>
        <time>2014-02-23T10:46:28Z</time>
      </trkpt>
      <trkpt lat="41.613471730" lon="2.497351670">
        <ele>420.40</ele>
        <time>2014-02-23T10:46:29Z</time>
      </trkpt>
      <trkpt lat="41.613473400" lon="2.497353340">
        <ele>420.30</ele>
        <time>2014-02-23T10:46:30Z</time>
      </trkpt>
      <trkpt lat="41.613475080" lon="2.497355020">
        <ele>420.10</ele>
        <time>2014-02-23T10:46:31Z</time>
      </trkpt>
      <trkpt lat="41.613478430" lon="2.497356700">
        <ele>420.00</ele>
        <time>2014-02-23T10:46:32Z</time>
      </trkpt>
      <trkpt lat="41.613480110" lon="2.497358370">
        <ele>419.80</ele>
        <time>2014-02-23T10:46:33Z</time>
      </trkpt>
      <trkpt lat="41.613481780" lon="2.497360050">
        <ele>419.70</ele>
        <time>2014-02-23T10:46:34Z</time>
      </trkpt>
      <trkpt lat="41.613483460" lon="2.497361730">
        <ele>420.00</ele>
        <time>2014-02-23T10:46:35Z</time>
      </trkpt>
      <trkpt lat="41.613485140" lon="2.497363400">
        <ele>420.20</ele>
        <time>2014-02-23T10:46:36Z</time>
      </trkpt>
      <trkpt lat="41.613486810" lon="2.497365080">
        <ele>420.40</ele>
        <time>2014-02-23T10:46:37Z</time>
      </trkpt>
      <trkpt lat="41.613490000" lon="2.497366750">
        <ele>420.30</ele>
        <time>2014-02-23T10:46:38Z</time>
      </trkpt>
      <trkpt lat="41.613491680" lon="2.497368430">
        <ele>420.30</ele>
        <time>2014-02-23T10:46:39Z</time>
      </trkpt>
      <trkpt lat="41.613493350" lon="2.497370110">
        <ele>420.20</ele>
        <time>2014-02-23T10:46:40Z</time>
      </trkpt>
      <trkpt lat="41.613495030" lon="2.497371780">
        <ele>420.20</ele>
        <time>2014-02-23T10:46:41Z</time>
      </trkpt>
      <trkpt lat="41.613498380" lon="2.497373460">
        <ele>420.20</ele>
        <time>2014-02-23T10:46:42Z</time>
      </trkpt>
      <trkpt lat="41.613500060" lon="2.497376810">
        <ele>420.10</ele>
        <time>2014-02-23T10:46:43Z</time>
      </trkpt>
      <trkpt lat="41.613501730" lon="2.497378490">
        <ele>420.00</ele>
        <time>2014-02-23T10:46:44Z</time>
      </trkpt>
      <trkpt lat="41.613505090" lon="2.497380000">
        <ele>420.00</ele>
        <time>2014-02-23T10:46:45Z</time>
      </trkpt>
      <trkpt lat="41.613510120" lon="2.497385030">
        <ele>420.00</ele>
        <time>2014-02-23T10:46:46Z</time>
      </trkpt>
      <trkpt lat="41.613521680" lon="2.497386700">
        <ele>419.70</ele>
        <time>2014-02-23T10:46:47Z</time>
      </trkpt>
      <trkpt lat="41.613531740" lon="2.497385030">
        <ele>419.40</ele>
        <time>2014-02-23T10:46:48Z</time>
      </trkpt>
      <trkpt lat="41.613535090" lon="2.497380000">
        <ele>419.30</ele>
        <time>2014-02-23T10:46:49Z</time>
      </trkpt>
      <trkpt lat="41.613533420" lon="2.497373460">
        <ele>419.30</ele>
        <time>2014-02-23T10:46:50Z</time>
      </trkpt>
      <trkpt lat="41.613530060" lon="2.497370110">
        <ele>419.30</ele>
        <time>2014-02-23T10:46:51Z</time>
      </trkpt>
      <trkpt lat="41.613521680" lon="2.497366750">
        <ele>419.40</ele>
        <time>2014-02-23T10:46:52Z</time>
      </trkpt>
      <trkpt lat="41.613510120" lon="2.497368430">
        <ele>419.50</ele>
        <time>2014-02-23T10:46:53Z</time>
      </trkpt>
      <trkpt lat="41.613496700" lon="2.497363400">
        <ele>419.80</ele>
        <time>2014-02-23T10:46:54Z</time>
      </trkpt>
      <trkpt lat="41.613485140" lon="2.497355020">
        <ele>420.10</ele>
        <time>2014-02-23T10:46:55Z</time>
      </trkpt>
      <trkpt lat="41.613470050" lon="2.497350160">
        <ele>420.20</ele>
        <time>2014-02-23T10:46:56Z</time>
      </trkpt>
      <trkpt lat="41.613455130" lon="2.497348480">
        <ele>420.20</ele>
        <time>2014-02-23T10:46:57Z</time>
      </trkpt>
      <trkpt lat="41.613441720" lon="2.497351670">
        <ele>420.10</ele>
        <time>2014-02-23T10:46:58Z</time>
      </trkpt>
      <trkpt lat="41.613428480" lon="2.497358370">
        <ele>420.20</ele>
        <time>2014-02-23T10:46:59Z</time>
      </trkpt>
      <trkpt lat="41.613416740" lon="2.497360050">
        <ele>420.30</ele>
        <time>2014-02-23T10:47:00Z</time>
      </trkpt>
      <trkpt lat="41.613403330" lon="2.497358370">
        <ele>420.40</ele>
        <time>2014-02-23T10:47:01Z</time>
      </trkpt>
      <trkpt lat="41.613390090" lon="2.497348480">
        <ele>420.30</ele>
        <time>2014-02-23T10:47:02Z</time>
      </trkpt>
      <trkpt lat="41.613380030" lon="2.497336750">
        <ele>420.30</ele>
        <time>2014-02-23T10:47:03Z</time>
      </trkpt>
      <trkpt lat="41.613371810" lon="2.497326690">
        <ele>420.60</ele>
        <time>2014-02-23T10:47:04Z</time>
      </trkpt>
      <trkpt lat="41.613365110" lon="2.497323340">
        <ele>420.90</ele>
        <time>2014-02-23T10:47:05Z</time>
      </trkpt>
      <trkpt lat="41.613356730" lon="2.497330040">
        <ele>420.60</ele>
        <time>2014-02-23T10:47:06Z</time>
      </trkpt>
      <trkpt lat="41.613353370" lon="2.497341780">
        <ele>420.40</ele>
        <time>2014-02-23T10:47:07Z</time>
      </trkpt>
      <trkpt lat="41.613353370" lon="2.497355020">
        <ele>420.20</ele>
        <time>2014-02-23T10:47:08Z</time>
      </trkpt>
      <trkpt lat="41.613361760" lon="2.497366750">
        <ele>420.30</ele>
        <time>2014-02-23T10:47:09Z</time>
      </trkpt>
      <trkpt lat="41.613373490" lon="2.497373460">
        <ele>420.40</ele>
        <time>2014-02-23T10:47:10Z</time>
      </trkpt>
      <trkpt lat="41.613385060" lon="2.497371780">
        <ele>420.70</ele>
        <time>2014-02-23T10:47:11Z</time>
      </trkpt>
      <trkpt lat="41.613393440" lon="2.497366750">
        <ele>421.00</ele>
        <time>2014-02-23T10:47:12Z</time>
      </trkpt>
      <trkpt lat="41.613400150" lon="2.497360050">
        <ele>420.80</ele>
        <time>2014-02-23T10:47:13Z</time>
      </trkpt>
      <trkpt lat="41.613408360" lon="2.497355020">
        <ele>420.60</ele>
        <time>2014-02-23T10:47:14Z</time>
      </trkpt>
      <trkpt lat="41.613410040" lon="2.497353340">
        <ele>420.50</ele>
        <time>2014-02-23T10:47:15Z</time>
      </trkpt>
      <trkpt lat="41.613410040" lon="2.497353340">
        <ele>420.40</ele>
        <time>2014-02-23T10:47:16Z</time>
      </trkpt>
      <trkpt lat="41.613410040" lon="2.497353340">
        <ele>420.30</ele>
        <time>2014-02-23T10:47:17Z</time>
      </trkpt>
      <trkpt lat="41.613410040" lon="2.497353340">
        <ele>420.50</ele>
        <time>2014-02-23T10:47:18Z</time>
      </trkpt>
      <trkpt lat="41.613408360" lon="2.497353340">
        <ele>420.70</ele>
        <time>2014-02-23T10:47:19Z</time>
      </trkpt>
      <trkpt lat="41.613408360" lon="2.497353340">
        <ele>420.80</ele>
        <time>2014-02-23T10:47:20Z</time>
      </trkpt>
      <trkpt lat="41.613408360" lon="2.497353340">
        <ele>420.90</ele>
        <time>2014-02-23T10:47:21Z</time>
      </trkpt>
      <trkpt lat="41.613408360" lon="2.497353340">
        <ele>420.90</ele>
        <time>2014-02-23T10:47:22Z</time>
      </trkpt>
      <trkpt lat="41.613408360" lon="2.497353340">
        <ele>421.10</ele>
        <time>2014-02-23T10:47:23Z</time>
      </trkpt>
      <trkpt lat="41.613406680" lon="2.497353340">
        <ele>421.30</ele>
        <time>2014-02-23T10:47:24Z</time>
      </trkpt>
      <trkpt lat="41.613405010" lon="2.497353340">
        <ele>420.80</ele>
        <time>2014-02-23T10:47:25Z</time>
      </trkpt>
      <trkpt lat="41.613403330" lon="2.497353340">
        <ele>420.40</ele>
        <time>2014-02-23T10:47:26Z</time>
      </trkpt>
      <trkpt lat="41.613403330" lon="2.497353340">
        <ele>420.50</ele>
        <time>2014-02-23T10:47:27Z</time>
      </trkpt>
      <trkpt lat="41.613401820" lon="2.497353340">
        <ele>420.60</ele>
        <time>2014-02-23T10:47:28Z</time>
      </trkpt>
      <trkpt lat="41.613401820" lon="2.497353340">
        <ele>420.60</ele>
        <time>2014-02-23T10:47:29Z</time>
      </trkpt>
      <trkpt lat="41.613400150" lon="2.497351670">
        <ele>421.00</ele>
        <time>2014-02-23T10:47:30Z</time>
      </trkpt>
      <trkpt lat="41.613400150" lon="2.497351670">
        <ele>421.20</ele>
        <time>2014-02-23T10:47:31Z</time>
      </trkpt>
      <trkpt lat="41.613400150" lon="2.497351670">
        <ele>421.30</ele>
        <time>2014-02-23T10:47:32Z</time>
      </trkpt>
      <trkpt lat="41.613398470" lon="2.497350160">
        <ele>421.30</ele>
        <time>2014-02-23T10:47:33Z</time>
      </trkpt>
      <trkpt lat="41.613398470" lon="2.497350160">
        <ele>421.30</ele>
        <time>2014-02-23T10:47:34Z</time>
      </trkpt>
      <trkpt lat="41.613398470" lon="2.497348480">
        <ele>420.90</ele>
        <time>2014-02-23T10:47:35Z</time>
      </trkpt>
      <trkpt lat="41.613396790" lon="2.497348480">
        <ele>420.50</ele>
        <time>2014-02-23T10:47:36Z</time>
      </trkpt>
      <trkpt lat="41.613396790" lon="2.497346810">
        <ele>420.70</ele>
        <time>2014-02-23T10:47:37Z</time>
      </trkpt>
      <trkpt lat="41.613396790" lon="2.497345130">
        <ele>420.90</ele>
        <time>2014-02-23T10:47:38Z</time>
      </trkpt>
      <trkpt lat="41.613395120" lon="2.497343450">
        <ele>421.00</ele>
        <time>2014-02-23T10:47:39Z</time>
      </trkpt>
      <trkpt lat="41.613395120" lon="2.497343450">
        <ele>421.00</ele>
        <time>2014-02-23T10:47:40Z</time>
      </trkpt>
      <trkpt lat="41.613395120" lon="2.497341780">
        <ele>421.00</ele>
        <time>2014-02-23T10:47:41Z</time>
      </trkpt>
      <trkpt lat="41.613395120" lon="2.497340100">
        <ele>421.10</ele>
        <time>2014-02-23T10:47:42Z</time>
      </trkpt>
      <trkpt lat="41.613395120" lon="2.497338420">
        <ele>421.20</ele>
        <time>2014-02-23T10:47:43Z</time>
      </trkpt>
      <trkpt lat="41.613393440" lon="2.497336750">
        <ele>421.00</ele>
        <time>2014-02-23T10:47:44Z</time>
      </trkpt>
      <trkpt lat="41.613393440" lon="2.497335070">
        <ele>420.90</ele>
        <time>2014-02-23T10:47:45Z</time>
      </trkpt>
      <trkpt lat="41.613393440" lon="2.497333390">
        <ele>420.80</ele>
        <time>2014-02-23T10:47:46Z</time>
      </trkpt>
      <trkpt lat="41.613393440" lon="2.497331720">
        <ele>421.00</ele>
        <time>2014-02-23T10:47:47Z</time>
      </trkpt>
      <trkpt lat="41.613393440" lon="2.497330040">
        <ele>421.20</ele>
        <time>2014-02-23T10:47:48Z</time>
      </trkpt>
      <trkpt lat="41.613393440" lon="2.497328370">
        <ele>421.10</ele>
        <time>2014-02-23T10:47:49Z</time>
      </trkpt>
      <trkpt lat="41.613393440" lon="2.497326690">
        <ele>421.00</ele>
        <time>2014-02-23T10:47:50Z</time>
      </trkpt>
      <trkpt lat="41.613393440" lon="2.497325010">
        <ele>420.60</ele>
        <time>2014-02-23T10:47:51Z</time>
      </trkpt>
      <trkpt lat="41.613393440" lon="2.497323340">
        <ele>420.30</ele>
        <time>2014-02-23T10:47:52Z</time>
      </trkpt>
      <trkpt lat="41.613393440" lon="2.497321830">
        <ele>420.10</ele>
        <time>2014-02-23T10:47:53Z</time>
      </trkpt>
      <trkpt lat="41.613393440" lon="2.497320150">
        <ele>420.30</ele>
        <time>2014-02-23T10:47:54Z</time>
      </trkpt>
      <trkpt lat="41.613393440" lon="2.497318480">
        <ele>420.50</ele>
        <time>2014-02-23T10:47:55Z</time>
      </trkpt>
      <trkpt lat="41.613393440" lon="2.497316800">
        <ele>420.90</ele>
        <time>2014-02-23T10:47:56Z</time>
      </trkpt>
      <trkpt lat="41.613393440" lon="2.497316800">
        <ele>421.20</ele>
        <time>2014-02-23T10:47:57Z</time>
      </trkpt>
      <trkpt lat="41.613393440" lon="2.497315120">
        <ele>421.40</ele>
        <time>2014-02-23T10:47:58Z</time>
      </trkpt>
      <trkpt lat="41.613393440" lon="2.497313450">
        <ele>421.00</ele>
        <time>2014-02-23T10:47:59Z</time>
      </trkpt>
      <trkpt lat="41.613393440" lon="2.497311770">
        <ele>420.70</ele>
        <time>2014-02-23T10:48:00Z</time>
      </trkpt>
      <trkpt lat="41.613393440" lon="2.497310090">
        <ele>420.80</ele>
        <time>2014-02-23T10:48:01Z</time>
      </trkpt>
      <trkpt lat="41.613393440" lon="2.497308420">
        <ele>420.90</ele>
        <time>2014-02-23T10:48:02Z</time>
      </trkpt>
      <trkpt lat="41.613393440" lon="2.497306740">
        <ele>420.70</ele>
        <time>2014-02-23T10:48:03Z</time>
      </trkpt>
      <trkpt lat="41.613393440" lon="2.497306740">
        <ele>420.50</ele>
        <time>2014-02-23T10:48:04Z</time>
      </trkpt>
      <trkpt lat="41.613393440" lon="2.497305060">
        <ele>420.40</ele>
        <time>2014-02-23T10:48:05Z</time>
      </trkpt>
      <trkpt lat="41.613393440" lon="2.497303390">
        <ele>420.30</ele>
        <time>2014-02-23T10:48:06Z</time>
      </trkpt>
      <trkpt lat="41.613393440" lon="2.497301710">
        <ele>420.10</ele>
        <time>2014-02-23T10:48:07Z</time>
      </trkpt>
      <trkpt lat="41.613393440" lon="2.497301710">
        <ele>420.20</ele>
        <time>2014-02-23T10:48:08Z</time>
      </trkpt>
      <trkpt lat="41.613393440" lon="2.497300030">
        <ele>420.20</ele>
        <time>2014-02-23T10:48:09Z</time>
      </trkpt>
      <trkpt lat="41.613393440" lon="2.497298360">
        <ele>420.60</ele>
        <time>2014-02-23T10:48:10Z</time>
      </trkpt>
      <trkpt lat="41.613393440" lon="2.497298360">
        <ele>420.90</ele>
        <time>2014-02-23T10:48:11Z</time>
      </trkpt>
      <trkpt lat="41.613393440" lon="2.497296680">
        <ele>421.20</ele>
        <time>2014-02-23T10:48:12Z</time>
      </trkpt>
      <trkpt lat="41.613393440" lon="2.497296680">
        <ele>421.00</ele>
        <time>2014-02-23T10:48:13Z</time>
      </trkpt>
      <trkpt lat="41.613391760" lon="2.497295010">
        <ele>420.90</ele>
        <time>2014-02-23T10:48:14Z</time>
      </trkpt>
      <trkpt lat="41.613391760" lon="2.497293330">
        <ele>420.90</ele>
        <time>2014-02-23T10:48:15Z</time>
      </trkpt>
      <trkpt lat="41.613391760" lon="2.497293330">
        <ele>421.00</ele>
        <time>2014-02-23T10:48:16Z</time>
      </trkpt>
      <trkpt lat="41.613391760" lon="2.497291820">
        <ele>421.00</ele>
        <time>2014-02-23T10:48:17Z</time>
      </trkpt>
      <trkpt lat="41.613391760" lon="2.497291820">
        <ele>421.10</ele>
        <time>2014-02-23T10:48:18Z</time>
      </trkpt>
      <trkpt lat="41.613391760" lon="2.497290140">
        <ele>421.10</ele>
        <time>2014-02-23T10:48:19Z</time>
      </trkpt>
      <trkpt lat="41.613391760" lon="2.497290140">
        <ele>420.90</ele>
        <time>2014-02-23T10:48:20Z</time>
      </trkpt>
      <trkpt lat="41.613391760" lon="2.497288470">
        <ele>420.80</ele>
        <time>2014-02-23T10:48:21Z</time>
      </trkpt>
      <trkpt lat="41.613391760" lon="2.497288470">
        <ele>420.70</ele>
        <time>2014-02-23T10:48:22Z</time>
      </trkpt>
      <trkpt lat="41.613391760" lon="2.497286790">
        <ele>420.70</ele>
        <time>2014-02-23T10:48:23Z</time>
      </trkpt>
      <trkpt lat="41.613390090" lon="2.497286790">
        <ele>420.70</ele>
        <time>2014-02-23T10:48:24Z</time>
      </trkpt>
      <trkpt lat="41.613390090" lon="2.497285120">
        <ele>420.60</ele>
        <time>2014-02-23T10:48:25Z</time>
      </trkpt>
      <trkpt lat="41.613390090" lon="2.497285120">
        <ele>420.50</ele>
        <time>2014-02-23T10:48:26Z</time>
      </trkpt>
      <trkpt lat="41.613390090" lon="2.497285120">
        <ele>420.80</ele>
        <time>2014-02-23T10:48:27Z</time>
      </trkpt>
      <trkpt lat="41.613390090" lon="2.497283440">
        <ele>420.90</ele>
        <time>2014-02-23T10:48:28Z</time>
      </trkpt>
      <trkpt lat="41.613390090" lon="2.497283440">
        <ele>421.40</ele>
        <time>2014-02-23T10:48:29Z</time>
      </trkpt>
      <trkpt lat="41.613390090" lon="2.497281760">
        <ele>421.70</ele>
        <time>2014-02-23T10:48:30Z</time>
      </trkpt>
      <trkpt lat="41.613388410" lon="2.497281760">
        <ele>422.00</ele>
        <time>2014-02-23T10:48:31Z</time>
      </trkpt>
      <trkpt lat="41.613388410" lon="2.497281760">
        <ele>421.90</ele>
        <time>2014-02-23T10:48:32Z</time>
      </trkpt>
      <trkpt lat="41.613388410" lon="2.497280090">
        <ele>421.80</ele>
        <time>2014-02-23T10:48:33Z</time>
      </trkpt>
      <trkpt lat="41.613388410" lon="2.497280090">
        <ele>421.50</ele>
        <time>2014-02-23T10:48:34Z</time>
      </trkpt>
      <trkpt lat="41.613388410" lon="2.497278410">
        <ele>421.30</ele>
        <time>2014-02-23T10:48:35Z</time>
      </trkpt>
      <trkpt lat="41.613388410" lon="2.497278410">
        <ele>421.10</ele>
        <time>2014-02-23T10:48:36Z</time>
      </trkpt>
      <trkpt lat="41.613386730" lon="2.497278410">
        <ele>421.00</ele>
        <time>2014-02-23T10:48:37Z</time>
      </trkpt>
      <trkpt lat="41.613386730" lon="2.497276730">
        <ele>420.80</ele>
        <time>2014-02-23T10:48:38Z</time>
      </trkpt>
      <trkpt lat="41.613386730" lon="2.497276730">
        <ele>420.80</ele>
        <time>2014-02-23T10:48:39Z</time>
      </trkpt>
      <trkpt lat="41.613386730" lon="2.497276730">
        <ele>420.80</ele>
        <time>2014-02-23T10:48:40Z</time>
      </trkpt>
      <trkpt lat="41.613386730" lon="2.497275060">
        <ele>421.00</ele>
        <time>2014-02-23T10:48:41Z</time>
      </trkpt>
      <trkpt lat="41.613386730" lon="2.497275060">
        <ele>421.10</ele>
        <time>2014-02-23T10:48:42Z</time>
      </trkpt>
      <trkpt lat="41.613385060" lon="2.497275060">
        <ele>421.20</ele>
        <time>2014-02-23T10:48:43Z</time>
      </trkpt>
      <trkpt lat="41.613385060" lon="2.497273380">
        <ele>421.30</ele>
        <time>2014-02-23T10:48:44Z</time>
      </trkpt>
      <trkpt lat="41.613385060" lon="2.497273380">
        <ele>421.40</ele>
        <time>2014-02-23T10:48:45Z</time>
      </trkpt>
      <trkpt lat="41.613385060" lon="2.497273380">
        <ele>421.10</ele>
        <time>2014-02-23T10:48:46Z</time>
      </trkpt>
      <trkpt lat="41.613385060" lon="2.497273380">
        <ele>420.80</ele>
        <time>2014-02-23T10:48:47Z</time>
      </trkpt>
      <trkpt lat="41.613385060" lon="2.497271700">
        <ele>421.00</ele>
        <time>2014-02-23T10:48:48Z</time>
      </trkpt>
      <trkpt lat="41.613385060" lon="2.497271700">
        <ele>421.10</ele>
        <time>2014-02-23T10:48:49Z</time>
      </trkpt>
      <trkpt lat="41.613385060" lon="2.497271700">
        <ele>421.20</ele>
        <time>2014-02-23T10:48:50Z</time>
      </trkpt>
      <trkpt lat="41.613383380" lon="2.497271700">
        <ele>421.00</ele>
        <time>2014-02-23T10:48:51Z</time>
      </trkpt>
      <trkpt lat="41.613383380" lon="2.497270030">
        <ele>420.90</ele>
        <time>2014-02-23T10:48:52Z</time>
      </trkpt>
      <trkpt lat="41.613383380" lon="2.497270030">
        <ele>421.10</ele>
        <time>2014-02-23T10:48:53Z</time>
      </trkpt>
      <trkpt lat="41.613383380" lon="2.497270030">
        <ele>421.30</ele>
        <time>2014-02-23T10:48:54Z</time>
      </trkpt>
      <trkpt lat="41.613383380" lon="2.497270030">
        <ele>421.60</ele>
        <time>2014-02-23T10:48:55Z</time>
      </trkpt>
      <trkpt lat="41.613383380" lon="2.497268350">
        <ele>421.70</ele>
        <time>2014-02-23T10:48:56Z</time>
      </trkpt>
      <trkpt lat="41.613383380" lon="2.497268350">
        <ele>421.90</ele>
        <time>2014-02-23T10:48:57Z</time>
      </trkpt>
      <trkpt lat="41.613383380" lon="2.497268350">
        <ele>421.60</ele>
        <time>2014-02-23T10:48:58Z</time>
      </trkpt>
      <trkpt lat="41.613383380" lon="2.497268350">
        <ele>421.50</ele>
        <time>2014-02-23T10:48:59Z</time>
      </trkpt>
      <trkpt lat="41.613383380" lon="2.497266680">
        <ele>421.30</ele>
        <time>2014-02-23T10:49:00Z</time>
      </trkpt>
      <trkpt lat="41.613383380" lon="2.497266680">
        <ele>421.20</ele>
        <time>2014-02-23T10:49:01Z</time>
      </trkpt>
      <trkpt lat="41.613383380" lon="2.497266680">
        <ele>421.10</ele>
        <time>2014-02-23T10:49:02Z</time>
      </trkpt>
      <trkpt lat="41.613383380" lon="2.497266680">
        <ele>421.10</ele>
        <time>2014-02-23T10:49:03Z</time>
      </trkpt>
      <trkpt lat="41.613383380" lon="2.497265000">
        <ele>421.10</ele>
        <time>2014-02-23T10:49:04Z</time>
      </trkpt>
      <trkpt lat="41.613383380" lon="2.497265000">
        <ele>421.00</ele>
        <time>2014-02-23T10:49:05Z</time>
      </trkpt>
      <trkpt lat="41.613383380" lon="2.497265000">
        <ele>420.80</ele>
        <time>2014-02-23T10:49:06Z</time>
      </trkpt>
      <trkpt lat="41.613383380" lon="2.497265000">
        <ele>421.10</ele>
        <time>2014-02-23T10:49:07Z</time>
      </trkpt>
      <trkpt lat="41.613383380" lon="2.497263490">
        <ele>421.20</ele>
        <time>2014-02-23T10:49:08Z</time>
      </trkpt>
      <trkpt lat="41.613383380" lon="2.497263490">
        <ele>421.40</ele>
        <time>2014-02-23T10:49:09Z</time>
      </trkpt>
      <trkpt lat="41.613383380" lon="2.497263490">
        <ele>421.30</ele>
        <time>2014-02-23T10:49:10Z</time>
      </trkpt>
      <trkpt lat="41.613383380" lon="2.497263490">
        <ele>421.20</ele>
        <time>2014-02-23T10:49:11Z</time>
      </trkpt>
      <trkpt lat="41.613383380" lon="2.497263490">
        <ele>420.60</ele>
        <time>2014-02-23T10:49:12Z</time>
      </trkpt>
      <trkpt lat="41.613383380" lon="2.497261810">
        <ele>420.10</ele>
        <time>2014-02-23T10:49:13Z</time>
      </trkpt>
      <trkpt lat="41.613383380" lon="2.497261810">
        <ele>420.10</ele>
        <time>2014-02-23T10:49:14Z</time>
      </trkpt>
      <trkpt lat="41.613385060" lon="2.497261810">
        <ele>420.00</ele>
        <time>2014-02-23T10:49:15Z</time>
      </trkpt>
      <trkpt lat="41.613383380" lon="2.497261810">
        <ele>420.00</ele>
        <time>2014-02-23T10:49:16Z</time>
      </trkpt>
      <trkpt lat="41.613383380" lon="2.497261810">
        <ele>420.50</ele>
        <time>2014-02-23T10:49:17Z</time>
      </trkpt>
      <trkpt lat="41.613383380" lon="2.497261810">
        <ele>420.80</ele>
        <time>2014-02-23T10:49:18Z</time>
      </trkpt>
      <trkpt lat="41.613381700" lon="2.497261810">
        <ele>421.00</ele>
        <time>2014-02-23T10:49:19Z</time>
      </trkpt>
      <trkpt lat="41.613381700" lon="2.497261810">
        <ele>421.10</ele>
        <time>2014-02-23T10:49:20Z</time>
      </trkpt>
      <trkpt lat="41.613380030" lon="2.497261810">
        <ele>421.20</ele>
        <time>2014-02-23T10:49:21Z</time>
      </trkpt>
      <trkpt lat="41.613378350" lon="2.497263490">
        <ele>420.90</ele>
        <time>2014-02-23T10:49:22Z</time>
      </trkpt>
      <trkpt lat="41.613376680" lon="2.497263490">
        <ele>420.60</ele>
        <time>2014-02-23T10:49:23Z</time>
      </trkpt>
      <trkpt lat="41.613376680" lon="2.497263490">
        <ele>420.70</ele>
        <time>2014-02-23T10:49:24Z</time>
      </trkpt>
      <trkpt lat="41.613375000" lon="2.497263490">
        <ele>420.80</ele>
        <time>2014-02-23T10:49:25Z</time>
      </trkpt>
      <trkpt lat="41.613373490" lon="2.497265000">
        <ele>420.80</ele>
        <time>2014-02-23T10:49:26Z</time>
      </trkpt>
      <trkpt lat="41.613373490" lon="2.497265000">
        <ele>420.80</ele>
        <time>2014-02-23T10:49:27Z</time>
      </trkpt>
      <trkpt lat="41.613371810" lon="2.497265000">
        <ele>420.70</ele>
        <time>2014-02-23T10:49:28Z</time>
      </trkpt>
      <trkpt lat="41.613370140" lon="2.497265000">
        <ele>420.90</ele>
        <time>2014-02-23T10:49:29Z</time>
      </trkpt>
      <trkpt lat="41.613370140" lon="2.497265000">
        <ele>421.00</ele>
        <time>2014-02-23T10:49:30Z</time>
      </trkpt>
      <trkpt lat="41.613370140" lon="2.497265000">
        <ele>421.30</ele>
        <time>2014-02-23T10:49:31Z</time>
      </trkpt>
      <trkpt lat="41.613368460" lon="2.497266680">
        <ele>421.60</ele>
        <time>2014-02-23T10:49:32Z</time>
      </trkpt>
      <trkpt lat="41.613368460" lon="2.497266680">
        <ele>421.20</ele>
        <time>2014-02-23T10:49:33Z</time>
      </trkpt>
      <trkpt lat="41.613368460" lon="2.497266680">
        <ele>420.80</ele>
        <time>2014-02-23T10:49:34Z</time>
      </trkpt>
      <trkpt lat="41.613366790" lon="2.497266680">
        <ele>420.60</ele>
        <time>2014-02-23T10:49:35Z</time>
      </trkpt>
      <trkpt lat="41.613366790" lon="2.497266680">
        <ele>420.70</ele>
        <time>2014-02-23T10:49:36Z</time>
      </trkpt>
      <trkpt lat="41.613366790" lon="2.497266680">
        <ele>420.80</ele>
        <time>2014-02-23T10:49:37Z</time>
      </trkpt>
      <trkpt lat="41.613366790" lon="2.497266680">
        <ele>420.70</ele>
        <time>2014-02-23T10:49:38Z</time>
      </trkpt>
      <trkpt lat="41.613366790" lon="2.497266680">
        <ele>420.60</ele>
        <time>2014-02-23T10:49:39Z</time>
      </trkpt>
      <trkpt lat="41.613366790" lon="2.497266680">
        <ele>420.60</ele>
        <time>2014-02-23T10:49:40Z</time>
      </trkpt>
      <trkpt lat="41.613366790" lon="2.497266680">
        <ele>420.70</ele>
        <time>2014-02-23T10:49:41Z</time>
      </trkpt>
      <trkpt lat="41.613366790" lon="2.497266680">
        <ele>420.80</ele>
        <time>2014-02-23T10:49:42Z</time>
      </trkpt>
      <trkpt lat="41.613366790" lon="2.497265000">
        <ele>420.80</ele>
        <time>2014-02-23T10:49:43Z</time>
      </trkpt>
      <trkpt lat="41.613368460" lon="2.497265000">
        <ele>420.80</ele>
        <time>2014-02-23T10:49:44Z</time>
      </trkpt>
      <trkpt lat="41.613368460" lon="2.497265000">
        <ele>420.70</ele>
        <time>2014-02-23T10:49:45Z</time>
      </trkpt>
      <trkpt lat="41.613368460" lon="2.497265000">
        <ele>420.70</ele>
        <time>2014-02-23T10:49:46Z</time>
      </trkpt>
      <trkpt lat="41.613368460" lon="2.497263490">
        <ele>420.60</ele>
        <time>2014-02-23T10:49:47Z</time>
      </trkpt>
      <trkpt lat="41.613370140" lon="2.497261810">
        <ele>420.80</ele>
        <time>2014-02-23T10:49:48Z</time>
      </trkpt>
      <trkpt lat="41.613370140" lon="2.497261810">
        <ele>421.00</ele>
        <time>2014-02-23T10:49:49Z</time>
      </trkpt>
      <trkpt lat="41.613371810" lon="2.497261810">
        <ele>421.50</ele>
        <time>2014-02-23T10:49:50Z</time>
      </trkpt>
      <trkpt lat="41.613371810" lon="2.497260140">
        <ele>421.90</ele>
        <time>2014-02-23T10:49:51Z</time>
      </trkpt>
      <trkpt lat="41.613373490" lon="2.497260140">
        <ele>421.90</ele>
        <time>2014-02-23T10:49:52Z</time>
      </trkpt>
      <trkpt lat="41.613373490" lon="2.497258460">
        <ele>421.80</ele>
        <time>2014-02-23T10:49:53Z</time>
      </trkpt>
      <trkpt lat="41.613373490" lon="2.497258460">
        <ele>421.80</ele>
        <time>2014-02-23T10:49:54Z</time>
      </trkpt>
      <trkpt lat="41.613375000" lon="2.497258460">
        <ele>421.90</ele>
        <time>2014-02-23T10:49:55Z</time>
      </trkpt>
      <trkpt lat="41.613375000" lon="2.497258460">
        <ele>422.00</ele>
        <time>2014-02-23T10:49:56Z</time>
      </trkpt>
      <trkpt lat="41.613376680" lon="2.497258460">
        <ele>421.70</ele>
        <time>2014-02-23T10:49:57Z</time>
      </trkpt>
      <trkpt lat="41.613376680" lon="2.497256780">
        <ele>421.60</ele>
        <time>2014-02-23T10:49:58Z</time>
      </trkpt>
      <trkpt lat="41.613378350" lon="2.497256780">
        <ele>421.40</ele>
        <time>2014-02-23T10:49:59Z</time>
      </trkpt>
      <trkpt lat="41.613380030" lon="2.497255110">
        <ele>421.20</ele>
        <time>2014-02-23T10:50:00Z</time>
      </trkpt>
      <trkpt lat="41.613380030" lon="2.497255110">
        <ele>421.00</ele>
        <time>2014-02-23T10:50:01Z</time>
      </trkpt>
      <trkpt lat="41.613381700" lon="2.497253430">
        <ele>421.00</ele>
        <time>2014-02-23T10:50:02Z</time>
      </trkpt>
      <trkpt lat="41.613383380" lon="2.497251760">
        <ele>420.90</ele>
        <time>2014-02-23T10:50:03Z</time>
      </trkpt>
      <trkpt lat="41.613385060" lon="2.497251760">
        <ele>421.20</ele>
        <time>2014-02-23T10:50:04Z</time>
      </trkpt>
      <trkpt lat="41.613386730" lon="2.497250080">
        <ele>421.40</ele>
        <time>2014-02-23T10:50:05Z</time>
      </trkpt>
      <trkpt lat="41.613388410" lon="2.497250080">
        <ele>421.60</ele>
        <time>2014-02-23T10:50:06Z</time>
      </trkpt>
      <trkpt lat="41.613388410" lon="2.497248400">
        <ele>421.50</ele>
        <time>2014-02-23T10:50:07Z</time>
      </trkpt>
      <trkpt lat="41.613390090" lon="2.497248400">
        <ele>421.30</ele>
        <time>2014-02-23T10:50:08Z</time>
      </trkpt>
      <trkpt lat="41.613391760" lon="2.497246730">
        <ele>421.00</ele>
        <time>2014-02-23T10:50:09Z</time>
      </trkpt>
      <trkpt lat="41.613391760" lon="2.497246730">
        <ele>420.80</ele>
        <time>2014-02-23T10:50:10Z</time>
      </trkpt>
      <trkpt lat="41.613391760" lon="2.497246730">
        <ele>421.10</ele>
        <time>2014-02-23T10:50:11Z</time>
      </trkpt>
      <trkpt lat="41.613393440" lon="2.497246730">
        <ele>421.30</ele>
        <time>2014-02-23T10:50:12Z</time>
      </trkpt>
      <trkpt lat="41.613393440" lon="2.497245050">
        <ele>421.50</ele>
        <time>2014-02-23T10:50:13Z</time>
      </trkpt>
      <trkpt lat="41.613395120" lon="2.497245050">
        <ele>421.30</ele>
        <time>2014-02-23T10:50:14Z</time>
      </trkpt>
      <trkpt lat="41.613395120" lon="2.497245050">
        <ele>421.10</ele>
        <time>2014-02-23T10:50:15Z</time>
      </trkpt>
      <trkpt lat="41.613395120" lon="2.497245050">
        <ele>421.20</ele>
        <time>2014-02-23T10:50:16Z</time>
      </trkpt>
      <trkpt lat="41.613396790" lon="2.497245050">
        <ele>421.20</ele>
        <time>2014-02-23T10:50:17Z</time>
      </trkpt>
      <trkpt lat="41.613396790" lon="2.497245050">
        <ele>421.20</ele>
        <time>2014-02-23T10:50:18Z</time>
      </trkpt>
      <trkpt lat="41.613396790" lon="2.497245050">
        <ele>421.30</ele>
        <time>2014-02-23T10:50:19Z</time>
      </trkpt>
      <trkpt lat="41.613396790" lon="2.497245050">
        <ele>421.40</ele>
        <time>2014-02-23T10:50:20Z</time>
      </trkpt>
      <trkpt lat="41.613398470" lon="2.497246730">
        <ele>420.90</ele>
        <time>2014-02-23T10:50:21Z</time>
      </trkpt>
      <trkpt lat="41.613398470" lon="2.497246730">
        <ele>420.60</ele>
        <time>2014-02-23T10:50:22Z</time>
      </trkpt>
      <trkpt lat="41.613398470" lon="2.497246730">
        <ele>420.40</ele>
        <time>2014-02-23T10:50:23Z</time>
      </trkpt>
      <trkpt lat="41.613398470" lon="2.497246730">
        <ele>420.30</ele>
        <time>2014-02-23T10:50:24Z</time>
      </trkpt>
      <trkpt lat="41.613398470" lon="2.497246730">
        <ele>420.20</ele>
        <time>2014-02-23T10:50:25Z</time>
      </trkpt>
      <trkpt lat="41.613398470" lon="2.497246730">
        <ele>420.20</ele>
        <time>2014-02-23T10:50:26Z</time>
      </trkpt>
      <trkpt lat="41.613400150" lon="2.497246730">
        <ele>420.20</ele>
        <time>2014-02-23T10:50:27Z</time>
      </trkpt>
      <trkpt lat="41.613400150" lon="2.497246730">
        <ele>420.70</ele>
        <time>2014-02-23T10:50:28Z</time>
      </trkpt>
      <trkpt lat="41.613400150" lon="2.497246730">
        <ele>421.00</ele>
        <time>2014-02-23T10:50:29Z</time>
      </trkpt>
      <trkpt lat="41.613400150" lon="2.497248400">
        <ele>420.90</ele>
        <time>2014-02-23T10:50:30Z</time>
      </trkpt>
      <trkpt lat="41.613400150" lon="2.497248400">
        <ele>420.80</ele>
        <time>2014-02-23T10:50:31Z</time>
      </trkpt>
      <trkpt lat="41.613400150" lon="2.497248400">
        <ele>420.70</ele>
        <time>2014-02-23T10:50:32Z</time>
      </trkpt>
      <trkpt lat="41.613400150" lon="2.497248400">
        <ele>420.80</ele>
        <time>2014-02-23T10:50:33Z</time>
      </trkpt>
      <trkpt lat="41.613400150" lon="2.497248400">
        <ele>420.90</ele>
        <time>2014-02-23T10:50:34Z</time>
      </trkpt>
      <trkpt lat="41.613400150" lon="2.497248400">
        <ele>420.90</ele>
        <time>2014-02-23T10:50:35Z</time>
      </trkpt>
      <trkpt lat="41.613400150" lon="2.497250080">
        <ele>420.90</ele>
        <time>2014-02-23T10:50:36Z</time>
      </trkpt>
      <trkpt lat="41.613401820" lon="2.497250080">
        <ele>420.70</ele>
        <time>2014-02-23T10:50:37Z</time>
      </trkpt>
      <trkpt lat="41.613401820" lon="2.497250080">
        <ele>420.50</ele>
        <time>2014-02-23T10:50:38Z</time>
      </trkpt>
      <trkpt lat="41.613401820" lon="2.497250080">
        <ele>420.40</ele>
        <time>2014-02-23T10:50:39Z</time>
      </trkpt>
      <trkpt lat="41.613401820" lon="2.497250080">
        <ele>420.80</ele>
        <time>2014-02-23T10:50:40Z</time>
      </trkpt>
      <trkpt lat="41.613401820" lon="2.497250080">
        <ele>421.10</ele>
        <time>2014-02-23T10:50:41Z</time>
      </trkpt>
      <trkpt lat="41.613403330" lon="2.497250080">
        <ele>421.50</ele>
        <time>2014-02-23T10:50:42Z</time>
      </trkpt>
      <trkpt lat="41.613406680" lon="2.497253430">
        <ele>421.80</ele>
        <time>2014-02-23T10:50:43Z</time>
      </trkpt>
      <trkpt lat="41.613416740" lon="2.497255110">
        <ele>422.00</ele>
        <time>2014-02-23T10:50:44Z</time>
      </trkpt>
      <trkpt lat="41.613428480" lon="2.497260140">
        <ele>421.50</ele>
        <time>2014-02-23T10:50:45Z</time>
      </trkpt>
      <trkpt lat="41.613446750" lon="2.497265000">
        <ele>421.10</ele>
        <time>2014-02-23T10:50:46Z</time>
      </trkpt>
      <trkpt lat="41.613471730" lon="2.497270030">
        <ele>421.10</ele>
        <time>2014-02-23T10:50:47Z</time>
      </trkpt>
      <trkpt lat="41.613498380" lon="2.497278410">
        <ele>421.10</ele>
        <time>2014-02-23T10:50:48Z</time>
      </trkpt>
      <trkpt lat="41.613528390" lon="2.497296680">
        <ele>420.90</ele>
        <time>2014-02-23T10:50:49Z</time>
      </trkpt>
      <trkpt lat="41.613556720" lon="2.497326690">
        <ele>420.80</ele>
        <time>2014-02-23T10:50:50Z</time>
      </trkpt>
      <trkpt lat="41.613583370" lon="2.497368430">
        <ele>420.70</ele>
        <time>2014-02-23T10:50:51Z</time>
      </trkpt>
      <trkpt lat="41.613610030" lon="2.497416710">
        <ele>420.40</ele>
        <time>2014-02-23T10:50:52Z</time>
      </trkpt>
      <trkpt lat="41.613636680" lon="2.497470020">
        <ele>420.10</ele>
        <time>2014-02-23T10:50:53Z</time>
      </trkpt>
      <trkpt lat="41.613665010" lon="2.497530030">
        <ele>420.00</ele>
        <time>2014-02-23T10:50:54Z</time>
      </trkpt>
      <trkpt lat="41.613696700" lon="2.497591730">
        <ele>419.90</ele>
        <time>2014-02-23T10:50:55Z</time>
      </trkpt>
      <trkpt lat="41.613726700" lon="2.497646710">
        <ele>419.80</ele>
        <time>2014-02-23T10:50:56Z</time>
      </trkpt>
      <trkpt lat="41.613760060" lon="2.497691810">
        <ele>419.40</ele>
        <time>2014-02-23T10:50:57Z</time>
      </trkpt>
      <trkpt lat="41.613796780" lon="2.497721810">
        <ele>419.20</ele>
        <time>2014-02-23T10:50:58Z</time>
      </trkpt>
      <trkpt lat="41.613838350" lon="2.497738410">
        <ele>418.70</ele>
        <time>2014-02-23T10:50:59Z</time>
      </trkpt>
      <trkpt lat="41.613885120" lon="2.497743440">
        <ele>418.30</ele>
        <time>2014-02-23T10:51:00Z</time>
      </trkpt>
      <trkpt lat="41.613936750" lon="2.497731700">
        <ele>417.70</ele>
        <time>2014-02-23T10:51:01Z</time>
      </trkpt>
      <trkpt lat="41.613986710" lon="2.497713430">
        <ele>417.30</ele>
        <time>2014-02-23T10:51:02Z</time>
      </trkpt>
      <trkpt lat="41.614040020" lon="2.497688450">
        <ele>417.00</ele>
        <time>2014-02-23T10:51:03Z</time>
      </trkpt>
      <trkpt lat="41.614085110" lon="2.497658450">
        <ele>416.30</ele>
        <time>2014-02-23T10:51:04Z</time>
      </trkpt>
      <trkpt lat="41.614126690" lon="2.497626760">
        <ele>415.90</ele>
        <time>2014-02-23T10:51:05Z</time>
      </trkpt>
      <trkpt lat="41.614161720" lon="2.497586700">
        <ele>414.90</ele>
        <time>2014-02-23T10:51:06Z</time>
      </trkpt>
      <trkpt lat="41.614196760" lon="2.497536740">
        <ele>414.10</ele>
        <time>2014-02-23T10:51:07Z</time>
      </trkpt>
      <trkpt lat="41.614230120" lon="2.497488460">
        <ele>413.80</ele>
        <time>2014-02-23T10:51:08Z</time>
      </trkpt>
      <trkpt lat="41.614268340" lon="2.497441690">
        <ele>413.60</ele>
        <time>2014-02-23T10:51:09Z</time>
      </trkpt>
      <trkpt lat="41.614318470" lon="2.497408330">
        <ele>413.40</ele>
        <time>2014-02-23T10:51:10Z</time>
      </trkpt>
      <trkpt lat="41.614373450" lon="2.497395090">
        <ele>412.70</ele>
        <time>2014-02-23T10:51:11Z</time>
      </trkpt>
      <trkpt lat="41.614426760" lon="2.497401790">
        <ele>412.10</ele>
        <time>2014-02-23T10:51:12Z</time>
      </trkpt>
      <trkpt lat="41.614468330" lon="2.497423420">
        <ele>411.50</ele>
        <time>2014-02-23T10:51:13Z</time>
      </trkpt>
      <trkpt lat="41.614500020" lon="2.497451750">
        <ele>411.00</ele>
        <time>2014-02-23T10:51:14Z</time>
      </trkpt>
      <trkpt lat="41.614520130" lon="2.497475050">
        <ele>410.60</ele>
        <time>2014-02-23T10:51:15Z</time>
      </trkpt>
      <trkpt lat="41.614531700" lon="2.497496670">
        <ele>410.70</ele>
        <time>2014-02-23T10:51:16Z</time>
      </trkpt>
      <trkpt lat="41.614545110" lon="2.497513440">
        <ele>410.70</ele>
        <time>2014-02-23T10:51:17Z</time>
      </trkpt>
      <trkpt lat="41.614555000" lon="2.497533390">
        <ele>411.30</ele>
        <time>2014-02-23T10:51:18Z</time>
      </trkpt>
      <trkpt lat="41.614568410" lon="2.497558370">
        <ele>411.80</ele>
        <time>2014-02-23T10:51:19Z</time>
      </trkpt>
      <trkpt lat="41.614580150" lon="2.497588370">
        <ele>411.90</ele>
        <time>2014-02-23T10:51:20Z</time>
      </trkpt>
      <trkpt lat="41.614588360" lon="2.497616700">
        <ele>412.00</ele>
        <time>2014-02-23T10:51:21Z</time>
      </trkpt>
      <trkpt lat="41.614596750" lon="2.497648390">
        <ele>412.00</ele>
        <time>2014-02-23T10:51:22Z</time>
      </trkpt>
      <trkpt lat="41.614608480" lon="2.497680070">
        <ele>412.30</ele>
        <time>2014-02-23T10:51:23Z</time>
      </trkpt>
      <trkpt lat="41.614621720" lon="2.497710080">
        <ele>412.50</ele>
        <time>2014-02-23T10:51:24Z</time>
      </trkpt>
      <trkpt lat="41.614631780" lon="2.497743440">
        <ele>413.10</ele>
        <time>2014-02-23T10:51:25Z</time>
      </trkpt>
      <trkpt lat="41.614640000" lon="2.497776800">
        <ele>413.60</ele>
        <time>2014-02-23T10:51:26Z</time>
      </trkpt>
      <trkpt lat="41.614646700" lon="2.497811670">
        <ele>413.60</ele>
        <time>2014-02-23T10:51:27Z</time>
      </trkpt>
      <trkpt lat="41.614653410" lon="2.497848380">
        <ele>413.70</ele>
        <time>2014-02-23T10:51:28Z</time>
      </trkpt>
      <trkpt lat="41.614660110" lon="2.497886770">
        <ele>413.70</ele>
        <time>2014-02-23T10:51:29Z</time>
      </trkpt>
      <trkpt lat="41.614666820" lon="2.497925160">
        <ele>414.10</ele>
        <time>2014-02-23T10:51:30Z</time>
      </trkpt>
      <trkpt lat="41.614675030" lon="2.497968410">
        <ele>414.50</ele>
        <time>2014-02-23T10:51:31Z</time>
      </trkpt>
      <trkpt lat="41.614681740" lon="2.498018360">
        <ele>414.50</ele>
        <time>2014-02-23T10:51:32Z</time>
      </trkpt>
      <trkpt lat="41.614686770" lon="2.498076700">
        <ele>414.60</ele>
        <time>2014-02-23T10:51:33Z</time>
      </trkpt>
      <trkpt lat="41.614686770" lon="2.498148450">
        <ele>414.10</ele>
        <time>2014-02-23T10:51:34Z</time>
      </trkpt>
      <trkpt lat="41.614685090" lon="2.498226740">
        <ele>413.70</ele>
        <time>2014-02-23T10:51:35Z</time>
      </trkpt>
      <trkpt lat="41.614678390" lon="2.498311730">
        <ele>413.50</ele>
        <time>2014-02-23T10:51:36Z</time>
      </trkpt>
      <trkpt lat="41.614666820" lon="2.498405110">
        <ele>413.30</ele>
        <time>2014-02-23T10:51:37Z</time>
      </trkpt>
      <trkpt lat="41.614655080" lon="2.498503340">
        <ele>413.30</ele>
        <time>2014-02-23T10:51:38Z</time>
      </trkpt>
      <trkpt lat="41.614645030" lon="2.498608450">
        <ele>412.40</ele>
        <time>2014-02-23T10:51:39Z</time>
      </trkpt>
      <trkpt lat="41.614638490" lon="2.498715070">
        <ele>411.80</ele>
        <time>2014-02-23T10:51:40Z</time>
      </trkpt>
      <trkpt lat="41.614633460" lon="2.498823360">
        <ele>411.40</ele>
        <time>2014-02-23T10:51:41Z</time>
      </trkpt>
      <trkpt lat="41.614625080" lon="2.498928470">
        <ele>410.60</ele>
        <time>2014-02-23T10:51:42Z</time>
      </trkpt>
      <trkpt lat="41.614606800" lon="2.499023350">
        <ele>410.00</ele>
        <time>2014-02-23T10:51:43Z</time>
      </trkpt>
      <trkpt lat="41.614583330" lon="2.499110020">
        <ele>409.30</ele>
        <time>2014-02-23T10:51:44Z</time>
      </trkpt>
      <trkpt lat="41.614563390" lon="2.499193340">
        <ele>408.80</ele>
        <time>2014-02-23T10:51:45Z</time>
      </trkpt>
      <trkpt lat="41.614550140" lon="2.499273470">
        <ele>408.00</ele>
        <time>2014-02-23T10:51:46Z</time>
      </trkpt>
      <trkpt lat="41.614543440" lon="2.499351760">
        <ele>407.50</ele>
        <time>2014-02-23T10:51:47Z</time>
      </trkpt>
      <trkpt lat="41.614545110" lon="2.499425020">
        <ele>407.00</ele>
        <time>2014-02-23T10:51:48Z</time>
      </trkpt>
      <trkpt lat="41.614556680" lon="2.499503470">
        <ele>406.20</ele>
        <time>2014-02-23T10:51:49Z</time>
      </trkpt>
      <trkpt lat="41.614576800" lon="2.499583430">
        <ele>405.60</ele>
        <time>2014-02-23T10:51:50Z</time>
      </trkpt>
      <trkpt lat="41.614605130" lon="2.499660040">
        <ele>404.10</ele>
        <time>2014-02-23T10:51:51Z</time>
      </trkpt>
      <trkpt lat="41.614635130" lon="2.499733470">
        <ele>402.90</ele>
        <time>2014-02-23T10:51:52Z</time>
      </trkpt>
      <trkpt lat="41.614666820" lon="2.499803370">
        <ele>401.40</ele>
        <time>2014-02-23T10:51:53Z</time>
      </trkpt>
      <trkpt lat="41.614698330" lon="2.499863390">
        <ele>400.30</ele>
        <time>2014-02-23T10:51:54Z</time>
      </trkpt>
      <trkpt lat="41.614730020" lon="2.499911670">
        <ele>399.50</ele>
        <time>2014-02-23T10:51:55Z</time>
      </trkpt>
      <trkpt lat="41.614761700" lon="2.499945030">
        <ele>398.10</ele>
        <time>2014-02-23T10:51:56Z</time>
      </trkpt>
      <trkpt lat="41.614798410" lon="2.499960120">
        <ele>397.10</ele>
        <time>2014-02-23T10:51:57Z</time>
      </trkpt>
      <trkpt lat="41.614838480" lon="2.499961790">
        <ele>395.90</ele>
        <time>2014-02-23T10:51:58Z</time>
      </trkpt>
      <trkpt lat="41.614888440" lon="2.499951730">
        <ele>395.00</ele>
        <time>2014-02-23T10:51:59Z</time>
      </trkpt>
      <trkpt lat="41.614945100" lon="2.499941680">
        <ele>394.30</ele>
        <time>2014-02-23T10:52:00Z</time>
      </trkpt>
      <trkpt lat="41.614998410" lon="2.499951730">
        <ele>393.00</ele>
        <time>2014-02-23T10:52:01Z</time>
      </trkpt>
      <trkpt lat="41.615045010" lon="2.499981740">
        <ele>392.00</ele>
        <time>2014-02-23T10:52:02Z</time>
      </trkpt>
      <trkpt lat="41.615083400" lon="2.500031700">
        <ele>391.30</ele>
        <time>2014-02-23T10:52:03Z</time>
      </trkpt>
      <trkpt lat="41.615116760" lon="2.500093390">
        <ele>390.70</ele>
        <time>2014-02-23T10:52:04Z</time>
      </trkpt>
      <trkpt lat="41.615146770" lon="2.500151730">
        <ele>390.10</ele>
        <time>2014-02-23T10:52:05Z</time>
      </trkpt>
      <trkpt lat="41.615181800" lon="2.500193470">
        <ele>389.70</ele>
        <time>2014-02-23T10:52:06Z</time>
      </trkpt>
      <trkpt lat="41.615226730" lon="2.500218450">
        <ele>389.30</ele>
        <time>2014-02-23T10:52:07Z</time>
      </trkpt>
      <trkpt lat="41.615276690" lon="2.500228340">
        <ele>388.60</ele>
        <time>2014-02-23T10:52:08Z</time>
      </trkpt>
      <trkpt lat="41.615328490" lon="2.500228340">
        <ele>388.00</ele>
        <time>2014-02-23T10:52:09Z</time>
      </trkpt>
      <trkpt lat="41.615390010" lon="2.500228340">
        <ele>387.00</ele>
        <time>2014-02-23T10:52:10Z</time>
      </trkpt>
      <trkpt lat="41.615455050" lon="2.500230010">
        <ele>386.20</ele>
        <time>2014-02-23T10:52:11Z</time>
      </trkpt>
      <trkpt lat="41.615518420" lon="2.500226830">
        <ele>385.20</ele>
        <time>2014-02-23T10:52:12Z</time>
      </trkpt>
      <trkpt lat="41.615578430" lon="2.500223480">
        <ele>384.60</ele>
        <time>2014-02-23T10:52:13Z</time>
      </trkpt>
      <trkpt lat="41.615635100" lon="2.500226830">
        <ele>384.10</ele>
        <time>2014-02-23T10:52:14Z</time>
      </trkpt>
      <trkpt lat="41.615681700" lon="2.500246780">
        <ele>382.90</ele>
        <time>2014-02-23T10:52:15Z</time>
      </trkpt>
      <trkpt lat="41.615715060" lon="2.500281810">
        <ele>382.00</ele>
        <time>2014-02-23T10:52:16Z</time>
      </trkpt>
      <trkpt lat="41.615728470" lon="2.500328420">
        <ele>381.00</ele>
        <time>2014-02-23T10:52:17Z</time>
      </trkpt>
      <trkpt lat="41.615718410" lon="2.500375020">
        <ele>380.20</ele>
        <time>2014-02-23T10:52:18Z</time>
      </trkpt>
      <trkpt lat="41.615690080" lon="2.500413410">
        <ele>379.60</ele>
        <time>2014-02-23T10:52:19Z</time>
      </trkpt>
      <trkpt lat="41.615646660" lon="2.500436710">
        <ele>378.50</ele>
        <time>2014-02-23T10:52:20Z</time>
      </trkpt>
      <trkpt lat="41.615596710" lon="2.500436710">
        <ele>377.60</ele>
        <time>2014-02-23T10:52:21Z</time>
      </trkpt>
      <trkpt lat="41.615545070" lon="2.500425140">
        <ele>376.70</ele>
        <time>2014-02-23T10:52:22Z</time>
      </trkpt>
      <trkpt lat="41.615495120" lon="2.500415090">
        <ele>376.00</ele>
        <time>2014-02-23T10:52:23Z</time>
      </trkpt>
      <trkpt lat="41.615445160" lon="2.500420110">
        <ele>374.90</ele>
        <time>2014-02-23T10:52:24Z</time>
      </trkpt>
      <trkpt lat="41.615400070" lon="2.500438390">
        <ele>374.00</ele>
        <time>2014-02-23T10:52:25Z</time>
      </trkpt>
      <trkpt lat="41.615356820" lon="2.500465040">
        <ele>373.40</ele>
        <time>2014-02-23T10:52:26Z</time>
      </trkpt>
      <trkpt lat="41.615315070" lon="2.500498400">
        <ele>372.80</ele>
        <time>2014-02-23T10:52:27Z</time>
      </trkpt>
      <trkpt lat="41.615275010" lon="2.500531760">
        <ele>372.40</ele>
        <time>2014-02-23T10:52:28Z</time>
      </trkpt>
      <trkpt lat="41.615233430" lon="2.500565120">
        <ele>372.10</ele>
        <time>2014-02-23T10:52:29Z</time>
      </trkpt>
      <trkpt lat="41.615190020" lon="2.500586750">
        <ele>371.90</ele>
        <time>2014-02-23T10:52:30Z</time>
      </trkpt>
      <trkpt lat="41.615145090" lon="2.500590100">
        <ele>371.40</ele>
        <time>2014-02-23T10:52:31Z</time>
      </trkpt>
      <trkpt lat="41.615100000" lon="2.500568470">
        <ele>371.00</ele>
        <time>2014-02-23T10:52:32Z</time>
      </trkpt>
      <trkpt lat="41.615058420" lon="2.500530090">
        <ele>370.70</ele>
        <time>2014-02-23T10:52:33Z</time>
      </trkpt>
      <trkpt lat="41.615016680" lon="2.500491700">
        <ele>370.30</ele>
        <time>2014-02-23T10:52:34Z</time>
      </trkpt>
      <trkpt lat="41.614973430" lon="2.500465040">
        <ele>370.00</ele>
        <time>2014-02-23T10:52:35Z</time>
      </trkpt>
      <trkpt lat="41.614928330" lon="2.500458340">
        <ele>369.90</ele>
        <time>2014-02-23T10:52:36Z</time>
      </trkpt>
      <trkpt lat="41.614883410" lon="2.500470070">
        <ele>369.90</ele>
        <time>2014-02-23T10:52:37Z</time>
      </trkpt>
      <trkpt lat="41.614838480" lon="2.500485160">
        <ele>369.80</ele>
        <time>2014-02-23T10:52:38Z</time>
      </trkpt>
      <trkpt lat="41.614793390" lon="2.500501750">
        <ele>369.60</ele>
        <time>2014-02-23T10:52:39Z</time>
      </trkpt>
      <trkpt lat="41.614748460" lon="2.500516670">
        <ele>369.60</ele>
        <time>2014-02-23T10:52:40Z</time>
      </trkpt>
      <trkpt lat="41.614703360" lon="2.500518350">
        <ele>369.30</ele>
        <time>2014-02-23T10:52:41Z</time>
      </trkpt>
      <trkpt lat="41.614656760" lon="2.500500080">
        <ele>369.10</ele>
        <time>2014-02-23T10:52:42Z</time>
      </trkpt>
      <trkpt lat="41.614605130" lon="2.500468390">
        <ele>368.80</ele>
        <time>2014-02-23T10:52:43Z</time>
      </trkpt>
      <trkpt lat="41.614553490" lon="2.500421790">
        <ele>368.60</ele>
        <time>2014-02-23T10:52:44Z</time>
      </trkpt>
      <trkpt lat="41.614496670" lon="2.500371670">
        <ele>368.40</ele>
        <time>2014-02-23T10:52:45Z</time>
      </trkpt>
      <trkpt lat="41.614435140" lon="2.500325060">
        <ele>367.80</ele>
        <time>2014-02-23T10:52:46Z</time>
      </trkpt>
      <trkpt lat="41.614373450" lon="2.500285000">
        <ele>367.30</ele>
        <time>2014-02-23T10:52:47Z</time>
      </trkpt>
      <trkpt lat="41.614310080" lon="2.500248450">
        <ele>365.90</ele>
        <time>2014-02-23T10:52:48Z</time>
      </trkpt>
      <trkpt lat="41.614245040" lon="2.500218450">
        <ele>364.90</ele>
        <time>2014-02-23T10:52:49Z</time>
      </trkpt>
      <trkpt lat="41.614185030" lon="2.500188440">
        <ele>363.80</ele>
        <time>2014-02-23T10:52:50Z</time>
      </trkpt>
      <trkpt lat="41.614128360" lon="2.500156760">
        <ele>362.90</ele>
        <time>2014-02-23T10:52:51Z</time>
      </trkpt>
      <trkpt lat="41.614073380" lon="2.500125070">
        <ele>362.30</ele>
        <time>2014-02-23T10:52:52Z</time>
      </trkpt>
      <trkpt lat="41.614025100" lon="2.500090040">
        <ele>361.40</ele>
        <time>2014-02-23T10:52:53Z</time>
      </trkpt>
      <trkpt lat="41.613983360" lon="2.500048460">
        <ele>360.70</ele>
        <time>2014-02-23T10:52:54Z</time>
      </trkpt>
      <trkpt lat="41.613945140" lon="2.500008400">
        <ele>359.10</ele>
        <time>2014-02-23T10:52:55Z</time>
      </trkpt>
      <trkpt lat="41.613908420" lon="2.499983420">
        <ele>357.90</ele>
        <time>2014-02-23T10:52:56Z</time>
      </trkpt>
      <trkpt lat="41.613880090" lon="2.499985090">
        <ele>357.00</ele>
        <time>2014-02-23T10:52:57Z</time>
      </trkpt>
      <trkpt lat="41.613865010" lon="2.500010070">
        <ele>356.10</ele>
        <time>2014-02-23T10:52:58Z</time>
      </trkpt>
      <trkpt lat="41.613863330" lon="2.500053490">
        <ele>355.40</ele>
        <time>2014-02-23T10:52:59Z</time>
      </trkpt>
      <trkpt lat="41.613873390" lon="2.500105120">
        <ele>354.20</ele>
        <time>2014-02-23T10:53:00Z</time>
      </trkpt>
      <trkpt lat="41.613901720" lon="2.500156760">
        <ele>353.30</ele>
        <time>2014-02-23T10:53:01Z</time>
      </trkpt>
      <trkpt lat="41.613931730" lon="2.500213420">
        <ele>352.30</ele>
        <time>2014-02-23T10:53:02Z</time>
      </trkpt>
      <trkpt lat="41.613961730" lon="2.500270080">
        <ele>351.60</ele>
        <time>2014-02-23T10:53:03Z</time>
      </trkpt>
      <trkpt lat="41.613993420" lon="2.500331770">
        <ele>351.10</ele>
        <time>2014-02-23T10:53:04Z</time>
      </trkpt>
      <trkpt lat="41.614025100" lon="2.500396810">
        <ele>350.30</ele>
        <time>2014-02-23T10:53:05Z</time>
      </trkpt>
      <trkpt lat="41.614063490" lon="2.500465040">
        <ele>349.60</ele>
        <time>2014-02-23T10:53:06Z</time>
      </trkpt>
      <trkpt lat="41.614105060" lon="2.500533440">
        <ele>348.10</ele>
        <time>2014-02-23T10:53:07Z</time>
      </trkpt>
      <trkpt lat="41.614143450" lon="2.500608370">
        <ele>347.00</ele>
        <time>2014-02-23T10:53:08Z</time>
      </trkpt>
      <trkpt lat="41.614180000" lon="2.500691690">
        <ele>345.50</ele>
        <time>2014-02-23T10:53:09Z</time>
      </trkpt>
      <trkpt lat="41.614210000" lon="2.500785060">
        <ele>344.50</ele>
        <time>2014-02-23T10:53:10Z</time>
      </trkpt>
      <trkpt lat="41.614235150" lon="2.500878440">
        <ele>343.70</ele>
        <time>2014-02-23T10:53:11Z</time>
      </trkpt>
      <trkpt lat="41.614255100" lon="2.500970140">
        <ele>342.50</ele>
        <time>2014-02-23T10:53:12Z</time>
      </trkpt>
      <trkpt lat="41.614281750" lon="2.501051770">
        <ele>341.70</ele>
        <time>2014-02-23T10:53:13Z</time>
      </trkpt>
      <trkpt lat="41.614326680" lon="2.501113470">
        <ele>340.30</ele>
        <time>2014-02-23T10:53:14Z</time>
      </trkpt>
      <trkpt lat="41.614385020" lon="2.501165100">
        <ele>339.30</ele>
        <time>2014-02-23T10:53:15Z</time>
      </trkpt>
      <trkpt lat="41.614448390" lon="2.501211700">
        <ele>338.60</ele>
        <time>2014-02-23T10:53:16Z</time>
      </trkpt>
      <trkpt lat="41.614516780" lon="2.501260150">
        <ele>337.70</ele>
        <time>2014-02-23T10:53:17Z</time>
      </trkpt>
      <trkpt lat="41.614576800" lon="2.501308430">
        <ele>337.10</ele>
        <time>2014-02-23T10:53:18Z</time>
      </trkpt>
      <trkpt lat="41.614638490" lon="2.501348490">
        <ele>336.40</ele>
        <time>2014-02-23T10:53:19Z</time>
      </trkpt>
      <trkpt lat="41.614701690" lon="2.501376830">
        <ele>335.80</ele>
        <time>2014-02-23T10:53:20Z</time>
      </trkpt>
      <trkpt lat="41.614770080" lon="2.501388390">
        <ele>335.20</ele>
        <time>2014-02-23T10:53:21Z</time>
      </trkpt>
      <trkpt lat="41.614831770" lon="2.501396770">
        <ele>334.80</ele>
        <time>2014-02-23T10:53:22Z</time>
      </trkpt>
      <trkpt lat="41.614880050" lon="2.501428460">
        <ele>334.50</ele>
        <time>2014-02-23T10:53:23Z</time>
      </trkpt>
      <trkpt lat="41.614908380" lon="2.501481770">
        <ele>333.50</ele>
        <time>2014-02-23T10:53:24Z</time>
      </trkpt>
      <trkpt lat="41.614916770" lon="2.501538430">
        <ele>332.80</ele>
        <time>2014-02-23T10:53:25Z</time>
      </trkpt>
      <trkpt lat="41.614920120" lon="2.501591740">
        <ele>332.60</ele>
        <time>2014-02-23T10:53:26Z</time>
      </trkpt>
      <trkpt lat="41.614928330" lon="2.501640020">
        <ele>332.50</ele>
        <time>2014-02-23T10:53:27Z</time>
      </trkpt>
      <trkpt lat="41.614936720" lon="2.501688460">
        <ele>332.40</ele>
        <time>2014-02-23T10:53:28Z</time>
      </trkpt>
      <trkpt lat="41.614945100" lon="2.501740100">
        <ele>332.40</ele>
        <time>2014-02-23T10:53:29Z</time>
      </trkpt>
      <trkpt lat="41.614948450" lon="2.501793410">
        <ele>332.40</ele>
        <time>2014-02-23T10:53:30Z</time>
      </trkpt>
      <trkpt lat="41.614951800" lon="2.501851740">
        <ele>332.50</ele>
        <time>2014-02-23T10:53:31Z</time>
      </trkpt>
      <trkpt lat="41.614961690" lon="2.501916790">
        <ele>332.60</ele>
        <time>2014-02-23T10:53:32Z</time>
      </trkpt>
      <trkpt lat="41.614975100" lon="2.501983340">
        <ele>332.00</ele>
        <time>2014-02-23T10:53:33Z</time>
      </trkpt>
      <trkpt lat="41.614995050" lon="2.502048380">
        <ele>331.60</ele>
        <time>2014-02-23T10:53:34Z</time>
      </trkpt>
      <trkpt lat="41.615020030" lon="2.502121810">
        <ele>331.20</ele>
        <time>2014-02-23T10:53:35Z</time>
      </trkpt>
      <trkpt lat="41.615048360" lon="2.502205120">
        <ele>331.00</ele>
        <time>2014-02-23T10:53:36Z</time>
      </trkpt>
      <trkpt lat="41.615076690" lon="2.502291790">
        <ele>330.90</ele>
        <time>2014-02-23T10:53:37Z</time>
      </trkpt>
      <trkpt lat="41.615098490" lon="2.502383490">
        <ele>330.40</ele>
        <time>2014-02-23T10:53:38Z</time>
      </trkpt>
      <trkpt lat="41.615118440" lon="2.502476700">
        <ele>330.10</ele>
        <time>2014-02-23T10:53:39Z</time>
      </trkpt>
      <trkpt lat="41.615135030" lon="2.502570070">
        <ele>329.50</ele>
        <time>2014-02-23T10:53:40Z</time>
      </trkpt>
      <trkpt lat="41.615153470" lon="2.502658420">
        <ele>329.00</ele>
        <time>2014-02-23T10:53:41Z</time>
      </trkpt>
      <trkpt lat="41.615175100" lon="2.502735030">
        <ele>328.70</ele>
        <time>2014-02-23T10:53:42Z</time>
      </trkpt>
      <trkpt lat="41.615203430" lon="2.502805100">
        <ele>328.50</ele>
        <time>2014-02-23T10:53:43Z</time>
      </trkpt>
      <trkpt lat="41.615240140" lon="2.502873330">
        <ele>328.40</ele>
        <time>2014-02-23T10:53:44Z</time>
      </trkpt>
      <trkpt lat="41.615278360" lon="2.502938370">
        <ele>328.50</ele>
        <time>2014-02-23T10:53:45Z</time>
      </trkpt>
      <trkpt lat="41.615311720" lon="2.503006770">
        <ele>328.50</ele>
        <time>2014-02-23T10:53:46Z</time>
      </trkpt>
      <trkpt lat="41.615335020" lon="2.503078350">
        <ele>328.50</ele>
        <time>2014-02-23T10:53:47Z</time>
      </trkpt>
      <trkpt lat="41.615350110" lon="2.503150100">
        <ele>328.40</ele>
        <time>2014-02-23T10:53:48Z</time>
      </trkpt>
      <trkpt lat="41.615361680" lon="2.503213470">
        <ele>328.40</ele>
        <time>2014-02-23T10:53:49Z</time>
      </trkpt>
      <trkpt lat="41.615370060" lon="2.503276670">
        <ele>327.70</ele>
        <time>2014-02-23T10:53:50Z</time>
      </trkpt>
      <trkpt lat="41.615376770" lon="2.503340030">
        <ele>327.20</ele>
        <time>2014-02-23T10:53:51Z</time>
      </trkpt>
      <trkpt lat="41.615383470" lon="2.503410110">
        <ele>327.10</ele>
        <time>2014-02-23T10:53:52Z</time>
      </trkpt>
      <trkpt lat="41.615390010" lon="2.503481690">
        <ele>327.00</ele>
        <time>2014-02-23T10:53:53Z</time>
      </trkpt>
      <trkpt lat="41.615396710" lon="2.503561820">
        <ele>327.00</ele>
        <time>2014-02-23T10:53:54Z</time>
      </trkpt>
      <trkpt lat="41.615401740" lon="2.503646810">
        <ele>326.90</ele>
        <time>2014-02-23T10:53:55Z</time>
      </trkpt>
      <trkpt lat="41.615398390" lon="2.503728450">
        <ele>326.90</ele>
        <time>2014-02-23T10:53:56Z</time>
      </trkpt>
      <trkpt lat="41.615385150" lon="2.503815120">
        <ele>326.20</ele>
        <time>2014-02-23T10:53:57Z</time>
      </trkpt>
      <trkpt lat="41.615368380" lon="2.503900110">
        <ele>325.70</ele>
        <time>2014-02-23T10:53:58Z</time>
      </trkpt>
      <trkpt lat="41.615356820" lon="2.503990130">
        <ele>324.70</ele>
        <time>2014-02-23T10:53:59Z</time>
      </trkpt>
      <trkpt lat="41.615346760" lon="2.504081670">
        <ele>324.00</ele>
        <time>2014-02-23T10:54:00Z</time>
      </trkpt>
      <trkpt lat="41.615340050" lon="2.504175040">
        <ele>323.50</ele>
        <time>2014-02-23T10:54:01Z</time>
      </trkpt>
      <trkpt lat="41.615336700" lon="2.504273440">
        <ele>322.30</ele>
        <time>2014-02-23T10:54:02Z</time>
      </trkpt>
      <trkpt lat="41.615331670" lon="2.504368490">
        <ele>321.40</ele>
        <time>2014-02-23T10:54:03Z</time>
      </trkpt>
      <trkpt lat="41.615331670" lon="2.504460020">
        <ele>319.90</ele>
        <time>2014-02-23T10:54:04Z</time>
      </trkpt>
      <trkpt lat="41.615333350" lon="2.504541660">
        <ele>318.80</ele>
        <time>2014-02-23T10:54:05Z</time>
      </trkpt>
      <trkpt lat="41.615345080" lon="2.504613410">
        <ele>317.00</ele>
        <time>2014-02-23T10:54:06Z</time>
      </trkpt>
      <trkpt lat="41.615363350" lon="2.504670070">
        <ele>315.70</ele>
        <time>2014-02-23T10:54:07Z</time>
      </trkpt>
      <trkpt lat="41.615393360" lon="2.504713490">
        <ele>314.80</ele>
        <time>2014-02-23T10:54:08Z</time>
      </trkpt>
      <trkpt lat="41.615436780" lon="2.504736790">
        <ele>314.00</ele>
        <time>2014-02-23T10:54:09Z</time>
      </trkpt>
      <trkpt lat="41.615488410" lon="2.504741820">
        <ele>313.50</ele>
        <time>2014-02-23T10:54:10Z</time>
      </trkpt>
      <trkpt lat="41.615548430" lon="2.504743330">
        <ele>312.60</ele>
        <time>2014-02-23T10:54:11Z</time>
      </trkpt>
      <trkpt lat="41.615613470" lon="2.504745010">
        <ele>312.00</ele>
        <time>2014-02-23T10:54:12Z</time>
      </trkpt>
      <trkpt lat="41.615685050" lon="2.504745010">
        <ele>311.50</ele>
        <time>2014-02-23T10:54:13Z</time>
      </trkpt>
      <trkpt lat="41.615761660" lon="2.504750040">
        <ele>310.40</ele>
        <time>2014-02-23T10:54:14Z</time>
      </trkpt>
      <trkpt lat="41.615840120" lon="2.504758420">
        <ele>309.60</ele>
        <time>2014-02-23T10:54:15Z</time>
      </trkpt>
      <trkpt lat="41.615915050" lon="2.504766800">
        <ele>309.20</ele>
        <time>2014-02-23T10:54:16Z</time>
      </trkpt>
      <trkpt lat="41.615981770" lon="2.504783400">
        <ele>308.80</ele>
        <time>2014-02-23T10:54:17Z</time>
      </trkpt>
      <trkpt lat="41.616036760" lon="2.504811730">
        <ele>307.70</ele>
        <time>2014-02-23T10:54:18Z</time>
      </trkpt>
      <trkpt lat="41.616085040" lon="2.504855150">
        <ele>306.90</ele>
        <time>2014-02-23T10:54:19Z</time>
      </trkpt>
      <trkpt lat="41.616113370" lon="2.504910130">
        <ele>306.20</ele>
        <time>2014-02-23T10:54:20Z</time>
      </trkpt>
      <trkpt lat="41.616121750" lon="2.504971820">
        <ele>305.40</ele>
        <time>2014-02-23T10:54:21Z</time>
      </trkpt>
      <trkpt lat="41.616118400" lon="2.505031670">
        <ele>304.70</ele>
        <time>2014-02-23T10:54:22Z</time>
      </trkpt>
      <trkpt lat="41.616113370" lon="2.505095040">
        <ele>304.20</ele>
        <time>2014-02-23T10:54:23Z</time>
      </trkpt>
      <trkpt lat="41.616101800" lon="2.505165110">
        <ele>303.80</ele>
        <time>2014-02-23T10:54:24Z</time>
      </trkpt>
      <trkpt lat="41.616085040" lon="2.505238370">
        <ele>303.20</ele>
        <time>2014-02-23T10:54:25Z</time>
      </trkpt>
      <trkpt lat="41.616068440" lon="2.505315150">
        <ele>302.70</ele>
        <time>2014-02-23T10:54:26Z</time>
      </trkpt>
      <trkpt lat="41.616050000" lon="2.505383370">
        <ele>302.30</ele>
        <time>2014-02-23T10:54:27Z</time>
      </trkpt>
      <trkpt lat="41.616036760" lon="2.505448420">
        <ele>301.40</ele>
        <time>2014-02-23T10:54:28Z</time>
      </trkpt>
      <trkpt lat="41.616010100" lon="2.505501730">
        <ele>300.70</ele>
        <time>2014-02-23T10:54:29Z</time>
      </trkpt>
      <trkpt lat="41.615986800" lon="2.505563420">
        <ele>300.00</ele>
        <time>2014-02-23T10:54:30Z</time>
      </trkpt>
      <trkpt lat="41.615963330" lon="2.505628460">
        <ele>299.40</ele>
        <time>2014-02-23T10:54:31Z</time>
      </trkpt>
      <trkpt lat="41.615948410" lon="2.505691830">
        <ele>299.00</ele>
        <time>2014-02-23T10:54:32Z</time>
      </trkpt>
      <trkpt lat="41.615928460" lon="2.505758380">
        <ele>298.20</ele>
        <time>2014-02-23T10:54:33Z</time>
      </trkpt>
      <trkpt lat="41.615905160" lon="2.505828450">
        <ele>297.60</ele>
        <time>2014-02-23T10:54:34Z</time>
      </trkpt>
      <trkpt lat="41.615881690" lon="2.505898360">
        <ele>296.30</ele>
        <time>2014-02-23T10:54:35Z</time>
      </trkpt>
      <trkpt lat="41.615856710" lon="2.505965080">
        <ele>295.30</ele>
        <time>2014-02-23T10:54:36Z</time>
      </trkpt>
      <trkpt lat="41.615838440" lon="2.506025090">
        <ele>293.70</ele>
        <time>2014-02-23T10:54:37Z</time>
      </trkpt>
      <trkpt lat="41.615818490" lon="2.506085110">
        <ele>292.40</ele>
        <time>2014-02-23T10:54:38Z</time>
      </trkpt>
      <trkpt lat="41.615796700" lon="2.506156690">
        <ele>291.50</ele>
        <time>2014-02-23T10:54:39Z</time>
      </trkpt>
      <trkpt lat="41.615768370" lon="2.506230110">
        <ele>290.60</ele>
        <time>2014-02-23T10:54:40Z</time>
      </trkpt>
      <trkpt lat="41.615746740" lon="2.506301700">
        <ele>289.90</ele>
        <time>2014-02-23T10:54:41Z</time>
      </trkpt>
      <trkpt lat="41.615720090" lon="2.506378470">
        <ele>288.20</ele>
        <time>2014-02-23T10:54:42Z</time>
      </trkpt>
      <trkpt lat="41.615693430" lon="2.506453410">
        <ele>287.00</ele>
        <time>2014-02-23T10:54:43Z</time>
      </trkpt>
      <trkpt lat="41.615665100" lon="2.506535050">
        <ele>285.90</ele>
        <time>2014-02-23T10:54:44Z</time>
      </trkpt>
      <trkpt lat="41.615638450" lon="2.506616690">
        <ele>285.10</ele>
        <time>2014-02-23T10:54:45Z</time>
      </trkpt>
      <trkpt lat="41.615620010" lon="2.506698500">
        <ele>284.50</ele>
        <time>2014-02-23T10:54:46Z</time>
      </trkpt>
      <trkpt lat="41.615615150" lon="2.506781810">
        <ele>283.50</ele>
        <time>2014-02-23T10:54:47Z</time>
      </trkpt>
      <trkpt lat="41.615625040" lon="2.506865130">
        <ele>282.70</ele>
        <time>2014-02-23T10:54:48Z</time>
      </trkpt>
      <trkpt lat="41.615645150" lon="2.506946770">
        <ele>281.60</ele>
        <time>2014-02-23T10:54:49Z</time>
      </trkpt>
      <trkpt lat="41.615666780" lon="2.507030080">
        <ele>280.70</ele>
        <time>2014-02-23T10:54:50Z</time>
      </trkpt>
      <trkpt lat="41.615691760" lon="2.507105020">
        <ele>279.40</ele>
        <time>2014-02-23T10:54:51Z</time>
      </trkpt>
      <trkpt lat="41.615713380" lon="2.507180120">
        <ele>278.40</ele>
        <time>2014-02-23T10:54:52Z</time>
      </trkpt>
      <trkpt lat="41.615726790" lon="2.507248350">
        <ele>277.60</ele>
        <time>2014-02-23T10:54:53Z</time>
      </trkpt>
      <trkpt lat="41.615741710" lon="2.507316740">
        <ele>276.70</ele>
        <time>2014-02-23T10:54:54Z</time>
      </trkpt>
      <trkpt lat="41.615758480" lon="2.507378440">
        <ele>276.00</ele>
        <time>2014-02-23T10:54:55Z</time>
      </trkpt>
      <trkpt lat="41.615776750" lon="2.507431740">
        <ele>275.30</ele>
        <time>2014-02-23T10:54:56Z</time>
      </trkpt>
      <trkpt lat="41.615798380" lon="2.507483380">
        <ele>274.90</ele>
        <time>2014-02-23T10:54:57Z</time>
      </trkpt>
      <trkpt lat="41.615828380" lon="2.507531820">
        <ele>274.50</ele>
        <time>2014-02-23T10:54:58Z</time>
      </trkpt>
      <trkpt lat="41.615865100" lon="2.507593350">
        <ele>273.70</ele>
        <time>2014-02-23T10:54:59Z</time>
      </trkpt>
      <trkpt lat="41.615893430" lon="2.507663420">
        <ele>273.00</ele>
        <time>2014-02-23T10:55:00Z</time>
      </trkpt>
      <trkpt lat="41.615910020" lon="2.507733490">
        <ele>272.10</ele>
        <time>2014-02-23T10:55:01Z</time>
      </trkpt>
      <trkpt lat="41.615923430" lon="2.507775070">
        <ele>271.40</ele>
        <time>2014-02-23T10:55:02Z</time>
      </trkpt>
      <trkpt lat="41.615936680" lon="2.507806750">
        <ele>270.80</ele>
        <time>2014-02-23T10:55:03Z</time>
      </trkpt>
      <trkpt lat="41.615945060" lon="2.507841790">
        <ele>270.40</ele>
        <time>2014-02-23T10:55:04Z</time>
      </trkpt>
      <trkpt lat="41.615955120" lon="2.507881680">
        <ele>270.10</ele>
        <time>2014-02-23T10:55:05Z</time>
      </trkpt>
      <trkpt lat="41.615963330" lon="2.507916720">
        <ele>269.90</ele>
        <time>2014-02-23T10:55:06Z</time>
      </trkpt>
      <trkpt lat="41.615970040" lon="2.507946730">
        <ele>269.80</ele>
        <time>2014-02-23T10:55:07Z</time>
      </trkpt>
      <trkpt lat="41.615976740" lon="2.507971710">
        <ele>268.90</ele>
        <time>2014-02-23T10:55:08Z</time>
      </trkpt>
      <trkpt lat="41.615980090" lon="2.507996680">
        <ele>268.30</ele>
        <time>2014-02-23T10:55:09Z</time>
      </trkpt>
      <trkpt lat="41.615988480" lon="2.508025020">
        <ele>267.80</ele>
        <time>2014-02-23T10:55:10Z</time>
      </trkpt>
      <trkpt lat="41.616003400" lon="2.508055020">
        <ele>267.50</ele>
        <time>2014-02-23T10:55:11Z</time>
      </trkpt>
      <trkpt lat="41.616021670" lon="2.508095090">
        <ele>267.30</ele>
        <time>2014-02-23T10:55:12Z</time>
      </trkpt>
      <trkpt lat="41.616031730" lon="2.508146720">
        <ele>267.30</ele>
        <time>2014-02-23T10:55:13Z</time>
      </trkpt>
      <trkpt lat="41.616045140" lon="2.508205060">
        <ele>267.20</ele>
        <time>2014-02-23T10:55:14Z</time>
      </trkpt>
      <trkpt lat="41.616063410" lon="2.508270100">
        <ele>266.80</ele>
        <time>2014-02-23T10:55:15Z</time>
      </trkpt>
      <trkpt lat="41.616081680" lon="2.508330120">
        <ele>266.50</ele>
        <time>2014-02-23T10:55:16Z</time>
      </trkpt>
      <trkpt lat="41.616098450" lon="2.508385100">
        <ele>266.30</ele>
        <time>2014-02-23T10:55:17Z</time>
      </trkpt>
      <trkpt lat="41.616113370" lon="2.508438410">
        <ele>265.20</ele>
        <time>2014-02-23T10:55:18Z</time>
      </trkpt>
      <trkpt lat="41.616123430" lon="2.508490040">
        <ele>264.40</ele>
        <time>2014-02-23T10:55:19Z</time>
      </trkpt>
      <trkpt lat="41.616130130" lon="2.508538490">
        <ele>264.00</ele>
        <time>2014-02-23T10:55:20Z</time>
      </trkpt>
      <trkpt lat="41.616141700" lon="2.508586770">
        <ele>263.60</ele>
        <time>2014-02-23T10:55:21Z</time>
      </trkpt>
      <trkpt lat="41.616155110" lon="2.508636730">
        <ele>263.10</ele>
        <time>2014-02-23T10:55:22Z</time>
      </trkpt>
      <trkpt lat="41.616168350" lon="2.508691710">
        <ele>262.80</ele>
        <time>2014-02-23T10:55:23Z</time>
      </trkpt>
      <trkpt lat="41.616178410" lon="2.508750050">
        <ele>262.50</ele>
        <time>2014-02-23T10:55:24Z</time>
      </trkpt>
      <trkpt lat="41.616193330" lon="2.508808390">
        <ele>261.40</ele>
        <time>2014-02-23T10:55:25Z</time>
      </trkpt>
      <trkpt lat="41.616205070" lon="2.508871760">
        <ele>260.60</ele>
        <time>2014-02-23T10:55:26Z</time>
      </trkpt>
      <trkpt lat="41.616220150" lon="2.508938480">
        <ele>259.50</ele>
        <time>2014-02-23T10:55:27Z</time>
      </trkpt>
      <trkpt lat="41.616225010" lon="2.509006700">
        <ele>258.70</ele>
        <time>2014-02-23T10:55:28Z</time>
      </trkpt>
      <trkpt lat="41.616228370" lon="2.509075100">
        <ele>257.80</ele>
        <time>2014-02-23T10:55:29Z</time>
      </trkpt>
      <trkpt lat="41.616228370" lon="2.509143330">
        <ele>257.10</ele>
        <time>2014-02-23T10:55:30Z</time>
      </trkpt>
      <trkpt lat="41.616225010" lon="2.509216750">
        <ele>256.60</ele>
        <time>2014-02-23T10:55:31Z</time>
      </trkpt>
      <trkpt lat="41.616226690" lon="2.509290010">
        <ele>255.90</ele>
        <time>2014-02-23T10:55:32Z</time>
      </trkpt>
      <trkpt lat="41.616233400" lon="2.509366790">
        <ele>255.40</ele>
        <time>2014-02-23T10:55:33Z</time>
      </trkpt>
      <trkpt lat="41.616241780" lon="2.509445080">
        <ele>254.20</ele>
        <time>2014-02-23T10:55:34Z</time>
      </trkpt>
      <trkpt lat="41.616243450" lon="2.509526720">
        <ele>253.30</ele>
        <time>2014-02-23T10:55:35Z</time>
      </trkpt>
      <trkpt lat="41.616260050" lon="2.509598470">
        <ele>252.70</ele>
        <time>2014-02-23T10:55:36Z</time>
      </trkpt>
      <trkpt lat="41.616288380" lon="2.509658480">
        <ele>251.80</ele>
        <time>2014-02-23T10:55:37Z</time>
      </trkpt>
      <trkpt lat="41.616338340" lon="2.509701730">
        <ele>251.20</ele>
        <time>2014-02-23T10:55:38Z</time>
      </trkpt>
      <trkpt lat="41.616395000" lon="2.509731740">
        <ele>250.30</ele>
        <time>2014-02-23T10:55:39Z</time>
      </trkpt>
      <trkpt lat="41.616450150" lon="2.509751690">
        <ele>249.50</ele>
        <time>2014-02-23T10:55:40Z</time>
      </trkpt>
      <trkpt lat="41.616501780" lon="2.509761750">
        <ele>248.30</ele>
        <time>2014-02-23T10:55:41Z</time>
      </trkpt>
      <trkpt lat="41.616546710" lon="2.509740120">
        <ele>247.40</ele>
        <time>2014-02-23T10:55:42Z</time>
      </trkpt>
      <trkpt lat="41.616585100" lon="2.509705080">
        <ele>246.70</ele>
        <time>2014-02-23T10:55:43Z</time>
      </trkpt>
      <trkpt lat="41.616620140" lon="2.509660160">
        <ele>246.60</ele>
        <time>2014-02-23T10:55:44Z</time>
      </trkpt>
      <trkpt lat="41.616655010" lon="2.509608360">
        <ele>246.50</ele>
        <time>2014-02-23T10:55:45Z</time>
      </trkpt>
      <trkpt lat="41.616691720" lon="2.509560080">
        <ele>246.00</ele>
        <time>2014-02-23T10:55:46Z</time>
      </trkpt>
      <trkpt lat="41.616726750" lon="2.509521690">
        <ele>245.60</ele>
        <time>2014-02-23T10:55:47Z</time>
      </trkpt>
      <trkpt lat="41.616761790" lon="2.509491680">
        <ele>245.30</ele>
        <time>2014-02-23T10:55:48Z</time>
      </trkpt>
      <trkpt lat="41.616798340" lon="2.509476760">
        <ele>244.80</ele>
        <time>2014-02-23T10:55:49Z</time>
      </trkpt>
      <trkpt lat="41.616830020" lon="2.509483470">
        <ele>244.50</ele>
        <time>2014-02-23T10:55:50Z</time>
      </trkpt>
      <trkpt lat="41.616850140" lon="2.509510120">
        <ele>243.70</ele>
        <time>2014-02-23T10:55:51Z</time>
      </trkpt>
      <trkpt lat="41.616861700" lon="2.509545160">
        <ele>243.20</ele>
        <time>2014-02-23T10:55:52Z</time>
      </trkpt>
      <trkpt lat="41.616853490" lon="2.509578350">
        <ele>243.00</ele>
        <time>2014-02-23T10:55:53Z</time>
      </trkpt>
      <trkpt lat="41.616836730" lon="2.509611710">
        <ele>242.90</ele>
        <time>2014-02-23T10:55:54Z</time>
      </trkpt>
      <trkpt lat="41.616820130" lon="2.509648420">
        <ele>242.80</ele>
        <time>2014-02-23T10:55:55Z</time>
      </trkpt>
      <trkpt lat="41.616800010" lon="2.509685140">
        <ele>242.50</ele>
        <time>2014-02-23T10:55:56Z</time>
      </trkpt>
      <trkpt lat="41.616785090" lon="2.509725030">
        <ele>242.30</ele>
        <time>2014-02-23T10:55:57Z</time>
      </trkpt>
      <trkpt lat="41.616768330" lon="2.509771800">
        <ele>241.90</ele>
        <time>2014-02-23T10:55:58Z</time>
      </trkpt>
      <trkpt lat="41.616758440" lon="2.509823440">
        <ele>241.60</ele>
        <time>2014-02-23T10:55:59Z</time>
      </trkpt>
      <trkpt lat="41.616751730" lon="2.509881770">
        <ele>241.60</ele>
        <time>2014-02-23T10:56:00Z</time>
      </trkpt>
      <trkpt lat="41.616748380" lon="2.509941790">
        <ele>241.50</ele>
        <time>2014-02-23T10:56:01Z</time>
      </trkpt>
      <trkpt lat="41.616751730" lon="2.510005160">
        <ele>241.50</ele>
        <time>2014-02-23T10:56:02Z</time>
      </trkpt>
      <trkpt lat="41.616756760" lon="2.510076740">
        <ele>240.90</ele>
        <time>2014-02-23T10:56:03Z</time>
      </trkpt>
      <trkpt lat="41.616756760" lon="2.510155020">
        <ele>240.50</ele>
        <time>2014-02-23T10:56:04Z</time>
      </trkpt>
      <trkpt lat="41.616750060" lon="2.510236660">
        <ele>239.90</ele>
        <time>2014-02-23T10:56:05Z</time>
      </trkpt>
      <trkpt lat="41.616731780" lon="2.510313440">
        <ele>239.40</ele>
        <time>2014-02-23T10:56:06Z</time>
      </trkpt>
      <trkpt lat="41.616703450" lon="2.510386700">
        <ele>239.10</ele>
        <time>2014-02-23T10:56:07Z</time>
      </trkpt>
      <trkpt lat="41.616671770" lon="2.510453420">
        <ele>238.40</ele>
        <time>2014-02-23T10:56:08Z</time>
      </trkpt>
      <trkpt lat="41.616633380" lon="2.510516790">
        <ele>237.90</ele>
        <time>2014-02-23T10:56:09Z</time>
      </trkpt>
      <trkpt lat="41.616590130" lon="2.510571770">
        <ele>236.90</ele>
        <time>2014-02-23T10:56:10Z</time>
      </trkpt>
      <trkpt lat="41.616548390" lon="2.510628430">
        <ele>236.10</ele>
        <time>2014-02-23T10:56:11Z</time>
      </trkpt>
      <trkpt lat="41.616510000" lon="2.510686770">
        <ele>234.90</ele>
        <time>2014-02-23T10:56:12Z</time>
      </trkpt>
      <trkpt lat="41.616481670" lon="2.510753490">
        <ele>234.00</ele>
        <time>2014-02-23T10:56:13Z</time>
      </trkpt>
      <trkpt lat="41.616453340" lon="2.510823400">
        <ele>233.40</ele>
        <time>2014-02-23T10:56:14Z</time>
      </trkpt>
      <trkpt lat="41.616428360" lon="2.510896820">
        <ele>232.70</ele>
        <time>2014-02-23T10:56:15Z</time>
      </trkpt>
      <trkpt lat="41.616406730" lon="2.510973430">
        <ele>232.20</ele>
        <time>2014-02-23T10:56:16Z</time>
      </trkpt>
      <trkpt lat="41.616390140" lon="2.511041660">
        <ele>231.50</ele>
        <time>2014-02-23T10:56:17Z</time>
      </trkpt>
      <trkpt lat="41.616380080" lon="2.511098490">
        <ele>231.00</ele>
        <time>2014-02-23T10:56:18Z</time>
      </trkpt>
      <trkpt lat="41.616358450" lon="2.511158340">
        <ele>230.50</ele>
        <time>2014-02-23T10:56:19Z</time>
      </trkpt>
      <trkpt lat="41.616331800" lon="2.511226730">
        <ele>230.10</ele>
        <time>2014-02-23T10:56:20Z</time>
      </trkpt>
      <trkpt lat="41.616320060" lon="2.511283400">
        <ele>229.80</ele>
        <time>2014-02-23T10:56:21Z</time>
      </trkpt>
      <trkpt lat="41.616323420" lon="2.511325140">
        <ele>229.30</ele>
        <time>2014-02-23T10:56:22Z</time>
      </trkpt>
      <trkpt lat="41.616326770" lon="2.511358330">
        <ele>228.90</ele>
        <time>2014-02-23T10:56:23Z</time>
      </trkpt>
      <trkpt lat="41.616333480" lon="2.511395040">
        <ele>228.50</ele>
        <time>2014-02-23T10:56:24Z</time>
      </trkpt>
      <trkpt lat="41.616331800" lon="2.511436790">
        <ele>228.20</ele>
        <time>2014-02-23T10:56:25Z</time>
      </trkpt>
      <trkpt lat="41.616341690" lon="2.511486740">
        <ele>228.20</ele>
        <time>2014-02-23T10:56:26Z</time>
      </trkpt>
      <trkpt lat="41.616361810" lon="2.511538370">
        <ele>228.20</ele>
        <time>2014-02-23T10:56:27Z</time>
      </trkpt>
      <trkpt lat="41.616385110" lon="2.511595040">
        <ele>228.20</ele>
        <time>2014-02-23T10:56:28Z</time>
      </trkpt>
      <trkpt lat="41.616411760" lon="2.511651700">
        <ele>227.80</ele>
        <time>2014-02-23T10:56:29Z</time>
      </trkpt>
      <trkpt lat="41.616436740" lon="2.511711710">
        <ele>227.60</ele>
        <time>2014-02-23T10:56:30Z</time>
      </trkpt>
      <trkpt lat="41.616466750" lon="2.511771730">
        <ele>227.40</ele>
        <time>2014-02-23T10:56:31Z</time>
      </trkpt>
      <trkpt lat="41.616500110" lon="2.511831740">
        <ele>227.20</ele>
        <time>2014-02-23T10:56:32Z</time>
      </trkpt>
      <trkpt lat="41.616535140" lon="2.511890080">
        <ele>227.10</ele>
        <time>2014-02-23T10:56:33Z</time>
      </trkpt>
      <trkpt lat="41.616570010" lon="2.511951770">
        <ele>227.00</ele>
        <time>2014-02-23T10:56:34Z</time>
      </trkpt>
      <trkpt lat="41.616603370" lon="2.512016810">
        <ele>227.00</ele>
        <time>2014-02-23T10:56:35Z</time>
      </trkpt>
      <trkpt lat="41.616636730" lon="2.512085040">
        <ele>226.30</ele>
        <time>2014-02-23T10:56:36Z</time>
      </trkpt>
      <trkpt lat="41.616668420" lon="2.512156790">
        <ele>225.80</ele>
        <time>2014-02-23T10:56:37Z</time>
      </trkpt>
      <trkpt lat="41.616700100" lon="2.512228370">
        <ele>225.90</ele>
        <time>2014-02-23T10:56:38Z</time>
      </trkpt>
      <trkpt lat="41.616735140" lon="2.512298440">
        <ele>225.90</ele>
        <time>2014-02-23T10:56:39Z</time>
      </trkpt>
      <trkpt lat="41.616766820" lon="2.512373380">
        <ele>225.90</ele>
        <time>2014-02-23T10:56:40Z</time>
      </trkpt>
      <trkpt lat="41.616786770" lon="2.512450160">
        <ele>225.60</ele>
        <time>2014-02-23T10:56:41Z</time>
      </trkpt>
      <trkpt lat="41.616800010" lon="2.512528440">
        <ele>225.40</ele>
        <time>2014-02-23T10:56:42Z</time>
      </trkpt>
      <trkpt lat="41.616811750" lon="2.512608410">
        <ele>225.10</ele>
        <time>2014-02-23T10:56:43Z</time>
      </trkpt>
      <trkpt lat="41.616826670" lon="2.512688370">
        <ele>224.90</ele>
        <time>2014-02-23T10:56:44Z</time>
      </trkpt>
      <trkpt lat="41.616836730" lon="2.512766830">
        <ele>224.70</ele>
        <time>2014-02-23T10:56:45Z</time>
      </trkpt>
      <trkpt lat="41.616841750" lon="2.512845110">
        <ele>224.60</ele>
        <time>2014-02-23T10:56:46Z</time>
      </trkpt>
      <trkpt lat="41.616845110" lon="2.512925080">
        <ele>224.50</ele>
        <time>2014-02-23T10:56:47Z</time>
      </trkpt>
      <trkpt lat="41.616848460" lon="2.513006720">
        <ele>224.30</ele>
        <time>2014-02-23T10:56:48Z</time>
      </trkpt>
      <trkpt lat="41.616846780" lon="2.513090030">
        <ele>224.20</ele>
        <time>2014-02-23T10:56:49Z</time>
      </trkpt>
      <trkpt lat="41.616840080" lon="2.513173350">
        <ele>223.80</ele>
        <time>2014-02-23T10:56:50Z</time>
      </trkpt>
      <trkpt lat="41.616841750" lon="2.513258340">
        <ele>223.50</ele>
        <time>2014-02-23T10:56:51Z</time>
      </trkpt>
      <trkpt lat="41.616846780" lon="2.513343330">
        <ele>223.30</ele>
        <time>2014-02-23T10:56:52Z</time>
      </trkpt>
      <trkpt lat="41.616853490" lon="2.513428490">
        <ele>223.00</ele>
        <time>2014-02-23T10:56:53Z</time>
      </trkpt>
      <trkpt lat="41.616855000" lon="2.513515160">
        <ele>222.80</ele>
        <time>2014-02-23T10:56:54Z</time>
      </trkpt>
      <trkpt lat="41.616855000" lon="2.513601660">
        <ele>222.60</ele>
        <time>2014-02-23T10:56:55Z</time>
      </trkpt>
      <trkpt lat="41.616858350" lon="2.513686820">
        <ele>222.40</ele>
        <time>2014-02-23T10:56:56Z</time>
      </trkpt>
      <trkpt lat="41.616858350" lon="2.513775000">
        <ele>222.10</ele>
        <time>2014-02-23T10:56:57Z</time>
      </trkpt>
      <trkpt lat="41.616856670" lon="2.513863350">
        <ele>221.90</ele>
        <time>2014-02-23T10:56:58Z</time>
      </trkpt>
      <trkpt lat="41.616855000" lon="2.513951690">
        <ele>221.70</ele>
        <time>2014-02-23T10:56:59Z</time>
      </trkpt>
      <trkpt lat="41.616856670" lon="2.514040040">
        <ele>221.40</ele>
        <time>2014-02-23T10:57:00Z</time>
      </trkpt>
      <trkpt lat="41.616853490" lon="2.514126710">
        <ele>221.20</ele>
        <time>2014-02-23T10:57:01Z</time>
      </trkpt>
      <trkpt lat="41.616856670" lon="2.514215050">
        <ele>220.90</ele>
        <time>2014-02-23T10:57:02Z</time>
      </trkpt>
      <trkpt lat="41.616863380" lon="2.514303400">
        <ele>220.70</ele>
        <time>2014-02-23T10:57:03Z</time>
      </trkpt>
      <trkpt lat="41.616868410" lon="2.514391740">
        <ele>220.50</ele>
        <time>2014-02-23T10:57:04Z</time>
      </trkpt>
      <trkpt lat="41.616870090" lon="2.514478410">
        <ele>220.30</ele>
        <time>2014-02-23T10:57:05Z</time>
      </trkpt>
      <trkpt lat="41.616875110" lon="2.514558370">
        <ele>220.20</ele>
        <time>2014-02-23T10:57:06Z</time>
      </trkpt>
      <trkpt lat="41.616876790" lon="2.514641690">
        <ele>219.50</ele>
        <time>2014-02-23T10:57:07Z</time>
      </trkpt>
      <trkpt lat="41.616875110" lon="2.514725010">
        <ele>219.00</ele>
        <time>2014-02-23T10:57:08Z</time>
      </trkpt>
      <trkpt lat="41.616878470" lon="2.514806810">
        <ele>218.60</ele>
        <time>2014-02-23T10:57:09Z</time>
      </trkpt>
      <trkpt lat="41.616880140" lon="2.514891810">
        <ele>218.30</ele>
        <time>2014-02-23T10:57:10Z</time>
      </trkpt>
      <trkpt lat="41.616881820" lon="2.514978470">
        <ele>218.10</ele>
        <time>2014-02-23T10:57:11Z</time>
      </trkpt>
      <trkpt lat="41.616880140" lon="2.515065140">
        <ele>217.80</ele>
        <time>2014-02-23T10:57:12Z</time>
      </trkpt>
      <trkpt lat="41.616881820" lon="2.515151810">
        <ele>217.60</ele>
        <time>2014-02-23T10:57:13Z</time>
      </trkpt>
      <trkpt lat="41.616886680" lon="2.515235130">
        <ele>217.00</ele>
        <time>2014-02-23T10:57:14Z</time>
      </trkpt>
      <trkpt lat="41.616885010" lon="2.515313420">
        <ele>216.60</ele>
        <time>2014-02-23T10:57:15Z</time>
      </trkpt>
      <trkpt lat="41.616880140" lon="2.515390030">
        <ele>216.40</ele>
        <time>2014-02-23T10:57:16Z</time>
      </trkpt>
      <trkpt lat="41.616870090" lon="2.515466800">
        <ele>216.30</ele>
        <time>2014-02-23T10:57:17Z</time>
      </trkpt>
      <trkpt lat="41.616865060" lon="2.515543410">
        <ele>216.20</ele>
        <time>2014-02-23T10:57:18Z</time>
      </trkpt>
      <trkpt lat="41.616863380" lon="2.515615000">
        <ele>215.80</ele>
        <time>2014-02-23T10:57:19Z</time>
      </trkpt>
      <trkpt lat="41.616870090" lon="2.515681720">
        <ele>215.60</ele>
        <time>2014-02-23T10:57:20Z</time>
      </trkpt>
      <trkpt lat="41.616868410" lon="2.515746760">
        <ele>215.30</ele>
        <time>2014-02-23T10:57:21Z</time>
      </trkpt>
      <trkpt lat="41.616866730" lon="2.515813480">
        <ele>215.10</ele>
        <time>2014-02-23T10:57:22Z</time>
      </trkpt>
      <trkpt lat="41.616863380" lon="2.515883380">
        <ele>214.70</ele>
        <time>2014-02-23T10:57:23Z</time>
      </trkpt>
      <trkpt lat="41.616856670" lon="2.515950100">
        <ele>214.40</ele>
        <time>2014-02-23T10:57:24Z</time>
      </trkpt>
      <trkpt lat="41.616853490" lon="2.516021690">
        <ele>214.10</ele>
        <time>2014-02-23T10:57:25Z</time>
      </trkpt>
      <trkpt lat="41.616848460" lon="2.516098460">
        <ele>213.90</ele>
        <time>2014-02-23T10:57:26Z</time>
      </trkpt>
      <trkpt lat="41.616848460" lon="2.516175080">
        <ele>213.70</ele>
        <time>2014-02-23T10:57:27Z</time>
      </trkpt>
      <trkpt lat="41.616848460" lon="2.516253360">
        <ele>213.30</ele>
        <time>2014-02-23T10:57:28Z</time>
      </trkpt>
      <trkpt lat="41.616845110" lon="2.516331820">
        <ele>212.90</ele>
        <time>2014-02-23T10:57:29Z</time>
      </trkpt>
      <trkpt lat="41.616846780" lon="2.516403400">
        <ele>212.70</ele>
        <time>2014-02-23T10:57:30Z</time>
      </trkpt>
      <trkpt lat="41.616853490" lon="2.516476820">
        <ele>212.10</ele>
        <time>2014-02-23T10:57:31Z</time>
      </trkpt>
      <trkpt lat="41.616855000" lon="2.516555110">
        <ele>211.70</ele>
        <time>2014-02-23T10:57:32Z</time>
      </trkpt>
      <trkpt lat="41.616855000" lon="2.516630040">
        <ele>211.50</ele>
        <time>2014-02-23T10:57:33Z</time>
      </trkpt>
      <trkpt lat="41.616855000" lon="2.516705150">
        <ele>211.40</ele>
        <time>2014-02-23T10:57:34Z</time>
      </trkpt>
      <trkpt lat="41.616853490" lon="2.516783430">
        <ele>211.00</ele>
        <time>2014-02-23T10:57:35Z</time>
      </trkpt>
      <trkpt lat="41.616846780" lon="2.516871780">
        <ele>210.70</ele>
        <time>2014-02-23T10:57:36Z</time>
      </trkpt>
      <trkpt lat="41.616838400" lon="2.516956770">
        <ele>210.50</ele>
        <time>2014-02-23T10:57:37Z</time>
      </trkpt>
      <trkpt lat="41.616833370" lon="2.517043440">
        <ele>210.50</ele>
        <time>2014-02-23T10:57:38Z</time>
      </trkpt>
      <trkpt lat="41.616826670" lon="2.517123400">
        <ele>210.40</ele>
        <time>2014-02-23T10:57:39Z</time>
      </trkpt>
      <trkpt lat="41.616816780" lon="2.517201690">
        <ele>210.00</ele>
        <time>2014-02-23T10:57:40Z</time>
      </trkpt>
      <trkpt lat="41.616808390" lon="2.517281820">
        <ele>209.70</ele>
        <time>2014-02-23T10:57:41Z</time>
      </trkpt>
      <trkpt lat="41.616803370" lon="2.517365140">
        <ele>209.60</ele>
        <time>2014-02-23T10:57:42Z</time>
      </trkpt>
      <trkpt lat="41.616796830" lon="2.517443420">
        <ele>209.60</ele>
        <time>2014-02-23T10:57:43Z</time>
      </trkpt>
      <trkpt lat="41.616790120" lon="2.517525060">
        <ele>209.50</ele>
        <time>2014-02-23T10:57:44Z</time>
      </trkpt>
      <trkpt lat="41.616788450" lon="2.517608380">
        <ele>209.00</ele>
        <time>2014-02-23T10:57:45Z</time>
      </trkpt>
      <trkpt lat="41.616781740" lon="2.517681810">
        <ele>208.70</ele>
        <time>2014-02-23T10:57:46Z</time>
      </trkpt>
      <trkpt lat="41.616773360" lon="2.517756740">
        <ele>208.10</ele>
        <time>2014-02-23T10:57:47Z</time>
      </trkpt>
      <trkpt lat="41.616756760" lon="2.517840060">
        <ele>207.60</ele>
        <time>2014-02-23T10:57:48Z</time>
      </trkpt>
      <trkpt lat="41.616743350" lon="2.517925050">
        <ele>207.30</ele>
        <time>2014-02-23T10:57:49Z</time>
      </trkpt>
      <trkpt lat="41.616721730" lon="2.518008360">
        <ele>207.00</ele>
        <time>2014-02-23T10:57:50Z</time>
      </trkpt>
      <trkpt lat="41.616711670" lon="2.518095030">
        <ele>206.80</ele>
        <time>2014-02-23T10:57:51Z</time>
      </trkpt>
      <trkpt lat="41.616696750" lon="2.518178350">
        <ele>206.50</ele>
        <time>2014-02-23T10:57:52Z</time>
      </trkpt>
      <trkpt lat="41.616686690" lon="2.518265020">
        <ele>206.30</ele>
        <time>2014-02-23T10:57:53Z</time>
      </trkpt>
      <trkpt lat="41.616673450" lon="2.518346830">
        <ele>205.50</ele>
        <time>2014-02-23T10:57:54Z</time>
      </trkpt>
      <trkpt lat="41.616651820" lon="2.518425110">
        <ele>204.90</ele>
        <time>2014-02-23T10:57:55Z</time>
      </trkpt>
      <trkpt lat="41.616628350" lon="2.518493340">
        <ele>204.50</ele>
        <time>2014-02-23T10:57:56Z</time>
      </trkpt>
      <trkpt lat="41.616606730" lon="2.518548490">
        <ele>204.30</ele>
        <time>2014-02-23T10:57:57Z</time>
      </trkpt>
      <trkpt lat="41.616588450" lon="2.518598450">
        <ele>204.20</ele>
        <time>2014-02-23T10:57:58Z</time>
      </trkpt>
      <trkpt lat="41.616568340" lon="2.518650080">
        <ele>204.50</ele>
        <time>2014-02-23T10:57:59Z</time>
      </trkpt>
      <trkpt lat="41.616551740" lon="2.518708420">
        <ele>204.70</ele>
        <time>2014-02-23T10:58:00Z</time>
      </trkpt>
      <trkpt lat="41.616543360" lon="2.518768440">
        <ele>204.90</ele>
        <time>2014-02-23T10:58:01Z</time>
      </trkpt>
      <trkpt lat="41.616535140" lon="2.518830130">
        <ele>205.00</ele>
        <time>2014-02-23T10:58:02Z</time>
      </trkpt>
      <trkpt lat="41.616528440" lon="2.518893490">
        <ele>205.10</ele>
        <time>2014-02-23T10:58:03Z</time>
      </trkpt>
      <trkpt lat="41.616521730" lon="2.518951660">
        <ele>205.00</ele>
        <time>2014-02-23T10:58:04Z</time>
      </trkpt>
      <trkpt lat="41.616516700" lon="2.519011680">
        <ele>205.00</ele>
        <time>2014-02-23T10:58:05Z</time>
      </trkpt>
      <trkpt lat="41.616510000" lon="2.519071690">
        <ele>204.60</ele>
        <time>2014-02-23T10:58:06Z</time>
      </trkpt>
      <trkpt lat="41.616503460" lon="2.519131710">
        <ele>204.30</ele>
        <time>2014-02-23T10:58:07Z</time>
      </trkpt>
      <trkpt lat="41.616493400" lon="2.519200100">
        <ele>204.00</ele>
        <time>2014-02-23T10:58:08Z</time>
      </trkpt>
      <trkpt lat="41.616485020" lon="2.519266820">
        <ele>204.10</ele>
        <time>2014-02-23T10:58:09Z</time>
      </trkpt>
      <trkpt lat="41.616478480" lon="2.519333380">
        <ele>204.20</ele>
        <time>2014-02-23T10:58:10Z</time>
      </trkpt>
      <trkpt lat="41.616461720" lon="2.519393390">
        <ele>203.70</ele>
        <time>2014-02-23T10:58:11Z</time>
      </trkpt>
      <trkpt lat="41.616445120" lon="2.519455080">
        <ele>203.40</ele>
        <time>2014-02-23T10:58:12Z</time>
      </trkpt>
      <trkpt lat="41.616440090" lon="2.519516770">
        <ele>203.20</ele>
        <time>2014-02-23T10:58:13Z</time>
      </trkpt>
      <trkpt lat="41.616430040" lon="2.519573430">
        <ele>203.10</ele>
        <time>2014-02-23T10:58:14Z</time>
      </trkpt>
      <trkpt lat="41.616416790" lon="2.519628420">
        <ele>203.00</ele>
        <time>2014-02-23T10:58:15Z</time>
      </trkpt>
      <trkpt lat="41.616403380" lon="2.519685080">
        <ele>203.10</ele>
        <time>2014-02-23T10:58:16Z</time>
      </trkpt>
      <trkpt lat="41.616390140" lon="2.519740070">
        <ele>203.10</ele>
        <time>2014-02-23T10:58:17Z</time>
      </trkpt>
      <trkpt lat="41.616376730" lon="2.519796730">
        <ele>202.60</ele>
        <time>2014-02-23T10:58:18Z</time>
      </trkpt>
      <trkpt lat="41.616365160" lon="2.519856740">
        <ele>202.20</ele>
        <time>2014-02-23T10:58:19Z</time>
      </trkpt>
      <trkpt lat="41.616345040" lon="2.519920110">
        <ele>201.90</ele>
        <time>2014-02-23T10:58:20Z</time>
      </trkpt>
      <trkpt lat="41.616318390" lon="2.519988340">
        <ele>201.70</ele>
        <time>2014-02-23T10:58:21Z</time>
      </trkpt>
      <trkpt lat="41.616293410" lon="2.520056730">
        <ele>201.50</ele>
        <time>2014-02-23T10:58:22Z</time>
      </trkpt>
      <trkpt lat="41.616270110" lon="2.520121780">
        <ele>201.50</ele>
        <time>2014-02-23T10:58:23Z</time>
      </trkpt>
      <trkpt lat="41.616248480" lon="2.520186820">
        <ele>201.50</ele>
        <time>2014-02-23T10:58:24Z</time>
      </trkpt>
      <trkpt lat="41.616226690" lon="2.520250020">
        <ele>201.10</ele>
        <time>2014-02-23T10:58:25Z</time>
      </trkpt>
      <trkpt lat="41.616210090" lon="2.520315060">
        <ele>200.90</ele>
        <time>2014-02-23T10:58:26Z</time>
      </trkpt>
      <trkpt lat="41.616200040" lon="2.520376760">
        <ele>200.60</ele>
        <time>2014-02-23T10:58:27Z</time>
      </trkpt>
      <trkpt lat="41.616186790" lon="2.520445150">
        <ele>200.40</ele>
        <time>2014-02-23T10:58:28Z</time>
      </trkpt>
      <trkpt lat="41.616173380" lon="2.520505000">
        <ele>200.20</ele>
        <time>2014-02-23T10:58:29Z</time>
      </trkpt>
      <trkpt lat="41.616160140" lon="2.520568370">
        <ele>199.90</ele>
        <time>2014-02-23T10:58:30Z</time>
      </trkpt>
      <trkpt lat="41.616148400" lon="2.520628380">
        <ele>199.70</ele>
        <time>2014-02-23T10:58:31Z</time>
      </trkpt>
      <trkpt lat="41.616133480" lon="2.520691750">
        <ele>199.50</ele>
        <time>2014-02-23T10:58:32Z</time>
      </trkpt>
      <trkpt lat="41.616118400" lon="2.520756790">
        <ele>199.30</ele>
        <time>2014-02-23T10:58:33Z</time>
      </trkpt>
      <trkpt lat="41.616100120" lon="2.520820160">
        <ele>199.20</ele>
        <time>2014-02-23T10:58:34Z</time>
      </trkpt>
      <trkpt lat="41.616090070" lon="2.520886710">
        <ele>199.10</ele>
        <time>2014-02-23T10:58:35Z</time>
      </trkpt>
      <trkpt lat="41.616078330" lon="2.520951750">
        <ele>199.00</ele>
        <time>2014-02-23T10:58:36Z</time>
      </trkpt>
      <trkpt lat="41.616065090" lon="2.521013440">
        <ele>198.90</ele>
        <time>2014-02-23T10:58:37Z</time>
      </trkpt>
      <trkpt lat="41.616053350" lon="2.521075140">
        <ele>198.80</ele>
        <time>2014-02-23T10:58:38Z</time>
      </trkpt>
      <trkpt lat="41.616031730" lon="2.521138340">
        <ele>198.30</ele>
        <time>2014-02-23T10:58:39Z</time>
      </trkpt>
      <trkpt lat="41.616020160" lon="2.521205060">
        <ele>198.00</ele>
        <time>2014-02-23T10:58:40Z</time>
      </trkpt>
      <trkpt lat="41.616008430" lon="2.521280160">
        <ele>197.80</ele>
        <time>2014-02-23T10:58:41Z</time>
      </trkpt>
      <trkpt lat="41.615998370" lon="2.521353410">
        <ele>197.90</ele>
        <time>2014-02-23T10:58:42Z</time>
      </trkpt>
      <trkpt lat="41.615995010" lon="2.521420130">
        <ele>198.00</ele>
        <time>2014-02-23T10:58:43Z</time>
      </trkpt>
      <trkpt lat="41.615991660" lon="2.521481830">
        <ele>197.80</ele>
        <time>2014-02-23T10:58:44Z</time>
      </trkpt>
      <trkpt lat="41.615988480" lon="2.521540000">
        <ele>197.70</ele>
        <time>2014-02-23T10:58:45Z</time>
      </trkpt>
      <trkpt lat="41.615986800" lon="2.521595150">
        <ele>197.80</ele>
        <time>2014-02-23T10:58:46Z</time>
      </trkpt>
      <trkpt lat="41.615981770" lon="2.521650130">
        <ele>197.80</ele>
        <time>2014-02-23T10:58:47Z</time>
      </trkpt>
      <trkpt lat="41.615973390" lon="2.521706800">
        <ele>197.90</ele>
        <time>2014-02-23T10:58:48Z</time>
      </trkpt>
      <trkpt lat="41.615963330" lon="2.521766810">
        <ele>197.60</ele>
        <time>2014-02-23T10:58:49Z</time>
      </trkpt>
      <trkpt lat="41.615951760" lon="2.521833360">
        <ele>197.30</ele>
        <time>2014-02-23T10:58:50Z</time>
      </trkpt>
      <trkpt lat="41.615940030" lon="2.521900080">
        <ele>197.00</ele>
        <time>2014-02-23T10:58:51Z</time>
      </trkpt>
      <trkpt lat="41.615925110" lon="2.521970160">
        <ele>196.70</ele>
        <time>2014-02-23T10:58:52Z</time>
      </trkpt>
      <trkpt lat="41.615903480" lon="2.522041740">
        <ele>196.50</ele>
        <time>2014-02-23T10:58:53Z</time>
      </trkpt>
      <trkpt lat="41.615866770" lon="2.522115160">
        <ele>196.20</ele>
        <time>2014-02-23T10:58:54Z</time>
      </trkpt>
      <trkpt lat="41.615843470" lon="2.522195130">
        <ele>195.90</ele>
        <time>2014-02-23T10:58:55Z</time>
      </trkpt>
      <trkpt lat="41.615830060" lon="2.522280120">
        <ele>195.50</ele>
        <time>2014-02-23T10:58:56Z</time>
      </trkpt>
      <trkpt lat="41.615806760" lon="2.522358410">
        <ele>195.30</ele>
        <time>2014-02-23T10:58:57Z</time>
      </trkpt>
      <trkpt lat="41.615783460" lon="2.522438370">
        <ele>195.60</ele>
        <time>2014-02-23T10:58:58Z</time>
      </trkpt>
      <trkpt lat="41.615751770" lon="2.522516820">
        <ele>195.80</ele>
        <time>2014-02-23T10:58:59Z</time>
      </trkpt>
      <trkpt lat="41.615733330" lon="2.522598460">
        <ele>196.00</ele>
        <time>2014-02-23T10:59:00Z</time>
      </trkpt>
      <trkpt lat="41.615711710" lon="2.522681780">
        <ele>195.80</ele>
        <time>2014-02-23T10:59:01Z</time>
      </trkpt>
      <trkpt lat="41.615695110" lon="2.522766770">
        <ele>195.70</ele>
        <time>2014-02-23T10:59:02Z</time>
      </trkpt>
      <trkpt lat="41.615678350" lon="2.522855120">
        <ele>195.30</ele>
        <time>2014-02-23T10:59:03Z</time>
      </trkpt>
      <trkpt lat="41.615665100" lon="2.522945140">
        <ele>195.00</ele>
        <time>2014-02-23T10:59:04Z</time>
      </trkpt>
      <trkpt lat="41.615648340" lon="2.523035160">
        <ele>194.80</ele>
        <time>2014-02-23T10:59:05Z</time>
      </trkpt>
      <trkpt lat="41.615630070" lon="2.523125010">
        <ele>194.30</ele>
        <time>2014-02-23T10:59:06Z</time>
      </trkpt>
      <trkpt lat="41.615623360" lon="2.523218390">
        <ele>193.90</ele>
        <time>2014-02-23T10:59:07Z</time>
      </trkpt>
      <trkpt lat="41.615625040" lon="2.523310090">
        <ele>193.40</ele>
        <time>2014-02-23T10:59:08Z</time>
      </trkpt>
      <trkpt lat="41.615631740" lon="2.523391730">
        <ele>193.10</ele>
        <time>2014-02-23T10:59:09Z</time>
      </trkpt>
      <trkpt lat="41.615630070" lon="2.523471690">
        <ele>192.90</ele>
        <time>2014-02-23T10:59:10Z</time>
      </trkpt>
      <trkpt lat="41.615635100" lon="2.523553330">
        <ele>192.70</ele>
        <time>2014-02-23T10:59:11Z</time>
      </trkpt>
      <trkpt lat="41.615635100" lon="2.523633460">
        <ele>192.60</ele>
        <time>2014-02-23T10:59:12Z</time>
      </trkpt>
      <trkpt lat="41.615636770" lon="2.523721810">
        <ele>192.10</ele>
        <time>2014-02-23T10:59:13Z</time>
      </trkpt>
      <trkpt lat="41.615631740" lon="2.523815010">
        <ele>191.80</ele>
        <time>2014-02-23T10:59:14Z</time>
      </trkpt>
      <trkpt lat="41.615625040" lon="2.523913420">
        <ele>191.20</ele>
        <time>2014-02-23T10:59:15Z</time>
      </trkpt>
      <trkpt lat="41.615615150" lon="2.524001760">
        <ele>190.70</ele>
        <time>2014-02-23T10:59:16Z</time>
      </trkpt>
      <trkpt lat="41.615610120" lon="2.524091780">
        <ele>189.70</ele>
        <time>2014-02-23T10:59:17Z</time>
      </trkpt>
      <trkpt lat="41.615605090" lon="2.524190020">
        <ele>188.90</ele>
        <time>2014-02-23T10:59:18Z</time>
      </trkpt>
      <trkpt lat="41.615603410" lon="2.524288420">
        <ele>188.40</ele>
        <time>2014-02-23T10:59:19Z</time>
      </trkpt>
      <trkpt lat="41.615598380" lon="2.524388330">
        <ele>188.30</ele>
        <time>2014-02-23T10:59:20Z</time>
      </trkpt>
      <trkpt lat="41.615590000" lon="2.524485060">
        <ele>188.20</ele>
        <time>2014-02-23T10:59:21Z</time>
      </trkpt>
      <trkpt lat="41.615581790" lon="2.524588490">
        <ele>187.70</ele>
        <time>2014-02-23T10:59:22Z</time>
      </trkpt>
      <trkpt lat="41.615575080" lon="2.524691760">
        <ele>187.20</ele>
        <time>2014-02-23T10:59:23Z</time>
      </trkpt>
      <trkpt lat="41.615566700" lon="2.524793350">
        <ele>186.90</ele>
        <time>2014-02-23T10:59:24Z</time>
      </trkpt>
      <trkpt lat="41.615556810" lon="2.524888400">
        <ele>186.70</ele>
        <time>2014-02-23T10:59:25Z</time>
      </trkpt>
      <trkpt lat="41.615548430" lon="2.524990160">
        <ele>186.60</ele>
        <time>2014-02-23T10:59:26Z</time>
      </trkpt>
      <trkpt lat="41.615540040" lon="2.525093420">
        <ele>186.60</ele>
        <time>2014-02-23T10:59:27Z</time>
      </trkpt>
      <trkpt lat="41.615536690" lon="2.525191820">
        <ele>186.60</ele>
        <time>2014-02-23T10:59:28Z</time>
      </trkpt>
      <trkpt lat="41.615533340" lon="2.525280000">
        <ele>185.90</ele>
        <time>2014-02-23T10:59:29Z</time>
      </trkpt>
      <trkpt lat="41.615516740" lon="2.525373380">
        <ele>185.30</ele>
        <time>2014-02-23T10:59:30Z</time>
      </trkpt>
      <trkpt lat="41.615498470" lon="2.525463400">
        <ele>184.90</ele>
        <time>2014-02-23T10:59:31Z</time>
      </trkpt>
      <trkpt lat="41.615490090" lon="2.525560120">
        <ele>184.50</ele>
        <time>2014-02-23T10:59:32Z</time>
      </trkpt>
      <trkpt lat="41.615485060" lon="2.525658360">
        <ele>184.30</ele>
        <time>2014-02-23T10:59:33Z</time>
      </trkpt>
      <trkpt lat="41.615488410" lon="2.525758440">
        <ele>184.00</ele>
        <time>2014-02-23T10:59:34Z</time>
      </trkpt>
      <trkpt lat="41.615493440" lon="2.525860030">
        <ele>183.80</ele>
        <time>2014-02-23T10:59:35Z</time>
      </trkpt>
      <trkpt lat="41.615506680" lon="2.525956760">
        <ele>183.40</ele>
        <time>2014-02-23T10:59:36Z</time>
      </trkpt>
      <trkpt lat="41.615513390" lon="2.526056670">
        <ele>183.00</ele>
        <time>2014-02-23T10:59:37Z</time>
      </trkpt>
      <trkpt lat="41.615530150" lon="2.526153400">
        <ele>182.70</ele>
        <time>2014-02-23T10:59:38Z</time>
      </trkpt>
      <trkpt lat="41.615545070" lon="2.526251800">
        <ele>182.70</ele>
        <time>2014-02-23T10:59:39Z</time>
      </trkpt>
      <trkpt lat="41.615558490" lon="2.526351710">
        <ele>182.80</ele>
        <time>2014-02-23T10:59:40Z</time>
      </trkpt>
      <trkpt lat="41.615561670" lon="2.526450110">
        <ele>182.50</ele>
        <time>2014-02-23T10:59:41Z</time>
      </trkpt>
      <trkpt lat="41.615568380" lon="2.526550030">
        <ele>182.30</ele>
        <time>2014-02-23T10:59:42Z</time>
      </trkpt>
      <trkpt lat="41.615561670" lon="2.526641730">
        <ele>181.50</ele>
        <time>2014-02-23T10:59:43Z</time>
      </trkpt>
      <trkpt lat="41.615555130" lon="2.526735100">
        <ele>180.80</ele>
        <time>2014-02-23T10:59:44Z</time>
      </trkpt>
      <trkpt lat="41.615548430" lon="2.526823440">
        <ele>180.30</ele>
        <time>2014-02-23T10:59:45Z</time>
      </trkpt>
      <trkpt lat="41.615541720" lon="2.526906760">
        <ele>180.00</ele>
        <time>2014-02-23T10:59:46Z</time>
      </trkpt>
      <trkpt lat="41.615531660" lon="2.526990080">
        <ele>179.70</ele>
        <time>2014-02-23T10:59:47Z</time>
      </trkpt>
      <trkpt lat="41.615518420" lon="2.527078420">
        <ele>179.20</ele>
        <time>2014-02-23T10:59:48Z</time>
      </trkpt>
      <trkpt lat="41.615508360" lon="2.527165090">
        <ele>178.70</ele>
        <time>2014-02-23T10:59:49Z</time>
      </trkpt>
      <trkpt lat="41.615498470" lon="2.527253440">
        <ele>178.40</ele>
        <time>2014-02-23T10:59:50Z</time>
      </trkpt>
      <trkpt lat="41.615488410" lon="2.527345130">
        <ele>178.50</ele>
        <time>2014-02-23T10:59:51Z</time>
      </trkpt>
      <trkpt lat="41.615478350" lon="2.527433480">
        <ele>178.50</ele>
        <time>2014-02-23T10:59:52Z</time>
      </trkpt>
      <trkpt lat="41.615463430" lon="2.527526690">
        <ele>178.30</ele>
        <time>2014-02-23T10:59:53Z</time>
      </trkpt>
      <trkpt lat="41.615448350" lon="2.527621740">
        <ele>178.10</ele>
        <time>2014-02-23T10:59:54Z</time>
      </trkpt>
      <trkpt lat="41.615430070" lon="2.527716790">
        <ele>177.90</ele>
        <time>2014-02-23T10:59:55Z</time>
      </trkpt>
      <trkpt lat="41.615411800" lon="2.527810160">
        <ele>177.70</ele>
        <time>2014-02-23T10:59:56Z</time>
      </trkpt>
      <trkpt lat="41.615395040" lon="2.527898340">
        <ele>177.50</ele>
        <time>2014-02-23T10:59:57Z</time>
      </trkpt>
      <trkpt lat="41.615380120" lon="2.527983330">
        <ele>177.00</ele>
        <time>2014-02-23T10:59:58Z</time>
      </trkpt>
      <trkpt lat="41.615363350" lon="2.528066820">
        <ele>176.60</ele>
        <time>2014-02-23T10:59:59Z</time>
      </trkpt>
      <trkpt lat="41.615340050" lon="2.528145100">
        <ele>176.10</ele>
        <time>2014-02-23T11:00:00Z</time>
      </trkpt>
      <trkpt lat="41.615318430" lon="2.528216680">
        <ele>175.80</ele>
        <time>2014-02-23T11:00:01Z</time>
      </trkpt>
      <trkpt lat="41.615300150" lon="2.528295140">
        <ele>175.40</ele>
        <time>2014-02-23T11:00:02Z</time>
      </trkpt>
      <trkpt lat="41.615286740" lon="2.528371750">
        <ele>175.20</ele>
        <time>2014-02-23T11:00:03Z</time>
      </trkpt>
      <trkpt lat="41.615271820" lon="2.528450040">
        <ele>175.00</ele>
        <time>2014-02-23T11:00:04Z</time>
      </trkpt>
      <trkpt lat="41.615258410" lon="2.528528490">
        <ele>174.60</ele>
        <time>2014-02-23T11:00:05Z</time>
      </trkpt>
      <trkpt lat="41.615246680" lon="2.528601750">
        <ele>174.30</ele>
        <time>2014-02-23T11:00:06Z</time>
      </trkpt>
      <trkpt lat="41.615235110" lon="2.528676680">
        <ele>173.60</ele>
        <time>2014-02-23T11:00:07Z</time>
      </trkpt>
      <trkpt lat="41.615223380" lon="2.528751790">
        <ele>173.10</ele>
        <time>2014-02-23T11:00:08Z</time>
      </trkpt>
      <trkpt lat="41.615213490" lon="2.528826720">
        <ele>172.70</ele>
        <time>2014-02-23T11:00:09Z</time>
      </trkpt>
      <trkpt lat="41.615205100" lon="2.528896790">
        <ele>172.60</ele>
        <time>2014-02-23T11:00:10Z</time>
      </trkpt>
      <trkpt lat="41.615200070" lon="2.528966700">
        <ele>172.60</ele>
        <time>2014-02-23T11:00:11Z</time>
      </trkpt>
      <trkpt lat="41.615191690" lon="2.529033420">
        <ele>172.60</ele>
        <time>2014-02-23T11:00:12Z</time>
      </trkpt>
      <trkpt lat="41.615191690" lon="2.529110030">
        <ele>172.60</ele>
        <time>2014-02-23T11:00:13Z</time>
      </trkpt>
      <trkpt lat="41.615188340" lon="2.529190160">
        <ele>172.50</ele>
        <time>2014-02-23T11:00:14Z</time>
      </trkpt>
      <trkpt lat="41.615183480" lon="2.529271800">
        <ele>172.30</ele>
        <time>2014-02-23T11:00:15Z</time>
      </trkpt>
      <trkpt lat="41.615183480" lon="2.529351760">
        <ele>172.20</ele>
        <time>2014-02-23T11:00:16Z</time>
      </trkpt>
      <trkpt lat="41.615180130" lon="2.529428370">
        <ele>172.00</ele>
        <time>2014-02-23T11:00:17Z</time>
      </trkpt>
      <trkpt lat="41.615175100" lon="2.529503470">
        <ele>171.80</ele>
        <time>2014-02-23T11:00:18Z</time>
      </trkpt>
      <trkpt lat="41.615173420" lon="2.529573380">
        <ele>171.50</ele>
        <time>2014-02-23T11:00:19Z</time>
      </trkpt>
      <trkpt lat="41.615176770" lon="2.529646810">
        <ele>171.20</ele>
        <time>2014-02-23T11:00:20Z</time>
      </trkpt>
      <trkpt lat="41.615178450" lon="2.529721740">
        <ele>170.80</ele>
        <time>2014-02-23T11:00:21Z</time>
      </trkpt>
      <trkpt lat="41.615173420" lon="2.529798350">
        <ele>170.50</ele>
        <time>2014-02-23T11:00:22Z</time>
      </trkpt>
      <trkpt lat="41.615170070" lon="2.529875130">
        <ele>170.20</ele>
        <time>2014-02-23T11:00:23Z</time>
      </trkpt>
      <trkpt lat="41.615166720" lon="2.529951740">
        <ele>169.90</ele>
        <time>2014-02-23T11:00:24Z</time>
      </trkpt>
      <trkpt lat="41.615163360" lon="2.530028350">
        <ele>169.70</ele>
        <time>2014-02-23T11:00:25Z</time>
      </trkpt>
      <trkpt lat="41.615163360" lon="2.530103450">
        <ele>169.60</ele>
        <time>2014-02-23T11:00:26Z</time>
      </trkpt>
      <trkpt lat="41.615161690" lon="2.530183410">
        <ele>169.50</ele>
        <time>2014-02-23T11:00:27Z</time>
      </trkpt>
      <trkpt lat="41.615160010" lon="2.530268410">
        <ele>169.50</ele>
        <time>2014-02-23T11:00:28Z</time>
      </trkpt>
      <trkpt lat="41.615155150" lon="2.530353400">
        <ele>169.50</ele>
        <time>2014-02-23T11:00:29Z</time>
      </trkpt>
      <trkpt lat="41.615150120" lon="2.530440070">
        <ele>169.40</ele>
        <time>2014-02-23T11:00:30Z</time>
      </trkpt>
      <trkpt lat="41.615141740" lon="2.530526740">
        <ele>168.90</ele>
        <time>2014-02-23T11:00:31Z</time>
      </trkpt>
      <trkpt lat="41.615133360" lon="2.530610050">
        <ele>168.50</ele>
        <time>2014-02-23T11:00:32Z</time>
      </trkpt>
      <trkpt lat="41.615126820" lon="2.530690020">
        <ele>167.70</ele>
        <time>2014-02-23T11:00:33Z</time>
      </trkpt>
      <trkpt lat="41.615121790" lon="2.530770150">
        <ele>167.10</ele>
        <time>2014-02-23T11:00:34Z</time>
      </trkpt>
      <trkpt lat="41.615113410" lon="2.530845080">
        <ele>166.70</ele>
        <time>2014-02-23T11:00:35Z</time>
      </trkpt>
      <trkpt lat="41.615106700" lon="2.530916660">
        <ele>166.90</ele>
        <time>2014-02-23T11:00:36Z</time>
      </trkpt>
      <trkpt lat="41.615103350" lon="2.530981710">
        <ele>167.00</ele>
        <time>2014-02-23T11:00:37Z</time>
      </trkpt>
      <trkpt lat="41.615100000" lon="2.531045070">
        <ele>166.90</ele>
        <time>2014-02-23T11:00:38Z</time>
      </trkpt>
      <trkpt lat="41.615096810" lon="2.531108440">
        <ele>166.90</ele>
        <time>2014-02-23T11:00:39Z</time>
      </trkpt>
      <trkpt lat="41.615093460" lon="2.531170130">
        <ele>167.00</ele>
        <time>2014-02-23T11:00:40Z</time>
      </trkpt>
      <trkpt lat="41.615091780" lon="2.531228470">
        <ele>167.00</ele>
        <time>2014-02-23T11:00:41Z</time>
      </trkpt>
      <trkpt lat="41.615093460" lon="2.531290160">
        <ele>167.00</ele>
        <time>2014-02-23T11:00:42Z</time>
      </trkpt>
      <trkpt lat="41.615101670" lon="2.531348330">
        <ele>166.70</ele>
        <time>2014-02-23T11:00:43Z</time>
      </trkpt>
      <trkpt lat="41.615116760" lon="2.531405160">
        <ele>166.40</ele>
        <time>2014-02-23T11:00:44Z</time>
      </trkpt>
      <trkpt lat="41.615135030" lon="2.531456790">
        <ele>165.90</ele>
        <time>2014-02-23T11:00:45Z</time>
      </trkpt>
      <trkpt lat="41.615153470" lon="2.531503400">
        <ele>165.60</ele>
        <time>2014-02-23T11:00:46Z</time>
      </trkpt>
      <trkpt lat="41.615171740" lon="2.531556710">
        <ele>165.20</ele>
        <time>2014-02-23T11:00:47Z</time>
      </trkpt>
      <trkpt lat="41.615186660" lon="2.531615040">
        <ele>165.00</ele>
        <time>2014-02-23T11:00:48Z</time>
      </trkpt>
      <trkpt lat="41.615195050" lon="2.531676730">
        <ele>164.80</ele>
        <time>2014-02-23T11:00:49Z</time>
      </trkpt>
      <trkpt lat="41.615201750" lon="2.531735070">
        <ele>164.50</ele>
        <time>2014-02-23T11:00:50Z</time>
      </trkpt>
      <trkpt lat="41.615201750" lon="2.531793410">
        <ele>164.40</ele>
        <time>2014-02-23T11:00:51Z</time>
      </trkpt>
      <trkpt lat="41.615198400" lon="2.531848400">
        <ele>164.00</ele>
        <time>2014-02-23T11:00:52Z</time>
      </trkpt>
      <trkpt lat="41.615195050" lon="2.531893490">
        <ele>163.80</ele>
        <time>2014-02-23T11:00:53Z</time>
      </trkpt>
      <trkpt lat="41.615190020" lon="2.531926680">
        <ele>163.40</ele>
        <time>2014-02-23T11:00:54Z</time>
      </trkpt>
      <trkpt lat="41.615186660" lon="2.531948480">
        <ele>163.10</ele>
        <time>2014-02-23T11:00:55Z</time>
      </trkpt>
      <trkpt lat="41.615185160" lon="2.531961720">
        <ele>162.90</ele>
        <time>2014-02-23T11:00:56Z</time>
      </trkpt>
      <trkpt lat="41.615185160" lon="2.531966750">
        <ele>162.50</ele>
        <time>2014-02-23T11:00:57Z</time>
      </trkpt>
      <trkpt lat="41.615185160" lon="2.531970100">
        <ele>162.10</ele>
        <time>2014-02-23T11:00:58Z</time>
      </trkpt>
      <trkpt lat="41.615185160" lon="2.531971780">
        <ele>162.10</ele>
        <time>2014-02-23T11:00:59Z</time>
      </trkpt>
      <trkpt lat="41.615185160" lon="2.531975130">
        <ele>162.10</ele>
        <time>2014-02-23T11:01:00Z</time>
      </trkpt>
      <trkpt lat="41.615185160" lon="2.531976810">
        <ele>162.10</ele>
        <time>2014-02-23T11:01:01Z</time>
      </trkpt>
      <trkpt lat="41.615185160" lon="2.531980160">
        <ele>162.10</ele>
        <time>2014-02-23T11:01:02Z</time>
      </trkpt>
      <trkpt lat="41.615185160" lon="2.531983340">
        <ele>162.10</ele>
        <time>2014-02-23T11:01:03Z</time>
      </trkpt>
      <trkpt lat="41.615185160" lon="2.531985020">
        <ele>161.90</ele>
        <time>2014-02-23T11:01:04Z</time>
      </trkpt>
      <trkpt lat="41.615185160" lon="2.531988370">
        <ele>161.70</ele>
        <time>2014-02-23T11:01:05Z</time>
      </trkpt>
      <trkpt lat="41.615185160" lon="2.531990050">
        <ele>161.50</ele>
        <time>2014-02-23T11:01:06Z</time>
      </trkpt>
      <trkpt lat="41.615183480" lon="2.531995080">
        <ele>161.50</ele>
        <time>2014-02-23T11:01:07Z</time>
      </trkpt>
      <trkpt lat="41.615181800" lon="2.531998430">
        <ele>161.50</ele>
        <time>2014-02-23T11:01:08Z</time>
      </trkpt>
      <trkpt lat="41.615181800" lon="2.532000110">
        <ele>161.40</ele>
        <time>2014-02-23T11:01:09Z</time>
      </trkpt>
      <trkpt lat="41.615181800" lon="2.532001780">
        <ele>161.30</ele>
        <time>2014-02-23T11:01:10Z</time>
      </trkpt>
      <trkpt lat="41.615181800" lon="2.532003460">
        <ele>161.90</ele>
        <time>2014-02-23T11:01:11Z</time>
      </trkpt>
      <trkpt lat="41.615181800" lon="2.532005140">
        <ele>162.30</ele>
        <time>2014-02-23T11:01:12Z</time>
      </trkpt>
      <trkpt lat="41.615181800" lon="2.532005140">
        <ele>162.70</ele>
        <time>2014-02-23T11:01:13Z</time>
      </trkpt>
      <trkpt lat="41.615181800" lon="2.532006810">
        <ele>162.60</ele>
        <time>2014-02-23T11:01:14Z</time>
      </trkpt>
      <trkpt lat="41.615183480" lon="2.532006810">
        <ele>162.50</ele>
        <time>2014-02-23T11:01:15Z</time>
      </trkpt>
      <trkpt lat="41.615183480" lon="2.532008490">
        <ele>162.20</ele>
        <time>2014-02-23T11:01:16Z</time>
      </trkpt>
      <trkpt lat="41.615183480" lon="2.532008490">
        <ele>162.10</ele>
        <time>2014-02-23T11:01:17Z</time>
      </trkpt>
      <trkpt lat="41.615180130" lon="2.532011680">
        <ele>161.70</ele>
        <time>2014-02-23T11:01:18Z</time>
      </trkpt>
      <trkpt lat="41.615181800" lon="2.532013350">
        <ele>161.50</ele>
        <time>2014-02-23T11:01:19Z</time>
      </trkpt>
      <trkpt lat="41.615183480" lon="2.532013350">
        <ele>161.30</ele>
        <time>2014-02-23T11:01:20Z</time>
      </trkpt>
      <trkpt lat="41.615183480" lon="2.532015030">
        <ele>161.50</ele>
        <time>2014-02-23T11:01:21Z</time>
      </trkpt>
      <trkpt lat="41.615183480" lon="2.532015030">
        <ele>161.70</ele>
        <time>2014-02-23T11:01:22Z</time>
      </trkpt>
      <trkpt lat="41.615181800" lon="2.532016700">
        <ele>162.00</ele>
        <time>2014-02-23T11:01:23Z</time>
      </trkpt>
      <trkpt lat="41.615181800" lon="2.532016700">
        <ele>162.20</ele>
        <time>2014-02-23T11:01:24Z</time>
      </trkpt>
      <trkpt lat="41.615180130" lon="2.532018380">
        <ele>162.20</ele>
        <time>2014-02-23T11:01:25Z</time>
      </trkpt>
      <trkpt lat="41.615180130" lon="2.532020060">
        <ele>162.20</ele>
        <time>2014-02-23T11:01:26Z</time>
      </trkpt>
      <trkpt lat="41.615178450" lon="2.532021730">
        <ele>162.30</ele>
        <time>2014-02-23T11:01:27Z</time>
      </trkpt>
      <trkpt lat="41.615178450" lon="2.532023410">
        <ele>161.80</ele>
        <time>2014-02-23T11:01:28Z</time>
      </trkpt>
      <trkpt lat="41.615178450" lon="2.532023410">
        <ele>161.50</ele>
        <time>2014-02-23T11:01:29Z</time>
      </trkpt>
      <trkpt lat="41.615178450" lon="2.532025090">
        <ele>161.40</ele>
        <time>2014-02-23T11:01:30Z</time>
      </trkpt>
      <trkpt lat="41.615178450" lon="2.532025090">
        <ele>161.30</ele>
        <time>2014-02-23T11:01:31Z</time>
      </trkpt>
      <trkpt lat="41.615176770" lon="2.532030120">
        <ele>161.20</ele>
        <time>2014-02-23T11:01:32Z</time>
      </trkpt>
      <trkpt lat="41.615171740" lon="2.532035140">
        <ele>161.50</ele>
        <time>2014-02-23T11:01:33Z</time>
      </trkpt>
      <trkpt lat="41.615166720" lon="2.532051740">
        <ele>161.70</ele>
        <time>2014-02-23T11:01:34Z</time>
      </trkpt>
      <trkpt lat="41.615163360" lon="2.532070010">
        <ele>161.80</ele>
        <time>2014-02-23T11:01:35Z</time>
      </trkpt>
      <trkpt lat="41.615160010" lon="2.532098340">
        <ele>161.80</ele>
        <time>2014-02-23T11:01:36Z</time>
      </trkpt>
      <trkpt lat="41.615156820" lon="2.532136730">
        <ele>162.00</ele>
        <time>2014-02-23T11:01:37Z</time>
      </trkpt>
      <trkpt lat="41.615150120" lon="2.532180150">
        <ele>162.20</ele>
        <time>2014-02-23T11:01:38Z</time>
      </trkpt>
      <trkpt lat="41.615141740" lon="2.532231780">
        <ele>162.40</ele>
        <time>2014-02-23T11:01:39Z</time>
      </trkpt>
      <trkpt lat="41.615131680" lon="2.532286770">
        <ele>162.30</ele>
        <time>2014-02-23T11:01:40Z</time>
      </trkpt>
      <trkpt lat="41.615121790" lon="2.532343430">
        <ele>162.20</ele>
        <time>2014-02-23T11:01:41Z</time>
      </trkpt>
      <trkpt lat="41.615111730" lon="2.532403450">
        <ele>162.20</ele>
        <time>2014-02-23T11:01:42Z</time>
      </trkpt>
      <trkpt lat="41.615098490" lon="2.532465140">
        <ele>162.20</ele>
        <time>2014-02-23T11:01:43Z</time>
      </trkpt>
      <trkpt lat="41.615081720" lon="2.532525150">
        <ele>162.20</ele>
        <time>2014-02-23T11:01:44Z</time>
      </trkpt>
      <trkpt lat="41.615066800" lon="2.532586670">
        <ele>162.10</ele>
        <time>2014-02-23T11:01:45Z</time>
      </trkpt>
      <trkpt lat="41.615051720" lon="2.532648360">
        <ele>162.10</ele>
        <time>2014-02-23T11:01:46Z</time>
      </trkpt>
      <trkpt lat="41.615038470" lon="2.532713410">
        <ele>161.80</ele>
        <time>2014-02-23T11:01:47Z</time>
      </trkpt>
      <trkpt lat="41.615025060" lon="2.532778450">
        <ele>161.50</ele>
        <time>2014-02-23T11:01:48Z</time>
      </trkpt>
      <trkpt lat="41.615008460" lon="2.532848360">
        <ele>161.20</ele>
        <time>2014-02-23T11:01:49Z</time>
      </trkpt>
      <trkpt lat="41.614990020" lon="2.532921780">
        <ele>160.90</ele>
        <time>2014-02-23T11:01:50Z</time>
      </trkpt>
      <trkpt lat="41.614966720" lon="2.532995040">
        <ele>160.70</ele>
        <time>2014-02-23T11:01:51Z</time>
      </trkpt>
      <trkpt lat="41.614945100" lon="2.533071820">
        <ele>160.30</ele>
        <time>2014-02-23T11:01:52Z</time>
      </trkpt>
      <trkpt lat="41.614923470" lon="2.533148430">
        <ele>160.00</ele>
        <time>2014-02-23T11:01:53Z</time>
      </trkpt>
      <trkpt lat="41.614901680" lon="2.533225040">
        <ele>160.30</ele>
        <time>2014-02-23T11:01:54Z</time>
      </trkpt>
      <trkpt lat="41.614881730" lon="2.533301820">
        <ele>160.50</ele>
        <time>2014-02-23T11:01:55Z</time>
      </trkpt>
      <trkpt lat="41.614861780" lon="2.533380100">
        <ele>160.30</ele>
        <time>2014-02-23T11:01:56Z</time>
      </trkpt>
      <trkpt lat="41.614840160" lon="2.533458390">
        <ele>160.20</ele>
        <time>2014-02-23T11:01:57Z</time>
      </trkpt>
      <trkpt lat="41.614818360" lon="2.533538360">
        <ele>160.00</ele>
        <time>2014-02-23T11:01:58Z</time>
      </trkpt>
      <trkpt lat="41.614796740" lon="2.533618490">
        <ele>160.00</ele>
        <time>2014-02-23T11:01:59Z</time>
      </trkpt>
      <trkpt lat="41.614775110" lon="2.533698450">
        <ele>160.00</ele>
        <time>2014-02-23T11:02:00Z</time>
      </trkpt>
      <trkpt lat="41.614755000" lon="2.533781770">
        <ele>159.50</ele>
        <time>2014-02-23T11:02:01Z</time>
      </trkpt>
      <trkpt lat="41.614735050" lon="2.533865080">
        <ele>159.20</ele>
        <time>2014-02-23T11:02:02Z</time>
      </trkpt>
      <trkpt lat="41.614710070" lon="2.533945050">
        <ele>159.20</ele>
        <time>2014-02-23T11:02:03Z</time>
      </trkpt>
      <trkpt lat="41.614681740" lon="2.534025010">
        <ele>159.20</ele>
        <time>2014-02-23T11:02:04Z</time>
      </trkpt>
      <trkpt lat="41.614655080" lon="2.534103460">
        <ele>159.20</ele>
        <time>2014-02-23T11:02:05Z</time>
      </trkpt>
      <trkpt lat="41.614631780" lon="2.534183430">
        <ele>158.80</ele>
        <time>2014-02-23T11:02:06Z</time>
      </trkpt>
      <trkpt lat="41.614606800" lon="2.534265070">
        <ele>158.50</ele>
        <time>2014-02-23T11:02:07Z</time>
      </trkpt>
      <trkpt lat="41.614583330" lon="2.534345030">
        <ele>157.80</ele>
        <time>2014-02-23T11:02:08Z</time>
      </trkpt>
      <trkpt lat="41.614558360" lon="2.534425160">
        <ele>157.20</ele>
        <time>2014-02-23T11:02:09Z</time>
      </trkpt>
      <trkpt lat="41.614533380" lon="2.534508480">
        <ele>156.90</ele>
        <time>2014-02-23T11:02:10Z</time>
      </trkpt>
      <trkpt lat="41.614508400" lon="2.534590120">
        <ele>156.70</ele>
        <time>2014-02-23T11:02:11Z</time>
      </trkpt>
      <trkpt lat="41.614481750" lon="2.534671760">
        <ele>156.60</ele>
        <time>2014-02-23T11:02:12Z</time>
      </trkpt>
      <trkpt lat="41.614455090" lon="2.534751720">
        <ele>156.40</ele>
        <time>2014-02-23T11:02:13Z</time>
      </trkpt>
      <trkpt lat="41.614426760" lon="2.534831680">
        <ele>156.30</ele>
        <time>2014-02-23T11:02:14Z</time>
      </trkpt>
      <trkpt lat="41.614400110" lon="2.534911810">
        <ele>155.90</ele>
        <time>2014-02-23T11:02:15Z</time>
      </trkpt>
      <trkpt lat="41.614373450" lon="2.534993450">
        <ele>155.60</ele>
        <time>2014-02-23T11:02:16Z</time>
      </trkpt>
      <trkpt lat="41.614346800" lon="2.535073420">
        <ele>155.40</ele>
        <time>2014-02-23T11:02:17Z</time>
      </trkpt>
      <trkpt lat="41.614320140" lon="2.535151700">
        <ele>155.00</ele>
        <time>2014-02-23T11:02:18Z</time>
      </trkpt>
      <trkpt lat="41.614295000" lon="2.535230160">
        <ele>154.70</ele>
        <time>2014-02-23T11:02:19Z</time>
      </trkpt>
      <trkpt lat="41.614270020" lon="2.535310120">
        <ele>154.30</ele>
        <time>2014-02-23T11:02:20Z</time>
      </trkpt>
      <trkpt lat="41.614246720" lon="2.535388410">
        <ele>154.10</ele>
        <time>2014-02-23T11:02:21Z</time>
      </trkpt>
      <trkpt lat="41.614221740" lon="2.535465020">
        <ele>153.60</ele>
        <time>2014-02-23T11:02:22Z</time>
      </trkpt>
      <trkpt lat="41.614196760" lon="2.535540120">
        <ele>153.30</ele>
        <time>2014-02-23T11:02:23Z</time>
      </trkpt>
      <trkpt lat="41.614175140" lon="2.535616730">
        <ele>153.10</ele>
        <time>2014-02-23T11:02:24Z</time>
      </trkpt>
      <trkpt lat="41.614148480" lon="2.535691670">
        <ele>152.70</ele>
        <time>2014-02-23T11:02:25Z</time>
      </trkpt>
      <trkpt lat="41.614125010" lon="2.535768440">
        <ele>152.50</ele>
        <time>2014-02-23T11:02:26Z</time>
      </trkpt>
      <trkpt lat="41.614101710" lon="2.535843380">
        <ele>152.30</ele>
        <time>2014-02-23T11:02:27Z</time>
      </trkpt>
      <trkpt lat="41.614078410" lon="2.535918480">
        <ele>152.10</ele>
        <time>2014-02-23T11:02:28Z</time>
      </trkpt>
      <trkpt lat="41.614053430" lon="2.535993410">
        <ele>152.00</ele>
        <time>2014-02-23T11:02:29Z</time>
      </trkpt>
      <trkpt lat="41.614026780" lon="2.536066670">
        <ele>151.80</ele>
        <time>2014-02-23T11:02:30Z</time>
      </trkpt>
      <trkpt lat="41.614001800" lon="2.536138420">
        <ele>151.60</ele>
        <time>2014-02-23T11:02:31Z</time>
      </trkpt>
      <trkpt lat="41.613973470" lon="2.536208490">
        <ele>151.40</ele>
        <time>2014-02-23T11:02:32Z</time>
      </trkpt>
      <trkpt lat="41.613941780" lon="2.536276720">
        <ele>151.20</ele>
        <time>2014-02-23T11:02:33Z</time>
      </trkpt>
      <trkpt lat="41.613911780" lon="2.536340090">
        <ele>151.00</ele>
        <time>2014-02-23T11:02:34Z</time>
      </trkpt>
      <trkpt lat="41.613881770" lon="2.536398430">
        <ele>150.80</ele>
        <time>2014-02-23T11:02:35Z</time>
      </trkpt>
      <trkpt lat="41.613855110" lon="2.536448380">
        <ele>150.70</ele>
        <time>2014-02-23T11:02:36Z</time>
      </trkpt>
      <trkpt lat="41.613831810" lon="2.536491800">
        <ele>150.30</ele>
        <time>2014-02-23T11:02:37Z</time>
      </trkpt>
      <trkpt lat="41.613815050" lon="2.536523490">
        <ele>150.00</ele>
        <time>2014-02-23T11:02:38Z</time>
      </trkpt>
      <trkpt lat="41.613803480" lon="2.536548460">
        <ele>149.90</ele>
        <time>2014-02-23T11:02:39Z</time>
      </trkpt>
      <trkpt lat="41.613796780" lon="2.536561710">
        <ele>149.80</ele>
        <time>2014-02-23T11:02:40Z</time>
      </trkpt>
      <trkpt lat="41.613796780" lon="2.536566740">
        <ele>149.60</ele>
        <time>2014-02-23T11:02:41Z</time>
      </trkpt>
      <trkpt lat="41.613796780" lon="2.536570090">
        <ele>149.40</ele>
        <time>2014-02-23T11:02:42Z</time>
      </trkpt>
      <trkpt lat="41.613796780" lon="2.536573440">
        <ele>149.30</ele>
        <time>2014-02-23T11:02:43Z</time>
      </trkpt>
      <trkpt lat="41.613798450" lon="2.536576800">
        <ele>149.10</ele>
        <time>2014-02-23T11:02:44Z</time>
      </trkpt>
      <trkpt lat="41.613798450" lon="2.536580150">
        <ele>148.90</ele>
        <time>2014-02-23T11:02:45Z</time>
      </trkpt>
      <trkpt lat="41.613798450" lon="2.536583330">
        <ele>149.00</ele>
        <time>2014-02-23T11:02:46Z</time>
      </trkpt>
      <trkpt lat="41.613798450" lon="2.536585010">
        <ele>149.10</ele>
        <time>2014-02-23T11:02:47Z</time>
      </trkpt>
      <trkpt lat="41.613798450" lon="2.536588360">
        <ele>149.20</ele>
        <time>2014-02-23T11:02:48Z</time>
      </trkpt>
      <trkpt lat="41.613800130" lon="2.536591710">
        <ele>149.10</ele>
        <time>2014-02-23T11:02:49Z</time>
      </trkpt>
      <trkpt lat="41.613800130" lon="2.536596740">
        <ele>149.00</ele>
        <time>2014-02-23T11:02:50Z</time>
      </trkpt>
      <trkpt lat="41.613793420" lon="2.536610160">
        <ele>149.40</ele>
        <time>2014-02-23T11:02:51Z</time>
      </trkpt>
      <trkpt lat="41.613786720" lon="2.536628430">
        <ele>149.60</ele>
        <time>2014-02-23T11:02:52Z</time>
      </trkpt>
      <trkpt lat="41.613781690" lon="2.536640160">
        <ele>149.30</ele>
        <time>2014-02-23T11:02:53Z</time>
      </trkpt>
      <trkpt lat="41.613778340" lon="2.536648380">
        <ele>149.00</ele>
        <time>2014-02-23T11:02:54Z</time>
      </trkpt>
      <trkpt lat="41.613778340" lon="2.536651730">
        <ele>148.80</ele>
        <time>2014-02-23T11:02:55Z</time>
      </trkpt>
      <trkpt lat="41.613780010" lon="2.536655080">
        <ele>148.80</ele>
        <time>2014-02-23T11:02:56Z</time>
      </trkpt>
      <trkpt lat="41.613780010" lon="2.536658430">
        <ele>148.80</ele>
        <time>2014-02-23T11:02:57Z</time>
      </trkpt>
      <trkpt lat="41.613780010" lon="2.536660110">
        <ele>148.70</ele>
        <time>2014-02-23T11:02:58Z</time>
      </trkpt>
      <trkpt lat="41.613780010" lon="2.536661790">
        <ele>148.60</ele>
        <time>2014-02-23T11:02:59Z</time>
      </trkpt>
      <trkpt lat="41.613780010" lon="2.536665140">
        <ele>148.80</ele>
        <time>2014-02-23T11:03:00Z</time>
      </trkpt>
      <trkpt lat="41.613781690" lon="2.536666820">
        <ele>149.00</ele>
        <time>2014-02-23T11:03:01Z</time>
      </trkpt>
      <trkpt lat="41.613780010" lon="2.536668490">
        <ele>149.10</ele>
        <time>2014-02-23T11:03:02Z</time>
      </trkpt>
      <trkpt lat="41.613780010" lon="2.536670000">
        <ele>149.20</ele>
        <time>2014-02-23T11:03:03Z</time>
      </trkpt>
      <trkpt lat="41.613780010" lon="2.536673350">
        <ele>149.20</ele>
        <time>2014-02-23T11:03:04Z</time>
      </trkpt>
      <trkpt lat="41.613780010" lon="2.536673350">
        <ele>148.80</ele>
        <time>2014-02-23T11:03:05Z</time>
      </trkpt>
      <trkpt lat="41.613780010" lon="2.536673350">
        <ele>148.60</ele>
        <time>2014-02-23T11:03:06Z</time>
      </trkpt>
      <trkpt lat="41.613780010" lon="2.536675030">
        <ele>148.30</ele>
        <time>2014-02-23T11:03:07Z</time>
      </trkpt>
      <trkpt lat="41.613780010" lon="2.536675030">
        <ele>148.60</ele>
        <time>2014-02-23T11:03:08Z</time>
      </trkpt>
      <trkpt lat="41.613780010" lon="2.536675030">
        <ele>148.80</ele>
        <time>2014-02-23T11:03:09Z</time>
      </trkpt>
      <trkpt lat="41.613778340" lon="2.536676710">
        <ele>148.40</ele>
        <time>2014-02-23T11:03:10Z</time>
      </trkpt>
      <trkpt lat="41.613778340" lon="2.536676710">
        <ele>148.10</ele>
        <time>2014-02-23T11:03:11Z</time>
      </trkpt>
      <trkpt lat="41.613778340" lon="2.536676710">
        <ele>148.60</ele>
        <time>2014-02-23T11:03:12Z</time>
      </trkpt>
      <trkpt lat="41.613776830" lon="2.536676710">
        <ele>149.00</ele>
        <time>2014-02-23T11:03:13Z</time>
      </trkpt>
      <trkpt lat="41.613776830" lon="2.536676710">
        <ele>149.30</ele>
        <time>2014-02-23T11:03:14Z</time>
      </trkpt>
      <trkpt lat="41.613775150" lon="2.536678380">
        <ele>149.10</ele>
        <time>2014-02-23T11:03:15Z</time>
      </trkpt>
      <trkpt lat="41.613775150" lon="2.536678380">
        <ele>148.90</ele>
        <time>2014-02-23T11:03:16Z</time>
      </trkpt>
      <trkpt lat="41.613773480" lon="2.536678380">
        <ele>149.00</ele>
        <time>2014-02-23T11:03:17Z</time>
      </trkpt>
      <trkpt lat="41.613773480" lon="2.536678380">
        <ele>149.10</ele>
        <time>2014-02-23T11:03:18Z</time>
      </trkpt>
      <trkpt lat="41.613773480" lon="2.536678380">
        <ele>149.20</ele>
        <time>2014-02-23T11:03:19Z</time>
      </trkpt>
      <trkpt lat="41.613763420" lon="2.536690120">
        <ele>149.30</ele>
        <time>2014-02-23T11:03:20Z</time>
      </trkpt>
      <trkpt lat="41.613751680" lon="2.536711740">
        <ele>149.40</ele>
        <time>2014-02-23T11:03:21Z</time>
      </trkpt>
      <trkpt lat="41.613735090" lon="2.536740070">
        <ele>148.80</ele>
        <time>2014-02-23T11:03:22Z</time>
      </trkpt>
      <trkpt lat="41.613716810" lon="2.536778460">
        <ele>148.40</ele>
        <time>2014-02-23T11:03:23Z</time>
      </trkpt>
      <trkpt lat="41.613696700" lon="2.536821710">
        <ele>148.70</ele>
        <time>2014-02-23T11:03:24Z</time>
      </trkpt>
      <trkpt lat="41.613673400" lon="2.536865130">
        <ele>149.00</ele>
        <time>2014-02-23T11:03:25Z</time>
      </trkpt>
      <trkpt lat="41.613648420" lon="2.536911740">
        <ele>149.20</ele>
        <time>2014-02-23T11:03:26Z</time>
      </trkpt>
      <trkpt lat="41.613620090" lon="2.536956660">
        <ele>149.10</ele>
        <time>2014-02-23T11:03:27Z</time>
      </trkpt>
      <trkpt lat="41.613590080" lon="2.536998400">
        <ele>149.10</ele>
        <time>2014-02-23T11:03:28Z</time>
      </trkpt>
      <trkpt lat="41.613556720" lon="2.537036790">
        <ele>148.60</ele>
        <time>2014-02-23T11:03:29Z</time>
      </trkpt>
      <trkpt lat="41.613528390" lon="2.537076690">
        <ele>148.30</ele>
        <time>2014-02-23T11:03:30Z</time>
      </trkpt>
      <trkpt lat="41.613496700" lon="2.537121790">
        <ele>148.10</ele>
        <time>2014-02-23T11:03:31Z</time>
      </trkpt>
      <trkpt lat="41.613461670" lon="2.537171740">
        <ele>147.90</ele>
        <time>2014-02-23T11:03:32Z</time>
      </trkpt>
      <trkpt lat="41.613433340" lon="2.537216670">
        <ele>147.80</ele>
        <time>2014-02-23T11:03:33Z</time>
      </trkpt>
      <trkpt lat="41.613401820" lon="2.537260090">
        <ele>147.90</ele>
        <time>2014-02-23T11:03:34Z</time>
      </trkpt>
      <trkpt lat="41.613361760" lon="2.537303340">
        <ele>148.00</ele>
        <time>2014-02-23T11:03:35Z</time>
      </trkpt>
      <trkpt lat="41.613320010" lon="2.537341730">
        <ele>147.60</ele>
        <time>2014-02-23T11:03:36Z</time>
      </trkpt>
      <trkpt lat="41.613280120" lon="2.537381790">
        <ele>147.20</ele>
        <time>2014-02-23T11:03:37Z</time>
      </trkpt>
      <trkpt lat="41.613243400" lon="2.537415150">
        <ele>147.10</ele>
        <time>2014-02-23T11:03:38Z</time>
      </trkpt>
      <trkpt lat="41.613210040" lon="2.537450020">
        <ele>147.00</ele>
        <time>2014-02-23T11:03:39Z</time>
      </trkpt>
      <trkpt lat="41.613178360" lon="2.537485060">
        <ele>146.90</ele>
        <time>2014-02-23T11:03:40Z</time>
      </trkpt>
      <trkpt lat="41.613145000" lon="2.537521770">
        <ele>146.60</ele>
        <time>2014-02-23T11:03:41Z</time>
      </trkpt>
      <trkpt lat="41.613106780" lon="2.537561670">
        <ele>146.40</ele>
        <time>2014-02-23T11:03:42Z</time>
      </trkpt>
      <trkpt lat="41.613070070" lon="2.537603410">
        <ele>146.30</ele>
        <time>2014-02-23T11:03:43Z</time>
      </trkpt>
      <trkpt lat="41.613035030" lon="2.537636770">
        <ele>146.20</ele>
        <time>2014-02-23T11:03:44Z</time>
      </trkpt>
      <trkpt lat="41.612996810" lon="2.537681700">
        <ele>146.10</ele>
        <time>2014-02-23T11:03:45Z</time>
      </trkpt>
      <trkpt lat="41.612958420" lon="2.537725120">
        <ele>146.10</ele>
        <time>2014-02-23T11:03:46Z</time>
      </trkpt>
      <trkpt lat="41.612920030" lon="2.537770040">
        <ele>146.10</ele>
        <time>2014-02-23T11:03:47Z</time>
      </trkpt>
      <trkpt lat="41.612881810" lon="2.537808430">
        <ele>145.90</ele>
        <time>2014-02-23T11:03:48Z</time>
      </trkpt>
      <trkpt lat="41.612848450" lon="2.537846820">
        <ele>145.70</ele>
        <time>2014-02-23T11:03:49Z</time>
      </trkpt>
      <trkpt lat="41.612810060" lon="2.537888400">
        <ele>145.30</ele>
        <time>2014-02-23T11:03:50Z</time>
      </trkpt>
      <trkpt lat="41.612773350" lon="2.537926780">
        <ele>145.00</ele>
        <time>2014-02-23T11:03:51Z</time>
      </trkpt>
      <trkpt lat="41.612733450" lon="2.537973390">
        <ele>144.80</ele>
        <time>2014-02-23T11:03:52Z</time>
      </trkpt>
      <trkpt lat="41.612691710" lon="2.538030050">
        <ele>144.40</ele>
        <time>2014-02-23T11:03:53Z</time>
      </trkpt>
      <trkpt lat="41.612651810" lon="2.538081680">
        <ele>144.10</ele>
        <time>2014-02-23T11:03:54Z</time>
      </trkpt>
      <trkpt lat="41.612613420" lon="2.538131810">
        <ele>144.20</ele>
        <time>2014-02-23T11:03:55Z</time>
      </trkpt>
      <trkpt lat="41.612573350" lon="2.538188470">
        <ele>144.20</ele>
        <time>2014-02-23T11:03:56Z</time>
      </trkpt>
      <trkpt lat="41.612538490" lon="2.538250160">
        <ele>144.00</ele>
        <time>2014-02-23T11:03:57Z</time>
      </trkpt>
      <trkpt lat="41.612503450" lon="2.538318390">
        <ele>143.90</ele>
        <time>2014-02-23T11:03:58Z</time>
      </trkpt>
      <trkpt lat="41.612466740" lon="2.538388460">
        <ele>143.80</ele>
        <time>2014-02-23T11:03:59Z</time>
      </trkpt>
      <trkpt lat="41.612428350" lon="2.538451830">
        <ele>143.40</ele>
        <time>2014-02-23T11:04:00Z</time>
      </trkpt>
      <trkpt lat="41.612393480" lon="2.538513350">
        <ele>143.10</ele>
        <time>2014-02-23T11:04:01Z</time>
      </trkpt>
      <trkpt lat="41.612361790" lon="2.538575040">
        <ele>143.00</ele>
        <time>2014-02-23T11:04:02Z</time>
      </trkpt>
      <trkpt lat="41.612326760" lon="2.538641760">
        <ele>142.90</ele>
        <time>2014-02-23T11:04:03Z</time>
      </trkpt>
      <trkpt lat="41.612283340" lon="2.538706800">
        <ele>142.80</ele>
        <time>2014-02-23T11:04:04Z</time>
      </trkpt>
      <trkpt lat="41.612240090" lon="2.538773360">
        <ele>142.70</ele>
        <time>2014-02-23T11:04:05Z</time>
      </trkpt>
      <trkpt lat="41.612196670" lon="2.538836720">
        <ele>142.60</ele>
        <time>2014-02-23T11:04:06Z</time>
      </trkpt>
      <trkpt lat="41.612160130" lon="2.538888360">
        <ele>142.10</ele>
        <time>2014-02-23T11:04:07Z</time>
      </trkpt>
      <trkpt lat="41.612120060" lon="2.538921720">
        <ele>141.70</ele>
        <time>2014-02-23T11:04:08Z</time>
      </trkpt>
      <trkpt lat="41.612083350" lon="2.538933450">
        <ele>141.30</ele>
        <time>2014-02-23T11:04:09Z</time>
      </trkpt>
      <trkpt lat="41.612053340" lon="2.538933450">
        <ele>141.00</ele>
        <time>2014-02-23T11:04:10Z</time>
      </trkpt>
      <trkpt lat="41.612031720" lon="2.538921720">
        <ele>140.70</ele>
        <time>2014-02-23T11:04:11Z</time>
      </trkpt>
      <trkpt lat="41.612010090" lon="2.538893390">
        <ele>140.10</ele>
        <time>2014-02-23T11:04:12Z</time>
      </trkpt>
      <trkpt lat="41.611988460" lon="2.538861700">
        <ele>139.60</ele>
        <time>2014-02-23T11:04:13Z</time>
      </trkpt>
      <trkpt lat="41.611971700" lon="2.538825160">
        <ele>139.60</ele>
        <time>2014-02-23T11:04:14Z</time>
      </trkpt>
      <trkpt lat="41.611958460" lon="2.538788440">
        <ele>139.70</ele>
        <time>2014-02-23T11:04:15Z</time>
      </trkpt>
      <trkpt lat="41.611943370" lon="2.538753410">
        <ele>140.40</ele>
        <time>2014-02-23T11:04:16Z</time>
      </trkpt>
      <trkpt lat="41.611925100" lon="2.538720050">
        <ele>140.90</ele>
        <time>2014-02-23T11:04:17Z</time>
      </trkpt>
      <trkpt lat="41.611910010" lon="2.538685010">
        <ele>141.30</ele>
        <time>2014-02-23T11:04:18Z</time>
      </trkpt>
      <trkpt lat="41.611890060" lon="2.538663390">
        <ele>141.60</ele>
        <time>2014-02-23T11:04:19Z</time>
      </trkpt>
      <trkpt lat="41.611863410" lon="2.538648470">
        <ele>141.90</ele>
        <time>2014-02-23T11:04:20Z</time>
      </trkpt>
      <trkpt lat="41.611835080" lon="2.538641760">
        <ele>142.50</ele>
        <time>2014-02-23T11:04:21Z</time>
      </trkpt>
      <trkpt lat="41.611800040" lon="2.538645110">
        <ele>143.00</ele>
        <time>2014-02-23T11:04:22Z</time>
      </trkpt>
      <trkpt lat="41.611765000" lon="2.538643440">
        <ele>143.10</ele>
        <time>2014-02-23T11:04:23Z</time>
      </trkpt>
      <trkpt lat="41.611720080" lon="2.538650140">
        <ele>143.20</ele>
        <time>2014-02-23T11:04:24Z</time>
      </trkpt>
      <trkpt lat="41.611668440" lon="2.538661710">
        <ele>143.30</ele>
        <time>2014-02-23T11:04:25Z</time>
      </trkpt>
      <trkpt lat="41.611613460" lon="2.538671770">
        <ele>143.30</ele>
        <time>2014-02-23T11:04:26Z</time>
      </trkpt>
      <trkpt lat="41.611553440" lon="2.538686690">
        <ele>143.30</ele>
        <time>2014-02-23T11:04:27Z</time>
      </trkpt>
      <trkpt lat="41.611490080" lon="2.538701780">
        <ele>142.90</ele>
        <time>2014-02-23T11:04:28Z</time>
      </trkpt>
      <trkpt lat="41.611426710" lon="2.538718370">
        <ele>142.60</ele>
        <time>2014-02-23T11:04:29Z</time>
      </trkpt>
      <trkpt lat="41.611366700" lon="2.538733460">
        <ele>142.40</ele>
        <time>2014-02-23T11:04:30Z</time>
      </trkpt>
      <trkpt lat="41.611310030" lon="2.538746700">
        <ele>142.20</ele>
        <time>2014-02-23T11:04:31Z</time>
      </trkpt>
      <trkpt lat="41.611258400" lon="2.538760110">
        <ele>142.00</ele>
        <time>2014-02-23T11:04:32Z</time>
      </trkpt>
      <trkpt lat="41.611211800" lon="2.538773360">
        <ele>141.70</ele>
        <time>2014-02-23T11:04:33Z</time>
      </trkpt>
      <trkpt lat="41.611163350" lon="2.538790120">
        <ele>141.50</ele>
        <time>2014-02-23T11:04:34Z</time>
      </trkpt>
      <trkpt lat="41.611118420" lon="2.538813420">
        <ele>141.20</ele>
        <time>2014-02-23T11:04:35Z</time>
      </trkpt>
      <trkpt lat="41.611073330" lon="2.538840080">
        <ele>141.00</ele>
        <time>2014-02-23T11:04:36Z</time>
      </trkpt>
      <trkpt lat="41.611026730" lon="2.538870080">
        <ele>140.80</ele>
        <time>2014-02-23T11:04:37Z</time>
      </trkpt>
      <trkpt lat="41.610971740" lon="2.538890030">
        <ele>140.30</ele>
        <time>2014-02-23T11:04:38Z</time>
      </trkpt>
      <trkpt lat="41.610918430" lon="2.538911830">
        <ele>140.00</ele>
        <time>2014-02-23T11:04:39Z</time>
      </trkpt>
      <trkpt lat="41.610866800" lon="2.538935130">
        <ele>139.60</ele>
        <time>2014-02-23T11:04:40Z</time>
      </trkpt>
      <trkpt lat="41.610816670" lon="2.538960110">
        <ele>139.40</ele>
        <time>2014-02-23T11:04:41Z</time>
      </trkpt>
      <trkpt lat="41.610770070" lon="2.538981730">
        <ele>138.70</ele>
        <time>2014-02-23T11:04:42Z</time>
      </trkpt>
      <trkpt lat="41.610723470" lon="2.539003360">
        <ele>138.20</ele>
        <time>2014-02-23T11:04:43Z</time>
      </trkpt>
      <trkpt lat="41.610678370" lon="2.539028330">
        <ele>137.80</ele>
        <time>2014-02-23T11:04:44Z</time>
      </trkpt>
      <trkpt lat="41.610635120" lon="2.539056660">
        <ele>137.60</ele>
        <time>2014-02-23T11:04:45Z</time>
      </trkpt>
      <trkpt lat="41.610593380" lon="2.539090020">
        <ele>137.40</ele>
        <time>2014-02-23T11:04:46Z</time>
      </trkpt>
      <trkpt lat="41.610550130" lon="2.539118360">
        <ele>137.20</ele>
        <time>2014-02-23T11:04:47Z</time>
      </trkpt>
      <trkpt lat="41.610505040" lon="2.539146690">
        <ele>137.10</ele>
        <time>2014-02-23T11:04:48Z</time>
      </trkpt>
      <trkpt lat="41.610460110" lon="2.539171660">
        <ele>137.00</ele>
        <time>2014-02-23T11:04:49Z</time>
      </trkpt>
      <trkpt lat="41.610415010" lon="2.539198490">
        <ele>137.10</ele>
        <time>2014-02-23T11:04:50Z</time>
      </trkpt>
      <trkpt lat="41.610373440" lon="2.539223460">
        <ele>137.20</ele>
        <time>2014-02-23T11:04:51Z</time>
      </trkpt>
      <trkpt lat="41.610333370" lon="2.539243410">
        <ele>137.00</ele>
        <time>2014-02-23T11:04:52Z</time>
      </trkpt>
      <trkpt lat="41.610295150" lon="2.539261690">
        <ele>136.90</ele>
        <time>2014-02-23T11:04:53Z</time>
      </trkpt>
      <trkpt lat="41.610258440" lon="2.539278450">
        <ele>136.70</ele>
        <time>2014-02-23T11:04:54Z</time>
      </trkpt>
      <trkpt lat="41.610228430" lon="2.539293370">
        <ele>136.50</ele>
        <time>2014-02-23T11:04:55Z</time>
      </trkpt>
      <trkpt lat="41.610206810" lon="2.539305100">
        <ele>136.40</ele>
        <time>2014-02-23T11:04:56Z</time>
      </trkpt>
      <trkpt lat="41.610191720" lon="2.539315000">
        <ele>136.50</ele>
        <time>2014-02-23T11:04:57Z</time>
      </trkpt>
      <trkpt lat="41.610181660" lon="2.539320020">
        <ele>136.50</ele>
        <time>2014-02-23T11:04:58Z</time>
      </trkpt>
      <trkpt lat="41.610173450" lon="2.539323380">
        <ele>136.00</ele>
        <time>2014-02-23T11:04:59Z</time>
      </trkpt>
      <trkpt lat="41.610165070" lon="2.539323380">
        <ele>135.60</ele>
        <time>2014-02-23T11:05:00Z</time>
      </trkpt>
      <trkpt lat="41.610153330" lon="2.539328410">
        <ele>135.30</ele>
        <time>2014-02-23T11:05:01Z</time>
      </trkpt>
      <trkpt lat="41.610138410" lon="2.539336790">
        <ele>135.10</ele>
        <time>2014-02-23T11:05:02Z</time>
      </trkpt>
      <trkpt lat="41.610118460" lon="2.539346680">
        <ele>134.90</ele>
        <time>2014-02-23T11:05:03Z</time>
      </trkpt>
      <trkpt lat="41.610095160" lon="2.539361770">
        <ele>134.70</ele>
        <time>2014-02-23T11:05:04Z</time>
      </trkpt>
      <trkpt lat="41.610070010" lon="2.539375010">
        <ele>134.60</ele>
        <time>2014-02-23T11:05:05Z</time>
      </trkpt>
      <trkpt lat="41.610041680" lon="2.539390100">
        <ele>134.80</ele>
        <time>2014-02-23T11:05:06Z</time>
      </trkpt>
      <trkpt lat="41.610011680" lon="2.539408370">
        <ele>135.00</ele>
        <time>2014-02-23T11:05:07Z</time>
      </trkpt>
      <trkpt lat="41.609983350" lon="2.539423460">
        <ele>135.10</ele>
        <time>2014-02-23T11:05:08Z</time>
      </trkpt>
      <trkpt lat="41.609955020" lon="2.539440050">
        <ele>134.90</ele>
        <time>2014-02-23T11:05:09Z</time>
      </trkpt>
      <trkpt lat="41.609925010" lon="2.539456820">
        <ele>134.80</ele>
        <time>2014-02-23T11:05:10Z</time>
      </trkpt>
      <trkpt lat="41.609893490" lon="2.539471740">
        <ele>134.30</ele>
        <time>2014-02-23T11:05:11Z</time>
      </trkpt>
      <trkpt lat="41.609871700" lon="2.539493360">
        <ele>133.90</ele>
        <time>2014-02-23T11:05:12Z</time>
      </trkpt>
      <trkpt lat="41.609853430" lon="2.539513480">
        <ele>133.80</ele>
        <time>2014-02-23T11:05:13Z</time>
      </trkpt>
      <trkpt lat="41.609828450" lon="2.539543490">
        <ele>133.70</ele>
        <time>2014-02-23T11:05:14Z</time>
      </trkpt>
      <trkpt lat="41.609798440" lon="2.539570140">
        <ele>133.60</ele>
        <time>2014-02-23T11:05:15Z</time>
      </trkpt>
      <trkpt lat="41.609766760" lon="2.539595120">
        <ele>133.30</ele>
        <time>2014-02-23T11:05:16Z</time>
      </trkpt>
      <trkpt lat="41.609738430" lon="2.539618420">
        <ele>133.00</ele>
        <time>2014-02-23T11:05:17Z</time>
      </trkpt>
      <trkpt lat="41.609715130" lon="2.539633340">
        <ele>132.70</ele>
        <time>2014-02-23T11:05:18Z</time>
      </trkpt>
      <trkpt lat="41.609701710" lon="2.539643400">
        <ele>132.50</ele>
        <time>2014-02-23T11:05:19Z</time>
      </trkpt>
      <trkpt lat="41.609696680" lon="2.539650100">
        <ele>132.40</ele>
        <time>2014-02-23T11:05:20Z</time>
      </trkpt>
      <trkpt lat="41.609693330" lon="2.539650100">
        <ele>132.40</ele>
        <time>2014-02-23T11:05:21Z</time>
      </trkpt>
      <trkpt lat="41.609691820" lon="2.539651780">
        <ele>132.40</ele>
        <time>2014-02-23T11:05:22Z</time>
      </trkpt>
      <trkpt lat="41.609690150" lon="2.539653460">
        <ele>132.50</ele>
        <time>2014-02-23T11:05:23Z</time>
      </trkpt>
      <trkpt lat="41.609688470" lon="2.539653460">
        <ele>132.60</ele>
        <time>2014-02-23T11:05:24Z</time>
      </trkpt>
      <trkpt lat="41.609686790" lon="2.539655130">
        <ele>132.20</ele>
        <time>2014-02-23T11:05:25Z</time>
      </trkpt>
      <trkpt lat="41.609683440" lon="2.539656810">
        <ele>131.90</ele>
        <time>2014-02-23T11:05:26Z</time>
      </trkpt>
      <trkpt lat="41.609681770" lon="2.539658490">
        <ele>131.70</ele>
        <time>2014-02-23T11:05:27Z</time>
      </trkpt>
      <trkpt lat="41.609680090" lon="2.539660160">
        <ele>131.70</ele>
        <time>2014-02-23T11:05:28Z</time>
      </trkpt>
      <trkpt lat="41.609675060" lon="2.539660160">
        <ele>131.80</ele>
        <time>2014-02-23T11:05:29Z</time>
      </trkpt>
      <trkpt lat="41.609660140" lon="2.539660160">
        <ele>131.70</ele>
        <time>2014-02-23T11:05:30Z</time>
      </trkpt>
      <trkpt lat="41.609640020" lon="2.539660160">
        <ele>131.70</ele>
        <time>2014-02-23T11:05:31Z</time>
      </trkpt>
      <trkpt lat="41.609611690" lon="2.539666700">
        <ele>131.90</ele>
        <time>2014-02-23T11:05:32Z</time>
      </trkpt>
      <trkpt lat="41.609576820" lon="2.539680110">
        <ele>132.00</ele>
        <time>2014-02-23T11:05:33Z</time>
      </trkpt>
      <trkpt lat="41.609543460" lon="2.539701740">
        <ele>132.10</ele>
        <time>2014-02-23T11:05:34Z</time>
      </trkpt>
      <trkpt lat="41.609508430" lon="2.539723360">
        <ele>131.90</ele>
        <time>2014-02-23T11:05:35Z</time>
      </trkpt>
      <trkpt lat="41.609473390" lon="2.539741800">
        <ele>131.80</ele>
        <time>2014-02-23T11:05:36Z</time>
      </trkpt>
      <trkpt lat="41.609435000" lon="2.539761750">
        <ele>132.10</ele>
        <time>2014-02-23T11:05:37Z</time>
      </trkpt>
      <trkpt lat="41.609396780" lon="2.539786730">
        <ele>132.30</ele>
        <time>2014-02-23T11:05:38Z</time>
      </trkpt>
      <trkpt lat="41.609360070" lon="2.539818410">
        <ele>132.00</ele>
        <time>2014-02-23T11:05:39Z</time>
      </trkpt>
      <trkpt lat="41.609326710" lon="2.539855130">
        <ele>131.70</ele>
        <time>2014-02-23T11:05:40Z</time>
      </trkpt>
      <trkpt lat="41.609295020" lon="2.539891670">
        <ele>131.50</ele>
        <time>2014-02-23T11:05:41Z</time>
      </trkpt>
      <trkpt lat="41.609265020" lon="2.539931740">
        <ele>131.20</ele>
        <time>2014-02-23T11:05:42Z</time>
      </trkpt>
      <trkpt lat="41.609233330" lon="2.539968450">
        <ele>131.00</ele>
        <time>2014-02-23T11:05:43Z</time>
      </trkpt>
      <trkpt lat="41.609210030" lon="2.540006670">
        <ele>130.90</ele>
        <time>2014-02-23T11:05:44Z</time>
      </trkpt>
      <trkpt lat="41.609196790" lon="2.540045060">
        <ele>130.70</ele>
        <time>2014-02-23T11:05:45Z</time>
      </trkpt>
      <trkpt lat="41.609191760" lon="2.540076740">
        <ele>130.60</ele>
        <time>2014-02-23T11:05:46Z</time>
      </trkpt>
      <trkpt lat="41.609186730" lon="2.540103400">
        <ele>130.50</ele>
        <time>2014-02-23T11:05:47Z</time>
      </trkpt>
      <trkpt lat="41.609181700" lon="2.540125020">
        <ele>130.50</ele>
        <time>2014-02-23T11:05:48Z</time>
      </trkpt>
      <trkpt lat="41.609175000" lon="2.540158380">
        <ele>130.10</ele>
        <time>2014-02-23T11:05:49Z</time>
      </trkpt>
      <trkpt lat="41.609163430" lon="2.540195100">
        <ele>129.90</ele>
        <time>2014-02-23T11:05:50Z</time>
      </trkpt>
      <trkpt lat="41.609143480" lon="2.540228450">
        <ele>129.80</ele>
        <time>2014-02-23T11:05:51Z</time>
      </trkpt>
      <trkpt lat="41.609116820" lon="2.540260140">
        <ele>129.70</ele>
        <time>2014-02-23T11:05:52Z</time>
      </trkpt>
      <trkpt lat="41.609088490" lon="2.540290150">
        <ele>129.60</ele>
        <time>2014-02-23T11:05:53Z</time>
      </trkpt>
      <trkpt lat="41.609058490" lon="2.540320150">
        <ele>129.30</ele>
        <time>2014-02-23T11:05:54Z</time>
      </trkpt>
      <trkpt lat="41.609028480" lon="2.540351670">
        <ele>129.10</ele>
        <time>2014-02-23T11:05:55Z</time>
      </trkpt>
      <trkpt lat="41.608998470" lon="2.540378490">
        <ele>129.00</ele>
        <time>2014-02-23T11:05:56Z</time>
      </trkpt>
      <trkpt lat="41.608965110" lon="2.540401790">
        <ele>129.00</ele>
        <time>2014-02-23T11:05:57Z</time>
      </trkpt>
      <trkpt lat="41.608936780" lon="2.540416710">
        <ele>129.10</ele>
        <time>2014-02-23T11:05:58Z</time>
      </trkpt>
      <trkpt lat="41.608916670" lon="2.540418390">
        <ele>129.20</ele>
        <time>2014-02-23T11:05:59Z</time>
      </trkpt>
      <trkpt lat="41.608900070" lon="2.540411680">
        <ele>129.30</ele>
        <time>2014-02-23T11:06:00Z</time>
      </trkpt>
      <trkpt lat="41.608881800" lon="2.540401790">
        <ele>128.90</ele>
        <time>2014-02-23T11:06:01Z</time>
      </trkpt>
      <trkpt lat="41.608866710" lon="2.540381680">
        <ele>128.60</ele>
        <time>2014-02-23T11:06:02Z</time>
      </trkpt>
      <trkpt lat="41.608855140" lon="2.540351670">
        <ele>128.60</ele>
        <time>2014-02-23T11:06:03Z</time>
      </trkpt>
      <trkpt lat="41.608843410" lon="2.540321660">
        <ele>128.60</ele>
        <time>2014-02-23T11:06:04Z</time>
      </trkpt>
      <trkpt lat="41.608821780" lon="2.540296680">
        <ele>128.60</ele>
        <time>2014-02-23T11:06:05Z</time>
      </trkpt>
      <trkpt lat="41.608786750" lon="2.540286790">
        <ele>128.10</ele>
        <time>2014-02-23T11:06:06Z</time>
      </trkpt>
      <trkpt lat="41.608751710" lon="2.540285120">
        <ele>127.70</ele>
        <time>2014-02-23T11:06:07Z</time>
      </trkpt>
      <trkpt lat="41.608715000" lon="2.540290150">
        <ele>127.90</ele>
        <time>2014-02-23T11:06:08Z</time>
      </trkpt>
      <trkpt lat="41.608673420" lon="2.540301710">
        <ele>128.00</ele>
        <time>2014-02-23T11:06:09Z</time>
      </trkpt>
      <trkpt lat="41.608630000" lon="2.540310090">
        <ele>128.00</ele>
        <time>2014-02-23T11:06:10Z</time>
      </trkpt>
      <trkpt lat="41.608583400" lon="2.540318480">
        <ele>128.00</ele>
        <time>2014-02-23T11:06:11Z</time>
      </trkpt>
      <trkpt lat="41.608538470" lon="2.540326690">
        <ele>128.00</ele>
        <time>2014-02-23T11:06:12Z</time>
      </trkpt>
      <trkpt lat="41.608491700" lon="2.540335070">
        <ele>128.00</ele>
        <time>2014-02-23T11:06:13Z</time>
      </trkpt>
      <trkpt lat="41.608443420" lon="2.540338430">
        <ele>128.00</ele>
        <time>2014-02-23T11:06:14Z</time>
      </trkpt>
      <trkpt lat="41.608398500" lon="2.540343450">
        <ele>127.50</ele>
        <time>2014-02-23T11:06:15Z</time>
      </trkpt>
      <trkpt lat="41.608353400" lon="2.540351670">
        <ele>127.10</ele>
        <time>2014-02-23T11:06:16Z</time>
      </trkpt>
      <trkpt lat="41.608311830" lon="2.540366760">
        <ele>127.10</ele>
        <time>2014-02-23T11:06:17Z</time>
      </trkpt>
      <trkpt lat="41.608275110" lon="2.540371790">
        <ele>127.00</ele>
        <time>2014-02-23T11:06:18Z</time>
      </trkpt>
      <trkpt lat="41.608240080" lon="2.540378490">
        <ele>127.00</ele>
        <time>2014-02-23T11:06:19Z</time>
      </trkpt>
      <trkpt lat="41.608205040" lon="2.540386710">
        <ele>126.80</ele>
        <time>2014-02-23T11:06:20Z</time>
      </trkpt>
      <trkpt lat="41.608166820" lon="2.540390060">
        <ele>126.60</ele>
        <time>2014-02-23T11:06:21Z</time>
      </trkpt>
      <trkpt lat="41.608125080" lon="2.540388380">
        <ele>126.60</ele>
        <time>2014-02-23T11:06:22Z</time>
      </trkpt>
      <trkpt lat="41.608081830" lon="2.540393410">
        <ele>126.50</ele>
        <time>2014-02-23T11:06:23Z</time>
      </trkpt>
      <trkpt lat="41.608033380" lon="2.540403470">
        <ele>126.50</ele>
        <time>2014-02-23T11:06:24Z</time>
      </trkpt>
      <trkpt lat="41.607985100" lon="2.540411680">
        <ele>126.40</ele>
        <time>2014-02-23T11:06:25Z</time>
      </trkpt>
      <trkpt lat="41.607938330" lon="2.540418390">
        <ele>126.30</ele>
        <time>2014-02-23T11:06:26Z</time>
      </trkpt>
      <trkpt lat="41.607893400" lon="2.540423420">
        <ele>126.70</ele>
        <time>2014-02-23T11:06:27Z</time>
      </trkpt>
      <trkpt lat="41.607855010" lon="2.540426770">
        <ele>127.00</ele>
        <time>2014-02-23T11:06:28Z</time>
      </trkpt>
      <trkpt lat="41.607823330" lon="2.540433480">
        <ele>126.90</ele>
        <time>2014-02-23T11:06:29Z</time>
      </trkpt>
      <trkpt lat="41.607796680" lon="2.540446720">
        <ele>126.70</ele>
        <time>2014-02-23T11:06:30Z</time>
      </trkpt>
      <trkpt lat="41.607771700" lon="2.540460130">
        <ele>126.60</ele>
        <time>2014-02-23T11:06:31Z</time>
      </trkpt>
      <trkpt lat="41.607746720" lon="2.540488460">
        <ele>126.20</ele>
        <time>2014-02-23T11:06:32Z</time>
      </trkpt>
      <trkpt lat="41.607723420" lon="2.540518470">
        <ele>125.90</ele>
        <time>2014-02-23T11:06:33Z</time>
      </trkpt>
      <trkpt lat="41.607698440" lon="2.540560040">
        <ele>125.70</ele>
        <time>2014-02-23T11:06:34Z</time>
      </trkpt>
      <trkpt lat="41.607671780" lon="2.540603460">
        <ele>125.50</ele>
        <time>2014-02-23T11:06:35Z</time>
      </trkpt>
      <trkpt lat="41.607640100" lon="2.540643360">
        <ele>125.20</ele>
        <time>2014-02-23T11:06:36Z</time>
      </trkpt>
      <trkpt lat="41.607618480" lon="2.540670010">
        <ele>125.00</ele>
        <time>2014-02-23T11:06:37Z</time>
      </trkpt>
      <trkpt lat="41.607601710" lon="2.540690130">
        <ele>124.80</ele>
        <time>2014-02-23T11:06:38Z</time>
      </trkpt>
      <trkpt lat="41.607593330" lon="2.540705050">
        <ele>124.80</ele>
        <time>2014-02-23T11:06:39Z</time>
      </trkpt>
      <trkpt lat="41.607585120" lon="2.540721810">
        <ele>124.80</ele>
        <time>2014-02-23T11:06:40Z</time>
      </trkpt>
      <trkpt lat="41.607570030" lon="2.540733380">
        <ele>124.90</ele>
        <time>2014-02-23T11:06:41Z</time>
      </trkpt>
      <trkpt lat="41.607548400" lon="2.540741760">
        <ele>124.90</ele>
        <time>2014-02-23T11:06:42Z</time>
      </trkpt>
      <trkpt lat="41.607520070" lon="2.540746790">
        <ele>124.80</ele>
        <time>2014-02-23T11:06:43Z</time>
      </trkpt>
      <trkpt lat="41.607486710" lon="2.540748470">
        <ele>124.60</ele>
        <time>2014-02-23T11:06:44Z</time>
      </trkpt>
      <trkpt lat="41.607453350" lon="2.540746790">
        <ele>124.50</ele>
        <time>2014-02-23T11:06:45Z</time>
      </trkpt>
      <trkpt lat="41.607418480" lon="2.540746790">
        <ele>124.50</ele>
        <time>2014-02-23T11:06:46Z</time>
      </trkpt>
      <trkpt lat="41.607383450" lon="2.540741760">
        <ele>124.40</ele>
        <time>2014-02-23T11:06:47Z</time>
      </trkpt>
      <trkpt lat="41.607346730" lon="2.540736730">
        <ele>124.20</ele>
        <time>2014-02-23T11:06:48Z</time>
      </trkpt>
      <trkpt lat="41.607306670" lon="2.540731700">
        <ele>124.00</ele>
        <time>2014-02-23T11:06:49Z</time>
      </trkpt>
      <trkpt lat="41.607266770" lon="2.540725000">
        <ele>123.80</ele>
        <time>2014-02-23T11:06:50Z</time>
      </trkpt>
      <trkpt lat="41.607230060" lon="2.540715110">
        <ele>123.70</ele>
        <time>2014-02-23T11:06:51Z</time>
      </trkpt>
      <trkpt lat="41.607191670" lon="2.540706730">
        <ele>123.60</ele>
        <time>2014-02-23T11:06:52Z</time>
      </trkpt>
      <trkpt lat="41.607151770" lon="2.540701700">
        <ele>123.80</ele>
        <time>2014-02-23T11:06:53Z</time>
      </trkpt>
      <trkpt lat="41.607113380" lon="2.540695160">
        <ele>124.00</ele>
        <time>2014-02-23T11:06:54Z</time>
      </trkpt>
      <trkpt lat="41.607075160" lon="2.540690130">
        <ele>124.00</ele>
        <time>2014-02-23T11:06:55Z</time>
      </trkpt>
      <trkpt lat="41.607038450" lon="2.540683420">
        <ele>124.10</ele>
        <time>2014-02-23T11:06:56Z</time>
      </trkpt>
      <trkpt lat="41.607000060" lon="2.540673370">
        <ele>124.10</ele>
        <time>2014-02-23T11:06:57Z</time>
      </trkpt>
      <trkpt lat="41.606960160" lon="2.540661800">
        <ele>123.90</ele>
        <time>2014-02-23T11:06:58Z</time>
      </trkpt>
      <trkpt lat="41.606916740" lon="2.540646710">
        <ele>123.70</ele>
        <time>2014-02-23T11:06:59Z</time>
      </trkpt>
      <trkpt lat="41.606871820" lon="2.540630120">
        <ele>123.20</ele>
        <time>2014-02-23T11:07:00Z</time>
      </trkpt>
      <trkpt lat="41.606823370" lon="2.540610000">
        <ele>122.90</ele>
        <time>2014-02-23T11:07:01Z</time>
      </trkpt>
      <trkpt lat="41.606771740" lon="2.540591730">
        <ele>122.70</ele>
        <time>2014-02-23T11:07:02Z</time>
      </trkpt>
      <trkpt lat="41.606721780" lon="2.540568420">
        <ele>122.50</ele>
        <time>2014-02-23T11:07:03Z</time>
      </trkpt>
      <trkpt lat="41.606668470" lon="2.540541770">
        <ele>122.40</ele>
        <time>2014-02-23T11:07:04Z</time>
      </trkpt>
      <trkpt lat="41.606606780" lon="2.540515120">
        <ele>122.40</ele>
        <time>2014-02-23T11:07:05Z</time>
      </trkpt>
      <trkpt lat="41.606541740" lon="2.540488460">
        <ele>122.30</ele>
        <time>2014-02-23T11:07:06Z</time>
      </trkpt>
      <trkpt lat="41.606475020" lon="2.540460130">
        <ele>122.10</ele>
        <time>2014-02-23T11:07:07Z</time>
      </trkpt>
      <trkpt lat="41.606410140" lon="2.540431800">
        <ele>122.00</ele>
        <time>2014-02-23T11:07:08Z</time>
      </trkpt>
      <trkpt lat="41.606343420" lon="2.540403470">
        <ele>121.90</ele>
        <time>2014-02-23T11:07:09Z</time>
      </trkpt>
      <trkpt lat="41.606278380" lon="2.540378490">
        <ele>121.90</ele>
        <time>2014-02-23T11:07:10Z</time>
      </trkpt>
      <trkpt lat="41.606213330" lon="2.540350160">
        <ele>121.80</ele>
        <time>2014-02-23T11:07:11Z</time>
      </trkpt>
      <trkpt lat="41.606151810" lon="2.540325010">
        <ele>121.30</ele>
        <time>2014-02-23T11:07:12Z</time>
      </trkpt>
      <trkpt lat="41.606088440" lon="2.540298360">
        <ele>120.80</ele>
        <time>2014-02-23T11:07:13Z</time>
      </trkpt>
      <trkpt lat="41.606026750" lon="2.540276730">
        <ele>120.60</ele>
        <time>2014-02-23T11:07:14Z</time>
      </trkpt>
      <trkpt lat="41.605966740" lon="2.540255110">
        <ele>120.50</ele>
        <time>2014-02-23T11:07:15Z</time>
      </trkpt>
      <trkpt lat="41.605906720" lon="2.540235160">
        <ele>120.30</ele>
        <time>2014-02-23T11:07:16Z</time>
      </trkpt>
      <trkpt lat="41.605843360" lon="2.540215040">
        <ele>120.40</ele>
        <time>2014-02-23T11:07:17Z</time>
      </trkpt>
      <trkpt lat="41.605781670" lon="2.540196770">
        <ele>120.40</ele>
        <time>2014-02-23T11:07:18Z</time>
      </trkpt>
      <trkpt lat="41.605723500" lon="2.540176820">
        <ele>120.10</ele>
        <time>2014-02-23T11:07:19Z</time>
      </trkpt>
      <trkpt lat="41.605663480" lon="2.540158380">
        <ele>119.90</ele>
        <time>2014-02-23T11:07:20Z</time>
      </trkpt>
      <trkpt lat="41.605605140" lon="2.540141790">
        <ele>120.00</ele>
        <time>2014-02-23T11:07:21Z</time>
      </trkpt>
      <trkpt lat="41.605546800" lon="2.540123350">
        <ele>120.00</ele>
        <time>2014-02-23T11:07:22Z</time>
      </trkpt>
      <trkpt lat="41.605488470" lon="2.540108430">
        <ele>120.10</ele>
        <time>2014-02-23T11:07:23Z</time>
      </trkpt>
      <trkpt lat="41.605430130" lon="2.540093340">
        <ele>119.80</ele>
        <time>2014-02-23T11:07:24Z</time>
      </trkpt>
      <trkpt lat="41.605371790" lon="2.540080100">
        <ele>119.70</ele>
        <time>2014-02-23T11:07:25Z</time>
      </trkpt>
      <trkpt lat="41.605315130" lon="2.540066680">
        <ele>119.40</ele>
        <time>2014-02-23T11:07:26Z</time>
      </trkpt>
      <trkpt lat="41.605255110" lon="2.540056790">
        <ele>119.30</ele>
        <time>2014-02-23T11:07:27Z</time>
      </trkpt>
      <trkpt lat="41.605196780" lon="2.540046740">
        <ele>119.10</ele>
        <time>2014-02-23T11:07:28Z</time>
      </trkpt>
      <trkpt lat="41.605136760" lon="2.540036680">
        <ele>118.80</ele>
        <time>2014-02-23T11:07:29Z</time>
      </trkpt>
      <trkpt lat="41.605076750" lon="2.540026790">
        <ele>118.50</ele>
        <time>2014-02-23T11:07:30Z</time>
      </trkpt>
      <trkpt lat="41.605018410" lon="2.540018400">
        <ele>118.10</ele>
        <time>2014-02-23T11:07:31Z</time>
      </trkpt>
      <trkpt lat="41.604960070" lon="2.540010020">
        <ele>117.80</ele>
        <time>2014-02-23T11:07:32Z</time>
      </trkpt>
      <trkpt lat="41.604901730" lon="2.540001810">
        <ele>117.90</ele>
        <time>2014-02-23T11:07:33Z</time>
      </trkpt>
      <trkpt lat="41.604843400" lon="2.539993430">
        <ele>117.90</ele>
        <time>2014-02-23T11:07:34Z</time>
      </trkpt>
      <trkpt lat="41.604785060" lon="2.539986720">
        <ele>117.90</ele>
        <time>2014-02-23T11:07:35Z</time>
      </trkpt>
      <trkpt lat="41.604730070" lon="2.539983370">
        <ele>117.70</ele>
        <time>2014-02-23T11:07:36Z</time>
      </trkpt>
      <trkpt lat="41.604680120" lon="2.539983370">
        <ele>117.50</ele>
        <time>2014-02-23T11:07:37Z</time>
      </trkpt>
      <trkpt lat="41.604635020" lon="2.539981690">
        <ele>117.10</ele>
        <time>2014-02-23T11:07:38Z</time>
      </trkpt>
      <trkpt lat="41.604595120" lon="2.539970120">
        <ele>116.80</ele>
        <time>2014-02-23T11:07:39Z</time>
      </trkpt>
      <trkpt lat="41.604560090" lon="2.539945150">
        <ele>116.50</ele>
        <time>2014-02-23T11:07:40Z</time>
      </trkpt>
      <trkpt lat="41.604530080" lon="2.539911790">
        <ele>116.40</ele>
        <time>2014-02-23T11:07:41Z</time>
      </trkpt>
      <trkpt lat="41.604508450" lon="2.539873400">
        <ele>116.20</ele>
        <time>2014-02-23T11:07:42Z</time>
      </trkpt>
      <trkpt lat="41.604491690" lon="2.539830150">
        <ele>116.10</ele>
        <time>2014-02-23T11:07:43Z</time>
      </trkpt>
      <trkpt lat="41.604480120" lon="2.539783380">
        <ele>116.10</ele>
        <time>2014-02-23T11:07:44Z</time>
      </trkpt>
      <trkpt lat="41.604478450" lon="2.539733420">
        <ele>116.20</ele>
        <time>2014-02-23T11:07:45Z</time>
      </trkpt>
      <trkpt lat="41.604485150" lon="2.539683460">
        <ele>116.30</ele>
        <time>2014-02-23T11:07:46Z</time>
      </trkpt>
      <trkpt lat="41.604498400" lon="2.539633340">
        <ele>116.40</ele>
        <time>2014-02-23T11:07:47Z</time>
      </trkpt>
      <trkpt lat="41.604511810" lon="2.539586740">
        <ele>116.60</ele>
        <time>2014-02-23T11:07:48Z</time>
      </trkpt>
      <trkpt lat="41.604523370" lon="2.539538460">
        <ele>116.70</ele>
        <time>2014-02-23T11:07:49Z</time>
      </trkpt>
      <trkpt lat="41.604535110" lon="2.539491690">
        <ele>117.30</ele>
        <time>2014-02-23T11:07:50Z</time>
      </trkpt>
      <trkpt lat="41.604546680" lon="2.539446760">
        <ele>117.70</ele>
        <time>2014-02-23T11:07:51Z</time>
      </trkpt>
      <trkpt lat="41.604553380" lon="2.539420100">
        <ele>118.00</ele>
        <time>2014-02-23T11:07:52Z</time>
      </trkpt>
      <trkpt lat="41.604553380" lon="2.539415080">
        <ele>118.20</ele>
        <time>2014-02-23T11:07:53Z</time>
      </trkpt>
      <trkpt lat="41.604555060" lon="2.539415080">
        <ele>118.30</ele>
        <time>2014-02-23T11:07:54Z</time>
      </trkpt>
      <trkpt lat="41.604553380" lon="2.539410050">
        <ele>118.60</ele>
        <time>2014-02-23T11:07:55Z</time>
      </trkpt>
      <trkpt lat="41.604553380" lon="2.539403340">
        <ele>118.80</ele>
        <time>2014-02-23T11:07:56Z</time>
      </trkpt>
      <trkpt lat="41.604551710" lon="2.539400160">
        <ele>118.90</ele>
        <time>2014-02-23T11:07:57Z</time>
      </trkpt>
      <trkpt lat="41.604551710" lon="2.539398480">
        <ele>118.90</ele>
        <time>2014-02-23T11:07:58Z</time>
      </trkpt>
      <trkpt lat="41.604551710" lon="2.539396800">
        <ele>118.70</ele>
        <time>2014-02-23T11:07:59Z</time>
      </trkpt>
      <trkpt lat="41.604551710" lon="2.539395130">
        <ele>118.60</ele>
        <time>2014-02-23T11:08:00Z</time>
      </trkpt>
      <trkpt lat="41.604551710" lon="2.539393450">
        <ele>118.50</ele>
        <time>2014-02-23T11:08:01Z</time>
      </trkpt>
      <trkpt lat="41.604551710" lon="2.539393450">
        <ele>118.30</ele>
        <time>2014-02-23T11:08:02Z</time>
      </trkpt>
      <trkpt lat="41.604551710" lon="2.539391770">
        <ele>118.10</ele>
        <time>2014-02-23T11:08:03Z</time>
      </trkpt>
      <trkpt lat="41.604551710" lon="2.539390100">
        <ele>117.90</ele>
        <time>2014-02-23T11:08:04Z</time>
      </trkpt>
      <trkpt lat="41.604551710" lon="2.539390100">
        <ele>117.70</ele>
        <time>2014-02-23T11:08:05Z</time>
      </trkpt>
      <trkpt lat="41.604550030" lon="2.539388420">
        <ele>117.60</ele>
        <time>2014-02-23T11:08:06Z</time>
      </trkpt>
      <trkpt lat="41.604550030" lon="2.539388420">
        <ele>117.30</ele>
        <time>2014-02-23T11:08:07Z</time>
      </trkpt>
      <trkpt lat="41.604550030" lon="2.539388420">
        <ele>117.10</ele>
        <time>2014-02-23T11:08:08Z</time>
      </trkpt>
      <trkpt lat="41.604550030" lon="2.539386740">
        <ele>117.20</ele>
        <time>2014-02-23T11:08:09Z</time>
      </trkpt>
      <trkpt lat="41.604550030" lon="2.539386740">
        <ele>117.40</ele>
        <time>2014-02-23T11:08:10Z</time>
      </trkpt>
      <trkpt lat="41.604550030" lon="2.539386740">
        <ele>117.70</ele>
        <time>2014-02-23T11:08:11Z</time>
      </trkpt>
      <trkpt lat="41.604548350" lon="2.539386740">
        <ele>117.90</ele>
        <time>2014-02-23T11:08:12Z</time>
      </trkpt>
      <trkpt lat="41.604548350" lon="2.539385070">
        <ele>118.10</ele>
        <time>2014-02-23T11:08:13Z</time>
      </trkpt>
      <trkpt lat="41.604548350" lon="2.539385070">
        <ele>117.90</ele>
        <time>2014-02-23T11:08:14Z</time>
      </trkpt>
      <trkpt lat="41.604548350" lon="2.539385070">
        <ele>117.80</ele>
        <time>2014-02-23T11:08:15Z</time>
      </trkpt>
      <trkpt lat="41.604546680" lon="2.539385070">
        <ele>117.70</ele>
        <time>2014-02-23T11:08:16Z</time>
      </trkpt>
      <trkpt lat="41.604546680" lon="2.539385070">
        <ele>117.60</ele>
        <time>2014-02-23T11:08:17Z</time>
      </trkpt>
      <trkpt lat="41.604546680" lon="2.539385070">
        <ele>117.60</ele>
        <time>2014-02-23T11:08:18Z</time>
      </trkpt>
      <trkpt lat="41.604545000" lon="2.539385070">
        <ele>117.70</ele>
        <time>2014-02-23T11:08:19Z</time>
      </trkpt>
      <trkpt lat="41.604545000" lon="2.539385070">
        <ele>117.70</ele>
        <time>2014-02-23T11:08:20Z</time>
      </trkpt>
      <trkpt lat="41.604545000" lon="2.539385070">
        <ele>117.90</ele>
        <time>2014-02-23T11:08:21Z</time>
      </trkpt>
      <trkpt lat="41.604543490" lon="2.539385070">
        <ele>118.00</ele>
        <time>2014-02-23T11:08:22Z</time>
      </trkpt>
      <trkpt lat="41.604543490" lon="2.539385070">
        <ele>117.90</ele>
        <time>2014-02-23T11:08:23Z</time>
      </trkpt>
      <trkpt lat="41.604543490" lon="2.539385070">
        <ele>117.80</ele>
        <time>2014-02-23T11:08:24Z</time>
      </trkpt>
      <trkpt lat="41.604541810" lon="2.539385070">
        <ele>117.80</ele>
        <time>2014-02-23T11:08:25Z</time>
      </trkpt>
      <trkpt lat="41.604541810" lon="2.539385070">
        <ele>117.60</ele>
        <time>2014-02-23T11:08:26Z</time>
      </trkpt>
      <trkpt lat="41.604541810" lon="2.539383390">
        <ele>117.40</ele>
        <time>2014-02-23T11:08:27Z</time>
      </trkpt>
      <trkpt lat="41.604540140" lon="2.539385070">
        <ele>118.00</ele>
        <time>2014-02-23T11:08:28Z</time>
      </trkpt>
      <trkpt lat="41.604540140" lon="2.539383390">
        <ele>118.40</ele>
        <time>2014-02-23T11:08:29Z</time>
      </trkpt>
      <trkpt lat="41.604538460" lon="2.539385070">
        <ele>118.60</ele>
        <time>2014-02-23T11:08:30Z</time>
      </trkpt>
      <trkpt lat="41.604538460" lon="2.539385070">
        <ele>118.80</ele>
        <time>2014-02-23T11:08:31Z</time>
      </trkpt>
      <trkpt lat="41.604538460" lon="2.539385070">
        <ele>118.90</ele>
        <time>2014-02-23T11:08:32Z</time>
      </trkpt>
      <trkpt lat="41.604536790" lon="2.539385070">
        <ele>119.30</ele>
        <time>2014-02-23T11:08:33Z</time>
      </trkpt>
      <trkpt lat="41.604536790" lon="2.539385070">
        <ele>119.60</ele>
        <time>2014-02-23T11:08:34Z</time>
      </trkpt>
      <trkpt lat="41.604535110" lon="2.539385070">
        <ele>119.20</ele>
        <time>2014-02-23T11:08:35Z</time>
      </trkpt>
      <trkpt lat="41.604535110" lon="2.539385070">
        <ele>118.90</ele>
        <time>2014-02-23T11:08:36Z</time>
      </trkpt>
      <trkpt lat="41.604533430" lon="2.539385070">
        <ele>119.00</ele>
        <time>2014-02-23T11:08:37Z</time>
      </trkpt>
      <trkpt lat="41.604533430" lon="2.539385070">
        <ele>119.10</ele>
        <time>2014-02-23T11:08:38Z</time>
      </trkpt>
      <trkpt lat="41.604531760" lon="2.539385070">
        <ele>119.10</ele>
        <time>2014-02-23T11:08:39Z</time>
      </trkpt>
      <trkpt lat="41.604531760" lon="2.539383390">
        <ele>119.10</ele>
        <time>2014-02-23T11:08:40Z</time>
      </trkpt>
      <trkpt lat="41.604530080" lon="2.539383390">
        <ele>119.10</ele>
        <time>2014-02-23T11:08:41Z</time>
      </trkpt>
      <trkpt lat="41.604530080" lon="2.539383390">
        <ele>119.00</ele>
        <time>2014-02-23T11:08:42Z</time>
      </trkpt>
      <trkpt lat="41.604528400" lon="2.539383390">
        <ele>119.00</ele>
        <time>2014-02-23T11:08:43Z</time>
      </trkpt>
      <trkpt lat="41.604528400" lon="2.539383390">
        <ele>119.00</ele>
        <time>2014-02-23T11:08:44Z</time>
      </trkpt>
      <trkpt lat="41.604526730" lon="2.539383390">
        <ele>118.70</ele>
        <time>2014-02-23T11:08:45Z</time>
      </trkpt>
      <trkpt lat="41.604526730" lon="2.539383390">
        <ele>118.40</ele>
        <time>2014-02-23T11:08:46Z</time>
      </trkpt>
      <trkpt lat="41.604526730" lon="2.539383390">
        <ele>118.80</ele>
        <time>2014-02-23T11:08:47Z</time>
      </trkpt>
      <trkpt lat="41.604525050" lon="2.539383390">
        <ele>119.10</ele>
        <time>2014-02-23T11:08:48Z</time>
      </trkpt>
      <trkpt lat="41.604525050" lon="2.539383390">
        <ele>119.20</ele>
        <time>2014-02-23T11:08:49Z</time>
      </trkpt>
      <trkpt lat="41.604523370" lon="2.539383390">
        <ele>119.30</ele>
        <time>2014-02-23T11:08:50Z</time>
      </trkpt>
      <trkpt lat="41.604523370" lon="2.539383390">
        <ele>119.40</ele>
        <time>2014-02-23T11:08:51Z</time>
      </trkpt>
      <trkpt lat="41.604521700" lon="2.539381720">
        <ele>118.90</ele>
        <time>2014-02-23T11:08:52Z</time>
      </trkpt>
      <trkpt lat="41.604521700" lon="2.539381720">
        <ele>118.50</ele>
        <time>2014-02-23T11:08:53Z</time>
      </trkpt>
      <trkpt lat="41.604520020" lon="2.539381720">
        <ele>118.30</ele>
        <time>2014-02-23T11:08:54Z</time>
      </trkpt>
      <trkpt lat="41.604520020" lon="2.539381720">
        <ele>118.00</ele>
        <time>2014-02-23T11:08:55Z</time>
      </trkpt>
      <trkpt lat="41.604518350" lon="2.539381720">
        <ele>118.00</ele>
        <time>2014-02-23T11:08:56Z</time>
      </trkpt>
      <trkpt lat="41.604518350" lon="2.539381720">
        <ele>117.90</ele>
        <time>2014-02-23T11:08:57Z</time>
      </trkpt>
      <trkpt lat="41.604516670" lon="2.539380040">
        <ele>117.90</ele>
        <time>2014-02-23T11:08:58Z</time>
      </trkpt>
      <trkpt lat="41.604516670" lon="2.539380040">
        <ele>118.20</ele>
        <time>2014-02-23T11:08:59Z</time>
      </trkpt>
      <trkpt lat="41.604515160" lon="2.539380040">
        <ele>118.40</ele>
        <time>2014-02-23T11:09:00Z</time>
      </trkpt>
      <trkpt lat="41.604515160" lon="2.539380040">
        <ele>118.30</ele>
        <time>2014-02-23T11:09:01Z</time>
      </trkpt>
      <trkpt lat="41.604513480" lon="2.539380040">
        <ele>118.30</ele>
        <time>2014-02-23T11:09:02Z</time>
      </trkpt>
      <trkpt lat="41.604513480" lon="2.539380040">
        <ele>118.30</ele>
        <time>2014-02-23T11:09:03Z</time>
      </trkpt>
      <trkpt lat="41.604511810" lon="2.539378360">
        <ele>118.30</ele>
        <time>2014-02-23T11:09:04Z</time>
      </trkpt>
      <trkpt lat="41.604511810" lon="2.539378360">
        <ele>118.30</ele>
        <time>2014-02-23T11:09:05Z</time>
      </trkpt>
      <trkpt lat="41.604510130" lon="2.539378360">
        <ele>118.00</ele>
        <time>2014-02-23T11:09:06Z</time>
      </trkpt>
      <trkpt lat="41.604510130" lon="2.539378360">
        <ele>117.80</ele>
        <time>2014-02-23T11:09:07Z</time>
      </trkpt>
      <trkpt lat="41.604508450" lon="2.539378360">
        <ele>117.90</ele>
        <time>2014-02-23T11:09:08Z</time>
      </trkpt>
      <trkpt lat="41.604508450" lon="2.539378360">
        <ele>117.90</ele>
        <time>2014-02-23T11:09:09Z</time>
      </trkpt>
      <trkpt lat="41.604506780" lon="2.539378360">
        <ele>118.00</ele>
        <time>2014-02-23T11:09:10Z</time>
      </trkpt>
      <trkpt lat="41.604506780" lon="2.539378360">
        <ele>118.10</ele>
        <time>2014-02-23T11:09:11Z</time>
      </trkpt>
      <trkpt lat="41.604505100" lon="2.539376690">
        <ele>118.20</ele>
        <time>2014-02-23T11:09:12Z</time>
      </trkpt>
      <trkpt lat="41.604505100" lon="2.539376690">
        <ele>118.40</ele>
        <time>2014-02-23T11:09:13Z</time>
      </trkpt>
      <trkpt lat="41.604503430" lon="2.539376690">
        <ele>118.60</ele>
        <time>2014-02-23T11:09:14Z</time>
      </trkpt>
      <trkpt lat="41.604503430" lon="2.539376690">
        <ele>118.50</ele>
        <time>2014-02-23T11:09:15Z</time>
      </trkpt>
      <trkpt lat="41.604490010" lon="2.539373330">
        <ele>118.30</ele>
        <time>2014-02-23T11:09:16Z</time>
      </trkpt>
      <trkpt lat="41.604488340" lon="2.539373330">
        <ele>118.30</ele>
        <time>2014-02-23T11:09:17Z</time>
      </trkpt>
      <trkpt lat="41.604486830" lon="2.539375010">
        <ele>118.40</ele>
        <time>2014-02-23T11:09:18Z</time>
      </trkpt>
      <trkpt lat="41.604486830" lon="2.539375010">
        <ele>118.40</ele>
        <time>2014-02-23T11:09:19Z</time>
      </trkpt>
      <trkpt lat="41.604485150" lon="2.539375010">
        <ele>118.30</ele>
        <time>2014-02-23T11:09:20Z</time>
      </trkpt>
      <trkpt lat="41.604483480" lon="2.539376690">
        <ele>118.20</ele>
        <time>2014-02-23T11:09:21Z</time>
      </trkpt>
      <trkpt lat="41.604481800" lon="2.539376690">
        <ele>118.50</ele>
        <time>2014-02-23T11:09:22Z</time>
      </trkpt>
      <trkpt lat="41.604478450" lon="2.539378360">
        <ele>118.80</ele>
        <time>2014-02-23T11:09:23Z</time>
      </trkpt>
      <trkpt lat="41.604476770" lon="2.539378360">
        <ele>118.90</ele>
        <time>2014-02-23T11:09:24Z</time>
      </trkpt>
      <trkpt lat="41.604475090" lon="2.539380040">
        <ele>118.80</ele>
        <time>2014-02-23T11:09:25Z</time>
      </trkpt>
      <trkpt lat="41.604471740" lon="2.539380040">
        <ele>118.70</ele>
        <time>2014-02-23T11:09:26Z</time>
      </trkpt>
      <trkpt lat="41.604470070" lon="2.539381720">
        <ele>118.40</ele>
        <time>2014-02-23T11:09:27Z</time>
      </trkpt>
      <trkpt lat="41.604468390" lon="2.539381720">
        <ele>118.20</ele>
        <time>2014-02-23T11:09:28Z</time>
      </trkpt>
      <trkpt lat="41.604465040" lon="2.539383390">
        <ele>118.00</ele>
        <time>2014-02-23T11:09:29Z</time>
      </trkpt>
      <trkpt lat="41.604463360" lon="2.539383390">
        <ele>117.80</ele>
        <time>2014-02-23T11:09:30Z</time>
      </trkpt>
      <trkpt lat="41.604461680" lon="2.539385070">
        <ele>117.70</ele>
        <time>2014-02-23T11:09:31Z</time>
      </trkpt>
      <trkpt lat="41.604460010" lon="2.539385070">
        <ele>118.00</ele>
        <time>2014-02-23T11:09:32Z</time>
      </trkpt>
      <trkpt lat="41.604458330" lon="2.539385070">
        <ele>118.20</ele>
        <time>2014-02-23T11:09:33Z</time>
      </trkpt>
      <trkpt lat="41.604456820" lon="2.539385070">
        <ele>118.30</ele>
        <time>2014-02-23T11:09:34Z</time>
      </trkpt>
      <trkpt lat="41.604456820" lon="2.539386740">
        <ele>118.30</ele>
        <time>2014-02-23T11:09:35Z</time>
      </trkpt>
      <trkpt lat="41.604456820" lon="2.539386740">
        <ele>118.30</ele>
        <time>2014-02-23T11:09:36Z</time>
      </trkpt>
      <trkpt lat="41.604456820" lon="2.539386740">
        <ele>118.20</ele>
        <time>2014-02-23T11:09:37Z</time>
      </trkpt>
      <trkpt lat="41.604456820" lon="2.539386740">
        <ele>118.10</ele>
        <time>2014-02-23T11:09:38Z</time>
      </trkpt>
      <trkpt lat="41.604456820" lon="2.539386740">
        <ele>117.80</ele>
        <time>2014-02-23T11:09:39Z</time>
      </trkpt>
      <trkpt lat="41.604456820" lon="2.539386740">
        <ele>117.60</ele>
        <time>2014-02-23T11:09:40Z</time>
      </trkpt>
      <trkpt lat="41.604456820" lon="2.539386740">
        <ele>117.50</ele>
        <time>2014-02-23T11:09:41Z</time>
      </trkpt>
      <trkpt lat="41.604456820" lon="2.539386740">
        <ele>117.40</ele>
        <time>2014-02-23T11:09:42Z</time>
      </trkpt>
      <trkpt lat="41.604456820" lon="2.539386740">
        <ele>117.40</ele>
        <time>2014-02-23T11:09:43Z</time>
      </trkpt>
      <trkpt lat="41.604456820" lon="2.539386740">
        <ele>117.60</ele>
        <time>2014-02-23T11:09:44Z</time>
      </trkpt>
      <trkpt lat="41.604458330" lon="2.539386740">
        <ele>117.70</ele>
        <time>2014-02-23T11:09:45Z</time>
      </trkpt>
      <trkpt lat="41.604458330" lon="2.539386740">
        <ele>118.00</ele>
        <time>2014-02-23T11:09:46Z</time>
      </trkpt>
      <trkpt lat="41.604460010" lon="2.539386740">
        <ele>118.20</ele>
        <time>2014-02-23T11:09:47Z</time>
      </trkpt>
      <trkpt lat="41.604460010" lon="2.539388420">
        <ele>118.40</ele>
        <time>2014-02-23T11:09:48Z</time>
      </trkpt>
      <trkpt lat="41.604458330" lon="2.539388420">
        <ele>118.30</ele>
        <time>2014-02-23T11:09:49Z</time>
      </trkpt>
      <trkpt lat="41.604458330" lon="2.539388420">
        <ele>118.20</ele>
        <time>2014-02-23T11:09:50Z</time>
      </trkpt>
      <trkpt lat="41.604458330" lon="2.539388420">
        <ele>118.10</ele>
        <time>2014-02-23T11:09:51Z</time>
      </trkpt>
      <trkpt lat="41.604456820" lon="2.539390100">
        <ele>118.10</ele>
        <time>2014-02-23T11:09:52Z</time>
      </trkpt>
      <trkpt lat="41.604456820" lon="2.539390100">
        <ele>118.10</ele>
        <time>2014-02-23T11:09:53Z</time>
      </trkpt>
      <trkpt lat="41.604455150" lon="2.539390100">
        <ele>118.10</ele>
        <time>2014-02-23T11:09:54Z</time>
      </trkpt>
      <trkpt lat="41.604455150" lon="2.539391770">
        <ele>118.10</ele>
        <time>2014-02-23T11:09:55Z</time>
      </trkpt>
      <trkpt lat="41.604455150" lon="2.539391770">
        <ele>118.30</ele>
        <time>2014-02-23T11:09:56Z</time>
      </trkpt>
      <trkpt lat="41.604455150" lon="2.539391770">
        <ele>118.60</ele>
        <time>2014-02-23T11:09:57Z</time>
      </trkpt>
      <trkpt lat="41.604455150" lon="2.539393450">
        <ele>118.50</ele>
        <time>2014-02-23T11:09:58Z</time>
      </trkpt>
      <trkpt lat="41.604453470" lon="2.539393450">
        <ele>118.50</ele>
        <time>2014-02-23T11:09:59Z</time>
      </trkpt>
      <trkpt lat="41.604453470" lon="2.539393450">
        <ele>118.60</ele>
        <time>2014-02-23T11:10:00Z</time>
      </trkpt>
      <trkpt lat="41.604453470" lon="2.539393450">
        <ele>118.70</ele>
        <time>2014-02-23T11:10:01Z</time>
      </trkpt>
      <trkpt lat="41.604453470" lon="2.539395130">
        <ele>118.70</ele>
        <time>2014-02-23T11:10:02Z</time>
      </trkpt>
      <trkpt lat="41.604453470" lon="2.539395130">
        <ele>118.80</ele>
        <time>2014-02-23T11:10:03Z</time>
      </trkpt>
      <trkpt lat="41.604453470" lon="2.539395130">
        <ele>119.00</ele>
        <time>2014-02-23T11:10:04Z</time>
      </trkpt>
      <trkpt lat="41.604453470" lon="2.539395130">
        <ele>118.40</ele>
        <time>2014-02-23T11:10:05Z</time>
      </trkpt>
      <trkpt lat="41.604453470" lon="2.539396800">
        <ele>118.00</ele>
        <time>2014-02-23T11:10:06Z</time>
      </trkpt>
      <trkpt lat="41.604453470" lon="2.539396800">
        <ele>117.70</ele>
        <time>2014-02-23T11:10:07Z</time>
      </trkpt>
      <trkpt lat="41.604453470" lon="2.539396800">
        <ele>118.00</ele>
        <time>2014-02-23T11:10:08Z</time>
      </trkpt>
      <trkpt lat="41.604453470" lon="2.539396800">
        <ele>118.30</ele>
        <time>2014-02-23T11:10:09Z</time>
      </trkpt>
      <trkpt lat="41.604453470" lon="2.539396800">
        <ele>118.10</ele>
        <time>2014-02-23T11:10:10Z</time>
      </trkpt>
      <trkpt lat="41.604453470" lon="2.539396800">
        <ele>118.00</ele>
        <time>2014-02-23T11:10:11Z</time>
      </trkpt>
    </trkseg>
  </trk>
</gpx>
